<?xml version='1.0' encoding='UTF-8'?><gpx version="1.1" creator="JPX - https://github.com/jenetics/jpx" xmlns="http://www.topografix.com/GPX/1/1"><trk><trkseg><trkpt lat="45.3813469171286" lon="9.098747205131712"><ele>105.66666666666667</ele><time>2026-04-07T06:38:39.999Z</time></trkpt><trkpt lat="45.38140615157737" lon="9.09868738832999"><ele>105.33333333333334</ele><time>2026-04-07T06:38:41.999Z</time></trkpt><trkpt lat="45.381496003362734" lon="9.098598042776732"><ele>105.0</ele><time>2026-04-07T06:38:43.999Z</time></trkpt><trkpt lat="45.381562216505586" lon="9.09859494420051"><ele>104.66666666666666</ele><time>2026-04-07T06:38:45.999Z</time></trkpt><trkpt lat="45.38158943778279" lon="9.098675877508606"><ele>104.33333333333333</ele><time>2026-04-07T06:38:47.999Z</time></trkpt><trkpt lat="45.38162585329868" lon="9.098768059995013"><ele>104.0</ele><time>2026-04-07T06:39:13.999Z</time></trkpt><trkpt lat="45.38167279111819" lon="9.098850071490842"><ele>103.99999999999999</ele><time>2026-04-07T06:39:15.999Z</time></trkpt><trkpt lat="45.38167270467282" lon="9.098949490439097"><ele>104.0</ele><time>2026-04-07T06:39:18.999Z</time></trkpt><trkpt lat="45.38161195878684" lon="9.09903997110486"><ele>104.0</ele><time>2026-04-07T06:39:20.999Z</time></trkpt><trkpt lat="45.3815552156308" lon="9.099088342218915"><ele>104.0</ele><time>2026-04-07T06:39:21.999Z</time></trkpt><trkpt lat="45.38145367480338" lon="9.099189513894167"><ele>103.99999999999999</ele><time>2026-04-07T06:39:23.999Z</time></trkpt><trkpt lat="45.38139971935836" lon="9.099251443594634"><ele>104.0</ele><time>2026-04-07T06:39:24.999Z</time></trkpt><trkpt lat="45.3812983597661" lon="9.099330478544477"><ele>104.33333333333333</ele><time>2026-04-07T06:39:26.999Z</time></trkpt><trkpt lat="45.38119611566621" lon="9.099239324134963"><ele>104.66666666666666</ele><time>2026-04-07T06:39:28.999Z</time></trkpt><trkpt lat="45.38114820968904" lon="9.099161502966032"><ele>105.0</ele><time>2026-04-07T06:39:29.998Z</time></trkpt><trkpt lat="45.381079476623405" lon="9.09910383092221"><ele>105.33333333333334</ele><time>2026-04-07T06:39:30.998Z</time></trkpt><trkpt lat="45.381015811384685" lon="9.099026784134574"><ele>105.66666666666667</ele><time>2026-04-07T06:39:31.998Z</time></trkpt><trkpt lat="45.38095341939509" lon="9.09895440436525"><ele>106.0</ele><time>2026-04-07T06:39:32.998Z</time></trkpt><trkpt lat="45.380901750586006" lon="9.098893179151204"><ele>106.0</ele><time>2026-04-07T06:39:33.998Z</time></trkpt><trkpt lat="45.38083904481508" lon="9.098855642078135"><ele>106.0</ele><time>2026-04-07T06:39:34.998Z</time></trkpt><trkpt lat="45.38076810897442" lon="9.098830881293999"><ele>106.0</ele><time>2026-04-07T06:39:35.999Z</time></trkpt><trkpt lat="45.38068783094182" lon="9.09893302262758"><ele>106.0</ele><time>2026-04-07T06:39:36.999Z</time></trkpt><trkpt lat="45.3805983640453" lon="9.098992295020421"><ele>106.0</ele><time>2026-04-07T06:39:37.999Z</time></trkpt><trkpt lat="45.38050416318577" lon="9.099060526996936"><ele>106.00000000000001</ele><time>2026-04-07T06:39:38.999Z</time></trkpt><trkpt lat="45.38042850197148" lon="9.099121662509765"><ele>106.0</ele><time>2026-04-07T06:39:39.999Z</time></trkpt><trkpt lat="45.38033999997773" lon="9.099219731113838"><ele>106.0</ele><time>2026-04-07T06:39:41.999Z</time></trkpt><trkpt lat="45.38027204991638" lon="9.099244259751952"><ele>106.0</ele><time>2026-04-07T06:39:43.999Z</time></trkpt><trkpt lat="45.3802345689325" lon="9.099154055607713"><ele>106.00000000000001</ele><time>2026-04-07T06:39:44.999Z</time></trkpt><trkpt lat="45.38018148771508" lon="9.099094830316787"><ele>106.0</ele><time>2026-04-07T06:39:45.999Z</time></trkpt><trkpt lat="45.38013700563313" lon="9.099005341530459"><ele>106.0</ele><time>2026-04-07T06:39:46.999Z</time></trkpt><trkpt lat="45.38007885970569" lon="9.098906180761789"><ele>106.0</ele><time>2026-04-07T06:39:47.999Z</time></trkpt><trkpt lat="45.380017947769446" lon="9.098821374612715"><ele>106.0</ele><time>2026-04-07T06:39:48.999Z</time></trkpt><trkpt lat="45.37997260957117" lon="9.098741542575008"><ele>106.0</ele><time>2026-04-07T06:39:49.999Z</time></trkpt><trkpt lat="45.3799297520357" lon="9.098599400529068"><ele>106.0</ele><time>2026-04-07T06:39:51.999Z</time></trkpt><trkpt lat="45.38000738740598" lon="9.098453218843849"><ele>106.0</ele><time>2026-04-07T06:39:53.999Z</time></trkpt><trkpt lat="45.38008600096681" lon="9.098419249650133"><ele>106.0</ele><time>2026-04-07T06:39:54.999Z</time></trkpt><trkpt lat="45.3801697531226" lon="9.098383003594996"><ele>106.0</ele><time>2026-04-07T06:39:56Z</time></trkpt><trkpt lat="45.380245068118676" lon="9.09830018932679"><ele>106.0</ele><time>2026-04-07T06:39:57Z</time></trkpt><trkpt lat="45.380315227389715" lon="9.098210404901314"><ele>106.0</ele><time>2026-04-07T06:39:58Z</time></trkpt><trkpt lat="45.38039793367558" lon="9.0981246103015"><ele>106.0</ele><time>2026-04-07T06:39:59Z</time></trkpt><trkpt lat="45.38049443296581" lon="9.098033332689582"><ele>106.0</ele><time>2026-04-07T06:40:00Z</time></trkpt><trkpt lat="45.380581774339376" lon="9.097945682896286"><ele>106.0</ele><time>2026-04-07T06:40:01Z</time></trkpt><trkpt lat="45.38066133909536" lon="9.097890064642362"><ele>106.0</ele><time>2026-04-07T06:40:02Z</time></trkpt><trkpt lat="45.3807284351631" lon="9.097829443990117"><ele>106.0</ele><time>2026-04-07T06:40:03Z</time></trkpt><trkpt lat="45.380797468189115" lon="9.09777285790391"><ele>106.0</ele><time>2026-04-07T06:40:04Z</time></trkpt><trkpt lat="45.38086291068442" lon="9.097714413361558"><ele>106.0</ele><time>2026-04-07T06:40:05Z</time></trkpt><trkpt lat="45.38091093505589" lon="9.097654782959676"><ele>106.0</ele><time>2026-04-07T06:40:06Z</time></trkpt><trkpt lat="45.380938745967974" lon="9.097472125592247"><ele>106.0</ele><time>2026-04-07T06:40:08Z</time></trkpt><trkpt lat="45.38089614396684" lon="9.097356768549114"><ele>106.0</ele><time>2026-04-07T06:40:09Z</time></trkpt><trkpt lat="45.38083995178748" lon="9.097242520686978"><ele>106.0</ele><time>2026-04-07T06:40:10Z</time></trkpt><trkpt lat="45.38080636922028" lon="9.09710793945542"><ele>106.0</ele><time>2026-04-07T06:40:11Z</time></trkpt><trkpt lat="45.38076354941065" lon="9.09698946288445"><ele>106.0</ele><time>2026-04-07T06:40:12Z</time></trkpt><trkpt lat="45.38072889885214" lon="9.0968926982162"><ele>106.0</ele><time>2026-04-07T06:40:13Z</time></trkpt><trkpt lat="45.38066804201318" lon="9.096763871114236"><ele>106.0</ele><time>2026-04-07T06:40:15Z</time></trkpt><trkpt lat="45.38063424447149" lon="9.096665635714164"><ele>105.83333333333334</ele><time>2026-04-07T06:40:17Z</time></trkpt><trkpt lat="45.38060230881133" lon="9.096584777669223"><ele>105.66666666666667</ele><time>2026-04-07T06:40:19Z</time></trkpt><trkpt lat="45.380585665006116" lon="9.096484667645289"><ele>105.5</ele><time>2026-04-07T06:40:23Z</time></trkpt><trkpt lat="45.380558319994535" lon="9.096377117937744"><ele>105.33333333333334</ele><time>2026-04-07T06:40:33Z</time></trkpt><trkpt lat="45.380636607794635" lon="9.096289736864797"><ele>105.16666666666667</ele><time>2026-04-07T06:40:34Z</time></trkpt><trkpt lat="45.38067962416509" lon="9.096186091570942"><ele>105.0</ele><time>2026-04-07T06:40:36Z</time></trkpt><trkpt lat="45.38071564229068" lon="9.096062703514924"><ele>105.0</ele><time>2026-04-07T06:40:38Z</time></trkpt><trkpt lat="45.38079696857869" lon="9.09603611219071"><ele>105.0</ele><time>2026-04-07T06:40:39Z</time></trkpt><trkpt lat="45.38086910020951" lon="9.095981002349566"><ele>105.0</ele><time>2026-04-07T06:40:40Z</time></trkpt><trkpt lat="45.38094986396416" lon="9.095918788871609"><ele>105.0</ele><time>2026-04-07T06:40:41Z</time></trkpt><trkpt lat="45.381041937049574" lon="9.095853442898836"><ele>105.0</ele><time>2026-04-07T06:40:42Z</time></trkpt><trkpt lat="45.381126028438686" lon="9.09579484613127"><ele>104.75</ele><time>2026-04-07T06:40:43Z</time></trkpt><trkpt lat="45.381223909442056" lon="9.09572603231776"><ele>104.5</ele><time>2026-04-07T06:40:44Z</time></trkpt><trkpt lat="45.381319859639234" lon="9.095654225160501"><ele>104.25</ele><time>2026-04-07T06:40:45Z</time></trkpt><trkpt lat="45.3814297661811" lon="9.095563551918382"><ele>104.0</ele><time>2026-04-07T06:40:46Z</time></trkpt><trkpt lat="45.38154739877008" lon="9.09545706920457"><ele>104.0</ele><time>2026-04-07T06:40:47Z</time></trkpt><trkpt lat="45.38167614242681" lon="9.095336651171381"><ele>104.0</ele><time>2026-04-07T06:40:48Z</time></trkpt><trkpt lat="45.381809744880144" lon="9.095195382845114"><ele>104.0</ele><time>2026-04-07T06:40:49Z</time></trkpt><trkpt lat="45.38193997348374" lon="9.095048454777752"><ele>104.0</ele><time>2026-04-07T06:40:50Z</time></trkpt><trkpt lat="45.382066803896876" lon="9.094928759792346"><ele>104.0</ele><time>2026-04-07T06:40:51Z</time></trkpt><trkpt lat="45.38220137002615" lon="9.094765632923988"><ele>104.0</ele><time>2026-04-07T06:40:52Z</time></trkpt><trkpt lat="45.38233362422015" lon="9.09464689733654"><ele>103.66666666666666</ele><time>2026-04-07T06:40:53Z</time></trkpt><trkpt lat="45.382469805455884" lon="9.094493122892535"><ele>103.33333333333334</ele><time>2026-04-07T06:40:54Z</time></trkpt><trkpt lat="45.38259963241462" lon="9.094369724333141"><ele>103.0</ele><time>2026-04-07T06:40:55Z</time></trkpt><trkpt lat="45.38273706257791" lon="9.094216987820694"><ele>103.33333333333334</ele><time>2026-04-07T06:40:56Z</time></trkpt><trkpt lat="45.382878507464035" lon="9.094065807178005"><ele>103.66666666666666</ele><time>2026-04-07T06:40:57Z</time></trkpt><trkpt lat="45.38301883319452" lon="9.09391741239056"><ele>104.0</ele><time>2026-04-07T06:40:58Z</time></trkpt><trkpt lat="45.38316137765708" lon="9.093765796044988"><ele>105.0</ele><time>2026-04-07T06:40:59Z</time></trkpt><trkpt lat="45.3833062960369" lon="9.09361761395466"><ele>106.0</ele><time>2026-04-07T06:41:00Z</time></trkpt><trkpt lat="45.38345416402366" lon="9.093475136047664"><ele>107.0</ele><time>2026-04-07T06:41:01Z</time></trkpt><trkpt lat="45.383609379668584" lon="9.093335813468675"><ele>108.0</ele><time>2026-04-07T06:41:02Z</time></trkpt><trkpt lat="45.38377437537365" lon="9.093203707982655"><ele>109.0</ele><time>2026-04-07T06:41:03Z</time></trkpt><trkpt lat="45.38394570498768" lon="9.093074415179505"><ele>110.0</ele><time>2026-04-07T06:41:04Z</time></trkpt><trkpt lat="45.38411820145207" lon="9.092937552874503"><ele>108.0</ele><time>2026-04-07T06:41:05Z</time></trkpt><trkpt lat="45.38429151701131" lon="9.092799411820181"><ele>106.0</ele><time>2026-04-07T06:41:06Z</time></trkpt><trkpt lat="45.384469743056776" lon="9.092656934369792"><ele>104.0</ele><time>2026-04-07T06:41:07Z</time></trkpt><trkpt lat="45.3846519883196" lon="9.09251209661716"><ele>104.66666666666666</ele><time>2026-04-07T06:41:08Z</time></trkpt><trkpt lat="45.38483194952935" lon="9.092368852071058"><ele>105.33333333333334</ele><time>2026-04-07T06:41:09Z</time></trkpt><trkpt lat="45.385011429638865" lon="9.092221646029822"><ele>106.0</ele><time>2026-04-07T06:41:10Z</time></trkpt><trkpt lat="45.38519363724482" lon="9.092075292261264"><ele>106.0</ele><time>2026-04-07T06:41:11Z</time></trkpt><trkpt lat="45.38537378887716" lon="9.091935724698827"><ele>106.0</ele><time>2026-04-07T06:41:12Z</time></trkpt><trkpt lat="45.38555743433161" lon="9.091794838563745"><ele>106.0</ele><time>2026-04-07T06:41:13Z</time></trkpt><trkpt lat="45.38574797298809" lon="9.091661209010795"><ele>105.66666666666667</ele><time>2026-04-07T06:41:14Z</time></trkpt><trkpt lat="45.38594346775274" lon="9.091546853271623"><ele>105.33333333333334</ele><time>2026-04-07T06:41:15Z</time></trkpt><trkpt lat="45.386142762119775" lon="9.091432562448844"><ele>105.0</ele><time>2026-04-07T06:41:16Z</time></trkpt><trkpt lat="45.38632027982596" lon="9.091330243244789"><ele>105.33333333333334</ele><time>2026-04-07T06:41:17Z</time></trkpt><trkpt lat="45.38648708075626" lon="9.091230556458173"><ele>105.66666666666667</ele><time>2026-04-07T06:41:18Z</time></trkpt><trkpt lat="45.386661848499735" lon="9.091124467840034"><ele>106.0</ele><time>2026-04-07T06:41:19Z</time></trkpt><trkpt lat="45.38684502474414" lon="9.091010967984099"><ele>106.0</ele><time>2026-04-07T06:41:20Z</time></trkpt><trkpt lat="45.38702686911491" lon="9.090903435824844"><ele>106.0</ele><time>2026-04-07T06:41:21Z</time></trkpt><trkpt lat="45.387213705835165" lon="9.090789003874947"><ele>106.0</ele><time>2026-04-07T06:41:22Z</time></trkpt><trkpt lat="45.38739899485518" lon="9.090674710156224"><ele>105.66666666666667</ele><time>2026-04-07T06:41:23Z</time></trkpt><trkpt lat="45.38757881107055" lon="9.090564654914955"><ele>105.33333333333334</ele><time>2026-04-07T06:41:24Z</time></trkpt><trkpt lat="45.38776377642825" lon="9.090453024334435"><ele>105.0</ele><time>2026-04-07T06:41:25Z</time></trkpt><trkpt lat="45.38794904231639" lon="9.09034328243279"><ele>105.0</ele><time>2026-04-07T06:41:26Z</time></trkpt><trkpt lat="45.38812722998373" lon="9.090240175827004"><ele>105.0</ele><time>2026-04-07T06:41:27Z</time></trkpt><trkpt lat="45.388312161986825" lon="9.090126275856703"><ele>105.0</ele><time>2026-04-07T06:41:28Z</time></trkpt><trkpt lat="45.388487073513936" lon="9.090020221009599"><ele>105.0</ele><time>2026-04-07T06:41:29Z</time></trkpt><trkpt lat="45.38865383621017" lon="9.089921236944443"><ele>105.0</ele><time>2026-04-07T06:41:30Z</time></trkpt><trkpt lat="45.38881221850934" lon="9.089826503552704"><ele>105.0</ele><time>2026-04-07T06:41:31Z</time></trkpt><trkpt lat="45.38897871553897" lon="9.089726455547773"><ele>105.0</ele><time>2026-04-07T06:41:32Z</time></trkpt><trkpt lat="45.38914155931745" lon="9.089627884191238"><ele>105.0</ele><time>2026-04-07T06:41:32.999Z</time></trkpt><trkpt lat="45.38930202383026" lon="9.089531166553401"><ele>105.0</ele><time>2026-04-07T06:41:33.999Z</time></trkpt><trkpt lat="45.38946641299585" lon="9.089431026772345"><ele>105.0</ele><time>2026-04-07T06:41:34.999Z</time></trkpt><trkpt lat="45.389641324086746" lon="9.089323738316654"><ele>105.0</ele><time>2026-04-07T06:41:35.999Z</time></trkpt><trkpt lat="45.38980645640153" lon="9.08922485183591"><ele>105.0</ele><time>2026-04-07T06:41:36.999Z</time></trkpt><trkpt lat="45.389976968843285" lon="9.089124945187907"><ele>105.33333333333334</ele><time>2026-04-07T06:41:37.999Z</time></trkpt><trkpt lat="45.39013424546262" lon="9.089034372896407"><ele>105.66666666666667</ele><time>2026-04-07T06:41:38.999Z</time></trkpt><trkpt lat="45.390286244852874" lon="9.088944083543758"><ele>106.0</ele><time>2026-04-07T06:41:39.999Z</time></trkpt><trkpt lat="45.39042519407637" lon="9.088861982930776"><ele>106.66666666666667</ele><time>2026-04-07T06:41:41Z</time></trkpt><trkpt lat="45.390586439336815" lon="9.088764774069153"><ele>107.33333333333334</ele><time>2026-04-07T06:41:42Z</time></trkpt><trkpt lat="45.390738451690176" lon="9.08867413368735"><ele>108.0</ele><time>2026-04-07T06:41:43Z</time></trkpt><trkpt lat="45.390895552346194" lon="9.088576675638215"><ele>108.0</ele><time>2026-04-07T06:41:44Z</time></trkpt><trkpt lat="45.39105503115183" lon="9.088479557664334"><ele>108.0</ele><time>2026-04-07T06:41:45Z</time></trkpt><trkpt lat="45.391212412308974" lon="9.088385677535191"><ele>108.0</ele><time>2026-04-07T06:41:46Z</time></trkpt><trkpt lat="45.39137613416763" lon="9.08828518672362"><ele>107.0</ele><time>2026-04-07T06:41:47Z</time></trkpt><trkpt lat="45.39154113182246" lon="9.08818147904973"><ele>106.0</ele><time>2026-04-07T06:41:48Z</time></trkpt><trkpt lat="45.39169204150331" lon="9.088084289415237"><ele>105.0</ele><time>2026-04-07T06:41:49Z</time></trkpt><trkpt lat="45.39182966142079" lon="9.087986404078498"><ele>105.0</ele><time>2026-04-07T06:41:50Z</time></trkpt><trkpt lat="45.39196826831679" lon="9.087871799614245"><ele>105.0</ele><time>2026-04-07T06:41:51Z</time></trkpt><trkpt lat="45.39210359370096" lon="9.087751894442967"><ele>105.0</ele><time>2026-04-07T06:41:52Z</time></trkpt><trkpt lat="45.392236499806614" lon="9.08763443915515"><ele>105.0</ele><time>2026-04-07T06:41:53Z</time></trkpt><trkpt lat="45.392384478296" lon="9.087501393658107"><ele>105.0</ele><time>2026-04-07T06:41:54Z</time></trkpt><trkpt lat="45.392529852837995" lon="9.087375871110007"><ele>105.0</ele><time>2026-04-07T06:41:55Z</time></trkpt><trkpt lat="45.39267996261874" lon="9.08724491632797"><ele>105.0</ele><time>2026-04-07T06:41:56Z</time></trkpt><trkpt lat="45.39283517247331" lon="9.087106792293211"><ele>105.0</ele><time>2026-04-07T06:41:57Z</time></trkpt><trkpt lat="45.3929879018152" lon="9.086974037919337"><ele>105.0</ele><time>2026-04-07T06:41:58Z</time></trkpt><trkpt lat="45.39314111941812" lon="9.086838576158664"><ele>105.0</ele><time>2026-04-07T06:41:59Z</time></trkpt><trkpt lat="45.393300595275214" lon="9.086691901246885"><ele>105.0</ele><time>2026-04-07T06:42:00Z</time></trkpt><trkpt lat="45.393484011472474" lon="9.086545276293228"><ele>105.0</ele><time>2026-04-07T06:42:01Z</time></trkpt><trkpt lat="45.393668711578485" lon="9.086384143066763"><ele>105.33333333333334</ele><time>2026-04-07T06:42:02Z</time></trkpt><trkpt lat="45.39385569818262" lon="9.086220957302418"><ele>105.66666666666667</ele><time>2026-04-07T06:42:03Z</time></trkpt><trkpt lat="45.39404806056718" lon="9.086053080072286"><ele>106.0</ele><time>2026-04-07T06:42:04Z</time></trkpt><trkpt lat="45.39422675682757" lon="9.085879868459283"><ele>106.0</ele><time>2026-04-07T06:42:05Z</time></trkpt><trkpt lat="45.39440041112635" lon="9.085740109526117"><ele>106.0</ele><time>2026-04-07T06:42:06Z</time></trkpt><trkpt lat="45.39457195884254" lon="9.085597443676452"><ele>106.0</ele><time>2026-04-07T06:42:07Z</time></trkpt><trkpt lat="45.39474264486992" lon="9.085452161202296"><ele>106.0</ele><time>2026-04-07T06:42:08Z</time></trkpt><trkpt lat="45.39491930020445" lon="9.0852922974611"><ele>106.0</ele><time>2026-04-07T06:42:09Z</time></trkpt><trkpt lat="45.39510084039464" lon="9.085134551981177"><ele>106.0</ele><time>2026-04-07T06:42:10Z</time></trkpt><trkpt lat="45.39527647673275" lon="9.084978734110797"><ele>106.33333333333334</ele><time>2026-04-07T06:42:11Z</time></trkpt><trkpt lat="45.39545954298328" lon="9.084813282056253"><ele>106.66666666666666</ele><time>2026-04-07T06:42:12Z</time></trkpt><trkpt lat="45.39563642788002" lon="9.084655347335728"><ele>107.0</ele><time>2026-04-07T06:42:13Z</time></trkpt><trkpt lat="45.39581590079092" lon="9.084491365249793"><ele>107.33333333333333</ele><time>2026-04-07T06:42:14Z</time></trkpt><trkpt lat="45.396009922785005" lon="9.084348396449991"><ele>107.66666666666666</ele><time>2026-04-07T06:42:15Z</time></trkpt><trkpt lat="45.396196456035774" lon="9.084186238495745"><ele>108.0</ele><time>2026-04-07T06:42:16Z</time></trkpt><trkpt lat="45.396386043044735" lon="9.084021425750853"><ele>108.0</ele><time>2026-04-07T06:42:17Z</time></trkpt><trkpt lat="45.396574764459" lon="9.083857365570346"><ele>108.0</ele><time>2026-04-07T06:42:18Z</time></trkpt><trkpt lat="45.39675972586098" lon="9.0836715823828"><ele>108.0</ele><time>2026-04-07T06:42:19Z</time></trkpt><trkpt lat="45.396947047094095" lon="9.08350975184233"><ele>108.0</ele><time>2026-04-07T06:42:20Z</time></trkpt><trkpt lat="45.39713419531819" lon="9.083342661511455"><ele>108.0</ele><time>2026-04-07T06:42:21Z</time></trkpt><trkpt lat="45.39733192567143" lon="9.083197147351655"><ele>108.0</ele><time>2026-04-07T06:42:22Z</time></trkpt><trkpt lat="45.39752363358276" lon="9.083030084748133"><ele>107.5</ele><time>2026-04-07T06:42:23Z</time></trkpt><trkpt lat="45.39773343298277" lon="9.082847416909052"><ele>107.0</ele><time>2026-04-07T06:42:24Z</time></trkpt><trkpt lat="45.39795539313626" lon="9.082654964713775"><ele>107.0</ele><time>2026-04-07T06:42:25Z</time></trkpt><trkpt lat="45.39818464981037" lon="9.08245662946015"><ele>107.0</ele><time>2026-04-07T06:42:26Z</time></trkpt><trkpt lat="45.398407306872514" lon="9.0822640035404"><ele>106.5</ele><time>2026-04-07T06:42:27Z</time></trkpt><trkpt lat="45.39861321279243" lon="9.082085487181976"><ele>106.0</ele><time>2026-04-07T06:42:28Z</time></trkpt><trkpt lat="45.398801953472244" lon="9.081898156995248"><ele>106.0</ele><time>2026-04-07T06:42:29Z</time></trkpt><trkpt lat="45.398998138172345" lon="9.081737391695835"><ele>106.0</ele><time>2026-04-07T06:42:30Z</time></trkpt><trkpt lat="45.399190273620064" lon="9.081575158920081"><ele>106.0</ele><time>2026-04-07T06:42:31Z</time></trkpt><trkpt lat="45.39937411286291" lon="9.08141450330506"><ele>106.0</ele><time>2026-04-07T06:42:32Z</time></trkpt><trkpt lat="45.39955320204698" lon="9.081252132522428"><ele>106.0</ele><time>2026-04-07T06:42:33Z</time></trkpt><trkpt lat="45.39972380488683" lon="9.081079798045065"><ele>106.33333333333334</ele><time>2026-04-07T06:42:34Z</time></trkpt><trkpt lat="45.399884879293865" lon="9.080889960148706"><ele>106.66666666666666</ele><time>2026-04-07T06:42:35Z</time></trkpt><trkpt lat="45.400036045485514" lon="9.080679166785256"><ele>107.0</ele><time>2026-04-07T06:42:36Z</time></trkpt><trkpt lat="45.400180531839574" lon="9.080460412059871"><ele>107.33333333333333</ele><time>2026-04-07T06:42:37Z</time></trkpt><trkpt lat="45.40031825015977" lon="9.080248303972148"><ele>107.66666666666666</ele><time>2026-04-07T06:42:38Z</time></trkpt><trkpt lat="45.400443422556386" lon="9.080052442106556"><ele>108.0</ele><time>2026-04-07T06:42:39Z</time></trkpt><trkpt lat="45.4005646144085" lon="9.079872156891708"><ele>108.33333333333334</ele><time>2026-04-07T06:42:40Z</time></trkpt><trkpt lat="45.400689745761625" lon="9.07969533451964"><ele>108.66666666666667</ele><time>2026-04-07T06:42:41Z</time></trkpt><trkpt lat="45.40081363432298" lon="9.079525013762789"><ele>109.0</ele><time>2026-04-07T06:42:42Z</time></trkpt><trkpt lat="45.40094653852258" lon="9.079353849208363"><ele>109.0</ele><time>2026-04-07T06:42:43Z</time></trkpt><trkpt lat="45.40109383345269" lon="9.079183728198522"><ele>109.0</ele><time>2026-04-07T06:42:44Z</time></trkpt><trkpt lat="45.40124690331456" lon="9.079040949768869"><ele>109.0</ele><time>2026-04-07T06:42:45Z</time></trkpt><trkpt lat="45.401413888879055" lon="9.078902482959707"><ele>109.0</ele><time>2026-04-07T06:42:46Z</time></trkpt><trkpt lat="45.40158673584811" lon="9.078772902841282"><ele>109.0</ele><time>2026-04-07T06:42:47Z</time></trkpt><trkpt lat="45.40175058433016" lon="9.078649208373434"><ele>109.0</ele><time>2026-04-07T06:42:48Z</time></trkpt><trkpt lat="45.401905479943224" lon="9.078527255600209"><ele>109.0</ele><time>2026-04-07T06:42:49Z</time></trkpt><trkpt lat="45.40207264677725" lon="9.07839749248671"><ele>109.0</ele><time>2026-04-07T06:42:50Z</time></trkpt><trkpt lat="45.402232712079005" lon="9.078271550051218"><ele>109.0</ele><time>2026-04-07T06:42:51Z</time></trkpt><trkpt lat="45.40238652658815" lon="9.078149240756751"><ele>109.66666666666667</ele><time>2026-04-07T06:42:52Z</time></trkpt><trkpt lat="45.40254165003099" lon="9.078028736883951"><ele>110.33333333333334</ele><time>2026-04-07T06:42:53Z</time></trkpt><trkpt lat="45.40270170152124" lon="9.077904815876904"><ele>111.0</ele><time>2026-04-07T06:42:54Z</time></trkpt><trkpt lat="45.40285608763325" lon="9.077778666985992"><ele>111.33333333333334</ele><time>2026-04-07T06:42:55Z</time></trkpt><trkpt lat="45.403013704732366" lon="9.077656020432926"><ele>111.66666666666667</ele><time>2026-04-07T06:42:56Z</time></trkpt><trkpt lat="45.40317174424342" lon="9.077532652851614"><ele>112.0</ele><time>2026-04-07T06:42:57Z</time></trkpt><trkpt lat="45.40332279524349" lon="9.077404913956139"><ele>111.33333333333334</ele><time>2026-04-07T06:42:58Z</time></trkpt><trkpt lat="45.40346957689557" lon="9.077267041747277"><ele>110.66666666666666</ele><time>2026-04-07T06:42:59Z</time></trkpt><trkpt lat="45.403609195194996" lon="9.077114002382707"><ele>110.0</ele><time>2026-04-07T06:43:00Z</time></trkpt><trkpt lat="45.403728544856406" lon="9.076964831779723"><ele>110.25</ele><time>2026-04-07T06:43:01Z</time></trkpt><trkpt lat="45.40383065315125" lon="9.076820202092424"><ele>110.5</ele><time>2026-04-07T06:43:02Z</time></trkpt><trkpt lat="45.40392613565297" lon="9.076677821357276"><ele>110.75</ele><time>2026-04-07T06:43:03Z</time></trkpt><trkpt lat="45.40403219115837" lon="9.076523966723213"><ele>111.0</ele><time>2026-04-07T06:43:04Z</time></trkpt><trkpt lat="45.404151108881635" lon="9.076356003468451"><ele>111.33333333333334</ele><time>2026-04-07T06:43:05Z</time></trkpt><trkpt lat="45.404281920889055" lon="9.076178124522771"><ele>111.66666666666667</ele><time>2026-04-07T06:43:06Z</time></trkpt><trkpt lat="45.404419462876064" lon="9.076006091610202"><ele>112.0</ele><time>2026-04-07T06:43:07Z</time></trkpt><trkpt lat="45.40456503491291" lon="9.075848856790572"><ele>111.0</ele><time>2026-04-07T06:43:08Z</time></trkpt><trkpt lat="45.40472233961151" lon="9.075687638644295"><ele>110.0</ele><time>2026-04-07T06:43:09Z</time></trkpt><trkpt lat="45.40488086423766" lon="9.075563744575748"><ele>109.0</ele><time>2026-04-07T06:43:10Z</time></trkpt><trkpt lat="45.40505567225675" lon="9.075441885045592"><ele>109.0</ele><time>2026-04-07T06:43:11Z</time></trkpt><trkpt lat="45.40523632429886" lon="9.075336490676486"><ele>109.0</ele><time>2026-04-07T06:43:12Z</time></trkpt><trkpt lat="45.40543090601089" lon="9.075267001246434"><ele>109.0</ele><time>2026-04-07T06:43:13Z</time></trkpt><trkpt lat="45.40561456761408" lon="9.075183460215888"><ele>109.33333333333334</ele><time>2026-04-07T06:43:14Z</time></trkpt><trkpt lat="45.405796449201354" lon="9.075133874018764"><ele>109.66666666666666</ele><time>2026-04-07T06:43:15Z</time></trkpt><trkpt lat="45.40597895175956" lon="9.075082081928203"><ele>110.0</ele><time>2026-04-07T06:43:16Z</time></trkpt><trkpt lat="45.40617266121872" lon="9.075031913282592"><ele>109.0</ele><time>2026-04-07T06:43:17Z</time></trkpt><trkpt lat="45.40635835409766" lon="9.074983936707373"><ele>108.0</ele><time>2026-04-07T06:43:18Z</time></trkpt><trkpt lat="45.40654129528175" lon="9.074929035688097"><ele>107.0</ele><time>2026-04-07T06:43:19Z</time></trkpt><trkpt lat="45.40673456193765" lon="9.074899828101065"><ele>107.0</ele><time>2026-04-07T06:43:20Z</time></trkpt><trkpt lat="45.40692814384755" lon="9.074848350692172"><ele>107.0</ele><time>2026-04-07T06:43:21Z</time></trkpt><trkpt lat="45.40712416429254" lon="9.074775470007319"><ele>107.0</ele><time>2026-04-07T06:43:22Z</time></trkpt><trkpt lat="45.407331045019454" lon="9.074721295411063"><ele>106.33333333333333</ele><time>2026-04-07T06:43:23Z</time></trkpt><trkpt lat="45.40754071050421" lon="9.07466669241455"><ele>105.66666666666666</ele><time>2026-04-07T06:43:24Z</time></trkpt><trkpt lat="45.40775098593285" lon="9.074615893494443"><ele>105.0</ele><time>2026-04-07T06:43:25Z</time></trkpt><trkpt lat="45.407964040679275" lon="9.07456058994801"><ele>105.66666666666666</ele><time>2026-04-07T06:43:26Z</time></trkpt><trkpt lat="45.40817043940666" lon="9.074504385711577"><ele>106.33333333333333</ele><time>2026-04-07T06:43:27Z</time></trkpt><trkpt lat="45.4083579708606" lon="9.074454100551502"><ele>107.0</ele><time>2026-04-07T06:43:28Z</time></trkpt><trkpt lat="45.4085397202694" lon="9.074403919353191"><ele>107.0</ele><time>2026-04-07T06:43:29Z</time></trkpt><trkpt lat="45.408731212141056" lon="9.074348228125597"><ele>107.0</ele><time>2026-04-07T06:43:30Z</time></trkpt><trkpt lat="45.40892914468662" lon="9.074314549588003"><ele>107.0</ele><time>2026-04-07T06:43:31Z</time></trkpt><trkpt lat="45.40912967727652" lon="9.074262342295865"><ele>108.0</ele><time>2026-04-07T06:43:32Z</time></trkpt><trkpt lat="45.4093379699746" lon="9.074206864988527"><ele>109.0</ele><time>2026-04-07T06:43:33Z</time></trkpt><trkpt lat="45.4095368181062" lon="9.074153487816751"><ele>110.0</ele><time>2026-04-07T06:43:34Z</time></trkpt><trkpt lat="45.40971235330446" lon="9.074105156392108"><ele>109.33333333333333</ele><time>2026-04-07T06:43:35Z</time></trkpt><trkpt lat="45.40987374840426" lon="9.074061598490584"><ele>108.66666666666666</ele><time>2026-04-07T06:43:36Z</time></trkpt><trkpt lat="45.41003850865957" lon="9.074017132399133"><ele>108.0</ele><time>2026-04-07T06:43:37Z</time></trkpt><trkpt lat="45.410201608033674" lon="9.073949056583196"><ele>108.0</ele><time>2026-04-07T06:43:38Z</time></trkpt><trkpt lat="45.41036182116001" lon="9.073905724787632"><ele>108.0</ele><time>2026-04-07T06:43:39Z</time></trkpt><trkpt lat="45.41052405843393" lon="9.073885794643132"><ele>108.0</ele><time>2026-04-07T06:43:40Z</time></trkpt><trkpt lat="45.4107054252164" lon="9.073836171956332"><ele>108.0</ele><time>2026-04-07T06:43:41Z</time></trkpt><trkpt lat="45.41090090267011" lon="9.073781337955198"><ele>108.0</ele><time>2026-04-07T06:43:42Z</time></trkpt><trkpt lat="45.41110683792724" lon="9.073715269086389"><ele>108.0</ele><time>2026-04-07T06:43:43Z</time></trkpt><trkpt lat="45.41131306911516" lon="9.073638924164024"><ele>108.0</ele><time>2026-04-07T06:43:44Z</time></trkpt><trkpt lat="45.41149713246675" lon="9.073543652480687"><ele>108.0</ele><time>2026-04-07T06:43:44.999Z</time></trkpt><trkpt lat="45.41167020372223" lon="9.073482402134534"><ele>108.0</ele><time>2026-04-07T06:43:45.999Z</time></trkpt><trkpt lat="45.41182695932287" lon="9.073421431378206"><ele>108.0</ele><time>2026-04-07T06:43:47Z</time></trkpt><trkpt lat="45.41197264006339" lon="9.073362089613273"><ele>108.0</ele><time>2026-04-07T06:43:48Z</time></trkpt><trkpt lat="45.412102069324035" lon="9.073308775027456"><ele>108.0</ele><time>2026-04-07T06:43:49Z</time></trkpt><trkpt lat="45.412224905489786" lon="9.073258982568964"><ele>108.0</ele><time>2026-04-07T06:43:50Z</time></trkpt><trkpt lat="45.41234260541316" lon="9.073212204578466"><ele>108.25</ele><time>2026-04-07T06:43:51Z</time></trkpt><trkpt lat="45.412471398539815" lon="9.073160269369986"><ele>108.5</ele><time>2026-04-07T06:43:52Z</time></trkpt><trkpt lat="45.41259961595971" lon="9.073095004423754"><ele>108.75</ele><time>2026-04-07T06:43:53Z</time></trkpt><trkpt lat="45.41272117260236" lon="9.073050824995084"><ele>109.0</ele><time>2026-04-07T06:43:54Z</time></trkpt><trkpt lat="45.41283449554419" lon="9.073000791134607"><ele>109.0</ele><time>2026-04-07T06:43:55Z</time></trkpt><trkpt lat="45.4129384698167" lon="9.072960028329861"><ele>109.0</ele><time>2026-04-07T06:43:56Z</time></trkpt><trkpt lat="45.41301744718018" lon="9.07292319085366"><ele>109.0</ele><time>2026-04-07T06:43:57Z</time></trkpt><trkpt lat="45.41308566768742" lon="9.072895185664285"><ele>109.0</ele><time>2026-04-07T06:43:58Z</time></trkpt><trkpt lat="45.41315122987184" lon="9.072871663182775"><ele>109.0</ele><time>2026-04-07T06:43:59Z</time></trkpt><trkpt lat="45.41327755664028" lon="9.072819320249414"><ele>109.25</ele><time>2026-04-07T06:44:01Z</time></trkpt><trkpt lat="45.4133618069246" lon="9.072802326806256"><ele>109.5</ele><time>2026-04-07T06:44:02Z</time></trkpt><trkpt lat="45.41345202146029" lon="9.07276528607035"><ele>109.75</ele><time>2026-04-07T06:44:03Z</time></trkpt><trkpt lat="45.413667757919164" lon="9.072656319855394"><ele>110.0</ele><time>2026-04-07T06:44:06Z</time></trkpt><trkpt lat="45.41377508876008" lon="9.072632639472591"><ele>110.66666666666666</ele><time>2026-04-07T06:44:08Z</time></trkpt><trkpt lat="45.41386948378701" lon="9.072575685593884"><ele>111.33333333333333</ele><time>2026-04-07T06:44:10Z</time></trkpt><trkpt lat="45.41393102141307" lon="9.072551437144147"><ele>112.0</ele><time>2026-04-07T06:44:12Z</time></trkpt><trkpt lat="45.41400092585399" lon="9.072549615045459"><ele>112.66666666666666</ele><time>2026-04-07T06:44:14Z</time></trkpt><trkpt lat="45.41407254462712" lon="9.072525976405652"><ele>113.33333333333333</ele><time>2026-04-07T06:44:15Z</time></trkpt><trkpt lat="45.41415634786445" lon="9.072480282296606"><ele>114.0</ele><time>2026-04-07T06:44:16Z</time></trkpt><trkpt lat="45.414258737733626" lon="9.07245838134018"><ele>114.0</ele><time>2026-04-07T06:44:17Z</time></trkpt><trkpt lat="45.4143730094325" lon="9.072418229288223"><ele>114.0</ele><time>2026-04-07T06:44:18Z</time></trkpt><trkpt lat="45.41451455175955" lon="9.072370902413484"><ele>114.0</ele><time>2026-04-07T06:44:19Z</time></trkpt><trkpt lat="45.41462143193301" lon="9.072317969330253"><ele>114.0</ele><time>2026-04-07T06:44:20Z</time></trkpt><trkpt lat="45.41477471728311" lon="9.07224261232566"><ele>113.5</ele><time>2026-04-07T06:44:21Z</time></trkpt><trkpt lat="45.41492143608181" lon="9.072181830399925"><ele>113.0</ele><time>2026-04-07T06:44:22Z</time></trkpt><trkpt lat="45.41508016445478" lon="9.072125631771351"><ele>112.5</ele><time>2026-04-07T06:44:23Z</time></trkpt><trkpt lat="45.41514148098385" lon="9.072069391827522"><ele>112.0</ele><time>2026-04-07T06:44:24Z</time></trkpt><trkpt lat="45.415258174047004" lon="9.072021073362958"><ele>112.0</ele><time>2026-04-07T06:44:25Z</time></trkpt><trkpt lat="45.415372804592295" lon="9.07197652947653"><ele>112.0</ele><time>2026-04-07T06:44:26Z</time></trkpt><trkpt lat="45.415486308711415" lon="9.071926127677433"><ele>112.0</ele><time>2026-04-07T06:44:27Z</time></trkpt><trkpt lat="45.41560467759701" lon="9.07186234177123"><ele>112.0</ele><time>2026-04-07T06:44:28Z</time></trkpt><trkpt lat="45.415713545381884" lon="9.071794381632714"><ele>112.0</ele><time>2026-04-07T06:44:29Z</time></trkpt><trkpt lat="45.4158141899139" lon="9.071723408245393"><ele>112.0</ele><time>2026-04-07T06:44:30Z</time></trkpt><trkpt lat="45.415913468124145" lon="9.071631403581561"><ele>112.0</ele><time>2026-04-07T06:44:31Z</time></trkpt><trkpt lat="45.41600918684652" lon="9.071521066401582"><ele>112.0</ele><time>2026-04-07T06:44:32Z</time></trkpt><trkpt lat="45.41608825242616" lon="9.071417427853989"><ele>112.0</ele><time>2026-04-07T06:44:33Z</time></trkpt><trkpt lat="45.416160969218204" lon="9.07131730784083"><ele>111.99999999999999</ele><time>2026-04-07T06:44:34Z</time></trkpt><trkpt lat="45.41624185747022" lon="9.071205022143674"><ele>111.99999999999999</ele><time>2026-04-07T06:44:35Z</time></trkpt><trkpt lat="45.41631483651879" lon="9.071081045978772"><ele>112.0</ele><time>2026-04-07T06:44:36Z</time></trkpt><trkpt lat="45.41638808584803" lon="9.070969743340376"><ele>112.0</ele><time>2026-04-07T06:44:37Z</time></trkpt><trkpt lat="45.41645997974131" lon="9.070866398359131"><ele>112.16666666666667</ele><time>2026-04-07T06:44:38Z</time></trkpt><trkpt lat="45.41653197569942" lon="9.07076411582245"><ele>112.33333333333334</ele><time>2026-04-07T06:44:39Z</time></trkpt><trkpt lat="45.416595814404516" lon="9.07066721582273"><ele>112.5</ele><time>2026-04-07T06:44:40Z</time></trkpt><trkpt lat="45.41665408300878" lon="9.070579917901988"><ele>112.66666666666666</ele><time>2026-04-07T06:44:41Z</time></trkpt><trkpt lat="45.41670805893914" lon="9.070509402810753"><ele>112.83333333333333</ele><time>2026-04-07T06:44:42Z</time></trkpt><trkpt lat="45.41676344538008" lon="9.070455089302067"><ele>113.0</ele><time>2026-04-07T06:44:43Z</time></trkpt><trkpt lat="45.41682939958408" lon="9.07039678471474"><ele>113.0</ele><time>2026-04-07T06:44:44Z</time></trkpt><trkpt lat="45.41689472277598" lon="9.070360348097056"><ele>113.00000000000001</ele><time>2026-04-07T06:44:45Z</time></trkpt><trkpt lat="45.417016216129305" lon="9.070342074193226"><ele>113.00000000000001</ele><time>2026-04-07T06:44:47Z</time></trkpt><trkpt lat="45.41710112357138" lon="9.070285967723942"><ele>113.0</ele><time>2026-04-07T06:44:49Z</time></trkpt><trkpt lat="45.41716518442931" lon="9.070394921559936"><ele>113.0</ele><time>2026-04-07T06:44:50Z</time></trkpt><trkpt lat="45.41724271958495" lon="9.070553665160679"><ele>114.0</ele><time>2026-04-07T06:44:52Z</time></trkpt><trkpt lat="45.41727870723147" lon="9.070686737342418"><ele>115.0</ele><time>2026-04-07T06:44:53Z</time></trkpt><trkpt lat="45.417325064661846" lon="9.070842927125266"><ele>116.0</ele><time>2026-04-07T06:44:54Z</time></trkpt><trkpt lat="45.41738325975318" lon="9.071022909834133"><ele>117.0</ele><time>2026-04-07T06:44:55Z</time></trkpt><trkpt lat="45.417441698632786" lon="9.071211700494237"><ele>116.66666666666666</ele><time>2026-04-07T06:44:56Z</time></trkpt><trkpt lat="45.41750992391152" lon="9.0714226752525"><ele>116.33333333333333</ele><time>2026-04-07T06:44:57Z</time></trkpt><trkpt lat="45.417576262098926" lon="9.071620430671386"><ele>116.0</ele><time>2026-04-07T06:44:58Z</time></trkpt><trkpt lat="45.417640466140114" lon="9.071804164416408"><ele>116.0</ele><time>2026-04-07T06:44:59Z</time></trkpt><trkpt lat="45.41771087836949" lon="9.071978273295407"><ele>116.0</ele><time>2026-04-07T06:45:00Z</time></trkpt><trkpt lat="45.41778695826448" lon="9.072142782873252"><ele>116.0</ele><time>2026-04-07T06:45:01Z</time></trkpt><trkpt lat="45.417871423388874" lon="9.072288368156409"><ele>116.0</ele><time>2026-04-07T06:45:02Z</time></trkpt><trkpt lat="45.41795619142458" lon="9.072408273705072"><ele>115.8</ele><time>2026-04-07T06:45:03Z</time></trkpt><trkpt lat="45.41803988559333" lon="9.072517009766889"><ele>115.6</ele><time>2026-04-07T06:45:04Z</time></trkpt><trkpt lat="45.41811254055203" lon="9.072608621592034"><ele>115.4</ele><time>2026-04-07T06:45:05Z</time></trkpt><trkpt lat="45.4181889662106" lon="9.07268674666524"><ele>115.2</ele><time>2026-04-07T06:45:06Z</time></trkpt><trkpt lat="45.418259337181524" lon="9.072758898991035"><ele>115.0</ele><time>2026-04-07T06:45:07Z</time></trkpt><trkpt lat="45.418328191240626" lon="9.072818313599155"><ele>114.99999999999999</ele><time>2026-04-07T06:45:08Z</time></trkpt><trkpt lat="45.41839135191266" lon="9.072871970889087"><ele>115.0</ele><time>2026-04-07T06:45:09Z</time></trkpt><trkpt lat="45.41845789393249" lon="9.072930203626754"><ele>114.99999999999999</ele><time>2026-04-07T06:45:10Z</time></trkpt><trkpt lat="45.41852105167318" lon="9.072984637413581"><ele>114.99999999999999</ele><time>2026-04-07T06:45:11Z</time></trkpt><trkpt lat="45.41857780477752" lon="9.073034338934123"><ele>115.0</ele><time>2026-04-07T06:45:12Z</time></trkpt><trkpt lat="45.418631933455366" lon="9.07308126204961"><ele>114.99999999999999</ele><time>2026-04-07T06:45:13Z</time></trkpt><trkpt lat="45.418695785529714" lon="9.073129896433185"><ele>114.99999999999999</ele><time>2026-04-07T06:45:14Z</time></trkpt><trkpt lat="45.418763522153995" lon="9.073176757336642"><ele>115.00000000000001</ele><time>2026-04-07T06:45:15Z</time></trkpt><trkpt lat="45.418848938379284" lon="9.073217359305632"><ele>115.0</ele><time>2026-04-07T06:45:16Z</time></trkpt><trkpt lat="45.41892991092412" lon="9.07324264951362"><ele>115.0</ele><time>2026-04-07T06:45:17Z</time></trkpt><trkpt lat="45.41900829996141" lon="9.073255744474864"><ele>115.0</ele><time>2026-04-07T06:45:18Z</time></trkpt><trkpt lat="45.419088889159305" lon="9.073272141692653"><ele>115.00000000000001</ele><time>2026-04-07T06:45:19Z</time></trkpt><trkpt lat="45.41917232285457" lon="9.073304476604852"><ele>115.0</ele><time>2026-04-07T06:45:20Z</time></trkpt><trkpt lat="45.41926477554132" lon="9.073359548909831"><ele>114.5</ele><time>2026-04-07T06:45:21Z</time></trkpt><trkpt lat="45.41935972498445" lon="9.073438257414804"><ele>114.0</ele><time>2026-04-07T06:45:22Z</time></trkpt><trkpt lat="45.41946130625155" lon="9.07353165833398"><ele>113.5</ele><time>2026-04-07T06:45:23Z</time></trkpt><trkpt lat="45.41956220494288" lon="9.073635140036368"><ele>113.0</ele><time>2026-04-07T06:45:24Z</time></trkpt><trkpt lat="45.41966028288521" lon="9.073735155723785"><ele>113.0</ele><time>2026-04-07T06:45:25Z</time></trkpt><trkpt lat="45.41975658460751" lon="9.073846739895462"><ele>113.0</ele><time>2026-04-07T06:45:26Z</time></trkpt><trkpt lat="45.41985008754335" lon="9.073965114903848"><ele>113.0</ele><time>2026-04-07T06:45:27Z</time></trkpt><trkpt lat="45.41994181981458" lon="9.074092062896048"><ele>113.0</ele><time>2026-04-07T06:45:28Z</time></trkpt><trkpt lat="45.42002883375111" lon="9.074236678169658"><ele>113.25</ele><time>2026-04-07T06:45:29Z</time></trkpt><trkpt lat="45.4201048733473" lon="9.074387211205051"><ele>113.5</ele><time>2026-04-07T06:45:30Z</time></trkpt><trkpt lat="45.42017746503944" lon="9.074538553565304"><ele>113.75</ele><time>2026-04-07T06:45:31Z</time></trkpt><trkpt lat="45.4202467018185" lon="9.074683804448274"><ele>114.0</ele><time>2026-04-07T06:45:32Z</time></trkpt><trkpt lat="45.420315428365875" lon="9.074832027566933"><ele>114.25</ele><time>2026-04-07T06:45:33Z</time></trkpt><trkpt lat="45.42038739437534" lon="9.07498242059142"><ele>114.5</ele><time>2026-04-07T06:45:34Z</time></trkpt><trkpt lat="45.42045867962386" lon="9.075128136164222"><ele>114.75</ele><time>2026-04-07T06:45:35Z</time></trkpt><trkpt lat="45.42053014255812" lon="9.075276557297745"><ele>115.0</ele><time>2026-04-07T06:45:36Z</time></trkpt><trkpt lat="45.42060608526125" lon="9.075431397346783"><ele>114.5</ele><time>2026-04-07T06:45:37Z</time></trkpt><trkpt lat="45.42068570789874" lon="9.075589292357758"><ele>114.0</ele><time>2026-04-07T06:45:38Z</time></trkpt><trkpt lat="45.42077114691467" lon="9.075759745845186"><ele>113.5</ele><time>2026-04-07T06:45:39Z</time></trkpt><trkpt lat="45.420857150472806" lon="9.075930684533512"><ele>113.0</ele><time>2026-04-07T06:45:40Z</time></trkpt><trkpt lat="45.420944178802486" lon="9.076098350125342"><ele>113.0</ele><time>2026-04-07T06:45:41Z</time></trkpt><trkpt lat="45.42103259572468" lon="9.07626656977815"><ele>113.0</ele><time>2026-04-07T06:45:42Z</time></trkpt><trkpt lat="45.42112430059637" lon="9.076447371479501"><ele>113.0</ele><time>2026-04-07T06:45:43Z</time></trkpt><trkpt lat="45.42121385539644" lon="9.07662996441827"><ele>113.33333333333333</ele><time>2026-04-07T06:45:44Z</time></trkpt><trkpt lat="45.42130708861605" lon="9.076819694094118"><ele>113.66666666666666</ele><time>2026-04-07T06:45:45Z</time></trkpt><trkpt lat="45.42139698013224" lon="9.076999272569543"><ele>114.0</ele><time>2026-04-07T06:45:46Z</time></trkpt><trkpt lat="45.42148715983128" lon="9.077177655527121"><ele>114.0</ele><time>2026-04-07T06:45:47Z</time></trkpt><trkpt lat="45.42157232763267" lon="9.07735024223507"><ele>114.0</ele><time>2026-04-07T06:45:48Z</time></trkpt><trkpt lat="45.42165220546037" lon="9.077511606808061"><ele>114.0</ele><time>2026-04-07T06:45:49Z</time></trkpt><trkpt lat="45.421731466593926" lon="9.07767279228956"><ele>114.0</ele><time>2026-04-07T06:45:49.999Z</time></trkpt><trkpt lat="45.42181693195924" lon="9.077845712630602"><ele>114.33333333333334</ele><time>2026-04-07T06:45:50.999Z</time></trkpt><trkpt lat="45.42190625367173" lon="9.078027041732074"><ele>114.66666666666667</ele><time>2026-04-07T06:45:51.999Z</time></trkpt><trkpt lat="45.42199844959292" lon="9.078213921860979"><ele>115.0</ele><time>2026-04-07T06:45:53Z</time></trkpt><trkpt lat="45.42209475607407" lon="9.078404442685278"><ele>114.75</ele><time>2026-04-07T06:45:54Z</time></trkpt><trkpt lat="45.42217724384545" lon="9.078574582964226"><ele>114.5</ele><time>2026-04-07T06:45:55Z</time></trkpt><trkpt lat="45.42226005679168" lon="9.078753254331279"><ele>114.25</ele><time>2026-04-07T06:45:56Z</time></trkpt><trkpt lat="45.422338547101944" lon="9.078934460643458"><ele>114.0</ele><time>2026-04-07T06:45:57Z</time></trkpt><trkpt lat="45.422416207579325" lon="9.079111967291322"><ele>114.5</ele><time>2026-04-07T06:45:58Z</time></trkpt><trkpt lat="45.422489576970925" lon="9.07926890936725"><ele>115.0</ele><time>2026-04-07T06:45:59Z</time></trkpt><trkpt lat="45.42255781188578" lon="9.079415441164798"><ele>115.5</ele><time>2026-04-07T06:46:00Z</time></trkpt><trkpt lat="45.4226295286326" lon="9.079565965832634"><ele>116.0</ele><time>2026-04-07T06:46:01Z</time></trkpt><trkpt lat="45.42269915351668" lon="9.079720862356183"><ele>116.0</ele><time>2026-04-07T06:46:02Z</time></trkpt><trkpt lat="45.42276301228093" lon="9.079861133110155"><ele>116.0</ele><time>2026-04-07T06:46:03Z</time></trkpt><trkpt lat="45.422798590511505" lon="9.079980761489367"><ele>116.0</ele><time>2026-04-07T06:46:04Z</time></trkpt><trkpt lat="45.42283906430446" lon="9.08009350405847"><ele>116.0</ele><time>2026-04-07T06:46:05Z</time></trkpt><trkpt lat="45.42287146199496" lon="9.08021488042688"><ele>116.0</ele><time>2026-04-07T06:46:06Z</time></trkpt><trkpt lat="45.4227927158307" lon="9.08040723703894"><ele>116.0</ele><time>2026-04-07T06:46:08Z</time></trkpt><trkpt lat="45.422717887405604" lon="9.080487999405594"><ele>116.0</ele><time>2026-04-07T06:46:09Z</time></trkpt><trkpt lat="45.42262749266189" lon="9.08055096439527"><ele>116.0</ele><time>2026-04-07T06:46:10.001Z</time></trkpt><trkpt lat="45.42251991173276" lon="9.08060595274148"><ele>116.0</ele><time>2026-04-07T06:46:11Z</time></trkpt><trkpt lat="45.42240542085735" lon="9.080662905969414"><ele>116.0</ele><time>2026-04-07T06:46:12Z</time></trkpt><trkpt lat="45.42227741297625" lon="9.080733494229104"><ele>116.33333333333333</ele><time>2026-04-07T06:46:13Z</time></trkpt><trkpt lat="45.422138327430886" lon="9.080813363603841"><ele>116.66666666666666</ele><time>2026-04-07T06:46:14Z</time></trkpt><trkpt lat="45.421983308495726" lon="9.080902402400705"><ele>117.0</ele><time>2026-04-07T06:46:15Z</time></trkpt><trkpt lat="45.42182612897099" lon="9.08099139414323"><ele>117.0</ele><time>2026-04-07T06:46:16Z</time></trkpt><trkpt lat="45.42167167218553" lon="9.081081708768362"><ele>117.0</ele><time>2026-04-07T06:46:17Z</time></trkpt><trkpt lat="45.421522176594564" lon="9.081167377028823"><ele>117.0</ele><time>2026-04-07T06:46:18Z</time></trkpt><trkpt lat="45.42135601679272" lon="9.081265636550201"><ele>116.66666666666666</ele><time>2026-04-07T06:46:19Z</time></trkpt><trkpt lat="45.421202069275054" lon="9.08135624426464"><ele>116.33333333333333</ele><time>2026-04-07T06:46:20Z</time></trkpt><trkpt lat="45.421070528867844" lon="9.081433122789894"><ele>116.0</ele><time>2026-04-07T06:46:21Z</time></trkpt><trkpt lat="45.420934513786364" lon="9.081518163232541"><ele>116.0</ele><time>2026-04-07T06:46:22Z</time></trkpt><trkpt lat="45.4207979355319" lon="9.08162434236923"><ele>116.0</ele><time>2026-04-07T06:46:23Z</time></trkpt><trkpt lat="45.42067027726703" lon="9.081770675168473"><ele>116.0</ele><time>2026-04-07T06:46:24Z</time></trkpt><trkpt lat="45.42056795548337" lon="9.081941609976177"><ele>115.5</ele><time>2026-04-07T06:46:25Z</time></trkpt><trkpt lat="45.42047841789506" lon="9.082114886409125"><ele>115.0</ele><time>2026-04-07T06:46:26Z</time></trkpt><trkpt lat="45.420400403751295" lon="9.082268594947903"><ele>114.5</ele><time>2026-04-07T06:46:27Z</time></trkpt><trkpt lat="45.42032212478351" lon="9.082407185336539"><ele>114.0</ele><time>2026-04-07T06:46:28Z</time></trkpt><trkpt lat="45.42024313880606" lon="9.082525806673074"><ele>113.80000000000001</ele><time>2026-04-07T06:46:29Z</time></trkpt><trkpt lat="45.42016276403468" lon="9.082619816759992"><ele>113.60000000000001</ele><time>2026-04-07T06:46:30Z</time></trkpt><trkpt lat="45.42008445401817" lon="9.082694887611039"><ele>113.4</ele><time>2026-04-07T06:46:31Z</time></trkpt><trkpt lat="45.42000357395752" lon="9.082743308284925"><ele>113.2</ele><time>2026-04-07T06:46:32Z</time></trkpt><trkpt lat="45.41991747036074" lon="9.082737776304587"><ele>113.0</ele><time>2026-04-07T06:46:33Z</time></trkpt><trkpt lat="45.4198382107933" lon="9.082690013918006"><ele>112.99999999999999</ele><time>2026-04-07T06:46:34Z</time></trkpt><trkpt lat="45.419784435979224" lon="9.082585479648069"><ele>113.0</ele><time>2026-04-07T06:46:35Z</time></trkpt><trkpt lat="45.419755845038374" lon="9.08246817446239"><ele>113.0</ele><time>2026-04-07T06:46:36Z</time></trkpt><trkpt lat="45.41977557583725" lon="9.082346132433255"><ele>113.0</ele><time>2026-04-07T06:46:37Z</time></trkpt><trkpt lat="45.419816555185584" lon="9.082238418601118"><ele>112.99999999999999</ele><time>2026-04-07T06:46:38Z</time></trkpt><trkpt lat="45.41988543161187" lon="9.082140604370082"><ele>113.0</ele><time>2026-04-07T06:46:39Z</time></trkpt><trkpt lat="45.41997109084319" lon="9.082058079966233"><ele>113.25</ele><time>2026-04-07T06:46:40Z</time></trkpt><trkpt lat="45.42006232597624" lon="9.081971889276598"><ele>113.5</ele><time>2026-04-07T06:46:41Z</time></trkpt><trkpt lat="45.4201654667155" lon="9.081873703699"><ele>113.75</ele><time>2026-04-07T06:46:42Z</time></trkpt><trkpt lat="45.420285211517786" lon="9.08176185953717"><ele>114.0</ele><time>2026-04-07T06:46:43Z</time></trkpt><trkpt lat="45.420421121795606" lon="9.081642178455509"><ele>114.66666666666666</ele><time>2026-04-07T06:46:44Z</time></trkpt><trkpt lat="45.42056699251898" lon="9.081520337758004"><ele>115.33333333333333</ele><time>2026-04-07T06:46:45Z</time></trkpt><trkpt lat="45.42072935927932" lon="9.081388354390613"><ele>116.0</ele><time>2026-04-07T06:46:46Z</time></trkpt><trkpt lat="45.42089445263019" lon="9.08125809491872"><ele>116.0</ele><time>2026-04-07T06:46:47Z</time></trkpt><trkpt lat="45.421055403752035" lon="9.081136899558716"><ele>116.0</ele><time>2026-04-07T06:46:48Z</time></trkpt><trkpt lat="45.42120280711825" lon="9.081028223357672"><ele>116.0</ele><time>2026-04-07T06:46:49Z</time></trkpt><trkpt lat="45.421336796827234" lon="9.080935180286255"><ele>116.33333333333333</ele><time>2026-04-07T06:46:50Z</time></trkpt><trkpt lat="45.42148947592704" lon="9.080826507533436"><ele>116.66666666666666</ele><time>2026-04-07T06:46:51Z</time></trkpt><trkpt lat="45.42165559799497" lon="9.080711477314095"><ele>117.0</ele><time>2026-04-07T06:46:52Z</time></trkpt><trkpt lat="45.42184358227067" lon="9.080588165317423"><ele>117.0</ele><time>2026-04-07T06:46:53Z</time></trkpt><trkpt lat="45.422037174451965" lon="9.080460914165972"><ele>117.0</ele><time>2026-04-07T06:46:54Z</time></trkpt><trkpt lat="45.422226846725714" lon="9.080341916744556"><ele>117.0</ele><time>2026-04-07T06:46:55Z</time></trkpt><trkpt lat="45.422419173095285" lon="9.080221319977484"><ele>116.66666666666666</ele><time>2026-04-07T06:46:56Z</time></trkpt><trkpt lat="45.42259646667292" lon="9.080111149848175"><ele>116.33333333333333</ele><time>2026-04-07T06:46:57Z</time></trkpt><trkpt lat="45.422781781878136" lon="9.079996352989083"><ele>116.0</ele><time>2026-04-07T06:46:58Z</time></trkpt><trkpt lat="45.42297198718472" lon="9.079879154663145"><ele>115.0</ele><time>2026-04-07T06:46:59Z</time></trkpt><trkpt lat="45.42317142141208" lon="9.079755174289616"><ele>114.0</ele><time>2026-04-07T06:47:00Z</time></trkpt><trkpt lat="45.42336304168861" lon="9.079635022841385"><ele>113.0</ele><time>2026-04-07T06:47:01Z</time></trkpt><trkpt lat="45.42355317514516" lon="9.079517826094813"><ele>113.0</ele><time>2026-04-07T06:47:02Z</time></trkpt><trkpt lat="45.42373937256991" lon="9.0794022660496"><ele>113.0</ele><time>2026-04-07T06:47:03Z</time></trkpt><trkpt lat="45.42393632584834" lon="9.079283049776167"><ele>113.0</ele><time>2026-04-07T06:47:04Z</time></trkpt><trkpt lat="45.42413968023279" lon="9.079166110780378"><ele>114.0</ele><time>2026-04-07T06:47:05Z</time></trkpt><trkpt lat="45.42434809017242" lon="9.07904461243125"><ele>115.0</ele><time>2026-04-07T06:47:06Z</time></trkpt><trkpt lat="45.424558464127934" lon="9.078917258966543"><ele>117.0</ele><time>2026-04-07T06:47:07Z</time></trkpt><trkpt lat="45.42477083971013" lon="9.078789031532244"><ele>119.0</ele><time>2026-04-07T06:47:08Z</time></trkpt><trkpt lat="45.42498658930768" lon="9.078658986473053"><ele>119.0</ele><time>2026-04-07T06:47:09Z</time></trkpt><trkpt lat="45.425201538482696" lon="9.078528467840151"><ele>119.0</ele><time>2026-04-07T06:47:10Z</time></trkpt><trkpt lat="45.425410640706495" lon="9.078401779364524"><ele>118.5</ele><time>2026-04-07T06:47:11Z</time></trkpt><trkpt lat="45.425626468090755" lon="9.078269553615675"><ele>118.0</ele><time>2026-04-07T06:47:12Z</time></trkpt><trkpt lat="45.42584258999388" lon="9.078136555326719"><ele>118.0</ele><time>2026-04-07T06:47:13Z</time></trkpt><trkpt lat="45.42605478498603" lon="9.078008318434602"><ele>118.0</ele><time>2026-04-07T06:47:14Z</time></trkpt><trkpt lat="45.42625451602661" lon="9.077883179396233"><ele>118.0</ele><time>2026-04-07T06:47:15Z</time></trkpt><trkpt lat="45.42644035631562" lon="9.077770520434802"><ele>118.33333333333334</ele><time>2026-04-07T06:47:16Z</time></trkpt><trkpt lat="45.42663303557936" lon="9.077647024896132"><ele>118.66666666666666</ele><time>2026-04-07T06:47:17Z</time></trkpt><trkpt lat="45.42683258258118" lon="9.077525521402471"><ele>119.0</ele><time>2026-04-07T06:47:18Z</time></trkpt><trkpt lat="45.427038747096354" lon="9.077399827289918"><ele>119.0</ele><time>2026-04-07T06:47:19Z</time></trkpt><trkpt lat="45.42724503119201" lon="9.077273109924013"><ele>119.0</ele><time>2026-04-07T06:47:20Z</time></trkpt><trkpt lat="45.42745083859149" lon="9.07714427300136"><ele>119.0</ele><time>2026-04-07T06:47:21Z</time></trkpt><trkpt lat="45.42765891930356" lon="9.077015605872582"><ele>119.0</ele><time>2026-04-07T06:47:22Z</time></trkpt><trkpt lat="45.427863767437266" lon="9.076888814256597"><ele>119.0</ele><time>2026-04-07T06:47:23Z</time></trkpt><trkpt lat="45.42806856702399" lon="9.07676026399731"><ele>119.0</ele><time>2026-04-07T06:47:24Z</time></trkpt><trkpt lat="45.42827724610954" lon="9.076630963457719"><ele>117.0</ele><time>2026-04-07T06:47:25Z</time></trkpt><trkpt lat="45.42848191256335" lon="9.076505157873662"><ele>115.0</ele><time>2026-04-07T06:47:26Z</time></trkpt><trkpt lat="45.428691590320675" lon="9.076374434063542"><ele>116.5</ele><time>2026-04-07T06:47:27Z</time></trkpt><trkpt lat="45.42890798591401" lon="9.076243877865327"><ele>118.0</ele><time>2026-04-07T06:47:28Z</time></trkpt><trkpt lat="45.429123015153166" lon="9.076120405984922"><ele>118.0</ele><time>2026-04-07T06:47:29Z</time></trkpt><trkpt lat="45.429333819336996" lon="9.076007155649041"><ele>118.0</ele><time>2026-04-07T06:47:30Z</time></trkpt><trkpt lat="45.42953983632071" lon="9.075899826399404"><ele>118.0</ele><time>2026-04-07T06:47:31Z</time></trkpt><trkpt lat="45.429752776647" lon="9.07579685528909"><ele>117.66666666666667</ele><time>2026-04-07T06:47:32Z</time></trkpt><trkpt lat="45.42996273970623" lon="9.075699160052675"><ele>117.33333333333334</ele><time>2026-04-07T06:47:33Z</time></trkpt><trkpt lat="45.430175863831366" lon="9.075601949731723"><ele>117.0</ele><time>2026-04-07T06:47:34Z</time></trkpt><trkpt lat="45.4303916653381" lon="9.075510646512713"><ele>116.66666666666666</ele><time>2026-04-07T06:47:35Z</time></trkpt><trkpt lat="45.430603268455855" lon="9.075422925925324"><ele>116.33333333333333</ele><time>2026-04-07T06:47:36Z</time></trkpt><trkpt lat="45.43081709190801" lon="9.075340095589775"><ele>116.0</ele><time>2026-04-07T06:47:37Z</time></trkpt><trkpt lat="45.431029697462684" lon="9.075264021693965"><ele>116.0</ele><time>2026-04-07T06:47:38Z</time></trkpt><trkpt lat="45.431243034738856" lon="9.075193850284801"><ele>116.0</ele><time>2026-04-07T06:47:39Z</time></trkpt><trkpt lat="45.43145133284053" lon="9.075128323085252"><ele>116.0</ele><time>2026-04-07T06:47:40Z</time></trkpt><trkpt lat="45.43166375058125" lon="9.075060047720633"><ele>116.0</ele><time>2026-04-07T06:47:41Z</time></trkpt><trkpt lat="45.43189020774046" lon="9.07499094950312"><ele>116.0</ele><time>2026-04-07T06:47:42Z</time></trkpt><trkpt lat="45.43211578722558" lon="9.074928158299688"><ele>115.0</ele><time>2026-04-07T06:47:43Z</time></trkpt><trkpt lat="45.43234655101027" lon="9.07486788454748"><ele>114.0</ele><time>2026-04-07T06:47:44Z</time></trkpt><trkpt lat="45.43258532497732" lon="9.074818924094622"><ele>114.0</ele><time>2026-04-07T06:47:45Z</time></trkpt><trkpt lat="45.43283218810482" lon="9.07478210648294"><ele>114.0</ele><time>2026-04-07T06:47:46Z</time></trkpt><trkpt lat="45.433080716122475" lon="9.074748635436617"><ele>116.0</ele><time>2026-04-07T06:47:47Z</time></trkpt><trkpt lat="45.43333301184534" lon="9.074717361708354"><ele>118.0</ele><time>2026-04-07T06:47:48Z</time></trkpt><trkpt lat="45.43358171109149" lon="9.074689257579779"><ele>117.5</ele><time>2026-04-07T06:47:49Z</time></trkpt><trkpt lat="45.43382919732054" lon="9.074657819857396"><ele>117.0</ele><time>2026-04-07T06:47:50Z</time></trkpt><trkpt lat="45.434061696044644" lon="9.07463113240026"><ele>117.0</ele><time>2026-04-07T06:47:51Z</time></trkpt><trkpt lat="45.43429383090717" lon="9.074606945112121"><ele>117.0</ele><time>2026-04-07T06:47:52Z</time></trkpt><trkpt lat="45.43453077097188" lon="9.074581963283222"><ele>117.5</ele><time>2026-04-07T06:47:53Z</time></trkpt><trkpt lat="45.434763586412295" lon="9.074554619442411"><ele>118.0</ele><time>2026-04-07T06:47:54Z</time></trkpt><trkpt lat="45.43499043276232" lon="9.074522028927639"><ele>118.0</ele><time>2026-04-07T06:47:55Z</time></trkpt><trkpt lat="45.43522853796115" lon="9.074486202722031"><ele>118.0</ele><time>2026-04-07T06:47:55.999Z</time></trkpt><trkpt lat="45.435470950076" lon="9.074450128090643"><ele>118.0</ele><time>2026-04-07T06:47:56.999Z</time></trkpt><trkpt lat="45.4357107976623" lon="9.074416858415452"><ele>118.0</ele><time>2026-04-07T06:47:57.999Z</time></trkpt><trkpt lat="45.43596222446739" lon="9.074389248914382"><ele>118.0</ele><time>2026-04-07T06:47:59Z</time></trkpt><trkpt lat="45.43621722889238" lon="9.074366424363909"><ele>118.0</ele><time>2026-04-07T06:48:00Z</time></trkpt><trkpt lat="45.43646580150385" lon="9.074346908347477"><ele>116.5</ele><time>2026-04-07T06:48:01Z</time></trkpt><trkpt lat="45.43671273181694" lon="9.074323378802573"><ele>115.0</ele><time>2026-04-07T06:48:02Z</time></trkpt><trkpt lat="45.43696492509766" lon="9.074301900064238"><ele>114.0</ele><time>2026-04-07T06:48:03Z</time></trkpt><trkpt lat="45.43721098429708" lon="9.074278025839266"><ele>113.0</ele><time>2026-04-07T06:48:04Z</time></trkpt><trkpt lat="45.437454019604175" lon="9.074252005755179"><ele>113.0</ele><time>2026-04-07T06:48:05Z</time></trkpt><trkpt lat="45.437699192529635" lon="9.074220825324527"><ele>113.0</ele><time>2026-04-07T06:48:06Z</time></trkpt><trkpt lat="45.43794471638261" lon="9.074182998750551"><ele>113.5</ele><time>2026-04-07T06:48:07Z</time></trkpt><trkpt lat="45.43819075892099" lon="9.07414476917969"><ele>114.0</ele><time>2026-04-07T06:48:08Z</time></trkpt><trkpt lat="45.43843539839201" lon="9.0741147818883"><ele>115.0</ele><time>2026-04-07T06:48:09Z</time></trkpt><trkpt lat="45.438673775151464" lon="9.074094713644772"><ele>116.0</ele><time>2026-04-07T06:48:10Z</time></trkpt><trkpt lat="45.4389230914204" lon="9.074072342634361"><ele>116.0</ele><time>2026-04-07T06:48:11Z</time></trkpt><trkpt lat="45.439171848981" lon="9.074043854291132"><ele>116.0</ele><time>2026-04-07T06:48:12Z</time></trkpt><trkpt lat="45.43942576150485" lon="9.074019171945887"><ele>117.0</ele><time>2026-04-07T06:48:13Z</time></trkpt><trkpt lat="45.43968186971998" lon="9.073993549581244"><ele>118.0</ele><time>2026-04-07T06:48:14Z</time></trkpt><trkpt lat="45.43994587592614" lon="9.073964874335001"><ele>118.0</ele><time>2026-04-07T06:48:15Z</time></trkpt><trkpt lat="45.44021228114701" lon="9.07393022783842"><ele>118.0</ele><time>2026-04-07T06:48:16Z</time></trkpt><trkpt lat="45.4404816709305" lon="9.073892837698095"><ele>118.5</ele><time>2026-04-07T06:48:17Z</time></trkpt><trkpt lat="45.440751962044956" lon="9.073859368500791"><ele>119.0</ele><time>2026-04-07T06:48:18Z</time></trkpt><trkpt lat="45.4410222249379" lon="9.073828678384803"><ele>119.0</ele><time>2026-04-07T06:48:19Z</time></trkpt><trkpt lat="45.44122378011226" lon="9.073864508177047"><ele>119.0</ele><time>2026-04-07T06:48:20Z</time></trkpt><trkpt lat="45.44147560843091" lon="9.073863138289552"><ele>120.0</ele><time>2026-04-07T06:48:21Z</time></trkpt><trkpt lat="45.441720985565595" lon="9.073866643654643"><ele>121.0</ele><time>2026-04-07T06:48:22Z</time></trkpt><trkpt lat="45.441965257251816" lon="9.073877624072432"><ele>118.5</ele><time>2026-04-07T06:48:23Z</time></trkpt><trkpt lat="45.44221058431933" lon="9.07388754478373"><ele>116.0</ele><time>2026-04-07T06:48:24Z</time></trkpt><trkpt lat="45.44244826076137" lon="9.073891828157244"><ele>116.0</ele><time>2026-04-07T06:48:25Z</time></trkpt><trkpt lat="45.44265922277909" lon="9.073906479455651"><ele>116.0</ele><time>2026-04-07T06:48:26Z</time></trkpt><trkpt lat="45.44287010661162" lon="9.073933718536187"><ele>116.0</ele><time>2026-04-07T06:48:27Z</time></trkpt><trkpt lat="45.443086693633234" lon="9.073962231262154"><ele>117.0</ele><time>2026-04-07T06:48:28Z</time></trkpt><trkpt lat="45.44329995216337" lon="9.07399060471149"><ele>118.0</ele><time>2026-04-07T06:48:29Z</time></trkpt><trkpt lat="45.44350468732719" lon="9.074019655981417"><ele>119.0</ele><time>2026-04-07T06:48:30Z</time></trkpt><trkpt lat="45.443698933709605" lon="9.074049756301847"><ele>119.33333333333333</ele><time>2026-04-07T06:48:31Z</time></trkpt><trkpt lat="45.44388229086226" lon="9.074083663754136"><ele>119.66666666666666</ele><time>2026-04-07T06:48:32Z</time></trkpt><trkpt lat="45.44405526174743" lon="9.074120723845436"><ele>120.0</ele><time>2026-04-07T06:48:33Z</time></trkpt><trkpt lat="45.44424330185829" lon="9.074156620017837"><ele>120.0</ele><time>2026-04-07T06:48:34Z</time></trkpt><trkpt lat="45.444408833771234" lon="9.074192705206663"><ele>120.0</ele><time>2026-04-07T06:48:35Z</time></trkpt><trkpt lat="45.444556659128295" lon="9.074230351165463"><ele>120.0</ele><time>2026-04-07T06:48:36Z</time></trkpt><trkpt lat="45.444687409292875" lon="9.074273634387195"><ele>120.25</ele><time>2026-04-07T06:48:37Z</time></trkpt><trkpt lat="45.4448086957908" lon="9.074334402822606"><ele>120.5</ele><time>2026-04-07T06:48:38Z</time></trkpt><trkpt lat="45.44491482177411" lon="9.07440664516758"><ele>120.75</ele><time>2026-04-07T06:48:39Z</time></trkpt><trkpt lat="45.44501633013708" lon="9.074464717744121"><ele>121.0</ele><time>2026-04-07T06:48:40Z</time></trkpt><trkpt lat="45.44511954218153" lon="9.074499825628966"><ele>121.00000000000001</ele><time>2026-04-07T06:48:41Z</time></trkpt><trkpt lat="45.44521390605843" lon="9.074505935314543"><ele>121.0</ele><time>2026-04-07T06:48:42Z</time></trkpt><trkpt lat="45.44530037364858" lon="9.074511166286708"><ele>121.0</ele><time>2026-04-07T06:48:43Z</time></trkpt><trkpt lat="45.4453780257934" lon="9.074526122952534"><ele>121.0</ele><time>2026-04-07T06:48:44Z</time></trkpt><trkpt lat="45.445449326910406" lon="9.074549639895132"><ele>121.00000000000001</ele><time>2026-04-07T06:48:45Z</time></trkpt><trkpt lat="45.4455240239829" lon="9.0745778024742"><ele>121.0</ele><time>2026-04-07T06:48:46Z</time></trkpt><trkpt lat="45.44559038645116" lon="9.074605679048522"><ele>121.19999999999999</ele><time>2026-04-07T06:48:47Z</time></trkpt><trkpt lat="45.44569661229367" lon="9.074644574461642"><ele>121.39999999999999</ele><time>2026-04-07T06:48:49Z</time></trkpt><trkpt lat="45.445798103199884" lon="9.074654193246134"><ele>121.6</ele><time>2026-04-07T06:48:51Z</time></trkpt><trkpt lat="45.44586508789694" lon="9.074641095367115"><ele>121.8</ele><time>2026-04-07T06:48:55Z</time></trkpt><trkpt lat="45.44598046076613" lon="9.074679006131374"><ele>122.0</ele><time>2026-04-07T06:50:24Z</time></trkpt><trkpt lat="45.44605801311102" lon="9.074702878963834"><ele>122.0</ele><time>2026-04-07T06:50:25Z</time></trkpt><trkpt lat="45.446130527421204" lon="9.074724632307241"><ele>121.99999999999999</ele><time>2026-04-07T06:50:26Z</time></trkpt><trkpt lat="45.44620444606459" lon="9.074742823651613"><ele>121.99999999999999</ele><time>2026-04-07T06:50:27Z</time></trkpt><trkpt lat="45.44630818328404" lon="9.074770816943294"><ele>122.0</ele><time>2026-04-07T06:50:28Z</time></trkpt><trkpt lat="45.4464140222102" lon="9.074799182415536"><ele>122.0</ele><time>2026-04-07T06:50:29Z</time></trkpt><trkpt lat="45.446530027783396" lon="9.074820455766265"><ele>121.75</ele><time>2026-04-07T06:50:30Z</time></trkpt><trkpt lat="45.44665674663696" lon="9.074836856021358"><ele>121.5</ele><time>2026-04-07T06:50:31Z</time></trkpt><trkpt lat="45.44679752875834" lon="9.07486301479494"><ele>121.25</ele><time>2026-04-07T06:50:32Z</time></trkpt><trkpt lat="45.44695821200179" lon="9.074895106848896"><ele>121.0</ele><time>2026-04-07T06:50:33Z</time></trkpt><trkpt lat="45.44712940068748" lon="9.074933240552667"><ele>120.66666666666667</ele><time>2026-04-07T06:50:34Z</time></trkpt><trkpt lat="45.447287004455006" lon="9.074967581639177"><ele>120.33333333333334</ele><time>2026-04-07T06:50:35Z</time></trkpt><trkpt lat="45.4474485077511" lon="9.07500666253775"><ele>120.0</ele><time>2026-04-07T06:50:36Z</time></trkpt><trkpt lat="45.44761513821647" lon="9.075047007089243"><ele>120.0</ele><time>2026-04-07T06:50:37Z</time></trkpt><trkpt lat="45.44778718741748" lon="9.075094982033283"><ele>120.0</ele><time>2026-04-07T06:50:38Z</time></trkpt><trkpt lat="45.44795864119162" lon="9.075140742800171"><ele>120.0</ele><time>2026-04-07T06:50:39Z</time></trkpt><trkpt lat="45.44815259650176" lon="9.075193283673936"><ele>120.5</ele><time>2026-04-07T06:50:40Z</time></trkpt><trkpt lat="45.448375658225984" lon="9.07524971199047"><ele>121.0</ele><time>2026-04-07T06:50:41Z</time></trkpt><trkpt lat="45.4485972364063" lon="9.075305770201075"><ele>121.5</ele><time>2026-04-07T06:50:42Z</time></trkpt><trkpt lat="45.44883036998976" lon="9.075368630441043"><ele>122.0</ele><time>2026-04-07T06:50:43Z</time></trkpt><trkpt lat="45.449072534000145" lon="9.075440150148998"><ele>122.0</ele><time>2026-04-07T06:50:44Z</time></trkpt><trkpt lat="45.4493084464076" lon="9.075517235612946"><ele>122.0</ele><time>2026-04-07T06:50:45Z</time></trkpt><trkpt lat="45.44955198024662" lon="9.075601638845708"><ele>122.0</ele><time>2026-04-07T06:50:46Z</time></trkpt><trkpt lat="45.44980247651715" lon="9.075689803536202"><ele>122.0</ele><time>2026-04-07T06:50:47Z</time></trkpt><trkpt lat="45.45005065060793" lon="9.07577102126407"><ele>122.0</ele><time>2026-04-07T06:50:48Z</time></trkpt><trkpt lat="45.45031134013566" lon="9.075849285162862"><ele>122.0</ele><time>2026-04-07T06:50:49Z</time></trkpt><trkpt lat="45.45057101072237" lon="9.075927412659333"><ele>122.0</ele><time>2026-04-07T06:50:50Z</time></trkpt><trkpt lat="45.45083337160139" lon="9.076004619780027"><ele>122.0</ele><time>2026-04-07T06:50:51Z</time></trkpt><trkpt lat="45.45109691551695" lon="9.076081904922997"><ele>122.0</ele><time>2026-04-07T06:50:52Z</time></trkpt><trkpt lat="45.45136168164012" lon="9.076159251753616"><ele>122.0</ele><time>2026-04-07T06:50:53Z</time></trkpt><trkpt lat="45.45162268586414" lon="9.076233069588508"><ele>122.0</ele><time>2026-04-07T06:50:54Z</time></trkpt><trkpt lat="45.45188165678552" lon="9.076305124434835"><ele>122.0</ele><time>2026-04-07T06:50:55Z</time></trkpt><trkpt lat="45.452138754474745" lon="9.076378571405696"><ele>122.0</ele><time>2026-04-07T06:50:56Z</time></trkpt><trkpt lat="45.452400162125" lon="9.076453877401208"><ele>122.0</ele><time>2026-04-07T06:50:57Z</time></trkpt><trkpt lat="45.45265693249858" lon="9.076528761044099"><ele>122.0</ele><time>2026-04-07T06:50:58Z</time></trkpt><trkpt lat="45.45291839177824" lon="9.076608103660364"><ele>122.0</ele><time>2026-04-07T06:50:59Z</time></trkpt><trkpt lat="45.453189905347124" lon="9.076689834795703"><ele>122.5</ele><time>2026-04-07T06:51:00Z</time></trkpt><trkpt lat="45.453465462263296" lon="9.076775673132817"><ele>123.0</ele><time>2026-04-07T06:51:01Z</time></trkpt><trkpt lat="45.45374559475152" lon="9.07686144503336"><ele>123.0</ele><time>2026-04-07T06:51:02Z</time></trkpt><trkpt lat="45.45402690621817" lon="9.07694925252981"><ele>123.0</ele><time>2026-04-07T06:51:03Z</time></trkpt><trkpt lat="45.45431015679955" lon="9.077035846034406"><ele>123.0</ele><time>2026-04-07T06:51:04Z</time></trkpt><trkpt lat="45.45458273461407" lon="9.07712286724035"><ele>123.0</ele><time>2026-04-07T06:51:05Z</time></trkpt><trkpt lat="45.454854901725106" lon="9.077201584291458"><ele>122.5</ele><time>2026-04-07T06:51:06Z</time></trkpt><trkpt lat="45.4551179039263" lon="9.077280664527917"><ele>122.0</ele><time>2026-04-07T06:51:07Z</time></trkpt><trkpt lat="45.45539442821345" lon="9.07735502924461"><ele>122.5</ele><time>2026-04-07T06:51:08Z</time></trkpt><trkpt lat="45.45565907506533" lon="9.077421707100772"><ele>123.0</ele><time>2026-04-07T06:51:09Z</time></trkpt><trkpt lat="45.45591844114021" lon="9.077478402293274"><ele>124.0</ele><time>2026-04-07T06:51:10Z</time></trkpt><trkpt lat="45.456165629035674" lon="9.077520905790667"><ele>125.0</ele><time>2026-04-07T06:51:11Z</time></trkpt><trkpt lat="45.45641464104708" lon="9.077552890134921"><ele>125.5</ele><time>2026-04-07T06:51:12Z</time></trkpt><trkpt lat="45.45667321587514" lon="9.077574186257594"><ele>126.0</ele><time>2026-04-07T06:51:13Z</time></trkpt><trkpt lat="45.45693507221715" lon="9.077582970848566"><ele>125.5</ele><time>2026-04-07T06:51:14Z</time></trkpt><trkpt lat="45.457197493089666" lon="9.077584265141862"><ele>125.0</ele><time>2026-04-07T06:51:15Z</time></trkpt><trkpt lat="45.45745735847743" lon="9.077589743233784"><ele>125.0</ele><time>2026-04-07T06:51:16Z</time></trkpt><trkpt lat="45.45772032348919" lon="9.077586098799987"><ele>125.0</ele><time>2026-04-07T06:51:17Z</time></trkpt><trkpt lat="45.457964180870505" lon="9.077565814403721"><ele>127.0</ele><time>2026-04-07T06:51:18Z</time></trkpt><trkpt lat="45.45819895384216" lon="9.077524860364392"><ele>129.0</ele><time>2026-04-07T06:51:19Z</time></trkpt><trkpt lat="45.45845185915102" lon="9.077477358167004"><ele>128.5</ele><time>2026-04-07T06:51:20Z</time></trkpt><trkpt lat="45.45868280142078" lon="9.077420320702231"><ele>128.0</ele><time>2026-04-07T06:51:21Z</time></trkpt><trkpt lat="45.45890068765007" lon="9.07736141483903"><ele>127.66666666666666</ele><time>2026-04-07T06:51:22Z</time></trkpt><trkpt lat="45.45911963922147" lon="9.077298707013469"><ele>127.33333333333334</ele><time>2026-04-07T06:51:23Z</time></trkpt><trkpt lat="45.45932550290766" lon="9.077241642122724"><ele>127.0</ele><time>2026-04-07T06:51:24Z</time></trkpt><trkpt lat="45.45952432487655" lon="9.07719034310642"><ele>127.0</ele><time>2026-04-07T06:51:25Z</time></trkpt><trkpt lat="45.45973044421527" lon="9.077129536555638"><ele>127.0</ele><time>2026-04-07T06:51:26Z</time></trkpt><trkpt lat="45.459948040468966" lon="9.077059956575962"><ele>127.0</ele><time>2026-04-07T06:51:27Z</time></trkpt><trkpt lat="45.46017085973712" lon="9.076991897755192"><ele>127.0</ele><time>2026-04-07T06:51:28Z</time></trkpt><trkpt lat="45.46037411395159" lon="9.076939923418934"><ele>127.0</ele><time>2026-04-07T06:51:29Z</time></trkpt><trkpt lat="45.46059985611196" lon="9.076878391070672"><ele>127.0</ele><time>2026-04-07T06:51:30Z</time></trkpt><trkpt lat="45.460839142653356" lon="9.076813846337329"><ele>127.0</ele><time>2026-04-07T06:51:31Z</time></trkpt><trkpt lat="45.4610920529121" lon="9.07674947098031"><ele>127.0</ele><time>2026-04-07T06:51:32Z</time></trkpt><trkpt lat="45.46134536341594" lon="9.07669167883985"><ele>127.0</ele><time>2026-04-07T06:51:33Z</time></trkpt><trkpt lat="45.46160425322999" lon="9.076641416532917"><ele>127.0</ele><time>2026-04-07T06:51:34Z</time></trkpt><trkpt lat="45.46186211017904" lon="9.07658348235799"><ele>127.0</ele><time>2026-04-07T06:51:35Z</time></trkpt><trkpt lat="45.46211825861261" lon="9.07652105533244"><ele>127.0</ele><time>2026-04-07T06:51:36Z</time></trkpt><trkpt lat="45.46237828425909" lon="9.076451695789707"><ele>127.0</ele><time>2026-04-07T06:51:37Z</time></trkpt><trkpt lat="45.462623403303674" lon="9.076387107424795"><ele>127.0</ele><time>2026-04-07T06:51:38Z</time></trkpt><trkpt lat="45.462860850810806" lon="9.07632981411594"><ele>128.0</ele><time>2026-04-07T06:51:39Z</time></trkpt><trkpt lat="45.46310075243963" lon="9.07629098446874"><ele>129.0</ele><time>2026-04-07T06:51:40Z</time></trkpt><trkpt lat="45.46334353543493" lon="9.076255439167179"><ele>129.0</ele><time>2026-04-07T06:51:41Z</time></trkpt><trkpt lat="45.4635893754444" lon="9.076243747511418"><ele>129.0</ele><time>2026-04-07T06:51:42Z</time></trkpt><trkpt lat="45.463832625403" lon="9.07623846593585"><ele>129.5</ele><time>2026-04-07T06:51:43Z</time></trkpt><trkpt lat="45.464072389768035" lon="9.076249643885289"><ele>130.0</ele><time>2026-04-07T06:51:44Z</time></trkpt><trkpt lat="45.46431371327366" lon="9.076274264224807"><ele>130.0</ele><time>2026-04-07T06:51:45Z</time></trkpt><trkpt lat="45.464559185248305" lon="9.076306938876504"><ele>130.0</ele><time>2026-04-07T06:51:46Z</time></trkpt><trkpt lat="45.46480545468027" lon="9.076347977677173"><ele>130.0</ele><time>2026-04-07T06:51:47Z</time></trkpt><trkpt lat="45.46505161889622" lon="9.07639857698859"><ele>130.0</ele><time>2026-04-07T06:51:48Z</time></trkpt><trkpt lat="45.46530044692136" lon="9.076461440929378"><ele>128.5</ele><time>2026-04-07T06:51:49Z</time></trkpt><trkpt lat="45.465549407459086" lon="9.07654947331778"><ele>127.0</ele><time>2026-04-07T06:51:50Z</time></trkpt><trkpt lat="45.46579217355053" lon="9.07664832102405"><ele>127.0</ele><time>2026-04-07T06:51:51Z</time></trkpt><trkpt lat="45.466044839445544" lon="9.076762922677343"><ele>127.0</ele><time>2026-04-07T06:51:52Z</time></trkpt><trkpt lat="45.466286761876034" lon="9.076888362249749"><ele>127.5</ele><time>2026-04-07T06:51:53Z</time></trkpt><trkpt lat="45.466530938461695" lon="9.077028481960387"><ele>128.0</ele><time>2026-04-07T06:51:54Z</time></trkpt><trkpt lat="45.466772426982686" lon="9.07717153679896"><ele>128.0</ele><time>2026-04-07T06:51:55Z</time></trkpt><trkpt lat="45.46701714183155" lon="9.077312709045254"><ele>128.0</ele><time>2026-04-07T06:51:56Z</time></trkpt><trkpt lat="45.46726398583518" lon="9.07744871289596"><ele>128.5</ele><time>2026-04-07T06:51:57Z</time></trkpt><trkpt lat="45.46751040161813" lon="9.077584084344414"><ele>129.0</ele><time>2026-04-07T06:51:58Z</time></trkpt><trkpt lat="45.467755177997475" lon="9.077724199169193"><ele>128.0</ele><time>2026-04-07T06:51:59Z</time></trkpt><trkpt lat="45.46800012915164" lon="9.077871765018134"><ele>127.0</ele><time>2026-04-07T06:51:59.999Z</time></trkpt><trkpt lat="45.46823938658778" lon="9.078021249222592"><ele>127.0</ele><time>2026-04-07T06:52:00.999Z</time></trkpt><trkpt lat="45.46848075667888" lon="9.078174983407656"><ele>127.0</ele><time>2026-04-07T06:52:01.999Z</time></trkpt><trkpt lat="45.46870246697211" lon="9.078311390870232"><ele>128.5</ele><time>2026-04-07T06:52:02.999Z</time></trkpt><trkpt lat="45.46892065263599" lon="9.078446365931079"><ele>130.0</ele><time>2026-04-07T06:52:03.999Z</time></trkpt><trkpt lat="45.46914988260594" lon="9.078576780057086"><ele>130.0</ele><time>2026-04-07T06:52:04.999Z</time></trkpt><trkpt lat="45.46938046978945" lon="9.078708861815095"><ele>130.0</ele><time>2026-04-07T06:52:05.999Z</time></trkpt><trkpt lat="45.4696141887655" lon="9.078842745480136"><ele>129.5</ele><time>2026-04-07T06:52:06.999Z</time></trkpt><trkpt lat="45.469847575129485" lon="9.078973541206782"><ele>129.0</ele><time>2026-04-07T06:52:07.999Z</time></trkpt><trkpt lat="45.470086234148226" lon="9.079106842256914"><ele>129.0</ele><time>2026-04-07T06:52:08.999Z</time></trkpt><trkpt lat="45.470328302088866" lon="9.079241162054458"><ele>129.0</ele><time>2026-04-07T06:52:09.999Z</time></trkpt><trkpt lat="45.470564150110555" lon="9.079375596625765"><ele>128.5</ele><time>2026-04-07T06:52:11Z</time></trkpt><trkpt lat="45.470808749127855" lon="9.079500598333116"><ele>128.0</ele><time>2026-04-07T06:52:12Z</time></trkpt><trkpt lat="45.47105755637788" lon="9.079607217254098"><ele>128.0</ele><time>2026-04-07T06:52:13Z</time></trkpt><trkpt lat="45.471312154760014" lon="9.079692939576193"><ele>128.0</ele><time>2026-04-07T06:52:14Z</time></trkpt><trkpt lat="45.47156735360641" lon="9.07976328438967"><ele>128.0</ele><time>2026-04-07T06:52:15Z</time></trkpt><trkpt lat="45.471823548262456" lon="9.079811006291402"><ele>128.0</ele><time>2026-04-07T06:52:16Z</time></trkpt><trkpt lat="45.472082310278275" lon="9.079844948947699"><ele>128.0</ele><time>2026-04-07T06:52:17Z</time></trkpt><trkpt lat="45.47234384972912" lon="9.079859535172366"><ele>128.0</ele><time>2026-04-07T06:52:18Z</time></trkpt><trkpt lat="45.47260475126043" lon="9.079860090037306"><ele>128.0</ele><time>2026-04-07T06:52:19Z</time></trkpt><trkpt lat="45.472873442856994" lon="9.079824139467659"><ele>128.0</ele><time>2026-04-07T06:52:20Z</time></trkpt><trkpt lat="45.47312454729456" lon="9.079789108689079"><ele>129.0</ele><time>2026-04-07T06:52:21Z</time></trkpt><trkpt lat="45.47338694343893" lon="9.079733138658982"><ele>130.0</ele><time>2026-04-07T06:52:22Z</time></trkpt><trkpt lat="45.47364725013488" lon="9.079663992376343"><ele>130.0</ele><time>2026-04-07T06:52:23Z</time></trkpt><trkpt lat="45.47390339729664" lon="9.079585429834374"><ele>130.0</ele><time>2026-04-07T06:52:24Z</time></trkpt><trkpt lat="45.47416209801857" lon="9.079484039543072"><ele>130.0</ele><time>2026-04-07T06:52:25Z</time></trkpt><trkpt lat="45.47441410306481" lon="9.079352997926899"><ele>130.0</ele><time>2026-04-07T06:52:26Z</time></trkpt><trkpt lat="45.47466439954826" lon="9.07919396726543"><ele>131.0</ele><time>2026-04-07T06:52:27Z</time></trkpt><trkpt lat="45.47490613088071" lon="9.079018756579604"><ele>132.0</ele><time>2026-04-07T06:52:28Z</time></trkpt><trkpt lat="45.47513257517644" lon="9.078832050548188"><ele>132.0</ele><time>2026-04-07T06:52:29Z</time></trkpt><trkpt lat="45.47535717261357" lon="9.078629257357772"><ele>132.0</ele><time>2026-04-07T06:52:30Z</time></trkpt><trkpt lat="45.475580716609066" lon="9.078417482299619"><ele>131.5</ele><time>2026-04-07T06:52:31Z</time></trkpt><trkpt lat="45.47580383439382" lon="9.078208322089441"><ele>131.0</ele><time>2026-04-07T06:52:32Z</time></trkpt><trkpt lat="45.47603067699063" lon="9.078000496503565"><ele>131.0</ele><time>2026-04-07T06:52:33Z</time></trkpt><trkpt lat="45.47625783122128" lon="9.077790167323883"><ele>131.0</ele><time>2026-04-07T06:52:34Z</time></trkpt><trkpt lat="45.4764841435905" lon="9.077580502457721"><ele>130.5</ele><time>2026-04-07T06:52:35Z</time></trkpt><trkpt lat="45.476699702005384" lon="9.077377004495098"><ele>130.0</ele><time>2026-04-07T06:52:36Z</time></trkpt><trkpt lat="45.47691076500518" lon="9.077174587238625"><ele>130.5</ele><time>2026-04-07T06:52:37Z</time></trkpt><trkpt lat="45.477112052086305" lon="9.076976820336457"><ele>131.0</ele><time>2026-04-07T06:52:38Z</time></trkpt><trkpt lat="45.47731180559641" lon="9.076780144541278"><ele>131.0</ele><time>2026-04-07T06:52:39Z</time></trkpt><trkpt lat="45.477515875599984" lon="9.076571603775914"><ele>131.0</ele><time>2026-04-07T06:52:40Z</time></trkpt><trkpt lat="45.47771968898647" lon="9.076360481821178"><ele>131.0</ele><time>2026-04-07T06:52:41Z</time></trkpt><trkpt lat="45.47791643631557" lon="9.076154251511634"><ele>131.0</ele><time>2026-04-07T06:52:42Z</time></trkpt><trkpt lat="45.478107259746466" lon="9.075962257194892"><ele>131.5</ele><time>2026-04-07T06:52:43Z</time></trkpt><trkpt lat="45.47830772339682" lon="9.075763124303979"><ele>132.0</ele><time>2026-04-07T06:52:44Z</time></trkpt><trkpt lat="45.47851593329841" lon="9.075553239418502"><ele>132.0</ele><time>2026-04-07T06:52:45Z</time></trkpt><trkpt lat="45.47872937844908" lon="9.075340558993043"><ele>132.0</ele><time>2026-04-07T06:52:46Z</time></trkpt><trkpt lat="45.478946418322984" lon="9.07513350630274"><ele>133.0</ele><time>2026-04-07T06:52:47Z</time></trkpt><trkpt lat="45.47916778491414" lon="9.074921052721857"><ele>134.0</ele><time>2026-04-07T06:52:48Z</time></trkpt><trkpt lat="45.47939675041953" lon="9.074702007620512"><ele>134.0</ele><time>2026-04-07T06:52:49Z</time></trkpt><trkpt lat="45.4796217091196" lon="9.074488004762436"><ele>134.0</ele><time>2026-04-07T06:52:50Z</time></trkpt><trkpt lat="45.479855236733876" lon="9.074268872063145"><ele>133.0</ele><time>2026-04-07T06:52:51Z</time></trkpt><trkpt lat="45.48008584180292" lon="9.074049431897883"><ele>132.0</ele><time>2026-04-07T06:52:52Z</time></trkpt><trkpt lat="45.480319575541806" lon="9.0738245887923"><ele>130.5</ele><time>2026-04-07T06:52:53Z</time></trkpt><trkpt lat="45.48054945858848" lon="9.073604406411437"><ele>129.0</ele><time>2026-04-07T06:52:54Z</time></trkpt><trkpt lat="45.48078306542519" lon="9.073376738410518"><ele>129.0</ele><time>2026-04-07T06:52:55Z</time></trkpt><trkpt lat="45.481016777012094" lon="9.073150393598546"><ele>129.0</ele><time>2026-04-07T06:52:56Z</time></trkpt><trkpt lat="45.48124565277888" lon="9.07293546548097"><ele>129.5</ele><time>2026-04-07T06:52:57Z</time></trkpt><trkpt lat="45.48147555261282" lon="9.07271720442695"><ele>130.0</ele><time>2026-04-07T06:52:58Z</time></trkpt><trkpt lat="45.481692530856506" lon="9.072509828200769"><ele>130.0</ele><time>2026-04-07T06:52:59Z</time></trkpt><trkpt lat="45.481900677759796" lon="9.072312358539369"><ele>130.0</ele><time>2026-04-07T06:53:00Z</time></trkpt><trkpt lat="45.48211244053216" lon="9.072113076428767"><ele>131.0</ele><time>2026-04-07T06:53:01Z</time></trkpt><trkpt lat="45.48232152167737" lon="9.071912137306807"><ele>132.0</ele><time>2026-04-07T06:53:02Z</time></trkpt><trkpt lat="45.482526732587914" lon="9.071711257142438"><ele>131.5</ele><time>2026-04-07T06:53:03Z</time></trkpt><trkpt lat="45.482732026696446" lon="9.071511253486301"><ele>131.0</ele><time>2026-04-07T06:53:04Z</time></trkpt><trkpt lat="45.48293900829494" lon="9.071308438167758"><ele>131.0</ele><time>2026-04-07T06:53:05Z</time></trkpt><trkpt lat="45.483142650942945" lon="9.071111066042132"><ele>131.0</ele><time>2026-04-07T06:53:06Z</time></trkpt><trkpt lat="45.48333384755098" lon="9.07092306593888"><ele>130.33333333333331</ele><time>2026-04-07T06:53:07Z</time></trkpt><trkpt lat="45.48351428520513" lon="9.070751845798778"><ele>129.66666666666666</ele><time>2026-04-07T06:53:08Z</time></trkpt><trkpt lat="45.48368646575053" lon="9.070589884882358"><ele>129.0</ele><time>2026-04-07T06:53:09Z</time></trkpt><trkpt lat="45.48384959015023" lon="9.070434174894702"><ele>129.0</ele><time>2026-04-07T06:53:10Z</time></trkpt><trkpt lat="45.483998440452105" lon="9.070290463436281"><ele>129.0</ele><time>2026-04-07T06:53:11Z</time></trkpt><trkpt lat="45.48412406015394" lon="9.070165100418219"><ele>129.0</ele><time>2026-04-07T06:53:12Z</time></trkpt><trkpt lat="45.484245977900144" lon="9.070041954747357"><ele>129.66666666666666</ele><time>2026-04-07T06:53:13Z</time></trkpt><trkpt lat="45.484376673598575" lon="9.06992146096794"><ele>130.33333333333331</ele><time>2026-04-07T06:53:14Z</time></trkpt><trkpt lat="45.48450883050939" lon="9.069795512972016"><ele>131.0</ele><time>2026-04-07T06:53:15Z</time></trkpt><trkpt lat="45.484647679243416" lon="9.069663028674992"><ele>131.66666666666666</ele><time>2026-04-07T06:53:16Z</time></trkpt><trkpt lat="45.48479993726492" lon="9.069514911409126"><ele>132.33333333333334</ele><time>2026-04-07T06:53:17Z</time></trkpt><trkpt lat="45.48496174666099" lon="9.06936357157594"><ele>133.0</ele><time>2026-04-07T06:53:18Z</time></trkpt><trkpt lat="45.48511716067" lon="9.06921725444779"><ele>132.66666666666669</ele><time>2026-04-07T06:53:19Z</time></trkpt><trkpt lat="45.485267705043135" lon="9.06908260608898"><ele>132.33333333333334</ele><time>2026-04-07T06:53:20Z</time></trkpt><trkpt lat="45.4854278867294" lon="9.068936551897805"><ele>132.0</ele><time>2026-04-07T06:53:21Z</time></trkpt><trkpt lat="45.485589978397" lon="9.068792342488278"><ele>132.0</ele><time>2026-04-07T06:53:22Z</time></trkpt><trkpt lat="45.4857502191171" lon="9.06865683376856"><ele>132.0</ele><time>2026-04-07T06:53:23Z</time></trkpt><trkpt lat="45.48592267981194" lon="9.068516692371873"><ele>132.0</ele><time>2026-04-07T06:53:24Z</time></trkpt><trkpt lat="45.48609161691401" lon="9.068385185838437"><ele>132.66666666666666</ele><time>2026-04-07T06:53:25Z</time></trkpt><trkpt lat="45.486267187413894" lon="9.068254557179902"><ele>133.33333333333331</ele><time>2026-04-07T06:53:26Z</time></trkpt><trkpt lat="45.48644721623411" lon="9.068125829703245"><ele>134.0</ele><time>2026-04-07T06:53:27Z</time></trkpt><trkpt lat="45.486620084259194" lon="9.068010168273197"><ele>134.0</ele><time>2026-04-07T06:53:28Z</time></trkpt><trkpt lat="45.48678984093803" lon="9.067904256243303"><ele>134.0</ele><time>2026-04-07T06:53:29Z</time></trkpt><trkpt lat="45.48695945314106" lon="9.067802094039815"><ele>134.0</ele><time>2026-04-07T06:53:30Z</time></trkpt><trkpt lat="45.48714383815129" lon="9.067697761230336"><ele>134.0</ele><time>2026-04-07T06:53:31Z</time></trkpt><trkpt lat="45.48733641882308" lon="9.06759047109821"><ele>134.0</ele><time>2026-04-07T06:53:32Z</time></trkpt><trkpt lat="45.487530321465776" lon="9.06748834602698"><ele>134.0</ele><time>2026-04-07T06:53:33Z</time></trkpt><trkpt lat="45.487715908276044" lon="9.067398298821951"><ele>134.0</ele><time>2026-04-07T06:53:34Z</time></trkpt><trkpt lat="45.48790560344176" lon="9.067308770327376"><ele>134.0</ele><time>2026-04-07T06:53:35Z</time></trkpt><trkpt lat="45.48810180298925" lon="9.067219864170232"><ele>134.0</ele><time>2026-04-07T06:53:36Z</time></trkpt><trkpt lat="45.488294355294556" lon="9.067145289012139"><ele>134.66666666666666</ele><time>2026-04-07T06:53:37Z</time></trkpt><trkpt lat="45.48848730778238" lon="9.067071347307165"><ele>135.33333333333334</ele><time>2026-04-07T06:53:38Z</time></trkpt><trkpt lat="45.48868262013305" lon="9.06699836817204"><ele>136.0</ele><time>2026-04-07T06:53:39Z</time></trkpt><trkpt lat="45.48887958752227" lon="9.0669322656783"><ele>136.0</ele><time>2026-04-07T06:53:40Z</time></trkpt><trkpt lat="45.489081412310924" lon="9.066872189812694"><ele>136.0</ele><time>2026-04-07T06:53:41Z</time></trkpt><trkpt lat="45.489293309928115" lon="9.06682147730449"><ele>136.0</ele><time>2026-04-07T06:53:42Z</time></trkpt><trkpt lat="45.489512491462406" lon="9.06678115502416"><ele>136.0</ele><time>2026-04-07T06:53:43Z</time></trkpt><trkpt lat="45.48973831854445" lon="9.066737995747815"><ele>136.0</ele><time>2026-04-07T06:53:44Z</time></trkpt><trkpt lat="45.48996107914678" lon="9.066700336636163"><ele>136.0</ele><time>2026-04-07T06:53:45Z</time></trkpt><trkpt lat="45.490188582079504" lon="9.066668929425763"><ele>136.0</ele><time>2026-04-07T06:53:46Z</time></trkpt><trkpt lat="45.49042585296924" lon="9.066643323379237"><ele>135.0</ele><time>2026-04-07T06:53:47Z</time></trkpt><trkpt lat="45.49066444038139" lon="9.066625816297584"><ele>134.0</ele><time>2026-04-07T06:53:48Z</time></trkpt><trkpt lat="45.490909828454434" lon="9.06661384792661"><ele>134.0</ele><time>2026-04-07T06:53:49Z</time></trkpt><trkpt lat="45.4911590951026" lon="9.066607532393851"><ele>134.0</ele><time>2026-04-07T06:53:50Z</time></trkpt><trkpt lat="45.49140658884521" lon="9.066613009046547"><ele>133.5</ele><time>2026-04-07T06:53:51Z</time></trkpt><trkpt lat="45.49165205438936" lon="9.06662345082727"><ele>133.0</ele><time>2026-04-07T06:53:52Z</time></trkpt><trkpt lat="45.4919073665006" lon="9.066629535415482"><ele>133.5</ele><time>2026-04-07T06:53:53Z</time></trkpt><trkpt lat="45.49215726254227" lon="9.066638052861622"><ele>134.0</ele><time>2026-04-07T06:53:54Z</time></trkpt><trkpt lat="45.49240775884864" lon="9.066649408125622"><ele>134.0</ele><time>2026-04-07T06:53:55Z</time></trkpt><trkpt lat="45.49265718322959" lon="9.066655445661956"><ele>134.0</ele><time>2026-04-07T06:53:56Z</time></trkpt><trkpt lat="45.49290333006982" lon="9.06665915325085"><ele>136.0</ele><time>2026-04-07T06:53:57Z</time></trkpt><trkpt lat="45.4931485212855" lon="9.066664203365331"><ele>138.0</ele><time>2026-04-07T06:53:58Z</time></trkpt><trkpt lat="45.49339009538862" lon="9.066674926203891"><ele>138.0</ele><time>2026-04-07T06:53:59Z</time></trkpt><trkpt lat="45.493651066198076" lon="9.066683188445703"><ele>138.0</ele><time>2026-04-07T06:54:00Z</time></trkpt><trkpt lat="45.493903669329136" lon="9.0666933729717"><ele>137.0</ele><time>2026-04-07T06:54:01Z</time></trkpt><trkpt lat="45.494153464947544" lon="9.066704263434874"><ele>136.0</ele><time>2026-04-07T06:54:01.999Z</time></trkpt><trkpt lat="45.49438934852387" lon="9.066713111166164"><ele>135.5</ele><time>2026-04-07T06:54:02.999Z</time></trkpt><trkpt lat="45.494615973046216" lon="9.066720156884202"><ele>135.0</ele><time>2026-04-07T06:54:03.999Z</time></trkpt><trkpt lat="45.4948490793268" lon="9.066726743337135"><ele>135.0</ele><time>2026-04-07T06:54:04.999Z</time></trkpt><trkpt lat="45.4950863067779" lon="9.066737220363091"><ele>135.0</ele><time>2026-04-07T06:54:05.999Z</time></trkpt><trkpt lat="45.49532649941953" lon="9.06674898301873"><ele>135.5</ele><time>2026-04-07T06:54:06.999Z</time></trkpt><trkpt lat="45.49557078126082" lon="9.066761118446365"><ele>136.0</ele><time>2026-04-07T06:54:07.999Z</time></trkpt><trkpt lat="45.49580895711391" lon="9.066770211051306"><ele>136.0</ele><time>2026-04-07T06:54:08.999Z</time></trkpt><trkpt lat="45.49604781790321" lon="9.066778291504631"><ele>136.0</ele><time>2026-04-07T06:54:09.999Z</time></trkpt><trkpt lat="45.49629473647747" lon="9.06678960017515"><ele>136.5</ele><time>2026-04-07T06:54:10.999Z</time></trkpt><trkpt lat="45.496559814879305" lon="9.066802378627436"><ele>137.0</ele><time>2026-04-07T06:54:11.999Z</time></trkpt><trkpt lat="45.49683827521638" lon="9.066810603918755"><ele>137.0</ele><time>2026-04-07T06:54:12.999Z</time></trkpt><trkpt lat="45.49710082865131" lon="9.066816218610457"><ele>137.0</ele><time>2026-04-07T06:54:13.999Z</time></trkpt><trkpt lat="45.497357998758574" lon="9.066824384614657"><ele>137.0</ele><time>2026-04-07T06:54:14.999Z</time></trkpt><trkpt lat="45.49761800921926" lon="9.066836652260012"><ele>137.0</ele><time>2026-04-07T06:54:16Z</time></trkpt><trkpt lat="45.49788119019889" lon="9.066854340045435"><ele>136.5</ele><time>2026-04-07T06:54:17Z</time></trkpt><trkpt lat="45.498144003836046" lon="9.066871722905049"><ele>136.0</ele><time>2026-04-07T06:54:18Z</time></trkpt><trkpt lat="45.49840688080581" lon="9.066888552141503"><ele>136.0</ele><time>2026-04-07T06:54:19Z</time></trkpt><trkpt lat="45.4986711927686" lon="9.066895458353871"><ele>136.0</ele><time>2026-04-07T06:54:20Z</time></trkpt><trkpt lat="45.498932751441245" lon="9.066900021548914"><ele>135.5</ele><time>2026-04-07T06:54:21Z</time></trkpt><trkpt lat="45.49920408271971" lon="9.06690079366546"><ele>135.0</ele><time>2026-04-07T06:54:22Z</time></trkpt><trkpt lat="45.49948417320547" lon="9.066898657730228"><ele>136.5</ele><time>2026-04-07T06:54:23Z</time></trkpt><trkpt lat="45.49974982744888" lon="9.066890821919653"><ele>138.0</ele><time>2026-04-07T06:54:24Z</time></trkpt><trkpt lat="45.50001649764063" lon="9.066867138086517"><ele>138.0</ele><time>2026-04-07T06:54:25Z</time></trkpt><trkpt lat="45.500282046352545" lon="9.06683307928587"><ele>138.0</ele><time>2026-04-07T06:54:26Z</time></trkpt><trkpt lat="45.50053847499651" lon="9.066787389699789"><ele>137.5</ele><time>2026-04-07T06:54:27Z</time></trkpt><trkpt lat="45.50080417761065" lon="9.066729089326913"><ele>137.0</ele><time>2026-04-07T06:54:28Z</time></trkpt><trkpt lat="45.50106931272448" lon="9.066662178700176"><ele>137.5</ele><time>2026-04-07T06:54:29Z</time></trkpt><trkpt lat="45.501325105864076" lon="9.066591503354156"><ele>138.0</ele><time>2026-04-07T06:54:30Z</time></trkpt><trkpt lat="45.50158438878053" lon="9.06651399971843"><ele>138.0</ele><time>2026-04-07T06:54:31Z</time></trkpt><trkpt lat="45.501844718182795" lon="9.066433667210541"><ele>138.0</ele><time>2026-04-07T06:54:32Z</time></trkpt><trkpt lat="45.50210068546135" lon="9.066344270451545"><ele>139.5</ele><time>2026-04-07T06:54:33Z</time></trkpt><trkpt lat="45.50235618489916" lon="9.066234852892277"><ele>141.0</ele><time>2026-04-07T06:54:34Z</time></trkpt><trkpt lat="45.50263480223533" lon="9.06611145075961"><ele>140.5</ele><time>2026-04-07T06:54:35Z</time></trkpt><trkpt lat="45.502920677137844" lon="9.065987115954618"><ele>140.0</ele><time>2026-04-07T06:54:36Z</time></trkpt><trkpt lat="45.50320193708342" lon="9.06587611171605"><ele>140.0</ele><time>2026-04-07T06:54:37Z</time></trkpt><trkpt lat="45.50347917015968" lon="9.065778762437882"><ele>140.0</ele><time>2026-04-07T06:54:38Z</time></trkpt><trkpt lat="45.50374396464603" lon="9.065691034204312"><ele>139.5</ele><time>2026-04-07T06:54:39Z</time></trkpt><trkpt lat="45.50398749296882" lon="9.065604731214854"><ele>139.0</ele><time>2026-04-07T06:54:40Z</time></trkpt><trkpt lat="45.50423134726485" lon="9.065519641231544"><ele>139.0</ele><time>2026-04-07T06:54:41Z</time></trkpt><trkpt lat="45.504465962254145" lon="9.065435181518327"><ele>139.0</ele><time>2026-04-07T06:54:42Z</time></trkpt><trkpt lat="45.50470423780245" lon="9.065356707352981"><ele>140.0</ele><time>2026-04-07T06:54:43Z</time></trkpt><trkpt lat="45.504944243341434" lon="9.065280410444263"><ele>141.0</ele><time>2026-04-07T06:54:44Z</time></trkpt><trkpt lat="45.50517057358739" lon="9.065202099626159"><ele>141.0</ele><time>2026-04-07T06:54:45Z</time></trkpt><trkpt lat="45.505387930913955" lon="9.065130080704025"><ele>141.0</ele><time>2026-04-07T06:54:46Z</time></trkpt><trkpt lat="45.50562966525693" lon="9.065049187668476"><ele>142.5</ele><time>2026-04-07T06:54:47Z</time></trkpt><trkpt lat="45.50587086435752" lon="9.064956796835883"><ele>144.0</ele><time>2026-04-07T06:54:48Z</time></trkpt><trkpt lat="45.50610890314726" lon="9.064858692059167"><ele>143.0</ele><time>2026-04-07T06:54:49Z</time></trkpt><trkpt lat="45.50634483676089" lon="9.064763802592969"><ele>142.0</ele><time>2026-04-07T06:54:50Z</time></trkpt><trkpt lat="45.506567778574045" lon="9.064676246994956"><ele>142.0</ele><time>2026-04-07T06:54:51Z</time></trkpt><trkpt lat="45.50677606255581" lon="9.064597890598039"><ele>142.0</ele><time>2026-04-07T06:54:52Z</time></trkpt><trkpt lat="45.50697070799984" lon="9.06452949770908"><ele>142.0</ele><time>2026-04-07T06:54:53Z</time></trkpt><trkpt lat="45.50718094572131" lon="9.064453948745303"><ele>143.0</ele><time>2026-04-07T06:54:54Z</time></trkpt><trkpt lat="45.50739834477853" lon="9.06437064154199"><ele>144.0</ele><time>2026-04-07T06:54:55Z</time></trkpt><trkpt lat="45.507595737022264" lon="9.064279945415"><ele>145.0</ele><time>2026-04-07T06:54:56Z</time></trkpt><trkpt lat="45.507778161329135" lon="9.064177126622678"><ele>145.33333333333334</ele><time>2026-04-07T06:54:57Z</time></trkpt><trkpt lat="45.50797163316178" lon="9.064073011440897"><ele>145.66666666666666</ele><time>2026-04-07T06:54:58Z</time></trkpt><trkpt lat="45.50819184329877" lon="9.063956119261373"><ele>146.0</ele><time>2026-04-07T06:54:59Z</time></trkpt><trkpt lat="45.5084204782401" lon="9.063834545101923"><ele>146.0</ele><time>2026-04-07T06:55:00Z</time></trkpt><trkpt lat="45.50864796257664" lon="9.063715243147191"><ele>146.0</ele><time>2026-04-07T06:55:01Z</time></trkpt><trkpt lat="45.50888442377547" lon="9.063595147253796"><ele>146.0</ele><time>2026-04-07T06:55:02Z</time></trkpt><trkpt lat="45.509093566008545" lon="9.063494251123707"><ele>146.0</ele><time>2026-04-07T06:55:03Z</time></trkpt><trkpt lat="45.50928853423792" lon="9.06339887241187"><ele>146.0</ele><time>2026-04-07T06:55:04Z</time></trkpt><trkpt lat="45.50947852358467" lon="9.06330610292306"><ele>145.33333333333331</ele><time>2026-04-07T06:55:05Z</time></trkpt><trkpt lat="45.509670802563136" lon="9.063210885723565"><ele>144.66666666666666</ele><time>2026-04-07T06:55:06Z</time></trkpt><trkpt lat="45.50987219315207" lon="9.06310794160568"><ele>144.0</ele><time>2026-04-07T06:55:07Z</time></trkpt><trkpt lat="45.51004902991272" lon="9.063018356556936"><ele>144.0</ele><time>2026-04-07T06:55:08Z</time></trkpt><trkpt lat="45.51020888558193" lon="9.062936685452412"><ele>144.0</ele><time>2026-04-07T06:55:09Z</time></trkpt><trkpt lat="45.51035230361777" lon="9.062861321823503"><ele>144.0</ele><time>2026-04-07T06:55:10Z</time></trkpt><trkpt lat="45.51050128715559" lon="9.062791507000076"><ele>145.0</ele><time>2026-04-07T06:55:11Z</time></trkpt><trkpt lat="45.51066647692299" lon="9.062725466459144"><ele>146.0</ele><time>2026-04-07T06:55:12Z</time></trkpt><trkpt lat="45.5108063597805" lon="9.062666206714306"><ele>147.0</ele><time>2026-04-07T06:55:13Z</time></trkpt><trkpt lat="45.51094244334253" lon="9.062602300940341"><ele>147.0</ele><time>2026-04-07T06:55:14Z</time></trkpt><trkpt lat="45.51107147768081" lon="9.06254799632036"><ele>147.0</ele><time>2026-04-07T06:55:15Z</time></trkpt><trkpt lat="45.511194340311164" lon="9.062510670791916"><ele>147.0</ele><time>2026-04-07T06:55:16Z</time></trkpt><trkpt lat="45.51131579534999" lon="9.062500162698829"><ele>147.0</ele><time>2026-04-07T06:55:17Z</time></trkpt><trkpt lat="45.51144034515967" lon="9.062520128646986"><ele>146.75</ele><time>2026-04-07T06:55:18Z</time></trkpt><trkpt lat="45.51156859579187" lon="9.062585119115882"><ele>146.5</ele><time>2026-04-07T06:55:19Z</time></trkpt><trkpt lat="45.5116846802789" lon="9.06268678078049"><ele>146.25</ele><time>2026-04-07T06:55:20Z</time></trkpt><trkpt lat="45.511784032289356" lon="9.062791651925767"><ele>146.0</ele><time>2026-04-07T06:55:21Z</time></trkpt><trkpt lat="45.51188094866839" lon="9.062884369929447"><ele>146.0</ele><time>2026-04-07T06:55:22Z</time></trkpt><trkpt lat="45.51198041131682" lon="9.06298204017334"><ele>146.0</ele><time>2026-04-07T06:55:23Z</time></trkpt><trkpt lat="45.51208798804099" lon="9.063091664512312"><ele>146.0</ele><time>2026-04-07T06:55:24Z</time></trkpt><trkpt lat="45.512196371369484" lon="9.063205676490718"><ele>146.0</ele><time>2026-04-07T06:55:25Z</time></trkpt><trkpt lat="45.512296269048456" lon="9.063332118206873"><ele>146.25</ele><time>2026-04-07T06:55:26Z</time></trkpt><trkpt lat="45.51237458448633" lon="9.063485809779138"><ele>146.5</ele><time>2026-04-07T06:55:27Z</time></trkpt><trkpt lat="45.512430948408344" lon="9.063681594031031"><ele>146.75</ele><time>2026-04-07T06:55:28Z</time></trkpt><trkpt lat="45.51247215129984" lon="9.063907697762863"><ele>147.0</ele><time>2026-04-07T06:55:29Z</time></trkpt><trkpt lat="45.512484544741824" lon="9.064158463257627"><ele>147.0</ele><time>2026-04-07T06:55:30Z</time></trkpt><trkpt lat="45.512497903159705" lon="9.064408893313113"><ele>147.0</ele><time>2026-04-07T06:55:31Z</time></trkpt><trkpt lat="45.51256131677711" lon="9.064730698591069"><ele>147.0</ele><time>2026-04-07T06:55:32Z</time></trkpt><trkpt lat="45.51258468569928" lon="9.06502863047687"><ele>147.33333333333334</ele><time>2026-04-07T06:55:33Z</time></trkpt><trkpt lat="45.51262175098658" lon="9.06531846443202"><ele>147.66666666666669</ele><time>2026-04-07T06:55:34Z</time></trkpt><trkpt lat="45.512669087848465" lon="9.065624109626551"><ele>148.0</ele><time>2026-04-07T06:55:35Z</time></trkpt><trkpt lat="45.512716967505106" lon="9.06594073533277"><ele>146.0</ele><time>2026-04-07T06:55:36Z</time></trkpt><trkpt lat="45.51275493402888" lon="9.066268095164062"><ele>144.0</ele><time>2026-04-07T06:55:37Z</time></trkpt><trkpt lat="45.51279890332638" lon="9.066588348486622"><ele>144.0</ele><time>2026-04-07T06:55:38Z</time></trkpt><trkpt lat="45.512834635050055" lon="9.066913279596294"><ele>144.0</ele><time>2026-04-07T06:55:39Z</time></trkpt><trkpt lat="45.51287131963576" lon="9.067249460852247"><ele>143.5</ele><time>2026-04-07T06:55:40Z</time></trkpt><trkpt lat="45.51290532670216" lon="9.067587493853797"><ele>143.0</ele><time>2026-04-07T06:55:41Z</time></trkpt><trkpt lat="45.51293722789625" lon="9.067931848121633"><ele>143.5</ele><time>2026-04-07T06:55:42Z</time></trkpt><trkpt lat="45.512968940614186" lon="9.068278680880756"><ele>144.0</ele><time>2026-04-07T06:55:43Z</time></trkpt><trkpt lat="45.51300562857339" lon="9.068631590045866"><ele>144.0</ele><time>2026-04-07T06:55:44Z</time></trkpt><trkpt lat="45.513039989436045" lon="9.068991459418987"><ele>144.0</ele><time>2026-04-07T06:55:45Z</time></trkpt><trkpt lat="45.513072081166456" lon="9.06935214079814"><ele>144.0</ele><time>2026-04-07T06:55:46Z</time></trkpt><trkpt lat="45.51309606395631" lon="9.069714885754568"><ele>144.0</ele><time>2026-04-07T06:55:47Z</time></trkpt><trkpt lat="45.51312141859993" lon="9.0700784695831"><ele>143.5</ele><time>2026-04-07T06:55:48Z</time></trkpt><trkpt lat="45.51314326043957" lon="9.07045029040217"><ele>143.0</ele><time>2026-04-07T06:55:49Z</time></trkpt><trkpt lat="45.51316971668321" lon="9.07082110186722"><ele>142.5</ele><time>2026-04-07T06:55:50Z</time></trkpt><trkpt lat="45.513193355451165" lon="9.071194850207926"><ele>142.0</ele><time>2026-04-07T06:55:51Z</time></trkpt><trkpt lat="45.51322192846296" lon="9.071570513041676"><ele>142.5</ele><time>2026-04-07T06:55:52Z</time></trkpt><trkpt lat="45.51325014081772" lon="9.071940031938471"><ele>143.0</ele><time>2026-04-07T06:55:53Z</time></trkpt><trkpt lat="45.51328284767785" lon="9.07231453904155"><ele>143.0</ele><time>2026-04-07T06:55:54Z</time></trkpt><trkpt lat="45.51331028321189" lon="9.072692540032666"><ele>143.0</ele><time>2026-04-07T06:55:55Z</time></trkpt><trkpt lat="45.51333303095004" lon="9.073066887843728"><ele>143.0</ele><time>2026-04-07T06:55:56Z</time></trkpt><trkpt lat="45.513361033753775" lon="9.073445817919794"><ele>143.0</ele><time>2026-04-07T06:55:57Z</time></trkpt><trkpt lat="45.51339085841138" lon="9.07381419772831"><ele>143.5</ele><time>2026-04-07T06:55:58Z</time></trkpt><trkpt lat="45.513410992721326" lon="9.074194655706744"><ele>144.0</ele><time>2026-04-07T06:55:59Z</time></trkpt><trkpt lat="45.513434229677166" lon="9.074563682134512"><ele>144.0</ele><time>2026-04-07T06:56:00Z</time></trkpt><trkpt lat="45.5134556274871" lon="9.074931595945884"><ele>144.0</ele><time>2026-04-07T06:56:00.999Z</time></trkpt><trkpt lat="45.51347600720157" lon="9.075299789823626"><ele>144.0</ele><time>2026-04-07T06:56:01.999Z</time></trkpt><trkpt lat="45.5134957640519" lon="9.075668334774594"><ele>144.0</ele><time>2026-04-07T06:56:02.999Z</time></trkpt><trkpt lat="45.51350956679957" lon="9.07603409735416"><ele>144.0</ele><time>2026-04-07T06:56:03.999Z</time></trkpt><trkpt lat="45.513522571606316" lon="9.076402809347398"><ele>144.0</ele><time>2026-04-07T06:56:04.999Z</time></trkpt><trkpt lat="45.513541807459525" lon="9.076783305331244"><ele>144.5</ele><time>2026-04-07T06:56:05.999Z</time></trkpt><trkpt lat="45.51356141816904" lon="9.077163896896844"><ele>145.0</ele><time>2026-04-07T06:56:06.999Z</time></trkpt><trkpt lat="45.51358399951852" lon="9.077551947031623"><ele>144.0</ele><time>2026-04-07T06:56:07.999Z</time></trkpt><trkpt lat="45.51360684657046" lon="9.077939329776587"><ele>143.0</ele><time>2026-04-07T06:56:08.999Z</time></trkpt><trkpt lat="45.51362929596196" lon="9.078329832326572"><ele>143.0</ele><time>2026-04-07T06:56:09.999Z</time></trkpt><trkpt lat="45.51365285969674" lon="9.078717998455286"><ele>143.0</ele><time>2026-04-07T06:56:10.999Z</time></trkpt><trkpt lat="45.51367544854918" lon="9.079099900989533"><ele>143.0</ele><time>2026-04-07T06:56:11.999Z</time></trkpt><trkpt lat="45.51369794388059" lon="9.07948024802152"><ele>143.0</ele><time>2026-04-07T06:56:12.999Z</time></trkpt><trkpt lat="45.51371894903142" lon="9.079862282816597"><ele>143.0</ele><time>2026-04-07T06:56:13.999Z</time></trkpt><trkpt lat="45.51373733927372" lon="9.080242015439735"><ele>143.0</ele><time>2026-04-07T06:56:14.999Z</time></trkpt><trkpt lat="45.51375451461438" lon="9.080621067617503"><ele>143.0</ele><time>2026-04-07T06:56:15.999Z</time></trkpt><trkpt lat="45.51377562616395" lon="9.081006734464143"><ele>143.0</ele><time>2026-04-07T06:56:16.999Z</time></trkpt><trkpt lat="45.51378996703976" lon="9.081383263795301"><ele>143.0</ele><time>2026-04-07T06:56:17.999Z</time></trkpt><trkpt lat="45.513811146314474" lon="9.08177952557979"><ele>143.0</ele><time>2026-04-07T06:56:18.999Z</time></trkpt><trkpt lat="45.51382835254692" lon="9.082168003302513"><ele>143.5</ele><time>2026-04-07T06:56:19.999Z</time></trkpt><trkpt lat="45.513840985169935" lon="9.082550116654778"><ele>144.0</ele><time>2026-04-07T06:56:20.999Z</time></trkpt><trkpt lat="45.51386203446445" lon="9.082935736763465"><ele>143.5</ele><time>2026-04-07T06:56:22Z</time></trkpt><trkpt lat="45.513880119294164" lon="9.083317608528768"><ele>143.0</ele><time>2026-04-07T06:56:23Z</time></trkpt><trkpt lat="45.51389786462723" lon="9.083693733203159"><ele>143.0</ele><time>2026-04-07T06:56:24Z</time></trkpt><trkpt lat="45.51391866134088" lon="9.08406964989078"><ele>143.0</ele><time>2026-04-07T06:56:25Z</time></trkpt><trkpt lat="45.513936178213896" lon="9.084443878847239"><ele>143.0</ele><time>2026-04-07T06:56:26Z</time></trkpt><trkpt lat="45.513956664708076" lon="9.084823411720093"><ele>143.0</ele><time>2026-04-07T06:56:27Z</time></trkpt><trkpt lat="45.51397856085832" lon="9.085209143577638"><ele>143.0</ele><time>2026-04-07T06:56:28Z</time></trkpt><trkpt lat="45.513997665374426" lon="9.085600133992786"><ele>143.0</ele><time>2026-04-07T06:56:29Z</time></trkpt><trkpt lat="45.51401524866752" lon="9.085991171079106"><ele>143.5</ele><time>2026-04-07T06:56:30Z</time></trkpt><trkpt lat="45.51403307914267" lon="9.086388746043754"><ele>144.0</ele><time>2026-04-07T06:56:31Z</time></trkpt><trkpt lat="45.5140547731559" lon="9.086798746442573"><ele>144.0</ele><time>2026-04-07T06:56:32Z</time></trkpt><trkpt lat="45.514071355296544" lon="9.08720165569895"><ele>144.0</ele><time>2026-04-07T06:56:33Z</time></trkpt><trkpt lat="45.51408658578198" lon="9.087610517308077"><ele>144.0</ele><time>2026-04-07T06:56:34Z</time></trkpt><trkpt lat="45.51410575802155" lon="9.088030607184379"><ele>144.0</ele><time>2026-04-07T06:56:35Z</time></trkpt><trkpt lat="45.51412406661574" lon="9.088443286661846"><ele>143.0</ele><time>2026-04-07T06:56:36Z</time></trkpt><trkpt lat="45.51414225835136" lon="9.08885819282388"><ele>142.0</ele><time>2026-04-07T06:56:37Z</time></trkpt><trkpt lat="45.514161774346" lon="9.089275631057133"><ele>141.5</ele><time>2026-04-07T06:56:38Z</time></trkpt><trkpt lat="45.51418142167491" lon="9.08969942009266"><ele>141.0</ele><time>2026-04-07T06:56:39Z</time></trkpt><trkpt lat="45.51420032685216" lon="9.090117140476082"><ele>141.0</ele><time>2026-04-07T06:56:40Z</time></trkpt><trkpt lat="45.51421679732608" lon="9.090537060011862"><ele>141.0</ele><time>2026-04-07T06:56:41Z</time></trkpt><trkpt lat="45.514232907226436" lon="9.090956709415956"><ele>141.0</ele><time>2026-04-07T06:56:42Z</time></trkpt><trkpt lat="45.51425102792261" lon="9.09137302507573"><ele>141.0</ele><time>2026-04-07T06:56:43Z</time></trkpt><trkpt lat="45.51426877995307" lon="9.09178930019956"><ele>141.5</ele><time>2026-04-07T06:56:44Z</time></trkpt><trkpt lat="45.514286816875824" lon="9.092206058452012"><ele>142.0</ele><time>2026-04-07T06:56:45Z</time></trkpt><trkpt lat="45.514304238210926" lon="9.092619228082084"><ele>142.0</ele><time>2026-04-07T06:56:46Z</time></trkpt><trkpt lat="45.51432351866173" lon="9.093033291075372"><ele>142.0</ele><time>2026-04-07T06:56:47Z</time></trkpt><trkpt lat="45.51434151943399" lon="9.093446168527233"><ele>142.0</ele><time>2026-04-07T06:56:48Z</time></trkpt><trkpt lat="45.51436112181935" lon="9.093858102534082"><ele>142.0</ele><time>2026-04-07T06:56:49Z</time></trkpt><trkpt lat="45.51438235681076" lon="9.09427120017672"><ele>142.5</ele><time>2026-04-07T06:56:50Z</time></trkpt><trkpt lat="45.514402641896986" lon="9.094680455234686"><ele>143.0</ele><time>2026-04-07T06:56:51Z</time></trkpt><trkpt lat="45.51442106408881" lon="9.095091241944315"><ele>142.5</ele><time>2026-04-07T06:56:52Z</time></trkpt><trkpt lat="45.5144391944136" lon="9.095508477238322"><ele>142.0</ele><time>2026-04-07T06:56:53Z</time></trkpt><trkpt lat="45.51445706558475" lon="9.095916126437025"><ele>142.0</ele><time>2026-04-07T06:56:54Z</time></trkpt><trkpt lat="45.51447576290749" lon="9.096317353644675"><ele>142.0</ele><time>2026-04-07T06:56:55Z</time></trkpt><trkpt lat="45.51449473572578" lon="9.096724365618064"><ele>142.0</ele><time>2026-04-07T06:56:56Z</time></trkpt><trkpt lat="45.51451299634473" lon="9.09712962253578"><ele>142.0</ele><time>2026-04-07T06:56:57Z</time></trkpt><trkpt lat="45.514529414971754" lon="9.097533627459823"><ele>142.0</ele><time>2026-04-07T06:56:58Z</time></trkpt><trkpt lat="45.51454756840413" lon="9.09793899277935"><ele>142.0</ele><time>2026-04-07T06:56:59Z</time></trkpt><trkpt lat="45.514564834328844" lon="9.098347251679325"><ele>142.5</ele><time>2026-04-07T06:57:00Z</time></trkpt><trkpt lat="45.5145815642303" lon="9.098756703505646"><ele>143.0</ele><time>2026-04-07T06:57:01Z</time></trkpt><trkpt lat="45.514599013294344" lon="9.099159787542359"><ele>143.0</ele><time>2026-04-07T06:57:02Z</time></trkpt><trkpt lat="45.51461905971938" lon="9.099559439691921"><ele>143.0</ele><time>2026-04-07T06:57:03Z</time></trkpt><trkpt lat="45.51463916834395" lon="9.099963814517471"><ele>142.5</ele><time>2026-04-07T06:57:04Z</time></trkpt><trkpt lat="45.51466074304675" lon="9.100370117854544"><ele>142.0</ele><time>2026-04-07T06:57:05Z</time></trkpt><trkpt lat="45.5146841577991" lon="9.100776967709946"><ele>142.0</ele><time>2026-04-07T06:57:06Z</time></trkpt><trkpt lat="45.51470835578276" lon="9.10118494756984"><ele>142.0</ele><time>2026-04-07T06:57:07Z</time></trkpt><trkpt lat="45.514730807679975" lon="9.101590698749943"><ele>141.5</ele><time>2026-04-07T06:57:08Z</time></trkpt><trkpt lat="45.5147518621501" lon="9.101999786837231"><ele>141.0</ele><time>2026-04-07T06:57:09Z</time></trkpt><trkpt lat="45.5147705233743" lon="9.102411813966315"><ele>142.0</ele><time>2026-04-07T06:57:10Z</time></trkpt><trkpt lat="45.51478839436782" lon="9.10281571931403"><ele>143.0</ele><time>2026-04-07T06:57:11Z</time></trkpt><trkpt lat="45.51480806568038" lon="9.103221718487235"><ele>143.5</ele><time>2026-04-07T06:57:12Z</time></trkpt><trkpt lat="45.51482755970067" lon="9.103631469092683"><ele>144.0</ele><time>2026-04-07T06:57:13Z</time></trkpt><trkpt lat="45.514846207861154" lon="9.104037413460453"><ele>143.0</ele><time>2026-04-07T06:57:14Z</time></trkpt><trkpt lat="45.51486493470781" lon="9.104434443912512"><ele>142.0</ele><time>2026-04-07T06:57:15Z</time></trkpt><trkpt lat="45.514884769457204" lon="9.104849751368992"><ele>141.5</ele><time>2026-04-07T06:57:16Z</time></trkpt><trkpt lat="45.51490134830331" lon="9.105256392431032"><ele>141.0</ele><time>2026-04-07T06:57:17Z</time></trkpt><trkpt lat="45.51491802922882" lon="9.105666111880046"><ele>140.5</ele><time>2026-04-07T06:57:18Z</time></trkpt><trkpt lat="45.51493287258093" lon="9.106062343944334"><ele>140.0</ele><time>2026-04-07T06:57:19Z</time></trkpt><trkpt lat="45.51495178639128" lon="9.106460899156033"><ele>141.5</ele><time>2026-04-07T06:57:20Z</time></trkpt><trkpt lat="45.5149720167889" lon="9.10686182598125"><ele>143.0</ele><time>2026-04-07T06:57:21Z</time></trkpt><trkpt lat="45.51498957819901" lon="9.107260349433213"><ele>142.5</ele><time>2026-04-07T06:57:22Z</time></trkpt><trkpt lat="45.51500665954065" lon="9.10765317445979"><ele>142.0</ele><time>2026-04-07T06:57:23Z</time></trkpt><trkpt lat="45.515030007278355" lon="9.108058581372577"><ele>142.0</ele><time>2026-04-07T06:57:24Z</time></trkpt><trkpt lat="45.515054317873506" lon="9.108454262719745"><ele>142.0</ele><time>2026-04-07T06:57:25Z</time></trkpt><trkpt lat="45.51508278358475" lon="9.108855355247579"><ele>141.5</ele><time>2026-04-07T06:57:26Z</time></trkpt><trkpt lat="45.51510751150666" lon="9.109255365913665"><ele>141.0</ele><time>2026-04-07T06:57:27Z</time></trkpt><trkpt lat="45.51512796455144" lon="9.109660388586416"><ele>142.0</ele><time>2026-04-07T06:57:28Z</time></trkpt><trkpt lat="45.515147199625716" lon="9.110068107652687"><ele>143.0</ele><time>2026-04-07T06:57:29Z</time></trkpt><trkpt lat="45.51516517883054" lon="9.110474644884212"><ele>142.5</ele><time>2026-04-07T06:57:30Z</time></trkpt><trkpt lat="45.51518322159243" lon="9.110883369343572"><ele>142.0</ele><time>2026-04-07T06:57:31Z</time></trkpt><trkpt lat="45.515201806719844" lon="9.11129105218068"><ele>139.5</ele><time>2026-04-07T06:57:32Z</time></trkpt><trkpt lat="45.515223316658684" lon="9.111701147488576"><ele>137.0</ele><time>2026-04-07T06:57:33Z</time></trkpt><trkpt lat="45.51524491125676" lon="9.112110922256345"><ele>137.5</ele><time>2026-04-07T06:57:34Z</time></trkpt><trkpt lat="45.51526633237837" lon="9.112521076328171"><ele>138.0</ele><time>2026-04-07T06:57:35Z</time></trkpt><trkpt lat="45.51528282578954" lon="9.11292631314655"><ele>137.5</ele><time>2026-04-07T06:57:36Z</time></trkpt><trkpt lat="45.51529946095488" lon="9.113330619592473"><ele>137.0</ele><time>2026-04-07T06:57:37Z</time></trkpt><trkpt lat="45.51531405056628" lon="9.113744235429639"><ele>137.5</ele><time>2026-04-07T06:57:38Z</time></trkpt><trkpt lat="45.515335650493434" lon="9.114141518430054"><ele>138.0</ele><time>2026-04-07T06:57:39Z</time></trkpt><trkpt lat="45.5153515487723" lon="9.114535494311543"><ele>138.0</ele><time>2026-04-07T06:57:40Z</time></trkpt><trkpt lat="45.515369560808224" lon="9.114928442575046"><ele>138.0</ele><time>2026-04-07T06:57:41Z</time></trkpt><trkpt lat="45.515387025168636" lon="9.115327389761555"><ele>137.0</ele><time>2026-04-07T06:57:42Z</time></trkpt><trkpt lat="45.51540419653459" lon="9.115727127740266"><ele>136.0</ele><time>2026-04-07T06:57:43Z</time></trkpt><trkpt lat="45.51542150255845" lon="9.116126182668301"><ele>136.0</ele><time>2026-04-07T06:57:44Z</time></trkpt><trkpt lat="45.515438869846434" lon="9.116529097674263"><ele>136.0</ele><time>2026-04-07T06:57:45Z</time></trkpt><trkpt lat="45.51545531128049" lon="9.116932481301482"><ele>136.0</ele><time>2026-04-07T06:57:46Z</time></trkpt><trkpt lat="45.5154729716128" lon="9.117332910032195"><ele>136.0</ele><time>2026-04-07T06:57:47Z</time></trkpt><trkpt lat="45.515492563137" lon="9.11774049196395"><ele>136.5</ele><time>2026-04-07T06:57:48Z</time></trkpt><trkpt lat="45.5155061672251" lon="9.11811546608584"><ele>137.0</ele><time>2026-04-07T06:57:49Z</time></trkpt><trkpt lat="45.515523810471954" lon="9.118486362983559"><ele>137.0</ele><time>2026-04-07T06:57:50Z</time></trkpt><trkpt lat="45.51553991441422" lon="9.118842324908288"><ele>137.0</ele><time>2026-04-07T06:57:51Z</time></trkpt><trkpt lat="45.51555381153613" lon="9.119183402080129"><ele>138.5</ele><time>2026-04-07T06:57:52Z</time></trkpt><trkpt lat="45.51556656176627" lon="9.119536722361364"><ele>140.0</ele><time>2026-04-07T06:57:53Z</time></trkpt><trkpt lat="45.51558080457081" lon="9.119880829493413"><ele>140.0</ele><time>2026-04-07T06:57:54Z</time></trkpt><trkpt lat="45.51560264622813" lon="9.120212932720039"><ele>140.0</ele><time>2026-04-07T06:57:55Z</time></trkpt><trkpt lat="45.51564350608153" lon="9.120565780759964"><ele>138.5</ele><time>2026-04-07T06:57:56Z</time></trkpt><trkpt lat="45.51570174349392" lon="9.120916853092284"><ele>137.0</ele><time>2026-04-07T06:57:57Z</time></trkpt><trkpt lat="45.51577672688556" lon="9.121276873431881"><ele>138.0</ele><time>2026-04-07T06:57:58Z</time></trkpt><trkpt lat="45.51588363682098" lon="9.121629377633143"><ele>139.0</ele><time>2026-04-07T06:57:59Z</time></trkpt><trkpt lat="45.515988853620776" lon="9.121949760378865"><ele>139.0</ele><time>2026-04-07T06:57:59.999Z</time></trkpt><trkpt lat="45.51609752519764" lon="9.122234366822317"><ele>139.0</ele><time>2026-04-07T06:58:00.999Z</time></trkpt><trkpt lat="45.51620826516984" lon="9.122504482403325"><ele>139.0</ele><time>2026-04-07T06:58:01.999Z</time></trkpt><trkpt lat="45.51632433140161" lon="9.12277703741144"><ele>139.0</ele><time>2026-04-07T06:58:02.999Z</time></trkpt><trkpt lat="45.51644175653905" lon="9.123049587229323"><ele>139.0</ele><time>2026-04-07T06:58:03.999Z</time></trkpt><trkpt lat="45.5165630748184" lon="9.123301516718156"><ele>139.0</ele><time>2026-04-07T06:58:04.999Z</time></trkpt><trkpt lat="45.51669810657323" lon="9.123559603025205"><ele>138.5</ele><time>2026-04-07T06:58:05.999Z</time></trkpt><trkpt lat="45.51685083208229" lon="9.123816391884068"><ele>138.0</ele><time>2026-04-07T06:58:06.999Z</time></trkpt><trkpt lat="45.5170148862803" lon="9.12407184989952"><ele>138.5</ele><time>2026-04-07T06:58:07.999Z</time></trkpt><trkpt lat="45.51719282069631" lon="9.124331805657134"><ele>139.0</ele><time>2026-04-07T06:58:08.999Z</time></trkpt><trkpt lat="45.517370278283664" lon="9.124589923574728"><ele>139.0</ele><time>2026-04-07T06:58:09.999Z</time></trkpt><trkpt lat="45.51753965837837" lon="9.124842306043886"><ele>139.0</ele><time>2026-04-07T06:58:10.999Z</time></trkpt><trkpt lat="45.51770707317771" lon="9.125098564395854"><ele>139.0</ele><time>2026-04-07T06:58:11.999Z</time></trkpt><trkpt lat="45.517879309796776" lon="9.125365760570336"><ele>139.0</ele><time>2026-04-07T06:58:12.999Z</time></trkpt><trkpt lat="45.518045707726294" lon="9.125638551992683"><ele>140.0</ele><time>2026-04-07T06:58:13.999Z</time></trkpt><trkpt lat="45.51821529644646" lon="9.125908917957085"><ele>141.0</ele><time>2026-04-07T06:58:14.999Z</time></trkpt><trkpt lat="45.518396661468486" lon="9.12617607462147"><ele>141.0</ele><time>2026-04-07T06:58:15.999Z</time></trkpt><trkpt lat="45.51856111063666" lon="9.12643993937605"><ele>141.0</ele><time>2026-04-07T06:58:16.999Z</time></trkpt><trkpt lat="45.518725107373584" lon="9.126727962090332"><ele>141.5</ele><time>2026-04-07T06:58:17.999Z</time></trkpt><trkpt lat="45.518880690480934" lon="9.127012781927268"><ele>142.0</ele><time>2026-04-07T06:58:18.999Z</time></trkpt><trkpt lat="45.51902118542476" lon="9.12728466187322"><ele>141.5</ele><time>2026-04-07T06:58:19.999Z</time></trkpt><trkpt lat="45.519168445348434" lon="9.127578635904472"><ele>141.0</ele><time>2026-04-07T06:58:20.999Z</time></trkpt><trkpt lat="45.51931902018543" lon="9.127881384512001"><ele>141.0</ele><time>2026-04-07T06:58:21.999Z</time></trkpt><trkpt lat="45.51947093088431" lon="9.128187900249204"><ele>141.0</ele><time>2026-04-07T06:58:22.999Z</time></trkpt><trkpt lat="45.519625935780375" lon="9.128503800313014"><ele>140.5</ele><time>2026-04-07T06:58:23.999Z</time></trkpt><trkpt lat="45.51978190042776" lon="9.128821935728078"><ele>140.0</ele><time>2026-04-07T06:58:24.999Z</time></trkpt><trkpt lat="45.51992213571134" lon="9.129094871417523"><ele>140.0</ele><time>2026-04-07T06:58:25.999Z</time></trkpt><trkpt lat="45.52007595397851" lon="9.129405140600289"><ele>140.0</ele><time>2026-04-07T06:58:26.999Z</time></trkpt><trkpt lat="45.52022680671351" lon="9.129721199881317"><ele>140.5</ele><time>2026-04-07T06:58:28Z</time></trkpt><trkpt lat="45.520380496350555" lon="9.130040704136754"><ele>141.0</ele><time>2026-04-07T06:58:29Z</time></trkpt><trkpt lat="45.52052903905297" lon="9.130362972032607"><ele>141.0</ele><time>2026-04-07T06:58:30Z</time></trkpt><trkpt lat="45.520672653783336" lon="9.13066861366168"><ele>141.0</ele><time>2026-04-07T06:58:31Z</time></trkpt><trkpt lat="45.52080350273981" lon="9.130957509070544"><ele>141.5</ele><time>2026-04-07T06:58:32Z</time></trkpt><trkpt lat="45.520944763696825" lon="9.13124604720621"><ele>142.0</ele><time>2026-04-07T06:58:33Z</time></trkpt><trkpt lat="45.521079060171495" lon="9.131533538054873"><ele>142.5</ele><time>2026-04-07T06:58:34Z</time></trkpt><trkpt lat="45.52120715260135" lon="9.131810065640217"><ele>143.0</ele><time>2026-04-07T06:58:35Z</time></trkpt><trkpt lat="45.52133689417379" lon="9.132072064175734"><ele>142.0</ele><time>2026-04-07T06:58:36Z</time></trkpt><trkpt lat="45.521453094890965" lon="9.132313374979077"><ele>141.0</ele><time>2026-04-07T06:58:37Z</time></trkpt><trkpt lat="45.52157146130087" lon="9.13255034794856"><ele>140.0</ele><time>2026-04-07T06:58:38Z</time></trkpt><trkpt lat="45.52169074153897" lon="9.13279674743323"><ele>140.0</ele><time>2026-04-07T06:58:39Z</time></trkpt><trkpt lat="45.52180634548925" lon="9.133031807578467"><ele>140.0</ele><time>2026-04-07T06:58:40Z</time></trkpt><trkpt lat="45.521921173594606" lon="9.133262272624291"><ele>140.0</ele><time>2026-04-07T06:58:41Z</time></trkpt><trkpt lat="45.52203405570076" lon="9.133507547081338"><ele>140.0</ele><time>2026-04-07T06:58:42Z</time></trkpt><trkpt lat="45.522158725094194" lon="9.133745552507532"><ele>140.0</ele><time>2026-04-07T06:58:43Z</time></trkpt><trkpt lat="45.52228178188881" lon="9.133983124230987"><ele>140.0</ele><time>2026-04-07T06:58:44Z</time></trkpt><trkpt lat="45.52240587076548" lon="9.134230692745302"><ele>141.5</ele><time>2026-04-07T06:58:45Z</time></trkpt><trkpt lat="45.5225413949004" lon="9.13449945127222"><ele>143.0</ele><time>2026-04-07T06:58:46Z</time></trkpt><trkpt lat="45.522674777375435" lon="9.13478075290299"><ele>143.0</ele><time>2026-04-07T06:58:47Z</time></trkpt><trkpt lat="45.52280685678643" lon="9.135055952792213"><ele>143.0</ele><time>2026-04-07T06:58:48Z</time></trkpt><trkpt lat="45.52294451288364" lon="9.135353399718964"><ele>143.0</ele><time>2026-04-07T06:58:49Z</time></trkpt><trkpt lat="45.52307529728845" lon="9.135635622000265"><ele>143.0</ele><time>2026-04-07T06:58:50Z</time></trkpt><trkpt lat="45.523207440110035" lon="9.135913307820628"><ele>142.5</ele><time>2026-04-07T06:58:51Z</time></trkpt><trkpt lat="45.5233423696971" lon="9.136198943265388"><ele>142.0</ele><time>2026-04-07T06:58:52Z</time></trkpt><trkpt lat="45.52348576360408" lon="9.136516140747903"><ele>142.0</ele><time>2026-04-07T06:58:53Z</time></trkpt><trkpt lat="45.52364332412304" lon="9.136857531809234"><ele>142.0</ele><time>2026-04-07T06:58:54Z</time></trkpt><trkpt lat="45.52379791563288" lon="9.137184887952134"><ele>142.0</ele><time>2026-04-07T06:58:55Z</time></trkpt><trkpt lat="45.523963279137384" lon="9.13751603494484"><ele>142.0</ele><time>2026-04-07T06:58:56Z</time></trkpt><trkpt lat="45.52413701038496" lon="9.137847236581432"><ele>142.0</ele><time>2026-04-07T06:58:57Z</time></trkpt><trkpt lat="45.524299576183246" lon="9.138173080461023"><ele>142.0</ele><time>2026-04-07T06:58:58Z</time></trkpt><trkpt lat="45.524457700916614" lon="9.13850320264904"><ele>142.5</ele><time>2026-04-07T06:58:59Z</time></trkpt><trkpt lat="45.52461029081604" lon="9.138824844688598"><ele>143.0</ele><time>2026-04-07T06:59:00Z</time></trkpt><trkpt lat="45.52475844610866" lon="9.139133009416234"><ele>143.0</ele><time>2026-04-07T06:59:01Z</time></trkpt><trkpt lat="45.52490356672978" lon="9.139436452759245"><ele>143.0</ele><time>2026-04-07T06:59:02Z</time></trkpt><trkpt lat="45.52505482650423" lon="9.13975366853262"><ele>143.5</ele><time>2026-04-07T06:59:03Z</time></trkpt><trkpt lat="45.52521115200654" lon="9.140078184929461"><ele>144.0</ele><time>2026-04-07T06:59:04Z</time></trkpt><trkpt lat="45.525378176726" lon="9.140413051949297"><ele>145.5</ele><time>2026-04-07T06:59:05Z</time></trkpt><trkpt lat="45.52553566107786" lon="9.140732640420646"><ele>147.0</ele><time>2026-04-07T06:59:06Z</time></trkpt><trkpt lat="45.5257020564436" lon="9.141072514426138"><ele>147.0</ele><time>2026-04-07T06:59:07Z</time></trkpt><trkpt lat="45.52586575199439" lon="9.141410843848922"><ele>147.0</ele><time>2026-04-07T06:59:08Z</time></trkpt><trkpt lat="45.526034974929594" lon="9.141756393826453"><ele>145.5</ele><time>2026-04-07T06:59:09Z</time></trkpt><trkpt lat="45.526202560683764" lon="9.142097894694189"><ele>144.0</ele><time>2026-04-07T06:59:10Z</time></trkpt><trkpt lat="45.52636775922659" lon="9.142438028752125"><ele>144.0</ele><time>2026-04-07T06:59:11Z</time></trkpt><trkpt lat="45.52653400361191" lon="9.14278039248621"><ele>144.0</ele><time>2026-04-07T06:59:12Z</time></trkpt><trkpt lat="45.52670192947919" lon="9.143126891191038"><ele>143.0</ele><time>2026-04-07T06:59:13Z</time></trkpt><trkpt lat="45.52686905266673" lon="9.143475595644283"><ele>142.0</ele><time>2026-04-07T06:59:14Z</time></trkpt><trkpt lat="45.52703132868836" lon="9.14382238222031"><ele>142.5</ele><time>2026-04-07T06:59:15Z</time></trkpt><trkpt lat="45.5271964575391" lon="9.144169769088132"><ele>143.0</ele><time>2026-04-07T06:59:16Z</time></trkpt><trkpt lat="45.52736380896333" lon="9.144517871317964"><ele>143.0</ele><time>2026-04-07T06:59:17Z</time></trkpt><trkpt lat="45.527526793685674" lon="9.144858779023782"><ele>143.0</ele><time>2026-04-07T06:59:18Z</time></trkpt><trkpt lat="45.52769472117518" lon="9.145204887418657"><ele>143.0</ele><time>2026-04-07T06:59:19Z</time></trkpt><trkpt lat="45.52786013576265" lon="9.145548556327231"><ele>143.0</ele><time>2026-04-07T06:59:20Z</time></trkpt><trkpt lat="45.52801881291571" lon="9.145891777453869"><ele>143.0</ele><time>2026-04-07T06:59:21Z</time></trkpt><trkpt lat="45.528176282934844" lon="9.146236249461008"><ele>143.0</ele><time>2026-04-07T06:59:22Z</time></trkpt><trkpt lat="45.52833212860773" lon="9.146578995275673"><ele>143.0</ele><time>2026-04-07T06:59:23Z</time></trkpt><trkpt lat="45.52849061192276" lon="9.146920990048114"><ele>143.0</ele><time>2026-04-07T06:59:24Z</time></trkpt><trkpt lat="45.52865090317175" lon="9.147263334106706"><ele>143.0</ele><time>2026-04-07T06:59:25Z</time></trkpt><trkpt lat="45.52881104597736" lon="9.147595031488066"><ele>143.0</ele><time>2026-04-07T06:59:26Z</time></trkpt><trkpt lat="45.528971624046335" lon="9.147935611696717"><ele>143.0</ele><time>2026-04-07T06:59:27Z</time></trkpt><trkpt lat="45.52913373552045" lon="9.148269967058337"><ele>143.0</ele><time>2026-04-07T06:59:28Z</time></trkpt><trkpt lat="45.52929415601521" lon="9.148601536608213"><ele>143.0</ele><time>2026-04-07T06:59:29Z</time></trkpt><trkpt lat="45.52946102912558" lon="9.148940411956138"><ele>143.0</ele><time>2026-04-07T06:59:30Z</time></trkpt><trkpt lat="45.52962645948436" lon="9.14927488572308"><ele>143.0</ele><time>2026-04-07T06:59:31Z</time></trkpt><trkpt lat="45.52979306171636" lon="9.149609067208335"><ele>143.0</ele><time>2026-04-07T06:59:32Z</time></trkpt><trkpt lat="45.52996171645877" lon="9.149948359582101"><ele>143.0</ele><time>2026-04-07T06:59:33Z</time></trkpt><trkpt lat="45.5301285159582" lon="9.150294038055893"><ele>143.0</ele><time>2026-04-07T06:59:34Z</time></trkpt><trkpt lat="45.53029514312267" lon="9.15063899238657"><ele>144.0</ele><time>2026-04-07T06:59:35Z</time></trkpt><trkpt lat="45.53046379163231" lon="9.15098117621124"><ele>145.0</ele><time>2026-04-07T06:59:36Z</time></trkpt><trkpt lat="45.53063039108566" lon="9.151317100593717"><ele>145.0</ele><time>2026-04-07T06:59:37Z</time></trkpt><trkpt lat="45.530795148116304" lon="9.151654548566936"><ele>145.0</ele><time>2026-04-07T06:59:38Z</time></trkpt><trkpt lat="45.530960641765866" lon="9.151980819725157"><ele>145.0</ele><time>2026-04-07T06:59:39Z</time></trkpt><trkpt lat="45.531130019828076" lon="9.1523257842233"><ele>145.0</ele><time>2026-04-07T06:59:40Z</time></trkpt><trkpt lat="45.53129301426891" lon="9.152662417920846"><ele>145.0</ele><time>2026-04-07T06:59:41Z</time></trkpt><trkpt lat="45.531458228092106" lon="9.153003827033835"><ele>145.0</ele><time>2026-04-07T06:59:42Z</time></trkpt><trkpt lat="45.531620392622564" lon="9.153341846971983"><ele>144.5</ele><time>2026-04-07T06:59:43Z</time></trkpt><trkpt lat="45.53178414456206" lon="9.153684775930659"><ele>144.0</ele><time>2026-04-07T06:59:44Z</time></trkpt><trkpt lat="45.531944389379944" lon="9.154023082340467"><ele>145.5</ele><time>2026-04-07T06:59:45Z</time></trkpt><trkpt lat="45.53210575794439" lon="9.154364995756316"><ele>147.0</ele><time>2026-04-07T06:59:46Z</time></trkpt><trkpt lat="45.53226753037667" lon="9.154704629703351"><ele>147.5</ele><time>2026-04-07T06:59:47Z</time></trkpt><trkpt lat="45.532432276828416" lon="9.15504436367688"><ele>148.0</ele><time>2026-04-07T06:59:48Z</time></trkpt><trkpt lat="45.53259824048045" lon="9.155387612911465"><ele>147.5</ele><time>2026-04-07T06:59:49Z</time></trkpt><trkpt lat="45.53276131389544" lon="9.155719744314988"><ele>147.0</ele><time>2026-04-07T06:59:50Z</time></trkpt><trkpt lat="45.53293132487005" lon="9.15606042871509"><ele>147.0</ele><time>2026-04-07T06:59:51Z</time></trkpt><trkpt lat="45.53310146049342" lon="9.156397998563056"><ele>147.0</ele><time>2026-04-07T06:59:52Z</time></trkpt><trkpt lat="45.53326847130766" lon="9.156736031119596"><ele>147.0</ele><time>2026-04-07T06:59:53Z</time></trkpt><trkpt lat="45.53343490477472" lon="9.157068318119995"><ele>147.0</ele><time>2026-04-07T06:59:54Z</time></trkpt><trkpt lat="45.53358934650331" lon="9.157395843090255"><ele>147.5</ele><time>2026-04-07T06:59:55Z</time></trkpt><trkpt lat="45.53373438702054" lon="9.157695964819872"><ele>148.0</ele><time>2026-04-07T06:59:56Z</time></trkpt><trkpt lat="45.53388130644719" lon="9.158002240621725"><ele>147.0</ele><time>2026-04-07T06:59:57Z</time></trkpt><trkpt lat="45.53402072462825" lon="9.158303655340022"><ele>146.0</ele><time>2026-04-07T06:59:58Z</time></trkpt><trkpt lat="45.534173073583815" lon="9.158619712963988"><ele>146.0</ele><time>2026-04-07T06:59:59Z</time></trkpt><trkpt lat="45.534323127181224" lon="9.158935801334373"><ele>146.0</ele><time>2026-04-07T07:00:00Z</time></trkpt><trkpt lat="45.53445954196169" lon="9.159229701707439"><ele>147.0</ele><time>2026-04-07T07:00:01Z</time></trkpt><trkpt lat="45.53459628020714" lon="9.159509359523419"><ele>148.0</ele><time>2026-04-07T07:00:02Z</time></trkpt><trkpt lat="45.53472971467801" lon="9.159784102731724"><ele>148.0</ele><time>2026-04-07T07:00:03Z</time></trkpt><trkpt lat="45.534858873102664" lon="9.160057286086927"><ele>148.0</ele><time>2026-04-07T07:00:04Z</time></trkpt><trkpt lat="45.535001873623706" lon="9.160356748962279"><ele>148.0</ele><time>2026-04-07T07:00:05Z</time></trkpt><trkpt lat="45.535147211337026" lon="9.16065854367106"><ele>148.0</ele><time>2026-04-07T07:00:05.999Z</time></trkpt><trkpt lat="45.535296505056685" lon="9.160974603000156"><ele>147.0</ele><time>2026-04-07T07:00:06.999Z</time></trkpt><trkpt lat="45.53544802083249" lon="9.161310080958655"><ele>146.0</ele><time>2026-04-07T07:00:07.999Z</time></trkpt><trkpt lat="45.535605637649184" lon="9.161643553901987"><ele>146.0</ele><time>2026-04-07T07:00:08.999Z</time></trkpt><trkpt lat="45.535762421168165" lon="9.161967303601447"><ele>146.0</ele><time>2026-04-07T07:00:09.999Z</time></trkpt><trkpt lat="45.53591932900201" lon="9.162287508654428"><ele>146.0</ele><time>2026-04-07T07:00:10.999Z</time></trkpt><trkpt lat="45.53607794827246" lon="9.162612853832663"><ele>146.0</ele><time>2026-04-07T07:00:11.999Z</time></trkpt><trkpt lat="45.536230678026925" lon="9.162932412474131"><ele>146.5</ele><time>2026-04-07T07:00:12.999Z</time></trkpt><trkpt lat="45.536380740485036" lon="9.163246136512537"><ele>147.0</ele><time>2026-04-07T07:00:13.999Z</time></trkpt><trkpt lat="45.5365329122865" lon="9.16356056176033"><ele>147.0</ele><time>2026-04-07T07:00:14.999Z</time></trkpt><trkpt lat="45.53667218952362" lon="9.163854332564563"><ele>147.0</ele><time>2026-04-07T07:00:15.999Z</time></trkpt><trkpt lat="45.536816305902384" lon="9.16415264918516"><ele>146.5</ele><time>2026-04-07T07:00:16.999Z</time></trkpt><trkpt lat="45.53696245625697" lon="9.164463599056475"><ele>146.0</ele><time>2026-04-07T07:00:17.999Z</time></trkpt><trkpt lat="45.537122150206585" lon="9.164793440423196"><ele>146.5</ele><time>2026-04-07T07:00:18.999Z</time></trkpt><trkpt lat="45.53728528971207" lon="9.165128061965877"><ele>147.0</ele><time>2026-04-07T07:00:19.999Z</time></trkpt><trkpt lat="45.537462697151035" lon="9.165464103424442"><ele>146.5</ele><time>2026-04-07T07:00:20.999Z</time></trkpt><trkpt lat="45.537635491407606" lon="9.165801730871415"><ele>146.0</ele><time>2026-04-07T07:00:21.999Z</time></trkpt><trkpt lat="45.537799717934355" lon="9.166140468245127"><ele>147.0</ele><time>2026-04-07T07:00:22.999Z</time></trkpt><trkpt lat="45.537964057938254" lon="9.166482055740108"><ele>148.0</ele><time>2026-04-07T07:00:23.999Z</time></trkpt><trkpt lat="45.53812231135172" lon="9.166825741350356"><ele>149.0</ele><time>2026-04-07T07:00:24.999Z</time></trkpt><trkpt lat="45.53827435271259" lon="9.167174095137472"><ele>150.0</ele><time>2026-04-07T07:00:25.999Z</time></trkpt><trkpt lat="45.53842038616494" lon="9.167526162358888"><ele>150.5</ele><time>2026-04-07T07:00:26.999Z</time></trkpt><trkpt lat="45.538559820606366" lon="9.167874325592457"><ele>151.0</ele><time>2026-04-07T07:00:27.999Z</time></trkpt><trkpt lat="45.53870339753284" lon="9.16823533987912"><ele>150.5</ele><time>2026-04-07T07:00:28.999Z</time></trkpt><trkpt lat="45.53884720684582" lon="9.168598615050684"><ele>150.0</ele><time>2026-04-07T07:00:29.999Z</time></trkpt><trkpt lat="45.53899646882193" lon="9.168951093464129"><ele>149.0</ele><time>2026-04-07T07:00:30.999Z</time></trkpt><trkpt lat="45.539146364183715" lon="9.169304377882002"><ele>148.0</ele><time>2026-04-07T07:00:31.999Z</time></trkpt><trkpt lat="45.53929282309696" lon="9.169658332589464"><ele>148.0</ele><time>2026-04-07T07:00:32.999Z</time></trkpt><trkpt lat="45.539434596018616" lon="9.170012176050877"><ele>148.0</ele><time>2026-04-07T07:00:34Z</time></trkpt><trkpt lat="45.53957165526734" lon="9.170358980015418"><ele>148.5</ele><time>2026-04-07T07:00:35Z</time></trkpt><trkpt lat="45.53970768107096" lon="9.17071041166178"><ele>149.0</ele><time>2026-04-07T07:00:36Z</time></trkpt><trkpt lat="45.539841837947925" lon="9.171064974277717"><ele>149.0</ele><time>2026-04-07T07:00:37Z</time></trkpt><trkpt lat="45.53997237814035" lon="9.171422203939017"><ele>149.0</ele><time>2026-04-07T07:00:38Z</time></trkpt><trkpt lat="45.540099996675934" lon="9.171779180232337"><ele>149.0</ele><time>2026-04-07T07:00:39Z</time></trkpt><trkpt lat="45.54022551734832" lon="9.172131819222827"><ele>149.0</ele><time>2026-04-07T07:00:40Z</time></trkpt><trkpt lat="45.540350417453496" lon="9.172482973544387"><ele>149.0</ele><time>2026-04-07T07:00:41Z</time></trkpt><trkpt lat="45.54046732500498" lon="9.17282173586454"><ele>149.0</ele><time>2026-04-07T07:00:42Z</time></trkpt><trkpt lat="45.540571377880866" lon="9.173128626005358"><ele>149.33333333333331</ele><time>2026-04-07T07:00:43Z</time></trkpt><trkpt lat="45.54066809990373" lon="9.173419308888162"><ele>149.66666666666666</ele><time>2026-04-07T07:00:44Z</time></trkpt><trkpt lat="45.54075719363765" lon="9.173696316614484"><ele>150.0</ele><time>2026-04-07T07:00:45Z</time></trkpt><trkpt lat="45.54083981784185" lon="9.17395875025421"><ele>149.66666666666666</ele><time>2026-04-07T07:00:46Z</time></trkpt><trkpt lat="45.54092141577273" lon="9.174221383008721"><ele>149.33333333333331</ele><time>2026-04-07T07:00:47Z</time></trkpt><trkpt lat="45.54100858332196" lon="9.174493967378469"><ele>149.0</ele><time>2026-04-07T07:00:48Z</time></trkpt><trkpt lat="45.541099234378215" lon="9.1747844718369"><ele>148.66666666666666</ele><time>2026-04-07T07:00:49Z</time></trkpt><trkpt lat="45.54118733629578" lon="9.175081618554703"><ele>148.33333333333334</ele><time>2026-04-07T07:00:50Z</time></trkpt><trkpt lat="45.54126891900078" lon="9.17536403200711"><ele>148.0</ele><time>2026-04-07T07:00:51Z</time></trkpt><trkpt lat="45.541345952016094" lon="9.175632183304327"><ele>148.33333333333334</ele><time>2026-04-07T07:00:52Z</time></trkpt><trkpt lat="45.54141405393195" lon="9.175886144057792"><ele>148.66666666666666</ele><time>2026-04-07T07:00:53Z</time></trkpt><trkpt lat="45.541482066173685" lon="9.176156034198925"><ele>149.0</ele><time>2026-04-07T07:00:54Z</time></trkpt><trkpt lat="45.54155336518431" lon="9.176431372284327"><ele>149.0</ele><time>2026-04-07T07:00:55Z</time></trkpt><trkpt lat="45.541630118356395" lon="9.17671349921368"><ele>149.0</ele><time>2026-04-07T07:00:56Z</time></trkpt><trkpt lat="45.54171228595752" lon="9.177010047969505"><ele>149.0</ele><time>2026-04-07T07:00:57Z</time></trkpt><trkpt lat="45.54180167897012" lon="9.177314056016066"><ele>148.5</ele><time>2026-04-07T07:00:58Z</time></trkpt><trkpt lat="45.54188796849411" lon="9.177622325855468"><ele>148.0</ele><time>2026-04-07T07:00:59Z</time></trkpt><trkpt lat="45.5419712591084" lon="9.1779084613875"><ele>148.0</ele><time>2026-04-07T07:01:00Z</time></trkpt><trkpt lat="45.54204807713735" lon="9.17817175537223"><ele>148.0</ele><time>2026-04-07T07:01:01Z</time></trkpt><trkpt lat="45.542120354775165" lon="9.178422212321465"><ele>148.0</ele><time>2026-04-07T07:01:02Z</time></trkpt><trkpt lat="45.54219390941756" lon="9.178670091150794"><ele>148.66666666666669</ele><time>2026-04-07T07:01:03Z</time></trkpt><trkpt lat="45.54227040951379" lon="9.178926525834921"><ele>149.33333333333334</ele><time>2026-04-07T07:01:04Z</time></trkpt><trkpt lat="45.54233862419014" lon="9.179171333213027"><ele>150.0</ele><time>2026-04-07T07:01:05Z</time></trkpt><trkpt lat="45.54239611420557" lon="9.179395089120302"><ele>150.0</ele><time>2026-04-07T07:01:06Z</time></trkpt><trkpt lat="45.542464583202104" lon="9.179646954269124"><ele>150.0</ele><time>2026-04-07T07:01:07Z</time></trkpt><trkpt lat="45.54252344345002" lon="9.179863726514226"><ele>150.0</ele><time>2026-04-07T07:01:08Z</time></trkpt><trkpt lat="45.542593805783405" lon="9.180078113498675"><ele>150.0</ele><time>2026-04-07T07:01:09Z</time></trkpt><trkpt lat="45.542642305879575" lon="9.180267937261519"><ele>150.0</ele><time>2026-04-07T07:01:10Z</time></trkpt><trkpt lat="45.54268353820318" lon="9.180447813608342"><ele>150.0</ele><time>2026-04-07T07:01:11Z</time></trkpt><trkpt lat="45.542731288183454" lon="9.18061145244689"><ele>150.0</ele><time>2026-04-07T07:01:12Z</time></trkpt><trkpt lat="45.542780315668494" lon="9.18077019910755"><ele>149.8</ele><time>2026-04-07T07:01:13Z</time></trkpt><trkpt lat="45.54282674938156" lon="9.180920156834908"><ele>149.6</ele><time>2026-04-07T07:01:14Z</time></trkpt><trkpt lat="45.54286726098747" lon="9.181076192165373"><ele>149.4</ele><time>2026-04-07T07:01:15Z</time></trkpt><trkpt lat="45.54290668269812" lon="9.181226594671084"><ele>149.2</ele><time>2026-04-07T07:01:16Z</time></trkpt><trkpt lat="45.542941786487226" lon="9.181366257987287"><ele>149.0</ele><time>2026-04-07T07:01:17Z</time></trkpt><trkpt lat="45.542966162254096" lon="9.181471254555753"><ele>148.5</ele><time>2026-04-07T07:01:18Z</time></trkpt><trkpt lat="45.54298738522497" lon="9.18159533200992"><ele>148.0</ele><time>2026-04-07T07:01:19Z</time></trkpt><trkpt lat="45.54302275548874" lon="9.181763139203284"><ele>147.5</ele><time>2026-04-07T07:01:20Z</time></trkpt><trkpt lat="45.5430765625859" lon="9.181955561036046"><ele>147.0</ele><time>2026-04-07T07:01:21Z</time></trkpt><trkpt lat="45.54313714169369" lon="9.182180469911069"><ele>147.33333333333334</ele><time>2026-04-07T07:01:22Z</time></trkpt><trkpt lat="45.543205293338424" lon="9.18242926767215"><ele>147.66666666666669</ele><time>2026-04-07T07:01:23Z</time></trkpt><trkpt lat="45.54327239171316" lon="9.182692503403887"><ele>148.0</ele><time>2026-04-07T07:01:24Z</time></trkpt><trkpt lat="45.543346785997095" lon="9.18297162134449"><ele>148.33333333333334</ele><time>2026-04-07T07:01:25Z</time></trkpt><trkpt lat="45.54341790974847" lon="9.18324539118244"><ele>148.66666666666666</ele><time>2026-04-07T07:01:26Z</time></trkpt><trkpt lat="45.5434988195892" lon="9.183495206437065"><ele>149.0</ele><time>2026-04-07T07:01:27Z</time></trkpt><trkpt lat="45.54355175400257" lon="9.183760130248462"><ele>148.66666666666666</ele><time>2026-04-07T07:01:28Z</time></trkpt><trkpt lat="45.543622319566865" lon="9.184032489498716"><ele>148.33333333333334</ele><time>2026-04-07T07:01:29Z</time></trkpt><trkpt lat="45.54369296839742" lon="9.184300146955886"><ele>148.0</ele><time>2026-04-07T07:01:30Z</time></trkpt><trkpt lat="45.54376275749995" lon="9.184567922156063"><ele>148.33333333333334</ele><time>2026-04-07T07:01:31Z</time></trkpt><trkpt lat="45.54383321962853" lon="9.184846552107633"><ele>148.66666666666666</ele><time>2026-04-07T07:01:32Z</time></trkpt><trkpt lat="45.5439036912738" lon="9.185119868743028"><ele>149.0</ele><time>2026-04-07T07:01:33Z</time></trkpt><trkpt lat="45.543991126050635" lon="9.185392921136755"><ele>149.0</ele><time>2026-04-07T07:01:34Z</time></trkpt><trkpt lat="45.54405015948886" lon="9.185676602750256"><ele>149.0</ele><time>2026-04-07T07:01:35Z</time></trkpt><trkpt lat="45.544116955241726" lon="9.185951222565759"><ele>149.0</ele><time>2026-04-07T07:01:36Z</time></trkpt><trkpt lat="45.54420039920655" lon="9.186208975786395"><ele>149.33333333333331</ele><time>2026-04-07T07:01:37Z</time></trkpt><trkpt lat="45.54426736444989" lon="9.186470377723552"><ele>149.66666666666666</ele><time>2026-04-07T07:01:38Z</time></trkpt><trkpt lat="45.54433341062363" lon="9.18672856934557"><ele>150.0</ele><time>2026-04-07T07:01:39Z</time></trkpt><trkpt lat="45.54439917554149" lon="9.186987436813467"><ele>150.0</ele><time>2026-04-07T07:01:40Z</time></trkpt><trkpt lat="45.54446898090505" lon="9.18726178082837"><ele>150.0</ele><time>2026-04-07T07:01:41Z</time></trkpt><trkpt lat="45.54452295972848" lon="9.187532099069402"><ele>150.0</ele><time>2026-04-07T07:01:42Z</time></trkpt><trkpt lat="45.54459480517916" lon="9.187819889535168"><ele>150.0</ele><time>2026-04-07T07:01:43Z</time></trkpt><trkpt lat="45.544667145186324" lon="9.188106442499004"><ele>150.0</ele><time>2026-04-07T07:01:44Z</time></trkpt><trkpt lat="45.54474181235414" lon="9.188386908246146"><ele>150.0</ele><time>2026-04-07T07:01:45Z</time></trkpt><trkpt lat="45.544807911185046" lon="9.188650142490337"><ele>150.33333333333334</ele><time>2026-04-07T07:01:46Z</time></trkpt><trkpt lat="45.544871254424294" lon="9.188892429373057"><ele>150.66666666666669</ele><time>2026-04-07T07:01:47Z</time></trkpt><trkpt lat="45.54493684362893" lon="9.189131099382157"><ele>151.0</ele><time>2026-04-07T07:01:48Z</time></trkpt><trkpt lat="45.544988621284766" lon="9.189344682165924"><ele>151.0</ele><time>2026-04-07T07:01:49Z</time></trkpt><trkpt lat="45.545046368713" lon="9.189561072386365"><ele>151.0</ele><time>2026-04-07T07:01:50Z</time></trkpt><trkpt lat="45.54509675433755" lon="9.189749494572938"><ele>151.0</ele><time>2026-04-07T07:01:51Z</time></trkpt><trkpt lat="45.5451538467314" lon="9.189954179955052"><ele>151.0</ele><time>2026-04-07T07:01:52Z</time></trkpt><trkpt lat="45.54520686612481" lon="9.190151762210734"><ele>151.0</ele><time>2026-04-07T07:01:53Z</time></trkpt><trkpt lat="45.54525955168699" lon="9.190354905751798"><ele>151.0</ele><time>2026-04-07T07:01:54Z</time></trkpt><trkpt lat="45.54530413312283" lon="9.19053940088165"><ele>151.0</ele><time>2026-04-07T07:01:55Z</time></trkpt><trkpt lat="45.54534948551737" lon="9.19071041929246"><ele>151.5</ele><time>2026-04-07T07:01:56Z</time></trkpt><trkpt lat="45.54539489412562" lon="9.190872992928087"><ele>152.0</ele><time>2026-04-07T07:01:57Z</time></trkpt><trkpt lat="45.545437514843634" lon="9.191032883401283"><ele>152.5</ele><time>2026-04-07T07:01:58Z</time></trkpt><trkpt lat="45.54547626429213" lon="9.191181127420313"><ele>153.0</ele><time>2026-04-07T07:01:59Z</time></trkpt><trkpt lat="45.54551520850138" lon="9.191329006765114"><ele>153.0</ele><time>2026-04-07T07:02:00Z</time></trkpt><trkpt lat="45.5455564510012" lon="9.191492531198566"><ele>153.0</ele><time>2026-04-07T07:02:01Z</time></trkpt><trkpt lat="45.5455981282014" lon="9.191652106697978"><ele>153.0</ele><time>2026-04-07T07:02:02Z</time></trkpt><trkpt lat="45.54563363671562" lon="9.19180437675767"><ele>153.0</ele><time>2026-04-07T07:02:03Z</time></trkpt><trkpt lat="45.54567605737812" lon="9.191961402543484"><ele>152.25</ele><time>2026-04-07T07:02:04Z</time></trkpt><trkpt lat="45.545719703625835" lon="9.192132089985178"><ele>151.5</ele><time>2026-04-07T07:02:05Z</time></trkpt><trkpt lat="45.54576289470274" lon="9.19230833680708"><ele>150.75</ele><time>2026-04-07T07:02:06Z</time></trkpt><trkpt lat="45.545807902181814" lon="9.192496371112409"><ele>150.0</ele><time>2026-04-07T07:02:07Z</time></trkpt><trkpt lat="45.54586028048268" lon="9.192689518908626"><ele>150.0</ele><time>2026-04-07T07:02:07.999Z</time></trkpt><trkpt lat="45.545914868923326" lon="9.19289231128866"><ele>150.0</ele><time>2026-04-07T07:02:08.999Z</time></trkpt><trkpt lat="45.54597200534385" lon="9.19310842728814"><ele>150.0</ele><time>2026-04-07T07:02:09.999Z</time></trkpt><trkpt lat="45.54603050987148" lon="9.19332931151853"><ele>149.33333333333334</ele><time>2026-04-07T07:02:10.999Z</time></trkpt><trkpt lat="45.54608129422012" lon="9.193541192570459"><ele>148.66666666666669</ele><time>2026-04-07T07:02:11.999Z</time></trkpt><trkpt lat="45.54614689281059" lon="9.193788925353957"><ele>148.0</ele><time>2026-04-07T07:02:12.999Z</time></trkpt><trkpt lat="45.54620044053987" lon="9.194003213102418"><ele>148.66666666666669</ele><time>2026-04-07T07:02:13.999Z</time></trkpt><trkpt lat="45.54626208384292" lon="9.19423806975583"><ele>149.33333333333334</ele><time>2026-04-07T07:02:14.999Z</time></trkpt><trkpt lat="45.546326271166556" lon="9.194471608631904"><ele>150.0</ele><time>2026-04-07T07:02:15.999Z</time></trkpt><trkpt lat="45.54639384970841" lon="9.19471601604645"><ele>149.66666666666666</ele><time>2026-04-07T07:02:16.999Z</time></trkpt><trkpt lat="45.54645913203299" lon="9.19495313385818"><ele>149.33333333333331</ele><time>2026-04-07T07:02:17.999Z</time></trkpt><trkpt lat="45.546521817869454" lon="9.195194901638734"><ele>149.0</ele><time>2026-04-07T07:02:18.999Z</time></trkpt><trkpt lat="45.54658327668731" lon="9.195443378391957"><ele>148.66666666666666</ele><time>2026-04-07T07:02:19.999Z</time></trkpt><trkpt lat="45.546639907882614" lon="9.195671540177138"><ele>148.33333333333334</ele><time>2026-04-07T07:02:20.999Z</time></trkpt><trkpt lat="45.5466985838953" lon="9.195895288379477"><ele>148.0</ele><time>2026-04-07T07:02:21.999Z</time></trkpt><trkpt lat="45.546758135581065" lon="9.19611690999195"><ele>148.0</ele><time>2026-04-07T07:02:22.999Z</time></trkpt><trkpt lat="45.546811185236635" lon="9.19632039637403"><ele>148.0</ele><time>2026-04-07T07:02:23.999Z</time></trkpt><trkpt lat="45.546872420617575" lon="9.196548653594036"><ele>148.0</ele><time>2026-04-07T07:02:24.999Z</time></trkpt><trkpt lat="45.54692598221355" lon="9.196757597650546"><ele>147.66666666666669</ele><time>2026-04-07T07:02:25.999Z</time></trkpt><trkpt lat="45.54698415476774" lon="9.19698567414243"><ele>147.33333333333334</ele><time>2026-04-07T07:02:26.999Z</time></trkpt><trkpt lat="45.54704127549918" lon="9.19720259522775"><ele>147.0</ele><time>2026-04-07T07:02:27.999Z</time></trkpt><trkpt lat="45.54710562779884" lon="9.197443311593178"><ele>147.66666666666666</ele><time>2026-04-07T07:02:28.999Z</time></trkpt><trkpt lat="45.5471666574594" lon="9.197680181841575"><ele>148.33333333333331</ele><time>2026-04-07T07:02:29.999Z</time></trkpt><trkpt lat="45.54722543353962" lon="9.197919866327041"><ele>149.0</ele><time>2026-04-07T07:02:30.999Z</time></trkpt><trkpt lat="45.54728259901496" lon="9.198150342896117"><ele>148.33333333333331</ele><time>2026-04-07T07:02:31.999Z</time></trkpt><trkpt lat="45.547337970472206" lon="9.198366933303774"><ele>147.66666666666666</ele><time>2026-04-07T07:02:32.999Z</time></trkpt><trkpt lat="45.54739732492717" lon="9.19859551106885"><ele>147.0</ele><time>2026-04-07T07:02:33.999Z</time></trkpt><trkpt lat="45.54745210404834" lon="9.198829162283637"><ele>147.33333333333334</ele><time>2026-04-07T07:02:34.999Z</time></trkpt><trkpt lat="45.54750627006266" lon="9.19906244446312"><ele>147.66666666666669</ele><time>2026-04-07T07:02:35.999Z</time></trkpt><trkpt lat="45.54756144120493" lon="9.199298179442614"><ele>148.0</ele><time>2026-04-07T07:02:36.999Z</time></trkpt><trkpt lat="45.54761837880402" lon="9.199537055764157"><ele>148.0</ele><time>2026-04-07T07:02:37.999Z</time></trkpt><trkpt lat="45.54767306081319" lon="9.199780824946298"><ele>148.0</ele><time>2026-04-07T07:02:38.999Z</time></trkpt><trkpt lat="45.54772138617356" lon="9.200029729708216"><ele>148.0</ele><time>2026-04-07T07:02:40Z</time></trkpt><trkpt lat="45.54776960344445" lon="9.200296676850583"><ele>148.0</ele><time>2026-04-07T07:02:41Z</time></trkpt><trkpt lat="45.547816001449846" lon="9.200552557414055"><ele>148.0</ele><time>2026-04-07T07:02:42Z</time></trkpt><trkpt lat="45.54786032450658" lon="9.20080625380165"><ele>148.0</ele><time>2026-04-07T07:02:43Z</time></trkpt><trkpt lat="45.54790445836969" lon="9.201076299312222"><ele>148.33333333333334</ele><time>2026-04-07T07:02:44Z</time></trkpt><trkpt lat="45.547946383759374" lon="9.201348003671871"><ele>148.66666666666666</ele><time>2026-04-07T07:02:45Z</time></trkpt><trkpt lat="45.54798613442582" lon="9.20161266141422"><ele>149.0</ele><time>2026-04-07T07:02:46Z</time></trkpt><trkpt lat="45.548023960826605" lon="9.201892217422374"><ele>149.0</ele><time>2026-04-07T07:02:47Z</time></trkpt><trkpt lat="45.548060672370056" lon="9.202173352114517"><ele>149.0</ele><time>2026-04-07T07:02:48Z</time></trkpt><trkpt lat="45.54809645815412" lon="9.20246428225435"><ele>149.0</ele><time>2026-04-07T07:02:49Z</time></trkpt><trkpt lat="45.54812868274407" lon="9.202757510486137"><ele>148.66666666666666</ele><time>2026-04-07T07:02:50Z</time></trkpt><trkpt lat="45.54815099140342" lon="9.203066357342868"><ele>148.33333333333334</ele><time>2026-04-07T07:02:51Z</time></trkpt><trkpt lat="45.54816978534062" lon="9.203382577944213"><ele>148.0</ele><time>2026-04-07T07:02:52Z</time></trkpt><trkpt lat="45.54818961952624" lon="9.203701111006078"><ele>148.33333333333334</ele><time>2026-04-07T07:02:53Z</time></trkpt><trkpt lat="45.54821130051913" lon="9.204020744815711"><ele>148.66666666666666</ele><time>2026-04-07T07:02:54Z</time></trkpt><trkpt lat="45.54822346466178" lon="9.204340767678069"><ele>149.0</ele><time>2026-04-07T07:02:55Z</time></trkpt><trkpt lat="45.548240125121794" lon="9.204649418704744"><ele>149.0</ele><time>2026-04-07T07:02:56Z</time></trkpt><trkpt lat="45.548258558658276" lon="9.204975358043074"><ele>149.0</ele><time>2026-04-07T07:02:57Z</time></trkpt><trkpt lat="45.548271570753606" lon="9.205315036312312"><ele>148.5</ele><time>2026-04-07T07:02:58Z</time></trkpt><trkpt lat="45.54828418154977" lon="9.205664857196087"><ele>148.0</ele><time>2026-04-07T07:02:59Z</time></trkpt><trkpt lat="45.548298582516516" lon="9.206016862512511"><ele>148.0</ele><time>2026-04-07T07:03:00Z</time></trkpt><trkpt lat="45.54830885271784" lon="9.206381805305298"><ele>148.0</ele><time>2026-04-07T07:03:01Z</time></trkpt><trkpt lat="45.54831687011087" lon="9.20674916143795"><ele>148.5</ele><time>2026-04-07T07:03:02Z</time></trkpt><trkpt lat="45.548327153772625" lon="9.207120200002114"><ele>149.0</ele><time>2026-04-07T07:03:03Z</time></trkpt><trkpt lat="45.54833742755112" lon="9.207495166307314"><ele>149.0</ele><time>2026-04-07T07:03:04Z</time></trkpt><trkpt lat="45.54834995550902" lon="9.207873228233181"><ele>149.0</ele><time>2026-04-07T07:03:05Z</time></trkpt><trkpt lat="45.54836507064865" lon="9.208251383939794"><ele>149.0</ele><time>2026-04-07T07:03:06Z</time></trkpt><trkpt lat="45.548383544815664" lon="9.208627332345246"><ele>149.0</ele><time>2026-04-07T07:03:07Z</time></trkpt><trkpt lat="45.548404583237144" lon="9.209001325478162"><ele>149.0</ele><time>2026-04-07T07:03:08Z</time></trkpt><trkpt lat="45.548425511840236" lon="9.209379644580038"><ele>149.0</ele><time>2026-04-07T07:03:09Z</time></trkpt><trkpt lat="45.54844044792466" lon="9.209753558835674"><ele>149.5</ele><time>2026-04-07T07:03:10Z</time></trkpt><trkpt lat="45.548453317632536" lon="9.21012500414451"><ele>150.0</ele><time>2026-04-07T07:03:11Z</time></trkpt><trkpt lat="45.54846655444186" lon="9.210496900044165"><ele>149.5</ele><time>2026-04-07T07:03:12Z</time></trkpt><trkpt lat="45.54848126961819" lon="9.21086446866062"><ele>149.0</ele><time>2026-04-07T07:03:13Z</time></trkpt><trkpt lat="45.54849573378762" lon="9.211229089684638"><ele>148.5</ele><time>2026-04-07T07:03:14Z</time></trkpt><trkpt lat="45.54851030707763" lon="9.211592487133105"><ele>148.0</ele><time>2026-04-07T07:03:15Z</time></trkpt><trkpt lat="45.54852809380497" lon="9.211978317155365"><ele>148.5</ele><time>2026-04-07T07:03:16Z</time></trkpt><trkpt lat="45.54854005067691" lon="9.21235466657073"><ele>149.0</ele><time>2026-04-07T07:03:17Z</time></trkpt><trkpt lat="45.548549482379265" lon="9.21272812535059"><ele>149.0</ele><time>2026-04-07T07:03:18Z</time></trkpt><trkpt lat="45.548565040899696" lon="9.213123483345058"><ele>149.0</ele><time>2026-04-07T07:03:19Z</time></trkpt><trkpt lat="45.548570157797855" lon="9.213491385429093"><ele>147.5</ele><time>2026-04-07T07:03:20Z</time></trkpt><trkpt lat="45.54857896879097" lon="9.21387865244866"><ele>146.0</ele><time>2026-04-07T07:03:21Z</time></trkpt><trkpt lat="45.548588063371774" lon="9.214262896810423"><ele>146.0</ele><time>2026-04-07T07:03:22Z</time></trkpt><trkpt lat="45.54859510225914" lon="9.214641338367688"><ele>146.0</ele><time>2026-04-07T07:03:23Z</time></trkpt><trkpt lat="45.548603579943084" lon="9.215015466070975"><ele>147.5</ele><time>2026-04-07T07:03:24Z</time></trkpt><trkpt lat="45.548616338275494" lon="9.21539700817861"><ele>149.0</ele><time>2026-04-07T07:03:25Z</time></trkpt><trkpt lat="45.548627085020215" lon="9.215767854329888"><ele>149.5</ele><time>2026-04-07T07:03:26Z</time></trkpt><trkpt lat="45.54863793112776" lon="9.216139953539452"><ele>150.0</ele><time>2026-04-07T07:03:27Z</time></trkpt><trkpt lat="45.548647029571704" lon="9.216502392177519"><ele>150.0</ele><time>2026-04-07T07:03:28Z</time></trkpt><trkpt lat="45.54866315968169" lon="9.216874668237487"><ele>150.0</ele><time>2026-04-07T07:03:29Z</time></trkpt><trkpt lat="45.54867704854937" lon="9.21723968861996"><ele>149.5</ele><time>2026-04-07T07:03:30Z</time></trkpt><trkpt lat="45.54868669033997" lon="9.217601616708277"><ele>149.0</ele><time>2026-04-07T07:03:31Z</time></trkpt><trkpt lat="45.548705242830074" lon="9.217974186931835"><ele>151.5</ele><time>2026-04-07T07:03:32Z</time></trkpt><trkpt lat="45.54872995833834" lon="9.218339461737816"><ele>154.0</ele><time>2026-04-07T07:03:33Z</time></trkpt><trkpt lat="45.54875386084809" lon="9.218709341169609"><ele>153.0</ele><time>2026-04-07T07:03:34Z</time></trkpt><trkpt lat="45.548780810573305" lon="9.21907723424924"><ele>152.0</ele><time>2026-04-07T07:03:35Z</time></trkpt><trkpt lat="45.548810396305086" lon="9.219444888126658"><ele>152.0</ele><time>2026-04-07T07:03:36Z</time></trkpt><trkpt lat="45.54884569860125" lon="9.219806128911907"><ele>152.0</ele><time>2026-04-07T07:03:37Z</time></trkpt><trkpt lat="45.548882575239716" lon="9.220176487664832"><ele>151.5</ele><time>2026-04-07T07:03:38Z</time></trkpt><trkpt lat="45.548920655344396" lon="9.220541651468022"><ele>151.0</ele><time>2026-04-07T07:03:39Z</time></trkpt><trkpt lat="45.54896135872642" lon="9.220922186988284"><ele>150.5</ele><time>2026-04-07T07:03:40Z</time></trkpt><trkpt lat="45.54900461301936" lon="9.221279259960541"><ele>150.0</ele><time>2026-04-07T07:03:41Z</time></trkpt><trkpt lat="45.54905200405794" lon="9.221646383655651"><ele>150.0</ele><time>2026-04-07T07:03:42Z</time></trkpt><trkpt lat="45.549106603106914" lon="9.222013424985374"><ele>150.0</ele><time>2026-04-07T07:03:43Z</time></trkpt><trkpt lat="45.54916156214078" lon="9.222379041722412"><ele>149.5</ele><time>2026-04-07T07:03:44Z</time></trkpt><trkpt lat="45.549214826480934" lon="9.222748832053556"><ele>149.0</ele><time>2026-04-07T07:03:45Z</time></trkpt><trkpt lat="45.54926714227942" lon="9.223121119656716"><ele>148.5</ele><time>2026-04-07T07:03:46Z</time></trkpt><trkpt lat="45.54932268119422" lon="9.223484139461227"><ele>148.0</ele><time>2026-04-07T07:03:47Z</time></trkpt><trkpt lat="45.549378284258594" lon="9.223852735154711"><ele>148.0</ele><time>2026-04-07T07:03:48Z</time></trkpt><trkpt lat="45.54943275367082" lon="9.224217905236118"><ele>148.0</ele><time>2026-04-07T07:03:49Z</time></trkpt><trkpt lat="45.54948487201435" lon="9.22458808195926"><ele>148.5</ele><time>2026-04-07T07:03:50Z</time></trkpt><trkpt lat="45.549542951631516" lon="9.224958680634362"><ele>149.0</ele><time>2026-04-07T07:03:51Z</time></trkpt><trkpt lat="45.54959723474347" lon="9.2253275688869"><ele>149.5</ele><time>2026-04-07T07:03:52Z</time></trkpt><trkpt lat="45.54965269240455" lon="9.225695306274249"><ele>150.0</ele><time>2026-04-07T07:03:53Z</time></trkpt><trkpt lat="45.54971328288684" lon="9.226064596724399"><ele>150.0</ele><time>2026-04-07T07:03:54Z</time></trkpt><trkpt lat="45.54977697195773" lon="9.226428037178284"><ele>150.0</ele><time>2026-04-07T07:03:55Z</time></trkpt><trkpt lat="45.54984289377691" lon="9.226792346564592"><ele>150.0</ele><time>2026-04-07T07:03:56Z</time></trkpt><trkpt lat="45.54990851607872" lon="9.227156323568149"><ele>150.0</ele><time>2026-04-07T07:03:57Z</time></trkpt><trkpt lat="45.5499715923521" lon="9.2275234001784"><ele>149.0</ele><time>2026-04-07T07:03:58Z</time></trkpt><trkpt lat="45.55002777074567" lon="9.227892151176249"><ele>148.0</ele><time>2026-04-07T07:03:59Z</time></trkpt><trkpt lat="45.5500829233562" lon="9.228264190488641"><ele>148.0</ele><time>2026-04-07T07:04:00Z</time></trkpt><trkpt lat="45.5501411202174" lon="9.228636361617298"><ele>148.0</ele><time>2026-04-07T07:04:01Z</time></trkpt><trkpt lat="45.55020546235878" lon="9.229008877767713"><ele>148.5</ele><time>2026-04-07T07:04:02Z</time></trkpt><trkpt lat="45.55027057398081" lon="9.229386086035348"><ele>149.0</ele><time>2026-04-07T07:04:03Z</time></trkpt><trkpt lat="45.5503347686049" lon="9.229767868510478"><ele>149.0</ele><time>2026-04-07T07:04:04Z</time></trkpt><trkpt lat="45.55039502050636" lon="9.230146015311394"><ele>149.0</ele><time>2026-04-07T07:04:05Z</time></trkpt><trkpt lat="45.55045302420712" lon="9.230523496545455"><ele>149.5</ele><time>2026-04-07T07:04:06Z</time></trkpt><trkpt lat="45.55050891461457" lon="9.230903721073304"><ele>150.0</ele><time>2026-04-07T07:04:07Z</time></trkpt><trkpt lat="45.55056376169794" lon="9.23127732849004"><ele>151.0</ele><time>2026-04-07T07:04:07.999Z</time></trkpt><trkpt lat="45.55060170487758" lon="9.231652082987463"><ele>152.0</ele><time>2026-04-07T07:04:08.999Z</time></trkpt><trkpt lat="45.55066201586495" lon="9.231994853794236"><ele>152.0</ele><time>2026-04-07T07:04:09.999Z</time></trkpt><trkpt lat="45.55071571861724" lon="9.232350616339485"><ele>152.0</ele><time>2026-04-07T07:04:10.999Z</time></trkpt><trkpt lat="45.55078034781475" lon="9.232700731252898"><ele>152.0</ele><time>2026-04-07T07:04:11.999Z</time></trkpt><trkpt lat="45.550834361577444" lon="9.23304490626757"><ele>152.0</ele><time>2026-04-07T07:04:12.999Z</time></trkpt><trkpt lat="45.55087524380928" lon="9.233370948461177"><ele>152.0</ele><time>2026-04-07T07:04:13.999Z</time></trkpt><trkpt lat="45.55093263590405" lon="9.233829491704636"><ele>152.0</ele><time>2026-04-07T07:04:14.999Z</time></trkpt><trkpt lat="45.55098047928772" lon="9.234219933012639"><ele>152.5</ele><time>2026-04-07T07:04:15.999Z</time></trkpt><trkpt lat="45.551029584439156" lon="9.234637299230803"><ele>153.0</ele><time>2026-04-07T07:04:16.999Z</time></trkpt><trkpt lat="45.55107402075298" lon="9.235016153970776"><ele>153.0</ele><time>2026-04-07T07:04:17.999Z</time></trkpt><trkpt lat="45.55112721248835" lon="9.235419350125474"><ele>153.0</ele><time>2026-04-07T07:04:18.999Z</time></trkpt><trkpt lat="45.55110030735475" lon="9.235752984392528"><ele>152.0</ele><time>2026-04-07T07:04:19.999Z</time></trkpt><trkpt lat="45.551182081046306" lon="9.236093022408488"><ele>151.0</ele><time>2026-04-07T07:04:20.999Z</time></trkpt><trkpt lat="45.55123901414117" lon="9.236452727909965"><ele>149.5</ele><time>2026-04-07T07:04:21.999Z</time></trkpt><trkpt lat="45.55128278455204" lon="9.23680612934403"><ele>148.0</ele><time>2026-04-07T07:04:22.999Z</time></trkpt><trkpt lat="45.55133449601361" lon="9.237185960440309"><ele>148.5</ele><time>2026-04-07T07:04:23.999Z</time></trkpt><trkpt lat="45.55136892933182" lon="9.237574411472655"><ele>149.0</ele><time>2026-04-07T07:04:24.999Z</time></trkpt><trkpt lat="45.55142828867898" lon="9.237913571212488"><ele>150.0</ele><time>2026-04-07T07:04:25.999Z</time></trkpt><trkpt lat="45.55149331089518" lon="9.23826754696838"><ele>151.0</ele><time>2026-04-07T07:04:26.999Z</time></trkpt><trkpt lat="45.55155808797377" lon="9.238617717291847"><ele>151.0</ele><time>2026-04-07T07:04:27.999Z</time></trkpt><trkpt lat="45.5516086624079" lon="9.238937768263538"><ele>151.0</ele><time>2026-04-07T07:04:28.999Z</time></trkpt><trkpt lat="45.55166201509443" lon="9.239308735368839"><ele>151.0</ele><time>2026-04-07T07:04:29.999Z</time></trkpt><trkpt lat="45.55171770586962" lon="9.239666926918426"><ele>151.0</ele><time>2026-04-07T07:04:30.999Z</time></trkpt><trkpt lat="45.55177221036666" lon="9.24003927658999"><ele>151.0</ele><time>2026-04-07T07:04:31.999Z</time></trkpt><trkpt lat="45.55182570561234" lon="9.240415426683667"><ele>151.0</ele><time>2026-04-07T07:04:32.999Z</time></trkpt><trkpt lat="45.5518724861089" lon="9.240788196660592"><ele>152.5</ele><time>2026-04-07T07:04:33.999Z</time></trkpt><trkpt lat="45.55192403260832" lon="9.241132981884576"><ele>154.0</ele><time>2026-04-07T07:04:34.999Z</time></trkpt><trkpt lat="45.55198647363857" lon="9.241500789614989"><ele>152.5</ele><time>2026-04-07T07:04:35.999Z</time></trkpt><trkpt lat="45.5520589094689" lon="9.241882176530371"><ele>151.0</ele><time>2026-04-07T07:04:36.999Z</time></trkpt><trkpt lat="45.552125650637116" lon="9.242281187188683"><ele>151.0</ele><time>2026-04-07T07:04:37.999Z</time></trkpt><trkpt lat="45.552183908888956" lon="9.242676963224907"><ele>151.0</ele><time>2026-04-07T07:04:38.999Z</time></trkpt><trkpt lat="45.552239247698296" lon="9.243071299485491"><ele>151.5</ele><time>2026-04-07T07:04:39.999Z</time></trkpt><trkpt lat="45.55229519892185" lon="9.243463977689856"><ele>152.0</ele><time>2026-04-07T07:04:40.999Z</time></trkpt><trkpt lat="45.55234659290705" lon="9.243854015371568"><ele>152.0</ele><time>2026-04-07T07:04:41.999Z</time></trkpt><trkpt lat="45.55240289744786" lon="9.244236054794099"><ele>152.0</ele><time>2026-04-07T07:04:42.999Z</time></trkpt><trkpt lat="45.552464352215615" lon="9.244610245854414"><ele>150.0</ele><time>2026-04-07T07:04:43.999Z</time></trkpt><trkpt lat="45.552526734869716" lon="9.244993590615325"><ele>148.0</ele><time>2026-04-07T07:04:44.999Z</time></trkpt><trkpt lat="45.55258824733679" lon="9.245377609633131"><ele>149.0</ele><time>2026-04-07T07:04:46Z</time></trkpt><trkpt lat="45.5526471663678" lon="9.245764839602979"><ele>150.0</ele><time>2026-04-07T07:04:47Z</time></trkpt><trkpt lat="45.552707752127006" lon="9.246150601089532"><ele>150.0</ele><time>2026-04-07T07:04:48Z</time></trkpt><trkpt lat="45.552763831111065" lon="9.246541952620396"><ele>150.0</ele><time>2026-04-07T07:04:49Z</time></trkpt><trkpt lat="45.55282339394667" lon="9.246928870911159"><ele>151.5</ele><time>2026-04-07T07:04:50Z</time></trkpt><trkpt lat="45.55288203403738" lon="9.247315055323622"><ele>153.0</ele><time>2026-04-07T07:04:51Z</time></trkpt><trkpt lat="45.55294061234247" lon="9.247702839362475"><ele>153.0</ele><time>2026-04-07T07:04:52Z</time></trkpt><trkpt lat="45.55300391116724" lon="9.248090468311995"><ele>153.0</ele><time>2026-04-07T07:04:53Z</time></trkpt><trkpt lat="45.55306383328981" lon="9.248481205237525"><ele>152.5</ele><time>2026-04-07T07:04:54Z</time></trkpt><trkpt lat="45.553115677548" lon="9.248845734031717"><ele>152.0</ele><time>2026-04-07T07:04:55Z</time></trkpt><trkpt lat="45.55316414906383" lon="9.24917643206643"><ele>152.0</ele><time>2026-04-07T07:04:56Z</time></trkpt><trkpt lat="45.55321018396364" lon="9.24950802041521"><ele>152.0</ele><time>2026-04-07T07:04:57Z</time></trkpt><trkpt lat="45.553256201132534" lon="9.249828076809765"><ele>152.5</ele><time>2026-04-07T07:04:58Z</time></trkpt><trkpt lat="45.553311474161546" lon="9.250181326928644"><ele>153.0</ele><time>2026-04-07T07:04:59Z</time></trkpt><trkpt lat="45.55336402825599" lon="9.250551813780772"><ele>152.0</ele><time>2026-04-07T07:05:00Z</time></trkpt><trkpt lat="45.55342080607849" lon="9.250906068947605"><ele>151.0</ele><time>2026-04-07T07:05:01Z</time></trkpt><trkpt lat="45.55347119293705" lon="9.251252734062968"><ele>150.5</ele><time>2026-04-07T07:05:02Z</time></trkpt><trkpt lat="45.55352650219354" lon="9.251607031900575"><ele>150.0</ele><time>2026-04-07T07:05:03Z</time></trkpt><trkpt lat="45.5535815299019" lon="9.251969720371692"><ele>151.0</ele><time>2026-04-07T07:05:04Z</time></trkpt><trkpt lat="45.553637462635606" lon="9.25233559063675"><ele>152.0</ele><time>2026-04-07T07:05:05Z</time></trkpt><trkpt lat="45.5536942309425" lon="9.252705351845151"><ele>151.0</ele><time>2026-04-07T07:05:06Z</time></trkpt><trkpt lat="45.55375114002101" lon="9.253079299049864"><ele>150.0</ele><time>2026-04-07T07:05:07Z</time></trkpt><trkpt lat="45.55380601330435" lon="9.253460424245153"><ele>149.5</ele><time>2026-04-07T07:05:08Z</time></trkpt><trkpt lat="45.55386434057363" lon="9.25383500068301"><ele>149.0</ele><time>2026-04-07T07:05:09Z</time></trkpt><trkpt lat="45.55391577746815" lon="9.254195864148057"><ele>149.0</ele><time>2026-04-07T07:05:10Z</time></trkpt><trkpt lat="45.55396757839388" lon="9.254551759043448"><ele>149.0</ele><time>2026-04-07T07:05:11Z</time></trkpt><trkpt lat="45.55402018914067" lon="9.25491779983247"><ele>148.5</ele><time>2026-04-07T07:05:12Z</time></trkpt><trkpt lat="45.55407483973833" lon="9.255290760870933"><ele>148.0</ele><time>2026-04-07T07:05:13Z</time></trkpt><trkpt lat="45.554128311397484" lon="9.255660438467759"><ele>148.0</ele><time>2026-04-07T07:05:14Z</time></trkpt><trkpt lat="45.55418357278336" lon="9.256040769069187"><ele>148.0</ele><time>2026-04-07T07:05:15Z</time></trkpt><trkpt lat="45.554235963989925" lon="9.256414432808947"><ele>147.5</ele><time>2026-04-07T07:05:16Z</time></trkpt><trkpt lat="45.55428536679129" lon="9.25679392102682"><ele>147.0</ele><time>2026-04-07T07:05:17Z</time></trkpt><trkpt lat="45.55433952963209" lon="9.257171225625703"><ele>146.5</ele><time>2026-04-07T07:05:18Z</time></trkpt><trkpt lat="45.554398800596154" lon="9.257546638101596"><ele>146.0</ele><time>2026-04-07T07:05:19Z</time></trkpt><trkpt lat="45.554455559737974" lon="9.257926206993169"><ele>146.0</ele><time>2026-04-07T07:05:20Z</time></trkpt><trkpt lat="45.55451300556126" lon="9.258315491226895"><ele>146.0</ele><time>2026-04-07T07:05:21Z</time></trkpt><trkpt lat="45.55457080366746" lon="9.258693215100916"><ele>147.0</ele><time>2026-04-07T07:05:22Z</time></trkpt><trkpt lat="45.55462707112567" lon="9.25907742675525"><ele>148.0</ele><time>2026-04-07T07:05:23Z</time></trkpt><trkpt lat="45.55468588205046" lon="9.25946310459305"><ele>148.0</ele><time>2026-04-07T07:05:24Z</time></trkpt><trkpt lat="45.55474327410703" lon="9.259846482573845"><ele>148.0</ele><time>2026-04-07T07:05:25Z</time></trkpt><trkpt lat="45.55479953187405" lon="9.260232315183956"><ele>148.0</ele><time>2026-04-07T07:05:26Z</time></trkpt><trkpt lat="45.554855612439205" lon="9.260607937403268"><ele>148.0</ele><time>2026-04-07T07:05:27Z</time></trkpt><trkpt lat="45.55491051782852" lon="9.260992702202762"><ele>148.0</ele><time>2026-04-07T07:05:28Z</time></trkpt><trkpt lat="45.55496329514087" lon="9.261389824774524"><ele>148.0</ele><time>2026-04-07T07:05:29Z</time></trkpt><trkpt lat="45.555017542089296" lon="9.26174662468485"><ele>146.5</ele><time>2026-04-07T07:05:30Z</time></trkpt><trkpt lat="45.55507635833676" lon="9.262120722025129"><ele>145.0</ele><time>2026-04-07T07:05:31Z</time></trkpt><trkpt lat="45.555134056159744" lon="9.262487279467607"><ele>145.0</ele><time>2026-04-07T07:05:32Z</time></trkpt><trkpt lat="45.555193119910285" lon="9.262849851493728"><ele>145.0</ele><time>2026-04-07T07:05:33Z</time></trkpt><trkpt lat="45.55524979681903" lon="9.263211978818173"><ele>145.0</ele><time>2026-04-07T07:05:34Z</time></trkpt><trkpt lat="45.55530138283417" lon="9.263584916527972"><ele>145.0</ele><time>2026-04-07T07:05:35Z</time></trkpt><trkpt lat="45.55535426244952" lon="9.2639448368096"><ele>144.0</ele><time>2026-04-07T07:05:36Z</time></trkpt><trkpt lat="45.555398456867195" lon="9.264286204780323"><ele>143.0</ele><time>2026-04-07T07:05:37Z</time></trkpt><trkpt lat="45.55544249426598" lon="9.26462360483539"><ele>144.0</ele><time>2026-04-07T07:05:38Z</time></trkpt><trkpt lat="45.55549339186361" lon="9.264970354339354"><ele>145.0</ele><time>2026-04-07T07:05:39Z</time></trkpt><trkpt lat="45.5555396238723" lon="9.265320639875803"><ele>145.5</ele><time>2026-04-07T07:05:40Z</time></trkpt><trkpt lat="45.555574353570066" lon="9.265677103256223"><ele>146.0</ele><time>2026-04-07T07:05:41Z</time></trkpt><trkpt lat="45.55560046834835" lon="9.26601738047546"><ele>146.0</ele><time>2026-04-07T07:05:42Z</time></trkpt><trkpt lat="45.55561939504234" lon="9.266336073044846"><ele>146.0</ele><time>2026-04-07T07:05:43Z</time></trkpt><trkpt lat="45.55563019081425" lon="9.266634661312391"><ele>146.0</ele><time>2026-04-07T07:05:44Z</time></trkpt><trkpt lat="45.55562808847625" lon="9.266906625773137"><ele>146.66666666666666</ele><time>2026-04-07T07:05:45Z</time></trkpt><trkpt lat="45.55562109726663" lon="9.26716678874231"><ele>147.33333333333334</ele><time>2026-04-07T07:05:46Z</time></trkpt><trkpt lat="45.55561397618412" lon="9.267412566134922"><ele>148.0</ele><time>2026-04-07T07:05:47Z</time></trkpt><trkpt lat="45.55561229950008" lon="9.267637613845617"><ele>147.4</ele><time>2026-04-07T07:05:48Z</time></trkpt><trkpt lat="45.555619785573036" lon="9.267824169699624"><ele>146.8</ele><time>2026-04-07T07:05:49Z</time></trkpt><trkpt lat="45.55563606438917" lon="9.267994118605797"><ele>146.2</ele><time>2026-04-07T07:05:50Z</time></trkpt><trkpt lat="45.555653161791774" lon="9.268140219815393"><ele>145.6</ele><time>2026-04-07T07:05:51Z</time></trkpt><trkpt lat="45.5556722874676" lon="9.268263945259555"><ele>145.0</ele><time>2026-04-07T07:05:52Z</time></trkpt><trkpt lat="45.55568941493364" lon="9.268358652664011"><ele>145.0</ele><time>2026-04-07T07:05:53Z</time></trkpt><trkpt lat="45.555713976222776" lon="9.268506837573286"><ele>145.0</ele><time>2026-04-07T07:05:55Z</time></trkpt><trkpt lat="45.555730105490674" lon="9.268600798737637"><ele>145.0</ele><time>2026-04-07T07:05:57Z</time></trkpt><trkpt lat="45.555738450927734" lon="9.268723158239146"><ele>145.0</ele><time>2026-04-07T07:06:22.999Z</time></trkpt><trkpt lat="45.55574827628144" lon="9.26882136039683"><ele>145.0</ele><time>2026-04-07T07:06:23.999Z</time></trkpt><trkpt lat="45.55576551669923" lon="9.268935153448242"><ele>145.0</ele><time>2026-04-07T07:06:24.999Z</time></trkpt><trkpt lat="45.55578939779363" lon="9.269055692739478"><ele>145.0</ele><time>2026-04-07T07:06:25.999Z</time></trkpt><trkpt lat="45.55582435248729" lon="9.269203024030055"><ele>145.0</ele><time>2026-04-07T07:06:26.999Z</time></trkpt><trkpt lat="45.55586477412257" lon="9.26935907611522"><ele>145.0</ele><time>2026-04-07T07:06:27.999Z</time></trkpt><trkpt lat="45.55590529105267" lon="9.269514688673155"><ele>145.0</ele><time>2026-04-07T07:06:28.999Z</time></trkpt><trkpt lat="45.55595172812692" lon="9.269687743449426"><ele>145.0</ele><time>2026-04-07T07:06:29.999Z</time></trkpt><trkpt lat="45.55600789533367" lon="9.269879214409993"><ele>145.0</ele><time>2026-04-07T07:06:30.999Z</time></trkpt><trkpt lat="45.55606799970909" lon="9.270080569111368"><ele>145.0</ele><time>2026-04-07T07:06:31.999Z</time></trkpt><trkpt lat="45.55612647079709" lon="9.270262690535212"><ele>145.0</ele><time>2026-04-07T07:06:32.999Z</time></trkpt><trkpt lat="45.55618811363166" lon="9.270457274606034"><ele>144.33333333333334</ele><time>2026-04-07T07:06:33.999Z</time></trkpt><trkpt lat="45.556256914366884" lon="9.270676581458932"><ele>143.66666666666666</ele><time>2026-04-07T07:06:34.999Z</time></trkpt><trkpt lat="45.556331795782754" lon="9.270904260054383"><ele>143.0</ele><time>2026-04-07T07:06:35.999Z</time></trkpt><trkpt lat="45.556400838511195" lon="9.271134632042648"><ele>143.0</ele><time>2026-04-07T07:06:36.999Z</time></trkpt><trkpt lat="45.55645874997456" lon="9.271401634166129"><ele>143.0</ele><time>2026-04-07T07:06:37.999Z</time></trkpt><trkpt lat="45.55649637835931" lon="9.271685307748594"><ele>143.0</ele><time>2026-04-07T07:06:38.999Z</time></trkpt><trkpt lat="45.55652225325363" lon="9.271977882220241"><ele>143.33333333333331</ele><time>2026-04-07T07:06:39.999Z</time></trkpt><trkpt lat="45.556554944664725" lon="9.272279792581017"><ele>143.66666666666666</ele><time>2026-04-07T07:06:40.999Z</time></trkpt><trkpt lat="45.55659763827949" lon="9.272581993881449"><ele>144.0</ele><time>2026-04-07T07:06:41.999Z</time></trkpt><trkpt lat="45.55664883229127" lon="9.272890895933582"><ele>144.5</ele><time>2026-04-07T07:06:42.999Z</time></trkpt><trkpt lat="45.55670201642235" lon="9.273211749571932"><ele>145.0</ele><time>2026-04-07T07:06:43.999Z</time></trkpt><trkpt lat="45.55675981620856" lon="9.273552360363762"><ele>145.0</ele><time>2026-04-07T07:06:44.999Z</time></trkpt><trkpt lat="45.55681334877463" lon="9.27387936382749"><ele>145.0</ele><time>2026-04-07T07:06:45.999Z</time></trkpt><trkpt lat="45.55686688363763" lon="9.274207426441954"><ele>145.5</ele><time>2026-04-07T07:06:46.999Z</time></trkpt><trkpt lat="45.55692060784129" lon="9.27455383542737"><ele>146.0</ele><time>2026-04-07T07:06:47.999Z</time></trkpt><trkpt lat="45.556971521352246" lon="9.274912354503511"><ele>146.0</ele><time>2026-04-07T07:06:48.999Z</time></trkpt><trkpt lat="45.557020927341014" lon="9.275279548121906"><ele>146.0</ele><time>2026-04-07T07:06:49.999Z</time></trkpt><trkpt lat="45.557069424080474" lon="9.275645802701714"><ele>146.0</ele><time>2026-04-07T07:06:50.999Z</time></trkpt><trkpt lat="45.55711653124292" lon="9.276013109360573"><ele>146.0</ele><time>2026-04-07T07:06:52Z</time></trkpt><trkpt lat="45.55716625863323" lon="9.276378557189851"><ele>145.5</ele><time>2026-04-07T07:06:53Z</time></trkpt><trkpt lat="45.5572226228973" lon="9.27675779439033"><ele>145.0</ele><time>2026-04-07T07:06:54Z</time></trkpt><trkpt lat="45.557280739458534" lon="9.277144068942055"><ele>145.5</ele><time>2026-04-07T07:06:55Z</time></trkpt><trkpt lat="45.55733845385484" lon="9.277519727683556"><ele>146.0</ele><time>2026-04-07T07:06:56Z</time></trkpt><trkpt lat="45.557394594735236" lon="9.277899369863727"><ele>145.5</ele><time>2026-04-07T07:06:57Z</time></trkpt><trkpt lat="45.55744936281429" lon="9.278274798852658"><ele>145.0</ele><time>2026-04-07T07:06:58Z</time></trkpt><trkpt lat="45.55750496731947" lon="9.278645265328377"><ele>145.0</ele><time>2026-04-07T07:06:59Z</time></trkpt><trkpt lat="45.557562071317555" lon="9.279017987225814"><ele>145.0</ele><time>2026-04-07T07:07:00Z</time></trkpt><trkpt lat="45.55761681580847" lon="9.27939260410669"><ele>145.0</ele><time>2026-04-07T07:07:01Z</time></trkpt><trkpt lat="45.557666215343055" lon="9.279758917534314"><ele>145.0</ele><time>2026-04-07T07:07:02Z</time></trkpt><trkpt lat="45.55771903210942" lon="9.280128819511607"><ele>145.0</ele><time>2026-04-07T07:07:03Z</time></trkpt><trkpt lat="45.55776990006115" lon="9.280507036333889"><ele>145.0</ele><time>2026-04-07T07:07:04Z</time></trkpt><trkpt lat="45.5578152983051" lon="9.280879713613857"><ele>145.5</ele><time>2026-04-07T07:07:05Z</time></trkpt><trkpt lat="45.55786137249423" lon="9.281253838313624"><ele>146.0</ele><time>2026-04-07T07:07:06Z</time></trkpt><trkpt lat="45.55791253800641" lon="9.281630355064578"><ele>146.0</ele><time>2026-04-07T07:07:07Z</time></trkpt><trkpt lat="45.55796783555918" lon="9.282004611541046"><ele>146.0</ele><time>2026-04-07T07:07:08Z</time></trkpt><trkpt lat="45.55802498781619" lon="9.282383191847646"><ele>146.0</ele><time>2026-04-07T07:07:09Z</time></trkpt><trkpt lat="45.55807968074137" lon="9.282748374920974"><ele>146.0</ele><time>2026-04-07T07:07:10Z</time></trkpt><trkpt lat="45.558137765327324" lon="9.283126496274683"><ele>146.5</ele><time>2026-04-07T07:07:11Z</time></trkpt><trkpt lat="45.55819322082151" lon="9.283489862836534"><ele>147.0</ele><time>2026-04-07T07:07:12Z</time></trkpt><trkpt lat="45.55824888454635" lon="9.283861652146209"><ele>147.5</ele><time>2026-04-07T07:07:13Z</time></trkpt><trkpt lat="45.55830377630115" lon="9.284232314002688"><ele>148.0</ele><time>2026-04-07T07:07:14Z</time></trkpt><trkpt lat="45.55835865893308" lon="9.284602243426583"><ele>148.5</ele><time>2026-04-07T07:07:15Z</time></trkpt><trkpt lat="45.558412935051685" lon="9.284968904057322"><ele>149.0</ele><time>2026-04-07T07:07:16Z</time></trkpt><trkpt lat="45.55846597845649" lon="9.285343471318287"><ele>148.0</ele><time>2026-04-07T07:07:17Z</time></trkpt><trkpt lat="45.55852041629693" lon="9.285718457284615"><ele>147.0</ele><time>2026-04-07T07:07:18Z</time></trkpt><trkpt lat="45.55857648331728" lon="9.28608459834456"><ele>147.0</ele><time>2026-04-07T07:07:19Z</time></trkpt><trkpt lat="45.558630289768516" lon="9.286458958634642"><ele>147.0</ele><time>2026-04-07T07:07:20Z</time></trkpt><trkpt lat="45.558683536952664" lon="9.286828051242185"><ele>147.0</ele><time>2026-04-07T07:07:21Z</time></trkpt><trkpt lat="45.55873857364846" lon="9.287203156108497"><ele>147.0</ele><time>2026-04-07T07:07:22Z</time></trkpt><trkpt lat="45.558789348632175" lon="9.28757079545851"><ele>147.0</ele><time>2026-04-07T07:07:23Z</time></trkpt><trkpt lat="45.55884493794629" lon="9.287945443473747"><ele>147.0</ele><time>2026-04-07T07:07:24Z</time></trkpt><trkpt lat="45.55890375421756" lon="9.288316220181082"><ele>146.5</ele><time>2026-04-07T07:07:25Z</time></trkpt><trkpt lat="45.5589601183869" lon="9.28867970029533"><ele>146.0</ele><time>2026-04-07T07:07:26Z</time></trkpt><trkpt lat="45.55901790470024" lon="9.28904940833574"><ele>146.0</ele><time>2026-04-07T07:07:27Z</time></trkpt><trkpt lat="45.55907490507191" lon="9.28942125882333"><ele>146.0</ele><time>2026-04-07T07:07:28Z</time></trkpt><trkpt lat="45.55913021174197" lon="9.289786836375473"><ele>148.0</ele><time>2026-04-07T07:07:29Z</time></trkpt><trkpt lat="45.559185715044734" lon="9.290159919522909"><ele>150.0</ele><time>2026-04-07T07:07:30Z</time></trkpt><trkpt lat="45.559239536350354" lon="9.29052706983153"><ele>149.0</ele><time>2026-04-07T07:07:31Z</time></trkpt><trkpt lat="45.5592936250682" lon="9.290902351108802"><ele>148.0</ele><time>2026-04-07T07:07:32Z</time></trkpt><trkpt lat="45.559348805230066" lon="9.29127481632819"><ele>147.5</ele><time>2026-04-07T07:07:33Z</time></trkpt><trkpt lat="45.55940430258662" lon="9.291650324173814"><ele>147.0</ele><time>2026-04-07T07:07:34Z</time></trkpt><trkpt lat="45.55945764347976" lon="9.292023270422332"><ele>146.5</ele><time>2026-04-07T07:07:35Z</time></trkpt><trkpt lat="45.55950637824325" lon="9.29239441567218"><ele>146.0</ele><time>2026-04-07T07:07:36Z</time></trkpt><trkpt lat="45.559555207877786" lon="9.292765679378954"><ele>146.5</ele><time>2026-04-07T07:07:37Z</time></trkpt><trkpt lat="45.55960864837563" lon="9.29314064356243"><ele>147.0</ele><time>2026-04-07T07:07:38Z</time></trkpt><trkpt lat="45.55966547881623" lon="9.293505567227458"><ele>147.0</ele><time>2026-04-07T07:07:39Z</time></trkpt><trkpt lat="45.55972373723275" lon="9.293875689620663"><ele>147.0</ele><time>2026-04-07T07:07:40Z</time></trkpt><trkpt lat="45.55977803864979" lon="9.29425105533624"><ele>147.0</ele><time>2026-04-07T07:07:41Z</time></trkpt><trkpt lat="45.55983090955101" lon="9.294614735326803"><ele>147.0</ele><time>2026-04-07T07:07:42Z</time></trkpt><trkpt lat="45.55988635108294" lon="9.294993138782925"><ele>147.0</ele><time>2026-04-07T07:07:43Z</time></trkpt><trkpt lat="45.55993941253213" lon="9.295362208161729"><ele>147.0</ele><time>2026-04-07T07:07:44Z</time></trkpt><trkpt lat="45.55999147271362" lon="9.295734645063384"><ele>148.0</ele><time>2026-04-07T07:07:45Z</time></trkpt><trkpt lat="45.56004355701464" lon="9.29610329539219"><ele>149.0</ele><time>2026-04-07T07:07:46Z</time></trkpt><trkpt lat="45.56009543753237" lon="9.296478964641699"><ele>149.5</ele><time>2026-04-07T07:07:47Z</time></trkpt><trkpt lat="45.56015093567405" lon="9.296848283813068"><ele>150.0</ele><time>2026-04-07T07:07:48Z</time></trkpt><trkpt lat="45.56020881218821" lon="9.297225350144911"><ele>149.5</ele><time>2026-04-07T07:07:49Z</time></trkpt><trkpt lat="45.56026814572482" lon="9.297595779527652"><ele>149.0</ele><time>2026-04-07T07:07:50Z</time></trkpt><trkpt lat="45.560326681409265" lon="9.29796046286698"><ele>151.0</ele><time>2026-04-07T07:07:51Z</time></trkpt><trkpt lat="45.56038257303936" lon="9.29832704299718"><ele>153.0</ele><time>2026-04-07T07:07:52Z</time></trkpt><trkpt lat="45.560439702007194" lon="9.298696766786684"><ele>152.5</ele><time>2026-04-07T07:07:53Z</time></trkpt><trkpt lat="45.56049875702014" lon="9.299067041699743"><ele>152.0</ele><time>2026-04-07T07:07:54Z</time></trkpt><trkpt lat="45.56055989473033" lon="9.299434105381085"><ele>150.5</ele><time>2026-04-07T07:07:55Z</time></trkpt><trkpt lat="45.56062067260945" lon="9.299799315719618"><ele>149.0</ele><time>2026-04-07T07:07:56Z</time></trkpt><trkpt lat="45.560679993248584" lon="9.300171471690367"><ele>149.0</ele><time>2026-04-07T07:07:57Z</time></trkpt><trkpt lat="45.56074437815024" lon="9.300528217724041"><ele>149.0</ele><time>2026-04-07T07:07:58Z</time></trkpt><trkpt lat="45.560804381485276" lon="9.300902199207156"><ele>149.0</ele><time>2026-04-07T07:07:59Z</time></trkpt><trkpt lat="45.560863307777716" lon="9.301270919358512"><ele>149.0</ele><time>2026-04-07T07:08:00Z</time></trkpt><trkpt lat="45.56092311023523" lon="9.301642889450678"><ele>148.5</ele><time>2026-04-07T07:08:01Z</time></trkpt><trkpt lat="45.560982445884626" lon="9.30201390812402"><ele>148.0</ele><time>2026-04-07T07:08:02Z</time></trkpt><trkpt lat="45.56104225662034" lon="9.302384085333381"><ele>149.5</ele><time>2026-04-07T07:08:03Z</time></trkpt><trkpt lat="45.56110171881706" lon="9.302755837872276"><ele>151.0</ele><time>2026-04-07T07:08:04Z</time></trkpt><trkpt lat="45.56116027975072" lon="9.303127216770642"><ele>152.0</ele><time>2026-04-07T07:08:05Z</time></trkpt><trkpt lat="45.56121448445954" lon="9.303505933562107"><ele>153.0</ele><time>2026-04-07T07:08:06Z</time></trkpt><trkpt lat="45.561274403761864" lon="9.303873811713194"><ele>152.5</ele><time>2026-04-07T07:08:07Z</time></trkpt><trkpt lat="45.56133230096584" lon="9.304246375706162"><ele>152.0</ele><time>2026-04-07T07:08:08Z</time></trkpt><trkpt lat="45.561388579222324" lon="9.304621699309036"><ele>151.5</ele><time>2026-04-07T07:08:09Z</time></trkpt><trkpt lat="45.56144309994956" lon="9.304998899679317"><ele>151.0</ele><time>2026-04-07T07:08:10Z</time></trkpt><trkpt lat="45.56149744460345" lon="9.305377154995877"><ele>150.5</ele><time>2026-04-07T07:08:11Z</time></trkpt><trkpt lat="45.56155193264927" lon="9.305757742479196"><ele>150.0</ele><time>2026-04-07T07:08:12Z</time></trkpt><trkpt lat="45.56160764478975" lon="9.30613406535585"><ele>150.0</ele><time>2026-04-07T07:08:12.999Z</time></trkpt><trkpt lat="45.56166029735345" lon="9.306509853655061"><ele>150.0</ele><time>2026-04-07T07:08:13.999Z</time></trkpt><trkpt lat="45.56171175837038" lon="9.30688661158529"><ele>150.5</ele><time>2026-04-07T07:08:14.999Z</time></trkpt><trkpt lat="45.56176813413068" lon="9.307252572758435"><ele>151.0</ele><time>2026-04-07T07:08:15.999Z</time></trkpt><trkpt lat="45.56182214713061" lon="9.307622838345983"><ele>151.0</ele><time>2026-04-07T07:08:16.999Z</time></trkpt><trkpt lat="45.56187514488726" lon="9.307993290436592"><ele>151.0</ele><time>2026-04-07T07:08:17.999Z</time></trkpt><trkpt lat="45.56193169667473" lon="9.308354656650794"><ele>151.0</ele><time>2026-04-07T07:08:18.999Z</time></trkpt><trkpt lat="45.5619864934224" lon="9.308723205050086"><ele>151.0</ele><time>2026-04-07T07:08:19.999Z</time></trkpt><trkpt lat="45.562042473984405" lon="9.309088570180586"><ele>151.0</ele><time>2026-04-07T07:08:20.999Z</time></trkpt><trkpt lat="45.56209587287221" lon="9.309458134552706"><ele>151.0</ele><time>2026-04-07T07:08:21.999Z</time></trkpt><trkpt lat="45.56214989047371" lon="9.309823944791734"><ele>150.5</ele><time>2026-04-07T07:08:22.999Z</time></trkpt><trkpt lat="45.56221018643883" lon="9.310182382091504"><ele>150.0</ele><time>2026-04-07T07:08:23.999Z</time></trkpt><trkpt lat="45.56226508925201" lon="9.310551777233949"><ele>151.0</ele><time>2026-04-07T07:08:24.999Z</time></trkpt><trkpt lat="45.56232140551451" lon="9.310918227781615"><ele>152.0</ele><time>2026-04-07T07:08:25.999Z</time></trkpt><trkpt lat="45.562378033526386" lon="9.311282099088565"><ele>152.5</ele><time>2026-04-07T07:08:26.999Z</time></trkpt><trkpt lat="45.56243128671333" lon="9.31165161691316"><ele>153.0</ele><time>2026-04-07T07:08:27.999Z</time></trkpt><trkpt lat="45.562485414734624" lon="9.31201858808066"><ele>153.0</ele><time>2026-04-07T07:08:28.999Z</time></trkpt><trkpt lat="45.56253846472607" lon="9.31238880686325"><ele>153.0</ele><time>2026-04-07T07:08:29.999Z</time></trkpt><trkpt lat="45.56259270155556" lon="9.312760686706456"><ele>152.0</ele><time>2026-04-07T07:08:30.999Z</time></trkpt><trkpt lat="45.56265232564247" lon="9.313129045178982"><ele>151.0</ele><time>2026-04-07T07:08:31.999Z</time></trkpt><trkpt lat="45.56271659568655" lon="9.313496727344376"><ele>151.0</ele><time>2026-04-07T07:08:32.999Z</time></trkpt><trkpt lat="45.562777459930096" lon="9.313866128185227"><ele>151.0</ele><time>2026-04-07T07:08:33.999Z</time></trkpt><trkpt lat="45.56282988692588" lon="9.31424727331509"><ele>150.5</ele><time>2026-04-07T07:08:34.999Z</time></trkpt><trkpt lat="45.56288138289425" lon="9.31461477594018"><ele>150.0</ele><time>2026-04-07T07:08:35.999Z</time></trkpt><trkpt lat="45.56293024817251" lon="9.314991856339251"><ele>150.0</ele><time>2026-04-07T07:08:36.999Z</time></trkpt><trkpt lat="45.562980772513185" lon="9.31536299135504"><ele>150.0</ele><time>2026-04-07T07:08:37.999Z</time></trkpt><trkpt lat="45.56302939384884" lon="9.315737240996883"><ele>150.0</ele><time>2026-04-07T07:08:38.999Z</time></trkpt><trkpt lat="45.56307827976997" lon="9.316110314184167"><ele>150.0</ele><time>2026-04-07T07:08:39.999Z</time></trkpt><trkpt lat="45.56312988571206" lon="9.316479656269498"><ele>150.0</ele><time>2026-04-07T07:08:40.999Z</time></trkpt><trkpt lat="45.56318428460484" lon="9.316853320002759"><ele>150.0</ele><time>2026-04-07T07:08:41.999Z</time></trkpt><trkpt lat="45.56324554991613" lon="9.317216251317863"><ele>151.0</ele><time>2026-04-07T07:08:42.999Z</time></trkpt><trkpt lat="45.563303428387115" lon="9.31759179439541"><ele>152.0</ele><time>2026-04-07T07:08:43.999Z</time></trkpt><trkpt lat="45.56336084753522" lon="9.31796192982907"><ele>152.5</ele><time>2026-04-07T07:08:44.999Z</time></trkpt><trkpt lat="45.56341914236343" lon="9.318327172395641"><ele>153.0</ele><time>2026-04-07T07:08:45.999Z</time></trkpt><trkpt lat="45.56347505679561" lon="9.31869852962683"><ele>152.0</ele><time>2026-04-07T07:08:46.999Z</time></trkpt><trkpt lat="45.56353353811583" lon="9.319062566007874"><ele>151.0</ele><time>2026-04-07T07:08:47.999Z</time></trkpt><trkpt lat="45.563588944027224" lon="9.319436569902502"><ele>151.0</ele><time>2026-04-07T07:08:48.999Z</time></trkpt><trkpt lat="45.56364373183171" lon="9.319808423081142"><ele>151.0</ele><time>2026-04-07T07:08:49.999Z</time></trkpt><trkpt lat="45.563697790070144" lon="9.320180461034342"><ele>152.0</ele><time>2026-04-07T07:08:50.999Z</time></trkpt><trkpt lat="45.563753053141994" lon="9.320553525165682"><ele>153.0</ele><time>2026-04-07T07:08:51.999Z</time></trkpt><trkpt lat="45.563810439825474" lon="9.320922595682983"><ele>153.0</ele><time>2026-04-07T07:08:52.999Z</time></trkpt><trkpt lat="45.56386582506153" lon="9.32129791748025"><ele>153.0</ele><time>2026-04-07T07:08:53.999Z</time></trkpt><trkpt lat="45.56392036941502" lon="9.321668352567862"><ele>153.0</ele><time>2026-04-07T07:08:54.999Z</time></trkpt><trkpt lat="45.56397631009302" lon="9.322033169093691"><ele>153.0</ele><time>2026-04-07T07:08:55.999Z</time></trkpt><trkpt lat="45.56403091034015" lon="9.322416304321006"><ele>153.0</ele><time>2026-04-07T07:08:56.999Z</time></trkpt><trkpt lat="45.56408810792035" lon="9.322783537433804"><ele>153.0</ele><time>2026-04-07T07:08:58Z</time></trkpt><trkpt lat="45.56414298672061" lon="9.323163169935368"><ele>152.5</ele><time>2026-04-07T07:08:59Z</time></trkpt><trkpt lat="45.56419922763407" lon="9.323530214129722"><ele>152.0</ele><time>2026-04-07T07:09:00Z</time></trkpt><trkpt lat="45.564257601304355" lon="9.32389639859582"><ele>151.5</ele><time>2026-04-07T07:09:01Z</time></trkpt><trkpt lat="45.564311329495496" lon="9.324266441866556"><ele>151.0</ele><time>2026-04-07T07:09:02Z</time></trkpt><trkpt lat="45.56436762592141" lon="9.324638025414316"><ele>152.5</ele><time>2026-04-07T07:09:03Z</time></trkpt><trkpt lat="45.5644237132704" lon="9.325008792497405"><ele>154.0</ele><time>2026-04-07T07:09:04Z</time></trkpt><trkpt lat="45.564477271379914" lon="9.325384251568368"><ele>154.0</ele><time>2026-04-07T07:09:05Z</time></trkpt><trkpt lat="45.56453330494567" lon="9.325759075199535"><ele>154.0</ele><time>2026-04-07T07:09:06Z</time></trkpt><trkpt lat="45.564589951091094" lon="9.326129159343028"><ele>153.5</ele><time>2026-04-07T07:09:07Z</time></trkpt><trkpt lat="45.564643084239364" lon="9.32650434320349"><ele>153.0</ele><time>2026-04-07T07:09:08Z</time></trkpt><trkpt lat="45.564698257963016" lon="9.32687623558655"><ele>154.0</ele><time>2026-04-07T07:09:09Z</time></trkpt><trkpt lat="45.564756345647424" lon="9.327242332600036"><ele>155.0</ele><time>2026-04-07T07:09:10Z</time></trkpt><trkpt lat="45.56481527453484" lon="9.327609100683441"><ele>155.0</ele><time>2026-04-07T07:09:11Z</time></trkpt><trkpt lat="45.56487595973433" lon="9.327972033852738"><ele>155.0</ele><time>2026-04-07T07:09:12Z</time></trkpt><trkpt lat="45.56493805370767" lon="9.328320788238146"><ele>154.0</ele><time>2026-04-07T07:09:13Z</time></trkpt><trkpt lat="45.56498307114162" lon="9.328720875366718"><ele>153.0</ele><time>2026-04-07T07:09:14Z</time></trkpt><trkpt lat="45.565036522089116" lon="9.329093532657078"><ele>153.0</ele><time>2026-04-07T07:09:15Z</time></trkpt><trkpt lat="45.56509036042141" lon="9.329466173303873"><ele>153.0</ele><time>2026-04-07T07:09:16Z</time></trkpt><trkpt lat="45.56514352018722" lon="9.329831366272458"><ele>153.0</ele><time>2026-04-07T07:09:17Z</time></trkpt><trkpt lat="45.565198056583284" lon="9.330204537303716"><ele>153.0</ele><time>2026-04-07T07:09:18Z</time></trkpt><trkpt lat="45.5652510679521" lon="9.33057491653995"><ele>153.0</ele><time>2026-04-07T07:09:19Z</time></trkpt><trkpt lat="45.56530625689858" lon="9.33095049589526"><ele>153.0</ele><time>2026-04-07T07:09:20Z</time></trkpt><trkpt lat="45.5653610670303" lon="9.331316974149347"><ele>155.0</ele><time>2026-04-07T07:09:21Z</time></trkpt><trkpt lat="45.56541388378877" lon="9.33168490112956"><ele>157.0</ele><time>2026-04-07T07:09:22Z</time></trkpt><trkpt lat="45.56546918966173" lon="9.33204994932884"><ele>156.5</ele><time>2026-04-07T07:09:23Z</time></trkpt><trkpt lat="45.565526036103336" lon="9.332418658268042"><ele>156.0</ele><time>2026-04-07T07:09:24Z</time></trkpt><trkpt lat="45.56558281687807" lon="9.332789144403833"><ele>156.0</ele><time>2026-04-07T07:09:25Z</time></trkpt><trkpt lat="45.565635586039505" lon="9.333161578422851"><ele>156.0</ele><time>2026-04-07T07:09:26Z</time></trkpt><trkpt lat="45.565680815407696" lon="9.333530023107015"><ele>157.5</ele><time>2026-04-07T07:09:27Z</time></trkpt><trkpt lat="45.565728054556814" lon="9.333899918811074"><ele>159.0</ele><time>2026-04-07T07:09:28Z</time></trkpt><trkpt lat="45.56578723879593" lon="9.33426615109357"><ele>159.0</ele><time>2026-04-07T07:09:29Z</time></trkpt><trkpt lat="45.565840474040165" lon="9.33463849708585"><ele>159.0</ele><time>2026-04-07T07:09:30Z</time></trkpt><trkpt lat="45.565899918284764" lon="9.335010235571085"><ele>159.0</ele><time>2026-04-07T07:09:31Z</time></trkpt><trkpt lat="45.565960310514235" lon="9.335380710430409"><ele>159.0</ele><time>2026-04-07T07:09:32Z</time></trkpt><trkpt lat="45.56601774338055" lon="9.335753551686572"><ele>159.0</ele><time>2026-04-07T07:09:33Z</time></trkpt><trkpt lat="45.56607414381952" lon="9.336127575784142"><ele>159.0</ele><time>2026-04-07T07:09:34Z</time></trkpt><trkpt lat="45.566127168820934" lon="9.336475318812614"><ele>158.5</ele><time>2026-04-07T07:09:35Z</time></trkpt><trkpt lat="45.566165774586594" lon="9.33688607613237"><ele>158.0</ele><time>2026-04-07T07:09:36Z</time></trkpt><trkpt lat="45.56623090343309" lon="9.33725480023049"><ele>158.0</ele><time>2026-04-07T07:09:37Z</time></trkpt><trkpt lat="45.566286137498196" lon="9.337628663130223"><ele>158.0</ele><time>2026-04-07T07:09:38Z</time></trkpt><trkpt lat="45.5663443013723" lon="9.338000955256467"><ele>157.5</ele><time>2026-04-07T07:09:39Z</time></trkpt><trkpt lat="45.566398649950244" lon="9.33837312117199"><ele>157.0</ele><time>2026-04-07T07:09:40Z</time></trkpt><trkpt lat="45.56645308804298" lon="9.338743302293508"><ele>157.0</ele><time>2026-04-07T07:09:41Z</time></trkpt><trkpt lat="45.566509649535156" lon="9.339113655753785"><ele>157.0</ele><time>2026-04-07T07:09:42Z</time></trkpt><trkpt lat="45.566562870176945" lon="9.33948388724445"><ele>157.5</ele><time>2026-04-07T07:09:43Z</time></trkpt><trkpt lat="45.566607073936936" lon="9.339855483863285"><ele>158.0</ele><time>2026-04-07T07:09:44Z</time></trkpt><trkpt lat="45.566659564383535" lon="9.340225960475204"><ele>158.0</ele><time>2026-04-07T07:09:45Z</time></trkpt><trkpt lat="45.56671510237362" lon="9.340597277735254"><ele>158.0</ele><time>2026-04-07T07:09:46Z</time></trkpt><trkpt lat="45.566767257097425" lon="9.34096871295408"><ele>158.0</ele><time>2026-04-07T07:09:47Z</time></trkpt><trkpt lat="45.56682018705507" lon="9.341335820509435"><ele>158.0</ele><time>2026-04-07T07:09:48Z</time></trkpt><trkpt lat="45.56687636964197" lon="9.341704901922657"><ele>158.0</ele><time>2026-04-07T07:09:49Z</time></trkpt><trkpt lat="45.56693073952715" lon="9.342072627713616"><ele>158.0</ele><time>2026-04-07T07:09:50Z</time></trkpt><trkpt lat="45.56698172161854" lon="9.342427841772928"><ele>157.0</ele><time>2026-04-07T07:09:51Z</time></trkpt><trkpt lat="45.567044249536494" lon="9.342811963275315"><ele>156.0</ele><time>2026-04-07T07:09:52Z</time></trkpt><trkpt lat="45.56710042234736" lon="9.343181397597602"><ele>156.0</ele><time>2026-04-07T07:09:53Z</time></trkpt><trkpt lat="45.567160539488256" lon="9.343550166475756"><ele>156.0</ele><time>2026-04-07T07:09:54Z</time></trkpt><trkpt lat="45.5672126216552" lon="9.343920367904252"><ele>156.0</ele><time>2026-04-07T07:09:55Z</time></trkpt><trkpt lat="45.567272654016094" lon="9.344292368812821"><ele>156.0</ele><time>2026-04-07T07:09:56Z</time></trkpt><trkpt lat="45.567323669275076" lon="9.344662533105522"><ele>156.5</ele><time>2026-04-07T07:09:57Z</time></trkpt><trkpt lat="45.567376145288044" lon="9.345034435029305"><ele>157.0</ele><time>2026-04-07T07:09:58Z</time></trkpt><trkpt lat="45.56743153688858" lon="9.345406075157195"><ele>157.5</ele><time>2026-04-07T07:09:59Z</time></trkpt><trkpt lat="45.567481977907455" lon="9.345776612894094"><ele>158.0</ele><time>2026-04-07T07:10:00Z</time></trkpt><trkpt lat="45.567545353245286" lon="9.34615177303274"><ele>159.0</ele><time>2026-04-07T07:10:01Z</time></trkpt><trkpt lat="45.567597236964346" lon="9.346521416555825"><ele>160.0</ele><time>2026-04-07T07:10:02Z</time></trkpt><trkpt lat="45.56765986238987" lon="9.346891894086761"><ele>159.5</ele><time>2026-04-07T07:10:03Z</time></trkpt><trkpt lat="45.56771010096619" lon="9.347257438972381"><ele>159.0</ele><time>2026-04-07T07:10:04Z</time></trkpt><trkpt lat="45.56774662852543" lon="9.347636635301177"><ele>159.0</ele><time>2026-04-07T07:10:05Z</time></trkpt><trkpt lat="45.56780705500795" lon="9.348003255685176"><ele>159.0</ele><time>2026-04-07T07:10:06Z</time></trkpt><trkpt lat="45.56786061412866" lon="9.348372011450126"><ele>159.5</ele><time>2026-04-07T07:10:07Z</time></trkpt><trkpt lat="45.56790291009049" lon="9.348739461799564"><ele>160.0</ele><time>2026-04-07T07:10:08Z</time></trkpt><trkpt lat="45.567961881608085" lon="9.349115902764138"><ele>160.0</ele><time>2026-04-07T07:10:09Z</time></trkpt><trkpt lat="45.568009356684435" lon="9.349485351996478"><ele>160.0</ele><time>2026-04-07T07:10:10Z</time></trkpt><trkpt lat="45.568066310961505" lon="9.349851442741777"><ele>160.5</ele><time>2026-04-07T07:10:10.999Z</time></trkpt><trkpt lat="45.56811836880291" lon="9.350223362406249"><ele>161.0</ele><time>2026-04-07T07:10:11.999Z</time></trkpt><trkpt lat="45.568164871230316" lon="9.350595779788131"><ele>161.0</ele><time>2026-04-07T07:10:12.999Z</time></trkpt><trkpt lat="45.56822085376616" lon="9.350969798319632"><ele>161.0</ele><time>2026-04-07T07:10:13.999Z</time></trkpt><trkpt lat="45.5682765353186" lon="9.351343126017888"><ele>160.5</ele><time>2026-04-07T07:10:14.999Z</time></trkpt><trkpt lat="45.56833612674384" lon="9.351716685639774"><ele>160.0</ele><time>2026-04-07T07:10:15.999Z</time></trkpt><trkpt lat="45.568378667289466" lon="9.35209315643027"><ele>159.5</ele><time>2026-04-07T07:10:16.999Z</time></trkpt><trkpt lat="45.568442142765406" lon="9.352463524216184"><ele>159.0</ele><time>2026-04-07T07:10:17.999Z</time></trkpt><trkpt lat="45.56849849331802" lon="9.352835314499277"><ele>160.5</ele><time>2026-04-07T07:10:18.999Z</time></trkpt><trkpt lat="45.56855024479873" lon="9.353208755347817"><ele>162.0</ele><time>2026-04-07T07:10:19.999Z</time></trkpt><trkpt lat="45.56860463417638" lon="9.353579416739072"><ele>162.5</ele><time>2026-04-07T07:10:20.999Z</time></trkpt><trkpt lat="45.56865936646706" lon="9.353949064749193"><ele>163.0</ele><time>2026-04-07T07:10:21.999Z</time></trkpt><trkpt lat="45.5687109305018" lon="9.354320742041772"><ele>163.0</ele><time>2026-04-07T07:10:22.999Z</time></trkpt><trkpt lat="45.56876937611932" lon="9.354691368500685"><ele>163.0</ele><time>2026-04-07T07:10:23.999Z</time></trkpt><trkpt lat="45.56882190224431" lon="9.355062128581421"><ele>162.0</ele><time>2026-04-07T07:10:24.999Z</time></trkpt><trkpt lat="45.56887611433949" lon="9.355432945568984"><ele>161.0</ele><time>2026-04-07T07:10:25.999Z</time></trkpt><trkpt lat="45.568926655330934" lon="9.355803073042095"><ele>160.5</ele><time>2026-04-07T07:10:26.999Z</time></trkpt><trkpt lat="45.56897986934495" lon="9.356175015255545"><ele>160.0</ele><time>2026-04-07T07:10:27.999Z</time></trkpt><trkpt lat="45.569032496901876" lon="9.356545393524703"><ele>159.5</ele><time>2026-04-07T07:10:28.999Z</time></trkpt><trkpt lat="45.569082504470515" lon="9.356916454238164"><ele>159.0</ele><time>2026-04-07T07:10:29.999Z</time></trkpt><trkpt lat="45.56913827045437" lon="9.357288223131986"><ele>158.5</ele><time>2026-04-07T07:10:30.999Z</time></trkpt><trkpt lat="45.56919495850018" lon="9.35765897459332"><ele>158.0</ele><time>2026-04-07T07:10:31.999Z</time></trkpt><trkpt lat="45.56925036765912" lon="9.358029765168007"><ele>159.5</ele><time>2026-04-07T07:10:32.999Z</time></trkpt><trkpt lat="45.569307341873824" lon="9.358400435433387"><ele>161.0</ele><time>2026-04-07T07:10:33.999Z</time></trkpt><trkpt lat="45.569359398802106" lon="9.358770270728447"><ele>161.0</ele><time>2026-04-07T07:10:34.999Z</time></trkpt><trkpt lat="45.56941414232009" lon="9.35914074689304"><ele>161.0</ele><time>2026-04-07T07:10:35.999Z</time></trkpt><trkpt lat="45.56946548339681" lon="9.359510381785427"><ele>161.5</ele><time>2026-04-07T07:10:36.999Z</time></trkpt><trkpt lat="45.569524740280215" lon="9.359883499752097"><ele>162.0</ele><time>2026-04-07T07:10:37.999Z</time></trkpt><trkpt lat="45.56958025278012" lon="9.36025520757955"><ele>161.0</ele><time>2026-04-07T07:10:38.999Z</time></trkpt><trkpt lat="45.569637957419175" lon="9.360627765119185"><ele>160.0</ele><time>2026-04-07T07:10:39.999Z</time></trkpt><trkpt lat="45.569688760480325" lon="9.360995051144107"><ele>160.0</ele><time>2026-04-07T07:10:40.999Z</time></trkpt><trkpt lat="45.56975014291638" lon="9.361370042409307"><ele>160.0</ele><time>2026-04-07T07:10:41.999Z</time></trkpt><trkpt lat="45.56979935465698" lon="9.361733760714245"><ele>160.0</ele><time>2026-04-07T07:10:42.999Z</time></trkpt><trkpt lat="45.569859553955084" lon="9.36210465337357"><ele>160.0</ele><time>2026-04-07T07:10:43.999Z</time></trkpt><trkpt lat="45.56991232545646" lon="9.362471966500708"><ele>161.0</ele><time>2026-04-07T07:10:44.999Z</time></trkpt><trkpt lat="45.56997320461273" lon="9.362842436933672"><ele>162.0</ele><time>2026-04-07T07:10:45.999Z</time></trkpt><trkpt lat="45.57003134954674" lon="9.363212602994961"><ele>162.0</ele><time>2026-04-07T07:10:46.999Z</time></trkpt><trkpt lat="45.570094250759354" lon="9.363586362826592"><ele>162.0</ele><time>2026-04-07T07:10:47.999Z</time></trkpt><trkpt lat="45.570149352199756" lon="9.363959934648502"><ele>162.0</ele><time>2026-04-07T07:10:48.999Z</time></trkpt><trkpt lat="45.57020135853466" lon="9.36433329591489"><ele>162.0</ele><time>2026-04-07T07:10:49.999Z</time></trkpt><trkpt lat="45.57025312857841" lon="9.364704982212803"><ele>161.5</ele><time>2026-04-07T07:10:50.999Z</time></trkpt><trkpt lat="45.57032287696734" lon="9.365077895656922"><ele>161.0</ele><time>2026-04-07T07:10:51.999Z</time></trkpt><trkpt lat="45.57038079103902" lon="9.365449696009994"><ele>163.5</ele><time>2026-04-07T07:10:52.999Z</time></trkpt><trkpt lat="45.57043881468479" lon="9.365821714575793"><ele>166.0</ele><time>2026-04-07T07:10:53.999Z</time></trkpt><trkpt lat="45.57048762746953" lon="9.366194103991171"><ele>165.5</ele><time>2026-04-07T07:10:54.999Z</time></trkpt><trkpt lat="45.57053723036818" lon="9.366566060137606"><ele>165.0</ele><time>2026-04-07T07:10:55.999Z</time></trkpt><trkpt lat="45.57059344149896" lon="9.366940627030568"><ele>164.5</ele><time>2026-04-07T07:10:56.999Z</time></trkpt><trkpt lat="45.57065073928011" lon="9.367309431753"><ele>164.0</ele><time>2026-04-07T07:10:57.999Z</time></trkpt><trkpt lat="45.57070716227948" lon="9.367677885414283"><ele>163.5</ele><time>2026-04-07T07:10:58.999Z</time></trkpt><trkpt lat="45.5707677865379" lon="9.368047734005302"><ele>163.0</ele><time>2026-04-07T07:10:59.999Z</time></trkpt><trkpt lat="45.570827487406795" lon="9.368417447613183"><ele>163.0</ele><time>2026-04-07T07:11:00.999Z</time></trkpt><trkpt lat="45.570887450749666" lon="9.368786539687537"><ele>163.0</ele><time>2026-04-07T07:11:01.999Z</time></trkpt><trkpt lat="45.570945341334905" lon="9.369156099385746"><ele>163.5</ele><time>2026-04-07T07:11:02.999Z</time></trkpt><trkpt lat="45.57099844030192" lon="9.369523109231682"><ele>164.0</ele><time>2026-04-07T07:11:04Z</time></trkpt><trkpt lat="45.571058207461405" lon="9.369896492189978"><ele>164.0</ele><time>2026-04-07T07:11:05Z</time></trkpt><trkpt lat="45.57111445302763" lon="9.370264104104924"><ele>164.0</ele><time>2026-04-07T07:11:06Z</time></trkpt><trkpt lat="45.571175049387115" lon="9.370634416429269"><ele>164.0</ele><time>2026-04-07T07:11:07Z</time></trkpt><trkpt lat="45.57123360283843" lon="9.371002913880453"><ele>164.0</ele><time>2026-04-07T07:11:08Z</time></trkpt><trkpt lat="45.571292000070635" lon="9.371374133886668"><ele>163.5</ele><time>2026-04-07T07:11:09Z</time></trkpt><trkpt lat="45.571345627957776" lon="9.3717424140058"><ele>163.0</ele><time>2026-04-07T07:11:10Z</time></trkpt><trkpt lat="45.57140316247925" lon="9.372114893264841"><ele>163.5</ele><time>2026-04-07T07:11:11Z</time></trkpt><trkpt lat="45.57145689027319" lon="9.37248508879214"><ele>164.0</ele><time>2026-04-07T07:11:12Z</time></trkpt><trkpt lat="45.571506150882314" lon="9.372860008445953"><ele>163.5</ele><time>2026-04-07T07:11:13Z</time></trkpt><trkpt lat="45.571553864080734" lon="9.37324011740683"><ele>163.0</ele><time>2026-04-07T07:11:14Z</time></trkpt><trkpt lat="45.571606498013274" lon="9.373614400224607"><ele>162.0</ele><time>2026-04-07T07:11:15Z</time></trkpt><trkpt lat="45.57166154357066" lon="9.373979471637204"><ele>161.0</ele><time>2026-04-07T07:11:16Z</time></trkpt><trkpt lat="45.571718152343514" lon="9.374348440934817"><ele>162.0</ele><time>2026-04-07T07:11:17Z</time></trkpt><trkpt lat="45.57177062323778" lon="9.374713861876916"><ele>163.0</ele><time>2026-04-07T07:11:18Z</time></trkpt><trkpt lat="45.57182557196994" lon="9.37508730982705"><ele>163.0</ele><time>2026-04-07T07:11:19Z</time></trkpt><trkpt lat="45.5718793115403" lon="9.375457448825413"><ele>163.0</ele><time>2026-04-07T07:11:20Z</time></trkpt><trkpt lat="45.57193360744784" lon="9.375827225870859"><ele>163.5</ele><time>2026-04-07T07:11:21Z</time></trkpt><trkpt lat="45.571990485143225" lon="9.37620161672338"><ele>164.0</ele><time>2026-04-07T07:11:22Z</time></trkpt><trkpt lat="45.57204334561927" lon="9.376571007405166"><ele>163.0</ele><time>2026-04-07T07:11:23Z</time></trkpt><trkpt lat="45.57209751604584" lon="9.376943282155924"><ele>162.0</ele><time>2026-04-07T07:11:24Z</time></trkpt><trkpt lat="45.572152132089485" lon="9.377313840806083"><ele>162.0</ele><time>2026-04-07T07:11:25Z</time></trkpt><trkpt lat="45.57220560487822" lon="9.377683207437581"><ele>162.0</ele><time>2026-04-07T07:11:26Z</time></trkpt><trkpt lat="45.57225959177511" lon="9.37805613915753"><ele>162.0</ele><time>2026-04-07T07:11:27Z</time></trkpt><trkpt lat="45.572312087144546" lon="9.378427773845045"><ele>162.0</ele><time>2026-04-07T07:11:28Z</time></trkpt><trkpt lat="45.572362208873336" lon="9.37880073590013"><ele>161.0</ele><time>2026-04-07T07:11:29Z</time></trkpt><trkpt lat="45.57241100550121" lon="9.379165238464882"><ele>160.0</ele><time>2026-04-07T07:11:30Z</time></trkpt><trkpt lat="45.5724659485476" lon="9.379537028565471"><ele>161.0</ele><time>2026-04-07T07:11:31Z</time></trkpt><trkpt lat="45.57251819896079" lon="9.379900848614136"><ele>162.0</ele><time>2026-04-07T07:11:32Z</time></trkpt><trkpt lat="45.57257649423801" lon="9.380273782118946"><ele>162.5</ele><time>2026-04-07T07:11:33Z</time></trkpt><trkpt lat="45.572633975857535" lon="9.380645102820395"><ele>163.0</ele><time>2026-04-07T07:11:34Z</time></trkpt><trkpt lat="45.572690337686645" lon="9.381015362531837"><ele>163.0</ele><time>2026-04-07T07:11:35Z</time></trkpt><trkpt lat="45.57274707106482" lon="9.381382674595187"><ele>163.0</ele><time>2026-04-07T07:11:36Z</time></trkpt><trkpt lat="45.57280657860262" lon="9.381756014692062"><ele>163.5</ele><time>2026-04-07T07:11:37Z</time></trkpt><trkpt lat="45.57286185232615" lon="9.382126198240224"><ele>164.0</ele><time>2026-04-07T07:11:38Z</time></trkpt><trkpt lat="45.57291571811052" lon="9.382496504472918"><ele>162.5</ele><time>2026-04-07T07:11:39Z</time></trkpt><trkpt lat="45.57297101603809" lon="9.382868845452753"><ele>161.0</ele><time>2026-04-07T07:11:40Z</time></trkpt><trkpt lat="45.57302418098114" lon="9.383239981883458"><ele>160.5</ele><time>2026-04-07T07:11:41Z</time></trkpt><trkpt lat="45.573072632833366" lon="9.383601207755397"><ele>160.0</ele><time>2026-04-07T07:11:42Z</time></trkpt><trkpt lat="45.573132846505196" lon="9.38397878289364"><ele>162.0</ele><time>2026-04-07T07:11:43Z</time></trkpt><trkpt lat="45.573186637480035" lon="9.38434694889604"><ele>164.0</ele><time>2026-04-07T07:11:44Z</time></trkpt><trkpt lat="45.57323899216992" lon="9.384717239077935"><ele>164.0</ele><time>2026-04-07T07:11:45Z</time></trkpt><trkpt lat="45.57329324801066" lon="9.385093553515144"><ele>164.0</ele><time>2026-04-07T07:11:46Z</time></trkpt><trkpt lat="45.57334476365653" lon="9.385460279816288"><ele>162.5</ele><time>2026-04-07T07:11:47Z</time></trkpt><trkpt lat="45.57339964930821" lon="9.385831906704167"><ele>161.0</ele><time>2026-04-07T07:11:48Z</time></trkpt><trkpt lat="45.573453752468296" lon="9.386204025212589"><ele>160.5</ele><time>2026-04-07T07:11:49Z</time></trkpt><trkpt lat="45.57351053546247" lon="9.386577855999082"><ele>160.0</ele><time>2026-04-07T07:11:50Z</time></trkpt><trkpt lat="45.57356559344479" lon="9.386946229117436"><ele>159.5</ele><time>2026-04-07T07:11:51Z</time></trkpt><trkpt lat="45.573618958106984" lon="9.387315267440728"><ele>159.0</ele><time>2026-04-07T07:11:52Z</time></trkpt><trkpt lat="45.57366833418502" lon="9.387681982117243"><ele>160.5</ele><time>2026-04-07T07:11:53Z</time></trkpt><trkpt lat="45.57371542287383" lon="9.388061703795067"><ele>162.0</ele><time>2026-04-07T07:11:54Z</time></trkpt><trkpt lat="45.57376277169324" lon="9.388435994716845"><ele>162.0</ele><time>2026-04-07T07:11:55Z</time></trkpt><trkpt lat="45.57380774526129" lon="9.388815601947778"><ele>162.0</ele><time>2026-04-07T07:11:56Z</time></trkpt><trkpt lat="45.57385203518145" lon="9.389190492780433"><ele>162.5</ele><time>2026-04-07T07:11:57Z</time></trkpt><trkpt lat="45.573904051151146" lon="9.389554154372686"><ele>163.0</ele><time>2026-04-07T07:11:58Z</time></trkpt><trkpt lat="45.57396317816876" lon="9.389925089139252"><ele>163.0</ele><time>2026-04-07T07:11:59Z</time></trkpt><trkpt lat="45.57402674016986" lon="9.390292247896465"><ele>163.0</ele><time>2026-04-07T07:12:00Z</time></trkpt><trkpt lat="45.574090491258076" lon="9.390657365123005"><ele>163.0</ele><time>2026-04-07T07:12:01Z</time></trkpt><trkpt lat="45.5741494380494" lon="9.39101526803487"><ele>163.0</ele><time>2026-04-07T07:12:02Z</time></trkpt><trkpt lat="45.57422736127825" lon="9.391400651580692"><ele>163.0</ele><time>2026-04-07T07:12:03Z</time></trkpt><trkpt lat="45.57429156178294" lon="9.391765603325135"><ele>163.0</ele><time>2026-04-07T07:12:04Z</time></trkpt><trkpt lat="45.574355864726094" lon="9.392132826690055"><ele>161.0</ele><time>2026-04-07T07:12:05Z</time></trkpt><trkpt lat="45.574413268506376" lon="9.392498315033198"><ele>159.0</ele><time>2026-04-07T07:12:06Z</time></trkpt><trkpt lat="45.574477747091784" lon="9.392866010513462"><ele>160.5</ele><time>2026-04-07T07:12:07Z</time></trkpt><trkpt lat="45.57454656976178" lon="9.393235047798328"><ele>162.0</ele><time>2026-04-07T07:12:08Z</time></trkpt><trkpt lat="45.57461660881533" lon="9.393602451630962"><ele>162.5</ele><time>2026-04-07T07:12:09Z</time></trkpt><trkpt lat="45.574690734781356" lon="9.393966786270711"><ele>163.0</ele><time>2026-04-07T07:12:10Z</time></trkpt><trkpt lat="45.57476512379977" lon="9.394341711271629"><ele>163.0</ele><time>2026-04-07T07:12:11Z</time></trkpt><trkpt lat="45.574836579630734" lon="9.394723172002488"><ele>163.0</ele><time>2026-04-07T07:12:12Z</time></trkpt><trkpt lat="45.57490902349447" lon="9.39506662299006"><ele>163.0</ele><time>2026-04-07T07:12:13Z</time></trkpt><trkpt lat="45.57497469187398" lon="9.39542764190607"><ele>163.0</ele><time>2026-04-07T07:12:14Z</time></trkpt><trkpt lat="45.5750326379719" lon="9.395792574607965"><ele>163.0</ele><time>2026-04-07T07:12:15Z</time></trkpt><trkpt lat="45.575084734239425" lon="9.39615853115066"><ele>163.0</ele><time>2026-04-07T07:12:16Z</time></trkpt><trkpt lat="45.57517238317966" lon="9.396518626808598"><ele>163.0</ele><time>2026-04-07T07:12:16.999Z</time></trkpt><trkpt lat="45.5752401935787" lon="9.396888905007657"><ele>163.0</ele><time>2026-04-07T07:12:17.999Z</time></trkpt><trkpt lat="45.5753170185662" lon="9.397247092540512"><ele>163.5</ele><time>2026-04-07T07:12:18.999Z</time></trkpt><trkpt lat="45.575389072181366" lon="9.397611137908155"><ele>164.0</ele><time>2026-04-07T07:12:19.999Z</time></trkpt><trkpt lat="45.5754589556435" lon="9.397979941358614"><ele>163.5</ele><time>2026-04-07T07:12:20.999Z</time></trkpt><trkpt lat="45.57553119726799" lon="9.398344151418934"><ele>163.0</ele><time>2026-04-07T07:12:21.999Z</time></trkpt><trkpt lat="45.57560565858546" lon="9.398708865989295"><ele>165.0</ele><time>2026-04-07T07:12:22.999Z</time></trkpt><trkpt lat="45.575682308096816" lon="9.399075533781984"><ele>167.0</ele><time>2026-04-07T07:12:23.999Z</time></trkpt><trkpt lat="45.57575715379329" lon="9.399438871052132"><ele>166.5</ele><time>2026-04-07T07:12:24.999Z</time></trkpt><trkpt lat="45.575833043100545" lon="9.399801762578049"><ele>166.0</ele><time>2026-04-07T07:12:25.999Z</time></trkpt><trkpt lat="45.57590105558676" lon="9.40016129811906"><ele>165.5</ele><time>2026-04-07T07:12:26.999Z</time></trkpt><trkpt lat="45.57597005882265" lon="9.40053156857165"><ele>165.0</ele><time>2026-04-07T07:12:27.999Z</time></trkpt><trkpt lat="45.57604083191159" lon="9.400891982082927"><ele>165.0</ele><time>2026-04-07T07:12:28.999Z</time></trkpt><trkpt lat="45.57611026049351" lon="9.401256484341383"><ele>165.0</ele><time>2026-04-07T07:12:29.999Z</time></trkpt><trkpt lat="45.57618577947515" lon="9.401621713536992"><ele>165.5</ele><time>2026-04-07T07:12:30.999Z</time></trkpt><trkpt lat="45.576259613392224" lon="9.401985903804945"><ele>166.0</ele><time>2026-04-07T07:12:31.999Z</time></trkpt><trkpt lat="45.57633153117838" lon="9.402349001597019"><ele>166.5</ele><time>2026-04-07T07:12:32.999Z</time></trkpt><trkpt lat="45.57640327859337" lon="9.40271237959889"><ele>167.0</ele><time>2026-04-07T07:12:33.999Z</time></trkpt><trkpt lat="45.57646581948932" lon="9.403087057038809"><ele>166.0</ele><time>2026-04-07T07:12:34.999Z</time></trkpt><trkpt lat="45.57652784335258" lon="9.403457253224689"><ele>165.0</ele><time>2026-04-07T07:12:35.999Z</time></trkpt><trkpt lat="45.576593761602666" lon="9.403821576781455"><ele>164.5</ele><time>2026-04-07T07:12:36.999Z</time></trkpt><trkpt lat="45.57666315394416" lon="9.404187826687348"><ele>164.0</ele><time>2026-04-07T07:12:37.999Z</time></trkpt><trkpt lat="45.576729494739915" lon="9.404555855974069"><ele>163.5</ele><time>2026-04-07T07:12:38.999Z</time></trkpt><trkpt lat="45.57681056356414" lon="9.404919534334423"><ele>163.0</ele><time>2026-04-07T07:12:39.999Z</time></trkpt><trkpt lat="45.576881428039144" lon="9.405284427187386"><ele>164.0</ele><time>2026-04-07T07:12:40.999Z</time></trkpt><trkpt lat="45.576951147171926" lon="9.40564956512361"><ele>165.0</ele><time>2026-04-07T07:12:41.999Z</time></trkpt><trkpt lat="45.57701858671655" lon="9.40601893599745"><ele>166.0</ele><time>2026-04-07T07:12:42.999Z</time></trkpt><trkpt lat="45.577093522209715" lon="9.406380589141378"><ele>167.0</ele><time>2026-04-07T07:12:43.999Z</time></trkpt><trkpt lat="45.57716638932092" lon="9.406749330699615"><ele>167.0</ele><time>2026-04-07T07:12:44.999Z</time></trkpt><trkpt lat="45.57723855840386" lon="9.407113608140254"><ele>167.0</ele><time>2026-04-07T07:12:45.999Z</time></trkpt><trkpt lat="45.577304401656214" lon="9.407481537753748"><ele>165.5</ele><time>2026-04-07T07:12:46.999Z</time></trkpt><trkpt lat="45.57737453540681" lon="9.407847519310868"><ele>164.0</ele><time>2026-04-07T07:12:47.999Z</time></trkpt><trkpt lat="45.57744921132352" lon="9.408213199841958"><ele>164.0</ele><time>2026-04-07T07:12:48.999Z</time></trkpt><trkpt lat="45.577527078485595" lon="9.408582796246208"><ele>164.0</ele><time>2026-04-07T07:12:49.999Z</time></trkpt><trkpt lat="45.577614206642934" lon="9.408940643153498"><ele>164.5</ele><time>2026-04-07T07:12:50.999Z</time></trkpt><trkpt lat="45.57768729216567" lon="9.40930437988725"><ele>165.0</ele><time>2026-04-07T07:12:51.999Z</time></trkpt><trkpt lat="45.577758795234594" lon="9.409668605495199"><ele>166.0</ele><time>2026-04-07T07:12:52.999Z</time></trkpt><trkpt lat="45.57782947202957" lon="9.410041108445016"><ele>167.0</ele><time>2026-04-07T07:12:53.999Z</time></trkpt><trkpt lat="45.5778918645499" lon="9.410406437300868"><ele>167.0</ele><time>2026-04-07T07:12:54.999Z</time></trkpt><trkpt lat="45.57795617124017" lon="9.410776019920801"><ele>167.0</ele><time>2026-04-07T07:12:55.999Z</time></trkpt><trkpt lat="45.5780248234876" lon="9.411151023440079"><ele>167.0</ele><time>2026-04-07T07:12:56.999Z</time></trkpt><trkpt lat="45.57809044847025" lon="9.41151711894366"><ele>167.0</ele><time>2026-04-07T07:12:57.999Z</time></trkpt><trkpt lat="45.578158079435894" lon="9.411888433041005"><ele>167.0</ele><time>2026-04-07T07:12:58.999Z</time></trkpt><trkpt lat="45.5782231250987" lon="9.41225432177986"><ele>167.0</ele><time>2026-04-07T07:12:59.999Z</time></trkpt><trkpt lat="45.57829178723957" lon="9.412621891241677"><ele>167.0</ele><time>2026-04-07T07:13:00.999Z</time></trkpt><trkpt lat="45.57835837092417" lon="9.41298491225994"><ele>167.0</ele><time>2026-04-07T07:13:01.999Z</time></trkpt><trkpt lat="45.57842176719334" lon="9.413354181815093"><ele>166.5</ele><time>2026-04-07T07:13:02.999Z</time></trkpt><trkpt lat="45.578487118736476" lon="9.413718634087598"><ele>166.0</ele><time>2026-04-07T07:13:03.999Z</time></trkpt><trkpt lat="45.578556525957026" lon="9.414093277640616"><ele>166.0</ele><time>2026-04-07T07:13:04.999Z</time></trkpt><trkpt lat="45.57862053361785" lon="9.414455216160425"><ele>166.0</ele><time>2026-04-07T07:13:05.999Z</time></trkpt><trkpt lat="45.57868783525237" lon="9.414830131323253"><ele>166.5</ele><time>2026-04-07T07:13:06.999Z</time></trkpt><trkpt lat="45.578755135995245" lon="9.415196739555844"><ele>167.0</ele><time>2026-04-07T07:13:07.999Z</time></trkpt><trkpt lat="45.57882475996665" lon="9.41555735834525"><ele>167.0</ele><time>2026-04-07T07:13:08.999Z</time></trkpt><trkpt lat="45.57890020280869" lon="9.415922852701174"><ele>167.0</ele><time>2026-04-07T07:13:10Z</time></trkpt><trkpt lat="45.57897051740596" lon="9.416284659844871"><ele>166.0</ele><time>2026-04-07T07:13:11Z</time></trkpt><trkpt lat="45.579043294435955" lon="9.41664986381663"><ele>165.0</ele><time>2026-04-07T07:13:12Z</time></trkpt><trkpt lat="45.57910950782933" lon="9.417007278527777"><ele>165.5</ele><time>2026-04-07T07:13:13Z</time></trkpt><trkpt lat="45.579178672358566" lon="9.417369621583275"><ele>166.0</ele><time>2026-04-07T07:13:14Z</time></trkpt><trkpt lat="45.57925057848142" lon="9.41773611902618"><ele>166.5</ele><time>2026-04-07T07:13:15Z</time></trkpt><trkpt lat="45.57931956567542" lon="9.418097495388004"><ele>167.0</ele><time>2026-04-07T07:13:16Z</time></trkpt><trkpt lat="45.57938998163709" lon="9.418456382704852"><ele>167.5</ele><time>2026-04-07T07:13:17Z</time></trkpt><trkpt lat="45.57946559526619" lon="9.418821309530106"><ele>168.0</ele><time>2026-04-07T07:13:18Z</time></trkpt><trkpt lat="45.57953868627038" lon="9.419180604328798"><ele>168.5</ele><time>2026-04-07T07:13:19Z</time></trkpt><trkpt lat="45.57961475387644" lon="9.419549613892217"><ele>169.0</ele><time>2026-04-07T07:13:20Z</time></trkpt><trkpt lat="45.579689166452276" lon="9.419908996926292"><ele>169.0</ele><time>2026-04-07T07:13:21Z</time></trkpt><trkpt lat="45.57976091184875" lon="9.420262742120498"><ele>169.0</ele><time>2026-04-07T07:13:22Z</time></trkpt><trkpt lat="45.57983634472887" lon="9.420631852219632"><ele>168.5</ele><time>2026-04-07T07:13:23Z</time></trkpt><trkpt lat="45.57990794074948" lon="9.420996071466636"><ele>168.0</ele><time>2026-04-07T07:13:24Z</time></trkpt><trkpt lat="45.57997778103505" lon="9.421364982330592"><ele>167.5</ele><time>2026-04-07T07:13:25Z</time></trkpt><trkpt lat="45.58004529648867" lon="9.421732445960986"><ele>167.0</ele><time>2026-04-07T07:13:26Z</time></trkpt><trkpt lat="45.58011143905255" lon="9.42210056293786"><ele>166.5</ele><time>2026-04-07T07:13:27Z</time></trkpt><trkpt lat="45.58017858280285" lon="9.422478299696603"><ele>166.0</ele><time>2026-04-07T07:13:28Z</time></trkpt><trkpt lat="45.58024482710311" lon="9.422849247456853"><ele>166.5</ele><time>2026-04-07T07:13:29Z</time></trkpt><trkpt lat="45.580314239938836" lon="9.423211849238376"><ele>167.0</ele><time>2026-04-07T07:13:30Z</time></trkpt><trkpt lat="45.58038779534557" lon="9.423576605906966"><ele>168.0</ele><time>2026-04-07T07:13:31Z</time></trkpt><trkpt lat="45.58046078708105" lon="9.42393426489803"><ele>169.0</ele><time>2026-04-07T07:13:32Z</time></trkpt><trkpt lat="45.58053560347864" lon="9.424303106658392"><ele>169.5</ele><time>2026-04-07T07:13:33Z</time></trkpt><trkpt lat="45.580605898861016" lon="9.42466046131531"><ele>170.0</ele><time>2026-04-07T07:13:34Z</time></trkpt><trkpt lat="45.580678943868406" lon="9.425027198938832"><ele>170.0</ele><time>2026-04-07T07:13:35Z</time></trkpt><trkpt lat="45.58075066356168" lon="9.4253997445932"><ele>170.0</ele><time>2026-04-07T07:13:36Z</time></trkpt><trkpt lat="45.58082021231336" lon="9.425761676409422"><ele>170.0</ele><time>2026-04-07T07:13:37Z</time></trkpt><trkpt lat="45.58089258734745" lon="9.426125835736626"><ele>170.0</ele><time>2026-04-07T07:13:38Z</time></trkpt><trkpt lat="45.580962863365535" lon="9.426490358961505"><ele>170.0</ele><time>2026-04-07T07:13:39Z</time></trkpt><trkpt lat="45.581034335521615" lon="9.426858075905132"><ele>170.0</ele><time>2026-04-07T07:13:40Z</time></trkpt><trkpt lat="45.5811023398594" lon="9.427225100547842"><ele>170.0</ele><time>2026-04-07T07:13:41Z</time></trkpt><trkpt lat="45.581171553563664" lon="9.427593165802188"><ele>170.0</ele><time>2026-04-07T07:13:42Z</time></trkpt><trkpt lat="45.581242759530305" lon="9.42795761299533"><ele>170.5</ele><time>2026-04-07T07:13:43Z</time></trkpt><trkpt lat="45.58131471982577" lon="9.42832350485627"><ele>171.0</ele><time>2026-04-07T07:13:44Z</time></trkpt><trkpt lat="45.581385343946295" lon="9.42868392664845"><ele>170.0</ele><time>2026-04-07T07:13:45Z</time></trkpt><trkpt lat="45.58145496367021" lon="9.429060688288995"><ele>169.0</ele><time>2026-04-07T07:13:46Z</time></trkpt><trkpt lat="45.58152502493473" lon="9.429424010851143"><ele>168.0</ele><time>2026-04-07T07:13:47Z</time></trkpt><trkpt lat="45.5815961639405" lon="9.429789412787146"><ele>167.0</ele><time>2026-04-07T07:13:48Z</time></trkpt><trkpt lat="45.58167040030889" lon="9.430152152658987"><ele>167.0</ele><time>2026-04-07T07:13:49Z</time></trkpt><trkpt lat="45.58174781154794" lon="9.430516900564923"><ele>167.0</ele><time>2026-04-07T07:13:50Z</time></trkpt><trkpt lat="45.5818280917776" lon="9.430881939467234"><ele>167.0</ele><time>2026-04-07T07:13:51Z</time></trkpt><trkpt lat="45.581906645250214" lon="9.43123818433476"><ele>167.0</ele><time>2026-04-07T07:13:52Z</time></trkpt><trkpt lat="45.58198205621867" lon="9.43160629772445"><ele>167.5</ele><time>2026-04-07T07:13:53Z</time></trkpt><trkpt lat="45.58205081539837" lon="9.431960469704874"><ele>168.0</ele><time>2026-04-07T07:13:54Z</time></trkpt><trkpt lat="45.5821179754722" lon="9.432328083899579"><ele>169.5</ele><time>2026-04-07T07:13:55Z</time></trkpt><trkpt lat="45.58218673318798" lon="9.432697396784464"><ele>171.0</ele><time>2026-04-07T07:13:56Z</time></trkpt><trkpt lat="45.58225702802788" lon="9.433056631760397"><ele>171.5</ele><time>2026-04-07T07:13:57Z</time></trkpt><trkpt lat="45.5823285388058" lon="9.43341832521251"><ele>172.0</ele><time>2026-04-07T07:13:58Z</time></trkpt><trkpt lat="45.58240042243879" lon="9.433788774523666"><ele>171.0</ele><time>2026-04-07T07:13:59Z</time></trkpt><trkpt lat="45.58247014164611" lon="9.434158700034292"><ele>170.0</ele><time>2026-04-07T07:14:00Z</time></trkpt><trkpt lat="45.582541517969396" lon="9.434529403168645"><ele>170.0</ele><time>2026-04-07T07:14:01Z</time></trkpt><trkpt lat="45.58261151378544" lon="9.434888477685828"><ele>170.0</ele><time>2026-04-07T07:14:02Z</time></trkpt><trkpt lat="45.58269166608251" lon="9.435259403736609"><ele>170.5</ele><time>2026-04-07T07:14:03Z</time></trkpt><trkpt lat="45.582768647166475" lon="9.435624954845004"><ele>171.0</ele><time>2026-04-07T07:14:04Z</time></trkpt><trkpt lat="45.58284101638338" lon="9.435988149026027"><ele>172.0</ele><time>2026-04-07T07:14:05Z</time></trkpt><trkpt lat="45.58290764832895" lon="9.436355792013435"><ele>173.0</ele><time>2026-04-07T07:14:06Z</time></trkpt><trkpt lat="45.58297407785607" lon="9.436718510527085"><ele>173.0</ele><time>2026-04-07T07:14:07Z</time></trkpt><trkpt lat="45.58304487922715" lon="9.437082983378799"><ele>173.0</ele><time>2026-04-07T07:14:07.999Z</time></trkpt><trkpt lat="45.5831156869231" lon="9.437446559556257"><ele>173.0</ele><time>2026-04-07T07:14:08.999Z</time></trkpt><trkpt lat="45.583186523528994" lon="9.43780647515112"><ele>173.0</ele><time>2026-04-07T07:14:09.999Z</time></trkpt><trkpt lat="45.583254868945076" lon="9.438167996322766"><ele>172.5</ele><time>2026-04-07T07:14:10.999Z</time></trkpt><trkpt lat="45.58332421142299" lon="9.43852728081725"><ele>172.0</ele><time>2026-04-07T07:14:11.999Z</time></trkpt><trkpt lat="45.58339189507957" lon="9.43888772767118"><ele>172.0</ele><time>2026-04-07T07:14:12.999Z</time></trkpt><trkpt lat="45.58346031936749" lon="9.439252207025389"><ele>172.0</ele><time>2026-04-07T07:14:13.999Z</time></trkpt><trkpt lat="45.58352889930264" lon="9.43961612993412"><ele>171.0</ele><time>2026-04-07T07:14:14.999Z</time></trkpt><trkpt lat="45.58359721425324" lon="9.439981431074708"><ele>170.0</ele><time>2026-04-07T07:14:15.999Z</time></trkpt><trkpt lat="45.58366734784563" lon="9.4403446389301"><ele>171.5</ele><time>2026-04-07T07:14:16.999Z</time></trkpt><trkpt lat="45.58374003441971" lon="9.440713184333234"><ele>173.0</ele><time>2026-04-07T07:14:17.999Z</time></trkpt><trkpt lat="45.583810155676645" lon="9.441082969476236"><ele>173.0</ele><time>2026-04-07T07:14:18.999Z</time></trkpt><trkpt lat="45.58387928632141" lon="9.441448655141174"><ele>173.0</ele><time>2026-04-07T07:14:19.999Z</time></trkpt><trkpt lat="45.583946258851675" lon="9.441817230055422"><ele>173.0</ele><time>2026-04-07T07:14:20.999Z</time></trkpt><trkpt lat="45.5840146768774" lon="9.442186460204534"><ele>173.0</ele><time>2026-04-07T07:14:21.999Z</time></trkpt><trkpt lat="45.58408703495779" lon="9.44255543497098"><ele>173.0</ele><time>2026-04-07T07:14:22.999Z</time></trkpt><trkpt lat="45.584158198096375" lon="9.442918903979995"><ele>173.0</ele><time>2026-04-07T07:14:23.999Z</time></trkpt><trkpt lat="45.58422949652811" lon="9.443289175945196"><ele>173.0</ele><time>2026-04-07T07:14:24.999Z</time></trkpt><trkpt lat="45.5842991762177" lon="9.443649726643983"><ele>173.0</ele><time>2026-04-07T07:14:25.999Z</time></trkpt><trkpt lat="45.584368884522334" lon="9.444016532143037"><ele>173.5</ele><time>2026-04-07T07:14:26.999Z</time></trkpt><trkpt lat="45.58443879323003" lon="9.444380055301831"><ele>174.0</ele><time>2026-04-07T07:14:27.999Z</time></trkpt><trkpt lat="45.58451047836005" lon="9.444744765806284"><ele>175.0</ele><time>2026-04-07T07:14:28.999Z</time></trkpt><trkpt lat="45.58458306617368" lon="9.445115340058022"><ele>176.0</ele><time>2026-04-07T07:14:29.999Z</time></trkpt><trkpt lat="45.58465243362476" lon="9.445474738305457"><ele>176.0</ele><time>2026-04-07T07:14:30.999Z</time></trkpt><trkpt lat="45.58472209535298" lon="9.445841965674788"><ele>176.0</ele><time>2026-04-07T07:14:31.999Z</time></trkpt><trkpt lat="45.584790659202945" lon="9.446204340906101"><ele>175.0</ele><time>2026-04-07T07:14:32.999Z</time></trkpt><trkpt lat="45.5848591526365" lon="9.446568076762608"><ele>174.0</ele><time>2026-04-07T07:14:33.999Z</time></trkpt><trkpt lat="45.58492688344765" lon="9.44693458836026"><ele>173.5</ele><time>2026-04-07T07:14:34.999Z</time></trkpt><trkpt lat="45.5849978678978" lon="9.447302282483088"><ele>173.0</ele><time>2026-04-07T07:14:35.999Z</time></trkpt><trkpt lat="45.58506724007517" lon="9.447666017173498"><ele>173.0</ele><time>2026-04-07T07:14:36.999Z</time></trkpt><trkpt lat="45.58513580867037" lon="9.44803960137272"><ele>173.0</ele><time>2026-04-07T07:14:37.999Z</time></trkpt><trkpt lat="45.58519961338707" lon="9.448417822169358"><ele>172.5</ele><time>2026-04-07T07:14:38.999Z</time></trkpt><trkpt lat="45.585260185825035" lon="9.448798040708205"><ele>172.0</ele><time>2026-04-07T07:14:39.999Z</time></trkpt><trkpt lat="45.58531814506471" lon="9.4491625372419"><ele>173.0</ele><time>2026-04-07T07:14:40.999Z</time></trkpt><trkpt lat="45.58538076473422" lon="9.449534927957101"><ele>174.0</ele><time>2026-04-07T07:14:41.999Z</time></trkpt><trkpt lat="45.585448126282365" lon="9.449902995361498"><ele>174.0</ele><time>2026-04-07T07:14:42.999Z</time></trkpt><trkpt lat="45.58551734988097" lon="9.450267525181543"><ele>174.0</ele><time>2026-04-07T07:14:43.999Z</time></trkpt><trkpt lat="45.58558893387801" lon="9.450635668633836"><ele>174.0</ele><time>2026-04-07T07:14:44.999Z</time></trkpt><trkpt lat="45.58566106917357" lon="9.45100235770567"><ele>174.0</ele><time>2026-04-07T07:14:45.999Z</time></trkpt><trkpt lat="45.58573189492327" lon="9.45136298093238"><ele>174.0</ele><time>2026-04-07T07:14:46.999Z</time></trkpt><trkpt lat="45.5858017326947" lon="9.451732902786095"><ele>174.0</ele><time>2026-04-07T07:14:47.999Z</time></trkpt><trkpt lat="45.58586897423872" lon="9.45209360885914"><ele>174.0</ele><time>2026-04-07T07:14:48.999Z</time></trkpt><trkpt lat="45.58593760226703" lon="9.45245406060972"><ele>174.0</ele><time>2026-04-07T07:14:49.999Z</time></trkpt><trkpt lat="45.58600449812862" lon="9.452810341769581"><ele>175.0</ele><time>2026-04-07T07:14:50.999Z</time></trkpt><trkpt lat="45.58607537000935" lon="9.453182237713937"><ele>176.0</ele><time>2026-04-07T07:14:51.999Z</time></trkpt><trkpt lat="45.5861467855236" lon="9.45353966795024"><ele>175.5</ele><time>2026-04-07T07:14:52.999Z</time></trkpt><trkpt lat="45.586216380989114" lon="9.45389574424786"><ele>175.0</ele><time>2026-04-07T07:14:53.999Z</time></trkpt><trkpt lat="45.586286036141566" lon="9.45426221783632"><ele>175.5</ele><time>2026-04-07T07:14:54.999Z</time></trkpt><trkpt lat="45.58635424140299" lon="9.45464455191195"><ele>176.0</ele><time>2026-04-07T07:14:55.999Z</time></trkpt><trkpt lat="45.58642392966301" lon="9.455031332995002"><ele>176.0</ele><time>2026-04-07T07:14:56.999Z</time></trkpt><trkpt lat="45.58649536832391" lon="9.45537455033646"><ele>176.0</ele><time>2026-04-07T07:14:57.999Z</time></trkpt><trkpt lat="45.586567862204" lon="9.45574547626315"><ele>176.5</ele><time>2026-04-07T07:14:58.999Z</time></trkpt><trkpt lat="45.58663977680926" lon="9.456107841978904"><ele>177.0</ele><time>2026-04-07T07:14:59.999Z</time></trkpt><trkpt lat="45.58671298783626" lon="9.456462311331054"><ele>177.0</ele><time>2026-04-07T07:15:00.999Z</time></trkpt><trkpt lat="45.586786753714456" lon="9.456818488754918"><ele>177.0</ele><time>2026-04-07T07:15:01.999Z</time></trkpt><trkpt lat="45.58686175928696" lon="9.457176771866147"><ele>177.0</ele><time>2026-04-07T07:15:02.999Z</time></trkpt><trkpt lat="45.58692521402196" lon="9.457564875408732"><ele>177.0</ele><time>2026-04-07T07:15:03.999Z</time></trkpt><trkpt lat="45.58699890181233" lon="9.45792406764472"><ele>176.5</ele><time>2026-04-07T07:15:04.999Z</time></trkpt><trkpt lat="45.587068136997694" lon="9.458301614089688"><ele>176.0</ele><time>2026-04-07T07:15:05.999Z</time></trkpt><trkpt lat="45.58714005716614" lon="9.458662999374765"><ele>176.0</ele><time>2026-04-07T07:15:06.999Z</time></trkpt><trkpt lat="45.58721087089668" lon="9.459029912190566"><ele>176.0</ele><time>2026-04-07T07:15:07.999Z</time></trkpt><trkpt lat="45.58728118052806" lon="9.45939394171613"><ele>177.5</ele><time>2026-04-07T07:15:08.999Z</time></trkpt><trkpt lat="45.587348935532965" lon="9.459761960032342"><ele>179.0</ele><time>2026-04-07T07:15:09.999Z</time></trkpt><trkpt lat="45.58741771074323" lon="9.460129162592898"><ele>178.5</ele><time>2026-04-07T07:15:10.999Z</time></trkpt><trkpt lat="45.58748888241385" lon="9.460493990146865"><ele>178.0</ele><time>2026-04-07T07:15:11.999Z</time></trkpt><trkpt lat="45.58756185044206" lon="9.460859642338795"><ele>178.0</ele><time>2026-04-07T07:15:12.999Z</time></trkpt><trkpt lat="45.587631434389905" lon="9.461227080813153"><ele>178.0</ele><time>2026-04-07T07:15:13.999Z</time></trkpt><trkpt lat="45.587701698696755" lon="9.461601199264283"><ele>177.5</ele><time>2026-04-07T07:15:14.999Z</time></trkpt><trkpt lat="45.58777212381255" lon="9.461970118572545"><ele>177.0</ele><time>2026-04-07T07:15:16Z</time></trkpt><trkpt lat="45.58784303717573" lon="9.462344361642014"><ele>178.0</ele><time>2026-04-07T07:15:17Z</time></trkpt><trkpt lat="45.587914711419124" lon="9.462694952885185"><ele>179.0</ele><time>2026-04-07T07:15:18Z</time></trkpt><trkpt lat="45.58798917021877" lon="9.463062150317892"><ele>179.0</ele><time>2026-04-07T07:15:19Z</time></trkpt><trkpt lat="45.588065274847274" lon="9.463436492455937"><ele>179.0</ele><time>2026-04-07T07:15:20Z</time></trkpt><trkpt lat="45.588144936236944" lon="9.463811249679617"><ele>178.5</ele><time>2026-04-07T07:15:21Z</time></trkpt><trkpt lat="45.5882231545258" lon="9.464179677735796"><ele>178.0</ele><time>2026-04-07T07:15:22Z</time></trkpt><trkpt lat="45.58828421757798" lon="9.464531082298025"><ele>177.5</ele><time>2026-04-07T07:15:23Z</time></trkpt><trkpt lat="45.588354259211854" lon="9.464884109007926"><ele>177.0</ele><time>2026-04-07T07:15:24Z</time></trkpt><trkpt lat="45.588420167678606" lon="9.465235636362756"><ele>176.5</ele><time>2026-04-07T07:15:25Z</time></trkpt><trkpt lat="45.58848133056231" lon="9.465587407881488"><ele>176.0</ele><time>2026-04-07T07:15:26Z</time></trkpt><trkpt lat="45.588540272639925" lon="9.465995174570075"><ele>177.5</ele><time>2026-04-07T07:15:27Z</time></trkpt><trkpt lat="45.58860652458707" lon="9.466365898511887"><ele>179.0</ele><time>2026-04-07T07:15:28Z</time></trkpt><trkpt lat="45.588675245867975" lon="9.466744101963178"><ele>181.0</ele><time>2026-04-07T07:15:29Z</time></trkpt><trkpt lat="45.58874893303165" lon="9.4671245392551"><ele>183.0</ele><time>2026-04-07T07:15:30Z</time></trkpt><trkpt lat="45.58882148786817" lon="9.467457662491675"><ele>183.0</ele><time>2026-04-07T07:15:31Z</time></trkpt><trkpt lat="45.588895124196135" lon="9.467819602792774"><ele>183.0</ele><time>2026-04-07T07:15:32Z</time></trkpt><trkpt lat="45.58897129532312" lon="9.468176574850805"><ele>182.5</ele><time>2026-04-07T07:15:33Z</time></trkpt><trkpt lat="45.58904692239917" lon="9.468525461151856"><ele>182.0</ele><time>2026-04-07T07:15:34Z</time></trkpt><trkpt lat="45.589121837983804" lon="9.46886770841169"><ele>180.0</ele><time>2026-04-07T07:15:35Z</time></trkpt><trkpt lat="45.5892401917057" lon="9.469654643678142"><ele>180.0</ele><time>2026-04-07T07:15:37Z</time></trkpt><trkpt lat="45.589308554399956" lon="9.470024124879782"><ele>180.0</ele><time>2026-04-07T07:15:38Z</time></trkpt><trkpt lat="45.589379774740564" lon="9.470390434153884"><ele>180.0</ele><time>2026-04-07T07:15:39Z</time></trkpt><trkpt lat="45.589450359963905" lon="9.470759061022212"><ele>180.0</ele><time>2026-04-07T07:15:40Z</time></trkpt><trkpt lat="45.58951711501413" lon="9.471128052522332"><ele>179.5</ele><time>2026-04-07T07:15:41Z</time></trkpt><trkpt lat="45.5895903005199" lon="9.47149322285388"><ele>179.0</ele><time>2026-04-07T07:15:42Z</time></trkpt><trkpt lat="45.58966452367222" lon="9.471859925793968"><ele>179.0</ele><time>2026-04-07T07:15:43Z</time></trkpt><trkpt lat="45.58973833065925" lon="9.472225723020973"><ele>179.0</ele><time>2026-04-07T07:15:44Z</time></trkpt><trkpt lat="45.58981521447852" lon="9.472590548075944"><ele>180.0</ele><time>2026-04-07T07:15:45Z</time></trkpt><trkpt lat="45.58989518727116" lon="9.472951181505477"><ele>181.0</ele><time>2026-04-07T07:15:46Z</time></trkpt><trkpt lat="45.589974547168325" lon="9.473311771055597"><ele>181.0</ele><time>2026-04-07T07:15:47Z</time></trkpt><trkpt lat="45.59004794939852" lon="9.473672565444852"><ele>181.0</ele><time>2026-04-07T07:15:48Z</time></trkpt><trkpt lat="45.590118640112316" lon="9.474033656020056"><ele>180.0</ele><time>2026-04-07T07:15:49Z</time></trkpt><trkpt lat="45.590188801434614" lon="9.47439673847275"><ele>179.0</ele><time>2026-04-07T07:15:50Z</time></trkpt><trkpt lat="45.59026065676638" lon="9.474760405190784"><ele>179.0</ele><time>2026-04-07T07:15:51Z</time></trkpt><trkpt lat="45.590328930350104" lon="9.475123896216283"><ele>179.0</ele><time>2026-04-07T07:15:52Z</time></trkpt><trkpt lat="45.59039715184706" lon="9.475490127833362"><ele>181.0</ele><time>2026-04-07T07:15:53Z</time></trkpt><trkpt lat="45.590460788935225" lon="9.475856494312783"><ele>183.0</ele><time>2026-04-07T07:15:54Z</time></trkpt><trkpt lat="45.59052415992598" lon="9.476223549907381"><ele>181.5</ele><time>2026-04-07T07:15:55Z</time></trkpt><trkpt lat="45.590590750775455" lon="9.47659478089025"><ele>180.0</ele><time>2026-04-07T07:15:56Z</time></trkpt><trkpt lat="45.59065580575611" lon="9.476960269965623"><ele>179.0</ele><time>2026-04-07T07:15:57Z</time></trkpt><trkpt lat="45.59071752178999" lon="9.477327917765288"><ele>178.0</ele><time>2026-04-07T07:15:58Z</time></trkpt><trkpt lat="45.590787775624094" lon="9.477698415521127"><ele>178.0</ele><time>2026-04-07T07:15:59Z</time></trkpt><trkpt lat="45.59085511733092" lon="9.478057720371021"><ele>178.0</ele><time>2026-04-07T07:16:00Z</time></trkpt><trkpt lat="45.5909247047732" lon="9.478425432594552"><ele>178.5</ele><time>2026-04-07T07:16:01Z</time></trkpt><trkpt lat="45.590996127759595" lon="9.47879310507527"><ele>179.0</ele><time>2026-04-07T07:16:02Z</time></trkpt><trkpt lat="45.59107076246693" lon="9.479162368406913"><ele>179.0</ele><time>2026-04-07T07:16:03Z</time></trkpt><trkpt lat="45.59114654616312" lon="9.479523770732428"><ele>179.0</ele><time>2026-04-07T07:16:04Z</time></trkpt><trkpt lat="45.59122544258483" lon="9.479892791276063"><ele>180.5</ele><time>2026-04-07T07:16:05Z</time></trkpt><trkpt lat="45.59129774730565" lon="9.480244991340559"><ele>182.0</ele><time>2026-04-07T07:16:06Z</time></trkpt><trkpt lat="45.591374036162726" lon="9.480616577627039"><ele>182.0</ele><time>2026-04-07T07:16:07Z</time></trkpt><trkpt lat="45.59144757483699" lon="9.480980764087859"><ele>182.0</ele><time>2026-04-07T07:16:08Z</time></trkpt><trkpt lat="45.59151855050889" lon="9.481348690867877"><ele>182.0</ele><time>2026-04-07T07:16:09Z</time></trkpt><trkpt lat="45.591588772892926" lon="9.481714844943573"><ele>182.0</ele><time>2026-04-07T07:16:10Z</time></trkpt><trkpt lat="45.59165841997957" lon="9.482082909307989"><ele>182.5</ele><time>2026-04-07T07:16:11Z</time></trkpt><trkpt lat="45.59172808981593" lon="9.482451809136705"><ele>183.0</ele><time>2026-04-07T07:16:12Z</time></trkpt><trkpt lat="45.591797195299925" lon="9.482813526403932"><ele>182.5</ele><time>2026-04-07T07:16:13Z</time></trkpt><trkpt lat="45.591866572865136" lon="9.483182974818542"><ele>182.0</ele><time>2026-04-07T07:16:14Z</time></trkpt><trkpt lat="45.591932025362205" lon="9.483545144678073"><ele>181.5</ele><time>2026-04-07T07:16:15Z</time></trkpt><trkpt lat="45.59199503707103" lon="9.483923039160699"><ele>181.0</ele><time>2026-04-07T07:16:16Z</time></trkpt><trkpt lat="45.59205475984112" lon="9.484289275933227"><ele>180.0</ele><time>2026-04-07T07:16:17Z</time></trkpt><trkpt lat="45.592113778165015" lon="9.484665037177136"><ele>179.0</ele><time>2026-04-07T07:16:18Z</time></trkpt><trkpt lat="45.592177887397106" lon="9.485032507943862"><ele>179.0</ele><time>2026-04-07T07:16:19Z</time></trkpt><trkpt lat="45.59224545145554" lon="9.48538491567105"><ele>179.0</ele><time>2026-04-07T07:16:20Z</time></trkpt><trkpt lat="45.59231713521619" lon="9.48574877957448"><ele>179.0</ele><time>2026-04-07T07:16:21Z</time></trkpt><trkpt lat="45.59239000244567" lon="9.486130496282433"><ele>179.0</ele><time>2026-04-07T07:16:22Z</time></trkpt><trkpt lat="45.59246068099193" lon="9.486488339121909"><ele>179.0</ele><time>2026-04-07T07:16:22.999Z</time></trkpt><trkpt lat="45.592533216391416" lon="9.486851680489826"><ele>179.0</ele><time>2026-04-07T07:16:23.999Z</time></trkpt><trkpt lat="45.59260429113303" lon="9.48723404677107"><ele>179.5</ele><time>2026-04-07T07:16:24.999Z</time></trkpt><trkpt lat="45.59267345995608" lon="9.48758909650907"><ele>180.0</ele><time>2026-04-07T07:16:25.999Z</time></trkpt><trkpt lat="45.59274424681928" lon="9.487963043676253"><ele>180.0</ele><time>2026-04-07T07:16:26.999Z</time></trkpt><trkpt lat="45.59281133604772" lon="9.488322682599746"><ele>180.0</ele><time>2026-04-07T07:16:27.999Z</time></trkpt><trkpt lat="45.59288251052475" lon="9.488703948816688"><ele>180.0</ele><time>2026-04-07T07:16:28.999Z</time></trkpt><trkpt lat="45.5929522207873" lon="9.489069744348162"><ele>180.0</ele><time>2026-04-07T07:16:29.999Z</time></trkpt><trkpt lat="45.593022849858066" lon="9.489437500139305"><ele>180.0</ele><time>2026-04-07T07:16:30.999Z</time></trkpt><trkpt lat="45.5930935877216" lon="9.489798631871407"><ele>180.0</ele><time>2026-04-07T07:16:31.999Z</time></trkpt><trkpt lat="45.59316413863683" lon="9.490164201025806"><ele>180.5</ele><time>2026-04-07T07:16:32.999Z</time></trkpt><trkpt lat="45.593233335431705" lon="9.490531784698089"><ele>181.0</ele><time>2026-04-07T07:16:33.999Z</time></trkpt><trkpt lat="45.59330354260557" lon="9.490893041668071"><ele>181.0</ele><time>2026-04-07T07:16:34.999Z</time></trkpt><trkpt lat="45.593370755319654" lon="9.491254927188452"><ele>181.0</ele><time>2026-04-07T07:16:35.999Z</time></trkpt><trkpt lat="45.59343900006882" lon="9.491624967381957"><ele>181.0</ele><time>2026-04-07T07:16:36.999Z</time></trkpt><trkpt lat="45.593509142006575" lon="9.491995386105827"><ele>181.0</ele><time>2026-04-07T07:16:37.999Z</time></trkpt><trkpt lat="45.59357863340657" lon="9.492360624194747"><ele>181.0</ele><time>2026-04-07T07:16:38.999Z</time></trkpt><trkpt lat="45.59364928817711" lon="9.492729840488876"><ele>181.0</ele><time>2026-04-07T07:16:39.999Z</time></trkpt><trkpt lat="45.59371748033134" lon="9.493087496171473"><ele>181.5</ele><time>2026-04-07T07:16:40.999Z</time></trkpt><trkpt lat="45.59378811745882" lon="9.493457987698172"><ele>182.0</ele><time>2026-04-07T07:16:41.999Z</time></trkpt><trkpt lat="45.59385908213146" lon="9.493827756731394"><ele>182.0</ele><time>2026-04-07T07:16:42.999Z</time></trkpt><trkpt lat="45.59392922131422" lon="9.494194050229714"><ele>182.0</ele><time>2026-04-07T07:16:43.999Z</time></trkpt><trkpt lat="45.594000911669426" lon="9.494557599441308"><ele>181.5</ele><time>2026-04-07T07:16:44.999Z</time></trkpt><trkpt lat="45.59407079571714" lon="9.49492361287377"><ele>181.0</ele><time>2026-04-07T07:16:45.999Z</time></trkpt><trkpt lat="45.594140050023704" lon="9.495287226484573"><ele>180.5</ele><time>2026-04-07T07:16:46.999Z</time></trkpt><trkpt lat="45.59420893435479" lon="9.49564129994467"><ele>180.0</ele><time>2026-04-07T07:16:47.999Z</time></trkpt><trkpt lat="45.59427740188341" lon="9.496009430901044"><ele>180.0</ele><time>2026-04-07T07:16:48.999Z</time></trkpt><trkpt lat="45.59434795023837" lon="9.496377292090196"><ele>180.0</ele><time>2026-04-07T07:16:49.999Z</time></trkpt><trkpt lat="45.594420598411276" lon="9.496738030154297"><ele>180.0</ele><time>2026-04-07T07:16:50.999Z</time></trkpt><trkpt lat="45.594493301973344" lon="9.49710201795663"><ele>180.0</ele><time>2026-04-07T07:16:51.999Z</time></trkpt><trkpt lat="45.59456819765904" lon="9.497463071490609"><ele>180.0</ele><time>2026-04-07T07:16:52.999Z</time></trkpt><trkpt lat="45.594644526884146" lon="9.497827421329832"><ele>180.0</ele><time>2026-04-07T07:16:53.999Z</time></trkpt><trkpt lat="45.59472688763586" lon="9.498186289810599"><ele>180.0</ele><time>2026-04-07T07:16:54.999Z</time></trkpt><trkpt lat="45.59481632826266" lon="9.498541511408437"><ele>180.0</ele><time>2026-04-07T07:16:55.999Z</time></trkpt><trkpt lat="45.594906105725585" lon="9.498901395370432"><ele>180.5</ele><time>2026-04-07T07:16:56.999Z</time></trkpt><trkpt lat="45.59499893129713" lon="9.499256165512504"><ele>181.0</ele><time>2026-04-07T07:16:57.999Z</time></trkpt><trkpt lat="45.59509388963043" lon="9.499615083516412"><ele>180.0</ele><time>2026-04-07T07:16:58.999Z</time></trkpt><trkpt lat="45.59519324015292" lon="9.499969093939702"><ele>179.0</ele><time>2026-04-07T07:16:59.999Z</time></trkpt><trkpt lat="45.59529839435765" lon="9.500317774205879"><ele>178.5</ele><time>2026-04-07T07:17:00.999Z</time></trkpt><trkpt lat="45.595408014131806" lon="9.500663595544324"><ele>178.0</ele><time>2026-04-07T07:17:01.999Z</time></trkpt><trkpt lat="45.59551903336901" lon="9.501009601415062"><ele>178.0</ele><time>2026-04-07T07:17:02.999Z</time></trkpt><trkpt lat="45.59563087074449" lon="9.501355011829197"><ele>178.0</ele><time>2026-04-07T07:17:03.999Z</time></trkpt><trkpt lat="45.59574469438276" lon="9.501704694148966"><ele>178.0</ele><time>2026-04-07T07:17:04.999Z</time></trkpt><trkpt lat="45.59585967945044" lon="9.50205099228489"><ele>178.0</ele><time>2026-04-07T07:17:05.999Z</time></trkpt><trkpt lat="45.595976703608486" lon="9.502391818385673"><ele>178.0</ele><time>2026-04-07T07:17:06.999Z</time></trkpt><trkpt lat="45.596093194847164" lon="9.502739061225329"><ele>178.0</ele><time>2026-04-07T07:17:07.999Z</time></trkpt><trkpt lat="45.596213558966184" lon="9.503077715631491"><ele>178.0</ele><time>2026-04-07T07:17:08.999Z</time></trkpt><trkpt lat="45.59633070913941" lon="9.503418162299377"><ele>178.0</ele><time>2026-04-07T07:17:09.999Z</time></trkpt><trkpt lat="45.59644900731908" lon="9.503758515255962"><ele>178.0</ele><time>2026-04-07T07:17:10.999Z</time></trkpt><trkpt lat="45.596567100701314" lon="9.50410126156765"><ele>178.0</ele><time>2026-04-07T07:17:11.999Z</time></trkpt><trkpt lat="45.59668518990357" lon="9.504441944271559"><ele>177.0</ele><time>2026-04-07T07:17:12.999Z</time></trkpt><trkpt lat="45.59679994662786" lon="9.504783442261292"><ele>176.0</ele><time>2026-04-07T07:17:13.999Z</time></trkpt><trkpt lat="45.5969173912209" lon="9.50512846134892"><ele>177.5</ele><time>2026-04-07T07:17:14.999Z</time></trkpt><trkpt lat="45.597033988680785" lon="9.50546559297103"><ele>179.0</ele><time>2026-04-07T07:17:15.999Z</time></trkpt><trkpt lat="45.59714893678373" lon="9.50580143925124"><ele>179.0</ele><time>2026-04-07T07:17:16.999Z</time></trkpt><trkpt lat="45.59726373371564" lon="9.506145955783527"><ele>179.0</ele><time>2026-04-07T07:17:17.999Z</time></trkpt><trkpt lat="45.59737824127195" lon="9.506477172699466"><ele>179.5</ele><time>2026-04-07T07:17:18.999Z</time></trkpt><trkpt lat="45.59749371269642" lon="9.506814336666059"><ele>180.0</ele><time>2026-04-07T07:17:19.999Z</time></trkpt><trkpt lat="45.59761132423603" lon="9.507154202310943"><ele>179.0</ele><time>2026-04-07T07:17:20.999Z</time></trkpt><trkpt lat="45.59772921032197" lon="9.507496900091565"><ele>178.0</ele><time>2026-04-07T07:17:22Z</time></trkpt><trkpt lat="45.59784592291752" lon="9.507846830781654"><ele>179.0</ele><time>2026-04-07T07:17:23Z</time></trkpt><trkpt lat="45.597958571832095" lon="9.50819665547852"><ele>180.0</ele><time>2026-04-07T07:17:24Z</time></trkpt><trkpt lat="45.59807381159148" lon="9.508529509226221"><ele>178.5</ele><time>2026-04-07T07:17:25Z</time></trkpt><trkpt lat="45.59819040000358" lon="9.508882262164388"><ele>177.0</ele><time>2026-04-07T07:17:26Z</time></trkpt><trkpt lat="45.59830878868958" lon="9.509221058343472"><ele>177.0</ele><time>2026-04-07T07:17:27Z</time></trkpt><trkpt lat="45.59842722052266" lon="9.50956250817075"><ele>177.0</ele><time>2026-04-07T07:17:28Z</time></trkpt><trkpt lat="45.59854816279837" lon="9.509904978664814"><ele>178.0</ele><time>2026-04-07T07:17:29Z</time></trkpt><trkpt lat="45.59866925363479" lon="9.510238031472815"><ele>179.0</ele><time>2026-04-07T07:17:30Z</time></trkpt><trkpt lat="45.59878711978054" lon="9.510582108721522"><ele>179.5</ele><time>2026-04-07T07:17:31Z</time></trkpt><trkpt lat="45.598905584803894" lon="9.510922144602265"><ele>180.0</ele><time>2026-04-07T07:17:32Z</time></trkpt><trkpt lat="45.59902233217013" lon="9.511260230834521"><ele>179.0</ele><time>2026-04-07T07:17:33Z</time></trkpt><trkpt lat="45.59913723401942" lon="9.511601415457443"><ele>178.0</ele><time>2026-04-07T07:17:34Z</time></trkpt><trkpt lat="45.59925182449779" lon="9.51193987219097"><ele>178.0</ele><time>2026-04-07T07:17:35Z</time></trkpt><trkpt lat="45.599366054303886" lon="9.512276554186391"><ele>178.0</ele><time>2026-04-07T07:17:36Z</time></trkpt><trkpt lat="45.59947777321009" lon="9.512618773364311"><ele>178.0</ele><time>2026-04-07T07:17:37Z</time></trkpt><trkpt lat="45.59958914033918" lon="9.512959210594385"><ele>178.0</ele><time>2026-04-07T07:17:38Z</time></trkpt><trkpt lat="45.59970163332597" lon="9.51330166069474"><ele>178.0</ele><time>2026-04-07T07:17:39Z</time></trkpt><trkpt lat="45.59981920486899" lon="9.513636849180747"><ele>178.0</ele><time>2026-04-07T07:17:40Z</time></trkpt><trkpt lat="45.599936663610045" lon="9.51397489296869"><ele>177.0</ele><time>2026-04-07T07:17:41Z</time></trkpt><trkpt lat="45.60005512962714" lon="9.514313831102086"><ele>176.0</ele><time>2026-04-07T07:17:42Z</time></trkpt><trkpt lat="45.600172685896084" lon="9.514656030162696"><ele>175.5</ele><time>2026-04-07T07:17:43Z</time></trkpt><trkpt lat="45.600289489326244" lon="9.514992118034625"><ele>175.0</ele><time>2026-04-07T07:17:44Z</time></trkpt><trkpt lat="45.60040304589626" lon="9.5153429674423"><ele>177.5</ele><time>2026-04-07T07:17:45Z</time></trkpt><trkpt lat="45.6005174259729" lon="9.515690175489645"><ele>180.0</ele><time>2026-04-07T07:17:46Z</time></trkpt><trkpt lat="45.600635451326106" lon="9.516030000997116"><ele>180.0</ele><time>2026-04-07T07:17:47Z</time></trkpt><trkpt lat="45.60074981052936" lon="9.516376561797596"><ele>180.0</ele><time>2026-04-07T07:17:48Z</time></trkpt><trkpt lat="45.60086077735303" lon="9.516729305909163"><ele>179.0</ele><time>2026-04-07T07:17:49Z</time></trkpt><trkpt lat="45.60097481694901" lon="9.517074393592697"><ele>178.0</ele><time>2026-04-07T07:17:50Z</time></trkpt><trkpt lat="45.60108962881739" lon="9.5174243456562"><ele>178.0</ele><time>2026-04-07T07:17:51Z</time></trkpt><trkpt lat="45.60119848270876" lon="9.517775790419666"><ele>178.0</ele><time>2026-04-07T07:17:52Z</time></trkpt><trkpt lat="45.60131315149659" lon="9.518122819093534"><ele>178.0</ele><time>2026-04-07T07:17:53Z</time></trkpt><trkpt lat="45.60141891579044" lon="9.518473853718854"><ele>178.0</ele><time>2026-04-07T07:17:54Z</time></trkpt><trkpt lat="45.60152899030156" lon="9.518817095361046"><ele>178.5</ele><time>2026-04-07T07:17:55Z</time></trkpt><trkpt lat="45.60164080776574" lon="9.519159796340372"><ele>179.0</ele><time>2026-04-07T07:17:56Z</time></trkpt><trkpt lat="45.601754732644416" lon="9.51950134437626"><ele>179.0</ele><time>2026-04-07T07:17:57Z</time></trkpt><trkpt lat="45.601867403377575" lon="9.519843916853901"><ele>179.0</ele><time>2026-04-07T07:17:58Z</time></trkpt><trkpt lat="45.60198678942812" lon="9.520180499022421"><ele>178.0</ele><time>2026-04-07T07:17:59Z</time></trkpt><trkpt lat="45.602100949921414" lon="9.52052023044051"><ele>177.0</ele><time>2026-04-07T07:18:00Z</time></trkpt><trkpt lat="45.602215736378156" lon="9.520858015633605"><ele>177.0</ele><time>2026-04-07T07:18:01Z</time></trkpt><trkpt lat="45.60232765670531" lon="9.521200984942816"><ele>177.0</ele><time>2026-04-07T07:18:02Z</time></trkpt><trkpt lat="45.60244191045437" lon="9.521542460506575"><ele>179.0</ele><time>2026-04-07T07:18:03Z</time></trkpt><trkpt lat="45.60255854133184" lon="9.521883282302012"><ele>181.0</ele><time>2026-04-07T07:18:04Z</time></trkpt><trkpt lat="45.60267591174034" lon="9.52222317745833"><ele>182.0</ele><time>2026-04-07T07:18:05Z</time></trkpt><trkpt lat="45.60278895731019" lon="9.522572261077654"><ele>183.0</ele><time>2026-04-07T07:18:06Z</time></trkpt><trkpt lat="45.60289958024967" lon="9.522916482107236"><ele>181.0</ele><time>2026-04-07T07:18:07Z</time></trkpt><trkpt lat="45.60301472619151" lon="9.523256927423507"><ele>179.0</ele><time>2026-04-07T07:18:08Z</time></trkpt><trkpt lat="45.603123549187494" lon="9.52360429178458"><ele>179.0</ele><time>2026-04-07T07:18:09Z</time></trkpt><trkpt lat="45.603238469007415" lon="9.523943517492677"><ele>179.0</ele><time>2026-04-07T07:18:10Z</time></trkpt><trkpt lat="45.60334813234199" lon="9.524295814282892"><ele>178.0</ele><time>2026-04-07T07:18:11Z</time></trkpt><trkpt lat="45.60346299397374" lon="9.524637710741738"><ele>177.0</ele><time>2026-04-07T07:18:12Z</time></trkpt><trkpt lat="45.603579958491025" lon="9.524979015762044"><ele>178.0</ele><time>2026-04-07T07:18:13Z</time></trkpt><trkpt lat="45.60369956216306" lon="9.525315653907917"><ele>179.0</ele><time>2026-04-07T07:18:14Z</time></trkpt><trkpt lat="45.60382275167674" lon="9.52564199952743"><ele>179.0</ele><time>2026-04-07T07:18:15Z</time></trkpt><trkpt lat="45.603930150930815" lon="9.526020725828444"><ele>179.0</ele><time>2026-04-07T07:18:16Z</time></trkpt><trkpt lat="45.60403376106892" lon="9.526352059743962"><ele>179.0</ele><time>2026-04-07T07:18:17Z</time></trkpt><trkpt lat="45.60414419279683" lon="9.52668668986861"><ele>179.0</ele><time>2026-04-07T07:18:18Z</time></trkpt><trkpt lat="45.6042545157401" lon="9.527041369198942"><ele>175.0</ele><time>2026-04-07T07:18:19Z</time></trkpt><trkpt lat="45.60436670122932" lon="9.527381453491714"><ele>171.0</ele><time>2026-04-07T07:18:20Z</time></trkpt><trkpt lat="45.604484086521815" lon="9.527720651817724"><ele>160.5</ele><time>2026-04-07T07:18:21Z</time></trkpt><trkpt lat="45.60459717416347" lon="9.5280611199406"><ele>150.0</ele><time>2026-04-07T07:18:22Z</time></trkpt><trkpt lat="45.60471297388871" lon="9.528400538347391"><ele>154.5</ele><time>2026-04-07T07:18:23Z</time></trkpt><trkpt lat="45.604828642422795" lon="9.528735027378579"><ele>159.0</ele><time>2026-04-07T07:18:23.999Z</time></trkpt><trkpt lat="45.604945258944994" lon="9.529070748755144"><ele>159.0</ele><time>2026-04-07T07:18:24.999Z</time></trkpt><trkpt lat="45.605053402282465" lon="9.529408811324569"><ele>159.0</ele><time>2026-04-07T07:18:25.999Z</time></trkpt><trkpt lat="45.605164094652494" lon="9.529749944048563"><ele>166.5</ele><time>2026-04-07T07:18:26.999Z</time></trkpt><trkpt lat="45.605279471079434" lon="9.530089561595979"><ele>174.0</ele><time>2026-04-07T07:18:27.999Z</time></trkpt><trkpt lat="45.605399615082106" lon="9.530421633062687"><ele>177.5</ele><time>2026-04-07T07:18:28.999Z</time></trkpt><trkpt lat="45.60551808054733" lon="9.530761197682612"><ele>181.0</ele><time>2026-04-07T07:18:29.999Z</time></trkpt><trkpt lat="45.60564103829569" lon="9.531097996921863"><ele>181.5</ele><time>2026-04-07T07:18:30.999Z</time></trkpt><trkpt lat="45.60576256016657" lon="9.531439936810079"><ele>182.0</ele><time>2026-04-07T07:18:31.999Z</time></trkpt><trkpt lat="45.60587635831553" lon="9.531782158253565"><ele>181.0</ele><time>2026-04-07T07:18:32.999Z</time></trkpt><trkpt lat="45.605992343155236" lon="9.532128229492855"><ele>180.0</ele><time>2026-04-07T07:18:33.999Z</time></trkpt><trkpt lat="45.60611496423998" lon="9.532465364035682"><ele>182.0</ele><time>2026-04-07T07:18:34.999Z</time></trkpt><trkpt lat="45.60623644553095" lon="9.532809607731911"><ele>184.0</ele><time>2026-04-07T07:18:35.999Z</time></trkpt><trkpt lat="45.606353718312874" lon="9.533146457518257"><ele>184.5</ele><time>2026-04-07T07:18:36.999Z</time></trkpt><trkpt lat="45.60646899649219" lon="9.533485570063434"><ele>185.0</ele><time>2026-04-07T07:18:37.999Z</time></trkpt><trkpt lat="45.606581338971445" lon="9.533830183372077"><ele>183.5</ele><time>2026-04-07T07:18:38.999Z</time></trkpt><trkpt lat="45.606689968784444" lon="9.534176188978465"><ele>182.0</ele><time>2026-04-07T07:18:39.999Z</time></trkpt><trkpt lat="45.60680144544679" lon="9.53452145123728"><ele>182.0</ele><time>2026-04-07T07:18:40.999Z</time></trkpt><trkpt lat="45.6069195808605" lon="9.534869324612409"><ele>182.0</ele><time>2026-04-07T07:18:41.999Z</time></trkpt><trkpt lat="45.6070390744357" lon="9.535206661213856"><ele>182.5</ele><time>2026-04-07T07:18:42.999Z</time></trkpt><trkpt lat="45.607158168513486" lon="9.535548403730038"><ele>183.0</ele><time>2026-04-07T07:18:43.999Z</time></trkpt><trkpt lat="45.607275612947426" lon="9.535888242818423"><ele>183.5</ele><time>2026-04-07T07:18:44.999Z</time></trkpt><trkpt lat="45.60739445856568" lon="9.536233130753695"><ele>184.0</ele><time>2026-04-07T07:18:45.999Z</time></trkpt><trkpt lat="45.60750779141219" lon="9.536576881597453"><ele>184.0</ele><time>2026-04-07T07:18:46.999Z</time></trkpt><trkpt lat="45.60761948650821" lon="9.536919259139498"><ele>184.0</ele><time>2026-04-07T07:18:47.999Z</time></trkpt><trkpt lat="45.60773500502216" lon="9.537264428791216"><ele>184.0</ele><time>2026-04-07T07:18:48.999Z</time></trkpt><trkpt lat="45.607851397714434" lon="9.537608380167695"><ele>184.0</ele><time>2026-04-07T07:18:49.999Z</time></trkpt><trkpt lat="45.60796484473676" lon="9.537949885294426"><ele>184.0</ele><time>2026-04-07T07:18:50.999Z</time></trkpt><trkpt lat="45.60808455433061" lon="9.538290823718045"><ele>184.0</ele><time>2026-04-07T07:18:51.999Z</time></trkpt><trkpt lat="45.60819970539997" lon="9.53863111605011"><ele>183.0</ele><time>2026-04-07T07:18:52.999Z</time></trkpt><trkpt lat="45.60830649207803" lon="9.538971255087366"><ele>182.0</ele><time>2026-04-07T07:18:53.999Z</time></trkpt><trkpt lat="45.60842004584002" lon="9.53931302229289"><ele>181.0</ele><time>2026-04-07T07:18:54.999Z</time></trkpt><trkpt lat="45.60853344625102" lon="9.539664292626242"><ele>180.0</ele><time>2026-04-07T07:18:55.999Z</time></trkpt><trkpt lat="45.60864768324786" lon="9.540000386436668"><ele>181.0</ele><time>2026-04-07T07:18:56.999Z</time></trkpt><trkpt lat="45.608770080698996" lon="9.540347062435735"><ele>182.0</ele><time>2026-04-07T07:18:57.999Z</time></trkpt><trkpt lat="45.60888171626143" lon="9.540687562238096"><ele>182.0</ele><time>2026-04-07T07:18:58.999Z</time></trkpt><trkpt lat="45.60899924614233" lon="9.541028982065175"><ele>182.0</ele><time>2026-04-07T07:18:59.999Z</time></trkpt><trkpt lat="45.609116397256834" lon="9.541366344176206"><ele>182.5</ele><time>2026-04-07T07:19:00.999Z</time></trkpt><trkpt lat="45.609233359645486" lon="9.541703530102236"><ele>183.0</ele><time>2026-04-07T07:19:01.999Z</time></trkpt><trkpt lat="45.60935255017998" lon="9.54203814942179"><ele>182.5</ele><time>2026-04-07T07:19:02.999Z</time></trkpt><trkpt lat="45.60947591545553" lon="9.54237641939263"><ele>182.0</ele><time>2026-04-07T07:19:03.999Z</time></trkpt><trkpt lat="45.609594073187196" lon="9.54271288662508"><ele>181.5</ele><time>2026-04-07T07:19:04.999Z</time></trkpt><trkpt lat="45.6097149717163" lon="9.543051835212408"><ele>181.0</ele><time>2026-04-07T07:19:05.999Z</time></trkpt><trkpt lat="45.609829916996894" lon="9.543391715399178"><ele>180.5</ele><time>2026-04-07T07:19:06.999Z</time></trkpt><trkpt lat="45.609945350656815" lon="9.543733075974588"><ele>180.0</ele><time>2026-04-07T07:19:07.999Z</time></trkpt><trkpt lat="45.610058902034545" lon="9.544074439079713"><ele>180.0</ele><time>2026-04-07T07:19:08.999Z</time></trkpt><trkpt lat="45.610177334876276" lon="9.544417168447714"><ele>180.0</ele><time>2026-04-07T07:19:09.999Z</time></trkpt><trkpt lat="45.610294755772955" lon="9.544758385303313"><ele>180.5</ele><time>2026-04-07T07:19:10.999Z</time></trkpt><trkpt lat="45.61040890050223" lon="9.545100191273917"><ele>181.0</ele><time>2026-04-07T07:19:11.999Z</time></trkpt><trkpt lat="45.610523698837056" lon="9.545445501224082"><ele>181.0</ele><time>2026-04-07T07:19:12.999Z</time></trkpt><trkpt lat="45.61062745692678" lon="9.54579476764075"><ele>181.0</ele><time>2026-04-07T07:19:13.999Z</time></trkpt><trkpt lat="45.61073528984604" lon="9.546143334966686"><ele>180.0</ele><time>2026-04-07T07:19:14.999Z</time></trkpt><trkpt lat="45.61084575353874" lon="9.546493460219919"><ele>179.0</ele><time>2026-04-07T07:19:15.999Z</time></trkpt><trkpt lat="45.610953948766685" lon="9.546838656233783"><ele>179.0</ele><time>2026-04-07T07:19:16.999Z</time></trkpt><trkpt lat="45.611063234470876" lon="9.547181738679825"><ele>179.0</ele><time>2026-04-07T07:19:17.999Z</time></trkpt><trkpt lat="45.61118077640309" lon="9.547527614331301"><ele>179.0</ele><time>2026-04-07T07:19:18.999Z</time></trkpt><trkpt lat="45.61129808584687" lon="9.547869892981248"><ele>179.0</ele><time>2026-04-07T07:19:19.999Z</time></trkpt><trkpt lat="45.611413469863024" lon="9.54821021832767"><ele>179.5</ele><time>2026-04-07T07:19:20.999Z</time></trkpt><trkpt lat="45.61153012863159" lon="9.548555291157722"><ele>180.0</ele><time>2026-04-07T07:19:21.999Z</time></trkpt><trkpt lat="45.61164703557866" lon="9.548898938763859"><ele>180.0</ele><time>2026-04-07T07:19:22.999Z</time></trkpt><trkpt lat="45.6117622712386" lon="9.549240608341234"><ele>180.0</ele><time>2026-04-07T07:19:23.999Z</time></trkpt><trkpt lat="45.61187696382869" lon="9.549583736844307"><ele>178.5</ele><time>2026-04-07T07:19:24.999Z</time></trkpt><trkpt lat="45.61199098926972" lon="9.549925880841943"><ele>177.0</ele><time>2026-04-07T07:19:25.999Z</time></trkpt><trkpt lat="45.6121028350571" lon="9.550266499342069"><ele>178.5</ele><time>2026-04-07T07:19:26.999Z</time></trkpt><trkpt lat="45.61221918651661" lon="9.550614221349313"><ele>180.0</ele><time>2026-04-07T07:19:28Z</time></trkpt><trkpt lat="45.61233352938824" lon="9.550957745506155"><ele>180.5</ele><time>2026-04-07T07:19:29Z</time></trkpt><trkpt lat="45.61244686637489" lon="9.551300067698406"><ele>181.0</ele><time>2026-04-07T07:19:30Z</time></trkpt><trkpt lat="45.61256082386286" lon="9.551638082792845"><ele>181.0</ele><time>2026-04-07T07:19:31Z</time></trkpt><trkpt lat="45.61267852389544" lon="9.551983904428408"><ele>181.0</ele><time>2026-04-07T07:19:32Z</time></trkpt><trkpt lat="45.612793788376145" lon="9.552327848663836"><ele>180.5</ele><time>2026-04-07T07:19:33Z</time></trkpt><trkpt lat="45.612908739830914" lon="9.552668849153369"><ele>180.0</ele><time>2026-04-07T07:19:34Z</time></trkpt><trkpt lat="45.613024513862754" lon="9.553016075946745"><ele>179.5</ele><time>2026-04-07T07:19:35Z</time></trkpt><trkpt lat="45.613134417494315" lon="9.553354712807655"><ele>179.0</ele><time>2026-04-07T07:19:36Z</time></trkpt><trkpt lat="45.61324706858547" lon="9.553700468622392"><ele>178.0</ele><time>2026-04-07T07:19:37Z</time></trkpt><trkpt lat="45.61335527465773" lon="9.554051660985994"><ele>177.0</ele><time>2026-04-07T07:19:38Z</time></trkpt><trkpt lat="45.61346550728469" lon="9.55440421816232"><ele>178.0</ele><time>2026-04-07T07:19:39Z</time></trkpt><trkpt lat="45.61357421737544" lon="9.5547476702568"><ele>179.0</ele><time>2026-04-07T07:19:40Z</time></trkpt><trkpt lat="45.61368331299667" lon="9.555095290121326"><ele>178.0</ele><time>2026-04-07T07:19:41Z</time></trkpt><trkpt lat="45.61379461317358" lon="9.555443291297873"><ele>177.0</ele><time>2026-04-07T07:19:42Z</time></trkpt><trkpt lat="45.6139021004272" lon="9.555788370978279"><ele>177.0</ele><time>2026-04-07T07:19:43Z</time></trkpt><trkpt lat="45.61401374024017" lon="9.556140130488695"><ele>177.0</ele><time>2026-04-07T07:19:44Z</time></trkpt><trkpt lat="45.61412278951202" lon="9.556486062860886"><ele>177.0</ele><time>2026-04-07T07:19:45Z</time></trkpt><trkpt lat="45.614231980053184" lon="9.556827222447897"><ele>177.0</ele><time>2026-04-07T07:19:46Z</time></trkpt><trkpt lat="45.61434616540346" lon="9.557174230965016"><ele>176.5</ele><time>2026-04-07T07:19:47Z</time></trkpt><trkpt lat="45.61445433806387" lon="9.557516250322257"><ele>176.0</ele><time>2026-04-07T07:19:48Z</time></trkpt><trkpt lat="45.61456967054728" lon="9.557865553557374"><ele>175.5</ele><time>2026-04-07T07:19:49Z</time></trkpt><trkpt lat="45.61467788984339" lon="9.558215915543034"><ele>175.0</ele><time>2026-04-07T07:19:50Z</time></trkpt><trkpt lat="45.614790742736105" lon="9.558560702870885"><ele>169.5</ele><time>2026-04-07T07:19:51Z</time></trkpt><trkpt lat="45.61490389810755" lon="9.558905040019145"><ele>164.0</ele><time>2026-04-07T07:19:52Z</time></trkpt><trkpt lat="45.61502053639745" lon="9.55924665144135"><ele>165.0</ele><time>2026-04-07T07:19:53Z</time></trkpt><trkpt lat="45.61513554713818" lon="9.55958645497395"><ele>166.0</ele><time>2026-04-07T07:19:54Z</time></trkpt><trkpt lat="45.615249148685166" lon="9.559921840252871"><ele>168.5</ele><time>2026-04-07T07:19:55Z</time></trkpt><trkpt lat="45.615365646255235" lon="9.560260989511931"><ele>171.0</ele><time>2026-04-07T07:19:56Z</time></trkpt><trkpt lat="45.615478043079975" lon="9.56059727734207"><ele>172.0</ele><time>2026-04-07T07:19:57Z</time></trkpt><trkpt lat="45.61559440741067" lon="9.560939225539979"><ele>173.0</ele><time>2026-04-07T07:19:58Z</time></trkpt><trkpt lat="45.615709624722214" lon="9.561275220959825"><ele>173.0</ele><time>2026-04-07T07:19:59Z</time></trkpt><trkpt lat="45.61582788404041" lon="9.561613987164035"><ele>173.0</ele><time>2026-04-07T07:20:00Z</time></trkpt><trkpt lat="45.6159456894956" lon="9.561950709059563"><ele>173.0</ele><time>2026-04-07T07:20:01Z</time></trkpt><trkpt lat="45.61606577415639" lon="9.562289422322843"><ele>173.0</ele><time>2026-04-07T07:20:02Z</time></trkpt><trkpt lat="45.61619136273859" lon="9.5626330686303"><ele>174.5</ele><time>2026-04-07T07:20:03Z</time></trkpt><trkpt lat="45.61630743297893" lon="9.562971100970934"><ele>176.0</ele><time>2026-04-07T07:20:04Z</time></trkpt><trkpt lat="45.61642711698445" lon="9.563308321986437"><ele>176.0</ele><time>2026-04-07T07:20:05Z</time></trkpt><trkpt lat="45.61654489323629" lon="9.563650329765538"><ele>176.0</ele><time>2026-04-07T07:20:06Z</time></trkpt><trkpt lat="45.616666843100596" lon="9.563992372414377"><ele>176.0</ele><time>2026-04-07T07:20:07Z</time></trkpt><trkpt lat="45.61679476105479" lon="9.564349432009754"><ele>176.0</ele><time>2026-04-07T07:20:08Z</time></trkpt><trkpt lat="45.61691902721735" lon="9.564716861767137"><ele>177.0</ele><time>2026-04-07T07:20:09Z</time></trkpt><trkpt lat="45.61704694198264" lon="9.565090720555089"><ele>178.0</ele><time>2026-04-07T07:20:10Z</time></trkpt><trkpt lat="45.61717747918" lon="9.565464411694817"><ele>178.0</ele><time>2026-04-07T07:20:11Z</time></trkpt><trkpt lat="45.617298674525834" lon="9.565810534291597"><ele>178.0</ele><time>2026-04-07T07:20:12Z</time></trkpt><trkpt lat="45.617415183536274" lon="9.566165611327877"><ele>177.0</ele><time>2026-04-07T07:20:13Z</time></trkpt><trkpt lat="45.61753522315979" lon="9.56652016825837"><ele>176.0</ele><time>2026-04-07T07:20:14Z</time></trkpt><trkpt lat="45.617652505692995" lon="9.566863431395682"><ele>175.5</ele><time>2026-04-07T07:20:15Z</time></trkpt><trkpt lat="45.617767634227135" lon="9.56720015323484"><ele>175.0</ele><time>2026-04-07T07:20:16Z</time></trkpt><trkpt lat="45.61788230617253" lon="9.567543183455555"><ele>177.5</ele><time>2026-04-07T07:20:17Z</time></trkpt><trkpt lat="45.61799328405127" lon="9.567887427772588"><ele>180.0</ele><time>2026-04-07T07:20:18Z</time></trkpt><trkpt lat="45.61811357150106" lon="9.56825378847687"><ele>180.0</ele><time>2026-04-07T07:20:19Z</time></trkpt><trkpt lat="45.6182335114866" lon="9.56861455676366"><ele>180.0</ele><time>2026-04-07T07:20:20Z</time></trkpt><trkpt lat="45.61836125959697" lon="9.568983665940664"><ele>180.0</ele><time>2026-04-07T07:20:21Z</time></trkpt><trkpt lat="45.618488590735566" lon="9.56934967401466"><ele>180.0</ele><time>2026-04-07T07:20:22Z</time></trkpt><trkpt lat="45.61861703402371" lon="9.56971900168903"><ele>180.0</ele><time>2026-04-07T07:20:23Z</time></trkpt><trkpt lat="45.618746217330056" lon="9.570093112422013"><ele>180.0</ele><time>2026-04-07T07:20:24Z</time></trkpt><trkpt lat="45.618873843234546" lon="9.570465226987611"><ele>180.0</ele><time>2026-04-07T07:20:25Z</time></trkpt><trkpt lat="45.619002574308794" lon="9.5708395182466"><ele>180.0</ele><time>2026-04-07T07:20:26Z</time></trkpt><trkpt lat="45.61912920252953" lon="9.571208092355016"><ele>179.5</ele><time>2026-04-07T07:20:26.999Z</time></trkpt><trkpt lat="45.619257729942" lon="9.571575096585677"><ele>179.0</ele><time>2026-04-07T07:20:27.999Z</time></trkpt><trkpt lat="45.619383771121846" lon="9.571942827802777"><ele>180.5</ele><time>2026-04-07T07:20:28.999Z</time></trkpt><trkpt lat="45.619514279446044" lon="9.572300412554332"><ele>182.0</ele><time>2026-04-07T07:20:29.999Z</time></trkpt><trkpt lat="45.619649381794" lon="9.57265546508546"><ele>182.5</ele><time>2026-04-07T07:20:30.999Z</time></trkpt><trkpt lat="45.61978738407507" lon="9.573012339524187"><ele>183.0</ele><time>2026-04-07T07:20:31.999Z</time></trkpt><trkpt lat="45.61992163588789" lon="9.573364908599837"><ele>182.5</ele><time>2026-04-07T07:20:32.999Z</time></trkpt><trkpt lat="45.62005073645378" lon="9.573719462277094"><ele>182.0</ele><time>2026-04-07T07:20:33.999Z</time></trkpt><trkpt lat="45.62017501891734" lon="9.574083685485135"><ele>182.0</ele><time>2026-04-07T07:20:34.999Z</time></trkpt><trkpt lat="45.6202967580229" lon="9.574448891447537"><ele>182.0</ele><time>2026-04-07T07:20:35.999Z</time></trkpt><trkpt lat="45.62042074714464" lon="9.574814873686554"><ele>182.5</ele><time>2026-04-07T07:20:36.999Z</time></trkpt><trkpt lat="45.62054294497251" lon="9.575181203692498"><ele>183.0</ele><time>2026-04-07T07:20:37.999Z</time></trkpt><trkpt lat="45.62066444334464" lon="9.575546373030207"><ele>183.0</ele><time>2026-04-07T07:20:38.999Z</time></trkpt><trkpt lat="45.620781810263345" lon="9.57592585321367"><ele>183.0</ele><time>2026-04-07T07:20:39.999Z</time></trkpt><trkpt lat="45.62089510374645" lon="9.576287771376593"><ele>182.0</ele><time>2026-04-07T07:20:40.999Z</time></trkpt><trkpt lat="45.62100644381883" lon="9.576668964415967"><ele>181.0</ele><time>2026-04-07T07:20:41.999Z</time></trkpt><trkpt lat="45.62112188397606" lon="9.577043167365728"><ele>181.0</ele><time>2026-04-07T07:20:42.999Z</time></trkpt><trkpt lat="45.62124326825146" lon="9.577413529372354"><ele>181.0</ele><time>2026-04-07T07:20:43.999Z</time></trkpt><trkpt lat="45.621370010847876" lon="9.57777628379697"><ele>182.0</ele><time>2026-04-07T07:20:44.999Z</time></trkpt><trkpt lat="45.62149733810146" lon="9.578145597298407"><ele>183.0</ele><time>2026-04-07T07:20:45.999Z</time></trkpt><trkpt lat="45.62162285853877" lon="9.57851206111694"><ele>182.5</ele><time>2026-04-07T07:20:46.999Z</time></trkpt><trkpt lat="45.621747861431565" lon="9.57887566935783"><ele>182.0</ele><time>2026-04-07T07:20:47.999Z</time></trkpt><trkpt lat="45.62187044091731" lon="9.579239555681658"><ele>183.5</ele><time>2026-04-07T07:20:48.999Z</time></trkpt><trkpt lat="45.62199371623356" lon="9.579607193396727"><ele>185.0</ele><time>2026-04-07T07:20:49.999Z</time></trkpt><trkpt lat="45.62211878054552" lon="9.579970747659715"><ele>185.0</ele><time>2026-04-07T07:20:50.999Z</time></trkpt><trkpt lat="45.622243579168625" lon="9.580338028737835"><ele>185.0</ele><time>2026-04-07T07:20:51.999Z</time></trkpt><trkpt lat="45.622366710714104" lon="9.580708548140763"><ele>185.0</ele><time>2026-04-07T07:20:52.999Z</time></trkpt><trkpt lat="45.622487509474155" lon="9.581067431122994"><ele>185.0</ele><time>2026-04-07T07:20:53.999Z</time></trkpt><trkpt lat="45.62261472532192" lon="9.581433869749143"><ele>185.0</ele><time>2026-04-07T07:20:54.999Z</time></trkpt><trkpt lat="45.62274732553115" lon="9.581789372930555"><ele>185.0</ele><time>2026-04-07T07:20:55.999Z</time></trkpt><trkpt lat="45.622883277241804" lon="9.582148843555624"><ele>185.0</ele><time>2026-04-07T07:20:56.999Z</time></trkpt><trkpt lat="45.62302375044145" lon="9.582496257502568"><ele>185.0</ele><time>2026-04-07T07:20:57.999Z</time></trkpt><trkpt lat="45.62316824300263" lon="9.58285066867393"><ele>185.0</ele><time>2026-04-07T07:20:58.999Z</time></trkpt><trkpt lat="45.62331750441169" lon="9.58319806942867"><ele>185.0</ele><time>2026-04-07T07:20:59.999Z</time></trkpt><trkpt lat="45.62346593007133" lon="9.583540686677765"><ele>185.0</ele><time>2026-04-07T07:21:00.999Z</time></trkpt><trkpt lat="45.62361473029342" lon="9.583888952647902"><ele>185.0</ele><time>2026-04-07T07:21:01.999Z</time></trkpt><trkpt lat="45.623767379915776" lon="9.584234739527815"><ele>186.0</ele><time>2026-04-07T07:21:02.999Z</time></trkpt><trkpt lat="45.6239248441567" lon="9.584570724245769"><ele>187.0</ele><time>2026-04-07T07:21:03.999Z</time></trkpt><trkpt lat="45.62408827979812" lon="9.584909911562562"><ele>187.0</ele><time>2026-04-07T07:21:04.999Z</time></trkpt><trkpt lat="45.62425395475447" lon="9.585240882615885"><ele>187.0</ele><time>2026-04-07T07:21:05.999Z</time></trkpt><trkpt lat="45.62442599048717" lon="9.58556503068987"><ele>187.5</ele><time>2026-04-07T07:21:06.999Z</time></trkpt><trkpt lat="45.62460035440506" lon="9.585895528612815"><ele>188.0</ele><time>2026-04-07T07:21:07.999Z</time></trkpt><trkpt lat="45.624778662485035" lon="9.586220791496558"><ele>187.0</ele><time>2026-04-07T07:21:08.999Z</time></trkpt><trkpt lat="45.62495868436344" lon="9.586543693055818"><ele>186.0</ele><time>2026-04-07T07:21:09.999Z</time></trkpt><trkpt lat="45.625136658292035" lon="9.58687087495002"><ele>185.5</ele><time>2026-04-07T07:21:10.999Z</time></trkpt><trkpt lat="45.625311085044224" lon="9.58718976306929"><ele>185.0</ele><time>2026-04-07T07:21:11.999Z</time></trkpt><trkpt lat="45.62548765092173" lon="9.587511592101606"><ele>184.5</ele><time>2026-04-07T07:21:12.999Z</time></trkpt><trkpt lat="45.62566391935838" lon="9.587825810905914"><ele>184.0</ele><time>2026-04-07T07:21:13.999Z</time></trkpt><trkpt lat="45.62584348250676" lon="9.588139781313128"><ele>184.0</ele><time>2026-04-07T07:21:14.999Z</time></trkpt><trkpt lat="45.62602883645705" lon="9.588457785038623"><ele>184.0</ele><time>2026-04-07T07:21:15.999Z</time></trkpt><trkpt lat="45.626211999145" lon="9.588757489420855"><ele>185.0</ele><time>2026-04-07T07:21:16.999Z</time></trkpt><trkpt lat="45.62639529051913" lon="9.589066955557675"><ele>186.0</ele><time>2026-04-07T07:21:17.999Z</time></trkpt><trkpt lat="45.626573321107465" lon="9.58938319833578"><ele>185.5</ele><time>2026-04-07T07:21:18.999Z</time></trkpt><trkpt lat="45.62674999491729" lon="9.589700886197685"><ele>185.0</ele><time>2026-04-07T07:21:19.999Z</time></trkpt><trkpt lat="45.62692776223336" lon="9.590021015741387"><ele>186.5</ele><time>2026-04-07T07:21:20.999Z</time></trkpt><trkpt lat="45.62710461853492" lon="9.590343185198948"><ele>188.0</ele><time>2026-04-07T07:21:21.999Z</time></trkpt><trkpt lat="45.62727806250868" lon="9.590655873039333"><ele>188.0</ele><time>2026-04-07T07:21:22.999Z</time></trkpt><trkpt lat="45.62745437130277" lon="9.590967987025435"><ele>188.0</ele><time>2026-04-07T07:21:23.999Z</time></trkpt><trkpt lat="45.627634627689204" lon="9.591282047614971"><ele>188.0</ele><time>2026-04-07T07:21:24.999Z</time></trkpt><trkpt lat="45.62781591002493" lon="9.591599389738604"><ele>188.0</ele><time>2026-04-07T07:21:25.999Z</time></trkpt><trkpt lat="45.627996866205734" lon="9.591912020756407"><ele>188.5</ele><time>2026-04-07T07:21:26.999Z</time></trkpt><trkpt lat="45.62817286902661" lon="9.592235757264534"><ele>189.0</ele><time>2026-04-07T07:21:27.999Z</time></trkpt><trkpt lat="45.628340362661" lon="9.592564605427391"><ele>188.5</ele><time>2026-04-07T07:21:28.999Z</time></trkpt><trkpt lat="45.6285129376714" lon="9.592893908697556"><ele>188.0</ele><time>2026-04-07T07:21:29.999Z</time></trkpt><trkpt lat="45.62868456214699" lon="9.593213493023526"><ele>189.0</ele><time>2026-04-07T07:21:30.999Z</time></trkpt><trkpt lat="45.62885718064388" lon="9.593537322398062"><ele>190.0</ele><time>2026-04-07T07:21:31.999Z</time></trkpt><trkpt lat="45.629030440951425" lon="9.593859520412868"><ele>190.0</ele><time>2026-04-07T07:21:32.999Z</time></trkpt><trkpt lat="45.62920404328357" lon="9.594179206442234"><ele>190.0</ele><time>2026-04-07T07:21:34Z</time></trkpt><trkpt lat="45.629379953005916" lon="9.594506263788963"><ele>191.0</ele><time>2026-04-07T07:21:35Z</time></trkpt><trkpt lat="45.6295544212837" lon="9.5948272564806"><ele>192.0</ele><time>2026-04-07T07:21:36Z</time></trkpt><trkpt lat="45.62973366077552" lon="9.595144102419113"><ele>191.5</ele><time>2026-04-07T07:21:37Z</time></trkpt><trkpt lat="45.629912064923815" lon="9.595456264632721"><ele>191.0</ele><time>2026-04-07T07:21:38Z</time></trkpt><trkpt lat="45.63009281873389" lon="9.595773364260983"><ele>191.0</ele><time>2026-04-07T07:21:39Z</time></trkpt><trkpt lat="45.63027599993834" lon="9.596095906008994"><ele>191.0</ele><time>2026-04-07T07:21:40Z</time></trkpt><trkpt lat="45.63045733377124" lon="9.596408530376905"><ele>191.0</ele><time>2026-04-07T07:21:41Z</time></trkpt><trkpt lat="45.630639172094924" lon="9.596720074704546"><ele>191.0</ele><time>2026-04-07T07:21:42Z</time></trkpt><trkpt lat="45.63082247506195" lon="9.597038486516134"><ele>189.5</ele><time>2026-04-07T07:21:43Z</time></trkpt><trkpt lat="45.63100577694188" lon="9.597349374264423"><ele>188.0</ele><time>2026-04-07T07:21:44Z</time></trkpt><trkpt lat="45.631183452753504" lon="9.59766941711147"><ele>189.0</ele><time>2026-04-07T07:21:45Z</time></trkpt><trkpt lat="45.631363973379436" lon="9.597983717199378"><ele>190.0</ele><time>2026-04-07T07:21:46Z</time></trkpt><trkpt lat="45.631546733057114" lon="9.598300498288676"><ele>190.0</ele><time>2026-04-07T07:21:47Z</time></trkpt><trkpt lat="45.63173152102271" lon="9.598618829272752"><ele>190.0</ele><time>2026-04-07T07:21:48Z</time></trkpt><trkpt lat="45.631909491961146" lon="9.598925386473605"><ele>189.5</ele><time>2026-04-07T07:21:49Z</time></trkpt><trkpt lat="45.63208780155763" lon="9.599234244623007"><ele>189.0</ele><time>2026-04-07T07:21:50Z</time></trkpt><trkpt lat="45.63226587911415" lon="9.599548110176167"><ele>189.0</ele><time>2026-04-07T07:21:51Z</time></trkpt><trkpt lat="45.632441604784155" lon="9.599866763346968"><ele>189.0</ele><time>2026-04-07T07:21:52Z</time></trkpt><trkpt lat="45.632621923919835" lon="9.600187067341453"><ele>188.5</ele><time>2026-04-07T07:21:53Z</time></trkpt><trkpt lat="45.63279990300918" lon="9.600506461139359"><ele>188.0</ele><time>2026-04-07T07:21:54Z</time></trkpt><trkpt lat="45.63297840276462" lon="9.60083044636164"><ele>188.0</ele><time>2026-04-07T07:21:55Z</time></trkpt><trkpt lat="45.63315436296622" lon="9.601153108488337"><ele>188.0</ele><time>2026-04-07T07:21:56Z</time></trkpt><trkpt lat="45.63333101801801" lon="9.601476352074913"><ele>190.0</ele><time>2026-04-07T07:21:57Z</time></trkpt><trkpt lat="45.63350539986275" lon="9.601795393608423"><ele>192.0</ele><time>2026-04-07T07:21:58Z</time></trkpt><trkpt lat="45.63368561717452" lon="9.602109250541337"><ele>192.0</ele><time>2026-04-07T07:21:59Z</time></trkpt><trkpt lat="45.633874101625956" lon="9.602422255487932"><ele>192.0</ele><time>2026-04-07T07:22:00Z</time></trkpt><trkpt lat="45.63405989151065" lon="9.602729968739448"><ele>192.0</ele><time>2026-04-07T07:22:01Z</time></trkpt><trkpt lat="45.6342403030433" lon="9.603043855467961"><ele>192.0</ele><time>2026-04-07T07:22:02Z</time></trkpt><trkpt lat="45.634415732202704" lon="9.60336223448758"><ele>195.0</ele><time>2026-04-07T07:22:03Z</time></trkpt><trkpt lat="45.63458929707666" lon="9.603685453874446"><ele>198.0</ele><time>2026-04-07T07:22:04Z</time></trkpt><trkpt lat="45.63476144179759" lon="9.604004008475059"><ele>198.0</ele><time>2026-04-07T07:22:05Z</time></trkpt><trkpt lat="45.634934753191494" lon="9.604318949861094"><ele>198.0</ele><time>2026-04-07T07:22:06Z</time></trkpt><trkpt lat="45.63510809110412" lon="9.604639504043906"><ele>197.5</ele><time>2026-04-07T07:22:07Z</time></trkpt><trkpt lat="45.63527896987212" lon="9.604959012448576"><ele>197.0</ele><time>2026-04-07T07:22:08Z</time></trkpt><trkpt lat="45.63544966914221" lon="9.605287618117817"><ele>195.5</ele><time>2026-04-07T07:22:09Z</time></trkpt><trkpt lat="45.63562522777856" lon="9.605609202519785"><ele>194.0</ele><time>2026-04-07T07:22:10Z</time></trkpt><trkpt lat="45.635803678938636" lon="9.60592843548977"><ele>193.0</ele><time>2026-04-07T07:22:11Z</time></trkpt><trkpt lat="45.63598272645205" lon="9.606246117899572"><ele>192.0</ele><time>2026-04-07T07:22:12Z</time></trkpt><trkpt lat="45.63616128954266" lon="9.606569029116994"><ele>195.5</ele><time>2026-04-07T07:22:13Z</time></trkpt><trkpt lat="45.636337771820074" lon="9.606886285792454"><ele>199.0</ele><time>2026-04-07T07:22:14Z</time></trkpt><trkpt lat="45.63651561294154" lon="9.607202675737856"><ele>199.0</ele><time>2026-04-07T07:22:15Z</time></trkpt><trkpt lat="45.636693502411774" lon="9.607530236750602"><ele>199.0</ele><time>2026-04-07T07:22:16Z</time></trkpt><trkpt lat="45.63687193834801" lon="9.607854462609243"><ele>197.0</ele><time>2026-04-07T07:22:17Z</time></trkpt><trkpt lat="45.63704938572451" lon="9.608172430001842"><ele>195.0</ele><time>2026-04-07T07:22:18Z</time></trkpt><trkpt lat="45.63722792547262" lon="9.608487462285964"><ele>195.0</ele><time>2026-04-07T07:22:19Z</time></trkpt><trkpt lat="45.63740638547815" lon="9.60881512599989"><ele>195.0</ele><time>2026-04-07T07:22:20Z</time></trkpt><trkpt lat="45.63758245663147" lon="9.609136941884607"><ele>195.0</ele><time>2026-04-07T07:22:21Z</time></trkpt><trkpt lat="45.63775867228488" lon="9.609461438814481"><ele>195.0</ele><time>2026-04-07T07:22:22Z</time></trkpt><trkpt lat="45.63793405068932" lon="9.609778461621993"><ele>196.5</ele><time>2026-04-07T07:22:23Z</time></trkpt><trkpt lat="45.638109228634185" lon="9.610103128445331"><ele>198.0</ele><time>2026-04-07T07:22:24Z</time></trkpt><trkpt lat="45.63828041432416" lon="9.610416632835726"><ele>198.0</ele><time>2026-04-07T07:22:25Z</time></trkpt><trkpt lat="45.638452689317866" lon="9.610743683321388"><ele>198.0</ele><time>2026-04-07T07:22:26Z</time></trkpt><trkpt lat="45.63862714406436" lon="9.61106333348133"><ele>198.0</ele><time>2026-04-07T07:22:27Z</time></trkpt><trkpt lat="45.63880552394184" lon="9.611385151775432"><ele>198.0</ele><time>2026-04-07T07:22:28Z</time></trkpt><trkpt lat="45.63898419428764" lon="9.611702034559656"><ele>198.5</ele><time>2026-04-07T07:22:29Z</time></trkpt><trkpt lat="45.63916219225848" lon="9.61201692734241"><ele>199.0</ele><time>2026-04-07T07:22:29.999Z</time></trkpt><trkpt lat="45.639336994095096" lon="9.612334629313535"><ele>198.5</ele><time>2026-04-07T07:22:30.999Z</time></trkpt><trkpt lat="45.63951169659299" lon="9.612656784158483"><ele>198.0</ele><time>2026-04-07T07:22:31.999Z</time></trkpt><trkpt lat="45.63968795088099" lon="9.612972271169122"><ele>198.0</ele><time>2026-04-07T07:22:32.999Z</time></trkpt><trkpt lat="45.63986876123192" lon="9.613300242863685"><ele>198.0</ele><time>2026-04-07T07:22:33.999Z</time></trkpt><trkpt lat="45.64004774013421" lon="9.61361331438378"><ele>197.5</ele><time>2026-04-07T07:22:34.999Z</time></trkpt><trkpt lat="45.640229065946706" lon="9.613929660446315"><ele>197.0</ele><time>2026-04-07T07:22:35.999Z</time></trkpt><trkpt lat="45.6404120061125" lon="9.614245606939393"><ele>197.0</ele><time>2026-04-07T07:22:36.999Z</time></trkpt><trkpt lat="45.640592134936064" lon="9.614560304506407"><ele>197.0</ele><time>2026-04-07T07:22:37.999Z</time></trkpt><trkpt lat="45.64077293533156" lon="9.614880816384696"><ele>197.0</ele><time>2026-04-07T07:22:38.999Z</time></trkpt><trkpt lat="45.64095158214545" lon="9.615197088954513"><ele>197.0</ele><time>2026-04-07T07:22:39.999Z</time></trkpt><trkpt lat="45.64112860118048" lon="9.615520186101994"><ele>198.5</ele><time>2026-04-07T07:22:40.999Z</time></trkpt><trkpt lat="45.64130463864593" lon="9.615844538505112"><ele>200.0</ele><time>2026-04-07T07:22:41.999Z</time></trkpt><trkpt lat="45.64148109669564" lon="9.616165763652166"><ele>200.0</ele><time>2026-04-07T07:22:42.999Z</time></trkpt><trkpt lat="45.641657214127626" lon="9.616491414163596"><ele>200.0</ele><time>2026-04-07T07:22:43.999Z</time></trkpt><trkpt lat="45.64183284060484" lon="9.616815731324563"><ele>199.5</ele><time>2026-04-07T07:22:44.999Z</time></trkpt><trkpt lat="45.64200810888737" lon="9.617138700532811"><ele>199.0</ele><time>2026-04-07T07:22:45.999Z</time></trkpt><trkpt lat="45.642185486435444" lon="9.617460596805753"><ele>199.0</ele><time>2026-04-07T07:22:46.999Z</time></trkpt><trkpt lat="45.64236053897979" lon="9.617782057366648"><ele>199.0</ele><time>2026-04-07T07:22:47.999Z</time></trkpt><trkpt lat="45.642528625132705" lon="9.618092713640268"><ele>198.0</ele><time>2026-04-07T07:22:48.999Z</time></trkpt><trkpt lat="45.64270357861235" lon="9.618418772868118"><ele>197.0</ele><time>2026-04-07T07:22:49.999Z</time></trkpt><trkpt lat="45.64287728936084" lon="9.618741093727612"><ele>197.0</ele><time>2026-04-07T07:22:50.999Z</time></trkpt><trkpt lat="45.643049466308604" lon="9.61905916969258"><ele>197.0</ele><time>2026-04-07T07:22:51.999Z</time></trkpt><trkpt lat="45.643222457724995" lon="9.619376086021918"><ele>197.0</ele><time>2026-04-07T07:22:52.999Z</time></trkpt><trkpt lat="45.64340071906419" lon="9.61968647233011"><ele>197.0</ele><time>2026-04-07T07:22:53.999Z</time></trkpt><trkpt lat="45.64358081377084" lon="9.619999469904291"><ele>197.0</ele><time>2026-04-07T07:22:54.999Z</time></trkpt><trkpt lat="45.6437619734293" lon="9.620321760618761"><ele>197.0</ele><time>2026-04-07T07:22:55.999Z</time></trkpt><trkpt lat="45.64393815982254" lon="9.620640803402134"><ele>197.0</ele><time>2026-04-07T07:22:56.999Z</time></trkpt><trkpt lat="45.64411149033171" lon="9.620963530750187"><ele>197.0</ele><time>2026-04-07T07:22:57.999Z</time></trkpt><trkpt lat="45.64428717440326" lon="9.621280661501372"><ele>197.5</ele><time>2026-04-07T07:22:58.999Z</time></trkpt><trkpt lat="45.64446253744595" lon="9.621600439285395"><ele>198.0</ele><time>2026-04-07T07:22:59.999Z</time></trkpt><trkpt lat="45.64464323340739" lon="9.62192707165819"><ele>198.5</ele><time>2026-04-07T07:23:00.999Z</time></trkpt><trkpt lat="45.64482825205458" lon="9.622256671003253"><ele>199.0</ele><time>2026-04-07T07:23:01.999Z</time></trkpt><trkpt lat="45.645003154323376" lon="9.622573281307416"><ele>199.0</ele><time>2026-04-07T07:23:02.999Z</time></trkpt><trkpt lat="45.645180793460796" lon="9.622894235113462"><ele>199.0</ele><time>2026-04-07T07:23:03.999Z</time></trkpt><trkpt lat="45.64535458416259" lon="9.623211724743891"><ele>199.5</ele><time>2026-04-07T07:23:04.999Z</time></trkpt><trkpt lat="45.64553308293939" lon="9.623530507957147"><ele>200.0</ele><time>2026-04-07T07:23:05.999Z</time></trkpt><trkpt lat="45.645709654524936" lon="9.623845018945511"><ele>199.0</ele><time>2026-04-07T07:23:06.999Z</time></trkpt><trkpt lat="45.64588710100528" lon="9.62416275854517"><ele>198.0</ele><time>2026-04-07T07:23:07.999Z</time></trkpt><trkpt lat="45.64606328295501" lon="9.624481375844585"><ele>198.0</ele><time>2026-04-07T07:23:08.999Z</time></trkpt><trkpt lat="45.64624159229164" lon="9.624802347756802"><ele>198.0</ele><time>2026-04-07T07:23:09.999Z</time></trkpt><trkpt lat="45.64641556591015" lon="9.62511744528225"><ele>198.0</ele><time>2026-04-07T07:23:10.999Z</time></trkpt><trkpt lat="45.646595225025216" lon="9.625437305506221"><ele>198.0</ele><time>2026-04-07T07:23:11.999Z</time></trkpt><trkpt lat="45.64677150965418" lon="9.625754176948824"><ele>198.0</ele><time>2026-04-07T07:23:12.999Z</time></trkpt><trkpt lat="45.646948161527135" lon="9.626070449814728"><ele>198.0</ele><time>2026-04-07T07:23:13.999Z</time></trkpt><trkpt lat="45.64712490083626" lon="9.626387911388422"><ele>198.0</ele><time>2026-04-07T07:23:14.999Z</time></trkpt><trkpt lat="45.64730263310764" lon="9.62671431705746"><ele>198.0</ele><time>2026-04-07T07:23:15.999Z</time></trkpt><trkpt lat="45.64748102705381" lon="9.627041523194114"><ele>198.0</ele><time>2026-04-07T07:23:16.999Z</time></trkpt><trkpt lat="45.6476566429477" lon="9.627362866616775"><ele>198.0</ele><time>2026-04-07T07:23:17.999Z</time></trkpt><trkpt lat="45.647833072961824" lon="9.62768164979842"><ele>199.0</ele><time>2026-04-07T07:23:18.999Z</time></trkpt><trkpt lat="45.64801087867963" lon="9.628003581507684"><ele>200.0</ele><time>2026-04-07T07:23:19.999Z</time></trkpt><trkpt lat="45.6481890041255" lon="9.628322107606868"><ele>200.0</ele><time>2026-04-07T07:23:20.999Z</time></trkpt><trkpt lat="45.648369004456754" lon="9.628637748388181"><ele>200.0</ele><time>2026-04-07T07:23:21.999Z</time></trkpt><trkpt lat="45.648547834574444" lon="9.628954360771221"><ele>200.0</ele><time>2026-04-07T07:23:22.999Z</time></trkpt><trkpt lat="45.64872237871886" lon="9.629265274191148"><ele>200.0</ele><time>2026-04-07T07:23:23.999Z</time></trkpt><trkpt lat="45.64889282774451" lon="9.629576866760884"><ele>200.0</ele><time>2026-04-07T07:23:24.999Z</time></trkpt><trkpt lat="45.649059779806706" lon="9.629889525130407"><ele>200.0</ele><time>2026-04-07T07:23:25.999Z</time></trkpt><trkpt lat="45.64925768758098" lon="9.630213429561273"><ele>199.5</ele><time>2026-04-07T07:23:26.999Z</time></trkpt><trkpt lat="45.649426428909756" lon="9.63052928963391"><ele>199.0</ele><time>2026-04-07T07:23:27.999Z</time></trkpt><trkpt lat="45.64960725989511" lon="9.630847365191068"><ele>199.5</ele><time>2026-04-07T07:23:28.999Z</time></trkpt><trkpt lat="45.649790036100526" lon="9.631163547200764"><ele>200.0</ele><time>2026-04-07T07:23:29.999Z</time></trkpt><trkpt lat="45.64996934404673" lon="9.63147913358501"><ele>200.0</ele><time>2026-04-07T07:23:30.999Z</time></trkpt><trkpt lat="45.65014900642156" lon="9.63180013777997"><ele>200.0</ele><time>2026-04-07T07:23:31.999Z</time></trkpt><trkpt lat="45.650327721255294" lon="9.632116213142819"><ele>200.0</ele><time>2026-04-07T07:23:32.999Z</time></trkpt><trkpt lat="45.65050863253643" lon="9.632439930136075"><ele>200.0</ele><time>2026-04-07T07:23:33.999Z</time></trkpt><trkpt lat="45.650685584668835" lon="9.632766558503695"><ele>200.0</ele><time>2026-04-07T07:23:34.999Z</time></trkpt><trkpt lat="45.650869892444334" lon="9.633070896838253"><ele>200.0</ele><time>2026-04-07T07:23:35.999Z</time></trkpt><trkpt lat="45.65104868098252" lon="9.633390841950986"><ele>201.0</ele><time>2026-04-07T07:23:36.999Z</time></trkpt><trkpt lat="45.651230251018596" lon="9.633713258592492"><ele>202.0</ele><time>2026-04-07T07:23:37.999Z</time></trkpt><trkpt lat="45.65141044545221" lon="9.634031716375116"><ele>202.0</ele><time>2026-04-07T07:23:38.999Z</time></trkpt><trkpt lat="45.65159094950499" lon="9.634352631611748"><ele>202.0</ele><time>2026-04-07T07:23:40Z</time></trkpt><trkpt lat="45.65176737389752" lon="9.634664540956724"><ele>201.5</ele><time>2026-04-07T07:23:41Z</time></trkpt><trkpt lat="45.65194387704877" lon="9.634982318749316"><ele>201.0</ele><time>2026-04-07T07:23:42Z</time></trkpt><trkpt lat="45.652123244406965" lon="9.635301032994068"><ele>202.0</ele><time>2026-04-07T07:23:43Z</time></trkpt><trkpt lat="45.65230094232956" lon="9.635620205809792"><ele>203.0</ele><time>2026-04-07T07:23:44Z</time></trkpt><trkpt lat="45.65247583865662" lon="9.635938521276"><ele>203.0</ele><time>2026-04-07T07:23:45Z</time></trkpt><trkpt lat="45.65265178804294" lon="9.63625906690951"><ele>203.0</ele><time>2026-04-07T07:23:46Z</time></trkpt><trkpt lat="45.65282516217153" lon="9.636573748860464"><ele>203.0</ele><time>2026-04-07T07:23:47Z</time></trkpt><trkpt lat="45.65299990409944" lon="9.636897498325247"><ele>203.0</ele><time>2026-04-07T07:23:48Z</time></trkpt><trkpt lat="45.65317755413522" lon="9.63721567766221"><ele>203.0</ele><time>2026-04-07T07:23:49Z</time></trkpt><trkpt lat="45.653355092198005" lon="9.637530154401025"><ele>203.0</ele><time>2026-04-07T07:23:50Z</time></trkpt><trkpt lat="45.65353186111188" lon="9.637844863387635"><ele>203.0</ele><time>2026-04-07T07:23:51Z</time></trkpt><trkpt lat="45.653706233523124" lon="9.638152882002082"><ele>203.0</ele><time>2026-04-07T07:23:52Z</time></trkpt><trkpt lat="45.65387997168269" lon="9.638456359540045"><ele>204.0</ele><time>2026-04-07T07:23:53Z</time></trkpt><trkpt lat="45.65405299466442" lon="9.638750423863543"><ele>205.0</ele><time>2026-04-07T07:23:54Z</time></trkpt><trkpt lat="45.654243991000094" lon="9.639125799209154"><ele>205.0</ele><time>2026-04-07T07:23:55Z</time></trkpt><trkpt lat="45.654418092807944" lon="9.639442623774414"><ele>205.0</ele><time>2026-04-07T07:23:56Z</time></trkpt><trkpt lat="45.65458732795974" lon="9.639763152383003"><ele>205.0</ele><time>2026-04-07T07:23:57Z</time></trkpt><trkpt lat="45.654767776950045" lon="9.640077710298723"><ele>205.0</ele><time>2026-04-07T07:23:58Z</time></trkpt><trkpt lat="45.65494427543011" lon="9.640399294549638"><ele>205.0</ele><time>2026-04-07T07:23:59Z</time></trkpt><trkpt lat="45.65511623522708" lon="9.640721783762713"><ele>205.0</ele><time>2026-04-07T07:24:00Z</time></trkpt><trkpt lat="45.655287167975004" lon="9.641048846234959"><ele>206.5</ele><time>2026-04-07T07:24:01Z</time></trkpt><trkpt lat="45.65545711935911" lon="9.64138011882224"><ele>208.0</ele><time>2026-04-07T07:24:02Z</time></trkpt><trkpt lat="45.65562707712389" lon="9.64170461207151"><ele>208.0</ele><time>2026-04-07T07:24:03Z</time></trkpt><trkpt lat="45.655802515289245" lon="9.642029418652353"><ele>208.0</ele><time>2026-04-07T07:24:04Z</time></trkpt><trkpt lat="45.65598288211647" lon="9.642346777013335"><ele>208.0</ele><time>2026-04-07T07:24:05Z</time></trkpt><trkpt lat="45.656158505357084" lon="9.642666175589419"><ele>208.0</ele><time>2026-04-07T07:24:06Z</time></trkpt><trkpt lat="45.65633307328909" lon="9.642990183492156"><ele>208.0</ele><time>2026-04-07T07:24:07Z</time></trkpt><trkpt lat="45.65651180000402" lon="9.643309702783686"><ele>208.0</ele><time>2026-04-07T07:24:08Z</time></trkpt><trkpt lat="45.656686177101506" lon="9.64363481206082"><ele>208.0</ele><time>2026-04-07T07:24:09Z</time></trkpt><trkpt lat="45.656862144612255" lon="9.643957239699116"><ele>208.0</ele><time>2026-04-07T07:24:10Z</time></trkpt><trkpt lat="45.65702828608343" lon="9.644287288668513"><ele>208.5</ele><time>2026-04-07T07:24:11Z</time></trkpt><trkpt lat="45.657217313535156" lon="9.644616062836949"><ele>209.0</ele><time>2026-04-07T07:24:12Z</time></trkpt><trkpt lat="45.65739359779652" lon="9.64492622703249"><ele>209.0</ele><time>2026-04-07T07:24:13Z</time></trkpt><trkpt lat="45.6575517016452" lon="9.645208681254733"><ele>209.0</ele><time>2026-04-07T07:24:14Z</time></trkpt><trkpt lat="45.657703473305794" lon="9.64548459855346"><ele>208.5</ele><time>2026-04-07T07:24:15Z</time></trkpt><trkpt lat="45.657853987408814" lon="9.645756563600916"><ele>208.0</ele><time>2026-04-07T07:24:16Z</time></trkpt><trkpt lat="45.658007586162356" lon="9.646033747828733"><ele>207.5</ele><time>2026-04-07T07:24:17Z</time></trkpt><trkpt lat="45.658150790381605" lon="9.646301706778965"><ele>207.0</ele><time>2026-04-07T07:24:18Z</time></trkpt><trkpt lat="45.658300727494975" lon="9.646571156554218"><ele>207.0</ele><time>2026-04-07T07:24:19Z</time></trkpt><trkpt lat="45.65845059500417" lon="9.646835519371102"><ele>207.0</ele><time>2026-04-07T07:24:20Z</time></trkpt><trkpt lat="45.65859469953958" lon="9.64709136586443"><ele>207.5</ele><time>2026-04-07T07:24:21Z</time></trkpt><trkpt lat="45.658736993310434" lon="9.647344712508584"><ele>208.0</ele><time>2026-04-07T07:24:22Z</time></trkpt><trkpt lat="45.65887642649556" lon="9.647595069743929"><ele>209.0</ele><time>2026-04-07T07:24:23Z</time></trkpt><trkpt lat="45.65901545564119" lon="9.647841949325107"><ele>210.0</ele><time>2026-04-07T07:24:24Z</time></trkpt><trkpt lat="45.65915802021404" lon="9.648098933718298"><ele>210.0</ele><time>2026-04-07T07:24:25Z</time></trkpt><trkpt lat="45.65929930632871" lon="9.648353077107164"><ele>210.0</ele><time>2026-04-07T07:24:26Z</time></trkpt><trkpt lat="45.65944628500909" lon="9.648619741954866"><ele>209.0</ele><time>2026-04-07T07:24:27Z</time></trkpt><trkpt lat="45.65959192996549" lon="9.648881143226413"><ele>208.0</ele><time>2026-04-07T07:24:28Z</time></trkpt><trkpt lat="45.659733415896255" lon="9.649134989837256"><ele>208.0</ele><time>2026-04-07T07:24:29Z</time></trkpt><trkpt lat="45.65988246692752" lon="9.649400648896227"><ele>208.0</ele><time>2026-04-07T07:24:30Z</time></trkpt><trkpt lat="45.66003024909347" lon="9.649661203920187"><ele>209.0</ele><time>2026-04-07T07:24:31Z</time></trkpt><trkpt lat="45.66017782555423" lon="9.649923857759765"><ele>210.0</ele><time>2026-04-07T07:24:32Z</time></trkpt><trkpt lat="45.66032431049063" lon="9.65019025921251"><ele>213.0</ele><time>2026-04-07T07:24:33Z</time></trkpt><trkpt lat="45.66046857108949" lon="9.650450518503959"><ele>216.0</ele><time>2026-04-07T07:24:33.999Z</time></trkpt><trkpt lat="45.6606137168746" lon="9.650727467831928"><ele>216.0</ele><time>2026-04-07T07:24:34.999Z</time></trkpt><trkpt lat="45.66076255260211" lon="9.65099528872707"><ele>216.0</ele><time>2026-04-07T07:24:35.999Z</time></trkpt><trkpt lat="45.66090891187457" lon="9.65126633750578"><ele>215.5</ele><time>2026-04-07T07:24:36.999Z</time></trkpt><trkpt lat="45.66105476366471" lon="9.651538433901791"><ele>215.0</ele><time>2026-04-07T07:24:37.999Z</time></trkpt><trkpt lat="45.66120266987868" lon="9.651795377627943"><ele>215.5</ele><time>2026-04-07T07:24:38.999Z</time></trkpt><trkpt lat="45.661349711576776" lon="9.652058643901615"><ele>216.0</ele><time>2026-04-07T07:24:39.999Z</time></trkpt><trkpt lat="45.66149771663167" lon="9.652315799292067"><ele>216.0</ele><time>2026-04-07T07:24:40.999Z</time></trkpt><trkpt lat="45.66164618734251" lon="9.652581427512674"><ele>216.0</ele><time>2026-04-07T07:24:41.999Z</time></trkpt><trkpt lat="45.66179156540019" lon="9.65284743863576"><ele>215.5</ele><time>2026-04-07T07:24:42.999Z</time></trkpt><trkpt lat="45.661937303068186" lon="9.653114429037311"><ele>215.0</ele><time>2026-04-07T07:24:43.999Z</time></trkpt><trkpt lat="45.6620814255609" lon="9.653380900839577"><ele>215.5</ele><time>2026-04-07T07:24:44.999Z</time></trkpt><trkpt lat="45.662224987314254" lon="9.653640797782591"><ele>216.0</ele><time>2026-04-07T07:24:45.999Z</time></trkpt><trkpt lat="45.662368039213256" lon="9.653905482176512"><ele>216.0</ele><time>2026-04-07T07:24:46.999Z</time></trkpt><trkpt lat="45.662511361242714" lon="9.65417024874258"><ele>216.0</ele><time>2026-04-07T07:24:47.999Z</time></trkpt><trkpt lat="45.66265503243617" lon="9.654427253509896"><ele>215.5</ele><time>2026-04-07T07:24:48.999Z</time></trkpt><trkpt lat="45.66280018970048" lon="9.654698103292914"><ele>215.0</ele><time>2026-04-07T07:24:49.999Z</time></trkpt><trkpt lat="45.66295559123161" lon="9.65497355715362"><ele>215.0</ele><time>2026-04-07T07:24:50.999Z</time></trkpt><trkpt lat="45.663112799449394" lon="9.655252684524049"><ele>215.0</ele><time>2026-04-07T07:24:51.999Z</time></trkpt><trkpt lat="45.66327485144893" lon="9.65554155372161"><ele>215.0</ele><time>2026-04-07T07:24:52.999Z</time></trkpt><trkpt lat="45.6634344867981" lon="9.655834912034006"><ele>215.0</ele><time>2026-04-07T07:24:53.999Z</time></trkpt><trkpt lat="45.663595204351935" lon="9.656125419095078"><ele>215.5</ele><time>2026-04-07T07:24:54.999Z</time></trkpt><trkpt lat="45.663756794044524" lon="9.656416247921497"><ele>216.0</ele><time>2026-04-07T07:24:55.999Z</time></trkpt><trkpt lat="45.66390134819155" lon="9.656697109958499"><ele>217.0</ele><time>2026-04-07T07:24:56.999Z</time></trkpt><trkpt lat="45.664051871875216" lon="9.656963776754598"><ele>218.0</ele><time>2026-04-07T07:24:57.999Z</time></trkpt><trkpt lat="45.66420736219083" lon="9.657239861577239"><ele>218.0</ele><time>2026-04-07T07:24:58.999Z</time></trkpt><trkpt lat="45.66435889579063" lon="9.657514171416606"><ele>218.0</ele><time>2026-04-07T07:24:59.999Z</time></trkpt><trkpt lat="45.66451027140248" lon="9.657789030675955"><ele>220.0</ele><time>2026-04-07T07:25:00.999Z</time></trkpt><trkpt lat="45.664664063858275" lon="9.658065174869378"><ele>222.0</ele><time>2026-04-07T07:25:01.999Z</time></trkpt><trkpt lat="45.66482234384286" lon="9.658346215562725"><ele>221.5</ele><time>2026-04-07T07:25:02.999Z</time></trkpt><trkpt lat="45.664976828436124" lon="9.658626108902652"><ele>221.0</ele><time>2026-04-07T07:25:03.999Z</time></trkpt><trkpt lat="45.6651285029599" lon="9.658908425771129"><ele>221.0</ele><time>2026-04-07T07:25:04.999Z</time></trkpt><trkpt lat="45.66528121217357" lon="9.65919321005306"><ele>221.0</ele><time>2026-04-07T07:25:05.999Z</time></trkpt><trkpt lat="45.6654393096418" lon="9.6594829839286"><ele>221.0</ele><time>2026-04-07T07:25:06.999Z</time></trkpt><trkpt lat="45.66559413611784" lon="9.659769797697146"><ele>221.0</ele><time>2026-04-07T07:25:07.999Z</time></trkpt><trkpt lat="45.665750404270376" lon="9.660059725832296"><ele>221.0</ele><time>2026-04-07T07:25:08.999Z</time></trkpt><trkpt lat="45.665899774430706" lon="9.66034749795476"><ele>221.0</ele><time>2026-04-07T07:25:09.999Z</time></trkpt><trkpt lat="45.666069393259704" lon="9.660619895318028"><ele>221.5</ele><time>2026-04-07T07:25:10.999Z</time></trkpt><trkpt lat="45.66623292250206" lon="9.660895413458517"><ele>222.0</ele><time>2026-04-07T07:25:11.999Z</time></trkpt><trkpt lat="45.666363719958845" lon="9.66121135539783"><ele>223.5</ele><time>2026-04-07T07:25:12.999Z</time></trkpt><trkpt lat="45.66652128831289" lon="9.661501719136433"><ele>225.0</ele><time>2026-04-07T07:25:13.999Z</time></trkpt><trkpt lat="45.66667596475873" lon="9.661791704773295"><ele>225.0</ele><time>2026-04-07T07:25:14.999Z</time></trkpt><trkpt lat="45.66682903075399" lon="9.66208661354059"><ele>225.0</ele><time>2026-04-07T07:25:15.999Z</time></trkpt><trkpt lat="45.66697143506538" lon="9.662386772731063"><ele>225.0</ele><time>2026-04-07T07:25:16.999Z</time></trkpt><trkpt lat="45.667103627643606" lon="9.66268658391643"><ele>225.0</ele><time>2026-04-07T07:25:17.999Z</time></trkpt><trkpt lat="45.66724838764406" lon="9.662996182493405"><ele>225.0</ele><time>2026-04-07T07:25:18.999Z</time></trkpt><trkpt lat="45.667406438458976" lon="9.663299609741772"><ele>225.0</ele><time>2026-04-07T07:25:19.999Z</time></trkpt><trkpt lat="45.66757872269542" lon="9.663597101642635"><ele>224.5</ele><time>2026-04-07T07:25:20.999Z</time></trkpt><trkpt lat="45.6677517562481" lon="9.663889442443987"><ele>224.0</ele><time>2026-04-07T07:25:21.999Z</time></trkpt><trkpt lat="45.66791132487924" lon="9.664165416791151"><ele>224.0</ele><time>2026-04-07T07:25:22.999Z</time></trkpt><trkpt lat="45.66805674728759" lon="9.664417061321869"><ele>224.0</ele><time>2026-04-07T07:25:23.999Z</time></trkpt><trkpt lat="45.6681999204015" lon="9.664672961148776"><ele>224.5</ele><time>2026-04-07T07:25:24.999Z</time></trkpt><trkpt lat="45.66834456002674" lon="9.664931456876058"><ele>225.0</ele><time>2026-04-07T07:25:25.999Z</time></trkpt><trkpt lat="45.66848879350463" lon="9.665185814911629"><ele>225.66666666666669</ele><time>2026-04-07T07:25:26.999Z</time></trkpt><trkpt lat="45.66862390159188" lon="9.665427286696215"><ele>226.33333333333334</ele><time>2026-04-07T07:25:27.999Z</time></trkpt><trkpt lat="45.668749484256104" lon="9.665651415807611"><ele>227.0</ele><time>2026-04-07T07:25:28.999Z</time></trkpt><trkpt lat="45.6688563883735" lon="9.665851106318469"><ele>227.0</ele><time>2026-04-07T07:25:29.999Z</time></trkpt><trkpt lat="45.66895765654866" lon="9.666050004194432"><ele>227.0</ele><time>2026-04-07T07:25:30.999Z</time></trkpt><trkpt lat="45.66904913075428" lon="9.666259804264671"><ele>227.0</ele><time>2026-04-07T07:25:31.999Z</time></trkpt><trkpt lat="45.669119896812504" lon="9.66645044753595"><ele>226.66666666666669</ele><time>2026-04-07T07:25:32.999Z</time></trkpt><trkpt lat="45.66919317165269" lon="9.666668978133142"><ele>226.33333333333331</ele><time>2026-04-07T07:25:33.999Z</time></trkpt><trkpt lat="45.669259495641406" lon="9.666900049204912"><ele>226.0</ele><time>2026-04-07T07:25:34.999Z</time></trkpt><trkpt lat="45.66932509275761" lon="9.667152425291066"><ele>225.66666666666666</ele><time>2026-04-07T07:25:35.999Z</time></trkpt><trkpt lat="45.66938772221434" lon="9.667426872553724"><ele>225.33333333333331</ele><time>2026-04-07T07:25:36.999Z</time></trkpt><trkpt lat="45.66943320950888" lon="9.66770883213726"><ele>225.0</ele><time>2026-04-07T07:25:37.999Z</time></trkpt><trkpt lat="45.66945691608517" lon="9.667991626840337"><ele>225.66666666666669</ele><time>2026-04-07T07:25:38.999Z</time></trkpt><trkpt lat="45.66946937765245" lon="9.668254430390721"><ele>226.33333333333334</ele><time>2026-04-07T07:25:39.999Z</time></trkpt><trkpt lat="45.66946993862725" lon="9.668491339705222"><ele>227.0</ele><time>2026-04-07T07:25:40.999Z</time></trkpt><trkpt lat="45.66946831834335" lon="9.668705272577805"><ele>227.0</ele><time>2026-04-07T07:25:41.999Z</time></trkpt><trkpt lat="45.669456755755064" lon="9.668887693619864"><ele>227.0</ele><time>2026-04-07T07:25:42.999Z</time></trkpt><trkpt lat="45.669423299630914" lon="9.66903879989257"><ele>227.0</ele><time>2026-04-07T07:25:43.999Z</time></trkpt><trkpt lat="45.66935922337472" lon="9.66917504828095"><ele>227.0</ele><time>2026-04-07T07:25:44.999Z</time></trkpt><trkpt lat="45.669264663101266" lon="9.669291917119008"><ele>226.75</ele><time>2026-04-07T07:25:46Z</time></trkpt><trkpt lat="45.66913985734109" lon="9.669356170001471"><ele>226.5</ele><time>2026-04-07T07:25:47Z</time></trkpt><trkpt lat="45.66901551701569" lon="9.669373333458763"><ele>226.25</ele><time>2026-04-07T07:25:48Z</time></trkpt><trkpt lat="45.66889504890592" lon="9.669336287735494"><ele>226.0</ele><time>2026-04-07T07:25:49Z</time></trkpt><trkpt lat="45.66878267095393" lon="9.669251140910117"><ele>226.0</ele><time>2026-04-07T07:25:50Z</time></trkpt><trkpt lat="45.66868368707567" lon="9.66912562938007"><ele>226.0</ele><time>2026-04-07T07:25:51Z</time></trkpt><trkpt lat="45.668591615824226" lon="9.669004790973684"><ele>226.0</ele><time>2026-04-07T07:25:52Z</time></trkpt><trkpt lat="45.668584417723245" lon="9.668814428179616"><ele>226.0</ele><time>2026-04-07T07:25:53Z</time></trkpt><trkpt lat="45.668587857950705" lon="9.66864268563994"><ele>226.0</ele><time>2026-04-07T07:25:54Z</time></trkpt><trkpt lat="45.668627294689145" lon="9.668480901436176"><ele>226.0</ele><time>2026-04-07T07:25:55Z</time></trkpt><trkpt lat="45.66869080416732" lon="9.668335488242128"><ele>226.0</ele><time>2026-04-07T07:25:56Z</time></trkpt><trkpt lat="45.6687870335093" lon="9.668223190860267"><ele>226.0</ele><time>2026-04-07T07:25:57Z</time></trkpt><trkpt lat="45.66890722652963" lon="9.668148666862091"><ele>226.0</ele><time>2026-04-07T07:25:58Z</time></trkpt><trkpt lat="45.669038163469544" lon="9.668106214527935"><ele>226.0</ele><time>2026-04-07T07:25:59Z</time></trkpt><trkpt lat="45.669182596442425" lon="9.66811028222604"><ele>226.0</ele><time>2026-04-07T07:26:00Z</time></trkpt><trkpt lat="45.66932291859862" lon="9.668125885320446"><ele>226.0</ele><time>2026-04-07T07:26:01Z</time></trkpt><trkpt lat="45.66946174738201" lon="9.66814965362207"><ele>226.75</ele><time>2026-04-07T07:26:02Z</time></trkpt><trkpt lat="45.669601616358705" lon="9.668189950178505"><ele>227.5</ele><time>2026-04-07T07:26:03Z</time></trkpt><trkpt lat="45.669744422711574" lon="9.668229440127918"><ele>228.25</ele><time>2026-04-07T07:26:04Z</time></trkpt><trkpt lat="45.669896142219464" lon="9.668268876568701"><ele>229.0</ele><time>2026-04-07T07:26:05Z</time></trkpt><trkpt lat="45.67005056542173" lon="9.668306052972545"><ele>229.0</ele><time>2026-04-07T07:26:06Z</time></trkpt><trkpt lat="45.67019753723832" lon="9.66833775973402"><ele>229.0</ele><time>2026-04-07T07:26:07Z</time></trkpt><trkpt lat="45.67035163967237" lon="9.668376729234438"><ele>229.0</ele><time>2026-04-07T07:26:08Z</time></trkpt><trkpt lat="45.67050191771453" lon="9.668418513255192"><ele>228.66666666666666</ele><time>2026-04-07T07:26:09Z</time></trkpt><trkpt lat="45.670654015070795" lon="9.66845310691358"><ele>228.33333333333331</ele><time>2026-04-07T07:26:10Z</time></trkpt><trkpt lat="45.670800666031234" lon="9.668485664287024"><ele>228.0</ele><time>2026-04-07T07:26:11Z</time></trkpt><trkpt lat="45.670950872871316" lon="9.66851865092498"><ele>228.0</ele><time>2026-04-07T07:26:12Z</time></trkpt><trkpt lat="45.67109658402156" lon="9.668551313355488"><ele>228.0</ele><time>2026-04-07T07:26:13Z</time></trkpt><trkpt lat="45.67124161965839" lon="9.668583226380036"><ele>228.0</ele><time>2026-04-07T07:26:14Z</time></trkpt><trkpt lat="45.67139434555693" lon="9.668617743681288"><ele>228.0</ele><time>2026-04-07T07:26:15Z</time></trkpt><trkpt lat="45.67154795945047" lon="9.668653432748762"><ele>227.33333333333331</ele><time>2026-04-07T07:26:16Z</time></trkpt><trkpt lat="45.67170509227945" lon="9.668687063163892"><ele>226.66666666666666</ele><time>2026-04-07T07:26:17Z</time></trkpt><trkpt lat="45.6718736214318" lon="9.668722432451036"><ele>226.0</ele><time>2026-04-07T07:26:18Z</time></trkpt><trkpt lat="45.67204441327315" lon="9.668763004134927"><ele>226.0</ele><time>2026-04-07T07:26:19Z</time></trkpt><trkpt lat="45.67219827136161" lon="9.668801209459088"><ele>226.0</ele><time>2026-04-07T07:26:20Z</time></trkpt><trkpt lat="45.6723459418971" lon="9.668840640127348"><ele>226.0</ele><time>2026-04-07T07:26:21Z</time></trkpt><trkpt lat="45.672481492868435" lon="9.66888037981862"><ele>226.0</ele><time>2026-04-07T07:26:22Z</time></trkpt><trkpt lat="45.672609823321324" lon="9.668922205665295"><ele>226.0</ele><time>2026-04-07T07:26:23Z</time></trkpt><trkpt lat="45.67273514397038" lon="9.668922463380492"><ele>226.0</ele><time>2026-04-07T07:26:24Z</time></trkpt><trkpt lat="45.67286093044547" lon="9.668948042074629"><ele>226.0</ele><time>2026-04-07T07:26:25Z</time></trkpt><trkpt lat="45.67299094229195" lon="9.668973625996228"><ele>226.0</ele><time>2026-04-07T07:26:26Z</time></trkpt><trkpt lat="45.673116401292475" lon="9.668998314031693"><ele>225.8</ele><time>2026-04-07T07:26:27Z</time></trkpt><trkpt lat="45.67323110884012" lon="9.669017506159324"><ele>225.60000000000002</ele><time>2026-04-07T07:26:28Z</time></trkpt><trkpt lat="45.67333653762312" lon="9.669033676875507"><ele>225.4</ele><time>2026-04-07T07:26:29Z</time></trkpt><trkpt lat="45.67343490630367" lon="9.669047744727829"><ele>225.2</ele><time>2026-04-07T07:26:30Z</time></trkpt><trkpt lat="45.67352723330894" lon="9.669059735920102"><ele>225.0</ele><time>2026-04-07T07:26:30.999Z</time></trkpt><trkpt lat="45.673617412898295" lon="9.669070659599464"><ele>225.5</ele><time>2026-04-07T07:26:31.999Z</time></trkpt><trkpt lat="45.673696418758745" lon="9.669079798734405"><ele>226.0</ele><time>2026-04-07T07:26:32.999Z</time></trkpt><trkpt lat="45.67376125796333" lon="9.669087299135386"><ele>226.5</ele><time>2026-04-07T07:26:33.999Z</time></trkpt><trkpt lat="45.67386713751248" lon="9.669099558166728"><ele>227.0</ele><time>2026-04-07T07:26:35.999Z</time></trkpt><trkpt lat="45.67394136017894" lon="9.669108257146945"><ele>227.5</ele><time>2026-04-07T07:26:37.999Z</time></trkpt><trkpt lat="45.67401514229274" lon="9.669116904493865"><ele>228.0</ele><time>2026-04-07T07:27:34.999Z</time></trkpt><trkpt lat="45.674081070398" lon="9.669123718335161"><ele>228.0</ele><time>2026-04-07T07:29:22.999Z</time></trkpt><trkpt lat="45.674234155208545" lon="9.66913863733603"><ele>228.0</ele><time>2026-04-07T07:30:07Z</time></trkpt><trkpt lat="45.67431992181385" lon="9.669146410266865"><ele>228.0</ele><time>2026-04-07T07:30:08Z</time></trkpt><trkpt lat="45.67441182274876" lon="9.669154515160047"><ele>228.0</ele><time>2026-04-07T07:30:09Z</time></trkpt><trkpt lat="45.67452078597868" lon="9.669163791567163"><ele>228.0</ele><time>2026-04-07T07:30:10Z</time></trkpt><trkpt lat="45.67462990883326" lon="9.66917584039132"><ele>228.60000000000002</ele><time>2026-04-07T07:30:11Z</time></trkpt><trkpt lat="45.674729772591995" lon="9.669189929806794"><ele>229.20000000000002</ele><time>2026-04-07T07:30:12Z</time></trkpt><trkpt lat="45.67482468245246" lon="9.66920687344077"><ele>229.8</ele><time>2026-04-07T07:30:13Z</time></trkpt><trkpt lat="45.67491500132802" lon="9.669232297780729"><ele>230.4</ele><time>2026-04-07T07:30:14Z</time></trkpt><trkpt lat="45.675002016307225" lon="9.669263694200831"><ele>231.0</ele><time>2026-04-07T07:30:15Z</time></trkpt><trkpt lat="45.67509435089686" lon="9.669296650694847"><ele>231.0</ele><time>2026-04-07T07:30:16Z</time></trkpt><trkpt lat="45.67517960325437" lon="9.669324378156597"><ele>231.00000000000003</ele><time>2026-04-07T07:30:17Z</time></trkpt><trkpt lat="45.67526581474226" lon="9.669350767493604"><ele>231.00000000000003</ele><time>2026-04-07T07:30:18Z</time></trkpt><trkpt lat="45.675353779557106" lon="9.669414768780792"><ele>231.0</ele><time>2026-04-07T07:30:19Z</time></trkpt><trkpt lat="45.67542805745443" lon="9.669477424684194"><ele>231.0</ele><time>2026-04-07T07:30:20Z</time></trkpt><trkpt lat="45.675510602437335" lon="9.66954966422699"><ele>231.75</ele><time>2026-04-07T07:30:21Z</time></trkpt><trkpt lat="45.67559973689284" lon="9.669637331048813"><ele>232.5</ele><time>2026-04-07T07:30:22Z</time></trkpt><trkpt lat="45.67570667379146" lon="9.669762506405306"><ele>233.25</ele><time>2026-04-07T07:30:23Z</time></trkpt><trkpt lat="45.675801533044655" lon="9.669902027651402"><ele>234.0</ele><time>2026-04-07T07:30:24Z</time></trkpt><trkpt lat="45.67589842314936" lon="9.670071716123795"><ele>234.0</ele><time>2026-04-07T07:30:25Z</time></trkpt><trkpt lat="45.675996220768454" lon="9.67024247235172"><ele>234.0</ele><time>2026-04-07T07:30:26Z</time></trkpt><trkpt lat="45.67609044911535" lon="9.670435042964252"><ele>234.0</ele><time>2026-04-07T07:30:27Z</time></trkpt><trkpt lat="45.676170083763566" lon="9.670616188814982"><ele>234.5</ele><time>2026-04-07T07:30:27.999Z</time></trkpt><trkpt lat="45.676253752996715" lon="9.670774319088979"><ele>235.0</ele><time>2026-04-07T07:30:28.999Z</time></trkpt><trkpt lat="45.67634876189868" lon="9.670900850057512"><ele>235.5</ele><time>2026-04-07T07:30:29.999Z</time></trkpt><trkpt lat="45.676445277701866" lon="9.671008826819406"><ele>236.0</ele><time>2026-04-07T07:30:30.999Z</time></trkpt><trkpt lat="45.67654607178403" lon="9.671104448409901"><ele>236.25</ele><time>2026-04-07T07:30:31.999Z</time></trkpt><trkpt lat="45.67665340747514" lon="9.671145841627897"><ele>236.5</ele><time>2026-04-07T07:30:32.999Z</time></trkpt><trkpt lat="45.67676023357424" lon="9.671171467167348"><ele>236.75</ele><time>2026-04-07T07:30:33.999Z</time></trkpt><trkpt lat="45.67687163263552" lon="9.671173120509097"><ele>237.0</ele><time>2026-04-07T07:30:34.999Z</time></trkpt><trkpt lat="45.67700057572492" lon="9.671145733414788"><ele>236.33333333333331</ele><time>2026-04-07T07:30:35.999Z</time></trkpt><trkpt lat="45.67714332067811" lon="9.671084379291193"><ele>235.66666666666666</ele><time>2026-04-07T07:30:36.999Z</time></trkpt><trkpt lat="45.67729526788036" lon="9.67102085974567"><ele>235.0</ele><time>2026-04-07T07:30:37.999Z</time></trkpt><trkpt lat="45.67742311165147" lon="9.670917921462664"><ele>235.0</ele><time>2026-04-07T07:30:38.999Z</time></trkpt><trkpt lat="45.67754254250597" lon="9.670789555977981"><ele>235.0</ele><time>2026-04-07T07:30:39.999Z</time></trkpt><trkpt lat="45.67765314697305" lon="9.670611267782071"><ele>235.0</ele><time>2026-04-07T07:30:40.999Z</time></trkpt><trkpt lat="45.67774396233841" lon="9.67042762835664"><ele>234.33333333333331</ele><time>2026-04-07T07:30:41.999Z</time></trkpt><trkpt lat="45.677813857998615" lon="9.670219406600237"><ele>233.66666666666669</ele><time>2026-04-07T07:30:42.999Z</time></trkpt><trkpt lat="45.67786414926049" lon="9.670014091675542"><ele>233.0</ele><time>2026-04-07T07:30:43.999Z</time></trkpt><trkpt lat="45.677894995883214" lon="9.669809600419418"><ele>233.0</ele><time>2026-04-07T07:30:44.999Z</time></trkpt><trkpt lat="45.67789386246778" lon="9.669580198404423"><ele>233.0</ele><time>2026-04-07T07:30:45.999Z</time></trkpt><trkpt lat="45.67788674471079" lon="9.66936568973012"><ele>233.0</ele><time>2026-04-07T07:30:46.999Z</time></trkpt><trkpt lat="45.677863076155745" lon="9.669167804347902"><ele>233.25</ele><time>2026-04-07T07:30:47.999Z</time></trkpt><trkpt lat="45.67782286410812" lon="9.668961530122296"><ele>233.5</ele><time>2026-04-07T07:30:48.999Z</time></trkpt><trkpt lat="45.677765373111846" lon="9.66877138990387"><ele>233.75</ele><time>2026-04-07T07:30:49.999Z</time></trkpt><trkpt lat="45.67769563854773" lon="9.668605021791741"><ele>234.0</ele><time>2026-04-07T07:30:50.999Z</time></trkpt><trkpt lat="45.67761633568938" lon="9.668452639126874"><ele>234.5</ele><time>2026-04-07T07:30:51.999Z</time></trkpt><trkpt lat="45.67752683952896" lon="9.668300119254079"><ele>235.0</ele><time>2026-04-07T07:30:52.999Z</time></trkpt><trkpt lat="45.67743266184137" lon="9.668163585921505"><ele>235.5</ele><time>2026-04-07T07:30:53.999Z</time></trkpt><trkpt lat="45.67731349498439" lon="9.66803615091435"><ele>236.0</ele><time>2026-04-07T07:30:54.999Z</time></trkpt><trkpt lat="45.67716767259024" lon="9.667924364709402"><ele>236.0</ele><time>2026-04-07T07:30:55.999Z</time></trkpt><trkpt lat="45.67700780456558" lon="9.66780682725031"><ele>236.0</ele><time>2026-04-07T07:30:56.999Z</time></trkpt><trkpt lat="45.676847799153656" lon="9.667673532556558"><ele>236.0</ele><time>2026-04-07T07:30:57.999Z</time></trkpt><trkpt lat="45.67671572782646" lon="9.667509931022387"><ele>235.66666666666669</ele><time>2026-04-07T07:30:58.999Z</time></trkpt><trkpt lat="45.676608075669954" lon="9.667372802878452"><ele>235.33333333333331</ele><time>2026-04-07T07:30:59.999Z</time></trkpt><trkpt lat="45.676511796516564" lon="9.667179077645747"><ele>235.0</ele><time>2026-04-07T07:31:00.999Z</time></trkpt><trkpt lat="45.67644504025307" lon="9.667001949684202"><ele>234.66666666666666</ele><time>2026-04-07T07:31:01.999Z</time></trkpt><trkpt lat="45.67638677767436" lon="9.66680423099581"><ele>234.33333333333331</ele><time>2026-04-07T07:31:02.999Z</time></trkpt><trkpt lat="45.67636665051939" lon="9.666585502993225"><ele>234.0</ele><time>2026-04-07T07:31:03.999Z</time></trkpt><trkpt lat="45.67635884803344" lon="9.666364923603737"><ele>234.0</ele><time>2026-04-07T07:31:04.999Z</time></trkpt><trkpt lat="45.6763609213617" lon="9.666119442546048"><ele>234.0</ele><time>2026-04-07T07:31:05.999Z</time></trkpt><trkpt lat="45.67634527047454" lon="9.665897610353724"><ele>234.0</ele><time>2026-04-07T07:31:06.999Z</time></trkpt><trkpt lat="45.67635040915844" lon="9.66569541262499"><ele>234.0</ele><time>2026-04-07T07:31:07.999Z</time></trkpt><trkpt lat="45.67635119173209" lon="9.665492587558166"><ele>234.0</ele><time>2026-04-07T07:31:08.999Z</time></trkpt><trkpt lat="45.67634284138902" lon="9.6652644186462"><ele>234.0</ele><time>2026-04-07T07:31:09.999Z</time></trkpt><trkpt lat="45.676336768383436" lon="9.665018078801"><ele>233.5</ele><time>2026-04-07T07:31:10.999Z</time></trkpt><trkpt lat="45.67633257376198" lon="9.664792833466365"><ele>233.0</ele><time>2026-04-07T07:31:11.999Z</time></trkpt><trkpt lat="45.676327755516404" lon="9.664599193988671"><ele>232.5</ele><time>2026-04-07T07:31:12.999Z</time></trkpt><trkpt lat="45.67631593202298" lon="9.664392802129408"><ele>232.0</ele><time>2026-04-07T07:31:13.999Z</time></trkpt><trkpt lat="45.676304117258866" lon="9.664163076503595"><ele>231.66666666666666</ele><time>2026-04-07T07:31:14.999Z</time></trkpt><trkpt lat="45.67629969375593" lon="9.663911550885544"><ele>231.33333333333331</ele><time>2026-04-07T07:31:15.999Z</time></trkpt><trkpt lat="45.67629181389934" lon="9.66365344242288"><ele>231.0</ele><time>2026-04-07T07:31:16.999Z</time></trkpt><trkpt lat="45.67628336594058" lon="9.663429738026704"><ele>231.0</ele><time>2026-04-07T07:31:17.999Z</time></trkpt><trkpt lat="45.67627919499773" lon="9.663228713488657"><ele>231.0</ele><time>2026-04-07T07:31:18.999Z</time></trkpt><trkpt lat="45.67626675031042" lon="9.663040658507867"><ele>231.0</ele><time>2026-04-07T07:31:19.999Z</time></trkpt><trkpt lat="45.6762528750517" lon="9.662850041712119"><ele>231.0</ele><time>2026-04-07T07:31:20.999Z</time></trkpt><trkpt lat="45.67624422904349" lon="9.662655772591588"><ele>231.0</ele><time>2026-04-07T07:31:21.999Z</time></trkpt><trkpt lat="45.676235305375975" lon="9.662448611852117"><ele>231.0</ele><time>2026-04-07T07:31:22.999Z</time></trkpt><trkpt lat="45.67622863480789" lon="9.662247251322793"><ele>231.0</ele><time>2026-04-07T07:31:23.999Z</time></trkpt><trkpt lat="45.676222080299574" lon="9.662063418252055"><ele>231.0</ele><time>2026-04-07T07:31:24.999Z</time></trkpt><trkpt lat="45.676215765604454" lon="9.661890657222957"><ele>231.0</ele><time>2026-04-07T07:31:25.999Z</time></trkpt><trkpt lat="45.676211864494675" lon="9.661733167361293"><ele>231.00000000000003</ele><time>2026-04-07T07:31:26.999Z</time></trkpt><trkpt lat="45.6762099997604" lon="9.661589546531001"><ele>231.00000000000003</ele><time>2026-04-07T07:31:27.999Z</time></trkpt><trkpt lat="45.67621180529404" lon="9.661463553360262"><ele>231.0</ele><time>2026-04-07T07:31:28.999Z</time></trkpt><trkpt lat="45.6762241999887" lon="9.661353864947463"><ele>231.0</ele><time>2026-04-07T07:31:29.999Z</time></trkpt><trkpt lat="45.67625890075559" lon="9.661230080357598"><ele>231.0</ele><time>2026-04-07T07:31:30.999Z</time></trkpt><trkpt lat="45.67627040969364" lon="9.661122792513229"><ele>231.0</ele><time>2026-04-07T07:31:31.999Z</time></trkpt><trkpt lat="45.676234888739785" lon="9.661015461758403"><ele>231.0</ele><time>2026-04-07T07:31:32.999Z</time></trkpt><trkpt lat="45.67619790450103" lon="9.660920125841589"><ele>231.0</ele><time>2026-04-07T07:31:33.999Z</time></trkpt><trkpt lat="45.676145908540256" lon="9.660851005929702"><ele>231.0</ele><time>2026-04-07T07:31:34.999Z</time></trkpt><trkpt lat="45.676063545772145" lon="9.660826006561951"><ele>231.0</ele><time>2026-04-07T07:31:35.999Z</time></trkpt><trkpt lat="45.67598217986358" lon="9.660849924384417"><ele>230.8</ele><time>2026-04-07T07:31:36.999Z</time></trkpt><trkpt lat="45.67590857364646" lon="9.660919322153122"><ele>230.60000000000002</ele><time>2026-04-07T07:31:37.999Z</time></trkpt><trkpt lat="45.675862928472235" lon="9.661017597086405"><ele>230.4</ele><time>2026-04-07T07:31:38.999Z</time></trkpt><trkpt lat="45.67584809515142" lon="9.661155166214893"><ele>230.2</ele><time>2026-04-07T07:31:39.999Z</time></trkpt><trkpt lat="45.675864088295945" lon="9.661293730684243"><ele>230.0</ele><time>2026-04-07T07:31:40.999Z</time></trkpt><trkpt lat="45.67589939500744" lon="9.661440345802115"><ele>230.0</ele><time>2026-04-07T07:31:41.999Z</time></trkpt><trkpt lat="45.67593604553209" lon="9.661607790879033"><ele>230.0</ele><time>2026-04-07T07:31:42.999Z</time></trkpt><trkpt lat="45.67596671383558" lon="9.661803022809622"><ele>230.0</ele><time>2026-04-07T07:31:43.999Z</time></trkpt><trkpt lat="45.67598715448998" lon="9.662007097058131"><ele>230.0</ele><time>2026-04-07T07:31:44.999Z</time></trkpt><trkpt lat="45.6759959806933" lon="9.662230797411087"><ele>230.0</ele><time>2026-04-07T07:31:45.999Z</time></trkpt><trkpt lat="45.67600094323142" lon="9.662467083339626"><ele>230.0</ele><time>2026-04-07T07:31:46.999Z</time></trkpt><trkpt lat="45.676010656109774" lon="9.662723763544097"><ele>230.0</ele><time>2026-04-07T07:31:47.999Z</time></trkpt><trkpt lat="45.676017845276306" lon="9.662965155452035"><ele>229.66666666666669</ele><time>2026-04-07T07:31:48.999Z</time></trkpt><trkpt lat="45.67602742082845" lon="9.66319847488186"><ele>229.33333333333331</ele><time>2026-04-07T07:31:49.999Z</time></trkpt><trkpt lat="45.67603666618874" lon="9.663431284435854"><ele>229.0</ele><time>2026-04-07T07:31:50.999Z</time></trkpt><trkpt lat="45.676042348636095" lon="9.66362297451034"><ele>229.0</ele><time>2026-04-07T07:31:51.999Z</time></trkpt><trkpt lat="45.6760480124969" lon="9.663812425256797"><ele>229.0</ele><time>2026-04-07T07:31:52.999Z</time></trkpt><trkpt lat="45.67605352594266" lon="9.664011684902363"><ele>229.0</ele><time>2026-04-07T07:31:53.999Z</time></trkpt><trkpt lat="45.6760633087834" lon="9.664247654259963"><ele>229.0</ele><time>2026-04-07T07:31:54.999Z</time></trkpt><trkpt lat="45.6760749699454" lon="9.664516278727543"><ele>229.0</ele><time>2026-04-07T07:31:55.999Z</time></trkpt><trkpt lat="45.67608218830961" lon="9.664785149794222"><ele>229.0</ele><time>2026-04-07T07:31:56.999Z</time></trkpt><trkpt lat="45.676089234570235" lon="9.665056037588622"><ele>229.0</ele><time>2026-04-07T07:31:57.999Z</time></trkpt><trkpt lat="45.67609229882528" lon="9.665308239383908"><ele>229.33333333333331</ele><time>2026-04-07T07:31:58.999Z</time></trkpt><trkpt lat="45.67608386324874" lon="9.665538964636326"><ele>229.66666666666669</ele><time>2026-04-07T07:31:59.999Z</time></trkpt><trkpt lat="45.67605811238997" lon="9.665786445220297"><ele>230.0</ele><time>2026-04-07T07:32:00.999Z</time></trkpt><trkpt lat="45.67600630555932" lon="9.666028952729244"><ele>230.66666666666669</ele><time>2026-04-07T07:32:01.999Z</time></trkpt><trkpt lat="45.67593669075493" lon="9.666260957218295"><ele>231.33333333333331</ele><time>2026-04-07T07:32:02.999Z</time></trkpt><trkpt lat="45.67585937011453" lon="9.666485763740726"><ele>232.0</ele><time>2026-04-07T07:32:03.999Z</time></trkpt><trkpt lat="45.67578353377177" lon="9.66667696198462"><ele>232.0</ele><time>2026-04-07T07:32:04.999Z</time></trkpt><trkpt lat="45.675702267780295" lon="9.666858114993039"><ele>232.0</ele><time>2026-04-07T07:32:05.999Z</time></trkpt><trkpt lat="45.675623943237696" lon="9.667010183518743"><ele>232.0</ele><time>2026-04-07T07:32:06.999Z</time></trkpt><trkpt lat="45.67554871885633" lon="9.667173494515792"><ele>232.0</ele><time>2026-04-07T07:32:07.999Z</time></trkpt><trkpt lat="45.67548508443514" lon="9.66737360516493"><ele>231.66666666666666</ele><time>2026-04-07T07:32:08.999Z</time></trkpt><trkpt lat="45.67544450901176" lon="9.667609429597974"><ele>231.33333333333331</ele><time>2026-04-07T07:32:09.999Z</time></trkpt><trkpt lat="45.67541762977987" lon="9.667864046775438"><ele>231.0</ele><time>2026-04-07T07:32:10.999Z</time></trkpt><trkpt lat="45.675421548594095" lon="9.668091402118572"><ele>231.33333333333331</ele><time>2026-04-07T07:32:11.999Z</time></trkpt><trkpt lat="45.67544159197786" lon="9.668328119247835"><ele>231.66666666666666</ele><time>2026-04-07T07:32:12.999Z</time></trkpt><trkpt lat="45.67547635289981" lon="9.668537401202489"><ele>232.0</ele><time>2026-04-07T07:32:13.999Z</time></trkpt><trkpt lat="45.67551927259261" lon="9.668734135410094"><ele>232.0</ele><time>2026-04-07T07:32:14.999Z</time></trkpt><trkpt lat="45.67557445365741" lon="9.668935361459736"><ele>232.0</ele><time>2026-04-07T07:32:15.999Z</time></trkpt><trkpt lat="45.67564872796864" lon="9.669145849616166"><ele>232.0</ele><time>2026-04-07T07:32:16.999Z</time></trkpt><trkpt lat="45.67574644379795" lon="9.669365265582714"><ele>232.66666666666666</ele><time>2026-04-07T07:32:17.999Z</time></trkpt><trkpt lat="45.6758527318882" lon="9.66956582378382"><ele>233.33333333333331</ele><time>2026-04-07T07:32:18.999Z</time></trkpt><trkpt lat="45.675983244732556" lon="9.669722342127288"><ele>234.0</ele><time>2026-04-07T07:32:19.999Z</time></trkpt><trkpt lat="45.67611138764767" lon="9.669850165484378"><ele>235.0</ele><time>2026-04-07T07:32:20.999Z</time></trkpt><trkpt lat="45.67626675670885" lon="9.669921955754962"><ele>236.0</ele><time>2026-04-07T07:32:21.999Z</time></trkpt><trkpt lat="45.67648073169288" lon="9.669987450792858"><ele>237.0</ele><time>2026-04-07T07:32:22.999Z</time></trkpt><trkpt lat="45.676686207622474" lon="9.67007619203678"><ele>237.0</ele><time>2026-04-07T07:32:23.999Z</time></trkpt><trkpt lat="45.67688107468804" lon="9.670180566874276"><ele>237.0</ele><time>2026-04-07T07:32:24.999Z</time></trkpt><trkpt lat="45.67707436085285" lon="9.670362101558267"><ele>237.0</ele><time>2026-04-07T07:32:25.999Z</time></trkpt><trkpt lat="45.677261429697985" lon="9.670536993266209"><ele>237.0</ele><time>2026-04-07T07:32:26.999Z</time></trkpt><trkpt lat="45.6774388331332" lon="9.670724519774181"><ele>237.0</ele><time>2026-04-07T07:32:27.999Z</time></trkpt><trkpt lat="45.67760084148669" lon="9.670933627780904"><ele>237.0</ele><time>2026-04-07T07:32:28.999Z</time></trkpt><trkpt lat="45.67775499078016" lon="9.671161883561242"><ele>236.66666666666669</ele><time>2026-04-07T07:32:29.999Z</time></trkpt><trkpt lat="45.67790298082653" lon="9.671400735885937"><ele>236.33333333333334</ele><time>2026-04-07T07:32:30.999Z</time></trkpt><trkpt lat="45.67804353026548" lon="9.6716461137515"><ele>236.0</ele><time>2026-04-07T07:32:31.999Z</time></trkpt><trkpt lat="45.67818774610621" lon="9.671897949377511"><ele>237.0</ele><time>2026-04-07T07:32:32.999Z</time></trkpt><trkpt lat="45.67834933384065" lon="9.672151945261893"><ele>238.0</ele><time>2026-04-07T07:32:33.999Z</time></trkpt><trkpt lat="45.678509867892224" lon="9.672405613483086"><ele>238.33333333333331</ele><time>2026-04-07T07:32:34.999Z</time></trkpt><trkpt lat="45.67866003346745" lon="9.672644043689466"><ele>238.66666666666669</ele><time>2026-04-07T07:32:35.999Z</time></trkpt><trkpt lat="45.678792662842156" lon="9.672869506276328"><ele>239.0</ele><time>2026-04-07T07:32:36.999Z</time></trkpt><trkpt lat="45.67892605513466" lon="9.673103128097738"><ele>238.66666666666669</ele><time>2026-04-07T07:32:37.999Z</time></trkpt><trkpt lat="45.679061356290426" lon="9.673339132482834"><ele>238.33333333333331</ele><time>2026-04-07T07:32:38.999Z</time></trkpt><trkpt lat="45.679188048312746" lon="9.673560970212693"><ele>238.0</ele><time>2026-04-07T07:32:39.999Z</time></trkpt><trkpt lat="45.67931165067005" lon="9.67378023042596"><ele>238.33333333333331</ele><time>2026-04-07T07:32:40.999Z</time></trkpt><trkpt lat="45.679438728882964" lon="9.674004167631757"><ele>238.66666666666669</ele><time>2026-04-07T07:32:41.999Z</time></trkpt><trkpt lat="45.67957838995537" lon="9.674242296026959"><ele>239.0</ele><time>2026-04-07T07:32:42.999Z</time></trkpt><trkpt lat="45.67972129597832" lon="9.674486836428972"><ele>239.66666666666669</ele><time>2026-04-07T07:32:43.999Z</time></trkpt><trkpt lat="45.6798545745158" lon="9.674717509396238"><ele>240.33333333333331</ele><time>2026-04-07T07:32:44.999Z</time></trkpt><trkpt lat="45.67997904236664" lon="9.6749332787915"><ele>241.0</ele><time>2026-04-07T07:32:45.999Z</time></trkpt><trkpt lat="45.68009147451456" lon="9.67513646519688"><ele>241.66666666666666</ele><time>2026-04-07T07:32:46.999Z</time></trkpt><trkpt lat="45.680193925090066" lon="9.675325992038315"><ele>242.33333333333331</ele><time>2026-04-07T07:32:47.999Z</time></trkpt><trkpt lat="45.680301025365395" lon="9.675513391723138"><ele>243.0</ele><time>2026-04-07T07:32:48.999Z</time></trkpt><trkpt lat="45.680402031390145" lon="9.675694836650285"><ele>243.0</ele><time>2026-04-07T07:32:49.999Z</time></trkpt><trkpt lat="45.68050050388072" lon="9.675875880072319"><ele>243.0</ele><time>2026-04-07T07:32:50.999Z</time></trkpt><trkpt lat="45.680591450191876" lon="9.676038055685815"><ele>243.0</ele><time>2026-04-07T07:32:51.999Z</time></trkpt><trkpt lat="45.6806782081687" lon="9.676188675287795"><ele>243.0</ele><time>2026-04-07T07:32:52.999Z</time></trkpt><trkpt lat="45.680764100157226" lon="9.676334076883393"><ele>242.5</ele><time>2026-04-07T07:32:53.999Z</time></trkpt><trkpt lat="45.680845829327936" lon="9.676468781979692"><ele>242.0</ele><time>2026-04-07T07:32:54.999Z</time></trkpt><trkpt lat="45.68091934119834" lon="9.676597307938312"><ele>241.5</ele><time>2026-04-07T07:32:55.999Z</time></trkpt><trkpt lat="45.68099212647099" lon="9.676722783624303"><ele>241.0</ele><time>2026-04-07T07:32:56.999Z</time></trkpt><trkpt lat="45.68106701206699" lon="9.676853185325488"><ele>241.25</ele><time>2026-04-07T07:32:57.999Z</time></trkpt><trkpt lat="45.68114251257496" lon="9.676981407097177"><ele>241.5</ele><time>2026-04-07T07:32:58.999Z</time></trkpt><trkpt lat="45.68122012226926" lon="9.67710754504488"><ele>241.75</ele><time>2026-04-07T07:32:59.999Z</time></trkpt><trkpt lat="45.68130303880429" lon="9.677236012525526"><ele>242.0</ele><time>2026-04-07T07:33:00.999Z</time></trkpt><trkpt lat="45.68138565059552" lon="9.677365104293223"><ele>242.0</ele><time>2026-04-07T07:33:01.999Z</time></trkpt><trkpt lat="45.681466735326346" lon="9.677500339704633"><ele>242.0</ele><time>2026-04-07T07:33:02.999Z</time></trkpt><trkpt lat="45.68155346236463" lon="9.677639109343525"><ele>242.0</ele><time>2026-04-07T07:33:03.999Z</time></trkpt><trkpt lat="45.681647480175734" lon="9.677774358068726"><ele>242.0</ele><time>2026-04-07T07:33:04.999Z</time></trkpt><trkpt lat="45.68173164269694" lon="9.67788672419967"><ele>242.0</ele><time>2026-04-07T07:33:05.999Z</time></trkpt><trkpt lat="45.681812648298845" lon="9.678000139746958"><ele>242.0</ele><time>2026-04-07T07:33:06.999Z</time></trkpt><trkpt lat="45.681888005781424" lon="9.678106920168835"><ele>242.0</ele><time>2026-04-07T07:33:07.999Z</time></trkpt><trkpt lat="45.68196240636224" lon="9.678207544070265"><ele>242.0</ele><time>2026-04-07T07:33:08.999Z</time></trkpt><trkpt lat="45.68202823673856" lon="9.678318898693039"><ele>242.0</ele><time>2026-04-07T07:33:09.999Z</time></trkpt><trkpt lat="45.68209570201818" lon="9.678425776726469"><ele>241.75</ele><time>2026-04-07T07:33:10.999Z</time></trkpt><trkpt lat="45.68216483842753" lon="9.678543259648727"><ele>241.5</ele><time>2026-04-07T07:33:11.999Z</time></trkpt><trkpt lat="45.68224098285327" lon="9.678664760985155"><ele>241.25</ele><time>2026-04-07T07:33:12.999Z</time></trkpt><trkpt lat="45.68231448325983" lon="9.678798761997886"><ele>241.0</ele><time>2026-04-07T07:33:13.999Z</time></trkpt><trkpt lat="45.68238741283095" lon="9.678949528870909"><ele>241.0</ele><time>2026-04-07T07:33:14.999Z</time></trkpt><trkpt lat="45.68246160756653" lon="9.679105516643"><ele>241.0</ele><time>2026-04-07T07:33:15.999Z</time></trkpt><trkpt lat="45.68254590873577" lon="9.679274907554788"><ele>241.0</ele><time>2026-04-07T07:33:16.999Z</time></trkpt><trkpt lat="45.68263366640822" lon="9.679455909017216"><ele>241.0</ele><time>2026-04-07T07:33:17.999Z</time></trkpt><trkpt lat="45.68272470072341" lon="9.679641878760917"><ele>241.33333333333331</ele><time>2026-04-07T07:33:18.999Z</time></trkpt><trkpt lat="45.68282739958836" lon="9.67982931683532"><ele>241.66666666666669</ele><time>2026-04-07T07:33:19.999Z</time></trkpt><trkpt lat="45.68293679692724" lon="9.680009569123385"><ele>242.0</ele><time>2026-04-07T07:33:20.999Z</time></trkpt><trkpt lat="45.68304158059303" lon="9.680183341408808"><ele>243.0</ele><time>2026-04-07T07:33:21.999Z</time></trkpt><trkpt lat="45.68315640621344" lon="9.680388580666001"><ele>244.0</ele><time>2026-04-07T07:33:22.999Z</time></trkpt><trkpt lat="45.68327504014984" lon="9.680615755177927"><ele>245.0</ele><time>2026-04-07T07:33:23.999Z</time></trkpt><trkpt lat="45.68341099444334" lon="9.680849406889708"><ele>245.0</ele><time>2026-04-07T07:33:24.999Z</time></trkpt><trkpt lat="45.68355773771386" lon="9.681091111437675"><ele>245.0</ele><time>2026-04-07T07:33:25.999Z</time></trkpt><trkpt lat="45.68371132207266" lon="9.681344308616046"><ele>245.33333333333334</ele><time>2026-04-07T07:33:26.999Z</time></trkpt><trkpt lat="45.68384766394468" lon="9.681573464813509"><ele>245.66666666666669</ele><time>2026-04-07T07:33:27.999Z</time></trkpt><trkpt lat="45.68397776906729" lon="9.681793385640956"><ele>246.0</ele><time>2026-04-07T07:33:28.999Z</time></trkpt><trkpt lat="45.68412496639394" lon="9.68202103851962"><ele>246.0</ele><time>2026-04-07T07:33:29.999Z</time></trkpt><trkpt lat="45.68428446526855" lon="9.682258446145866"><ele>246.0</ele><time>2026-04-07T07:33:30.999Z</time></trkpt><trkpt lat="45.68444265699798" lon="9.682501197648229"><ele>245.5</ele><time>2026-04-07T07:33:31.999Z</time></trkpt><trkpt lat="45.68459447349894" lon="9.682746876200053"><ele>245.0</ele><time>2026-04-07T07:33:32.999Z</time></trkpt><trkpt lat="45.68473991470769" lon="9.68299715287884"><ele>245.0</ele><time>2026-04-07T07:33:33.999Z</time></trkpt><trkpt lat="45.68488915850174" lon="9.683253218049469"><ele>245.0</ele><time>2026-04-07T07:33:34.999Z</time></trkpt><trkpt lat="45.6850408290905" lon="9.683511954938831"><ele>245.0</ele><time>2026-04-07T07:33:35.999Z</time></trkpt><trkpt lat="45.68519982821865" lon="9.6837852837137"><ele>245.0</ele><time>2026-04-07T07:33:36.999Z</time></trkpt><trkpt lat="45.68535666927715" lon="9.68405398008021"><ele>244.5</ele><time>2026-04-07T07:33:37.999Z</time></trkpt><trkpt lat="45.68551622341704" lon="9.684331977698687"><ele>244.0</ele><time>2026-04-07T07:33:38.999Z</time></trkpt><trkpt lat="45.685679165189576" lon="9.68460543727704"><ele>246.0</ele><time>2026-04-07T07:33:39.999Z</time></trkpt><trkpt lat="45.68583838999793" lon="9.684874135357653"><ele>248.0</ele><time>2026-04-07T07:33:40.999Z</time></trkpt><trkpt lat="45.68599880055774" lon="9.68514069473995"><ele>248.0</ele><time>2026-04-07T07:33:41.999Z</time></trkpt><trkpt lat="45.68615832481619" lon="9.685407647059384"><ele>248.0</ele><time>2026-04-07T07:33:42.999Z</time></trkpt><trkpt lat="45.6863186354602" lon="9.685676172001362"><ele>248.0</ele><time>2026-04-07T07:33:43.999Z</time></trkpt><trkpt lat="45.68648031841661" lon="9.685941490888643"><ele>248.0</ele><time>2026-04-07T07:33:44.999Z</time></trkpt><trkpt lat="45.68665252588934" lon="9.686197407755863"><ele>248.0</ele><time>2026-04-07T07:33:45.999Z</time></trkpt><trkpt lat="45.68683174905647" lon="9.686438154255162"><ele>248.0</ele><time>2026-04-07T07:33:46.999Z</time></trkpt><trkpt lat="45.687018569946396" lon="9.686662136221736"><ele>247.0</ele><time>2026-04-07T07:33:47.999Z</time></trkpt><trkpt lat="45.68721284941259" lon="9.68686941515061"><ele>246.0</ele><time>2026-04-07T07:33:48.999Z</time></trkpt><trkpt lat="45.68741658055099" lon="9.687063356609963"><ele>246.0</ele><time>2026-04-07T07:33:49.999Z</time></trkpt><trkpt lat="45.68762642115889" lon="9.68724681127485"><ele>246.0</ele><time>2026-04-07T07:33:50.999Z</time></trkpt><trkpt lat="45.687839201541166" lon="9.687433586916983"><ele>247.5</ele><time>2026-04-07T07:33:51.999Z</time></trkpt><trkpt lat="45.68803068706099" lon="9.687610154281867"><ele>249.0</ele><time>2026-04-07T07:33:52.999Z</time></trkpt><trkpt lat="45.68823400311061" lon="9.687799431067784"><ele>249.5</ele><time>2026-04-07T07:33:53.999Z</time></trkpt><trkpt lat="45.688434869099716" lon="9.687980454729303"><ele>250.0</ele><time>2026-04-07T07:33:54.999Z</time></trkpt><trkpt lat="45.68863835752342" lon="9.688158967762217"><ele>251.5</ele><time>2026-04-07T07:33:55.999Z</time></trkpt><trkpt lat="45.68883855003304" lon="9.688340865353908"><ele>253.0</ele><time>2026-04-07T07:33:56.999Z</time></trkpt><trkpt lat="45.68903525076808" lon="9.688517699047692"><ele>253.0</ele><time>2026-04-07T07:33:57.999Z</time></trkpt><trkpt lat="45.68923547934195" lon="9.688699593892771"><ele>253.0</ele><time>2026-04-07T07:33:58.999Z</time></trkpt><trkpt lat="45.68943648536513" lon="9.688872131691374"><ele>253.0</ele><time>2026-04-07T07:33:59.999Z</time></trkpt><trkpt lat="45.68962885594118" lon="9.689045516581299"><ele>253.0</ele><time>2026-04-07T07:34:00.999Z</time></trkpt><trkpt lat="45.689820197208604" lon="9.68922345006259"><ele>253.0</ele><time>2026-04-07T07:34:01.999Z</time></trkpt><trkpt lat="45.69000740858996" lon="9.68940821334679"><ele>253.0</ele><time>2026-04-07T07:34:02.999Z</time></trkpt><trkpt lat="45.69019747171102" lon="9.689584852913974"><ele>253.0</ele><time>2026-04-07T07:34:03.999Z</time></trkpt><trkpt lat="45.690389424769684" lon="9.689749597427914"><ele>253.0</ele><time>2026-04-07T07:34:04.999Z</time></trkpt><trkpt lat="45.690581395913874" lon="9.689919022402085"><ele>253.0</ele><time>2026-04-07T07:34:05.999Z</time></trkpt><trkpt lat="45.690772841317504" lon="9.690092392103665"><ele>253.0</ele><time>2026-04-07T07:34:06.999Z</time></trkpt><trkpt lat="45.690966383415066" lon="9.690262664796462"><ele>253.0</ele><time>2026-04-07T07:34:07.999Z</time></trkpt><trkpt lat="45.6911589132577" lon="9.690437210446447"><ele>253.0</ele><time>2026-04-07T07:34:08.999Z</time></trkpt><trkpt lat="45.69135836782375" lon="9.690610670094326"><ele>253.0</ele><time>2026-04-07T07:34:10Z</time></trkpt><trkpt lat="45.69155729654089" lon="9.690791660510616"><ele>253.0</ele><time>2026-04-07T07:34:11Z</time></trkpt><trkpt lat="45.691762213646236" lon="9.690965761802776"><ele>253.0</ele><time>2026-04-07T07:34:12Z</time></trkpt><trkpt lat="45.69196875253357" lon="9.69114183010792"><ele>256.0</ele><time>2026-04-07T07:34:13Z</time></trkpt><trkpt lat="45.692169917793485" lon="9.691326018270223"><ele>259.0</ele><time>2026-04-07T07:34:14Z</time></trkpt><trkpt lat="45.69236917246037" lon="9.691516079657742"><ele>259.0</ele><time>2026-04-07T07:34:15Z</time></trkpt><trkpt lat="45.69257640984044" lon="9.691669738497833"><ele>259.0</ele><time>2026-04-07T07:34:16Z</time></trkpt><trkpt lat="45.69277964430103" lon="9.691833242808856"><ele>259.0</ele><time>2026-04-07T07:34:17Z</time></trkpt><trkpt lat="45.69298529207773" lon="9.692021693111654"><ele>259.0</ele><time>2026-04-07T07:34:17.999Z</time></trkpt><trkpt lat="45.693186574199736" lon="9.692204072632233"><ele>259.0</ele><time>2026-04-07T07:34:19Z</time></trkpt><trkpt lat="45.693388569604195" lon="9.692373766830434"><ele>259.0</ele><time>2026-04-07T07:34:20Z</time></trkpt><trkpt lat="45.693596714009296" lon="9.692538224653056"><ele>259.0</ele><time>2026-04-07T07:34:21Z</time></trkpt><trkpt lat="45.69381382774549" lon="9.692677963297742"><ele>259.0</ele><time>2026-04-07T07:34:22Z</time></trkpt><trkpt lat="45.69403391473347" lon="9.692794082711162"><ele>259.0</ele><time>2026-04-07T07:34:23Z</time></trkpt><trkpt lat="45.69426018039448" lon="9.692914503921063"><ele>259.0</ele><time>2026-04-07T07:34:24Z</time></trkpt><trkpt lat="45.694481360823936" lon="9.69304748124546"><ele>259.5</ele><time>2026-04-07T07:34:25Z</time></trkpt><trkpt lat="45.69470856406156" lon="9.693190070076605"><ele>260.0</ele><time>2026-04-07T07:34:26Z</time></trkpt><trkpt lat="45.694931112215095" lon="9.69332517643"><ele>260.0</ele><time>2026-04-07T07:34:27Z</time></trkpt><trkpt lat="45.69515997261837" lon="9.693457509365475"><ele>260.0</ele><time>2026-04-07T07:34:27.999Z</time></trkpt><trkpt lat="45.69538284727099" lon="9.693586236898186"><ele>260.33333333333337</ele><time>2026-04-07T07:34:28.999Z</time></trkpt><trkpt lat="45.6955859669927" lon="9.693707828529158"><ele>260.6666666666667</ele><time>2026-04-07T07:34:29.999Z</time></trkpt><trkpt lat="45.69579549013594" lon="9.693826108666265"><ele>261.0</ele><time>2026-04-07T07:34:30.999Z</time></trkpt><trkpt lat="45.69600743236199" lon="9.693951535750356"><ele>260.0</ele><time>2026-04-07T07:34:31.999Z</time></trkpt><trkpt lat="45.696215212704" lon="9.694078805632705"><ele>259.0</ele><time>2026-04-07T07:34:32.999Z</time></trkpt><trkpt lat="45.696433175925975" lon="9.69420135233117"><ele>259.0</ele><time>2026-04-07T07:34:33.999Z</time></trkpt><trkpt lat="45.69664937608732" lon="9.694326795448742"><ele>259.0</ele><time>2026-04-07T07:34:34.999Z</time></trkpt><trkpt lat="45.69686117389974" lon="9.69444560192985"><ele>260.0</ele><time>2026-04-07T07:34:35.999Z</time></trkpt><trkpt lat="45.69707282709348" lon="9.694558868768514"><ele>261.0</ele><time>2026-04-07T07:34:36.999Z</time></trkpt><trkpt lat="45.69725331445742" lon="9.69465990467033"><ele>262.0</ele><time>2026-04-07T07:34:37.999Z</time></trkpt><trkpt lat="45.697395383073655" lon="9.69474994797515"><ele>262.0</ele><time>2026-04-07T07:34:38.999Z</time></trkpt><trkpt lat="45.69753995078864" lon="9.694847898941225"><ele>262.0</ele><time>2026-04-07T07:34:39.999Z</time></trkpt><trkpt lat="45.697722089243165" lon="9.69497748223836"><ele>262.0</ele><time>2026-04-07T07:34:40.999Z</time></trkpt><trkpt lat="45.697935988710505" lon="9.695112521769044"><ele>262.0</ele><time>2026-04-07T07:34:41.999Z</time></trkpt><trkpt lat="45.69813352129719" lon="9.695216653471402"><ele>262.0</ele><time>2026-04-07T07:34:42.999Z</time></trkpt><trkpt lat="45.69830538827958" lon="9.695307370698414"><ele>262.0</ele><time>2026-04-07T07:34:43.999Z</time></trkpt><trkpt lat="45.69846391845573" lon="9.695395117931486"><ele>262.66666666666663</ele><time>2026-04-07T07:34:44.999Z</time></trkpt><trkpt lat="45.69863426914485" lon="9.695494409973326"><ele>263.3333333333333</ele><time>2026-04-07T07:34:45.999Z</time></trkpt><trkpt lat="45.698795002268376" lon="9.69558448807019"><ele>264.0</ele><time>2026-04-07T07:34:46.999Z</time></trkpt><trkpt lat="45.69895261627125" lon="9.69566997523348"><ele>264.0</ele><time>2026-04-07T07:34:47.999Z</time></trkpt><trkpt lat="45.699103699729264" lon="9.695753650807134"><ele>264.0</ele><time>2026-04-07T07:34:48.999Z</time></trkpt><trkpt lat="45.69927659644325" lon="9.695849215669723"><ele>264.0</ele><time>2026-04-07T07:34:49.999Z</time></trkpt><trkpt lat="45.69947848019168" lon="9.6959587146013"><ele>263.6666666666667</ele><time>2026-04-07T07:34:50.999Z</time></trkpt><trkpt lat="45.699676491737684" lon="9.696065769460617"><ele>263.33333333333337</ele><time>2026-04-07T07:34:51.999Z</time></trkpt><trkpt lat="45.69984254121771" lon="9.696158390603586"><ele>263.0</ele><time>2026-04-07T07:34:52.999Z</time></trkpt><trkpt lat="45.70002809712291" lon="9.69624880897457"><ele>262.6666666666667</ele><time>2026-04-07T07:34:53.999Z</time></trkpt><trkpt lat="45.7002196409759" lon="9.69630911293982"><ele>262.3333333333333</ele><time>2026-04-07T07:34:54.999Z</time></trkpt><trkpt lat="45.700437399436794" lon="9.696341688129266"><ele>262.0</ele><time>2026-04-07T07:34:55.999Z</time></trkpt><trkpt lat="45.700655168707755" lon="9.696360078143186"><ele>262.0</ele><time>2026-04-07T07:34:56.999Z</time></trkpt><trkpt lat="45.70085967578386" lon="9.696357746766044"><ele>262.0</ele><time>2026-04-07T07:34:57.999Z</time></trkpt><trkpt lat="45.701071937618245" lon="9.696321104493338"><ele>262.0</ele><time>2026-04-07T07:34:58.999Z</time></trkpt><trkpt lat="45.70128793452654" lon="9.696235170943897"><ele>262.3333333333333</ele><time>2026-04-07T07:34:59.999Z</time></trkpt><trkpt lat="45.70148514839035" lon="9.696148412438006"><ele>262.6666666666667</ele><time>2026-04-07T07:35:00.999Z</time></trkpt><trkpt lat="45.701682889844086" lon="9.696052478695462"><ele>263.0</ele><time>2026-04-07T07:35:01.999Z</time></trkpt><trkpt lat="45.70188149687121" lon="9.695963322698057"><ele>263.6666666666667</ele><time>2026-04-07T07:35:02.999Z</time></trkpt><trkpt lat="45.70205788282849" lon="9.695887176687458"><ele>264.3333333333333</ele><time>2026-04-07T07:35:03.999Z</time></trkpt><trkpt lat="45.70222296635904" lon="9.695819781295288"><ele>265.0</ele><time>2026-04-07T07:35:04.999Z</time></trkpt><trkpt lat="45.702380949083306" lon="9.695754243451955"><ele>265.0</ele><time>2026-04-07T07:35:05.999Z</time></trkpt><trkpt lat="45.70252547198342" lon="9.695694228004163"><ele>265.0</ele><time>2026-04-07T07:35:06.999Z</time></trkpt><trkpt lat="45.70266694554175" lon="9.695621160359595"><ele>265.0</ele><time>2026-04-07T07:35:07.999Z</time></trkpt><trkpt lat="45.702813122977126" lon="9.695550333884489"><ele>264.75</ele><time>2026-04-07T07:35:08.999Z</time></trkpt><trkpt lat="45.7029602228879" lon="9.69547894776272"><ele>264.5</ele><time>2026-04-07T07:35:09.999Z</time></trkpt><trkpt lat="45.703105602196835" lon="9.695413519287731"><ele>264.25</ele><time>2026-04-07T07:35:10.999Z</time></trkpt><trkpt lat="45.703236613294706" lon="9.695357044473045"><ele>264.0</ele><time>2026-04-07T07:35:11.999Z</time></trkpt><trkpt lat="45.7033819673616" lon="9.695299506257792"><ele>263.75</ele><time>2026-04-07T07:35:12.999Z</time></trkpt><trkpt lat="45.70352986072076" lon="9.695235869899326"><ele>263.5</ele><time>2026-04-07T07:35:13.999Z</time></trkpt><trkpt lat="45.70367414512087" lon="9.695166426755424"><ele>263.25</ele><time>2026-04-07T07:35:14.999Z</time></trkpt><trkpt lat="45.70379778749438" lon="9.695111481486887"><ele>263.0</ele><time>2026-04-07T07:35:15.999Z</time></trkpt><trkpt lat="45.70389535023016" lon="9.695082553226989"><ele>263.4</ele><time>2026-04-07T07:35:16.999Z</time></trkpt><trkpt lat="45.70397710007767" lon="9.695089200667955"><ele>263.8</ele><time>2026-04-07T07:35:17.999Z</time></trkpt><trkpt lat="45.70405071697011" lon="9.695128017540446"><ele>264.2</ele><time>2026-04-07T07:35:18.999Z</time></trkpt><trkpt lat="45.704137272399215" lon="9.695193911843548"><ele>264.6</ele><time>2026-04-07T07:35:19.999Z</time></trkpt><trkpt lat="45.70423522508651" lon="9.695275527917879"><ele>265.0</ele><time>2026-04-07T07:35:20.999Z</time></trkpt><trkpt lat="45.70435197405121" lon="9.695335243383322"><ele>265.16666666666663</ele><time>2026-04-07T07:35:21.999Z</time></trkpt><trkpt lat="45.70445838730737" lon="9.695358010807471"><ele>265.3333333333333</ele><time>2026-04-07T07:35:22.999Z</time></trkpt><trkpt lat="45.70453843934603" lon="9.69535022357455"><ele>265.5</ele><time>2026-04-07T07:35:23.999Z</time></trkpt><trkpt lat="45.70461427797807" lon="9.695329479620222"><ele>265.6666666666667</ele><time>2026-04-07T07:35:25.999Z</time></trkpt><trkpt lat="45.70469750714585" lon="9.695426240512527"><ele>265.83333333333337</ele><time>2026-04-07T07:35:27.999Z</time></trkpt><trkpt lat="45.70474691022659" lon="9.695494488859733"><ele>266.0</ele><time>2026-04-07T07:35:28.999Z</time></trkpt><trkpt lat="45.7047953339718" lon="9.695562545175957"><ele>266.0</ele><time>2026-04-07T07:35:29.999Z</time></trkpt><trkpt lat="45.704844266932604" lon="9.695654175101861"><ele>266.0</ele><time>2026-04-07T07:35:30.999Z</time></trkpt><trkpt lat="45.704909810812204" lon="9.695785184528084"><ele>266.0</ele><time>2026-04-07T07:35:31.999Z</time></trkpt><trkpt lat="45.704995329977315" lon="9.69594975977438"><ele>266.0</ele><time>2026-04-07T07:35:32.999Z</time></trkpt><trkpt lat="45.70510203204573" lon="9.696147306014309"><ele>265.6666666666667</ele><time>2026-04-07T07:35:33.999Z</time></trkpt><trkpt lat="45.705212380490714" lon="9.69634967908399"><ele>265.3333333333333</ele><time>2026-04-07T07:35:34.999Z</time></trkpt><trkpt lat="45.705329144956615" lon="9.696563346289595"><ele>265.0</ele><time>2026-04-07T07:35:35.999Z</time></trkpt><trkpt lat="45.70544955859778" lon="9.69678045463268"><ele>265.3333333333333</ele><time>2026-04-07T07:35:36.999Z</time></trkpt><trkpt lat="45.705580312372234" lon="9.697010057516595"><ele>265.6666666666667</ele><time>2026-04-07T07:35:37.999Z</time></trkpt><trkpt lat="45.70571572854042" lon="9.69724142776806"><ele>266.0</ele><time>2026-04-07T07:35:38.999Z</time></trkpt><trkpt lat="45.70585808637598" lon="9.697485335023552"><ele>266.0</ele><time>2026-04-07T07:35:39.999Z</time></trkpt><trkpt lat="45.70600254986412" lon="9.697735543002471"><ele>266.0</ele><time>2026-04-07T07:35:40.999Z</time></trkpt><trkpt lat="45.70614192835885" lon="9.697980306683762"><ele>266.0</ele><time>2026-04-07T07:35:41.999Z</time></trkpt><trkpt lat="45.70627313359178" lon="9.698221668437679"><ele>266.6666666666667</ele><time>2026-04-07T07:35:42.999Z</time></trkpt><trkpt lat="45.70640254722524" lon="9.698460433315427"><ele>267.3333333333333</ele><time>2026-04-07T07:35:43.999Z</time></trkpt><trkpt lat="45.706534311540416" lon="9.698700722806258"><ele>268.0</ele><time>2026-04-07T07:35:44.999Z</time></trkpt><trkpt lat="45.70667332450704" lon="9.698929977855519"><ele>268.0</ele><time>2026-04-07T07:35:45.999Z</time></trkpt><trkpt lat="45.70682055400356" lon="9.699155525191312"><ele>268.0</ele><time>2026-04-07T07:35:46.999Z</time></trkpt><trkpt lat="45.706975061564165" lon="9.699374263722538"><ele>268.0</ele><time>2026-04-07T07:35:47.999Z</time></trkpt><trkpt lat="45.7071353332262" lon="9.699590055442643"><ele>268.66666666666663</ele><time>2026-04-07T07:35:48.999Z</time></trkpt><trkpt lat="45.70729797673458" lon="9.6998000207484"><ele>269.3333333333333</ele><time>2026-04-07T07:35:49.999Z</time></trkpt><trkpt lat="45.70746604992024" lon="9.70000583326129"><ele>270.0</ele><time>2026-04-07T07:35:50.999Z</time></trkpt><trkpt lat="45.70763794823739" lon="9.700207607936767"><ele>270.3333333333333</ele><time>2026-04-07T07:35:51.999Z</time></trkpt><trkpt lat="45.70780989610269" lon="9.700402959533333"><ele>270.66666666666663</ele><time>2026-04-07T07:35:52.999Z</time></trkpt><trkpt lat="45.70798506262734" lon="9.70059945924826"><ele>271.0</ele><time>2026-04-07T07:35:53.999Z</time></trkpt><trkpt lat="45.70816149805975" lon="9.700795811576528"><ele>271.0</ele><time>2026-04-07T07:35:54.999Z</time></trkpt><trkpt lat="45.708334428374634" lon="9.700992360905724"><ele>271.0</ele><time>2026-04-07T07:35:55.999Z</time></trkpt><trkpt lat="45.70850607382075" lon="9.701188928736208"><ele>271.0</ele><time>2026-04-07T07:35:56.999Z</time></trkpt><trkpt lat="45.70867971796349" lon="9.70138675586119"><ele>271.0</ele><time>2026-04-07T07:35:57.999Z</time></trkpt><trkpt lat="45.708856846775156" lon="9.701585710795475"><ele>271.0</ele><time>2026-04-07T07:35:58.999Z</time></trkpt><trkpt lat="45.70903961309426" lon="9.701790516201186"><ele>271.3333333333333</ele><time>2026-04-07T07:35:59.999Z</time></trkpt><trkpt lat="45.70920868351178" lon="9.701983157336182"><ele>271.6666666666667</ele><time>2026-04-07T07:36:00.999Z</time></trkpt><trkpt lat="45.7093754743298" lon="9.702173143530977"><ele>272.0</ele><time>2026-04-07T07:36:01.999Z</time></trkpt><trkpt lat="45.70955434277729" lon="9.702375765899472"><ele>272.33333333333337</ele><time>2026-04-07T07:36:02.999Z</time></trkpt><trkpt lat="45.70972433823805" lon="9.702564300215528"><ele>272.6666666666667</ele><time>2026-04-07T07:36:03.999Z</time></trkpt><trkpt lat="45.70988632501996" lon="9.702744856907982"><ele>273.0</ele><time>2026-04-07T07:36:04.999Z</time></trkpt><trkpt lat="45.71004519992957" lon="9.702924668649352"><ele>273.0</ele><time>2026-04-07T07:36:05.999Z</time></trkpt><trkpt lat="45.71020403410596" lon="9.703110343718846"><ele>273.0</ele><time>2026-04-07T07:36:06.999Z</time></trkpt><trkpt lat="45.710373080845294" lon="9.703314255605386"><ele>273.0</ele><time>2026-04-07T07:36:07.999Z</time></trkpt><trkpt lat="45.71053458302772" lon="9.703522582255431"><ele>273.5</ele><time>2026-04-07T07:36:08.999Z</time></trkpt><trkpt lat="45.710698410741344" lon="9.703744338525262"><ele>274.0</ele><time>2026-04-07T07:36:09.999Z</time></trkpt><trkpt lat="45.710862645537276" lon="9.703969169746273"><ele>274.0</ele><time>2026-04-07T07:36:10.999Z</time></trkpt><trkpt lat="45.711016279735325" lon="9.70418440780527"><ele>274.0</ele><time>2026-04-07T07:36:11.999Z</time></trkpt><trkpt lat="45.71117135623494" lon="9.704405389592702"><ele>274.0</ele><time>2026-04-07T07:36:12.999Z</time></trkpt><trkpt lat="45.71132067732006" lon="9.704641217417814"><ele>276.0</ele><time>2026-04-07T07:36:13.999Z</time></trkpt><trkpt lat="45.71146640830324" lon="9.70489168772249"><ele>278.0</ele><time>2026-04-07T07:36:14.999Z</time></trkpt><trkpt lat="45.7116076941048" lon="9.705147289256821"><ele>276.0</ele><time>2026-04-07T07:36:16Z</time></trkpt><trkpt lat="45.7117497776185" lon="9.705405149241026"><ele>274.0</ele><time>2026-04-07T07:36:17Z</time></trkpt><trkpt lat="45.711888131049626" lon="9.705676121795166"><ele>275.0</ele><time>2026-04-07T07:36:18Z</time></trkpt><trkpt lat="45.712019436844734" lon="9.705953301848245"><ele>276.0</ele><time>2026-04-07T07:36:19Z</time></trkpt><trkpt lat="45.71214826522283" lon="9.706231960703667"><ele>276.0</ele><time>2026-04-07T07:36:20Z</time></trkpt><trkpt lat="45.7122823155624" lon="9.706512933090403"><ele>276.0</ele><time>2026-04-07T07:36:21Z</time></trkpt><trkpt lat="45.71242123124558" lon="9.706799596775497"><ele>277.0</ele><time>2026-04-07T07:36:22Z</time></trkpt><trkpt lat="45.71255567056338" lon="9.707087065264977"><ele>278.0</ele><time>2026-04-07T07:36:23Z</time></trkpt><trkpt lat="45.712691026937314" lon="9.707377531634506"><ele>278.0</ele><time>2026-04-07T07:36:24Z</time></trkpt><trkpt lat="45.71282464720251" lon="9.707663834674314"><ele>278.0</ele><time>2026-04-07T07:36:25Z</time></trkpt><trkpt lat="45.71295871118505" lon="9.70794896146677"><ele>278.0</ele><time>2026-04-07T07:36:26Z</time></trkpt><trkpt lat="45.71309683149298" lon="9.708238444115283"><ele>278.0</ele><time>2026-04-07T07:36:27Z</time></trkpt><trkpt lat="45.71323631702447" lon="9.708525765361397"><ele>277.5</ele><time>2026-04-07T07:36:28Z</time></trkpt><trkpt lat="45.71337871358941" lon="9.708820508520478"><ele>277.0</ele><time>2026-04-07T07:36:29Z</time></trkpt><trkpt lat="45.713505619771524" lon="9.709089272711362"><ele>277.5</ele><time>2026-04-07T07:36:30Z</time></trkpt><trkpt lat="45.71363065190175" lon="9.709352910624574"><ele>278.0</ele><time>2026-04-07T07:36:31Z</time></trkpt><trkpt lat="45.71375891373436" lon="9.709626636069043"><ele>278.0</ele><time>2026-04-07T07:36:32Z</time></trkpt><trkpt lat="45.71389196797118" lon="9.709904564906578"><ele>278.0</ele><time>2026-04-07T07:36:33Z</time></trkpt><trkpt lat="45.71403038209477" lon="9.710187348156879"><ele>278.0</ele><time>2026-04-07T07:36:34Z</time></trkpt><trkpt lat="45.714172518542746" lon="9.71047624151951"><ele>278.0</ele><time>2026-04-07T07:36:35Z</time></trkpt><trkpt lat="45.71430645771749" lon="9.710756294749418"><ele>278.5</ele><time>2026-04-07T07:36:36Z</time></trkpt><trkpt lat="45.71444792966037" lon="9.71105522375852"><ele>279.0</ele><time>2026-04-07T07:36:37Z</time></trkpt><trkpt lat="45.71458403043118" lon="9.711347091669552"><ele>279.0</ele><time>2026-04-07T07:36:38Z</time></trkpt><trkpt lat="45.714722596020515" lon="9.711645978613532"><ele>279.0</ele><time>2026-04-07T07:36:39Z</time></trkpt><trkpt lat="45.71485246136668" lon="9.711933401982678"><ele>279.5</ele><time>2026-04-07T07:36:40Z</time></trkpt><trkpt lat="45.71498996096745" lon="9.712237086122519"><ele>280.0</ele><time>2026-04-07T07:36:41Z</time></trkpt><trkpt lat="45.71512140090012" lon="9.712523025630288"><ele>279.5</ele><time>2026-04-07T07:36:42Z</time></trkpt><trkpt lat="45.71525734578616" lon="9.712813965047706"><ele>279.0</ele><time>2026-04-07T07:36:43Z</time></trkpt><trkpt lat="45.715394816275996" lon="9.713100521795125"><ele>279.0</ele><time>2026-04-07T07:36:44Z</time></trkpt><trkpt lat="45.71553568047934" lon="9.713394158013248"><ele>279.0</ele><time>2026-04-07T07:36:45Z</time></trkpt><trkpt lat="45.715677873311634" lon="9.713685535496811"><ele>278.0</ele><time>2026-04-07T07:36:46Z</time></trkpt><trkpt lat="45.71580541049562" lon="9.713939414681814"><ele>277.0</ele><time>2026-04-07T07:36:47Z</time></trkpt><trkpt lat="45.715952229568465" lon="9.714255662613777"><ele>277.5</ele><time>2026-04-07T07:36:47.999Z</time></trkpt><trkpt lat="45.716093354187116" lon="9.714556386575183"><ele>278.0</ele><time>2026-04-07T07:36:48.999Z</time></trkpt><trkpt lat="45.716234716747174" lon="9.714857302475828"><ele>278.0</ele><time>2026-04-07T07:36:49.999Z</time></trkpt><trkpt lat="45.71638189106872" lon="9.71517452811869"><ele>278.0</ele><time>2026-04-07T07:36:50.999Z</time></trkpt><trkpt lat="45.71652871482109" lon="9.715485401398002"><ele>279.0</ele><time>2026-04-07T07:36:51.999Z</time></trkpt><trkpt lat="45.716676291445566" lon="9.715792500052356"><ele>280.0</ele><time>2026-04-07T07:36:52.999Z</time></trkpt><trkpt lat="45.71682506298367" lon="9.716106078554148"><ele>280.0</ele><time>2026-04-07T07:36:53.999Z</time></trkpt><trkpt lat="45.7169707898865" lon="9.716410248439047"><ele>280.0</ele><time>2026-04-07T07:36:54.999Z</time></trkpt><trkpt lat="45.717116404767616" lon="9.716718552388006"><ele>281.0</ele><time>2026-04-07T07:36:55.999Z</time></trkpt><trkpt lat="45.717263242309336" lon="9.717030908228866"><ele>282.0</ele><time>2026-04-07T07:36:56.999Z</time></trkpt><trkpt lat="45.717406522036036" lon="9.71732827569157"><ele>282.0</ele><time>2026-04-07T07:36:57.999Z</time></trkpt><trkpt lat="45.717541081192124" lon="9.717603771956181"><ele>282.0</ele><time>2026-04-07T07:36:58.999Z</time></trkpt><trkpt lat="45.71767095947793" lon="9.717877070016378"><ele>280.0</ele><time>2026-04-07T07:36:59.999Z</time></trkpt><trkpt lat="45.71780926272198" lon="9.718161700416212"><ele>278.0</ele><time>2026-04-07T07:37:00.999Z</time></trkpt><trkpt lat="45.71795537385639" lon="9.718454940746794"><ele>278.5</ele><time>2026-04-07T07:37:01.999Z</time></trkpt><trkpt lat="45.718101675398245" lon="9.718730236185118"><ele>279.0</ele><time>2026-04-07T07:37:02.999Z</time></trkpt><trkpt lat="45.71824467959514" lon="9.718987772105839"><ele>279.0</ele><time>2026-04-07T07:37:03.999Z</time></trkpt><trkpt lat="45.718391331988265" lon="9.719230582796731"><ele>279.0</ele><time>2026-04-07T07:37:04.999Z</time></trkpt><trkpt lat="45.718540306393166" lon="9.719468572818643"><ele>279.0</ele><time>2026-04-07T07:37:05.999Z</time></trkpt><trkpt lat="45.71870300310786" lon="9.719715516045365"><ele>279.0</ele><time>2026-04-07T07:37:06.999Z</time></trkpt><trkpt lat="45.71887166517248" lon="9.719974997905284"><ele>279.0</ele><time>2026-04-07T07:37:07.999Z</time></trkpt><trkpt lat="45.71904014836093" lon="9.720239368931685"><ele>279.0</ele><time>2026-04-07T07:37:08.999Z</time></trkpt><trkpt lat="45.71920819513836" lon="9.720490379782106"><ele>279.0</ele><time>2026-04-07T07:37:09.999Z</time></trkpt><trkpt lat="45.71936862817853" lon="9.720724334603721"><ele>278.6666666666667</ele><time>2026-04-07T07:37:10.999Z</time></trkpt><trkpt lat="45.71952808647154" lon="9.720953676388461"><ele>278.33333333333337</ele><time>2026-04-07T07:37:11.999Z</time></trkpt><trkpt lat="45.71967655052879" lon="9.721168949395205"><ele>278.0</ele><time>2026-04-07T07:37:12.999Z</time></trkpt><trkpt lat="45.719829028049986" lon="9.721392897997902"><ele>278.0</ele><time>2026-04-07T07:37:13.999Z</time></trkpt><trkpt lat="45.71997551797572" lon="9.721610780026767"><ele>278.0</ele><time>2026-04-07T07:37:14.999Z</time></trkpt><trkpt lat="45.720129044443574" lon="9.721840827989555"><ele>278.0</ele><time>2026-04-07T07:37:15.999Z</time></trkpt><trkpt lat="45.720277242103954" lon="9.722055219425227"><ele>277.6666666666667</ele><time>2026-04-07T07:37:16.999Z</time></trkpt><trkpt lat="45.72041125332194" lon="9.722253418175997"><ele>277.3333333333333</ele><time>2026-04-07T07:37:17.999Z</time></trkpt><trkpt lat="45.720550284606325" lon="9.722459189057343"><ele>277.0</ele><time>2026-04-07T07:37:18.999Z</time></trkpt><trkpt lat="45.72069093437875" lon="9.72266962210713"><ele>276.0</ele><time>2026-04-07T07:37:19.999Z</time></trkpt><trkpt lat="45.72083274686467" lon="9.72288089161065"><ele>275.0</ele><time>2026-04-07T07:37:20.999Z</time></trkpt><trkpt lat="45.72097858361389" lon="9.723094052902976"><ele>274.0</ele><time>2026-04-07T07:37:21.999Z</time></trkpt><trkpt lat="45.721126938850695" lon="9.723303375168776"><ele>274.0</ele><time>2026-04-07T07:37:22.999Z</time></trkpt><trkpt lat="45.72128827540881" lon="9.723522175512544"><ele>274.0</ele><time>2026-04-07T07:37:23.999Z</time></trkpt><trkpt lat="45.72144264454422" lon="9.723735028902427"><ele>274.0</ele><time>2026-04-07T07:37:24.999Z</time></trkpt><trkpt lat="45.72161146488127" lon="9.723958812247597"><ele>274.0</ele><time>2026-04-07T07:37:25.999Z</time></trkpt><trkpt lat="45.72177810027095" lon="9.724177086197212"><ele>274.0</ele><time>2026-04-07T07:37:26.999Z</time></trkpt><trkpt lat="45.72195367709652" lon="9.724403208731353"><ele>272.5</ele><time>2026-04-07T07:37:27.999Z</time></trkpt><trkpt lat="45.72212856790057" lon="9.724632400382534"><ele>271.0</ele><time>2026-04-07T07:37:28.999Z</time></trkpt><trkpt lat="45.72230528715847" lon="9.724862032845168"><ele>271.0</ele><time>2026-04-07T07:37:29.999Z</time></trkpt><trkpt lat="45.722484087711734" lon="9.725091763855755"><ele>271.0</ele><time>2026-04-07T07:37:30.999Z</time></trkpt><trkpt lat="45.722645933792315" lon="9.725302604692898"><ele>271.0</ele><time>2026-04-07T07:37:31.999Z</time></trkpt><trkpt lat="45.72280032576561" lon="9.725502960445063"><ele>271.0</ele><time>2026-04-07T07:37:32.999Z</time></trkpt><trkpt lat="45.72296113758674" lon="9.725713797652974"><ele>271.0</ele><time>2026-04-07T07:37:33.999Z</time></trkpt><trkpt lat="45.723126377194895" lon="9.725933778239702"><ele>271.0</ele><time>2026-04-07T07:37:34.999Z</time></trkpt><trkpt lat="45.723291226819505" lon="9.726156536652553"><ele>271.0</ele><time>2026-04-07T07:37:35.999Z</time></trkpt><trkpt lat="45.723450602136595" lon="9.726375450107781"><ele>271.0</ele><time>2026-04-07T07:37:36.999Z</time></trkpt><trkpt lat="45.72359968116513" lon="9.726572794426746"><ele>271.0</ele><time>2026-04-07T07:37:37.999Z</time></trkpt><trkpt lat="45.72375676409591" lon="9.726768861289733"><ele>271.0</ele><time>2026-04-07T07:37:38.999Z</time></trkpt><trkpt lat="45.72391608197152" lon="9.726969991636743"><ele>271.0</ele><time>2026-04-07T07:37:39.999Z</time></trkpt><trkpt lat="45.72406182811389" lon="9.727159292237028"><ele>271.0</ele><time>2026-04-07T07:37:40.999Z</time></trkpt><trkpt lat="45.7242104965654" lon="9.727352305756265"><ele>271.0</ele><time>2026-04-07T07:37:41.999Z</time></trkpt><trkpt lat="45.72436499085647" lon="9.727551819098803"><ele>271.0</ele><time>2026-04-07T07:37:42.999Z</time></trkpt><trkpt lat="45.72452611488235" lon="9.72776751421849"><ele>271.0</ele><time>2026-04-07T07:37:43.999Z</time></trkpt><trkpt lat="45.724685002512146" lon="9.727982168555327"><ele>271.0</ele><time>2026-04-07T07:37:44.999Z</time></trkpt><trkpt lat="45.72483178646713" lon="9.72818003187812"><ele>271.0</ele><time>2026-04-07T07:37:45.999Z</time></trkpt><trkpt lat="45.72498181981606" lon="9.72837983209461"><ele>271.66666666666663</ele><time>2026-04-07T07:37:46.999Z</time></trkpt><trkpt lat="45.72512241978314" lon="9.728565136161436"><ele>272.3333333333333</ele><time>2026-04-07T07:37:47.999Z</time></trkpt><trkpt lat="45.72525972491697" lon="9.728740009585277"><ele>273.0</ele><time>2026-04-07T07:37:48.999Z</time></trkpt><trkpt lat="45.72539626962129" lon="9.728917418290548"><ele>273.0</ele><time>2026-04-07T07:37:49.999Z</time></trkpt><trkpt lat="45.72554915362111" lon="9.729123953532978"><ele>273.0</ele><time>2026-04-07T07:37:50.999Z</time></trkpt><trkpt lat="45.72569739303502" lon="9.729322400223046"><ele>273.0</ele><time>2026-04-07T07:37:51.999Z</time></trkpt><trkpt lat="45.725839237896004" lon="9.72950190719097"><ele>272.6666666666667</ele><time>2026-04-07T07:37:52.999Z</time></trkpt><trkpt lat="45.72597693603747" lon="9.729681863586855"><ele>272.33333333333337</ele><time>2026-04-07T07:37:53.999Z</time></trkpt><trkpt lat="45.7260981393838" lon="9.729846698949212"><ele>272.0</ele><time>2026-04-07T07:37:54.999Z</time></trkpt><trkpt lat="45.72621022791406" lon="9.72999615452118"><ele>271.6666666666667</ele><time>2026-04-07T07:37:55.999Z</time></trkpt><trkpt lat="45.726336700230526" lon="9.730158146764293"><ele>271.3333333333333</ele><time>2026-04-07T07:37:56.999Z</time></trkpt><trkpt lat="45.726472707146165" lon="9.730340187737276"><ele>271.0</ele><time>2026-04-07T07:37:57.999Z</time></trkpt><trkpt lat="45.72660700650857" lon="9.730528070483217"><ele>271.0</ele><time>2026-04-07T07:37:58.999Z</time></trkpt><trkpt lat="45.726755157572995" lon="9.730728654046718"><ele>271.0</ele><time>2026-04-07T07:37:59.999Z</time></trkpt><trkpt lat="45.72690865005997" lon="9.730927279313482"><ele>271.0</ele><time>2026-04-07T07:38:00.999Z</time></trkpt><trkpt lat="45.7270422790648" lon="9.731104638699252"><ele>271.3333333333333</ele><time>2026-04-07T07:38:01.999Z</time></trkpt><trkpt lat="45.72716203313985" lon="9.731268986713811"><ele>271.6666666666667</ele><time>2026-04-07T07:38:02.999Z</time></trkpt><trkpt lat="45.7272819465743" lon="9.731429659576095"><ele>272.0</ele><time>2026-04-07T07:38:03.999Z</time></trkpt><trkpt lat="45.72739841271611" lon="9.731592109502115"><ele>272.0</ele><time>2026-04-07T07:38:04.999Z</time></trkpt><trkpt lat="45.727532829295335" lon="9.73179234666942"><ele>272.0</ele><time>2026-04-07T07:38:05.999Z</time></trkpt><trkpt lat="45.72768196251622" lon="9.732003688940004"><ele>272.0</ele><time>2026-04-07T07:38:06.999Z</time></trkpt><trkpt lat="45.727846785202644" lon="9.732242190689878"><ele>273.5</ele><time>2026-04-07T07:38:07.999Z</time></trkpt><trkpt lat="45.72801429722361" lon="9.732494555581507"><ele>275.0</ele><time>2026-04-07T07:38:08.999Z</time></trkpt><trkpt lat="45.72815789757327" lon="9.732714894650256"><ele>275.0</ele><time>2026-04-07T07:38:09.999Z</time></trkpt><trkpt lat="45.72828863029527" lon="9.732910189069015"><ele>275.0</ele><time>2026-04-07T07:38:10.999Z</time></trkpt><trkpt lat="45.728405811594804" lon="9.733086551591166"><ele>275.0</ele><time>2026-04-07T07:38:11.999Z</time></trkpt><trkpt lat="45.728523099322686" lon="9.733262294353214"><ele>275.0</ele><time>2026-04-07T07:38:12.999Z</time></trkpt><trkpt lat="45.72865607885682" lon="9.733456932696514"><ele>275.0</ele><time>2026-04-07T07:38:13.999Z</time></trkpt><trkpt lat="45.72880155166579" lon="9.733670134662756"><ele>275.0</ele><time>2026-04-07T07:38:14.999Z</time></trkpt><trkpt lat="45.728951504703595" lon="9.733888648060859"><ele>275.0</ele><time>2026-04-07T07:38:15.999Z</time></trkpt><trkpt lat="45.72909428447195" lon="9.734099315551441"><ele>275.0</ele><time>2026-04-07T07:38:16.999Z</time></trkpt><trkpt lat="45.72922899442561" lon="9.734298483127917"><ele>275.0</ele><time>2026-04-07T07:38:17.999Z</time></trkpt><trkpt lat="45.72934702654289" lon="9.734474455345877"><ele>275.33333333333337</ele><time>2026-04-07T07:38:18.999Z</time></trkpt><trkpt lat="45.72946237976179" lon="9.734645923235098"><ele>275.6666666666667</ele><time>2026-04-07T07:38:19.999Z</time></trkpt><trkpt lat="45.72958275848921" lon="9.734823962092717"><ele>276.0</ele><time>2026-04-07T07:38:20.999Z</time></trkpt><trkpt lat="45.72971284554094" lon="9.735014018326002"><ele>276.0</ele><time>2026-04-07T07:38:22Z</time></trkpt><trkpt lat="45.729827734711904" lon="9.735186879961576"><ele>276.0</ele><time>2026-04-07T07:38:23Z</time></trkpt><trkpt lat="45.729950500213675" lon="9.735367344706551"><ele>276.0</ele><time>2026-04-07T07:38:24Z</time></trkpt><trkpt lat="45.73006862799368" lon="9.735543211435276"><ele>276.0</ele><time>2026-04-07T07:38:25Z</time></trkpt><trkpt lat="45.73017217967936" lon="9.735703159351463"><ele>276.0</ele><time>2026-04-07T07:38:26Z</time></trkpt><trkpt lat="45.73029195924488" lon="9.735877759575073"><ele>276.0</ele><time>2026-04-07T07:38:27Z</time></trkpt><trkpt lat="45.730429773199226" lon="9.736075771539491"><ele>277.3333333333333</ele><time>2026-04-07T07:38:28Z</time></trkpt><trkpt lat="45.730562604513054" lon="9.736267626964239"><ele>278.66666666666663</ele><time>2026-04-07T07:38:29Z</time></trkpt><trkpt lat="45.73067823719744" lon="9.73644329431993"><ele>280.0</ele><time>2026-04-07T07:38:30Z</time></trkpt><trkpt lat="45.730799817632786" lon="9.736632324830703"><ele>280.0</ele><time>2026-04-07T07:38:31Z</time></trkpt><trkpt lat="45.730936117056906" lon="9.736851942732946"><ele>280.0</ele><time>2026-04-07T07:38:32Z</time></trkpt><trkpt lat="45.731077649284266" lon="9.737066749006928"><ele>280.0</ele><time>2026-04-07T07:38:33Z</time></trkpt><trkpt lat="45.73123388058142" lon="9.7372866111401"><ele>279.66666666666663</ele><time>2026-04-07T07:38:34Z</time></trkpt><trkpt lat="45.731380776611566" lon="9.737498532121222"><ele>279.3333333333333</ele><time>2026-04-07T07:38:35Z</time></trkpt><trkpt lat="45.73152926753047" lon="9.737716733022676"><ele>279.0</ele><time>2026-04-07T07:38:36Z</time></trkpt><trkpt lat="45.7316741007234" lon="9.73793506715123"><ele>278.5</ele><time>2026-04-07T07:38:37Z</time></trkpt><trkpt lat="45.73182969508921" lon="9.738167343841264"><ele>278.0</ele><time>2026-04-07T07:38:38Z</time></trkpt><trkpt lat="45.73198725118779" lon="9.73840381493925"><ele>278.0</ele><time>2026-04-07T07:38:39Z</time></trkpt><trkpt lat="45.732144736094426" lon="9.738645462297585"><ele>278.0</ele><time>2026-04-07T07:38:40Z</time></trkpt><trkpt lat="45.7323143036926" lon="9.738891150471343"><ele>278.0</ele><time>2026-04-07T07:38:41Z</time></trkpt><trkpt lat="45.73246395694979" lon="9.739110313787208"><ele>278.0</ele><time>2026-04-07T07:38:42Z</time></trkpt><trkpt lat="45.732615003255546" lon="9.739338128349921"><ele>278.0</ele><time>2026-04-07T07:38:43Z</time></trkpt><trkpt lat="45.732754419318475" lon="9.739547146624375"><ele>278.33333333333337</ele><time>2026-04-07T07:38:44Z</time></trkpt><trkpt lat="45.73288902450911" lon="9.739746782594125"><ele>278.6666666666667</ele><time>2026-04-07T07:38:45Z</time></trkpt><trkpt lat="45.733028798529304" lon="9.739955576926993"><ele>279.0</ele><time>2026-04-07T07:38:46Z</time></trkpt><trkpt lat="45.733179136102514" lon="9.74017626317657"><ele>281.0</ele><time>2026-04-07T07:38:47Z</time></trkpt><trkpt lat="45.73333669015174" lon="9.740408233387223"><ele>283.0</ele><time>2026-04-07T07:38:48Z</time></trkpt><trkpt lat="45.73349698031671" lon="9.740648100009507"><ele>283.0</ele><time>2026-04-07T07:38:49Z</time></trkpt><trkpt lat="45.73363989823831" lon="9.740860795868246"><ele>283.0</ele><time>2026-04-07T07:38:50Z</time></trkpt><trkpt lat="45.73377509397409" lon="9.741058961127429"><ele>283.0</ele><time>2026-04-07T07:38:51Z</time></trkpt><trkpt lat="45.733907111474615" lon="9.741251145177767"><ele>283.66666666666663</ele><time>2026-04-07T07:38:52Z</time></trkpt><trkpt lat="45.7340326362883" lon="9.74143357920471"><ele>284.3333333333333</ele><time>2026-04-07T07:38:53Z</time></trkpt><trkpt lat="45.73414341321821" lon="9.74160139258705"><ele>285.0</ele><time>2026-04-07T07:38:54Z</time></trkpt><trkpt lat="45.734265265800204" lon="9.741784237333691"><ele>284.6666666666667</ele><time>2026-04-07T07:38:55Z</time></trkpt><trkpt lat="45.73436922889583" lon="9.741944527106268"><ele>284.33333333333337</ele><time>2026-04-07T07:38:56Z</time></trkpt><trkpt lat="45.73445741645186" lon="9.742103093547202"><ele>284.0</ele><time>2026-04-07T07:38:56.999Z</time></trkpt><trkpt lat="45.73455406576475" lon="9.742316388876542"><ele>284.6666666666667</ele><time>2026-04-07T07:38:57.999Z</time></trkpt><trkpt lat="45.734645814388074" lon="9.742533523583372"><ele>285.3333333333333</ele><time>2026-04-07T07:38:58.999Z</time></trkpt><trkpt lat="45.734726513731175" lon="9.742732367374257"><ele>286.0</ele><time>2026-04-07T07:38:59.999Z</time></trkpt><trkpt lat="45.73479804754288" lon="9.74293225303839"><ele>286.0</ele><time>2026-04-07T07:39:00.999Z</time></trkpt><trkpt lat="45.734843151325535" lon="9.74312525230692"><ele>286.0</ele><time>2026-04-07T07:39:01.999Z</time></trkpt><trkpt lat="45.734862452357476" lon="9.74332055947475"><ele>286.0</ele><time>2026-04-07T07:39:02.999Z</time></trkpt><trkpt lat="45.73486689112038" lon="9.743503950346529"><ele>286.0</ele><time>2026-04-07T07:39:03.999Z</time></trkpt><trkpt lat="45.734880399452784" lon="9.743683702362343"><ele>286.0</ele><time>2026-04-07T07:39:04.999Z</time></trkpt><trkpt lat="45.7349248479062" lon="9.743836410844214"><ele>286.0</ele><time>2026-04-07T07:39:05.999Z</time></trkpt><trkpt lat="45.73491515257374" lon="9.744003733352757"><ele>286.0</ele><time>2026-04-07T07:39:06.999Z</time></trkpt><trkpt lat="45.7348945501352" lon="9.744150999199743"><ele>286.0</ele><time>2026-04-07T07:39:07.999Z</time></trkpt><trkpt lat="45.73483981410102" lon="9.744341518141745"><ele>286.66666666666663</ele><time>2026-04-07T07:39:08.999Z</time></trkpt><trkpt lat="45.73479899486311" lon="9.744569550180746"><ele>287.3333333333333</ele><time>2026-04-07T07:39:09.999Z</time></trkpt><trkpt lat="45.73471267353461" lon="9.744800853731805"><ele>288.0</ele><time>2026-04-07T07:39:10.999Z</time></trkpt><trkpt lat="45.734665438328676" lon="9.745055619528777"><ele>288.0</ele><time>2026-04-07T07:39:11.999Z</time></trkpt><trkpt lat="45.734623121131094" lon="9.745340412337832"><ele>288.0</ele><time>2026-04-07T07:39:12.999Z</time></trkpt><trkpt lat="45.734591726641376" lon="9.745610234230197"><ele>288.0</ele><time>2026-04-07T07:39:13.999Z</time></trkpt><trkpt lat="45.73457834790285" lon="9.745873883576598"><ele>287.3333333333333</ele><time>2026-04-07T07:39:14.999Z</time></trkpt><trkpt lat="45.73458332609734" lon="9.746135051608253"><ele>286.66666666666663</ele><time>2026-04-07T07:39:15.999Z</time></trkpt><trkpt lat="45.73460120259361" lon="9.746393791650727"><ele>286.0</ele><time>2026-04-07T07:39:16.999Z</time></trkpt><trkpt lat="45.73461998942611" lon="9.746662841582095"><ele>286.0</ele><time>2026-04-07T07:39:17.999Z</time></trkpt><trkpt lat="45.734659269371015" lon="9.74695005618885"><ele>286.0</ele><time>2026-04-07T07:39:18.999Z</time></trkpt><trkpt lat="45.73472253761709" lon="9.747227012465173"><ele>286.0</ele><time>2026-04-07T07:39:19.999Z</time></trkpt><trkpt lat="45.73480011865406" lon="9.747497046322625"><ele>285.66666666666663</ele><time>2026-04-07T07:39:20.999Z</time></trkpt><trkpt lat="45.73488305268321" lon="9.747775441791347"><ele>285.3333333333333</ele><time>2026-04-07T07:39:21.999Z</time></trkpt><trkpt lat="45.73496258931591" lon="9.748042657088964"><ele>285.0</ele><time>2026-04-07T07:39:22.999Z</time></trkpt><trkpt lat="45.73504799718987" lon="9.74831721011173"><ele>286.0</ele><time>2026-04-07T07:39:23.999Z</time></trkpt><trkpt lat="45.735138428789234" lon="9.748600975366283"><ele>287.0</ele><time>2026-04-07T07:39:24.999Z</time></trkpt><trkpt lat="45.735227873007915" lon="9.748872631861708"><ele>288.0</ele><time>2026-04-07T07:39:25.999Z</time></trkpt><trkpt lat="45.735321295585656" lon="9.749148539594884"><ele>288.6666666666667</ele><time>2026-04-07T07:39:26.999Z</time></trkpt><trkpt lat="45.73541725022293" lon="9.749414050615599"><ele>289.33333333333337</ele><time>2026-04-07T07:39:27.999Z</time></trkpt><trkpt lat="45.73552197210845" lon="9.749680475558026"><ele>290.0</ele><time>2026-04-07T07:39:28.999Z</time></trkpt><trkpt lat="45.73562214989662" lon="9.749951190959644"><ele>289.6666666666667</ele><time>2026-04-07T07:39:29.999Z</time></trkpt><trkpt lat="45.7357110678185" lon="9.750208690278889"><ele>289.3333333333333</ele><time>2026-04-07T07:39:30.999Z</time></trkpt><trkpt lat="45.73578728757814" lon="9.750441762419378"><ele>289.0</ele><time>2026-04-07T07:39:31.999Z</time></trkpt><trkpt lat="45.73586069909295" lon="9.750687716205459"><ele>289.0</ele><time>2026-04-07T07:39:32.999Z</time></trkpt><trkpt lat="45.735910911671304" lon="9.750962824024253"><ele>289.0</ele><time>2026-04-07T07:39:33.999Z</time></trkpt><trkpt lat="45.735962264271016" lon="9.75124836196104"><ele>289.0</ele><time>2026-04-07T07:39:34.999Z</time></trkpt><trkpt lat="45.735991787786354" lon="9.751539261322868"><ele>289.3333333333333</ele><time>2026-04-07T07:39:35.999Z</time></trkpt><trkpt lat="45.73601375059737" lon="9.751839993975414"><ele>289.6666666666667</ele><time>2026-04-07T07:39:36.999Z</time></trkpt><trkpt lat="45.73605277404431" lon="9.752157967131856"><ele>290.0</ele><time>2026-04-07T07:39:37.999Z</time></trkpt><trkpt lat="45.736073833964475" lon="9.75245991774482"><ele>290.0</ele><time>2026-04-07T07:39:38.999Z</time></trkpt><trkpt lat="45.7360954362364" lon="9.752764160091212"><ele>290.0</ele><time>2026-04-07T07:39:39.999Z</time></trkpt><trkpt lat="45.736120438778705" lon="9.75306602993416"><ele>290.0</ele><time>2026-04-07T07:39:40.999Z</time></trkpt><trkpt lat="45.736162207127784" lon="9.753392923108288"><ele>290.0</ele><time>2026-04-07T07:39:41.999Z</time></trkpt><trkpt lat="45.73621724656807" lon="9.75369117259557"><ele>290.0</ele><time>2026-04-07T07:39:42.999Z</time></trkpt><trkpt lat="45.73629021699211" lon="9.753971776337528"><ele>290.0</ele><time>2026-04-07T07:39:43.999Z</time></trkpt><trkpt lat="45.73638493133649" lon="9.754241570379158"><ele>289.33333333333337</ele><time>2026-04-07T07:39:44.999Z</time></trkpt><trkpt lat="45.7364829494942" lon="9.754486855623938"><ele>288.6666666666667</ele><time>2026-04-07T07:39:45.999Z</time></trkpt><trkpt lat="45.736592258137904" lon="9.754736102111622"><ele>288.0</ele><time>2026-04-07T07:39:46.999Z</time></trkpt><trkpt lat="45.73671536727454" lon="9.75498846674441"><ele>288.0</ele><time>2026-04-07T07:39:47.999Z</time></trkpt><trkpt lat="45.736862188617785" lon="9.755221233181025"><ele>288.0</ele><time>2026-04-07T07:39:48.999Z</time></trkpt><trkpt lat="45.737012397867204" lon="9.755425850858042"><ele>288.0</ele><time>2026-04-07T07:39:49.999Z</time></trkpt><trkpt lat="45.7371419383317" lon="9.755621231970068"><ele>289.3333333333333</ele><time>2026-04-07T07:39:50.999Z</time></trkpt><trkpt lat="45.737259374897995" lon="9.755813228730975"><ele>290.66666666666663</ele><time>2026-04-07T07:39:51.999Z</time></trkpt><trkpt lat="45.7373696691172" lon="9.756044474931423"><ele>292.0</ele><time>2026-04-07T07:39:52.999Z</time></trkpt><trkpt lat="45.73746900395392" lon="9.75625078587139"><ele>292.0</ele><time>2026-04-07T07:39:53.999Z</time></trkpt><trkpt lat="45.73756442879772" lon="9.756443633321334"><ele>292.0</ele><time>2026-04-07T07:39:54.999Z</time></trkpt><trkpt lat="45.73760862871084" lon="9.756653344008926"><ele>292.0</ele><time>2026-04-07T07:39:55.999Z</time></trkpt><trkpt lat="45.73763929587385" lon="9.756867117170808"><ele>292.0</ele><time>2026-04-07T07:39:56.999Z</time></trkpt><trkpt lat="45.737676865342486" lon="9.757107939644854"><ele>292.0</ele><time>2026-04-07T07:39:57.999Z</time></trkpt><trkpt lat="45.73768919072618" lon="9.757370601059462"><ele>292.0</ele><time>2026-04-07T07:39:58.999Z</time></trkpt><trkpt lat="45.73770326097143" lon="9.75763527957576"><ele>293.0</ele><time>2026-04-07T07:39:59.999Z</time></trkpt><trkpt lat="45.737747418798136" lon="9.757892877863025"><ele>294.0</ele><time>2026-04-07T07:40:00.999Z</time></trkpt><trkpt lat="45.73781830858395" lon="9.758121555425898"><ele>295.0</ele><time>2026-04-07T07:40:01.999Z</time></trkpt><trkpt lat="45.73789819886826" lon="9.758399447028188"><ele>294.66666666666663</ele><time>2026-04-07T07:40:02.999Z</time></trkpt><trkpt lat="45.737969578849196" lon="9.75869602291459"><ele>294.3333333333333</ele><time>2026-04-07T07:40:03.999Z</time></trkpt><trkpt lat="45.73804075644498" lon="9.759002161719526"><ele>294.0</ele><time>2026-04-07T07:40:04.999Z</time></trkpt><trkpt lat="45.738128964922595" lon="9.759328021115827"><ele>293.5</ele><time>2026-04-07T07:40:05.999Z</time></trkpt><trkpt lat="45.738223294941484" lon="9.759651635557276"><ele>293.0</ele><time>2026-04-07T07:40:06.999Z</time></trkpt><trkpt lat="45.738368353301766" lon="9.759938424862053"><ele>292.5</ele><time>2026-04-07T07:40:07.999Z</time></trkpt><trkpt lat="45.738423292419135" lon="9.760313430396025"><ele>292.0</ele><time>2026-04-07T07:40:08.999Z</time></trkpt><trkpt lat="45.73852085548992" lon="9.760650840010358"><ele>293.5</ele><time>2026-04-07T07:40:09.999Z</time></trkpt><trkpt lat="45.73861424563562" lon="9.760982349074022"><ele>295.0</ele><time>2026-04-07T07:40:10.999Z</time></trkpt><trkpt lat="45.73870618950881" lon="9.761314486831052"><ele>295.0</ele><time>2026-04-07T07:40:11.999Z</time></trkpt><trkpt lat="45.73879268911952" lon="9.761636467865479"><ele>295.0</ele><time>2026-04-07T07:40:12.999Z</time></trkpt><trkpt lat="45.73886983487363" lon="9.761929837270714"><ele>295.3333333333333</ele><time>2026-04-07T07:40:13.999Z</time></trkpt><trkpt lat="45.73894017347567" lon="9.762198181857356"><ele>295.6666666666667</ele><time>2026-04-07T07:40:14.999Z</time></trkpt><trkpt lat="45.73901520469402" lon="9.762476438042254"><ele>296.0</ele><time>2026-04-07T07:40:15.999Z</time></trkpt><trkpt lat="45.73908560907096" lon="9.762739529012295"><ele>296.33333333333337</ele><time>2026-04-07T07:40:16.999Z</time></trkpt><trkpt lat="45.739158894699415" lon="9.763016083564462"><ele>296.6666666666667</ele><time>2026-04-07T07:40:17.999Z</time></trkpt><trkpt lat="45.73923627662625" lon="9.763297555922826"><ele>297.0</ele><time>2026-04-07T07:40:18.999Z</time></trkpt><trkpt lat="45.73931619024292" lon="9.763591574788084"><ele>297.0</ele><time>2026-04-07T07:40:19.999Z</time></trkpt><trkpt lat="45.739381180332565" lon="9.763902487548068"><ele>297.0</ele><time>2026-04-07T07:40:20.999Z</time></trkpt><trkpt lat="45.739458264764096" lon="9.764205212895709"><ele>297.6666666666667</ele><time>2026-04-07T07:40:21.999Z</time></trkpt><trkpt lat="45.73954594939231" lon="9.764488593193455"><ele>298.33333333333337</ele><time>2026-04-07T07:40:22.999Z</time></trkpt><trkpt lat="45.73961870371782" lon="9.764789807705867"><ele>299.0</ele><time>2026-04-07T07:40:23.999Z</time></trkpt><trkpt lat="45.73970129939132" lon="9.765097748970044"><ele>298.5</ele><time>2026-04-07T07:40:24.999Z</time></trkpt><trkpt lat="45.73979390619206" lon="9.765401174810592"><ele>298.0</ele><time>2026-04-07T07:40:25.999Z</time></trkpt><trkpt lat="45.739901833768" lon="9.76568846449999"><ele>298.0</ele><time>2026-04-07T07:40:26.999Z</time></trkpt><trkpt lat="45.73999349003577" lon="9.765992010276962"><ele>298.0</ele><time>2026-04-07T07:40:28Z</time></trkpt><trkpt lat="45.74009566474983" lon="9.766288083853212"><ele>299.0</ele><time>2026-04-07T07:40:29Z</time></trkpt><trkpt lat="45.740287455199415" lon="9.766504150739536"><ele>300.0</ele><time>2026-04-07T07:40:30Z</time></trkpt><trkpt lat="45.740421217081256" lon="9.766732718208063"><ele>300.0</ele><time>2026-04-07T07:40:31Z</time></trkpt><trkpt lat="45.74056013721582" lon="9.766952948995723"><ele>300.0</ele><time>2026-04-07T07:40:32Z</time></trkpt><trkpt lat="45.74070349146643" lon="9.767157707319146"><ele>300.0</ele><time>2026-04-07T07:40:33Z</time></trkpt><trkpt lat="45.740846190170366" lon="9.767340417394278"><ele>300.0</ele><time>2026-04-07T07:40:34Z</time></trkpt><trkpt lat="45.740983309725756" lon="9.767505117137508"><ele>300.0</ele><time>2026-04-07T07:40:35Z</time></trkpt><trkpt lat="45.741124541939556" lon="9.767665715497124"><ele>300.0</ele><time>2026-04-07T07:40:36Z</time></trkpt><trkpt lat="45.74128264789237" lon="9.767828782855807"><ele>300.0</ele><time>2026-04-07T07:40:37Z</time></trkpt><trkpt lat="45.74144601869146" lon="9.76798924524849"><ele>300.0</ele><time>2026-04-07T07:40:38Z</time></trkpt><trkpt lat="45.74160254868461" lon="9.768133770519555"><ele>300.0</ele><time>2026-04-07T07:40:39Z</time></trkpt><trkpt lat="45.741774338839654" lon="9.768287748120283"><ele>300.3333333333333</ele><time>2026-04-07T07:40:40Z</time></trkpt><trkpt lat="45.74195746279847" lon="9.768453162818556"><ele>300.66666666666663</ele><time>2026-04-07T07:40:41Z</time></trkpt><trkpt lat="45.74214302183201" lon="9.768617467304821"><ele>301.0</ele><time>2026-04-07T07:40:42Z</time></trkpt><trkpt lat="45.74233144816817" lon="9.76878759826757"><ele>301.0</ele><time>2026-04-07T07:40:43Z</time></trkpt><trkpt lat="45.74251717630103" lon="9.768958711044602"><ele>301.0</ele><time>2026-04-07T07:40:44Z</time></trkpt><trkpt lat="45.74269105282524" lon="9.769117591803056"><ele>301.0</ele><time>2026-04-07T07:40:45Z</time></trkpt><trkpt lat="45.74285725897733" lon="9.769268299835176"><ele>301.0</ele><time>2026-04-07T07:40:46Z</time></trkpt><trkpt lat="45.74301583665616" lon="9.769410385229701"><ele>301.0</ele><time>2026-04-07T07:40:47Z</time></trkpt><trkpt lat="45.74316095207286" lon="9.769539572895937"><ele>301.0</ele><time>2026-04-07T07:40:48Z</time></trkpt><trkpt lat="45.74331014569112" lon="9.769671747626278"><ele>301.0</ele><time>2026-04-07T07:40:49Z</time></trkpt><trkpt lat="45.74346186303852" lon="9.76981034825816"><ele>301.0</ele><time>2026-04-07T07:40:50Z</time></trkpt><trkpt lat="45.74362964048805" lon="9.769962150700401"><ele>301.0</ele><time>2026-04-07T07:40:51Z</time></trkpt><trkpt lat="45.74379674055786" lon="9.770116278198568"><ele>301.0</ele><time>2026-04-07T07:40:52Z</time></trkpt><trkpt lat="45.74396398541252" lon="9.770278219156571"><ele>301.0</ele><time>2026-04-07T07:40:53Z</time></trkpt><trkpt lat="45.74413830465182" lon="9.770442175793868"><ele>301.0</ele><time>2026-04-07T07:40:54Z</time></trkpt><trkpt lat="45.744318389284516" lon="9.77060083101053"><ele>302.3333333333333</ele><time>2026-04-07T07:40:55Z</time></trkpt><trkpt lat="45.74450013789866" lon="9.770763965425532"><ele>303.6666666666667</ele><time>2026-04-07T07:40:55.999Z</time></trkpt><trkpt lat="45.74468078725911" lon="9.770926598134011"><ele>305.0</ele><time>2026-04-07T07:40:56.999Z</time></trkpt><trkpt lat="45.744851312957756" lon="9.771082229053507"><ele>305.0</ele><time>2026-04-07T07:40:57.999Z</time></trkpt><trkpt lat="45.74501462165735" lon="9.7712268404064"><ele>305.0</ele><time>2026-04-07T07:40:58.999Z</time></trkpt><trkpt lat="45.74518094682216" lon="9.771376267211433"><ele>305.0</ele><time>2026-04-07T07:40:59.999Z</time></trkpt><trkpt lat="45.74535375105712" lon="9.771534497816196"><ele>305.33333333333337</ele><time>2026-04-07T07:41:00.999Z</time></trkpt><trkpt lat="45.74552828653207" lon="9.771692459937539"><ele>305.6666666666667</ele><time>2026-04-07T07:41:01.999Z</time></trkpt><trkpt lat="45.745715621015236" lon="9.771858936918667"><ele>306.0</ele><time>2026-04-07T07:41:02.999Z</time></trkpt><trkpt lat="45.74590997176025" lon="9.772035376430992"><ele>306.0</ele><time>2026-04-07T07:41:03.999Z</time></trkpt><trkpt lat="45.746090364169724" lon="9.772207393369259"><ele>306.0</ele><time>2026-04-07T07:41:04.999Z</time></trkpt><trkpt lat="45.74624773520939" lon="9.772369857109684"><ele>306.0</ele><time>2026-04-07T07:41:05.999Z</time></trkpt><trkpt lat="45.74639926566799" lon="9.772539354855205"><ele>305.6666666666667</ele><time>2026-04-07T07:41:06.999Z</time></trkpt><trkpt lat="45.74654338697746" lon="9.77271681663335"><ele>305.33333333333337</ele><time>2026-04-07T07:41:07.999Z</time></trkpt><trkpt lat="45.74668815906462" lon="9.772898091294566"><ele>305.0</ele><time>2026-04-07T07:41:08.999Z</time></trkpt><trkpt lat="45.746830658915336" lon="9.773084055784757"><ele>306.33333333333337</ele><time>2026-04-07T07:41:09.999Z</time></trkpt><trkpt lat="45.74696865289232" lon="9.773286201612596"><ele>307.6666666666667</ele><time>2026-04-07T07:41:10.999Z</time></trkpt><trkpt lat="45.747100778784976" lon="9.773502922391465"><ele>309.0</ele><time>2026-04-07T07:41:11.999Z</time></trkpt><trkpt lat="45.74722986020871" lon="9.773727601880548"><ele>309.3333333333333</ele><time>2026-04-07T07:41:12.999Z</time></trkpt><trkpt lat="45.747355640795796" lon="9.773957048801257"><ele>309.66666666666663</ele><time>2026-04-07T07:41:13.999Z</time></trkpt><trkpt lat="45.7474755025706" lon="9.774202294611941"><ele>310.0</ele><time>2026-04-07T07:41:14.999Z</time></trkpt><trkpt lat="45.74759278658068" lon="9.774453104530624"><ele>310.3333333333333</ele><time>2026-04-07T07:41:15.999Z</time></trkpt><trkpt lat="45.74769983554488" lon="9.774700892537568"><ele>310.6666666666667</ele><time>2026-04-07T07:41:16.999Z</time></trkpt><trkpt lat="45.74779602816488" lon="9.774929604022285"><ele>311.0</ele><time>2026-04-07T07:41:17.999Z</time></trkpt><trkpt lat="45.747883193291415" lon="9.775142714191286"><ele>311.0</ele><time>2026-04-07T07:41:18.999Z</time></trkpt><trkpt lat="45.747974425896544" lon="9.775360020228698"><ele>311.0</ele><time>2026-04-07T07:41:19.999Z</time></trkpt><trkpt lat="45.74807446782876" lon="9.775605535583875"><ele>311.0</ele><time>2026-04-07T07:41:20.999Z</time></trkpt><trkpt lat="45.74818563839081" lon="9.775877584534719"><ele>310.33333333333337</ele><time>2026-04-07T07:41:21.999Z</time></trkpt><trkpt lat="45.74830292330249" lon="9.776156398258694"><ele>309.6666666666667</ele><time>2026-04-07T07:41:22.999Z</time></trkpt><trkpt lat="45.748412148649194" lon="9.776418211216534"><ele>309.0</ele><time>2026-04-07T07:41:23.999Z</time></trkpt><trkpt lat="45.748518428121116" lon="9.776673699897605"><ele>309.0</ele><time>2026-04-07T07:41:24.999Z</time></trkpt><trkpt lat="45.74862479616508" lon="9.776922041109643"><ele>309.0</ele><time>2026-04-07T07:41:25.999Z</time></trkpt><trkpt lat="45.748732314181275" lon="9.777166804874646"><ele>309.0</ele><time>2026-04-07T07:41:26.999Z</time></trkpt><trkpt lat="45.7488487752021" lon="9.777430639907546"><ele>309.3333333333333</ele><time>2026-04-07T07:41:27.999Z</time></trkpt><trkpt lat="45.74896018634533" lon="9.777708698071768"><ele>309.66666666666663</ele><time>2026-04-07T07:41:28.999Z</time></trkpt><trkpt lat="45.74905467061024" lon="9.77796526860476"><ele>310.0</ele><time>2026-04-07T07:41:29.999Z</time></trkpt><trkpt lat="45.74915347820273" lon="9.778231898120827"><ele>310.0</ele><time>2026-04-07T07:41:30.999Z</time></trkpt><trkpt lat="45.74926318524645" lon="9.778496742302897"><ele>310.0</ele><time>2026-04-07T07:41:31.999Z</time></trkpt><trkpt lat="45.74937069540466" lon="9.778743082430408"><ele>310.0</ele><time>2026-04-07T07:41:32.999Z</time></trkpt><trkpt lat="45.74947727667587" lon="9.778994207418405"><ele>310.66666666666663</ele><time>2026-04-07T07:41:33.999Z</time></trkpt><trkpt lat="45.74957923027817" lon="9.77924470142322"><ele>311.3333333333333</ele><time>2026-04-07T07:41:34.999Z</time></trkpt><trkpt lat="45.74968267990421" lon="9.77950086675841"><ele>312.0</ele><time>2026-04-07T07:41:35.999Z</time></trkpt><trkpt lat="45.74978628605787" lon="9.779756848034294"><ele>312.0</ele><time>2026-04-07T07:41:36.999Z</time></trkpt><trkpt lat="45.74989036006328" lon="9.780007237922316"><ele>312.0</ele><time>2026-04-07T07:41:37.999Z</time></trkpt><trkpt lat="45.74999507648614" lon="9.780260306309701"><ele>312.0</ele><time>2026-04-07T07:41:38.999Z</time></trkpt><trkpt lat="45.75009668467109" lon="9.78051101326276"><ele>311.6666666666667</ele><time>2026-04-07T07:41:39.999Z</time></trkpt><trkpt lat="45.75020012718033" lon="9.780762515924826"><ele>311.33333333333337</ele><time>2026-04-07T07:41:40.999Z</time></trkpt><trkpt lat="45.75030607837512" lon="9.781013625100615"><ele>311.0</ele><time>2026-04-07T07:41:41.999Z</time></trkpt><trkpt lat="45.75040953689881" lon="9.781264135683262"><ele>311.0</ele><time>2026-04-07T07:41:42.999Z</time></trkpt><trkpt lat="45.750517069065495" lon="9.781520663345692"><ele>311.0</ele><time>2026-04-07T07:41:43.999Z</time></trkpt><trkpt lat="45.75062210798124" lon="9.78176744143504"><ele>311.0</ele><time>2026-04-07T07:41:44.999Z</time></trkpt><trkpt lat="45.750726383552625" lon="9.782019155123885"><ele>312.0</ele><time>2026-04-07T07:41:45.999Z</time></trkpt><trkpt lat="45.75082249702739" lon="9.782271139432346"><ele>313.0</ele><time>2026-04-07T07:41:46.999Z</time></trkpt><trkpt lat="45.75092705514744" lon="9.782530048613804"><ele>314.0</ele><time>2026-04-07T07:41:47.999Z</time></trkpt><trkpt lat="45.751024353741116" lon="9.782770889917188"><ele>314.33333333333337</ele><time>2026-04-07T07:41:48.999Z</time></trkpt><trkpt lat="45.7511129068754" lon="9.782987601838872"><ele>314.6666666666667</ele><time>2026-04-07T07:41:49.999Z</time></trkpt><trkpt lat="45.75119209622533" lon="9.783184139117036"><ele>315.0</ele><time>2026-04-07T07:41:50.999Z</time></trkpt><trkpt lat="45.75128412395671" lon="9.78340667412039"><ele>314.3333333333333</ele><time>2026-04-07T07:41:51.999Z</time></trkpt><trkpt lat="45.75136391490781" lon="9.783621170663377"><ele>313.66666666666663</ele><time>2026-04-07T07:41:52.999Z</time></trkpt><trkpt lat="45.751440687869966" lon="9.783839442638229"><ele>313.0</ele><time>2026-04-07T07:41:53.999Z</time></trkpt><trkpt lat="45.751509308133926" lon="9.784045904896157"><ele>313.0</ele><time>2026-04-07T07:41:54.999Z</time></trkpt><trkpt lat="45.75158387025794" lon="9.784261287513598"><ele>313.0</ele><time>2026-04-07T07:41:55.999Z</time></trkpt><trkpt lat="45.751652404569164" lon="9.784457929590065"><ele>313.0</ele><time>2026-04-07T07:41:56.999Z</time></trkpt><trkpt lat="45.75172075900773" lon="9.78466237509002"><ele>314.66666666666663</ele><time>2026-04-07T07:41:57.999Z</time></trkpt><trkpt lat="45.75179114503045" lon="9.784879011257074"><ele>316.3333333333333</ele><time>2026-04-07T07:41:58.999Z</time></trkpt><trkpt lat="45.75186083718559" lon="9.785095401660218"><ele>318.0</ele><time>2026-04-07T07:41:59.999Z</time></trkpt><trkpt lat="45.751935820926576" lon="9.785325384342357"><ele>318.6666666666667</ele><time>2026-04-07T07:42:00.999Z</time></trkpt><trkpt lat="45.75201377614342" lon="9.78557587285929"><ele>319.33333333333337</ele><time>2026-04-07T07:42:01.999Z</time></trkpt><trkpt lat="45.75210168612287" lon="9.785843536462362"><ele>320.0</ele><time>2026-04-07T07:42:02.999Z</time></trkpt><trkpt lat="45.7521949432637" lon="9.786132295995964"><ele>320.0</ele><time>2026-04-07T07:42:03.999Z</time></trkpt><trkpt lat="45.75228454873903" lon="9.786419652529268"><ele>320.0</ele><time>2026-04-07T07:42:04.999Z</time></trkpt><trkpt lat="45.75237278063497" lon="9.786711044493757"><ele>320.0</ele><time>2026-04-07T07:42:05.999Z</time></trkpt><trkpt lat="45.752467971443" lon="9.787008290191821"><ele>320.0</ele><time>2026-04-07T07:42:06.999Z</time></trkpt><trkpt lat="45.75255633861793" lon="9.787303664636934"><ele>320.0</ele><time>2026-04-07T07:42:07.999Z</time></trkpt><trkpt lat="45.75264316331528" lon="9.78761748509602"><ele>319.0</ele><time>2026-04-07T07:42:08.999Z</time></trkpt><trkpt lat="45.752738568821854" lon="9.787924183164883"><ele>318.0</ele><time>2026-04-07T07:42:09.999Z</time></trkpt><trkpt lat="45.75283934741236" lon="9.788227504031482"><ele>318.0</ele><time>2026-04-07T07:42:10.999Z</time></trkpt><trkpt lat="45.75293617202418" lon="9.788527637904417"><ele>318.0</ele><time>2026-04-07T07:42:11.999Z</time></trkpt><trkpt lat="45.753034967918836" lon="9.788842573155671"><ele>318.0</ele><time>2026-04-07T07:42:12.999Z</time></trkpt><trkpt lat="45.75313290151538" lon="9.789155554715958"><ele>318.0</ele><time>2026-04-07T07:42:13.999Z</time></trkpt><trkpt lat="45.75322845488253" lon="9.789463044279664"><ele>317.0</ele><time>2026-04-07T07:42:14.999Z</time></trkpt><trkpt lat="45.753320207403206" lon="9.789766612075685"><ele>316.0</ele><time>2026-04-07T07:42:15.999Z</time></trkpt><trkpt lat="45.753405283987306" lon="9.790078744096691"><ele>317.0</ele><time>2026-04-07T07:42:16.999Z</time></trkpt><trkpt lat="45.75347639333365" lon="9.790388387638439"><ele>318.0</ele><time>2026-04-07T07:42:17.999Z</time></trkpt><trkpt lat="45.753538546418355" lon="9.790705542171352"><ele>318.0</ele><time>2026-04-07T07:42:18.999Z</time></trkpt><trkpt lat="45.75359514140112" lon="9.791019050353558"><ele>318.0</ele><time>2026-04-07T07:42:19.999Z</time></trkpt><trkpt lat="45.75363951195163" lon="9.791332494928694"><ele>318.0</ele><time>2026-04-07T07:42:20.999Z</time></trkpt><trkpt lat="45.75367344396781" lon="9.791653207536974"><ele>319.0</ele><time>2026-04-07T07:42:21.999Z</time></trkpt><trkpt lat="45.75369792669563" lon="9.791985131503427"><ele>320.0</ele><time>2026-04-07T07:42:22.999Z</time></trkpt><trkpt lat="45.753713961088955" lon="9.792326092062032"><ele>321.5</ele><time>2026-04-07T07:42:23.999Z</time></trkpt><trkpt lat="45.75372211231688" lon="9.792680618456288"><ele>323.0</ele><time>2026-04-07T07:42:24.999Z</time></trkpt><trkpt lat="45.753716223022685" lon="9.793034179736573"><ele>323.0</ele><time>2026-04-07T07:42:25.999Z</time></trkpt><trkpt lat="45.75370147184615" lon="9.793393831682671"><ele>323.0</ele><time>2026-04-07T07:42:26.999Z</time></trkpt><trkpt lat="45.753660882801114" lon="9.793737811512969"><ele>329.5</ele><time>2026-04-07T07:42:27.999Z</time></trkpt><trkpt lat="45.75363239751644" lon="9.794082941983795"><ele>336.0</ele><time>2026-04-07T07:42:28.999Z</time></trkpt><trkpt lat="45.75360444758228" lon="9.794414292357429"><ele>344.5</ele><time>2026-04-07T07:42:29.999Z</time></trkpt><trkpt lat="45.753575889070774" lon="9.794748963775357"><ele>353.0</ele><time>2026-04-07T07:42:30.999Z</time></trkpt><trkpt lat="45.75354701600444" lon="9.795088873172064"><ele>362.6666666666667</ele><time>2026-04-07T07:42:31.999Z</time></trkpt><trkpt lat="45.75351928174359" lon="9.795419033120199"><ele>372.3333333333333</ele><time>2026-04-07T07:42:32.999Z</time></trkpt><trkpt lat="45.753496799881134" lon="9.795686666245505"><ele>382.0</ele><time>2026-04-07T07:42:34Z</time></trkpt><trkpt lat="45.75347868956736" lon="9.795902258859646"><ele>381.3333333333333</ele><time>2026-04-07T07:42:35Z</time></trkpt><trkpt lat="45.753452466175716" lon="9.796214432793494"><ele>380.6666666666667</ele><time>2026-04-07T07:42:36.076Z</time></trkpt><trkpt lat="45.75344401314431" lon="9.796461826324242"><ele>380.0</ele><time>2026-04-07T07:42:37.073Z</time></trkpt><trkpt lat="45.75337754464918" lon="9.796729388345604"><ele>380.5</ele><time>2026-04-07T07:42:38.071Z</time></trkpt><trkpt lat="45.7533345187667" lon="9.79710565157443"><ele>381.0</ele><time>2026-04-07T07:42:39.054Z</time></trkpt><trkpt lat="45.75330742162767" lon="9.797407714235959"><ele>382.0</ele><time>2026-04-07T07:42:40.042Z</time></trkpt><trkpt lat="45.75327379730388" lon="9.797674262683172"><ele>383.0</ele><time>2026-04-07T07:42:41.038Z</time></trkpt><trkpt lat="45.753238660311894" lon="9.797986033011899"><ele>384.0</ele><time>2026-04-07T07:42:42.029Z</time></trkpt><trkpt lat="45.75749301448065" lon="9.807669299735233"><ele>372.3333333333333</ele><time>2026-04-07T07:43:28.999Z</time></trkpt><trkpt lat="45.75761716336171" lon="9.807891218211488"><ele>360.66666666666663</ele><time>2026-04-07T07:43:29.999Z</time></trkpt><trkpt lat="45.757668240203515" lon="9.808117886728752"><ele>349.0</ele><time>2026-04-07T07:43:30.999Z</time></trkpt><trkpt lat="45.757796754457" lon="9.80835911474679"><ele>343.0</ele><time>2026-04-07T07:43:31.999Z</time></trkpt><trkpt lat="45.75792338937137" lon="9.808620381495041"><ele>337.0</ele><time>2026-04-07T07:43:32.999Z</time></trkpt><trkpt lat="45.75804358140438" lon="9.808926727146707"><ele>337.0</ele><time>2026-04-07T07:43:33.999Z</time></trkpt><trkpt lat="45.75815895386478" lon="9.80923954486754"><ele>337.0</ele><time>2026-04-07T07:43:34.999Z</time></trkpt><trkpt lat="45.75825961930167" lon="9.80954454573918"><ele>343.0</ele><time>2026-04-07T07:43:35.999Z</time></trkpt><trkpt lat="45.758356465089825" lon="9.809844021206997"><ele>349.0</ele><time>2026-04-07T07:43:36.999Z</time></trkpt><trkpt lat="45.75846616628566" lon="9.810124548238814"><ele>345.0</ele><time>2026-04-07T07:43:37.999Z</time></trkpt><trkpt lat="45.75858810096292" lon="9.810396348943797"><ele>341.0</ele><time>2026-04-07T07:43:38.999Z</time></trkpt><trkpt lat="45.75872161995299" lon="9.810659749611926"><ele>341.0</ele><time>2026-04-07T07:43:39.999Z</time></trkpt><trkpt lat="45.7588793052146" lon="9.810903463156448"><ele>341.0</ele><time>2026-04-07T07:43:40.999Z</time></trkpt><trkpt lat="45.75904508262213" lon="9.811129716151298"><ele>345.0</ele><time>2026-04-07T07:43:41.999Z</time></trkpt><trkpt lat="45.75922840965156" lon="9.81132811517158"><ele>349.0</ele><time>2026-04-07T07:43:42.999Z</time></trkpt><trkpt lat="45.759396835826514" lon="9.81149662965267"><ele>353.0</ele><time>2026-04-07T07:43:43.999Z</time></trkpt><trkpt lat="45.759540437014834" lon="9.811643763572137"><ele>368.0</ele><time>2026-04-07T07:43:44.999Z</time></trkpt><trkpt lat="45.76065855465184" lon="9.812333060497805"><ele>368.0</ele><time>2026-04-07T07:43:50.999Z</time></trkpt><trkpt lat="45.76084745547995" lon="9.812367722284115"><ele>368.0</ele><time>2026-04-07T07:43:52.062Z</time></trkpt><trkpt lat="45.76101046700012" lon="9.812382308531141"><ele>368.0</ele><time>2026-04-07T07:43:53.064Z</time></trkpt><trkpt lat="45.761163139265136" lon="9.812404850136096"><ele>362.5</ele><time>2026-04-07T07:43:54.062Z</time></trkpt><trkpt lat="45.76131584384565" lon="9.812429170780899"><ele>357.0</ele><time>2026-04-07T07:43:55.04Z</time></trkpt><trkpt lat="45.76216273248107" lon="9.812079087210089"><ele>348.0</ele><time>2026-04-07T07:44:00.999Z</time></trkpt><trkpt lat="45.76232850867523" lon="9.81204187642726"><ele>339.0</ele><time>2026-04-07T07:44:01.999Z</time></trkpt><trkpt lat="45.76267532468703" lon="9.811759462263346"><ele>339.0</ele><time>2026-04-07T07:44:02.999Z</time></trkpt><trkpt lat="45.76300765992732" lon="9.81149375117382"><ele>339.0</ele><time>2026-04-07T07:44:03.999Z</time></trkpt><trkpt lat="45.763211121953006" lon="9.8113346448739"><ele>339.0</ele><time>2026-04-07T07:44:05Z</time></trkpt><trkpt lat="45.76341458790156" lon="9.811254852912073"><ele>339.0</ele><time>2026-04-07T07:44:06Z</time></trkpt><trkpt lat="45.76357770589546" lon="9.811181317093547"><ele>339.0</ele><time>2026-04-07T07:44:07Z</time></trkpt><trkpt lat="45.76371106160052" lon="9.811146511597782"><ele>339.0</ele><time>2026-04-07T07:44:08Z</time></trkpt><trkpt lat="45.763841871663416" lon="9.81111628653932"><ele>339.0</ele><time>2026-04-07T07:44:09Z</time></trkpt><trkpt lat="45.76396666338621" lon="9.811094012065837"><ele>339.0</ele><time>2026-04-07T07:44:10Z</time></trkpt><trkpt lat="45.764094236778305" lon="9.811088595838216"><ele>339.0</ele><time>2026-04-07T07:44:11Z</time></trkpt><trkpt lat="45.76422858124086" lon="9.81109389266929"><ele>338.6666666666667</ele><time>2026-04-07T07:44:12Z</time></trkpt><trkpt lat="45.764372272056484" lon="9.811113291831498"><ele>338.33333333333337</ele><time>2026-04-07T07:44:13Z</time></trkpt><trkpt lat="45.76452416971191" lon="9.811135452114712"><ele>338.0</ele><time>2026-04-07T07:44:14Z</time></trkpt><trkpt lat="45.76467598182563" lon="9.811162565984183"><ele>338.0</ele><time>2026-04-07T07:44:15Z</time></trkpt><trkpt lat="45.76481569688527" lon="9.811193118484825"><ele>338.0</ele><time>2026-04-07T07:44:16Z</time></trkpt><trkpt lat="45.764948171463274" lon="9.81122163689625"><ele>338.0</ele><time>2026-04-07T07:44:17Z</time></trkpt><trkpt lat="45.765063228969105" lon="9.811243485787072"><ele>338.0</ele><time>2026-04-07T07:44:18Z</time></trkpt><trkpt lat="45.765154764646624" lon="9.811264356166866"><ele>338.0</ele><time>2026-04-07T07:44:19Z</time></trkpt><trkpt lat="45.76523419911074" lon="9.811291567516507"><ele>338.0</ele><time>2026-04-07T07:44:20Z</time></trkpt><trkpt lat="45.76532853122851" lon="9.811384883888033"><ele>338.0</ele><time>2026-04-07T07:44:22Z</time></trkpt><trkpt lat="45.76535575594653" lon="9.81154603083357"><ele>338.0</ele><time>2026-04-07T07:44:24Z</time></trkpt><trkpt lat="45.76535195287473" lon="9.811652716568254"><ele>338.0</ele><time>2026-04-07T07:44:25Z</time></trkpt><trkpt lat="45.76534044564341" lon="9.811775680060054"><ele>338.0</ele><time>2026-04-07T07:44:26Z</time></trkpt><trkpt lat="45.765320273013934" lon="9.811906153582287"><ele>338.0</ele><time>2026-04-07T07:44:27Z</time></trkpt><trkpt lat="45.76529110729559" lon="9.81201077134808"><ele>338.0</ele><time>2026-04-07T07:44:28Z</time></trkpt><trkpt lat="45.765250550231144" lon="9.812103268495298"><ele>338.0</ele><time>2026-04-07T07:44:29Z</time></trkpt><trkpt lat="45.7652063780109" lon="9.812180753825384"><ele>338.0</ele><time>2026-04-07T07:44:30Z</time></trkpt><trkpt lat="45.765180372758145" lon="9.81226441963269"><ele>338.0</ele><time>2026-04-07T07:44:31Z</time></trkpt><trkpt lat="45.76517666703844" lon="9.812354895145846"><ele>338.0</ele><time>2026-04-07T07:44:32Z</time></trkpt><trkpt lat="45.76520416991118" lon="9.812454584638708"><ele>337.83333333333337</ele><time>2026-04-07T07:44:33Z</time></trkpt><trkpt lat="45.76526365952028" lon="9.812523282392885"><ele>337.6666666666667</ele><time>2026-04-07T07:44:34Z</time></trkpt><trkpt lat="45.76534547472344" lon="9.812548110097289"><ele>337.5</ele><time>2026-04-07T07:44:35Z</time></trkpt><trkpt lat="45.76542333063228" lon="9.812535187914136"><ele>337.3333333333333</ele><time>2026-04-07T07:44:36Z</time></trkpt><trkpt lat="45.76550166286725" lon="9.812481334124442"><ele>337.16666666666663</ele><time>2026-04-07T07:44:37Z</time></trkpt><trkpt lat="45.765590058029396" lon="9.812433527586641"><ele>337.0</ele><time>2026-04-07T07:44:38Z</time></trkpt><trkpt lat="45.76568904081671" lon="9.812450063441931"><ele>337.0</ele><time>2026-04-07T07:44:39Z</time></trkpt><trkpt lat="45.76577025892128" lon="9.812552025747792"><ele>337.0</ele><time>2026-04-07T07:44:40.001Z</time></trkpt><trkpt lat="45.76587129927049" lon="9.812651762978001"><ele>337.0</ele><time>2026-04-07T07:44:41.001Z</time></trkpt><trkpt lat="45.76598983363569" lon="9.812750601250958"><ele>337.0</ele><time>2026-04-07T07:44:42.001Z</time></trkpt><trkpt lat="45.766100936212254" lon="9.812879991209266"><ele>337.66666666666663</ele><time>2026-04-07T07:44:43.001Z</time></trkpt><trkpt lat="45.76621954246402" lon="9.81300906663614"><ele>338.3333333333333</ele><time>2026-04-07T07:44:44.001Z</time></trkpt><trkpt lat="45.766354807545326" lon="9.813145768709685"><ele>339.0</ele><time>2026-04-07T07:44:45.001Z</time></trkpt><trkpt lat="45.76649118105516" lon="9.813279083207144"><ele>339.0</ele><time>2026-04-07T07:44:46.001Z</time></trkpt><trkpt lat="45.766623868677854" lon="9.813415232407326"><ele>339.0</ele><time>2026-04-07T07:44:47.001Z</time></trkpt><trkpt lat="45.76674875505948" lon="9.81354118970349"><ele>339.0</ele><time>2026-04-07T07:44:48.001Z</time></trkpt><trkpt lat="45.766879457421865" lon="9.813674949218571"><ele>340.0</ele><time>2026-04-07T07:44:49.001Z</time></trkpt><trkpt lat="45.76701152491457" lon="9.813809379686145"><ele>341.0</ele><time>2026-04-07T07:44:50.001Z</time></trkpt><trkpt lat="45.7671411629563" lon="9.813939406421985"><ele>342.0</ele><time>2026-04-07T07:44:51.001Z</time></trkpt><trkpt lat="45.76726817369688" lon="9.814066753295839"><ele>342.0</ele><time>2026-04-07T07:44:52.001Z</time></trkpt><trkpt lat="45.76739100767998" lon="9.814192008091371"><ele>342.0</ele><time>2026-04-07T07:44:53.001Z</time></trkpt><trkpt lat="45.7675033190546" lon="9.814306499878867"><ele>342.0</ele><time>2026-04-07T07:44:54.001Z</time></trkpt><trkpt lat="45.76760417965444" lon="9.814411948477135"><ele>342.0</ele><time>2026-04-07T07:44:55.001Z</time></trkpt><trkpt lat="45.76769813184459" lon="9.81450830016684"><ele>341.5</ele><time>2026-04-07T07:44:56.001Z</time></trkpt><trkpt lat="45.76779394541116" lon="9.814609422974893"><ele>341.0</ele><time>2026-04-07T07:44:57.001Z</time></trkpt><trkpt lat="45.76789597568558" lon="9.814727522033603"><ele>340.5</ele><time>2026-04-07T07:44:58.001Z</time></trkpt><trkpt lat="45.767993024956134" lon="9.81486755154891"><ele>340.0</ele><time>2026-04-07T07:44:59.001Z</time></trkpt><trkpt lat="45.76806899336839" lon="9.8150379754197"><ele>339.75</ele><time>2026-04-07T07:45:00.001Z</time></trkpt><trkpt lat="45.76812540956862" lon="9.81523366391533"><ele>339.5</ele><time>2026-04-07T07:45:01.001Z</time></trkpt><trkpt lat="45.76815757867153" lon="9.815428169533755"><ele>339.25</ele><time>2026-04-07T07:45:02.001Z</time></trkpt><trkpt lat="45.7681684880308" lon="9.815635208155328"><ele>339.0</ele><time>2026-04-07T07:45:03.001Z</time></trkpt><trkpt lat="45.76814784366979" lon="9.815844386624411"><ele>339.3333333333333</ele><time>2026-04-07T07:45:04.001Z</time></trkpt><trkpt lat="45.76810039011631" lon="9.816056690379583"><ele>339.66666666666663</ele><time>2026-04-07T07:45:05.001Z</time></trkpt><trkpt lat="45.76802624278768" lon="9.816261069056603"><ele>340.0</ele><time>2026-04-07T07:45:06.001Z</time></trkpt><trkpt lat="45.76791003594454" lon="9.81644607207684"><ele>340.0</ele><time>2026-04-07T07:45:07.001Z</time></trkpt><trkpt lat="45.767814989395916" lon="9.816641192578434"><ele>340.0</ele><time>2026-04-07T07:45:08.001Z</time></trkpt><trkpt lat="45.767713527803814" lon="9.81682360417454"><ele>340.0</ele><time>2026-04-07T07:45:09.001Z</time></trkpt><trkpt lat="45.76763249186836" lon="9.817021906112924"><ele>346.66666666666663</ele><time>2026-04-07T07:45:10Z</time></trkpt><trkpt lat="45.76757342766711" lon="9.817244550864379"><ele>353.3333333333333</ele><time>2026-04-07T07:45:11Z</time></trkpt><trkpt lat="45.767550684787295" lon="9.817463959654356"><ele>360.0</ele><time>2026-04-07T07:45:12Z</time></trkpt><trkpt lat="45.767562392647086" lon="9.81769281451464"><ele>362.3333333333333</ele><time>2026-04-07T07:45:13Z</time></trkpt><trkpt lat="45.76759975925036" lon="9.817913151696647"><ele>364.66666666666663</ele><time>2026-04-07T07:45:14Z</time></trkpt><trkpt lat="45.76765553097367" lon="9.818126088142039"><ele>367.0</ele><time>2026-04-07T07:45:15Z</time></trkpt><trkpt lat="45.76773483943134" lon="9.818334177626589"><ele>363.3333333333333</ele><time>2026-04-07T07:45:16Z</time></trkpt><trkpt lat="45.76783510434343" lon="9.818524314994175"><ele>359.6666666666667</ele><time>2026-04-07T07:45:17Z</time></trkpt><trkpt lat="45.767951318893374" lon="9.818708788796311"><ele>356.0</ele><time>2026-04-07T07:45:18Z</time></trkpt><trkpt lat="45.76806460381185" lon="9.818887964998387"><ele>356.0</ele><time>2026-04-07T07:45:19Z</time></trkpt><trkpt lat="45.768162381903686" lon="9.81904470524378"><ele>356.0</ele><time>2026-04-07T07:45:20Z</time></trkpt><trkpt lat="45.76827197619021" lon="9.819207487714165"><ele>356.0</ele><time>2026-04-07T07:45:21Z</time></trkpt><trkpt lat="45.76838670562117" lon="9.819372979996485"><ele>354.33333333333337</ele><time>2026-04-07T07:45:22Z</time></trkpt><trkpt lat="45.768499623223946" lon="9.819532677995815"><ele>352.6666666666667</ele><time>2026-04-07T07:45:23Z</time></trkpt><trkpt lat="45.76862765036986" lon="9.819680810841266"><ele>351.0</ele><time>2026-04-07T07:45:24Z</time></trkpt><trkpt lat="45.76876959616202" lon="9.819822209532115"><ele>351.0</ele><time>2026-04-07T07:45:25Z</time></trkpt><trkpt lat="45.768907358317456" lon="9.81994814895953"><ele>351.0</ele><time>2026-04-07T07:45:26Z</time></trkpt><trkpt lat="45.76903956003495" lon="9.820073574359073"><ele>351.0</ele><time>2026-04-07T07:45:27Z</time></trkpt><trkpt lat="45.76916746612832" lon="9.820235194582809"><ele>351.6666666666667</ele><time>2026-04-07T07:45:28Z</time></trkpt><trkpt lat="45.76931241541198" lon="9.820381636501079"><ele>352.33333333333337</ele><time>2026-04-07T07:45:29Z</time></trkpt><trkpt lat="45.769464792216496" lon="9.820517267818918"><ele>353.0</ele><time>2026-04-07T07:45:30Z</time></trkpt><trkpt lat="45.76960172215392" lon="9.820667443259747"><ele>353.0</ele><time>2026-04-07T07:45:31Z</time></trkpt><trkpt lat="45.76975161061463" lon="9.82082299254383"><ele>353.0</ele><time>2026-04-07T07:45:32Z</time></trkpt><trkpt lat="45.769894654217495" lon="9.820974545062114"><ele>353.0</ele><time>2026-04-07T07:45:33Z</time></trkpt><trkpt lat="45.77004087530417" lon="9.821107962580204"><ele>353.6666666666667</ele><time>2026-04-07T07:45:34Z</time></trkpt><trkpt lat="45.77020558146263" lon="9.821222094216633"><ele>354.3333333333333</ele><time>2026-04-07T07:45:35Z</time></trkpt><trkpt lat="45.77037815381771" lon="9.821313608744273"><ele>355.0</ele><time>2026-04-07T07:45:36Z</time></trkpt><trkpt lat="45.770558584965265" lon="9.821386409099626"><ele>355.0</ele><time>2026-04-07T07:45:37Z</time></trkpt><trkpt lat="45.77074025036122" lon="9.821447898350206"><ele>355.0</ele><time>2026-04-07T07:45:38Z</time></trkpt><trkpt lat="45.77093146514176" lon="9.821510275153024"><ele>355.0</ele><time>2026-04-07T07:45:39Z</time></trkpt><trkpt lat="45.77111885781289" lon="9.821570413466326"><ele>353.66666666666663</ele><time>2026-04-07T07:45:40Z</time></trkpt><trkpt lat="45.77127733056764" lon="9.821751523079401"><ele>352.3333333333333</ele><time>2026-04-07T07:45:41Z</time></trkpt><trkpt lat="45.771462609839894" lon="9.821683737520138"><ele>351.0</ele><time>2026-04-07T07:45:42Z</time></trkpt><trkpt lat="45.77162055328092" lon="9.821735013043513"><ele>351.0</ele><time>2026-04-07T07:45:43Z</time></trkpt><trkpt lat="45.771786752238114" lon="9.821786552760695"><ele>351.0</ele><time>2026-04-07T07:45:44Z</time></trkpt><trkpt lat="45.771962830052836" lon="9.82183796880576"><ele>351.0</ele><time>2026-04-07T07:45:45Z</time></trkpt><trkpt lat="45.772137949163486" lon="9.821894040075215"><ele>352.0</ele><time>2026-04-07T07:45:46Z</time></trkpt><trkpt lat="45.77231040619862" lon="9.821953175435196"><ele>353.0</ele><time>2026-04-07T07:45:47Z</time></trkpt><trkpt lat="45.772485347030766" lon="9.822010163869662"><ele>354.0</ele><time>2026-04-07T07:45:48Z</time></trkpt><trkpt lat="45.772658283466946" lon="9.822068932620166"><ele>353.0</ele><time>2026-04-07T07:45:49Z</time></trkpt><trkpt lat="45.77282599586769" lon="9.82212559830402"><ele>352.0</ele><time>2026-04-07T07:45:50Z</time></trkpt><trkpt lat="45.77298423138742" lon="9.822177307586086"><ele>351.0</ele><time>2026-04-07T07:45:51Z</time></trkpt><trkpt lat="45.77311818021614" lon="9.82221890855998"><ele>351.0</ele><time>2026-04-07T07:45:52Z</time></trkpt><trkpt lat="45.77325540832786" lon="9.822264573844377"><ele>351.0</ele><time>2026-04-07T07:45:53Z</time></trkpt><trkpt lat="45.77338237381636" lon="9.822309023584683"><ele>351.0</ele><time>2026-04-07T07:45:54Z</time></trkpt><trkpt lat="45.7735183991005" lon="9.822362240059752"><ele>351.0</ele><time>2026-04-07T07:45:55Z</time></trkpt><trkpt lat="45.773661678297636" lon="9.822420975138995"><ele>351.0</ele><time>2026-04-07T07:45:56Z</time></trkpt><trkpt lat="45.77380583295506" lon="9.82249030105126"><ele>351.0</ele><time>2026-04-07T07:45:57Z</time></trkpt><trkpt lat="45.77395813129821" lon="9.822576272412974"><ele>351.0</ele><time>2026-04-07T07:45:58Z</time></trkpt><trkpt lat="45.774112406248946" lon="9.82268403446086"><ele>352.0</ele><time>2026-04-07T07:45:59Z</time></trkpt><trkpt lat="45.77426359612367" lon="9.82279480979176"><ele>353.0</ele><time>2026-04-07T07:46:00Z</time></trkpt><trkpt lat="45.77442598042369" lon="9.822909600448126"><ele>354.0</ele><time>2026-04-07T07:46:01Z</time></trkpt><trkpt lat="45.774585036983424" lon="9.823018176367574"><ele>354.0</ele><time>2026-04-07T07:46:02Z</time></trkpt><trkpt lat="45.77472825956533" lon="9.823116453650487"><ele>354.0</ele><time>2026-04-07T07:46:03Z</time></trkpt><trkpt lat="45.77487630244847" lon="9.823216265168274"><ele>354.0</ele><time>2026-04-07T07:46:04Z</time></trkpt><trkpt lat="45.77503643260979" lon="9.823326379738635"><ele>355.3333333333333</ele><time>2026-04-07T07:46:05Z</time></trkpt><trkpt lat="45.775204198783264" lon="9.82344369420477"><ele>356.66666666666663</ele><time>2026-04-07T07:46:06Z</time></trkpt><trkpt lat="45.775367035722724" lon="9.823559196873168"><ele>358.0</ele><time>2026-04-07T07:46:07Z</time></trkpt><trkpt lat="45.77551018247234" lon="9.82366178177663"><ele>359.25</ele><time>2026-04-07T07:46:08Z</time></trkpt><trkpt lat="45.77563349106978" lon="9.823753607680471"><ele>360.5</ele><time>2026-04-07T07:46:09Z</time></trkpt><trkpt lat="45.77574435092647" lon="9.82383884113771"><ele>361.75</ele><time>2026-04-07T07:46:10Z</time></trkpt><trkpt lat="45.77584175404731" lon="9.823913261391812"><ele>363.0</ele><time>2026-04-07T07:46:11Z</time></trkpt><trkpt lat="45.77592885403759" lon="9.823970951994388"><ele>363.0</ele><time>2026-04-07T07:46:12Z</time></trkpt><trkpt lat="45.77600751443224" lon="9.824007817136886"><ele>363.0</ele><time>2026-04-07T07:46:13Z</time></trkpt><trkpt lat="45.77607598385877" lon="9.82405077761514"><ele>363.0</ele><time>2026-04-07T07:46:14Z</time></trkpt><trkpt lat="45.77613681128522" lon="9.824098538352914"><ele>363.0</ele><time>2026-04-07T07:46:15Z</time></trkpt><trkpt lat="45.77622188412384" lon="9.82416299997153"><ele>363.0</ele><time>2026-04-07T07:46:16Z</time></trkpt><trkpt lat="45.77630846933391" lon="9.824250761857277"><ele>363.0</ele><time>2026-04-07T07:46:17Z</time></trkpt><trkpt lat="45.7763945568618" lon="9.82435083167646"><ele>363.75</ele><time>2026-04-07T07:46:18Z</time></trkpt><trkpt lat="45.776475097781294" lon="9.824421656079535"><ele>364.5</ele><time>2026-04-07T07:46:19Z</time></trkpt><trkpt lat="45.7765715534172" lon="9.824489978318585"><ele>365.25</ele><time>2026-04-07T07:46:20Z</time></trkpt><trkpt lat="45.77667927456459" lon="9.824570184350964"><ele>366.0</ele><time>2026-04-07T07:46:21Z</time></trkpt><trkpt lat="45.77679825154978" lon="9.82466707456913"><ele>365.25</ele><time>2026-04-07T07:46:22Z</time></trkpt><trkpt lat="45.77691911981181" lon="9.824763112351361"><ele>364.5</ele><time>2026-04-07T07:46:23Z</time></trkpt><trkpt lat="45.777049058881566" lon="9.82486445676681"><ele>363.75</ele><time>2026-04-07T07:46:24Z</time></trkpt><trkpt lat="45.77718260871656" lon="9.82496836630952"><ele>363.0</ele><time>2026-04-07T07:46:25Z</time></trkpt><trkpt lat="45.777311533518166" lon="9.825067542863039"><ele>362.3333333333333</ele><time>2026-04-07T07:46:26Z</time></trkpt><trkpt lat="45.777443647724304" lon="9.82516162164334"><ele>361.66666666666663</ele><time>2026-04-07T07:46:27Z</time></trkpt><trkpt lat="45.777587103504295" lon="9.825254169963118"><ele>361.0</ele><time>2026-04-07T07:46:28Z</time></trkpt><trkpt lat="45.77772814435742" lon="9.825332684839813"><ele>361.0</ele><time>2026-04-07T07:46:29Z</time></trkpt><trkpt lat="45.777859944542186" lon="9.825399553363432"><ele>361.0</ele><time>2026-04-07T07:46:30Z</time></trkpt><trkpt lat="45.77798773422401" lon="9.825461956967477"><ele>361.0</ele><time>2026-04-07T07:46:31Z</time></trkpt><trkpt lat="45.77810303840541" lon="9.825511169925583"><ele>361.0</ele><time>2026-04-07T07:46:32Z</time></trkpt><trkpt lat="45.778202883776984" lon="9.825541272154274"><ele>361.0</ele><time>2026-04-07T07:46:33Z</time></trkpt><trkpt lat="45.77828826466314" lon="9.825559355181403"><ele>361.0</ele><time>2026-04-07T07:46:34Z</time></trkpt><trkpt lat="45.778369795205805" lon="9.825576218788704"><ele>361.0</ele><time>2026-04-07T07:46:35Z</time></trkpt><trkpt lat="45.77843377931278" lon="9.825600612072778"><ele>361.0</ele><time>2026-04-07T07:46:36Z</time></trkpt><trkpt lat="45.778491053097994" lon="9.825647233508723"><ele>361.0</ele><time>2026-04-07T07:46:37Z</time></trkpt><trkpt lat="45.7785402645775" lon="9.825726673255671"><ele>361.0</ele><time>2026-04-07T07:46:38Z</time></trkpt><trkpt lat="45.77858903560409" lon="9.825814038288359"><ele>361.0</ele><time>2026-04-07T07:46:39Z</time></trkpt><trkpt lat="45.77864476489323" lon="9.825907421387145"><ele>361.0</ele><time>2026-04-07T07:46:40Z</time></trkpt><trkpt lat="45.778709338332966" lon="9.82600774031328"><ele>361.0</ele><time>2026-04-07T07:46:41Z</time></trkpt><trkpt lat="45.778776811198824" lon="9.826114184017056"><ele>361.0</ele><time>2026-04-07T07:46:42Z</time></trkpt><trkpt lat="45.778845664604034" lon="9.826220949356335"><ele>361.0</ele><time>2026-04-07T07:46:43Z</time></trkpt><trkpt lat="45.778909670844" lon="9.826318005312876"><ele>361.66666666666663</ele><time>2026-04-07T07:46:44Z</time></trkpt><trkpt lat="45.77897926436092" lon="9.826387898028274"><ele>362.3333333333333</ele><time>2026-04-07T07:46:45Z</time></trkpt><trkpt lat="45.77905633272397" lon="9.826420110147891"><ele>363.0</ele><time>2026-04-07T07:46:46.001Z</time></trkpt><trkpt lat="45.77912248884963" lon="9.82639883151892"><ele>363.6666666666667</ele><time>2026-04-07T07:46:47.001Z</time></trkpt><trkpt lat="45.779187110296654" lon="9.826353315947737"><ele>364.33333333333337</ele><time>2026-04-07T07:46:48.001Z</time></trkpt><trkpt lat="45.77924655590687" lon="9.826309579994993"><ele>365.0</ele><time>2026-04-07T07:46:49.001Z</time></trkpt><trkpt lat="45.77932818308886" lon="9.82630214530238"><ele>366.0</ele><time>2026-04-07T07:46:51.001Z</time></trkpt><trkpt lat="45.779378761114984" lon="9.82623077227162"><ele>367.0</ele><time>2026-04-07T07:46:52.001Z</time></trkpt><trkpt lat="45.77945706283599" lon="9.826387870525604"><ele>368.0</ele><time>2026-04-07T07:46:53.001Z</time></trkpt><trkpt lat="45.77954102725076" lon="9.826417541888452"><ele>369.0</ele><time>2026-04-07T07:46:54.001Z</time></trkpt><trkpt lat="45.779596135899354" lon="9.826474144304147"><ele>370.0</ele><time>2026-04-07T07:46:55.001Z</time></trkpt><trkpt lat="45.779633226277106" lon="9.826567940173259"><ele>371.0</ele><time>2026-04-07T07:46:56.001Z</time></trkpt><trkpt lat="45.77967792402464" lon="9.8267015230108"><ele>371.25</ele><time>2026-04-07T07:46:57.001Z</time></trkpt><trkpt lat="45.77970195930612" lon="9.82684259781686"><ele>371.5</ele><time>2026-04-07T07:46:58.001Z</time></trkpt><trkpt lat="45.77973147258644" lon="9.827000244256622"><ele>371.75</ele><time>2026-04-07T07:46:59.001Z</time></trkpt><trkpt lat="45.779756291074136" lon="9.827169314806351"><ele>372.0</ele><time>2026-04-07T07:47:00.001Z</time></trkpt><trkpt lat="45.77978280039713" lon="9.827329833082416"><ele>372.0</ele><time>2026-04-07T07:47:01.001Z</time></trkpt><trkpt lat="45.77983173011439" lon="9.827483815138432"><ele>372.0</ele><time>2026-04-07T07:47:02.001Z</time></trkpt><trkpt lat="45.77988857355921" lon="9.827617518767875"><ele>372.0</ele><time>2026-04-07T07:47:03.001Z</time></trkpt><trkpt lat="45.77994777863959" lon="9.82774193116658"><ele>372.0</ele><time>2026-04-07T07:47:04.001Z</time></trkpt><trkpt lat="45.780019650863956" lon="9.827854457033569"><ele>372.0</ele><time>2026-04-07T07:47:05.001Z</time></trkpt><trkpt lat="45.780103837278" lon="9.82793686015851"><ele>373.0</ele><time>2026-04-07T07:47:06.001Z</time></trkpt><trkpt lat="45.780200694016536" lon="9.827998234881075"><ele>374.0</ele><time>2026-04-07T07:47:07.001Z</time></trkpt><trkpt lat="45.780307944160405" lon="9.828050968176559"><ele>375.0</ele><time>2026-04-07T07:47:08.001Z</time></trkpt><trkpt lat="45.78042705532728" lon="9.8281029086106"><ele>376.0</ele><time>2026-04-07T07:47:09Z</time></trkpt><trkpt lat="45.780551623113816" lon="9.82815258373203"><ele>376.0</ele><time>2026-04-07T07:47:10Z</time></trkpt><trkpt lat="45.78068632823741" lon="9.828208141450723"><ele>376.0</ele><time>2026-04-07T07:47:11Z</time></trkpt><trkpt lat="45.780815350128975" lon="9.828256980946941"><ele>376.0</ele><time>2026-04-07T07:47:12Z</time></trkpt><trkpt lat="45.78092004353571" lon="9.828290305061786"><ele>376.0</ele><time>2026-04-07T07:47:13Z</time></trkpt><trkpt lat="45.78101154966539" lon="9.82832091407509"><ele>378.20000000000005</ele><time>2026-04-07T07:47:14Z</time></trkpt><trkpt lat="45.7811088145618" lon="9.82834400852176"><ele>380.40000000000003</ele><time>2026-04-07T07:47:15Z</time></trkpt><trkpt lat="45.7812110985397" lon="9.828344723287193"><ele>382.6</ele><time>2026-04-07T07:47:16Z</time></trkpt><trkpt lat="45.781314571652224" lon="9.828382145490346"><ele>384.8</ele><time>2026-04-07T07:47:17Z</time></trkpt><trkpt lat="45.78142635142613" lon="9.828444333165372"><ele>387.0</ele><time>2026-04-07T07:47:18Z</time></trkpt><trkpt lat="45.781543230385005" lon="9.828527244641721"><ele>387.0</ele><time>2026-04-07T07:47:19Z</time></trkpt><trkpt lat="45.78163935053828" lon="9.828610261516175"><ele>387.0</ele><time>2026-04-07T07:47:20Z</time></trkpt><trkpt lat="45.78172553286971" lon="9.82867376369687"><ele>387.0</ele><time>2026-04-07T07:47:21Z</time></trkpt><trkpt lat="45.7817786313439" lon="9.828781566792154"><ele>387.0</ele><time>2026-04-07T07:47:22Z</time></trkpt><trkpt lat="45.78178386858335" lon="9.828915245355608"><ele>387.0</ele><time>2026-04-07T07:47:23Z</time></trkpt><trkpt lat="45.78180690771361" lon="9.829052820549878"><ele>387.0</ele><time>2026-04-07T07:47:24Z</time></trkpt><trkpt lat="45.78180221973089" lon="9.829211627998921"><ele>387.0</ele><time>2026-04-07T07:47:25Z</time></trkpt><trkpt lat="45.78180822010585" lon="9.829374911703793"><ele>387.0</ele><time>2026-04-07T07:47:26Z</time></trkpt><trkpt lat="45.78183537049069" lon="9.829521960754729"><ele>387.0</ele><time>2026-04-07T07:47:27Z</time></trkpt><trkpt lat="45.781880685858624" lon="9.829641612241598"><ele>387.0</ele><time>2026-04-07T07:47:28Z</time></trkpt><trkpt lat="45.78195155025542" lon="9.829760333869336"><ele>390.75</ele><time>2026-04-07T07:47:29Z</time></trkpt><trkpt lat="45.78201840154011" lon="9.82991266171962"><ele>394.5</ele><time>2026-04-07T07:47:30Z</time></trkpt><trkpt lat="45.782098186813556" lon="9.830092444568656"><ele>398.25</ele><time>2026-04-07T07:47:31Z</time></trkpt><trkpt lat="45.78218147487288" lon="9.830292977215358"><ele>402.0</ele><time>2026-04-07T07:47:32Z</time></trkpt><trkpt lat="45.78228575570947" lon="9.83050012960515"><ele>402.0</ele><time>2026-04-07T07:47:33Z</time></trkpt><trkpt lat="45.7823268828371" lon="9.830638131515787"><ele>402.0</ele><time>2026-04-07T07:47:34Z</time></trkpt><trkpt lat="45.78242310953736" lon="9.830835072082772"><ele>402.0</ele><time>2026-04-07T07:47:35Z</time></trkpt><trkpt lat="45.78249742708169" lon="9.831008438143444"><ele>402.0</ele><time>2026-04-07T07:47:36Z</time></trkpt><trkpt lat="45.782546598441655" lon="9.831163640652562"><ele>402.0</ele><time>2026-04-07T07:47:37Z</time></trkpt><trkpt lat="45.78257438264921" lon="9.831330399295418"><ele>402.0</ele><time>2026-04-07T07:47:38Z</time></trkpt><trkpt lat="45.782578256437816" lon="9.831523891761739"><ele>402.0</ele><time>2026-04-07T07:47:39Z</time></trkpt><trkpt lat="45.782571209126374" lon="9.831746937224024"><ele>402.0</ele><time>2026-04-07T07:47:40Z</time></trkpt><trkpt lat="45.78256157803416" lon="9.831991502921024"><ele>402.75</ele><time>2026-04-07T07:47:41Z</time></trkpt><trkpt lat="45.78255510760536" lon="9.832215102920044"><ele>403.5</ele><time>2026-04-07T07:47:42Z</time></trkpt><trkpt lat="45.782552056447116" lon="9.832404243735384"><ele>404.25</ele><time>2026-04-07T07:47:43Z</time></trkpt><trkpt lat="45.78255630903276" lon="9.832610215708575"><ele>405.0</ele><time>2026-04-07T07:47:44Z</time></trkpt><trkpt lat="45.78256654197312" lon="9.832818005603494"><ele>405.0</ele><time>2026-04-07T07:47:45Z</time></trkpt><trkpt lat="45.7825895046872" lon="9.833021506028386"><ele>405.0</ele><time>2026-04-07T07:47:46Z</time></trkpt><trkpt lat="45.782615834484666" lon="9.833190814586793"><ele>405.0</ele><time>2026-04-07T07:47:47Z</time></trkpt><trkpt lat="45.78264091754601" lon="9.833358126948978"><ele>405.0</ele><time>2026-04-07T07:47:48Z</time></trkpt><trkpt lat="45.78265527365512" lon="9.833515991750055"><ele>408.0</ele><time>2026-04-07T07:47:49Z</time></trkpt><trkpt lat="45.78264776899197" lon="9.833649655128783"><ele>411.0</ele><time>2026-04-07T07:47:50Z</time></trkpt><trkpt lat="45.782627520696046" lon="9.833792039589646"><ele>414.0</ele><time>2026-04-07T07:47:51Z</time></trkpt><trkpt lat="45.78257005655284" lon="9.833922982507337"><ele>417.0</ele><time>2026-04-07T07:47:52Z</time></trkpt><trkpt lat="45.78249969378643" lon="9.834072035443608"><ele>420.0</ele><time>2026-04-07T07:47:53Z</time></trkpt><trkpt lat="45.78242197068176" lon="9.834222182234061"><ele>421.5</ele><time>2026-04-07T07:47:54Z</time></trkpt><trkpt lat="45.7823769430437" lon="9.834392911374575"><ele>423.0</ele><time>2026-04-07T07:47:55Z</time></trkpt><trkpt lat="45.78233924061125" lon="9.83454136405623"><ele>424.5</ele><time>2026-04-07T07:47:56Z</time></trkpt><trkpt lat="45.78232398871119" lon="9.834714579333738"><ele>426.0</ele><time>2026-04-07T07:47:57Z</time></trkpt><trkpt lat="45.78234051115844" lon="9.834888650704155"><ele>426.0</ele><time>2026-04-07T07:47:58Z</time></trkpt><trkpt lat="45.78239373728534" lon="9.835027604456045"><ele>426.0</ele><time>2026-04-07T07:47:59Z</time></trkpt><trkpt lat="45.78247347607719" lon="9.835163258568597"><ele>426.0</ele><time>2026-04-07T07:48:00Z</time></trkpt><trkpt lat="45.782571811431545" lon="9.835306895782544"><ele>426.0</ele><time>2026-04-07T07:48:01Z</time></trkpt><trkpt lat="45.78266984517218" lon="9.835464033713578"><ele>425.25</ele><time>2026-04-07T07:48:02Z</time></trkpt><trkpt lat="45.7827336583013" lon="9.83560470302567"><ele>424.5</ele><time>2026-04-07T07:48:03Z</time></trkpt><trkpt lat="45.782730354638744" lon="9.83575458615121"><ele>423.75</ele><time>2026-04-07T07:48:04Z</time></trkpt><trkpt lat="45.78269504301337" lon="9.835905512820734"><ele>423.0</ele><time>2026-04-07T07:48:05Z</time></trkpt><trkpt lat="45.78264478549334" lon="9.83608209802714"><ele>423.0</ele><time>2026-04-07T07:48:06Z</time></trkpt><trkpt lat="45.78259383654964" lon="9.836290703961911"><ele>423.0</ele><time>2026-04-07T07:48:07Z</time></trkpt><trkpt lat="45.78255289656548" lon="9.83648915110958"><ele>423.0</ele><time>2026-04-07T07:48:08Z</time></trkpt><trkpt lat="45.78253096029382" lon="9.836667325509158"><ele>423.0</ele><time>2026-04-07T07:48:09Z</time></trkpt><trkpt lat="45.78253663972498" lon="9.83681869834965"><ele>425.75</ele><time>2026-04-07T07:48:10Z</time></trkpt><trkpt lat="45.78250253305686" lon="9.836930203814259"><ele>428.5</ele><time>2026-04-07T07:48:11Z</time></trkpt><trkpt lat="45.782452907693234" lon="9.837042420878214"><ele>431.25</ele><time>2026-04-07T07:48:12Z</time></trkpt><trkpt lat="45.78236872608351" lon="9.837183782944708"><ele>434.0</ele><time>2026-04-07T07:48:13Z</time></trkpt><trkpt lat="45.78227410350902" lon="9.83735331501307"><ele>434.0</ele><time>2026-04-07T07:48:14Z</time></trkpt><trkpt lat="45.7821707334563" lon="9.837538519599667"><ele>434.0</ele><time>2026-04-07T07:48:15Z</time></trkpt><trkpt lat="45.78207250836688" lon="9.837714650736599"><ele>434.0</ele><time>2026-04-07T07:48:16Z</time></trkpt><trkpt lat="45.781987376312614" lon="9.837872245543752"><ele>440.0</ele><time>2026-04-07T07:48:17Z</time></trkpt><trkpt lat="45.78193429896953" lon="9.838047871517219"><ele>446.0</ele><time>2026-04-07T07:48:18Z</time></trkpt><trkpt lat="45.78188219347953" lon="9.83822660544803"><ele>452.0</ele><time>2026-04-07T07:48:19Z</time></trkpt><trkpt lat="45.78186389318631" lon="9.838401832264887"><ele>458.0</ele><time>2026-04-07T07:48:20Z</time></trkpt><trkpt lat="45.78186728709065" lon="9.838571133101054"><ele>463.25</ele><time>2026-04-07T07:48:21Z</time></trkpt><trkpt lat="45.7818637176943" lon="9.83874418709502"><ele>468.5</ele><time>2026-04-07T07:48:22Z</time></trkpt><trkpt lat="45.7817830140746" lon="9.838904717124832"><ele>473.75</ele><time>2026-04-07T07:48:23Z</time></trkpt><trkpt lat="45.78170370992782" lon="9.839079684782225"><ele>479.0</ele><time>2026-04-07T07:48:24Z</time></trkpt><trkpt lat="45.781626093208345" lon="9.839279062785403"><ele>464.0</ele><time>2026-04-07T07:48:25Z</time></trkpt><trkpt lat="45.78158721442234" lon="9.839506463636535"><ele>449.0</ele><time>2026-04-07T07:48:26Z</time></trkpt><trkpt lat="45.78154673997223" lon="9.839729851671528"><ele>434.0</ele><time>2026-04-07T07:48:27Z</time></trkpt><trkpt lat="45.78148456384628" lon="9.839968260968822"><ele>438.0</ele><time>2026-04-07T07:48:28Z</time></trkpt><trkpt lat="45.781423827002364" lon="9.840211238600972"><ele>442.0</ele><time>2026-04-07T07:48:29Z</time></trkpt><trkpt lat="45.78136513351511" lon="9.840440668422906"><ele>446.0</ele><time>2026-04-07T07:48:30Z</time></trkpt><trkpt lat="45.78131809421895" lon="9.840652183111514"><ele>446.0</ele><time>2026-04-07T07:48:31Z</time></trkpt><trkpt lat="45.78127609523782" lon="9.8408813902001"><ele>446.0</ele><time>2026-04-07T07:48:32Z</time></trkpt><trkpt lat="45.781243186933516" lon="9.841084840062239"><ele>446.0</ele><time>2026-04-07T07:48:33Z</time></trkpt><trkpt lat="45.78121259112499" lon="9.841293076865027"><ele>449.0</ele><time>2026-04-07T07:48:34Z</time></trkpt><trkpt lat="45.781180010248384" lon="9.84148264307207"><ele>452.0</ele><time>2026-04-07T07:48:35Z</time></trkpt><trkpt lat="45.78112505057436" lon="9.841677970541939"><ele>455.0</ele><time>2026-04-07T07:48:36Z</time></trkpt><trkpt lat="45.78104518789026" lon="9.841888614968376"><ele>445.66666666666663</ele><time>2026-04-07T07:48:37Z</time></trkpt><trkpt lat="45.78095961825348" lon="9.842109065896894"><ele>436.33333333333337</ele><time>2026-04-07T07:48:38Z</time></trkpt><trkpt lat="45.78087417825466" lon="9.842329182288916"><ele>427.0</ele><time>2026-04-07T07:48:39Z</time></trkpt><trkpt lat="45.78079868379007" lon="9.842526297006716"><ele>427.75</ele><time>2026-04-07T07:48:40Z</time></trkpt><trkpt lat="45.78075339952963" lon="9.842704197733015"><ele>428.5</ele><time>2026-04-07T07:48:41Z</time></trkpt><trkpt lat="45.78070665551739" lon="9.842856282582831"><ele>429.25</ele><time>2026-04-07T07:48:42Z</time></trkpt><trkpt lat="45.78067266577036" lon="9.843014847608883"><ele>430.0</ele><time>2026-04-07T07:48:43Z</time></trkpt><trkpt lat="45.780661427578615" lon="9.843194496380349"><ele>430.0</ele><time>2026-04-07T07:48:44Z</time></trkpt><trkpt lat="45.78066774053633" lon="9.843395551346601"><ele>430.0</ele><time>2026-04-07T07:48:45Z</time></trkpt><trkpt lat="45.78067845527467" lon="9.843580072228418"><ele>430.0</ele><time>2026-04-07T07:48:46Z</time></trkpt><trkpt lat="45.780663456499994" lon="9.84374586839944"><ele>430.0</ele><time>2026-04-07T07:48:47Z</time></trkpt><trkpt lat="45.78064871541866" lon="9.843882928554008"><ele>433.0</ele><time>2026-04-07T07:48:48Z</time></trkpt><trkpt lat="45.780625670358916" lon="9.844012581228021"><ele>436.0</ele><time>2026-04-07T07:48:49Z</time></trkpt><trkpt lat="45.78054146967569" lon="9.844134608167444"><ele>439.0</ele><time>2026-04-07T07:48:50Z</time></trkpt><trkpt lat="45.780430534587396" lon="9.844248872121868"><ele>442.0</ele><time>2026-04-07T07:48:51Z</time></trkpt><trkpt lat="45.780324475768" lon="9.844335547008237"><ele>438.6</ele><time>2026-04-07T07:48:52.001Z</time></trkpt><trkpt lat="45.78022181747967" lon="9.844395524863353"><ele>435.20000000000005</ele><time>2026-04-07T07:48:53.001Z</time></trkpt><trkpt lat="45.780158836149226" lon="9.844498700274329"><ele>431.8</ele><time>2026-04-07T07:48:54.001Z</time></trkpt><trkpt lat="45.78009676912373" lon="9.844594047842127"><ele>428.4</ele><time>2026-04-07T07:48:55.001Z</time></trkpt><trkpt lat="45.78006388868763" lon="9.84472968781125"><ele>425.0</ele><time>2026-04-07T07:48:56.001Z</time></trkpt><trkpt lat="45.78007586522903" lon="9.844897044598198"><ele>425.0</ele><time>2026-04-07T07:48:57.001Z</time></trkpt><trkpt lat="45.7800981385935" lon="9.845068917989076"><ele>425.0</ele><time>2026-04-07T07:48:58.001Z</time></trkpt><trkpt lat="45.78006847695528" lon="9.845236174963446"><ele>425.0</ele><time>2026-04-07T07:48:59.001Z</time></trkpt><trkpt lat="45.780007167587115" lon="9.845415185932827"><ele>425.0</ele><time>2026-04-07T07:49:00.001Z</time></trkpt><trkpt lat="45.779915630519056" lon="9.845568788228622"><ele>429.66666666666663</ele><time>2026-04-07T07:49:01.001Z</time></trkpt><trkpt lat="45.779782195521115" lon="9.845731896295028"><ele>434.33333333333337</ele><time>2026-04-07T07:49:02.001Z</time></trkpt><trkpt lat="45.7796637349942" lon="9.845899181273507"><ele>439.0</ele><time>2026-04-07T07:49:03.001Z</time></trkpt><trkpt lat="45.77955378510462" lon="9.84604022884179"><ele>434.6666666666667</ele><time>2026-04-07T07:49:04.001Z</time></trkpt><trkpt lat="45.77946586726487" lon="9.846205853991128"><ele>430.33333333333337</ele><time>2026-04-07T07:49:05.001Z</time></trkpt><trkpt lat="45.77940041509311" lon="9.846412124147719"><ele>426.0</ele><time>2026-04-07T07:49:06Z</time></trkpt><trkpt lat="45.77933993697114" lon="9.846651110940996"><ele>430.66666666666663</ele><time>2026-04-07T07:49:07Z</time></trkpt><trkpt lat="45.779263788020266" lon="9.846886953108053"><ele>435.3333333333333</ele><time>2026-04-07T07:49:08Z</time></trkpt><trkpt lat="45.77916309201248" lon="9.847147693252568"><ele>440.0</ele><time>2026-04-07T07:49:09Z</time></trkpt><trkpt lat="45.77905728137303" lon="9.847396117168028"><ele>440.0</ele><time>2026-04-07T07:49:10Z</time></trkpt><trkpt lat="45.778955140399276" lon="9.847619195215598"><ele>440.0</ele><time>2026-04-07T07:49:11Z</time></trkpt><trkpt lat="45.77885932319622" lon="9.847819673296266"><ele>440.0</ele><time>2026-04-07T07:49:12Z</time></trkpt><trkpt lat="45.77877713884845" lon="9.847998819883223"><ele>443.0</ele><time>2026-04-07T07:49:13Z</time></trkpt><trkpt lat="45.77871507257697" lon="9.84814606938736"><ele>446.0</ele><time>2026-04-07T07:49:14Z</time></trkpt><trkpt lat="45.77867073569168" lon="9.848287968581852"><ele>449.0</ele><time>2026-04-07T07:49:15Z</time></trkpt><trkpt lat="45.77865382089853" lon="9.848435497796586"><ele>452.0</ele><time>2026-04-07T07:49:16Z</time></trkpt><trkpt lat="45.77866197874904" lon="9.848608414831265"><ele>456.0</ele><time>2026-04-07T07:49:17Z</time></trkpt><trkpt lat="45.77864841965732" lon="9.848811023043869"><ele>460.0</ele><time>2026-04-07T07:49:18Z</time></trkpt><trkpt lat="45.778602595703944" lon="9.849035670909839"><ele>464.0</ele><time>2026-04-07T07:49:19Z</time></trkpt><trkpt lat="45.778537348352174" lon="9.849278559383434"><ele>454.66666666666663</ele><time>2026-04-07T07:49:20Z</time></trkpt><trkpt lat="45.778468749010564" lon="9.849530431371825"><ele>445.33333333333337</ele><time>2026-04-07T07:49:21Z</time></trkpt><trkpt lat="45.77839679592009" lon="9.849774603199586"><ele>436.0</ele><time>2026-04-07T07:49:22Z</time></trkpt><trkpt lat="45.77835944366463" lon="9.849995788430977"><ele>437.33333333333337</ele><time>2026-04-07T07:49:23Z</time></trkpt><trkpt lat="45.77831415289814" lon="9.850209487117768"><ele>438.66666666666663</ele><time>2026-04-07T07:49:24Z</time></trkpt><trkpt lat="45.77827713792237" lon="9.850437797169755"><ele>440.0</ele><time>2026-04-07T07:49:25Z</time></trkpt><trkpt lat="45.77820146019168" lon="9.850654325793226"><ele>440.0</ele><time>2026-04-07T07:49:26Z</time></trkpt><trkpt lat="45.77812562453017" lon="9.8508677908128"><ele>440.0</ele><time>2026-04-07T07:49:27Z</time></trkpt><trkpt lat="45.77805619927392" lon="9.851094828584865"><ele>440.0</ele><time>2026-04-07T07:49:28Z</time></trkpt><trkpt lat="45.77801032016814" lon="9.851318395991296"><ele>441.66666666666663</ele><time>2026-04-07T07:49:29Z</time></trkpt><trkpt lat="45.77795161639623" lon="9.851535521852375"><ele>443.33333333333337</ele><time>2026-04-07T07:49:30Z</time></trkpt><trkpt lat="45.77787103626722" lon="9.85174640069239"><ele>445.0</ele><time>2026-04-07T07:49:31Z</time></trkpt><trkpt lat="45.77781716372599" lon="9.851981265696681"><ele>444.0</ele><time>2026-04-07T07:49:32Z</time></trkpt><trkpt lat="45.77774583202297" lon="9.852194773483342"><ele>443.0</ele><time>2026-04-07T07:49:33Z</time></trkpt><trkpt lat="45.77767697174064" lon="9.852408553043073"><ele>442.0</ele><time>2026-04-07T07:49:34Z</time></trkpt><trkpt lat="45.77759147548433" lon="9.852613821687036"><ele>441.6666666666667</ele><time>2026-04-07T07:49:35Z</time></trkpt><trkpt lat="45.77751691438572" lon="9.85282532552366"><ele>441.33333333333337</ele><time>2026-04-07T07:49:36Z</time></trkpt><trkpt lat="45.77744900312169" lon="9.853050206947769"><ele>441.0</ele><time>2026-04-07T07:49:37Z</time></trkpt><trkpt lat="45.777366910602574" lon="9.853268956188709"><ele>442.66666666666663</ele><time>2026-04-07T07:49:38Z</time></trkpt><trkpt lat="45.77728775529791" lon="9.853501979620027"><ele>444.3333333333333</ele><time>2026-04-07T07:49:39Z</time></trkpt><trkpt lat="45.77719237113147" lon="9.853725604767826"><ele>446.0</ele><time>2026-04-07T07:49:40Z</time></trkpt><trkpt lat="45.77713209243061" lon="9.853943719244835"><ele>446.0</ele><time>2026-04-07T07:49:41Z</time></trkpt><trkpt lat="45.77706546001723" lon="9.85412667416295"><ele>446.0</ele><time>2026-04-07T07:49:42Z</time></trkpt><trkpt lat="45.77700157224183" lon="9.854305636861493"><ele>446.0</ele><time>2026-04-07T07:49:43Z</time></trkpt><trkpt lat="45.77694593364627" lon="9.854498030655792"><ele>446.0</ele><time>2026-04-07T07:49:44Z</time></trkpt><trkpt lat="45.77690546754298" lon="9.854690364311603"><ele>445.25</ele><time>2026-04-07T07:49:45Z</time></trkpt><trkpt lat="45.776867212645065" lon="9.854878462742665"><ele>444.5</ele><time>2026-04-07T07:49:46Z</time></trkpt><trkpt lat="45.77678979992726" lon="9.855033769375186"><ele>443.75</ele><time>2026-04-07T07:49:47Z</time></trkpt><trkpt lat="45.77669858210768" lon="9.855201574562795"><ele>443.0</ele><time>2026-04-07T07:49:48Z</time></trkpt><trkpt lat="45.77659955329966" lon="9.855395298725597"><ele>443.0</ele><time>2026-04-07T07:49:49Z</time></trkpt><trkpt lat="45.7765151202208" lon="9.855618206365548"><ele>443.0</ele><time>2026-04-07T07:49:50Z</time></trkpt><trkpt lat="45.77642440520891" lon="9.855820837416967"><ele>443.0</ele><time>2026-04-07T07:49:51Z</time></trkpt><trkpt lat="45.77634426764268" lon="9.856001007791718"><ele>445.25</ele><time>2026-04-07T07:49:52Z</time></trkpt><trkpt lat="45.776255663901345" lon="9.856159395471524"><ele>447.5</ele><time>2026-04-07T07:49:53Z</time></trkpt><trkpt lat="45.776199943233735" lon="9.856337599753417"><ele>449.75</ele><time>2026-04-07T07:49:54Z</time></trkpt><trkpt lat="45.77614758812716" lon="9.856484963260995"><ele>452.0</ele><time>2026-04-07T07:49:55Z</time></trkpt><trkpt lat="45.77611336819784" lon="9.856651755915573"><ele>455.0</ele><time>2026-04-07T07:49:56Z</time></trkpt><trkpt lat="45.77610563995411" lon="9.856857182641397"><ele>458.0</ele><time>2026-04-07T07:49:57Z</time></trkpt><trkpt lat="45.77610497922372" lon="9.85707711108612"><ele>461.0</ele><time>2026-04-07T07:49:58Z</time></trkpt><trkpt lat="45.77608227449313" lon="9.857296806804605"><ele>461.0</ele><time>2026-04-07T07:49:59Z</time></trkpt><trkpt lat="45.77607661903366" lon="9.857489394494204"><ele>461.0</ele><time>2026-04-07T07:50:00Z</time></trkpt><trkpt lat="45.77607143391122" lon="9.857665965507335"><ele>461.0</ele><time>2026-04-07T07:50:01Z</time></trkpt><trkpt lat="45.77606642699397" lon="9.857836468236545"><ele>461.0</ele><time>2026-04-07T07:50:02Z</time></trkpt><trkpt lat="45.77607700397365" lon="9.858013156049863"><ele>460.5</ele><time>2026-04-07T07:50:03Z</time></trkpt><trkpt lat="45.77608050216817" lon="9.858189974088743"><ele>460.0</ele><time>2026-04-07T07:50:04Z</time></trkpt><trkpt lat="45.776075269063654" lon="9.858377363561141"><ele>459.5</ele><time>2026-04-07T07:50:05Z</time></trkpt><trkpt lat="45.77611658024661" lon="9.858562515610664"><ele>459.0</ele><time>2026-04-07T07:50:06Z</time></trkpt><trkpt lat="45.77613893948516" lon="9.858744962412626"><ele>458.25</ele><time>2026-04-07T07:50:07Z</time></trkpt><trkpt lat="45.776174944904874" lon="9.858929916679145"><ele>457.5</ele><time>2026-04-07T07:50:08Z</time></trkpt><trkpt lat="45.77623516057571" lon="9.859114498653943"><ele>456.75</ele><time>2026-04-07T07:50:09Z</time></trkpt><trkpt lat="45.77631972841476" lon="9.859295248213746"><ele>456.0</ele><time>2026-04-07T07:50:10Z</time></trkpt><trkpt lat="45.776400728337464" lon="9.859500503442618"><ele>455.33333333333337</ele><time>2026-04-07T07:50:11Z</time></trkpt><trkpt lat="45.77647491317733" lon="9.859710364654946"><ele>454.6666666666667</ele><time>2026-04-07T07:50:12Z</time></trkpt><trkpt lat="45.776493144683165" lon="9.859951912216879"><ele>454.0</ele><time>2026-04-07T07:50:13Z</time></trkpt><trkpt lat="45.77650960257555" lon="9.860184319895819"><ele>454.0</ele><time>2026-04-07T07:50:14Z</time></trkpt><trkpt lat="45.776526802110055" lon="9.860428316082668"><ele>454.0</ele><time>2026-04-07T07:50:15Z</time></trkpt><trkpt lat="45.77656913146939" lon="9.860652520848308"><ele>454.0</ele><time>2026-04-07T07:50:16Z</time></trkpt><trkpt lat="45.77661769307529" lon="9.860852777684402"><ele>455.5</ele><time>2026-04-07T07:50:17Z</time></trkpt><trkpt lat="45.77667751851897" lon="9.861025260717632"><ele>457.0</ele><time>2026-04-07T07:50:18Z</time></trkpt><trkpt lat="45.77673027372044" lon="9.861183098924593"><ele>458.5</ele><time>2026-04-07T07:50:19Z</time></trkpt><trkpt lat="45.77673701441045" lon="9.861371103974108"><ele>460.0</ele><time>2026-04-07T07:50:20Z</time></trkpt><trkpt lat="45.776723885082816" lon="9.861578871901648"><ele>461.6666666666667</ele><time>2026-04-07T07:50:21Z</time></trkpt><trkpt lat="45.77671042549869" lon="9.861818328564631"><ele>463.33333333333337</ele><time>2026-04-07T07:50:22Z</time></trkpt><trkpt lat="45.7767212593853" lon="9.862056214827932"><ele>465.0</ele><time>2026-04-07T07:50:23Z</time></trkpt><trkpt lat="45.77674096856345" lon="9.862258182379135"><ele>465.0</ele><time>2026-04-07T07:50:24Z</time></trkpt><trkpt lat="45.77680174381034" lon="9.862426251156041"><ele>465.0</ele><time>2026-04-07T07:50:25Z</time></trkpt><trkpt lat="45.776891593697826" lon="9.862595173578333"><ele>465.0</ele><time>2026-04-07T07:50:26Z</time></trkpt><trkpt lat="45.77698035605566" lon="9.862763372666876"><ele>465.0</ele><time>2026-04-07T07:50:27Z</time></trkpt><trkpt lat="45.77703244531995" lon="9.86292972218384"><ele>464.25</ele><time>2026-04-07T07:50:28Z</time></trkpt><trkpt lat="45.77702304555397" lon="9.863093647486131"><ele>463.5</ele><time>2026-04-07T07:50:29Z</time></trkpt><trkpt lat="45.77699199362863" lon="9.863241585862152"><ele>462.75</ele><time>2026-04-07T07:50:30Z</time></trkpt><trkpt lat="45.776981694727645" lon="9.863425292630389"><ele>462.0</ele><time>2026-04-07T07:50:31Z</time></trkpt><trkpt lat="45.77696804217218" lon="9.863635491456105"><ele>462.0</ele><time>2026-04-07T07:50:32Z</time></trkpt><trkpt lat="45.77697690540251" lon="9.863876027559098"><ele>462.0</ele><time>2026-04-07T07:50:33Z</time></trkpt><trkpt lat="45.776981602112016" lon="9.864126068125994"><ele>462.0</ele><time>2026-04-07T07:50:34Z</time></trkpt><trkpt lat="45.77698778822412" lon="9.864384803990944"><ele>463.33333333333337</ele><time>2026-04-07T07:50:35Z</time></trkpt><trkpt lat="45.7769649762241" lon="9.864629132936846"><ele>464.6666666666667</ele><time>2026-04-07T07:50:36Z</time></trkpt><trkpt lat="45.77695230203211" lon="9.86486296925817"><ele>466.0</ele><time>2026-04-07T07:50:37Z</time></trkpt><trkpt lat="45.77695163134516" lon="9.865058596766632"><ele>467.0</ele><time>2026-04-07T07:50:38Z</time></trkpt><trkpt lat="45.7769020879874" lon="9.86522787592042"><ele>468.0</ele><time>2026-04-07T07:50:39Z</time></trkpt><trkpt lat="45.77684891103911" lon="9.865389451998508"><ele>469.0</ele><time>2026-04-07T07:50:40Z</time></trkpt><trkpt lat="45.776822830577046" lon="9.865558236249964"><ele>470.0</ele><time>2026-04-07T07:50:41Z</time></trkpt><trkpt lat="45.776798573459125" lon="9.865734637285623"><ele>471.75</ele><time>2026-04-07T07:50:42Z</time></trkpt><trkpt lat="45.776779796062335" lon="9.865904721721423"><ele>473.5</ele><time>2026-04-07T07:50:43Z</time></trkpt><trkpt lat="45.77673323947094" lon="9.86606300839234"><ele>475.25</ele><time>2026-04-07T07:50:44Z</time></trkpt><trkpt lat="45.77664207473339" lon="9.866206157128032"><ele>477.0</ele><time>2026-04-07T07:50:45Z</time></trkpt><trkpt lat="45.77657986236908" lon="9.866368819493443"><ele>477.0</ele><time>2026-04-07T07:50:46Z</time></trkpt><trkpt lat="45.7765477165838" lon="9.866553072662835"><ele>477.0</ele><time>2026-04-07T07:50:47Z</time></trkpt><trkpt lat="45.776501475818904" lon="9.86670564989545"><ele>477.0</ele><time>2026-04-07T07:50:48Z</time></trkpt><trkpt lat="45.77639238929891" lon="9.866793815459879"><ele>477.0</ele><time>2026-04-07T07:50:49Z</time></trkpt><trkpt lat="45.776280549661635" lon="9.866947796067985"><ele>475.33333333333337</ele><time>2026-04-07T07:50:49.999Z</time></trkpt><trkpt lat="45.776163887576836" lon="9.867120703453304"><ele>473.6666666666667</ele><time>2026-04-07T07:50:50.999Z</time></trkpt><trkpt lat="45.776061560671195" lon="9.867304368437257"><ele>472.0</ele><time>2026-04-07T07:50:51.999Z</time></trkpt><trkpt lat="45.77597517342905" lon="9.867463735109698"><ele>474.75</ele><time>2026-04-07T07:50:52.999Z</time></trkpt><trkpt lat="45.775905318480866" lon="9.867626673043521"><ele>477.5</ele><time>2026-04-07T07:50:53.999Z</time></trkpt><trkpt lat="45.77582766482136" lon="9.867802018787742"><ele>480.25</ele><time>2026-04-07T07:50:54.999Z</time></trkpt><trkpt lat="45.77577277403277" lon="9.86799782049711"><ele>483.0</ele><time>2026-04-07T07:50:55.999Z</time></trkpt><trkpt lat="45.775793263221416" lon="9.86822489565689"><ele>484.0</ele><time>2026-04-07T07:50:56.999Z</time></trkpt><trkpt lat="45.775833126674634" lon="9.868447298834775"><ele>485.0</ele><time>2026-04-07T07:50:58Z</time></trkpt><trkpt lat="45.77589566541499" lon="9.868671800250254"><ele>486.0</ele><time>2026-04-07T07:50:59Z</time></trkpt><trkpt lat="45.77595817680922" lon="9.86889475147027"><ele>486.0</ele><time>2026-04-07T07:51:00Z</time></trkpt><trkpt lat="45.775983222883504" lon="9.869143329216058"><ele>486.0</ele><time>2026-04-07T07:51:01Z</time></trkpt><trkpt lat="45.7759951558627" lon="9.869397654894938"><ele>486.0</ele><time>2026-04-07T07:51:02Z</time></trkpt><trkpt lat="45.77599443299933" lon="9.869658120019526"><ele>487.0</ele><time>2026-04-07T07:51:03Z</time></trkpt><trkpt lat="45.7759888315176" lon="9.869926872114902"><ele>488.0</ele><time>2026-04-07T07:51:04Z</time></trkpt><trkpt lat="45.775976100177026" lon="9.870193774340539"><ele>489.0</ele><time>2026-04-07T07:51:05Z</time></trkpt><trkpt lat="45.77596098082455" lon="9.870470431304536"><ele>489.33333333333337</ele><time>2026-04-07T07:51:06Z</time></trkpt><trkpt lat="45.77594307689868" lon="9.87074748430328"><ele>489.6666666666667</ele><time>2026-04-07T07:51:07Z</time></trkpt><trkpt lat="45.77594396214638" lon="9.8710005414107"><ele>490.0</ele><time>2026-04-07T07:51:08Z</time></trkpt><trkpt lat="45.77593228559142" lon="9.871247019189484"><ele>490.33333333333337</ele><time>2026-04-07T07:51:09Z</time></trkpt><trkpt lat="45.77595146591485" lon="9.871505639109673"><ele>490.66666666666663</ele><time>2026-04-07T07:51:10Z</time></trkpt><trkpt lat="45.77600260486742" lon="9.871777607079583"><ele>491.0</ele><time>2026-04-07T07:51:11Z</time></trkpt><trkpt lat="45.77603578120365" lon="9.872052158721976"><ele>491.66666666666663</ele><time>2026-04-07T07:51:12Z</time></trkpt><trkpt lat="45.776075172096256" lon="9.872308071935736"><ele>492.33333333333337</ele><time>2026-04-07T07:51:13Z</time></trkpt><trkpt lat="45.77611015532596" lon="9.87253280278439"><ele>493.0</ele><time>2026-04-07T07:51:14Z</time></trkpt><trkpt lat="45.776161728192" lon="9.872768800462568"><ele>493.0</ele><time>2026-04-07T07:51:15Z</time></trkpt><trkpt lat="45.776193050481076" lon="9.873005976858447"><ele>493.0</ele><time>2026-04-07T07:51:16Z</time></trkpt><trkpt lat="45.77622421387117" lon="9.87323112336885"><ele>493.0</ele><time>2026-04-07T07:51:17Z</time></trkpt><trkpt lat="45.77624731350642" lon="9.873448145187286"><ele>493.33333333333337</ele><time>2026-04-07T07:51:18Z</time></trkpt><trkpt lat="45.77622878102319" lon="9.873696852059997"><ele>493.66666666666663</ele><time>2026-04-07T07:51:19Z</time></trkpt><trkpt lat="45.776227328994004" lon="9.873956404964103"><ele>494.0</ele><time>2026-04-07T07:51:20Z</time></trkpt><trkpt lat="45.77622733056954" lon="9.874203598726465"><ele>495.3333333333333</ele><time>2026-04-07T07:51:21Z</time></trkpt><trkpt lat="45.77623738634312" lon="9.874404784613336"><ele>496.66666666666663</ele><time>2026-04-07T07:51:22Z</time></trkpt><trkpt lat="45.776249806755686" lon="9.874624096899327"><ele>498.0</ele><time>2026-04-07T07:51:23Z</time></trkpt><trkpt lat="45.7762333555269" lon="9.87486263737284"><ele>498.33333333333337</ele><time>2026-04-07T07:51:24Z</time></trkpt><trkpt lat="45.776207109942376" lon="9.875130484267725"><ele>498.6666666666667</ele><time>2026-04-07T07:51:25Z</time></trkpt><trkpt lat="45.77616960350091" lon="9.875416349613547"><ele>499.0</ele><time>2026-04-07T07:51:26Z</time></trkpt><trkpt lat="45.77614949267176" lon="9.875679240994907"><ele>499.0</ele><time>2026-04-07T07:51:27Z</time></trkpt><trkpt lat="45.77612287571949" lon="9.875909124005068"><ele>499.0</ele><time>2026-04-07T07:51:28Z</time></trkpt><trkpt lat="45.77608973470004" lon="9.876148831365507"><ele>499.0</ele><time>2026-04-07T07:51:29Z</time></trkpt><trkpt lat="45.77612625414192" lon="9.87640878784557"><ele>500.0</ele><time>2026-04-07T07:51:30Z</time></trkpt><trkpt lat="45.77616852972776" lon="9.87665335728837"><ele>501.0</ele><time>2026-04-07T07:51:31Z</time></trkpt><trkpt lat="45.77621281637564" lon="9.876873815558598"><ele>502.0</ele><time>2026-04-07T07:51:32Z</time></trkpt><trkpt lat="45.776243781034964" lon="9.877065344141938"><ele>503.6666666666667</ele><time>2026-04-07T07:51:33Z</time></trkpt><trkpt lat="45.77623138950002" lon="9.877275521418436"><ele>505.33333333333337</ele><time>2026-04-07T07:51:34Z</time></trkpt><trkpt lat="45.77620546191631" lon="9.877509238059089"><ele>507.0</ele><time>2026-04-07T07:51:35Z</time></trkpt><trkpt lat="45.776175219822456" lon="9.877772709032763"><ele>509.33333333333337</ele><time>2026-04-07T07:51:36Z</time></trkpt><trkpt lat="45.77614162305229" lon="9.878050015650361"><ele>511.6666666666667</ele><time>2026-04-07T07:51:37Z</time></trkpt><trkpt lat="45.77610888843762" lon="9.8783246126519"><ele>514.0</ele><time>2026-04-07T07:51:38Z</time></trkpt><trkpt lat="45.776075624537555" lon="9.878612684706146"><ele>514.3333333333334</ele><time>2026-04-07T07:51:39Z</time></trkpt><trkpt lat="45.776044621205" lon="9.878897825563778"><ele>514.6666666666666</ele><time>2026-04-07T07:51:40Z</time></trkpt><trkpt lat="45.77602255699541" lon="9.879154991508708"><ele>515.0</ele><time>2026-04-07T07:51:41Z</time></trkpt><trkpt lat="45.7760060584052" lon="9.879411972515172"><ele>515.0</ele><time>2026-04-07T07:51:42Z</time></trkpt><trkpt lat="45.77599444194263" lon="9.879659394363642"><ele>515.0</ele><time>2026-04-07T07:51:43Z</time></trkpt><trkpt lat="45.775979013741996" lon="9.87992561591022"><ele>515.0</ele><time>2026-04-07T07:51:44Z</time></trkpt><trkpt lat="45.77595689808258" lon="9.880179272227776"><ele>516.3333333333333</ele><time>2026-04-07T07:51:45Z</time></trkpt><trkpt lat="45.77591165531764" lon="9.880431880705824"><ele>517.6666666666666</ele><time>2026-04-07T07:51:46Z</time></trkpt><trkpt lat="45.775845879841015" lon="9.880695042594269"><ele>519.0</ele><time>2026-04-07T07:51:47Z</time></trkpt><trkpt lat="45.775791899111184" lon="9.88096562841849"><ele>520.3333333333334</ele><time>2026-04-07T07:51:48Z</time></trkpt><trkpt lat="45.77571711978137" lon="9.881237688801525"><ele>521.6666666666667</ele><time>2026-04-07T07:51:49Z</time></trkpt><trkpt lat="45.775646352185596" lon="9.881517039244653"><ele>523.0</ele><time>2026-04-07T07:51:50Z</time></trkpt><trkpt lat="45.77558134344897" lon="9.881770853633974"><ele>524.6666666666667</ele><time>2026-04-07T07:51:51Z</time></trkpt><trkpt lat="45.77552390006719" lon="9.882016503070783"><ele>526.3333333333334</ele><time>2026-04-07T07:51:52Z</time></trkpt><trkpt lat="45.77549532254614" lon="9.882274153352462"><ele>528.0</ele><time>2026-04-07T07:51:53Z</time></trkpt><trkpt lat="45.77550784063741" lon="9.882536301587695"><ele>529.6666666666666</ele><time>2026-04-07T07:51:54Z</time></trkpt><trkpt lat="45.77554604186002" lon="9.88279985082958"><ele>531.3333333333333</ele><time>2026-04-07T07:51:55Z</time></trkpt><trkpt lat="45.77558665454687" lon="9.883076896800269"><ele>533.0</ele><time>2026-04-07T07:51:56Z</time></trkpt><trkpt lat="45.77560480116854" lon="9.883361761538394"><ele>534.3333333333333</ele><time>2026-04-07T07:51:57Z</time></trkpt><trkpt lat="45.775662722303245" lon="9.883629910901186"><ele>535.6666666666666</ele><time>2026-04-07T07:51:58Z</time></trkpt><trkpt lat="45.77572353895839" lon="9.883895762639016"><ele>537.0</ele><time>2026-04-07T07:51:59Z</time></trkpt><trkpt lat="45.775795170223006" lon="9.884152484580818"><ele>537.0</ele><time>2026-04-07T07:52:00Z</time></trkpt><trkpt lat="45.7758629587307" lon="9.884400629541389"><ele>537.0</ele><time>2026-04-07T07:52:01Z</time></trkpt><trkpt lat="45.77588982615981" lon="9.884641874933397"><ele>537.0</ele><time>2026-04-07T07:52:02Z</time></trkpt><trkpt lat="45.775901945651164" lon="9.884893247653462"><ele>538.6666666666666</ele><time>2026-04-07T07:52:03Z</time></trkpt><trkpt lat="45.7758887872434" lon="9.885170262116691"><ele>540.3333333333333</ele><time>2026-04-07T07:52:04Z</time></trkpt><trkpt lat="45.775870028463494" lon="9.885461650601576"><ele>542.0</ele><time>2026-04-07T07:52:05Z</time></trkpt><trkpt lat="45.77584578944407" lon="9.885748819983593"><ele>545.0</ele><time>2026-04-07T07:52:06Z</time></trkpt><trkpt lat="45.77581636413707" lon="9.88604426681855"><ele>548.0</ele><time>2026-04-07T07:52:07Z</time></trkpt><trkpt lat="45.77573718934537" lon="9.886336545649797"><ele>551.0</ele><time>2026-04-07T07:52:08Z</time></trkpt><trkpt lat="45.77568668115297" lon="9.886648629196406"><ele>557.0</ele><time>2026-04-07T07:52:09Z</time></trkpt><trkpt lat="45.77561909616846" lon="9.886964031060083"><ele>563.0</ele><time>2026-04-07T07:52:10Z</time></trkpt><trkpt lat="45.77555177963692" lon="9.887283349991383"><ele>563.0</ele><time>2026-04-07T07:52:11Z</time></trkpt><trkpt lat="45.77547516854302" lon="9.887564000122547"><ele>563.0</ele><time>2026-04-07T07:52:12Z</time></trkpt><trkpt lat="45.77543305114546" lon="9.887825239437733"><ele>563.0</ele><time>2026-04-07T07:52:13Z</time></trkpt><trkpt lat="45.77538269755344" lon="9.888058425839109"><ele>566.0</ele><time>2026-04-07T07:52:14Z</time></trkpt><trkpt lat="45.775330832141925" lon="9.88828296342444"><ele>569.0</ele><time>2026-04-07T07:52:15Z</time></trkpt><trkpt lat="45.775289224353386" lon="9.888503370166147"><ele>572.0</ele><time>2026-04-07T07:52:16Z</time></trkpt><trkpt lat="45.775269110378034" lon="9.888724219677258"><ele>573.3333333333333</ele><time>2026-04-07T07:52:17Z</time></trkpt><trkpt lat="45.7752761831569" lon="9.888974745712474"><ele>574.6666666666666</ele><time>2026-04-07T07:52:18Z</time></trkpt><trkpt lat="45.775305997688584" lon="9.88922928501579"><ele>576.0</ele><time>2026-04-07T07:52:19Z</time></trkpt><trkpt lat="45.775324997469006" lon="9.889498955592083"><ele>579.3333333333334</ele><time>2026-04-07T07:52:20Z</time></trkpt><trkpt lat="45.77533515684973" lon="9.889727479973633"><ele>582.6666666666667</ele><time>2026-04-07T07:52:21Z</time></trkpt><trkpt lat="45.775313937379146" lon="9.889964676765363"><ele>586.0</ele><time>2026-04-07T07:52:22Z</time></trkpt><trkpt lat="45.77525868481673" lon="9.890201827548827"><ele>587.3333333333334</ele><time>2026-04-07T07:52:23Z</time></trkpt><trkpt lat="45.77519353755969" lon="9.890451055322428"><ele>588.6666666666666</ele><time>2026-04-07T07:52:24Z</time></trkpt><trkpt lat="45.77513993254948" lon="9.890719023558528"><ele>590.0</ele><time>2026-04-07T07:52:25Z</time></trkpt><trkpt lat="45.77507447627661" lon="9.89096911811018"><ele>590.0</ele><time>2026-04-07T07:52:26Z</time></trkpt><trkpt lat="45.774984034359846" lon="9.891186184826456"><ele>590.0</ele><time>2026-04-07T07:52:27Z</time></trkpt><trkpt lat="45.774890487888094" lon="9.891435657669124"><ele>590.0</ele><time>2026-04-07T07:52:28Z</time></trkpt><trkpt lat="45.77479091119777" lon="9.891666229655678"><ele>597.3333333333333</ele><time>2026-04-07T07:52:29Z</time></trkpt><trkpt lat="45.77467016411691" lon="9.891876690628596"><ele>604.6666666666666</ele><time>2026-04-07T07:52:30Z</time></trkpt><trkpt lat="45.77453373536546" lon="9.892086784786159"><ele>612.0</ele><time>2026-04-07T07:52:31Z</time></trkpt><trkpt lat="45.774393372750104" lon="9.892300725882428"><ele>606.6666666666666</ele><time>2026-04-07T07:52:32Z</time></trkpt><trkpt lat="45.77425076627442" lon="9.892518087225762"><ele>601.3333333333333</ele><time>2026-04-07T07:52:33Z</time></trkpt><trkpt lat="45.77410996378972" lon="9.892733759890563"><ele>596.0</ele><time>2026-04-07T07:52:34Z</time></trkpt><trkpt lat="45.77396281486342" lon="9.892959706424966"><ele>596.0</ele><time>2026-04-07T07:52:35Z</time></trkpt><trkpt lat="45.77381364507893" lon="9.893188755742894"><ele>596.0</ele><time>2026-04-07T07:52:36Z</time></trkpt><trkpt lat="45.773674432492086" lon="9.893435489394516"><ele>596.0</ele><time>2026-04-07T07:52:37Z</time></trkpt><trkpt lat="45.77352038558377" lon="9.893660456196574"><ele>595.3333333333333</ele><time>2026-04-07T07:52:38Z</time></trkpt><trkpt lat="45.773364653651534" lon="9.893886308147707"><ele>594.6666666666666</ele><time>2026-04-07T07:52:39Z</time></trkpt><trkpt lat="45.77319175777242" lon="9.894081901541252"><ele>594.0</ele><time>2026-04-07T07:52:40Z</time></trkpt><trkpt lat="45.77301862831871" lon="9.894276149245478"><ele>593.6666666666666</ele><time>2026-04-07T07:52:41Z</time></trkpt><trkpt lat="45.77285049360403" lon="9.894484312363515"><ele>593.3333333333333</ele><time>2026-04-07T07:52:42Z</time></trkpt><trkpt lat="45.77267486526004" lon="9.894684979211801"><ele>593.0</ele><time>2026-04-07T07:52:43Z</time></trkpt><trkpt lat="45.77250201031165" lon="9.894876066678972"><ele>593.0</ele><time>2026-04-07T07:52:44Z</time></trkpt><trkpt lat="45.772327746060206" lon="9.895070167169955"><ele>593.0</ele><time>2026-04-07T07:52:45Z</time></trkpt><trkpt lat="45.77215758919331" lon="9.895258463621994"><ele>593.0</ele><time>2026-04-07T07:52:46Z</time></trkpt><trkpt lat="45.771987335196854" lon="9.895446259981172"><ele>594.0</ele><time>2026-04-07T07:52:47Z</time></trkpt><trkpt lat="45.77182537847218" lon="9.895618811814415"><ele>595.0</ele><time>2026-04-07T07:52:48Z</time></trkpt><trkpt lat="45.7716673654741" lon="9.895758040830685"><ele>596.0</ele><time>2026-04-07T07:52:49Z</time></trkpt><trkpt lat="45.77151164438903" lon="9.895880185878225"><ele>608.3333333333333</ele><time>2026-04-07T07:52:50Z</time></trkpt><trkpt lat="45.771349998804894" lon="9.896003236554732"><ele>620.6666666666666</ele><time>2026-04-07T07:52:51Z</time></trkpt><trkpt lat="45.7712009574611" lon="9.896130368661884"><ele>633.0</ele><time>2026-04-07T07:52:52Z</time></trkpt><trkpt lat="45.77104474167101" lon="9.896236821725212"><ele>625.25</ele><time>2026-04-07T07:52:52.999Z</time></trkpt><trkpt lat="45.770898220483794" lon="9.896369067058403"><ele>617.5</ele><time>2026-04-07T07:52:53.999Z</time></trkpt><trkpt lat="45.77076728235638" lon="9.896496820890267"><ele>609.75</ele><time>2026-04-07T07:52:55.999Z</time></trkpt><trkpt lat="45.77069788983602" lon="9.896617695592886"><ele>602.0</ele><time>2026-04-07T07:52:56.999Z</time></trkpt><trkpt lat="45.77064676015629" lon="9.89673198880163"><ele>608.25</ele><time>2026-04-07T07:52:57.999Z</time></trkpt><trkpt lat="45.77060427750102" lon="9.896842135715744"><ele>614.5</ele><time>2026-04-07T07:52:58.999Z</time></trkpt><trkpt lat="45.77053684710068" lon="9.896986273901323"><ele>620.75</ele><time>2026-04-07T07:52:59.999Z</time></trkpt><trkpt lat="45.770456752645146" lon="9.897157533663782"><ele>627.0</ele><time>2026-04-07T07:53:00.999Z</time></trkpt><trkpt lat="45.7703775130035" lon="9.897347971434552"><ele>627.0</ele><time>2026-04-07T07:53:01.999Z</time></trkpt><trkpt lat="45.77031414097396" lon="9.897557476564133"><ele>627.0</ele><time>2026-04-07T07:53:03Z</time></trkpt><trkpt lat="45.770244218641594" lon="9.897788020256028"><ele>627.0</ele><time>2026-04-07T07:53:04Z</time></trkpt><trkpt lat="45.77016225587309" lon="9.898026002976815"><ele>621.6666666666666</ele><time>2026-04-07T07:53:05Z</time></trkpt><trkpt lat="45.770088711950535" lon="9.89826160292289"><ele>616.3333333333333</ele><time>2026-04-07T07:53:06Z</time></trkpt><trkpt lat="45.77003730453845" lon="9.89851948694632"><ele>611.0</ele><time>2026-04-07T07:53:07Z</time></trkpt><trkpt lat="45.769982536446435" lon="9.898781996702084"><ele>611.0</ele><time>2026-04-07T07:53:08Z</time></trkpt><trkpt lat="45.769932212647205" lon="9.899018960929022"><ele>611.0</ele><time>2026-04-07T07:53:09Z</time></trkpt><trkpt lat="45.76989407312662" lon="9.899215303992497"><ele>611.0</ele><time>2026-04-07T07:53:10Z</time></trkpt><trkpt lat="45.76984383835882" lon="9.899402444077857"><ele>612.3333333333333</ele><time>2026-04-07T07:53:11Z</time></trkpt><trkpt lat="45.76988089613797" lon="9.899641724039258"><ele>613.6666666666666</ele><time>2026-04-07T07:53:12Z</time></trkpt><trkpt lat="45.76992861614145" lon="9.89989466424813"><ele>615.0</ele><time>2026-04-07T07:53:13Z</time></trkpt><trkpt lat="45.76997606990244" lon="9.900166578494385"><ele>615.3333333333334</ele><time>2026-04-07T07:53:14Z</time></trkpt><trkpt lat="45.770022354007025" lon="9.900451172403203"><ele>615.6666666666667</ele><time>2026-04-07T07:53:15Z</time></trkpt><trkpt lat="45.77007042408878" lon="9.900745324875404"><ele>616.0</ele><time>2026-04-07T07:53:16Z</time></trkpt><trkpt lat="45.77011880675094" lon="9.901062856646261"><ele>617.6666666666667</ele><time>2026-04-07T07:53:17Z</time></trkpt><trkpt lat="45.77015837705864" lon="9.90132386123747"><ele>619.3333333333334</ele><time>2026-04-07T07:53:18Z</time></trkpt><trkpt lat="45.77019282957484" lon="9.90157790711555"><ele>621.0</ele><time>2026-04-07T07:53:19Z</time></trkpt><trkpt lat="45.77022797896685" lon="9.901831577622596"><ele>628.0</ele><time>2026-04-07T07:53:20Z</time></trkpt><trkpt lat="45.77027856992572" lon="9.902074047453533"><ele>635.0</ele><time>2026-04-07T07:53:21Z</time></trkpt><trkpt lat="45.77035315596593" lon="9.902306708405707"><ele>642.0</ele><time>2026-04-07T07:53:22Z</time></trkpt><trkpt lat="45.77045197022656" lon="9.902541581223218"><ele>639.0</ele><time>2026-04-07T07:53:23Z</time></trkpt><trkpt lat="45.770552299038755" lon="9.902780436389538"><ele>636.0</ele><time>2026-04-07T07:53:24Z</time></trkpt><trkpt lat="45.77064814763021" lon="9.903028810560139"><ele>633.0</ele><time>2026-04-07T07:53:25Z</time></trkpt><trkpt lat="45.770746163879835" lon="9.903286204950918"><ele>633.0</ele><time>2026-04-07T07:53:26Z</time></trkpt><trkpt lat="45.77084386706805" lon="9.90354252406979"><ele>633.0</ele><time>2026-04-07T07:53:27Z</time></trkpt><trkpt lat="45.770937420431935" lon="9.903789487084579"><ele>633.0</ele><time>2026-04-07T07:53:28Z</time></trkpt><trkpt lat="45.771035609840915" lon="9.904047380236799"><ele>637.3333333333334</ele><time>2026-04-07T07:53:29Z</time></trkpt><trkpt lat="45.77114136018244" lon="9.904305652976303"><ele>641.6666666666667</ele><time>2026-04-07T07:53:30Z</time></trkpt><trkpt lat="45.77125434887723" lon="9.904553332846726"><ele>646.0</ele><time>2026-04-07T07:53:31Z</time></trkpt><trkpt lat="45.77138685993484" lon="9.904776820322613"><ele>646.0</ele><time>2026-04-07T07:53:32Z</time></trkpt><trkpt lat="45.77153680159022" lon="9.904973079402767"><ele>646.0</ele><time>2026-04-07T07:53:33Z</time></trkpt><trkpt lat="45.771671574459134" lon="9.905146672610245"><ele>646.0</ele><time>2026-04-07T07:53:34Z</time></trkpt><trkpt lat="45.77179512454558" lon="9.905336767333516"><ele>650.6666666666667</ele><time>2026-04-07T07:53:35Z</time></trkpt><trkpt lat="45.771895994897896" lon="9.905548332266228"><ele>655.3333333333334</ele><time>2026-04-07T07:53:36Z</time></trkpt><trkpt lat="45.77197587021694" lon="9.905804717409405"><ele>660.0</ele><time>2026-04-07T07:53:37Z</time></trkpt><trkpt lat="45.7720419011476" lon="9.906082330684896"><ele>660.0</ele><time>2026-04-07T07:53:38Z</time></trkpt><trkpt lat="45.772094591825685" lon="9.906370484291832"><ele>660.0</ele><time>2026-04-07T07:53:39Z</time></trkpt><trkpt lat="45.77215161495497" lon="9.906642411728924"><ele>660.0</ele><time>2026-04-07T07:53:40Z</time></trkpt><trkpt lat="45.77220555549872" lon="9.906888834561862"><ele>660.25</ele><time>2026-04-07T07:53:41Z</time></trkpt><trkpt lat="45.77225189343596" lon="9.907103232082212"><ele>660.5</ele><time>2026-04-07T07:53:42Z</time></trkpt><trkpt lat="45.77229370865411" lon="9.907286001623305"><ele>660.75</ele><time>2026-04-07T07:53:43Z</time></trkpt><trkpt lat="45.77233586168871" lon="9.907465191206935"><ele>661.0</ele><time>2026-04-07T07:53:44Z</time></trkpt><trkpt lat="45.77241507440966" lon="9.907652516199194"><ele>661.0</ele><time>2026-04-07T07:53:45Z</time></trkpt><trkpt lat="45.77253150942483" lon="9.9078437342304"><ele>661.0</ele><time>2026-04-07T07:53:46Z</time></trkpt><trkpt lat="45.7726601660999" lon="9.90803696025205"><ele>661.0</ele><time>2026-04-07T07:53:47Z</time></trkpt><trkpt lat="45.77275970599946" lon="9.90820050922968"><ele>665.75</ele><time>2026-04-07T07:53:48Z</time></trkpt><trkpt lat="45.772841752589876" lon="9.908369666222091"><ele>670.5</ele><time>2026-04-07T07:53:49Z</time></trkpt><trkpt lat="45.772911654456" lon="9.9085139437816"><ele>675.25</ele><time>2026-04-07T07:53:50Z</time></trkpt><trkpt lat="45.77297676131721" lon="9.908643999179008"><ele>680.0</ele><time>2026-04-07T07:53:51Z</time></trkpt><trkpt lat="45.773035838909834" lon="9.908761701095452"><ele>680.0</ele><time>2026-04-07T07:53:52Z</time></trkpt><trkpt lat="45.77309271015831" lon="9.908848222566286"><ele>680.0</ele><time>2026-04-07T07:53:53Z</time></trkpt><trkpt lat="45.77312105763701" lon="9.908938653601918"><ele>680.0</ele><time>2026-04-07T07:53:54Z</time></trkpt><trkpt lat="45.773099492931614" lon="9.909032485929622"><ele>680.0</ele><time>2026-04-07T07:53:55Z</time></trkpt><trkpt lat="45.773043620988496" lon="9.909114609134487"><ele>680.0</ele><time>2026-04-07T07:53:56Z</time></trkpt><trkpt lat="45.772961336243725" lon="9.90913408659515"><ele>680.0</ele><time>2026-04-07T07:53:57Z</time></trkpt><trkpt lat="45.77286969000575" lon="9.909090670061246"><ele>680.0</ele><time>2026-04-07T07:53:58Z</time></trkpt><trkpt lat="45.77279906499748" lon="9.908989679846274"><ele>680.0</ele><time>2026-04-07T07:53:59Z</time></trkpt><trkpt lat="45.772738552798366" lon="9.908856985995778"><ele>680.0</ele><time>2026-04-07T07:54:00Z</time></trkpt><trkpt lat="45.77266726583493" lon="9.908732161533335"><ele>680.0</ele><time>2026-04-07T07:54:01Z</time></trkpt><trkpt lat="45.77256697166638" lon="9.908598710590681"><ele>679.3333333333333</ele><time>2026-04-07T07:54:02Z</time></trkpt><trkpt lat="45.77244729977318" lon="9.908469808792523"><ele>678.6666666666666</ele><time>2026-04-07T07:54:03Z</time></trkpt><trkpt lat="45.77231486656229" lon="9.908324760237008"><ele>678.0</ele><time>2026-04-07T07:54:04Z</time></trkpt><trkpt lat="45.77219056042095" lon="9.90819634684382"><ele>675.0</ele><time>2026-04-07T07:54:05Z</time></trkpt><trkpt lat="45.77206800030045" lon="9.908102828936386"><ele>672.0</ele><time>2026-04-07T07:54:06Z</time></trkpt><trkpt lat="45.77194426337291" lon="9.908087978910267"><ele>669.0</ele><time>2026-04-07T07:54:07Z</time></trkpt><trkpt lat="45.77182191981689" lon="9.90812673236628"><ele>666.0</ele><time>2026-04-07T07:54:08Z</time></trkpt><trkpt lat="45.77168450145799" lon="9.908191379647981"><ele>666.0</ele><time>2026-04-07T07:54:09Z</time></trkpt><trkpt lat="45.77153797437466" lon="9.90824591961442"><ele>666.0</ele><time>2026-04-07T07:54:10Z</time></trkpt><trkpt lat="45.77141131122406" lon="9.908321829488854"><ele>666.0</ele><time>2026-04-07T07:54:11Z</time></trkpt><trkpt lat="45.77131741049277" lon="9.908411281366725"><ele>666.0</ele><time>2026-04-07T07:54:12Z</time></trkpt><trkpt lat="45.77127315551663" lon="9.90848886580842"><ele>666.6666666666666</ele><time>2026-04-07T07:54:13Z</time></trkpt><trkpt lat="45.7712457146218" lon="9.908581584184487"><ele>667.3333333333334</ele><time>2026-04-07T07:54:14Z</time></trkpt><trkpt lat="45.77120922363263" lon="9.90868468443059"><ele>668.0</ele><time>2026-04-07T07:54:15Z</time></trkpt><trkpt lat="45.77114979059437" lon="9.908788422295212"><ele>668.6666666666667</ele><time>2026-04-07T07:54:16Z</time></trkpt><trkpt lat="45.771072599457064" lon="9.90886910225336"><ele>669.3333333333334</ele><time>2026-04-07T07:54:17Z</time></trkpt><trkpt lat="45.770986930303806" lon="9.908927821038302"><ele>670.0</ele><time>2026-04-07T07:54:18Z</time></trkpt><trkpt lat="45.77088487554276" lon="9.908948668019306"><ele>666.2</ele><time>2026-04-07T07:54:19Z</time></trkpt><trkpt lat="45.770778721492455" lon="9.908912319401717"><ele>662.4</ele><time>2026-04-07T07:54:20Z</time></trkpt><trkpt lat="45.77068113336465" lon="9.90882784128861"><ele>658.5999999999999</ele><time>2026-04-07T07:54:21Z</time></trkpt><trkpt lat="45.770602399807046" lon="9.908713315786658"><ele>654.8</ele><time>2026-04-07T07:54:22Z</time></trkpt><trkpt lat="45.77053996003015" lon="9.908580131613643"><ele>651.0</ele><time>2026-04-07T07:54:23Z</time></trkpt><trkpt lat="45.7705108004295" lon="9.90846182357827"><ele>651.0</ele><time>2026-04-07T07:54:24Z</time></trkpt><trkpt lat="45.77048730774461" lon="9.908362802131268"><ele>651.0</ele><time>2026-04-07T07:54:25Z</time></trkpt><trkpt lat="45.770388219727245" lon="9.908287747256212"><ele>651.0</ele><time>2026-04-07T07:54:27Z</time></trkpt><trkpt lat="45.77032313910846" lon="9.908322869240822"><ele>651.0</ele><time>2026-04-07T07:54:28Z</time></trkpt><trkpt lat="45.77027603015047" lon="9.908404877837802"><ele>651.0</ele><time>2026-04-07T07:54:29Z</time></trkpt><trkpt lat="45.77027207663159" lon="9.908520339728428"><ele>651.0</ele><time>2026-04-07T07:54:30Z</time></trkpt><trkpt lat="45.77032024922676" lon="9.908626111154122"><ele>651.0</ele><time>2026-04-07T07:54:31Z</time></trkpt><trkpt lat="45.77040533264387" lon="9.908714819621112"><ele>651.0</ele><time>2026-04-07T07:54:32Z</time></trkpt><trkpt lat="45.770502932346616" lon="9.908827528104373"><ele>651.0</ele><time>2026-04-07T07:54:33Z</time></trkpt><trkpt lat="45.770591557212676" lon="9.908987120586877"><ele>651.0</ele><time>2026-04-07T07:54:34Z</time></trkpt><trkpt lat="45.77067661289477" lon="9.909166959189678"><ele>645.3333333333334</ele><time>2026-04-07T07:54:35Z</time></trkpt><trkpt lat="45.770768586792066" lon="9.909362115194902"><ele>639.6666666666667</ele><time>2026-04-07T07:54:36Z</time></trkpt><trkpt lat="45.7708641269262" lon="9.90956571904924"><ele>634.0</ele><time>2026-04-07T07:54:37Z</time></trkpt><trkpt lat="45.7709624887846" lon="9.909780799153197"><ele>642.0</ele><time>2026-04-07T07:54:38Z</time></trkpt><trkpt lat="45.77106017986624" lon="9.910015944681602"><ele>650.0</ele><time>2026-04-07T07:54:39Z</time></trkpt><trkpt lat="45.77115418905349" lon="9.91024402570101"><ele>658.0</ele><time>2026-04-07T07:54:40Z</time></trkpt><trkpt lat="45.77123819240704" lon="9.910443870276842"><ele>658.0</ele><time>2026-04-07T07:54:41Z</time></trkpt><trkpt lat="45.77131998357133" lon="9.910641643825269"><ele>658.0</ele><time>2026-04-07T07:54:42Z</time></trkpt><trkpt lat="45.771392897663326" lon="9.91081646351399"><ele>658.0</ele><time>2026-04-07T07:54:43Z</time></trkpt><trkpt lat="45.77146228308913" lon="9.91099684839588"><ele>658.0</ele><time>2026-04-07T07:54:44Z</time></trkpt><trkpt lat="45.771508314152925" lon="9.911191029942776"><ele>654.0</ele><time>2026-04-07T07:54:45Z</time></trkpt><trkpt lat="45.77154203366983" lon="9.91141805924825"><ele>650.0</ele><time>2026-04-07T07:54:46Z</time></trkpt><trkpt lat="45.771563794571165" lon="9.911643187285959"><ele>646.0</ele><time>2026-04-07T07:54:47Z</time></trkpt><trkpt lat="45.77158753687245" lon="9.91184555343847"><ele>642.75</ele><time>2026-04-07T07:54:48Z</time></trkpt><trkpt lat="45.771612856768385" lon="9.91203965804542"><ele>639.5</ele><time>2026-04-07T07:54:49Z</time></trkpt><trkpt lat="45.77164006396254" lon="9.912214335661963"><ele>636.25</ele><time>2026-04-07T07:54:50Z</time></trkpt><trkpt lat="45.77168024653812" lon="9.912387954718655"><ele>633.0</ele><time>2026-04-07T07:54:51Z</time></trkpt><trkpt lat="45.77173160978953" lon="9.912564265772927"><ele>635.0</ele><time>2026-04-07T07:54:52Z</time></trkpt><trkpt lat="45.771787407390626" lon="9.912745447388604"><ele>637.0</ele><time>2026-04-07T07:54:52.999Z</time></trkpt><trkpt lat="45.77183908713193" lon="9.91292724568636"><ele>639.0</ele><time>2026-04-07T07:54:53.999Z</time></trkpt><trkpt lat="45.77188590943546" lon="9.913098850693425"><ele>641.0</ele><time>2026-04-07T07:54:54.999Z</time></trkpt><trkpt lat="45.77193127566869" lon="9.913265155228654"><ele>638.5999999999999</ele><time>2026-04-07T07:54:55.999Z</time></trkpt><trkpt lat="45.77198047294209" lon="9.913421018738033"><ele>636.1999999999999</ele><time>2026-04-07T07:54:56.999Z</time></trkpt><trkpt lat="45.7720369850804" lon="9.913566960649698"><ele>633.8</ele><time>2026-04-07T07:54:57.999Z</time></trkpt><trkpt lat="45.77209407928007" lon="9.91368495268908"><ele>631.4</ele><time>2026-04-07T07:54:58.999Z</time></trkpt><trkpt lat="45.77215152660688" lon="9.913778581382394"><ele>629.0</ele><time>2026-04-07T07:54:59.999Z</time></trkpt><trkpt lat="45.77221050286408" lon="9.913860573260258"><ele>629.0</ele><time>2026-04-07T07:55:00.999Z</time></trkpt><trkpt lat="45.772241879566636" lon="9.91394877604287"><ele>629.0</ele><time>2026-04-07T07:55:01.999Z</time></trkpt><trkpt lat="45.77225200959123" lon="9.914109583833525"><ele>629.0</ele><time>2026-04-07T07:55:03.999Z</time></trkpt><trkpt lat="45.77219700679711" lon="9.914169372839615"><ele>629.0</ele><time>2026-04-07T07:55:04.999Z</time></trkpt><trkpt lat="45.772122179817906" lon="9.914170534262555"><ele>629.0</ele><time>2026-04-07T07:55:05.999Z</time></trkpt><trkpt lat="45.77203969664114" lon="9.91412816195609"><ele>629.0</ele><time>2026-04-07T07:55:06.999Z</time></trkpt><trkpt lat="45.77193733569987" lon="9.914061897974886"><ele>626.0</ele><time>2026-04-07T07:55:07.999Z</time></trkpt><trkpt lat="45.77182414670127" lon="9.913993811796798"><ele>623.0</ele><time>2026-04-07T07:55:09Z</time></trkpt><trkpt lat="45.77171793730375" lon="9.913931999747051"><ele>620.0</ele><time>2026-04-07T07:55:10Z</time></trkpt><trkpt lat="45.77162667821081" lon="9.913857166434955"><ele>617.0</ele><time>2026-04-07T07:55:11Z</time></trkpt><trkpt lat="45.7715695273138" lon="9.91374700203953"><ele>614.0</ele><time>2026-04-07T07:55:12Z</time></trkpt><trkpt lat="45.77149890267038" lon="9.913697399275334"><ele>614.0</ele><time>2026-04-07T07:55:13Z</time></trkpt><trkpt lat="45.77143290271145" lon="9.9136704491045"><ele>614.0</ele><time>2026-04-07T07:55:14Z</time></trkpt><trkpt lat="45.77136034926495" lon="9.913701053831927"><ele>614.0</ele><time>2026-04-07T07:55:15Z</time></trkpt><trkpt lat="45.77130028115471" lon="9.913794066617214"><ele>614.0</ele><time>2026-04-07T07:55:16Z</time></trkpt><trkpt lat="45.77128221678259" lon="9.91391617664293"><ele>614.0</ele><time>2026-04-07T07:55:17Z</time></trkpt><trkpt lat="45.77131521263892" lon="9.914047238326443"><ele>614.0</ele><time>2026-04-07T07:55:18Z</time></trkpt><trkpt lat="45.77138660629128" lon="9.914173312153522"><ele>611.5</ele><time>2026-04-07T07:55:19Z</time></trkpt><trkpt lat="45.771471535360156" lon="9.914317674232665"><ele>609.0</ele><time>2026-04-07T07:55:20Z</time></trkpt><trkpt lat="45.771552495092564" lon="9.914478747465807"><ele>606.5</ele><time>2026-04-07T07:55:21Z</time></trkpt><trkpt lat="45.77163533200311" lon="9.914631618772097"><ele>604.0</ele><time>2026-04-07T07:55:22Z</time></trkpt><trkpt lat="45.77173796447406" lon="9.914763010875896"><ele>605.75</ele><time>2026-04-07T07:55:23Z</time></trkpt><trkpt lat="45.77186275373248" lon="9.914874402277016"><ele>607.5</ele><time>2026-04-07T07:55:24Z</time></trkpt><trkpt lat="45.77198650674747" lon="9.914966834518678"><ele>609.25</ele><time>2026-04-07T07:55:25Z</time></trkpt><trkpt lat="45.77210004444499" lon="9.915064908086343"><ele>611.0</ele><time>2026-04-07T07:55:26Z</time></trkpt><trkpt lat="45.77220285012223" lon="9.915181214666548"><ele>607.5</ele><time>2026-04-07T07:55:27Z</time></trkpt><trkpt lat="45.772279353700064" lon="9.915335346762788"><ele>604.0</ele><time>2026-04-07T07:55:28Z</time></trkpt><trkpt lat="45.772383923941454" lon="9.915485514411147"><ele>600.5</ele><time>2026-04-07T07:55:29Z</time></trkpt><trkpt lat="45.772475598454776" lon="9.915662611873817"><ele>597.0</ele><time>2026-04-07T07:55:30Z</time></trkpt><trkpt lat="45.77256079769676" lon="9.915834985881775"><ele>594.25</ele><time>2026-04-07T07:55:31Z</time></trkpt><trkpt lat="45.772646418754086" lon="9.91600141287168"><ele>591.5</ele><time>2026-04-07T07:55:32Z</time></trkpt><trkpt lat="45.77273208847244" lon="9.916167674021127"><ele>588.75</ele><time>2026-04-07T07:55:33Z</time></trkpt><trkpt lat="45.77281295503596" lon="9.916340683295466"><ele>586.0</ele><time>2026-04-07T07:55:34Z</time></trkpt><trkpt lat="45.7728823635809" lon="9.916534503725044"><ele>591.6666666666667</ele><time>2026-04-07T07:55:35Z</time></trkpt><trkpt lat="45.772911380455604" lon="9.916767826694045"><ele>597.3333333333334</ele><time>2026-04-07T07:55:36Z</time></trkpt><trkpt lat="45.77292806577397" lon="9.917005953084695"><ele>603.0</ele><time>2026-04-07T07:55:37Z</time></trkpt><trkpt lat="45.7729437034066" lon="9.917240821404334"><ele>603.0</ele><time>2026-04-07T07:55:38Z</time></trkpt><trkpt lat="45.77295631870858" lon="9.917443868897754"><ele>603.0</ele><time>2026-04-07T07:55:39Z</time></trkpt><trkpt lat="45.77297939821875" lon="9.917639477045585"><ele>603.0</ele><time>2026-04-07T07:55:40Z</time></trkpt><trkpt lat="45.772960832332025" lon="9.917843577627435"><ele>603.0</ele><time>2026-04-07T07:55:41Z</time></trkpt><trkpt lat="45.772870500230724" lon="9.918021840593811"><ele>603.0</ele><time>2026-04-07T07:55:42Z</time></trkpt><trkpt lat="45.772778479071704" lon="9.91821364579678"><ele>603.0</ele><time>2026-04-07T07:55:43Z</time></trkpt><trkpt lat="45.772694913590456" lon="9.918402759880172"><ele>603.0</ele><time>2026-04-07T07:55:44Z</time></trkpt><trkpt lat="45.772617470184564" lon="9.918560384399361"><ele>599.75</ele><time>2026-04-07T07:55:45Z</time></trkpt><trkpt lat="45.77255297065018" lon="9.918704580718076"><ele>596.5</ele><time>2026-04-07T07:55:46Z</time></trkpt><trkpt lat="45.772516373957195" lon="9.918848965216602"><ele>593.25</ele><time>2026-04-07T07:55:47Z</time></trkpt><trkpt lat="45.772511265067216" lon="9.919023128485808"><ele>590.0</ele><time>2026-04-07T07:55:48Z</time></trkpt><trkpt lat="45.77254988394163" lon="9.919220792428291"><ele>587.6666666666666</ele><time>2026-04-07T07:55:49Z</time></trkpt><trkpt lat="45.77260733454639" lon="9.919430499479668"><ele>585.3333333333334</ele><time>2026-04-07T07:55:50Z</time></trkpt><trkpt lat="45.77265429956943" lon="9.91965815101212"><ele>583.0</ele><time>2026-04-07T07:55:51Z</time></trkpt><trkpt lat="45.772696505450135" lon="9.919893350155116"><ele>588.0</ele><time>2026-04-07T07:55:52Z</time></trkpt><trkpt lat="45.77273711686916" lon="9.920112252655073"><ele>593.0</ele><time>2026-04-07T07:55:53Z</time></trkpt><trkpt lat="45.77278294706989" lon="9.920322998551692"><ele>598.0</ele><time>2026-04-07T07:55:54Z</time></trkpt><trkpt lat="45.77284526434726" lon="9.920540846341064"><ele>598.0</ele><time>2026-04-07T07:55:55Z</time></trkpt><trkpt lat="45.77292132686017" lon="9.920747932209572"><ele>598.0</ele><time>2026-04-07T07:55:56Z</time></trkpt><trkpt lat="45.77301062843344" lon="9.920955576977445"><ele>598.0</ele><time>2026-04-07T07:55:57Z</time></trkpt><trkpt lat="45.77309269111164" lon="9.921157572203152"><ele>595.6666666666667</ele><time>2026-04-07T07:55:58Z</time></trkpt><trkpt lat="45.773163177863026" lon="9.921351136476465"><ele>593.3333333333334</ele><time>2026-04-07T07:55:59Z</time></trkpt><trkpt lat="45.77323209148663" lon="9.92153087912063"><ele>591.0</ele><time>2026-04-07T07:56:00Z</time></trkpt><trkpt lat="45.77331364400404" lon="9.921729064873514"><ele>592.0</ele><time>2026-04-07T07:56:01Z</time></trkpt><trkpt lat="45.7734073076526" lon="9.921928613232092"><ele>593.0</ele><time>2026-04-07T07:56:02Z</time></trkpt><trkpt lat="45.77351761835033" lon="9.922133186817153"><ele>594.0</ele><time>2026-04-07T07:56:03Z</time></trkpt><trkpt lat="45.77363827260483" lon="9.922322955525276"><ele>594.0</ele><time>2026-04-07T07:56:04Z</time></trkpt><trkpt lat="45.77376033624789" lon="9.922502416029795"><ele>594.0</ele><time>2026-04-07T07:56:05Z</time></trkpt><trkpt lat="45.77386824232699" lon="9.922663895774393"><ele>594.0</ele><time>2026-04-07T07:56:06Z</time></trkpt><trkpt lat="45.77395945574521" lon="9.922801689071118"><ele>592.8333333333334</ele><time>2026-04-07T07:56:07Z</time></trkpt><trkpt lat="45.774035143616516" lon="9.922916096229999"><ele>591.6666666666666</ele><time>2026-04-07T07:56:08Z</time></trkpt><trkpt lat="45.77409618663397" lon="9.92300700058306"><ele>590.5</ele><time>2026-04-07T07:56:09Z</time></trkpt><trkpt lat="45.77414906577546" lon="9.923087272726974"><ele>589.3333333333333</ele><time>2026-04-07T07:56:10Z</time></trkpt><trkpt lat="45.77419831475393" lon="9.923165009122991"><ele>588.1666666666666</ele><time>2026-04-07T07:56:11Z</time></trkpt><trkpt lat="45.77424771942735" lon="9.923232605797883"><ele>587.0</ele><time>2026-04-07T07:56:12Z</time></trkpt><trkpt lat="45.77432488003076" lon="9.923268617931484"><ele>588.5</ele><time>2026-04-07T07:56:13Z</time></trkpt><trkpt lat="45.77443162821864" lon="9.923264447379095"><ele>590.0</ele><time>2026-04-07T07:56:14Z</time></trkpt><trkpt lat="45.77455059228272" lon="9.923253145449388"><ele>591.5</ele><time>2026-04-07T07:56:15Z</time></trkpt><trkpt lat="45.774692389005345" lon="9.923299195932051"><ele>593.0</ele><time>2026-04-07T07:56:16Z</time></trkpt><trkpt lat="45.774816814851846" lon="9.92332968983357"><ele>593.0</ele><time>2026-04-07T07:56:17Z</time></trkpt><trkpt lat="45.77493179229342" lon="9.92334918948653"><ele>593.0</ele><time>2026-04-07T07:56:18Z</time></trkpt><trkpt lat="45.775035622870384" lon="9.923438133276267"><ele>593.0</ele><time>2026-04-07T07:56:19Z</time></trkpt><trkpt lat="45.775118190374606" lon="9.92358863051541"><ele>593.0</ele><time>2026-04-07T07:56:20Z</time></trkpt><trkpt lat="45.77513844803205" lon="9.923787142199453"><ele>594.5</ele><time>2026-04-07T07:56:21Z</time></trkpt><trkpt lat="45.775159845593365" lon="9.923991158734257"><ele>596.0</ele><time>2026-04-07T07:56:22Z</time></trkpt><trkpt lat="45.77521766082918" lon="9.924175766795956"><ele>597.5</ele><time>2026-04-07T07:56:23Z</time></trkpt><trkpt lat="45.77531307177032" lon="9.92436361045238"><ele>599.0</ele><time>2026-04-07T07:56:24Z</time></trkpt><trkpt lat="45.7754009169366" lon="9.924559023269579"><ele>599.0</ele><time>2026-04-07T07:56:25Z</time></trkpt><trkpt lat="45.77548449879996" lon="9.924765186414536"><ele>599.0</ele><time>2026-04-07T07:56:26Z</time></trkpt><trkpt lat="45.7755468722688" lon="9.924951733298393"><ele>599.0</ele><time>2026-04-07T07:56:27Z</time></trkpt><trkpt lat="45.77560409143135" lon="9.925145397806341"><ele>593.0</ele><time>2026-04-07T07:56:28Z</time></trkpt><trkpt lat="45.775650526470066" lon="9.925337211840585"><ele>587.0</ele><time>2026-04-07T07:56:29Z</time></trkpt><trkpt lat="45.77569294967016" lon="9.925520559854256"><ele>581.0</ele><time>2026-04-07T07:56:30Z</time></trkpt><trkpt lat="45.77574374122961" lon="9.925693518737045"><ele>575.0</ele><time>2026-04-07T07:56:31Z</time></trkpt><trkpt lat="45.7758247827119" lon="9.925851122984366"><ele>575.3333333333333</ele><time>2026-04-07T07:56:32Z</time></trkpt><trkpt lat="45.77593809602996" lon="9.925994062990666"><ele>575.6666666666666</ele><time>2026-04-07T07:56:33Z</time></trkpt><trkpt lat="45.77607958515232" lon="9.92610707551493"><ele>576.0</ele><time>2026-04-07T07:56:34Z</time></trkpt><trkpt lat="45.77622378967056" lon="9.926240479305674"><ele>576.0</ele><time>2026-04-07T07:56:35Z</time></trkpt><trkpt lat="45.77635614485973" lon="9.926371516721048"><ele>576.0</ele><time>2026-04-07T07:56:36Z</time></trkpt><trkpt lat="45.77647911387065" lon="9.92651035732643"><ele>576.0</ele><time>2026-04-07T07:56:37Z</time></trkpt><trkpt lat="45.776579117663786" lon="9.926665492455918"><ele>578.5</ele><time>2026-04-07T07:56:38Z</time></trkpt><trkpt lat="45.77665768687331" lon="9.926850047463347"><ele>581.0</ele><time>2026-04-07T07:56:39Z</time></trkpt><trkpt lat="45.776722055177245" lon="9.927034564004433"><ele>583.5</ele><time>2026-04-07T07:56:40Z</time></trkpt><trkpt lat="45.77678496907678" lon="9.927209924009581"><ele>586.0</ele><time>2026-04-07T07:56:41Z</time></trkpt><trkpt lat="45.77685553457533" lon="9.927374293855001"><ele>586.0</ele><time>2026-04-07T07:56:42Z</time></trkpt><trkpt lat="45.77695605080347" lon="9.927513291272463"><ele>586.0</ele><time>2026-04-07T07:56:43Z</time></trkpt><trkpt lat="45.77709361325568" lon="9.927607127070825"><ele>586.0</ele><time>2026-04-07T07:56:44Z</time></trkpt><trkpt lat="45.777253047350115" lon="9.927666009965236"><ele>573.6666666666667</ele><time>2026-04-07T07:56:45Z</time></trkpt><trkpt lat="45.77740720852297" lon="9.927752278796552"><ele>561.3333333333334</ele><time>2026-04-07T07:56:46Z</time></trkpt><trkpt lat="45.77753378193256" lon="9.927931846867718"><ele>549.0</ele><time>2026-04-07T07:56:47Z</time></trkpt><trkpt lat="45.77767861316075" lon="9.92808760389844"><ele>543.0</ele><time>2026-04-07T07:56:48Z</time></trkpt><trkpt lat="45.77781710861981" lon="9.928265775552582"><ele>537.0</ele><time>2026-04-07T07:56:48.999Z</time></trkpt><trkpt lat="45.777971526918186" lon="9.928410504470582"><ele>531.0</ele><time>2026-04-07T07:56:49.999Z</time></trkpt><trkpt lat="45.778143038138055" lon="9.928532981733273"><ele>531.0</ele><time>2026-04-07T07:56:50.999Z</time></trkpt><trkpt lat="45.77829451645661" lon="9.928633441284708"><ele>531.0</ele><time>2026-04-07T07:56:51.999Z</time></trkpt><trkpt lat="45.77843700668943" lon="9.928728689218966"><ele>531.0</ele><time>2026-04-07T07:56:52.999Z</time></trkpt><trkpt lat="45.7785712081842" lon="9.92882054048958"><ele>534.6666666666666</ele><time>2026-04-07T07:56:53.999Z</time></trkpt><trkpt lat="45.77870128843858" lon="9.928896803194066"><ele>538.3333333333333</ele><time>2026-04-07T07:56:54.999Z</time></trkpt><trkpt lat="45.778846541313754" lon="9.928936835537794"><ele>542.0</ele><time>2026-04-07T07:56:55.999Z</time></trkpt><trkpt lat="45.779013670296344" lon="9.928924988718862"><ele>542.0</ele><time>2026-04-07T07:56:56.999Z</time></trkpt><trkpt lat="45.77918440986558" lon="9.92890918710676"><ele>542.0</ele><time>2026-04-07T07:56:57.999Z</time></trkpt><trkpt lat="45.77935364324701" lon="9.928983021631549"><ele>542.0</ele><time>2026-04-07T07:56:58.999Z</time></trkpt><trkpt lat="45.77953302733899" lon="9.929043465775283"><ele>546.6666666666666</ele><time>2026-04-07T07:56:59.999Z</time></trkpt><trkpt lat="45.779674273578976" lon="9.929183090932463"><ele>551.3333333333334</ele><time>2026-04-07T07:57:00.999Z</time></trkpt><trkpt lat="45.779819949631204" lon="9.929328482267028"><ele>556.0</ele><time>2026-04-07T07:57:01.999Z</time></trkpt><trkpt lat="45.77996525094276" lon="9.929441517861616"><ele>549.3333333333334</ele><time>2026-04-07T07:57:02.999Z</time></trkpt><trkpt lat="45.78009948053388" lon="9.929537468373558"><ele>542.6666666666666</ele><time>2026-04-07T07:57:03.999Z</time></trkpt><trkpt lat="45.78026817192991" lon="9.929603131328783"><ele>536.0</ele><time>2026-04-07T07:57:04.999Z</time></trkpt><trkpt lat="45.78044754821723" lon="9.929630767394086"><ele>536.0</ele><time>2026-04-07T07:57:05.999Z</time></trkpt><trkpt lat="45.78061115572484" lon="9.929647314999942"><ele>536.0</ele><time>2026-04-07T07:57:06.999Z</time></trkpt><trkpt lat="45.78075642774263" lon="9.929729031638239"><ele>536.0</ele><time>2026-04-07T07:57:07.999Z</time></trkpt><trkpt lat="45.78091187539339" lon="9.929831372939486"><ele>537.3333333333333</ele><time>2026-04-07T07:57:08.999Z</time></trkpt><trkpt lat="45.78105612551457" lon="9.929922609584185"><ele>538.6666666666666</ele><time>2026-04-07T07:57:09.999Z</time></trkpt><trkpt lat="45.78120942845972" lon="9.9299853732879"><ele>540.0</ele><time>2026-04-07T07:57:10.999Z</time></trkpt><trkpt lat="45.78137027378813" lon="9.930034560224442"><ele>540.0</ele><time>2026-04-07T07:57:11.999Z</time></trkpt><trkpt lat="45.78154841636183" lon="9.930040456443974"><ele>540.0</ele><time>2026-04-07T07:57:12.999Z</time></trkpt><trkpt lat="45.781725753835886" lon="9.930043715359012"><ele>540.0</ele><time>2026-04-07T07:57:14Z</time></trkpt><trkpt lat="45.7818935571324" lon="9.930116328993744"><ele>531.3333333333334</ele><time>2026-04-07T07:57:15Z</time></trkpt><trkpt lat="45.782051355198604" lon="9.9302023871455"><ele>522.6666666666667</ele><time>2026-04-07T07:57:16Z</time></trkpt><trkpt lat="45.78221801795358" lon="9.930267572968658"><ele>514.0</ele><time>2026-04-07T07:57:17Z</time></trkpt><trkpt lat="45.78237959038558" lon="9.93033934006324"><ele>514.0</ele><time>2026-04-07T07:57:18Z</time></trkpt><trkpt lat="45.78256568949603" lon="9.930381515966832"><ele>514.0</ele><time>2026-04-07T07:57:19Z</time></trkpt><trkpt lat="45.7827636243454" lon="9.930401310238013"><ele>514.0</ele><time>2026-04-07T07:57:20Z</time></trkpt><trkpt lat="45.78297886925362" lon="9.930418497983215"><ele>515.3333333333334</ele><time>2026-04-07T07:57:21Z</time></trkpt><trkpt lat="45.783180836149604" lon="9.930442795327496"><ele>516.6666666666666</ele><time>2026-04-07T07:57:22Z</time></trkpt><trkpt lat="45.78335778386388" lon="9.930469166046171"><ele>518.0</ele><time>2026-04-07T07:57:23Z</time></trkpt><trkpt lat="45.7835336303405" lon="9.930491055068854"><ele>518.3333333333333</ele><time>2026-04-07T07:57:24Z</time></trkpt><trkpt lat="45.78369027577279" lon="9.93050756297306"><ele>518.6666666666666</ele><time>2026-04-07T07:57:25Z</time></trkpt><trkpt lat="45.78383504225181" lon="9.930521340341691"><ele>519.0</ele><time>2026-04-07T07:57:26Z</time></trkpt><trkpt lat="45.7839885025851" lon="9.930525428430103"><ele>519.0</ele><time>2026-04-07T07:57:27Z</time></trkpt><trkpt lat="45.7841497787429" lon="9.930509217227506"><ele>519.0</ele><time>2026-04-07T07:57:28Z</time></trkpt><trkpt lat="45.78429663677357" lon="9.930487604593273"><ele>519.0</ele><time>2026-04-07T07:57:29Z</time></trkpt><trkpt lat="45.7844390501325" lon="9.930477944429974"><ele>519.25</ele><time>2026-04-07T07:57:30Z</time></trkpt><trkpt lat="45.7845697988546" lon="9.930526698518346"><ele>519.5</ele><time>2026-04-07T07:57:31Z</time></trkpt><trkpt lat="45.784688908735646" lon="9.930573164524434"><ele>519.75</ele><time>2026-04-07T07:57:32Z</time></trkpt><trkpt lat="45.78479771443961" lon="9.93061604704038"><ele>520.0</ele><time>2026-04-07T07:57:33Z</time></trkpt><trkpt lat="45.784901816437575" lon="9.930652166437142"><ele>520.0</ele><time>2026-04-07T07:57:34Z</time></trkpt><trkpt lat="45.7849971565807" lon="9.930676770188605"><ele>520.0</ele><time>2026-04-07T07:57:35Z</time></trkpt><trkpt lat="45.785085167715266" lon="9.930690863791016"><ele>520.0</ele><time>2026-04-07T07:57:36Z</time></trkpt><trkpt lat="45.78516232196727" lon="9.930692725386395"><ele>520.0</ele><time>2026-04-07T07:57:37Z</time></trkpt><trkpt lat="45.78524263293144" lon="9.930801248175914"><ele>520.0</ele><time>2026-04-07T07:57:39Z</time></trkpt><trkpt lat="45.78521032839936" lon="9.93094491850033"><ele>520.0</ele><time>2026-04-07T07:57:41Z</time></trkpt><trkpt lat="45.78508189031928" lon="9.930963361605608"><ele>520.0</ele><time>2026-04-07T07:57:43Z</time></trkpt><trkpt lat="45.784991418084445" lon="9.9309265466903"><ele>520.0</ele><time>2026-04-07T07:57:44Z</time></trkpt><trkpt lat="45.78487833322794" lon="9.93089590566979"><ele>520.0</ele><time>2026-04-07T07:57:45Z</time></trkpt><trkpt lat="45.784735338154086" lon="9.930875484498516"><ele>520.0</ele><time>2026-04-07T07:57:46Z</time></trkpt><trkpt lat="45.7845939582496" lon="9.930869194413786"><ele>520.0</ele><time>2026-04-07T07:57:47Z</time></trkpt><trkpt lat="45.784439133263255" lon="9.930870290595537"><ele>520.0</ele><time>2026-04-07T07:57:48Z</time></trkpt><trkpt lat="45.78431133911208" lon="9.930876993464798"><ele>520.0</ele><time>2026-04-07T07:57:49Z</time></trkpt><trkpt lat="45.78420551957021" lon="9.930885719340143"><ele>513.3333333333334</ele><time>2026-04-07T07:57:50Z</time></trkpt><trkpt lat="45.78411959509918" lon="9.930893264163714"><ele>506.6666666666667</ele><time>2026-04-07T07:57:51Z</time></trkpt><trkpt lat="45.78404866550928" lon="9.930910608239849"><ele>500.0</ele><time>2026-04-07T07:57:52Z</time></trkpt><trkpt lat="45.78396238320131" lon="9.931041550110425"><ele>493.33333333333337</ele><time>2026-04-07T07:57:54Z</time></trkpt><trkpt lat="45.783960164713505" lon="9.931137273722538"><ele>486.6666666666667</ele><time>2026-04-07T07:57:55Z</time></trkpt><trkpt lat="45.78399428820428" lon="9.931214720189944"><ele>480.0</ele><time>2026-04-07T07:57:56Z</time></trkpt><trkpt lat="45.78410671909663" lon="9.9312574583163"><ele>480.0</ele><time>2026-04-07T07:57:58Z</time></trkpt><trkpt lat="45.784173053781274" lon="9.931247766199792"><ele>480.0</ele><time>2026-04-07T07:57:59Z</time></trkpt><trkpt lat="45.784248914567655" lon="9.93123073665552"><ele>480.0</ele><time>2026-04-07T07:58:00Z</time></trkpt><trkpt lat="45.7843357431811" lon="9.93121811535222"><ele>480.0</ele><time>2026-04-07T07:58:01Z</time></trkpt><trkpt lat="45.784440044644505" lon="9.93120643749476"><ele>480.0</ele><time>2026-04-07T07:58:02Z</time></trkpt><trkpt lat="45.78455435526701" lon="9.931197336670861"><ele>482.0</ele><time>2026-04-07T07:58:03Z</time></trkpt><trkpt lat="45.784658438655626" lon="9.931199316371815"><ele>484.0</ele><time>2026-04-07T07:58:04Z</time></trkpt><trkpt lat="45.78477019620213" lon="9.931213841988702"><ele>486.0</ele><time>2026-04-07T07:58:05Z</time></trkpt><trkpt lat="45.784905352307895" lon="9.931243186684902"><ele>488.0</ele><time>2026-04-07T07:58:06Z</time></trkpt><trkpt lat="45.785048880357635" lon="9.931289139004054"><ele>492.0</ele><time>2026-04-07T07:58:07Z</time></trkpt><trkpt lat="45.78519366263061" lon="9.931350397471412"><ele>496.0</ele><time>2026-04-07T07:58:08Z</time></trkpt><trkpt lat="45.785334687746634" lon="9.93142902527533"><ele>500.0</ele><time>2026-04-07T07:58:09Z</time></trkpt><trkpt lat="45.78547816098752" lon="9.931522105647328"><ele>500.0</ele><time>2026-04-07T07:58:10Z</time></trkpt><trkpt lat="45.785623213945" lon="9.931624030824938"><ele>500.0</ele><time>2026-04-07T07:58:11Z</time></trkpt><trkpt lat="45.7857625067132" lon="9.931721780999382"><ele>500.0</ele><time>2026-04-07T07:58:12Z</time></trkpt><trkpt lat="45.785899015071486" lon="9.931816981500702"><ele>500.25</ele><time>2026-04-07T07:58:13Z</time></trkpt><trkpt lat="45.78602495052834" lon="9.931916466854002"><ele>500.5</ele><time>2026-04-07T07:58:14Z</time></trkpt><trkpt lat="45.78612973520909" lon="9.932031842346376"><ele>500.75</ele><time>2026-04-07T07:58:15Z</time></trkpt><trkpt lat="45.786210732066614" lon="9.932166285511713"><ele>501.0</ele><time>2026-04-07T07:58:16Z</time></trkpt><trkpt lat="45.78626516066115" lon="9.932316359816896"><ele>501.0</ele><time>2026-04-07T07:58:17Z</time></trkpt><trkpt lat="45.7862927517784" lon="9.932488776390544"><ele>501.0</ele><time>2026-04-07T07:58:18Z</time></trkpt><trkpt lat="45.786306746686435" lon="9.932674827405712"><ele>501.0</ele><time>2026-04-07T07:58:19Z</time></trkpt><trkpt lat="45.78629982649605" lon="9.932852265921012"><ele>501.0</ele><time>2026-04-07T07:58:20Z</time></trkpt><trkpt lat="45.78627087030269" lon="9.933034808557673"><ele>498.25</ele><time>2026-04-07T07:58:21Z</time></trkpt><trkpt lat="45.786255841529915" lon="9.933199003104296"><ele>495.5</ele><time>2026-04-07T07:58:22Z</time></trkpt><trkpt lat="45.78627078574895" lon="9.933356548154075"><ele>492.75</ele><time>2026-04-07T07:58:23Z</time></trkpt><trkpt lat="45.786319037453836" lon="9.933514041941702"><ele>490.0</ele><time>2026-04-07T07:58:24Z</time></trkpt><trkpt lat="45.78637670539366" lon="9.933656441338579"><ele>487.8</ele><time>2026-04-07T07:58:25Z</time></trkpt><trkpt lat="45.786423665025055" lon="9.933785512799494"><ele>485.6</ele><time>2026-04-07T07:58:26Z</time></trkpt><trkpt lat="45.78645759681956" lon="9.933892949744779"><ele>483.4</ele><time>2026-04-07T07:58:27Z</time></trkpt><trkpt lat="45.78647121319158" lon="9.933985255626368"><ele>481.2</ele><time>2026-04-07T07:58:28Z</time></trkpt><trkpt lat="45.786422118415636" lon="9.93412755181789"><ele>479.0</ele><time>2026-04-07T07:58:30Z</time></trkpt><trkpt lat="45.786302224418634" lon="9.934095865804991"><ele>479.0</ele><time>2026-04-07T07:58:32Z</time></trkpt><trkpt lat="45.786231506624496" lon="9.933992895210835"><ele>479.0</ele><time>2026-04-07T07:58:33Z</time></trkpt><trkpt lat="45.78614784370126" lon="9.933861933981568"><ele>479.0</ele><time>2026-04-07T07:58:34Z</time></trkpt><trkpt lat="45.786060501996005" lon="9.933721137355816"><ele>479.0</ele><time>2026-04-07T07:58:35Z</time></trkpt><trkpt lat="45.785989434761746" lon="9.933582503802404"><ele>475.75</ele><time>2026-04-07T07:58:36Z</time></trkpt><trkpt lat="45.78594826491999" lon="9.933424890738811"><ele>472.5</ele><time>2026-04-07T07:58:37Z</time></trkpt><trkpt lat="45.785926160919715" lon="9.933255280516127"><ele>469.25</ele><time>2026-04-07T07:58:38Z</time></trkpt><trkpt lat="45.785909664399185" lon="9.933086666676592"><ele>466.0</ele><time>2026-04-07T07:58:39Z</time></trkpt><trkpt lat="45.78588237268457" lon="9.932936443277915"><ele>466.0</ele><time>2026-04-07T07:58:40Z</time></trkpt><trkpt lat="45.78583080059527" lon="9.932816769872375"><ele>466.0</ele><time>2026-04-07T07:58:41Z</time></trkpt><trkpt lat="45.785743334167904" lon="9.932721551617735"><ele>466.0</ele><time>2026-04-07T07:58:42Z</time></trkpt><trkpt lat="45.7856277256448" lon="9.93267195035154"><ele>466.0</ele><time>2026-04-07T07:58:43Z</time></trkpt><trkpt lat="45.78549293111824" lon="9.932656803469575"><ele>466.0</ele><time>2026-04-07T07:58:44Z</time></trkpt><trkpt lat="45.785344469621556" lon="9.932635573325971"><ele>466.0</ele><time>2026-04-07T07:58:45Z</time></trkpt><trkpt lat="45.78518533120883" lon="9.932596686856042"><ele>466.0</ele><time>2026-04-07T07:58:46Z</time></trkpt><trkpt lat="45.7850272316175" lon="9.932556126787945"><ele>465.5</ele><time>2026-04-07T07:58:47Z</time></trkpt><trkpt lat="45.78488192547652" lon="9.932519454798229"><ele>465.0</ele><time>2026-04-07T07:58:48Z</time></trkpt><trkpt lat="45.78474152072293" lon="9.932483830912263"><ele>464.5</ele><time>2026-04-07T07:58:49Z</time></trkpt><trkpt lat="45.784612039485616" lon="9.932452139383678"><ele>464.0</ele><time>2026-04-07T07:58:50Z</time></trkpt><trkpt lat="45.78448897684179" lon="9.932429049192626"><ele>461.0</ele><time>2026-04-07T07:58:51Z</time></trkpt><trkpt lat="45.78432319835303" lon="9.932394655698863"><ele>458.0</ele><time>2026-04-07T07:58:52Z</time></trkpt><trkpt lat="45.784163085001936" lon="9.932398835120571"><ele>455.0</ele><time>2026-04-07T07:58:52.999Z</time></trkpt><trkpt lat="45.78399913105394" lon="9.9324050483602"><ele>455.0</ele><time>2026-04-07T07:58:53.999Z</time></trkpt><trkpt lat="45.78383980565502" lon="9.93242673470619"><ele>455.0</ele><time>2026-04-07T07:58:54.999Z</time></trkpt><trkpt lat="45.78369423168965" lon="9.932464139311838"><ele>455.0</ele><time>2026-04-07T07:58:55.999Z</time></trkpt><trkpt lat="45.7835444387267" lon="9.932523498503507"><ele>449.25</ele><time>2026-04-07T07:58:56.999Z</time></trkpt><trkpt lat="45.78338877428043" lon="9.932569526538787"><ele>443.5</ele><time>2026-04-07T07:58:57.999Z</time></trkpt><trkpt lat="45.783249074308365" lon="9.932575458467854"><ele>437.75</ele><time>2026-04-07T07:58:58.999Z</time></trkpt><trkpt lat="45.783151088819174" lon="9.932576888220177"><ele>432.0</ele><time>2026-04-07T07:58:59.999Z</time></trkpt><trkpt lat="45.78305154955075" lon="9.93257295412992"><ele>432.0</ele><time>2026-04-07T07:59:00.999Z</time></trkpt><trkpt lat="45.78293913714094" lon="9.932577329565651"><ele>432.0</ele><time>2026-04-07T07:59:01.999Z</time></trkpt><trkpt lat="45.78280880875801" lon="9.9325978911657"><ele>432.0</ele><time>2026-04-07T07:59:02.999Z</time></trkpt><trkpt lat="45.7826907431153" lon="9.932641263512881"><ele>432.0</ele><time>2026-04-07T07:59:03.999Z</time></trkpt><trkpt lat="45.78259071242368" lon="9.932697747111343"><ele>432.0</ele><time>2026-04-07T07:59:04.999Z</time></trkpt><trkpt lat="45.78247722090368" lon="9.932731380807088"><ele>432.0</ele><time>2026-04-07T07:59:05.999Z</time></trkpt><trkpt lat="45.782367867390946" lon="9.932728598687014"><ele>432.0</ele><time>2026-04-07T07:59:06.999Z</time></trkpt><trkpt lat="45.78226466127919" lon="9.932666371856302"><ele>432.0</ele><time>2026-04-07T07:59:07.999Z</time></trkpt><trkpt lat="45.782172682955775" lon="9.932568079013357"><ele>434.0</ele><time>2026-04-07T07:59:08.999Z</time></trkpt><trkpt lat="45.78205633496804" lon="9.9324722648705"><ele>436.0</ele><time>2026-04-07T07:59:09.999Z</time></trkpt><trkpt lat="45.78191721379137" lon="9.932394012192441"><ele>438.0</ele><time>2026-04-07T07:59:10.999Z</time></trkpt><trkpt lat="45.78177822487166" lon="9.932340588594812"><ele>440.0</ele><time>2026-04-07T07:59:11.999Z</time></trkpt><trkpt lat="45.78162347108486" lon="9.932326375630625"><ele>440.0</ele><time>2026-04-07T07:59:12.999Z</time></trkpt><trkpt lat="45.781465486400464" lon="9.932344759703437"><ele>440.0</ele><time>2026-04-07T07:59:13.999Z</time></trkpt><trkpt lat="45.78131155843415" lon="9.932362747165426"><ele>440.0</ele><time>2026-04-07T07:59:14.999Z</time></trkpt><trkpt lat="45.781152693518415" lon="9.932377030247329"><ele>439.3333333333333</ele><time>2026-04-07T07:59:15.999Z</time></trkpt><trkpt lat="45.78098902196623" lon="9.932423890449284"><ele>438.66666666666663</ele><time>2026-04-07T07:59:16.999Z</time></trkpt><trkpt lat="45.78083807699648" lon="9.932478321015996"><ele>438.0</ele><time>2026-04-07T07:59:17.999Z</time></trkpt><trkpt lat="45.78069250328941" lon="9.9324645120005"><ele>438.0</ele><time>2026-04-07T07:59:19Z</time></trkpt><trkpt lat="45.780525341846264" lon="9.932447060962485"><ele>438.0</ele><time>2026-04-07T07:59:20Z</time></trkpt><trkpt lat="45.78032358433472" lon="9.932444420183925"><ele>438.0</ele><time>2026-04-07T07:59:21Z</time></trkpt><trkpt lat="45.780082020476534" lon="9.93246328230568"><ele>437.5</ele><time>2026-04-07T07:59:22Z</time></trkpt><trkpt lat="45.7798397640249" lon="9.932507709514873"><ele>437.0</ele><time>2026-04-07T07:59:23Z</time></trkpt><trkpt lat="45.77963093628578" lon="9.93254829693122"><ele>427.66666666666663</ele><time>2026-04-07T07:59:24Z</time></trkpt><trkpt lat="45.779436620978665" lon="9.932572466246267"><ele>418.33333333333337</ele><time>2026-04-07T07:59:25Z</time></trkpt><trkpt lat="45.77925661484474" lon="9.93258451031623"><ele>409.0</ele><time>2026-04-07T07:59:26Z</time></trkpt><trkpt lat="45.77908949659464" lon="9.93261322395512"><ele>409.0</ele><time>2026-04-07T07:59:27Z</time></trkpt><trkpt lat="45.778933733072115" lon="9.932621277029055"><ele>409.0</ele><time>2026-04-07T07:59:28Z</time></trkpt><trkpt lat="45.77878525827454" lon="9.932595953464944"><ele>409.0</ele><time>2026-04-07T07:59:29Z</time></trkpt><trkpt lat="45.77864336740678" lon="9.932574610717776"><ele>409.0</ele><time>2026-04-07T07:59:30Z</time></trkpt><trkpt lat="45.77848655674155" lon="9.93252381614334"><ele>412.0</ele><time>2026-04-07T07:59:31Z</time></trkpt><trkpt lat="45.77832538102297" lon="9.932449865337247"><ele>415.0</ele><time>2026-04-07T07:59:32Z</time></trkpt><trkpt lat="45.778183399920415" lon="9.9323757129517"><ele>418.0</ele><time>2026-04-07T07:59:33Z</time></trkpt><trkpt lat="45.77806192821154" lon="9.932282887869372"><ele>418.0</ele><time>2026-04-07T07:59:34Z</time></trkpt><trkpt lat="45.77795075809622" lon="9.932183403114033"><ele>418.0</ele><time>2026-04-07T07:59:35Z</time></trkpt><trkpt lat="45.77785408419355" lon="9.932093952431526"><ele>418.0</ele><time>2026-04-07T07:59:36Z</time></trkpt><trkpt lat="45.77777066400841" lon="9.932015562047471"><ele>418.0</ele><time>2026-04-07T07:59:37Z</time></trkpt><trkpt lat="45.777687353681436" lon="9.931953581416906"><ele>418.0</ele><time>2026-04-07T07:59:38Z</time></trkpt><trkpt lat="45.77762769369903" lon="9.93189302381617"><ele>418.0</ele><time>2026-04-07T07:59:39Z</time></trkpt><trkpt lat="45.777535968507614" lon="9.931890240291061"><ele>418.0</ele><time>2026-04-07T07:59:41Z</time></trkpt><trkpt lat="45.777507436345665" lon="9.932040939618764"><ele>418.0</ele><time>2026-04-07T07:59:43Z</time></trkpt><trkpt lat="45.777555250817805" lon="9.93211830779945"><ele>418.0</ele><time>2026-04-07T07:59:44Z</time></trkpt><trkpt lat="45.77763177435373" lon="9.932179447118873"><ele>418.0</ele><time>2026-04-07T07:59:45Z</time></trkpt><trkpt lat="45.77771754694783" lon="9.932249902325902"><ele>418.0</ele><time>2026-04-07T07:59:46Z</time></trkpt><trkpt lat="45.77780513988475" lon="9.932349035346922"><ele>418.0</ele><time>2026-04-07T07:59:47Z</time></trkpt><trkpt lat="45.77789236279776" lon="9.932471074508559"><ele>418.0</ele><time>2026-04-07T07:59:48Z</time></trkpt><trkpt lat="45.777981000836455" lon="9.932621803215433"><ele>418.0</ele><time>2026-04-07T07:59:49Z</time></trkpt><trkpt lat="45.778071288348414" lon="9.932794249945712"><ele>413.75</ele><time>2026-04-07T07:59:50Z</time></trkpt><trkpt lat="45.77815531287966" lon="9.932955707210384"><ele>409.5</ele><time>2026-04-07T07:59:51Z</time></trkpt><trkpt lat="45.77823672417859" lon="9.933109879559176"><ele>405.25</ele><time>2026-04-07T07:59:52Z</time></trkpt><trkpt lat="45.778307226862516" lon="9.933252001409933"><ele>401.0</ele><time>2026-04-07T07:59:53Z</time></trkpt><trkpt lat="45.77838193128285" lon="9.933368021699552"><ele>398.49999999999994</ele><time>2026-04-07T07:59:54Z</time></trkpt><trkpt lat="45.77845743521288" lon="9.933465506727181"><ele>396.0</ele><time>2026-04-07T07:59:55Z</time></trkpt><trkpt lat="45.77853779196512" lon="9.933523692378406"><ele>393.5</ele><time>2026-04-07T07:59:56Z</time></trkpt><trkpt lat="45.77861865798146" lon="9.933550808863892"><ele>391.0</ele><time>2026-04-07T07:59:57Z</time></trkpt><trkpt lat="45.778693715198436" lon="9.933580010675698"><ele>388.49999999999994</ele><time>2026-04-07T07:59:58Z</time></trkpt><trkpt lat="45.77876312247492" lon="9.933579488922827"><ele>386.0</ele><time>2026-04-07T07:59:59Z</time></trkpt><trkpt lat="45.77885089702356" lon="9.933592418177168"><ele>386.0</ele><time>2026-04-07T08:00:01Z</time></trkpt><trkpt lat="45.77888052260012" lon="9.933693836060538"><ele>386.0</ele><time>2026-04-07T08:00:03Z</time></trkpt><trkpt lat="45.778779762299465" lon="9.933795782660631"><ele>386.0</ele><time>2026-04-07T08:00:05Z</time></trkpt><trkpt lat="45.77868140587219" lon="9.933811780485177"><ele>386.0</ele><time>2026-04-07T08:00:06Z</time></trkpt><trkpt lat="45.77855944616102" lon="9.933827818993246"><ele>386.0</ele><time>2026-04-07T08:00:07Z</time></trkpt><trkpt lat="45.7784407302573" lon="9.933846518630482"><ele>385.6</ele><time>2026-04-07T08:00:08Z</time></trkpt><trkpt lat="45.77833824693935" lon="9.933832964143903"><ele>385.20000000000005</ele><time>2026-04-07T08:00:09Z</time></trkpt><trkpt lat="45.778241850900486" lon="9.933786319886826"><ele>384.79999999999995</ele><time>2026-04-07T08:00:10Z</time></trkpt><trkpt lat="45.778159327286495" lon="9.933713064133913"><ele>384.4</ele><time>2026-04-07T08:00:11Z</time></trkpt><trkpt lat="45.77808510994189" lon="9.933599050854976"><ele>384.0</ele><time>2026-04-07T08:00:12Z</time></trkpt><trkpt lat="45.778006186914105" lon="9.93348133546811"><ele>384.4</ele><time>2026-04-07T08:00:13Z</time></trkpt><trkpt lat="45.77792935536911" lon="9.93335264973879"><ele>384.79999999999995</ele><time>2026-04-07T08:00:14Z</time></trkpt><trkpt lat="45.777852199474154" lon="9.933242528200363"><ele>385.20000000000005</ele><time>2026-04-07T08:00:15Z</time></trkpt><trkpt lat="45.777757887881606" lon="9.933164788140157"><ele>385.6</ele><time>2026-04-07T08:00:16Z</time></trkpt><trkpt lat="45.777662130641126" lon="9.9330807027619"><ele>386.0</ele><time>2026-04-07T08:00:17Z</time></trkpt><trkpt lat="45.77754207450331" lon="9.933003513831913"><ele>386.0</ele><time>2026-04-07T08:00:18Z</time></trkpt><trkpt lat="45.777401748833256" lon="9.932908693921844"><ele>386.0</ele><time>2026-04-07T08:00:19Z</time></trkpt><trkpt lat="45.77722103839708" lon="9.932837936133218"><ele>386.0</ele><time>2026-04-07T08:00:20Z</time></trkpt><trkpt lat="45.7770533932975" lon="9.932787892288856"><ele>386.0</ele><time>2026-04-07T08:00:21Z</time></trkpt><trkpt lat="45.77689577586562" lon="9.932762604889072"><ele>386.0</ele><time>2026-04-07T08:00:22Z</time></trkpt><trkpt lat="45.776753021607185" lon="9.93272324944716"><ele>386.0</ele><time>2026-04-07T08:00:23Z</time></trkpt><trkpt lat="45.77661491440841" lon="9.932684481574215"><ele>386.0</ele><time>2026-04-07T08:00:24Z</time></trkpt><trkpt lat="45.77648590299505" lon="9.932628883332223"><ele>386.8</ele><time>2026-04-07T08:00:25Z</time></trkpt><trkpt lat="45.77639812545502" lon="9.932526882261994"><ele>387.6</ele><time>2026-04-07T08:00:26Z</time></trkpt><trkpt lat="45.77634862244483" lon="9.932425825610952"><ele>388.4</ele><time>2026-04-07T08:00:27Z</time></trkpt><trkpt lat="45.776287516089916" lon="9.932334104929218"><ele>389.2</ele><time>2026-04-07T08:00:28Z</time></trkpt><trkpt lat="45.77624440833927" lon="9.93223647953524"><ele>390.0</ele><time>2026-04-07T08:00:29Z</time></trkpt><trkpt lat="45.77615195272191" lon="9.932159163076578"><ele>390.0</ele><time>2026-04-07T08:00:31Z</time></trkpt><trkpt lat="45.77609162545617" lon="9.932214545524705"><ele>390.0</ele><time>2026-04-07T08:00:32Z</time></trkpt><trkpt lat="45.776079971443636" lon="9.932333165605225"><ele>390.0</ele><time>2026-04-07T08:00:33Z</time></trkpt><trkpt lat="45.7760955514281" lon="9.932455374220707"><ele>390.0</ele><time>2026-04-07T08:00:34Z</time></trkpt><trkpt lat="45.77612895906723" lon="9.93260142078101"><ele>390.0</ele><time>2026-04-07T08:00:35Z</time></trkpt><trkpt lat="45.776157813177335" lon="9.932760063187812"><ele>386.6</ele><time>2026-04-07T08:00:36Z</time></trkpt><trkpt lat="45.77618734653512" lon="9.932915580438545"><ele>383.2</ele><time>2026-04-07T08:00:37Z</time></trkpt><trkpt lat="45.776223959705945" lon="9.933055807257757"><ele>379.79999999999995</ele><time>2026-04-07T08:00:38Z</time></trkpt><trkpt lat="45.776266672610475" lon="9.933193730284282"><ele>376.4</ele><time>2026-04-07T08:00:39Z</time></trkpt><trkpt lat="45.77630486054132" lon="9.93332748074403"><ele>373.0</ele><time>2026-04-07T08:00:40Z</time></trkpt><trkpt lat="45.776352851501144" lon="9.933489787353995"><ele>369.5</ele><time>2026-04-07T08:00:41Z</time></trkpt><trkpt lat="45.77641382278913" lon="9.93366056711398"><ele>366.0</ele><time>2026-04-07T08:00:42Z</time></trkpt><trkpt lat="45.77648351731496" lon="9.93383460986699"><ele>362.5</ele><time>2026-04-07T08:00:43Z</time></trkpt><trkpt lat="45.77656377371357" lon="9.933997901035559"><ele>359.0</ele><time>2026-04-07T08:00:44Z</time></trkpt><trkpt lat="45.7766542001075" lon="9.934140438806713"><ele>358.5</ele><time>2026-04-07T08:00:45Z</time></trkpt><trkpt lat="45.77675408909161" lon="9.934273917739628"><ele>358.0</ele><time>2026-04-07T08:00:46Z</time></trkpt><trkpt lat="45.77687392925662" lon="9.934394677061766"><ele>357.5</ele><time>2026-04-07T08:00:47Z</time></trkpt><trkpt lat="45.77702349078868" lon="9.934490381357834"><ele>357.0</ele><time>2026-04-07T08:00:48Z</time></trkpt><trkpt lat="45.777188749915915" lon="9.93457068977725"><ele>357.0</ele><time>2026-04-07T08:00:49Z</time></trkpt><trkpt lat="45.77734370243483" lon="9.93469092758339"><ele>357.0</ele><time>2026-04-07T08:00:50Z</time></trkpt><trkpt lat="45.77749243083605" lon="9.934782225010318"><ele>357.0</ele><time>2026-04-07T08:00:51Z</time></trkpt><trkpt lat="45.777627374681245" lon="9.934865060868807"><ele>358.0</ele><time>2026-04-07T08:00:52Z</time></trkpt><trkpt lat="45.77775663511004" lon="9.934945604962456"><ele>359.0</ele><time>2026-04-07T08:00:53Z</time></trkpt><trkpt lat="45.777880395391776" lon="9.935028590217666"><ele>360.0</ele><time>2026-04-07T08:00:54Z</time></trkpt><trkpt lat="45.777995272584675" lon="9.935102439862892"><ele>361.0</ele><time>2026-04-07T08:00:55Z</time></trkpt><trkpt lat="45.77810151815404" lon="9.935198453340364"><ele>357.6</ele><time>2026-04-07T08:00:56Z</time></trkpt><trkpt lat="45.77819649878003" lon="9.93527270641682"><ele>354.20000000000005</ele><time>2026-04-07T08:00:57Z</time></trkpt><trkpt lat="45.778285219159606" lon="9.935316391430318"><ele>350.79999999999995</ele><time>2026-04-07T08:00:57.999Z</time></trkpt><trkpt lat="45.77837559913083" lon="9.935328957705432"><ele>347.4</ele><time>2026-04-07T08:00:58.999Z</time></trkpt><trkpt lat="45.778466603796346" lon="9.935302421187991"><ele>344.0</ele><time>2026-04-07T08:00:59.999Z</time></trkpt><trkpt lat="45.77857641102117" lon="9.935248130351908"><ele>342.75</ele><time>2026-04-07T08:01:00.999Z</time></trkpt><trkpt lat="45.77869988070605" lon="9.935226789873031"><ele>341.5</ele><time>2026-04-07T08:01:01.999Z</time></trkpt><trkpt lat="45.77881479232912" lon="9.935194500854061"><ele>340.25</ele><time>2026-04-07T08:01:02.999Z</time></trkpt><trkpt lat="45.778936513423396" lon="9.935163735034878"><ele>339.0</ele><time>2026-04-07T08:01:03.999Z</time></trkpt><trkpt lat="45.77905458372511" lon="9.935176767568993"><ele>339.0</ele><time>2026-04-07T08:01:04.999Z</time></trkpt><trkpt lat="45.77916626666369" lon="9.935208592970994"><ele>339.0</ele><time>2026-04-07T08:01:05.999Z</time></trkpt><trkpt lat="45.77928480111329" lon="9.93523888120023"><ele>339.0</ele><time>2026-04-07T08:01:06.999Z</time></trkpt><trkpt lat="45.779401375827504" lon="9.935261486456193"><ele>339.0</ele><time>2026-04-07T08:01:07.999Z</time></trkpt><trkpt lat="45.77950953896474" lon="9.93530245526154"><ele>338.0</ele><time>2026-04-07T08:01:08.999Z</time></trkpt><trkpt lat="45.77961702141603" lon="9.935235535811278"><ele>337.0</ele><time>2026-04-07T08:01:09.999Z</time></trkpt><trkpt lat="45.779725167684376" lon="9.935190169708916"><ele>336.0</ele><time>2026-04-07T08:01:10.999Z</time></trkpt><trkpt lat="45.7798348275183" lon="9.935067163996669"><ele>335.0</ele><time>2026-04-07T08:01:11.999Z</time></trkpt><trkpt lat="45.77995031505793" lon="9.935001589242514"><ele>339.0</ele><time>2026-04-07T08:01:12.999Z</time></trkpt><trkpt lat="45.780058113091485" lon="9.93493575246316"><ele>343.0</ele><time>2026-04-07T08:01:13.999Z</time></trkpt><trkpt lat="45.78017494255519" lon="9.934942093863796"><ele>347.0</ele><time>2026-04-07T08:01:14.999Z</time></trkpt><trkpt lat="45.78028391058537" lon="9.934982989102595"><ele>351.0</ele><time>2026-04-07T08:01:15.999Z</time></trkpt><trkpt lat="45.780384228165886" lon="9.935051003583013"><ele>348.20000000000005</ele><time>2026-04-07T08:01:16.999Z</time></trkpt><trkpt lat="45.78047083201599" lon="9.935147753219299"><ele>345.40000000000003</ele><time>2026-04-07T08:01:17.999Z</time></trkpt><trkpt lat="45.78054692805788" lon="9.935247801513707"><ele>342.6</ele><time>2026-04-07T08:01:18.999Z</time></trkpt><trkpt lat="45.78062345832668" lon="9.935345214371987"><ele>339.8</ele><time>2026-04-07T08:01:19.999Z</time></trkpt><trkpt lat="45.780686292445026" lon="9.935422834473187"><ele>337.0</ele><time>2026-04-07T08:01:20.999Z</time></trkpt><trkpt lat="45.78076533311147" lon="9.935526880942716"><ele>337.0</ele><time>2026-04-07T08:01:22.999Z</time></trkpt><trkpt lat="45.780783828972716" lon="9.935634534583393"><ele>337.0</ele><time>2026-04-07T08:01:25Z</time></trkpt><trkpt lat="45.78089164487445" lon="9.935734320363519"><ele>337.0</ele><time>2026-04-07T08:01:40Z</time></trkpt><trkpt lat="45.780981799933286" lon="9.935813494302478"><ele>337.0</ele><time>2026-04-07T08:01:41Z</time></trkpt><trkpt lat="45.78106035079792" lon="9.935934835699356"><ele>337.0</ele><time>2026-04-07T08:01:42Z</time></trkpt><trkpt lat="45.78115777238216" lon="9.936077009922295"><ele>337.66666666666663</ele><time>2026-04-07T08:01:43Z</time></trkpt><trkpt lat="45.78126444382022" lon="9.936219796833964"><ele>338.3333333333333</ele><time>2026-04-07T08:01:44Z</time></trkpt><trkpt lat="45.78138653378401" lon="9.936382895031556"><ele>339.0</ele><time>2026-04-07T08:01:45Z</time></trkpt><trkpt lat="45.781513903244644" lon="9.936562661131182"><ele>339.3333333333333</ele><time>2026-04-07T08:01:46Z</time></trkpt><trkpt lat="45.78164428914567" lon="9.936733852395973"><ele>339.66666666666663</ele><time>2026-04-07T08:01:47Z</time></trkpt><trkpt lat="45.78178290258853" lon="9.936904711011579"><ele>340.0</ele><time>2026-04-07T08:01:48Z</time></trkpt><trkpt lat="45.78194162501662" lon="9.937079159923929"><ele>340.0</ele><time>2026-04-07T08:01:49Z</time></trkpt><trkpt lat="45.78210160055845" lon="9.93722280548993"><ele>340.0</ele><time>2026-04-07T08:01:50Z</time></trkpt><trkpt lat="45.78223869091475" lon="9.937344304011775"><ele>340.0</ele><time>2026-04-07T08:01:51Z</time></trkpt><trkpt lat="45.782367052946974" lon="9.937456466319396"><ele>339.75</ele><time>2026-04-07T08:01:52Z</time></trkpt><trkpt lat="45.782498521405955" lon="9.937555612966829"><ele>339.5</ele><time>2026-04-07T08:01:53Z</time></trkpt><trkpt lat="45.78261822052704" lon="9.937626599670477"><ele>339.25</ele><time>2026-04-07T08:01:54Z</time></trkpt><trkpt lat="45.782734479759526" lon="9.937680723895067"><ele>339.0</ele><time>2026-04-07T08:01:55Z</time></trkpt><trkpt lat="45.782863265554845" lon="9.937736162294396"><ele>339.0</ele><time>2026-04-07T08:01:56Z</time></trkpt><trkpt lat="45.78300857606922" lon="9.937802313733288"><ele>339.0</ele><time>2026-04-07T08:01:57Z</time></trkpt><trkpt lat="45.783151472871104" lon="9.937896018009514"><ele>339.0</ele><time>2026-04-07T08:01:58Z</time></trkpt><trkpt lat="45.78328164866404" lon="9.938008126654118"><ele>339.0</ele><time>2026-04-07T08:01:59Z</time></trkpt><trkpt lat="45.78340839327408" lon="9.938139036312291"><ele>339.0</ele><time>2026-04-07T08:02:00Z</time></trkpt><trkpt lat="45.783522056458715" lon="9.93826160862771"><ele>339.0</ele><time>2026-04-07T08:02:01Z</time></trkpt><trkpt lat="45.78363832246922" lon="9.938384148658129"><ele>339.0</ele><time>2026-04-07T08:02:02Z</time></trkpt><trkpt lat="45.78376029841896" lon="9.938538169387687"><ele>339.3333333333333</ele><time>2026-04-07T08:02:03Z</time></trkpt><trkpt lat="45.7839066298598" lon="9.938695448048035"><ele>339.66666666666663</ele><time>2026-04-07T08:02:04Z</time></trkpt><trkpt lat="45.78404408844133" lon="9.938821884583673"><ele>340.0</ele><time>2026-04-07T08:02:05Z</time></trkpt><trkpt lat="45.784161055715934" lon="9.938997998731496"><ele>340.0</ele><time>2026-04-07T08:02:06Z</time></trkpt><trkpt lat="45.784292961435234" lon="9.939183105118566"><ele>340.0</ele><time>2026-04-07T08:02:07Z</time></trkpt><trkpt lat="45.7844344994497" lon="9.939358782720461"><ele>340.0</ele><time>2026-04-07T08:02:08Z</time></trkpt><trkpt lat="45.78453347421085" lon="9.939534689496544"><ele>340.0</ele><time>2026-04-07T08:02:09Z</time></trkpt><trkpt lat="45.78463195712404" lon="9.939686650710327"><ele>340.0</ele><time>2026-04-07T08:02:10Z</time></trkpt><trkpt lat="45.784729148536925" lon="9.939829506968161"><ele>340.0</ele><time>2026-04-07T08:02:11Z</time></trkpt><trkpt lat="45.78483228526137" lon="9.939977843209444"><ele>340.0</ele><time>2026-04-07T08:02:12Z</time></trkpt><trkpt lat="45.7849618886796" lon="9.940147667505082"><ele>340.0</ele><time>2026-04-07T08:02:13Z</time></trkpt><trkpt lat="45.78508545137592" lon="9.94034201208812"><ele>340.0</ele><time>2026-04-07T08:02:14Z</time></trkpt><trkpt lat="45.78518728743613" lon="9.940513791174457"><ele>340.0</ele><time>2026-04-07T08:02:15Z</time></trkpt><trkpt lat="45.78528018401172" lon="9.94065882320673"><ele>342.25</ele><time>2026-04-07T08:02:16Z</time></trkpt><trkpt lat="45.78536026648177" lon="9.940822258953512"><ele>344.5</ele><time>2026-04-07T08:02:17Z</time></trkpt><trkpt lat="45.785439224175605" lon="9.940994741121106"><ele>346.75</ele><time>2026-04-07T08:02:18Z</time></trkpt><trkpt lat="45.785496867929716" lon="9.941179111016929"><ele>349.0</ele><time>2026-04-07T08:02:19Z</time></trkpt><trkpt lat="45.785533628556074" lon="9.941354562561887"><ele>349.0</ele><time>2026-04-07T08:02:20Z</time></trkpt><trkpt lat="45.785555020591886" lon="9.941513195242635"><ele>349.0</ele><time>2026-04-07T08:02:21Z</time></trkpt><trkpt lat="45.78556015627193" lon="9.941668198118826"><ele>349.0</ele><time>2026-04-07T08:02:22Z</time></trkpt><trkpt lat="45.785548079840396" lon="9.941824623215304"><ele>349.0</ele><time>2026-04-07T08:02:23Z</time></trkpt><trkpt lat="45.785529244872905" lon="9.941994473094383"><ele>347.0</ele><time>2026-04-07T08:02:24Z</time></trkpt><trkpt lat="45.78550960160805" lon="9.942183469132848"><ele>345.0</ele><time>2026-04-07T08:02:25Z</time></trkpt><trkpt lat="45.785488099618455" lon="9.942416880155237"><ele>343.0</ele><time>2026-04-07T08:02:26Z</time></trkpt><trkpt lat="45.785473441436274" lon="9.942636454083432"><ele>342.75</ele><time>2026-04-07T08:02:27Z</time></trkpt><trkpt lat="45.7854710788482" lon="9.942800879576906"><ele>342.5</ele><time>2026-04-07T08:02:28Z</time></trkpt><trkpt lat="45.78549249733122" lon="9.942950231120859"><ele>342.25</ele><time>2026-04-07T08:02:29Z</time></trkpt><trkpt lat="45.785517253677824" lon="9.943164369175294"><ele>342.0</ele><time>2026-04-07T08:02:30Z</time></trkpt><trkpt lat="45.78554818274669" lon="9.943369725342341"><ele>341.25</ele><time>2026-04-07T08:02:31Z</time></trkpt><trkpt lat="45.78556627476851" lon="9.943558824529225"><ele>340.5</ele><time>2026-04-07T08:02:32Z</time></trkpt><trkpt lat="45.7855951862009" lon="9.943726136375755"><ele>339.75</ele><time>2026-04-07T08:02:33Z</time></trkpt><trkpt lat="45.78562510025073" lon="9.943885051260517"><ele>339.0</ele><time>2026-04-07T08:02:34Z</time></trkpt><trkpt lat="45.785660557664094" lon="9.944045813660368"><ele>338.5</ele><time>2026-04-07T08:02:35Z</time></trkpt><trkpt lat="45.78571080486308" lon="9.944237882345533"><ele>338.0</ele><time>2026-04-07T08:02:36Z</time></trkpt><trkpt lat="45.78579186499726" lon="9.944413560862012"><ele>337.5</ele><time>2026-04-07T08:02:37Z</time></trkpt><trkpt lat="45.78587874550934" lon="9.944580210644672"><ele>337.0</ele><time>2026-04-07T08:02:38Z</time></trkpt><trkpt lat="45.785971406646965" lon="9.944729311524945"><ele>336.75</ele><time>2026-04-07T08:02:39Z</time></trkpt><trkpt lat="45.78606052625404" lon="9.944865357345456"><ele>336.5</ele><time>2026-04-07T08:02:40Z</time></trkpt><trkpt lat="45.78614386659009" lon="9.944983784047102"><ele>336.25</ele><time>2026-04-07T08:02:41Z</time></trkpt><trkpt lat="45.786230918106384" lon="9.945101452194955"><ele>336.0</ele><time>2026-04-07T08:02:42Z</time></trkpt><trkpt lat="45.78630983053316" lon="9.945216155685264"><ele>336.0</ele><time>2026-04-07T08:02:43Z</time></trkpt><trkpt lat="45.78639218096996" lon="9.945353840936928"><ele>336.0</ele><time>2026-04-07T08:02:44Z</time></trkpt><trkpt lat="45.786505571831434" lon="9.945500695416836"><ele>336.0</ele><time>2026-04-07T08:02:45Z</time></trkpt><trkpt lat="45.78664864373985" lon="9.945675473379245"><ele>336.0</ele><time>2026-04-07T08:02:46Z</time></trkpt><trkpt lat="45.78680243619331" lon="9.94584852022881"><ele>336.0</ele><time>2026-04-07T08:02:47Z</time></trkpt><trkpt lat="45.7869558714003" lon="9.94601388910704"><ele>336.0</ele><time>2026-04-07T08:02:48Z</time></trkpt><trkpt lat="45.78709173149593" lon="9.946154346733955"><ele>336.0</ele><time>2026-04-07T08:02:49Z</time></trkpt><trkpt lat="45.78722820662953" lon="9.946263637977413"><ele>336.0</ele><time>2026-04-07T08:02:50Z</time></trkpt><trkpt lat="45.78734390449724" lon="9.946387945427524"><ele>336.0</ele><time>2026-04-07T08:02:51Z</time></trkpt><trkpt lat="45.78745319991423" lon="9.946500580190236"><ele>336.0</ele><time>2026-04-07T08:02:52Z</time></trkpt><trkpt lat="45.78755533143086" lon="9.946603167774866"><ele>336.0</ele><time>2026-04-07T08:02:53Z</time></trkpt><trkpt lat="45.78764825583951" lon="9.946698339100712"><ele>336.0</ele><time>2026-04-07T08:02:54Z</time></trkpt><trkpt lat="45.78772717601044" lon="9.946777266148306"><ele>336.0</ele><time>2026-04-07T08:02:55Z</time></trkpt><trkpt lat="45.78781067403675" lon="9.946855677057851"><ele>336.0</ele><time>2026-04-07T08:02:57Z</time></trkpt><trkpt lat="45.78789222569108" lon="9.946961843826221"><ele>336.0</ele><time>2026-04-07T08:02:59Z</time></trkpt><trkpt lat="45.78797684688615" lon="9.947009207049698"><ele>335.75</ele><time>2026-04-07T08:03:00Z</time></trkpt><trkpt lat="45.788069519687575" lon="9.947113469615513"><ele>335.5</ele><time>2026-04-07T08:03:00.999Z</time></trkpt><trkpt lat="45.78820308804225" lon="9.947180096587896"><ele>335.25</ele><time>2026-04-07T08:03:01.999Z</time></trkpt><trkpt lat="45.7883384667363" lon="9.947254359108818"><ele>335.0</ele><time>2026-04-07T08:03:02.999Z</time></trkpt><trkpt lat="45.78849201783429" lon="9.947315778775781"><ele>335.25</ele><time>2026-04-07T08:03:03.999Z</time></trkpt><trkpt lat="45.788627502283916" lon="9.947361582784643"><ele>335.5</ele><time>2026-04-07T08:03:04.999Z</time></trkpt><trkpt lat="45.78875573312418" lon="9.947412444904712"><ele>335.75</ele><time>2026-04-07T08:03:05.999Z</time></trkpt><trkpt lat="45.78889278327294" lon="9.947475575250904"><ele>336.0</ele><time>2026-04-07T08:03:06.999Z</time></trkpt><trkpt lat="45.78902113012671" lon="9.947567555701031"><ele>336.0</ele><time>2026-04-07T08:03:07.999Z</time></trkpt><trkpt lat="45.789137759551714" lon="9.947687245402536"><ele>336.0</ele><time>2026-04-07T08:03:08.999Z</time></trkpt><trkpt lat="45.78922958472341" lon="9.947843157165506"><ele>336.0</ele><time>2026-04-07T08:03:09.999Z</time></trkpt><trkpt lat="45.78932027055784" lon="9.948022620851226"><ele>336.0</ele><time>2026-04-07T08:03:10.999Z</time></trkpt><trkpt lat="45.78940325685136" lon="9.948230359856256"><ele>338.6666666666667</ele><time>2026-04-07T08:03:11.999Z</time></trkpt><trkpt lat="45.789479435463036" lon="9.948454692324207"><ele>341.33333333333337</ele><time>2026-04-07T08:03:12.999Z</time></trkpt><trkpt lat="45.78960292162709" lon="9.948705208998325"><ele>344.0</ele><time>2026-04-07T08:03:13.999Z</time></trkpt><trkpt lat="45.78968060652809" lon="9.948956598814084"><ele>344.0</ele><time>2026-04-07T08:03:14.999Z</time></trkpt><trkpt lat="45.789753054021794" lon="9.94917156273816"><ele>344.0</ele><time>2026-04-07T08:03:15.999Z</time></trkpt><trkpt lat="45.7898154406696" lon="9.949367489491706"><ele>344.0</ele><time>2026-04-07T08:03:16.999Z</time></trkpt><trkpt lat="45.78987878919071" lon="9.949561554583108"><ele>342.5</ele><time>2026-04-07T08:03:17.999Z</time></trkpt><trkpt lat="45.78995005041039" lon="9.949759753616064"><ele>341.0</ele><time>2026-04-07T08:03:18.999Z</time></trkpt><trkpt lat="45.79001442412504" lon="9.949940102658784"><ele>339.5</ele><time>2026-04-07T08:03:19.999Z</time></trkpt><trkpt lat="45.790079109358885" lon="9.950117507564304"><ele>338.0</ele><time>2026-04-07T08:03:20.999Z</time></trkpt><trkpt lat="45.790148720461204" lon="9.950292311734172"><ele>338.0</ele><time>2026-04-07T08:03:21.999Z</time></trkpt><trkpt lat="45.79020015207967" lon="9.95046123982698"><ele>338.0</ele><time>2026-04-07T08:03:22.999Z</time></trkpt><trkpt lat="45.790277879451736" lon="9.950599752783557"><ele>338.0</ele><time>2026-04-07T08:03:23.999Z</time></trkpt><trkpt lat="45.79036058451896" lon="9.950799296384988"><ele>338.0</ele><time>2026-04-07T08:03:24.999Z</time></trkpt><trkpt lat="45.790487596846816" lon="9.951021644534096"><ele>338.0</ele><time>2026-04-07T08:03:25.999Z</time></trkpt><trkpt lat="45.79062404664007" lon="9.95125378577884"><ele>338.0</ele><time>2026-04-07T08:03:26.999Z</time></trkpt><trkpt lat="45.7907469630076" lon="9.95146320006914"><ele>338.0</ele><time>2026-04-07T08:03:27.999Z</time></trkpt><trkpt lat="45.79087974896416" lon="9.95166568071504"><ele>337.0</ele><time>2026-04-07T08:03:28.999Z</time></trkpt><trkpt lat="45.79099239647506" lon="9.951865788167865"><ele>336.0</ele><time>2026-04-07T08:03:29.999Z</time></trkpt><trkpt lat="45.79106499408381" lon="9.95207204526283"><ele>335.0</ele><time>2026-04-07T08:03:31Z</time></trkpt><trkpt lat="45.791121469824375" lon="9.952269114799108"><ele>339.33333333333337</ele><time>2026-04-07T08:03:32Z</time></trkpt><trkpt lat="45.79115171775885" lon="9.952478342205621"><ele>343.6666666666667</ele><time>2026-04-07T08:03:33Z</time></trkpt><trkpt lat="45.791164836757424" lon="9.952691923787048"><ele>348.0</ele><time>2026-04-07T08:03:34Z</time></trkpt><trkpt lat="45.79117149426894" lon="9.952946624973984"><ele>348.0</ele><time>2026-04-07T08:03:35Z</time></trkpt><trkpt lat="45.79117847021942" lon="9.953232787413699"><ele>348.0</ele><time>2026-04-07T08:03:36Z</time></trkpt><trkpt lat="45.791185755539324" lon="9.953531640536921"><ele>348.0</ele><time>2026-04-07T08:03:37Z</time></trkpt><trkpt lat="45.791192725763764" lon="9.953785194810164"><ele>347.0</ele><time>2026-04-07T08:03:38Z</time></trkpt><trkpt lat="45.79121108570596" lon="9.954020878209835"><ele>346.0</ele><time>2026-04-07T08:03:39Z</time></trkpt><trkpt lat="45.791219622107114" lon="9.954282629613283"><ele>345.0</ele><time>2026-04-07T08:03:40Z</time></trkpt><trkpt lat="45.79124591715502" lon="9.954552788858884"><ele>343.6666666666667</ele><time>2026-04-07T08:03:41Z</time></trkpt><trkpt lat="45.791309898546324" lon="9.954820414686692"><ele>342.33333333333337</ele><time>2026-04-07T08:03:42Z</time></trkpt><trkpt lat="45.79139879970514" lon="9.955058526493314"><ele>341.0</ele><time>2026-04-07T08:03:43Z</time></trkpt><trkpt lat="45.791491743106235" lon="9.955259942852907"><ele>340.25</ele><time>2026-04-07T08:03:44Z</time></trkpt><trkpt lat="45.79157367612507" lon="9.955436593867802"><ele>339.5</ele><time>2026-04-07T08:03:45Z</time></trkpt><trkpt lat="45.79164898521257" lon="9.955613022757493"><ele>338.75</ele><time>2026-04-07T08:03:46Z</time></trkpt><trkpt lat="45.79172844483751" lon="9.95579558030538"><ele>338.0</ele><time>2026-04-07T08:03:47Z</time></trkpt><trkpt lat="45.791803069790554" lon="9.955958704542265"><ele>340.5</ele><time>2026-04-07T08:03:48Z</time></trkpt><trkpt lat="45.791872041860955" lon="9.95612080648822"><ele>343.0</ele><time>2026-04-07T08:03:49Z</time></trkpt><trkpt lat="45.79193702186509" lon="9.9562656315353"><ele>345.5</ele><time>2026-04-07T08:03:50Z</time></trkpt><trkpt lat="45.79197962998001" lon="9.956432833093551"><ele>348.0</ele><time>2026-04-07T08:03:51Z</time></trkpt><trkpt lat="45.79202768010193" lon="9.956604048457324"><ele>347.75</ele><time>2026-04-07T08:03:52Z</time></trkpt><trkpt lat="45.79206788463055" lon="9.956788274750297"><ele>347.5</ele><time>2026-04-07T08:03:53Z</time></trkpt><trkpt lat="45.792096436785066" lon="9.95697876654701"><ele>347.25</ele><time>2026-04-07T08:03:54Z</time></trkpt><trkpt lat="45.79211171825759" lon="9.957160445699946"><ele>347.0</ele><time>2026-04-07T08:03:55Z</time></trkpt><trkpt lat="45.79211543327335" lon="9.95732021896163"><ele>347.0</ele><time>2026-04-07T08:03:56Z</time></trkpt><trkpt lat="45.79211145086631" lon="9.957464989440265"><ele>347.0</ele><time>2026-04-07T08:03:57Z</time></trkpt><trkpt lat="45.79211239906282" lon="9.95761584088165"><ele>347.0</ele><time>2026-04-07T08:03:58Z</time></trkpt><trkpt lat="45.79209719732442" lon="9.957787047886212"><ele>347.0</ele><time>2026-04-07T08:03:59Z</time></trkpt><trkpt lat="45.79208356317062" lon="9.957964846487599"><ele>347.25</ele><time>2026-04-07T08:04:00Z</time></trkpt><trkpt lat="45.79206926766916" lon="9.95813269667337"><ele>347.5</ele><time>2026-04-07T08:04:01Z</time></trkpt><trkpt lat="45.792058175205646" lon="9.958296713669888"><ele>347.75</ele><time>2026-04-07T08:04:02Z</time></trkpt><trkpt lat="45.79204799250808" lon="9.958480968824482"><ele>348.0</ele><time>2026-04-07T08:04:03Z</time></trkpt><trkpt lat="45.79203601050728" lon="9.958674098660095"><ele>348.0</ele><time>2026-04-07T08:04:04Z</time></trkpt><trkpt lat="45.79201976184346" lon="9.958856008530464"><ele>348.0</ele><time>2026-04-07T08:04:05Z</time></trkpt><trkpt lat="45.79200042239203" lon="9.959016876714045"><ele>348.0</ele><time>2026-04-07T08:04:06Z</time></trkpt><trkpt lat="45.79197202079911" lon="9.9591812772752"><ele>348.0</ele><time>2026-04-07T08:04:07Z</time></trkpt><trkpt lat="45.79190481132775" lon="9.95932285649035"><ele>349.25</ele><time>2026-04-07T08:04:08Z</time></trkpt><trkpt lat="45.791879454651486" lon="9.959487189368616"><ele>350.5</ele><time>2026-04-07T08:04:09Z</time></trkpt><trkpt lat="45.791814156519365" lon="9.959632836508279"><ele>351.75</ele><time>2026-04-07T08:04:10Z</time></trkpt><trkpt lat="45.79175460389207" lon="9.959795867649516"><ele>353.0</ele><time>2026-04-07T08:04:11Z</time></trkpt><trkpt lat="45.791705672362845" lon="9.959961391134348"><ele>351.75</ele><time>2026-04-07T08:04:12Z</time></trkpt><trkpt lat="45.79162244211398" lon="9.960103234641096"><ele>350.5</ele><time>2026-04-07T08:04:13Z</time></trkpt><trkpt lat="45.7915508569839" lon="9.960245737980625"><ele>349.25</ele><time>2026-04-07T08:04:14Z</time></trkpt><trkpt lat="45.791477466363254" lon="9.960388712072566"><ele>348.0</ele><time>2026-04-07T08:04:15Z</time></trkpt><trkpt lat="45.7913960618536" lon="9.960543148226202"><ele>348.0</ele><time>2026-04-07T08:04:16Z</time></trkpt><trkpt lat="45.791334814141486" lon="9.960695618133585"><ele>348.0</ele><time>2026-04-07T08:04:17Z</time></trkpt><trkpt lat="45.79125892019235" lon="9.9608396107768"><ele>348.0</ele><time>2026-04-07T08:04:18Z</time></trkpt><trkpt lat="45.791174914488465" lon="9.960967553540964"><ele>348.0</ele><time>2026-04-07T08:04:19Z</time></trkpt><trkpt lat="45.79110096631377" lon="9.961110796200368"><ele>349.75</ele><time>2026-04-07T08:04:20Z</time></trkpt><trkpt lat="45.79102837639858" lon="9.961251671049117"><ele>351.5</ele><time>2026-04-07T08:04:21Z</time></trkpt><trkpt lat="45.790973065897845" lon="9.961404765428439"><ele>353.25</ele><time>2026-04-07T08:04:22Z</time></trkpt><trkpt lat="45.790903945933024" lon="9.961543707435787"><ele>355.0</ele><time>2026-04-07T08:04:23Z</time></trkpt><trkpt lat="45.7908370189734" lon="9.961696441742724"><ele>351.5</ele><time>2026-04-07T08:04:24Z</time></trkpt><trkpt lat="45.79077888548927" lon="9.961858162933039"><ele>348.0</ele><time>2026-04-07T08:04:25Z</time></trkpt><trkpt lat="45.79073128247814" lon="9.962019745277239"><ele>344.5</ele><time>2026-04-07T08:04:26Z</time></trkpt><trkpt lat="45.79069227719081" lon="9.962173921557193"><ele>341.0</ele><time>2026-04-07T08:04:27Z</time></trkpt><trkpt lat="45.79065836104525" lon="9.96233144318039"><ele>341.0</ele><time>2026-04-07T08:04:28Z</time></trkpt><trkpt lat="45.79062559310912" lon="9.962514294441474"><ele>341.0</ele><time>2026-04-07T08:04:29Z</time></trkpt><trkpt lat="45.79059831970343" lon="9.962704951184529"><ele>341.0</ele><time>2026-04-07T08:04:30Z</time></trkpt><trkpt lat="45.79056532293155" lon="9.962882450949165"><ele>341.0</ele><time>2026-04-07T08:04:31Z</time></trkpt><trkpt lat="45.79055182965607" lon="9.963062830761128"><ele>341.8</ele><time>2026-04-07T08:04:32Z</time></trkpt><trkpt lat="45.790543163695475" lon="9.963227568118633"><ele>342.6</ele><time>2026-04-07T08:04:33Z</time></trkpt><trkpt lat="45.79053973460179" lon="9.963385778116098"><ele>343.4</ele><time>2026-04-07T08:04:34Z</time></trkpt><trkpt lat="45.790547195421944" lon="9.96352839625306"><ele>344.2</ele><time>2026-04-07T08:04:35Z</time></trkpt><trkpt lat="45.79054476536177" lon="9.963696385829566"><ele>345.0</ele><time>2026-04-07T08:04:36Z</time></trkpt><trkpt lat="45.79054520600401" lon="9.963895129284532"><ele>345.0</ele><time>2026-04-07T08:04:37Z</time></trkpt><trkpt lat="45.790547148161316" lon="9.96408431148439"><ele>345.0</ele><time>2026-04-07T08:04:38Z</time></trkpt><trkpt lat="45.79052902688353" lon="9.964270860877614"><ele>345.0</ele><time>2026-04-07T08:04:39Z</time></trkpt><trkpt lat="45.790526864628035" lon="9.964475561415341"><ele>345.0</ele><time>2026-04-07T08:04:40Z</time></trkpt><trkpt lat="45.790523989241095" lon="9.964748602655778"><ele>344.0</ele><time>2026-04-07T08:04:41Z</time></trkpt><trkpt lat="45.790523988679894" lon="9.965061789296307"><ele>343.0</ele><time>2026-04-07T08:04:42Z</time></trkpt><trkpt lat="45.79052748224537" lon="9.965377163381406"><ele>342.0</ele><time>2026-04-07T08:04:43Z</time></trkpt><trkpt lat="45.790529829291444" lon="9.965688189522695"><ele>342.6666666666667</ele><time>2026-04-07T08:04:44Z</time></trkpt><trkpt lat="45.79054228704784" lon="9.965990773820621"><ele>343.33333333333337</ele><time>2026-04-07T08:04:45Z</time></trkpt><trkpt lat="45.79053289814941" lon="9.966287790843957"><ele>344.0</ele><time>2026-04-07T08:04:46Z</time></trkpt><trkpt lat="45.79051861590223" lon="9.966601918361052"><ele>344.33333333333337</ele><time>2026-04-07T08:04:47Z</time></trkpt><trkpt lat="45.790509001027786" lon="9.966917655147585"><ele>344.6666666666667</ele><time>2026-04-07T08:04:48Z</time></trkpt><trkpt lat="45.79050502217256" lon="9.967241876602747"><ele>345.0</ele><time>2026-04-07T08:04:49Z</time></trkpt><trkpt lat="45.79050244223733" lon="9.967555073325489"><ele>345.5</ele><time>2026-04-07T08:04:50Z</time></trkpt><trkpt lat="45.790499283706744" lon="9.967883722503606"><ele>346.0</ele><time>2026-04-07T08:04:51Z</time></trkpt><trkpt lat="45.7904957724154" lon="9.96821322456302"><ele>346.0</ele><time>2026-04-07T08:04:52Z</time></trkpt><trkpt lat="45.79049414995545" lon="9.96856565950558"><ele>346.0</ele><time>2026-04-07T08:04:53Z</time></trkpt><trkpt lat="45.790474312798175" lon="9.968890313393487"><ele>346.0</ele><time>2026-04-07T08:04:54Z</time></trkpt><trkpt lat="45.79048517454869" lon="9.96917711999022"><ele>346.0</ele><time>2026-04-07T08:04:55Z</time></trkpt><trkpt lat="45.79048289888918" lon="9.969459773406568"><ele>346.0</ele><time>2026-04-07T08:04:56Z</time></trkpt><trkpt lat="45.79047951701279" lon="9.96975075459749"><ele>346.66666666666663</ele><time>2026-04-07T08:04:57Z</time></trkpt><trkpt lat="45.79046025275911" lon="9.970042034113499"><ele>347.3333333333333</ele><time>2026-04-07T08:04:58Z</time></trkpt><trkpt lat="45.79045700391048" lon="9.970324737694487"><ele>348.0</ele><time>2026-04-07T08:04:59Z</time></trkpt><trkpt lat="45.79045545631094" lon="9.970603419393477"><ele>347.0</ele><time>2026-04-07T08:05:00Z</time></trkpt><trkpt lat="45.790455456311726" lon="9.970883594722153"><ele>346.0</ele><time>2026-04-07T08:05:00.999Z</time></trkpt><trkpt lat="45.79047601119332" lon="9.971171420210545"><ele>345.0</ele><time>2026-04-07T08:05:01.999Z</time></trkpt><trkpt lat="45.79048455000414" lon="9.971474029816346"><ele>344.6666666666667</ele><time>2026-04-07T08:05:02.999Z</time></trkpt><trkpt lat="45.7904974224149" lon="9.971780524629839"><ele>344.33333333333337</ele><time>2026-04-07T08:05:03.999Z</time></trkpt><trkpt lat="45.79051188309536" lon="9.97209541219215"><ele>344.0</ele><time>2026-04-07T08:05:04.999Z</time></trkpt><trkpt lat="45.790527602274985" lon="9.972424391883418"><ele>344.33333333333337</ele><time>2026-04-07T08:05:05.999Z</time></trkpt><trkpt lat="45.79054386024298" lon="9.972743803105702"><ele>344.6666666666667</ele><time>2026-04-07T08:05:06.999Z</time></trkpt><trkpt lat="45.79055457958918" lon="9.973043742353548"><ele>345.0</ele><time>2026-04-07T08:05:07.999Z</time></trkpt><trkpt lat="45.790562471926016" lon="9.973311389443213"><ele>348.0</ele><time>2026-04-07T08:05:08.999Z</time></trkpt><trkpt lat="45.79056801070872" lon="9.973569774359312"><ele>351.0</ele><time>2026-04-07T08:05:09.999Z</time></trkpt><trkpt lat="45.790568115112265" lon="9.973824056099483"><ele>354.0</ele><time>2026-04-07T08:05:10.999Z</time></trkpt><trkpt lat="45.790562649448844" lon="9.974060386623554"><ele>354.3333333333333</ele><time>2026-04-07T08:05:11.999Z</time></trkpt><trkpt lat="45.79055433899719" lon="9.974294107302034"><ele>354.66666666666663</ele><time>2026-04-07T08:05:12.999Z</time></trkpt><trkpt lat="45.790529831140994" lon="9.974516336482592"><ele>355.0</ele><time>2026-04-07T08:05:13.999Z</time></trkpt><trkpt lat="45.790521267485516" lon="9.974722284798014"><ele>355.0</ele><time>2026-04-07T08:05:14.999Z</time></trkpt><trkpt lat="45.79051764868901" lon="9.974940751705047"><ele>355.0</ele><time>2026-04-07T08:05:15.999Z</time></trkpt><trkpt lat="45.7905181494934" lon="9.975171143990595"><ele>355.0</ele><time>2026-04-07T08:05:16.999Z</time></trkpt><trkpt lat="45.790523603635684" lon="9.975408206398473"><ele>353.66666666666663</ele><time>2026-04-07T08:05:17.999Z</time></trkpt><trkpt lat="45.79053462570113" lon="9.975645855422464"><ele>352.3333333333333</ele><time>2026-04-07T08:05:18.999Z</time></trkpt><trkpt lat="45.79056443120314" lon="9.975886712569208"><ele>351.0</ele><time>2026-04-07T08:05:19.999Z</time></trkpt><trkpt lat="45.79055947591615" lon="9.976140050798152"><ele>350.3333333333333</ele><time>2026-04-07T08:05:20.999Z</time></trkpt><trkpt lat="45.7905667899469" lon="9.976377093919853"><ele>349.66666666666663</ele><time>2026-04-07T08:05:21.999Z</time></trkpt><trkpt lat="45.79057284591044" lon="9.976597559237234"><ele>349.0</ele><time>2026-04-07T08:05:22.999Z</time></trkpt><trkpt lat="45.79057567375659" lon="9.976831882872657"><ele>349.0</ele><time>2026-04-07T08:05:23.999Z</time></trkpt><trkpt lat="45.79059174881365" lon="9.977045715059981"><ele>349.0</ele><time>2026-04-07T08:05:24.999Z</time></trkpt><trkpt lat="45.79058970005477" lon="9.977265915028132"><ele>349.0</ele><time>2026-04-07T08:05:25.999Z</time></trkpt><trkpt lat="45.79058772824812" lon="9.97747521096322"><ele>349.0</ele><time>2026-04-07T08:05:26.999Z</time></trkpt><trkpt lat="45.790584518967925" lon="9.977689872573764"><ele>349.3333333333333</ele><time>2026-04-07T08:05:27.999Z</time></trkpt><trkpt lat="45.79057799355319" lon="9.977912059638586"><ele>349.6666666666667</ele><time>2026-04-07T08:05:28.999Z</time></trkpt><trkpt lat="45.79056961163674" lon="9.978136633648901"><ele>350.0</ele><time>2026-04-07T08:05:29.999Z</time></trkpt><trkpt lat="45.79056255261554" lon="9.97836707462381"><ele>349.33333333333337</ele><time>2026-04-07T08:05:30.999Z</time></trkpt><trkpt lat="45.790556036893285" lon="9.978600250599971"><ele>348.6666666666667</ele><time>2026-04-07T08:05:31.999Z</time></trkpt><trkpt lat="45.79054955558856" lon="9.978843893341821"><ele>348.0</ele><time>2026-04-07T08:05:32.999Z</time></trkpt><trkpt lat="45.79053947410754" lon="9.97906961494445"><ele>349.3333333333333</ele><time>2026-04-07T08:05:33.999Z</time></trkpt><trkpt lat="45.79052778781445" lon="9.979312364323338"><ele>350.66666666666663</ele><time>2026-04-07T08:05:34.999Z</time></trkpt><trkpt lat="45.79050763809586" lon="9.97955217643312"><ele>352.0</ele><time>2026-04-07T08:05:35.999Z</time></trkpt><trkpt lat="45.79047927755829" lon="9.979800019839294"><ele>352.0</ele><time>2026-04-07T08:05:37Z</time></trkpt><trkpt lat="45.79044946359473" lon="9.980058288392346"><ele>352.0</ele><time>2026-04-07T08:05:38Z</time></trkpt><trkpt lat="45.790418863896114" lon="9.98033172365137"><ele>352.0</ele><time>2026-04-07T08:05:39Z</time></trkpt><trkpt lat="45.790367418613386" lon="9.98060474070976"><ele>352.3333333333333</ele><time>2026-04-07T08:05:40Z</time></trkpt><trkpt lat="45.7903275908564" lon="9.980893637066092"><ele>352.6666666666667</ele><time>2026-04-07T08:05:41Z</time></trkpt><trkpt lat="45.79028888621036" lon="9.981172030886214"><ele>353.0</ele><time>2026-04-07T08:05:42Z</time></trkpt><trkpt lat="45.790257547592745" lon="9.981422296835309"><ele>353.0</ele><time>2026-04-07T08:05:43Z</time></trkpt><trkpt lat="45.79025342974941" lon="9.981674956498653"><ele>353.0</ele><time>2026-04-07T08:05:44Z</time></trkpt><trkpt lat="45.790230890186834" lon="9.981939497656592"><ele>353.0</ele><time>2026-04-07T08:05:45Z</time></trkpt><trkpt lat="45.79023991266707" lon="9.982210971275665"><ele>354.33333333333337</ele><time>2026-04-07T08:05:46Z</time></trkpt><trkpt lat="45.79026084605028" lon="9.982504105611985"><ele>355.6666666666667</ele><time>2026-04-07T08:05:47Z</time></trkpt><trkpt lat="45.7902871958557" lon="9.982800276672092"><ele>357.0</ele><time>2026-04-07T08:05:48Z</time></trkpt><trkpt lat="45.79032208854095" lon="9.983096593172695"><ele>357.3333333333333</ele><time>2026-04-07T08:05:49Z</time></trkpt><trkpt lat="45.79035447124802" lon="9.983404402286784"><ele>357.66666666666663</ele><time>2026-04-07T08:05:50Z</time></trkpt><trkpt lat="45.790372118980656" lon="9.983706020842096"><ele>358.0</ele><time>2026-04-07T08:05:51Z</time></trkpt><trkpt lat="45.7903961110434" lon="9.983980750369355"><ele>358.3333333333333</ele><time>2026-04-07T08:05:52Z</time></trkpt><trkpt lat="45.79041333444839" lon="9.984249784777981"><ele>358.6666666666667</ele><time>2026-04-07T08:05:53Z</time></trkpt><trkpt lat="45.790424010153444" lon="9.98451271537071"><ele>359.0</ele><time>2026-04-07T08:05:54Z</time></trkpt><trkpt lat="45.79039184636092" lon="9.984783277005516"><ele>357.33333333333337</ele><time>2026-04-07T08:05:55Z</time></trkpt><trkpt lat="45.790343838718464" lon="9.985053931544831"><ele>355.6666666666667</ele><time>2026-04-07T08:05:56Z</time></trkpt><trkpt lat="45.79028156538615" lon="9.985317910970446"><ele>354.0</ele><time>2026-04-07T08:05:57Z</time></trkpt><trkpt lat="45.790214995322266" lon="9.985585597226539"><ele>348.6666666666667</ele><time>2026-04-07T08:05:58Z</time></trkpt><trkpt lat="45.7901709835241" lon="9.98585151049832"><ele>343.33333333333337</ele><time>2026-04-07T08:05:59Z</time></trkpt><trkpt lat="45.79015258941599" lon="9.986114976213104"><ele>338.0</ele><time>2026-04-07T08:06:00Z</time></trkpt><trkpt lat="45.79015841498775" lon="9.986392903183742"><ele>341.6666666666667</ele><time>2026-04-07T08:06:01Z</time></trkpt><trkpt lat="45.790183241598776" lon="9.98667469635869"><ele>345.3333333333333</ele><time>2026-04-07T08:06:02Z</time></trkpt><trkpt lat="45.79022516787505" lon="9.986964896390052"><ele>349.0</ele><time>2026-04-07T08:06:03Z</time></trkpt><trkpt lat="45.79026690994438" lon="9.987245110638689"><ele>349.0</ele><time>2026-04-07T08:06:04Z</time></trkpt><trkpt lat="45.79029959193013" lon="9.987495610296385"><ele>349.0</ele><time>2026-04-07T08:06:05Z</time></trkpt><trkpt lat="45.79032103406209" lon="9.987733110126415"><ele>349.0</ele><time>2026-04-07T08:06:06Z</time></trkpt><trkpt lat="45.790319621016444" lon="9.987949809420963"><ele>348.66666666666663</ele><time>2026-04-07T08:06:07Z</time></trkpt><trkpt lat="45.79030367681276" lon="9.988167817718422"><ele>348.3333333333333</ele><time>2026-04-07T08:06:08Z</time></trkpt><trkpt lat="45.79027551308749" lon="9.98840167828888"><ele>348.0</ele><time>2026-04-07T08:06:09Z</time></trkpt><trkpt lat="45.79022464183196" lon="9.988645065185683"><ele>347.0</ele><time>2026-04-07T08:06:10Z</time></trkpt><trkpt lat="45.790159322250744" lon="9.988877971942049"><ele>346.0</ele><time>2026-04-07T08:06:11Z</time></trkpt><trkpt lat="45.79008332942334" lon="9.989123403208302"><ele>345.0</ele><time>2026-04-07T08:06:12Z</time></trkpt><trkpt lat="45.790003038817126" lon="9.989340301959164"><ele>345.0</ele><time>2026-04-07T08:06:13Z</time></trkpt><trkpt lat="45.78992229905057" lon="9.989541422390847"><ele>345.0</ele><time>2026-04-07T08:06:14Z</time></trkpt><trkpt lat="45.789828193028306" lon="9.989743458607053"><ele>345.0</ele><time>2026-04-07T08:06:15Z</time></trkpt><trkpt lat="45.78972689867184" lon="9.989981205889212"><ele>344.6666666666667</ele><time>2026-04-07T08:06:16Z</time></trkpt><trkpt lat="45.78962519496862" lon="9.990233622364535"><ele>344.33333333333337</ele><time>2026-04-07T08:06:17Z</time></trkpt><trkpt lat="45.78952189867695" lon="9.990490879827993"><ele>344.0</ele><time>2026-04-07T08:06:18Z</time></trkpt><trkpt lat="45.789418200723176" lon="9.990758289144829"><ele>344.0</ele><time>2026-04-07T08:06:19Z</time></trkpt><trkpt lat="45.789316481213305" lon="9.99101627534734"><ele>344.0</ele><time>2026-04-07T08:06:20Z</time></trkpt><trkpt lat="45.78921206950541" lon="9.99127443589301"><ele>344.0</ele><time>2026-04-07T08:06:21Z</time></trkpt><trkpt lat="45.7891071859502" lon="9.99153135624375"><ele>344.33333333333337</ele><time>2026-04-07T08:06:22Z</time></trkpt><trkpt lat="45.78900436069084" lon="9.991784566452052"><ele>344.6666666666667</ele><time>2026-04-07T08:06:23Z</time></trkpt><trkpt lat="45.78890503618706" lon="9.99202986065205"><ele>345.0</ele><time>2026-04-07T08:06:24Z</time></trkpt><trkpt lat="45.7888132580898" lon="9.992253519918032"><ele>345.0</ele><time>2026-04-07T08:06:25Z</time></trkpt><trkpt lat="45.78872557334577" lon="9.992479629287658"><ele>345.0</ele><time>2026-04-07T08:06:26Z</time></trkpt><trkpt lat="45.78864954888004" lon="9.992721076982368"><ele>345.0</ele><time>2026-04-07T08:06:27Z</time></trkpt><trkpt lat="45.788586105374364" lon="9.992974410072751"><ele>345.6666666666667</ele><time>2026-04-07T08:06:28Z</time></trkpt><trkpt lat="45.788534855279515" lon="9.993217398855512"><ele>346.33333333333337</ele><time>2026-04-07T08:06:29Z</time></trkpt><trkpt lat="45.78848962743117" lon="9.99345750746878"><ele>347.0</ele><time>2026-04-07T08:06:30Z</time></trkpt><trkpt lat="45.78844657152344" lon="9.993703747291544"><ele>346.33333333333337</ele><time>2026-04-07T08:06:31Z</time></trkpt><trkpt lat="45.788404134724686" lon="9.993938772401238"><ele>345.6666666666667</ele><time>2026-04-07T08:06:32Z</time></trkpt><trkpt lat="45.788361047246596" lon="9.994184875093996"><ele>345.0</ele><time>2026-04-07T08:06:33Z</time></trkpt><trkpt lat="45.788318194936124" lon="9.994435248626916"><ele>345.0</ele><time>2026-04-07T08:06:34Z</time></trkpt><trkpt lat="45.788276160226516" lon="9.994683817933534"><ele>345.0</ele><time>2026-04-07T08:06:35Z</time></trkpt><trkpt lat="45.78823220749091" lon="9.994928620865037"><ele>345.0</ele><time>2026-04-07T08:06:36Z</time></trkpt><trkpt lat="45.7881915499838" lon="9.995168897652533"><ele>345.3333333333333</ele><time>2026-04-07T08:06:37Z</time></trkpt><trkpt lat="45.78815839687805" lon="9.99541399678875"><ele>345.66666666666663</ele><time>2026-04-07T08:06:38Z</time></trkpt><trkpt lat="45.788133578375856" lon="9.995659249695619"><ele>346.0</ele><time>2026-04-07T08:06:39Z</time></trkpt><trkpt lat="45.788114974661674" lon="9.995908748653402"><ele>346.3333333333333</ele><time>2026-04-07T08:06:40Z</time></trkpt><trkpt lat="45.78809471226065" lon="9.996154789080054"><ele>346.6666666666667</ele><time>2026-04-07T08:06:41Z</time></trkpt><trkpt lat="45.78807163800388" lon="9.996407745893773"><ele>347.0</ele><time>2026-04-07T08:06:42Z</time></trkpt><trkpt lat="45.788031843121345" lon="9.996665797146013"><ele>347.6666666666667</ele><time>2026-04-07T08:06:43Z</time></trkpt><trkpt lat="45.788008753346645" lon="9.996917529669362"><ele>348.3333333333333</ele><time>2026-04-07T08:06:44Z</time></trkpt><trkpt lat="45.78798547500393" lon="9.997166231056461"><ele>349.0</ele><time>2026-04-07T08:06:45Z</time></trkpt><trkpt lat="45.7879917910102" lon="9.997419842725249"><ele>349.66666666666663</ele><time>2026-04-07T08:06:46Z</time></trkpt><trkpt lat="45.787965050006015" lon="9.99766210292589"><ele>350.3333333333333</ele><time>2026-04-07T08:06:47Z</time></trkpt><trkpt lat="45.78793766650485" lon="9.997894899935199"><ele>351.0</ele><time>2026-04-07T08:06:48Z</time></trkpt><trkpt lat="45.78792004668404" lon="9.998110413546792"><ele>351.0</ele><time>2026-04-07T08:06:49Z</time></trkpt><trkpt lat="45.78791520264297" lon="9.99832439327907"><ele>351.0</ele><time>2026-04-07T08:06:50Z</time></trkpt><trkpt lat="45.78792815356231" lon="9.998519874952448"><ele>351.0</ele><time>2026-04-07T08:06:51Z</time></trkpt><trkpt lat="45.78796807090305" lon="9.998704601745908"><ele>351.0</ele><time>2026-04-07T08:06:52Z</time></trkpt><trkpt lat="45.78802898363478" lon="9.99888791638571"><ele>351.3333333333333</ele><time>2026-04-07T08:06:53Z</time></trkpt><trkpt lat="45.78811102647316" lon="9.99906909529066"><ele>351.66666666666663</ele><time>2026-04-07T08:06:54Z</time></trkpt><trkpt lat="45.788214766736864" lon="9.999239782496758"><ele>352.0</ele><time>2026-04-07T08:06:55Z</time></trkpt><trkpt lat="45.788329966705916" lon="9.999421650294531"><ele>351.3333333333333</ele><time>2026-04-07T08:06:56Z</time></trkpt><trkpt lat="45.78845287016924" lon="9.999625518366239"><ele>350.6666666666667</ele><time>2026-04-07T08:06:57Z</time></trkpt><trkpt lat="45.78858071980954" lon="9.999844448517884"><ele>350.0</ele><time>2026-04-07T08:06:58Z</time></trkpt><trkpt lat="45.788712611013906" lon="10.000072643101152"><ele>351.6666666666667</ele><time>2026-04-07T08:06:59Z</time></trkpt><trkpt lat="45.788834285638096" lon="10.00028424744673"><ele>353.3333333333333</ele><time>2026-04-07T08:07:00Z</time></trkpt><trkpt lat="45.78893823314947" lon="10.000464607946036"><ele>355.0</ele><time>2026-04-07T08:07:01Z</time></trkpt><trkpt lat="45.789040354178304" lon="10.00063578803119"><ele>355.0</ele><time>2026-04-07T08:07:02Z</time></trkpt><trkpt lat="45.78913955550012" lon="10.000801143139157"><ele>355.0</ele><time>2026-04-07T08:07:03Z</time></trkpt><trkpt lat="45.789250377714175" lon="10.000976441386532"><ele>355.0</ele><time>2026-04-07T08:07:03.999Z</time></trkpt><trkpt lat="45.78937326491634" lon="10.001148349416047"><ele>355.0</ele><time>2026-04-07T08:07:04.999Z</time></trkpt><trkpt lat="45.78948589656037" lon="10.001274313716689"><ele>355.0</ele><time>2026-04-07T08:07:05.999Z</time></trkpt><trkpt lat="45.78960076368422" lon="10.00137088154327"><ele>355.0</ele><time>2026-04-07T08:07:06.999Z</time></trkpt><trkpt lat="45.789709087331545" lon="10.001444340370517"><ele>355.0</ele><time>2026-04-07T08:07:07.999Z</time></trkpt><trkpt lat="45.789811450830705" lon="10.001513604176472"><ele>355.0</ele><time>2026-04-07T08:07:08.999Z</time></trkpt><trkpt lat="45.789908758160756" lon="10.00159047301056"><ele>355.0</ele><time>2026-04-07T08:07:09.999Z</time></trkpt><trkpt lat="45.789994189728375" lon="10.00167195853772"><ele>355.0</ele><time>2026-04-07T08:07:10.999Z</time></trkpt><trkpt lat="45.790071673403425" lon="10.001762359384017"><ele>355.0</ele><time>2026-04-07T08:07:11.999Z</time></trkpt><trkpt lat="45.790142599680124" lon="10.001851026219413"><ele>355.0</ele><time>2026-04-07T08:07:12.999Z</time></trkpt><trkpt lat="45.79020451350628" lon="10.001934600686578"><ele>354.5</ele><time>2026-04-07T08:07:13.999Z</time></trkpt><trkpt lat="45.790262225798635" lon="10.002028914415778"><ele>354.0</ele><time>2026-04-07T08:07:14.999Z</time></trkpt><trkpt lat="45.790302654807554" lon="10.002129863454817"><ele>353.5</ele><time>2026-04-07T08:07:15.999Z</time></trkpt><trkpt lat="45.79032539311051" lon="10.00224102859343"><ele>353.0</ele><time>2026-04-07T08:07:16.999Z</time></trkpt><trkpt lat="45.7903313852102" lon="10.002349165393998"><ele>352.5</ele><time>2026-04-07T08:07:17.999Z</time></trkpt><trkpt lat="45.7903351449452" lon="10.002451354050528"><ele>352.0</ele><time>2026-04-07T08:07:18.999Z</time></trkpt><trkpt lat="45.79036083643925" lon="10.002547937704296"><ele>351.0</ele><time>2026-04-07T08:07:19.999Z</time></trkpt><trkpt lat="45.79041458679055" lon="10.002624167253188"><ele>350.0</ele><time>2026-04-07T08:07:20.999Z</time></trkpt><trkpt lat="45.790487910427764" lon="10.00265274291461"><ele>349.0</ele><time>2026-04-07T08:07:21.999Z</time></trkpt><trkpt lat="45.790578903932044" lon="10.002635596403893"><ele>348.0</ele><time>2026-04-07T08:07:22.999Z</time></trkpt><trkpt lat="45.79065853046944" lon="10.002576579138095"><ele>347.0</ele><time>2026-04-07T08:07:23.999Z</time></trkpt><trkpt lat="45.7907381126045" lon="10.002541013223807"><ele>346.0</ele><time>2026-04-07T08:07:24.999Z</time></trkpt><trkpt lat="45.79081910386091" lon="10.002531748759909"><ele>346.0</ele><time>2026-04-07T08:07:25.999Z</time></trkpt><trkpt lat="45.79091218913113" lon="10.002547969652168"><ele>346.0</ele><time>2026-04-07T08:07:26.999Z</time></trkpt><trkpt lat="45.791024858475765" lon="10.002618289571808"><ele>346.0</ele><time>2026-04-07T08:07:27.999Z</time></trkpt><trkpt lat="45.791133878133834" lon="10.002691840482104"><ele>346.0</ele><time>2026-04-07T08:07:28.999Z</time></trkpt><trkpt lat="45.79125501417522" lon="10.002797961267083"><ele>348.75</ele><time>2026-04-07T08:07:29.999Z</time></trkpt><trkpt lat="45.79136744821358" lon="10.002889158237618"><ele>351.5</ele><time>2026-04-07T08:07:30.999Z</time></trkpt><trkpt lat="45.79143889388106" lon="10.003001251699665"><ele>354.25</ele><time>2026-04-07T08:07:31.999Z</time></trkpt><trkpt lat="45.79151990527617" lon="10.003094276340073"><ele>357.0</ele><time>2026-04-07T08:07:32.999Z</time></trkpt><trkpt lat="45.79162357790962" lon="10.003208714982511"><ele>357.0</ele><time>2026-04-07T08:07:33.999Z</time></trkpt><trkpt lat="45.7917296208649" lon="10.003329349167279"><ele>357.0</ele><time>2026-04-07T08:07:34.999Z</time></trkpt><trkpt lat="45.79183345973956" lon="10.003447662137392"><ele>357.0</ele><time>2026-04-07T08:07:35.999Z</time></trkpt><trkpt lat="45.791952377592956" lon="10.00358282099571"><ele>357.0</ele><time>2026-04-07T08:07:36.999Z</time></trkpt><trkpt lat="45.792066998399505" lon="10.003711354787367"><ele>358.3333333333333</ele><time>2026-04-07T08:07:37.999Z</time></trkpt><trkpt lat="45.792187086513586" lon="10.00384601949854"><ele>359.66666666666663</ele><time>2026-04-07T08:07:38.999Z</time></trkpt><trkpt lat="45.792317392015185" lon="10.003992141766759"><ele>361.0</ele><time>2026-04-07T08:07:39.999Z</time></trkpt><trkpt lat="45.792461979568095" lon="10.004151423194692"><ele>358.0</ele><time>2026-04-07T08:07:40.999Z</time></trkpt><trkpt lat="45.79263103439073" lon="10.004292193633574"><ele>355.0</ele><time>2026-04-07T08:07:41.999Z</time></trkpt><trkpt lat="45.79278502924703" lon="10.004475866418941"><ele>352.0</ele><time>2026-04-07T08:07:43Z</time></trkpt><trkpt lat="45.79295053124533" lon="10.004660634598807"><ele>353.0</ele><time>2026-04-07T08:07:44Z</time></trkpt><trkpt lat="45.7931286859917" lon="10.004852035934505"><ele>354.0</ele><time>2026-04-07T08:07:45Z</time></trkpt><trkpt lat="45.79329455317417" lon="10.005070927126777"><ele>355.0</ele><time>2026-04-07T08:07:46Z</time></trkpt><trkpt lat="45.793472810955585" lon="10.00528006693601"><ele>352.3333333333333</ele><time>2026-04-07T08:07:47Z</time></trkpt><trkpt lat="45.79361236874446" lon="10.00547726511572"><ele>349.6666666666667</ele><time>2026-04-07T08:07:48Z</time></trkpt><trkpt lat="45.79373174069334" lon="10.005701014337935"><ele>347.0</ele><time>2026-04-07T08:07:49Z</time></trkpt><trkpt lat="45.79382765097056" lon="10.005936061882785"><ele>347.0</ele><time>2026-04-07T08:07:50Z</time></trkpt><trkpt lat="45.793887840618865" lon="10.006208348862705"><ele>347.0</ele><time>2026-04-07T08:07:51Z</time></trkpt><trkpt lat="45.79393891242083" lon="10.006516739966893"><ele>347.0</ele><time>2026-04-07T08:07:52Z</time></trkpt><trkpt lat="45.79396531677828" lon="10.006847236051854"><ele>347.0</ele><time>2026-04-07T08:07:53Z</time></trkpt><trkpt lat="45.79398819848762" lon="10.00715878237037"><ele>347.0</ele><time>2026-04-07T08:07:54Z</time></trkpt><trkpt lat="45.79401225123359" lon="10.007451441117386"><ele>347.0</ele><time>2026-04-07T08:07:55Z</time></trkpt><trkpt lat="45.794032798939924" lon="10.007681489441847"><ele>347.0</ele><time>2026-04-07T08:07:56Z</time></trkpt><trkpt lat="45.79404801595223" lon="10.007901713134002"><ele>347.0</ele><time>2026-04-07T08:07:57Z</time></trkpt><trkpt lat="45.79407473886286" lon="10.008120349774694"><ele>347.0</ele><time>2026-04-07T08:07:58Z</time></trkpt><trkpt lat="45.79412298487616" lon="10.008346110658268"><ele>347.0</ele><time>2026-04-07T08:07:59Z</time></trkpt><trkpt lat="45.79420728564564" lon="10.008561040932568"><ele>347.0</ele><time>2026-04-07T08:08:00Z</time></trkpt><trkpt lat="45.79432385546406" lon="10.008764543191361"><ele>347.0</ele><time>2026-04-07T08:08:01Z</time></trkpt><trkpt lat="45.794468924182226" lon="10.008965262637915"><ele>347.0</ele><time>2026-04-07T08:08:02Z</time></trkpt><trkpt lat="45.79462790243136" lon="10.009135297828918"><ele>347.0</ele><time>2026-04-07T08:08:03Z</time></trkpt><trkpt lat="45.79478439776303" lon="10.009265704146248"><ele>347.0</ele><time>2026-04-07T08:08:04Z</time></trkpt><trkpt lat="45.79491461099336" lon="10.009378904730657"><ele>347.0</ele><time>2026-04-07T08:08:05Z</time></trkpt><trkpt lat="45.79500942522102" lon="10.009498189665047"><ele>347.0</ele><time>2026-04-07T08:08:06Z</time></trkpt><trkpt lat="45.79508800313166" lon="10.009573666627706"><ele>347.0</ele><time>2026-04-07T08:08:07Z</time></trkpt><trkpt lat="45.795147622099826" lon="10.009630934373746"><ele>347.0</ele><time>2026-04-07T08:08:08Z</time></trkpt><trkpt lat="45.795209354754654" lon="10.00969023100622"><ele>347.0</ele><time>2026-04-07T08:08:09Z</time></trkpt><trkpt lat="45.79528605949897" lon="10.009735511354744"><ele>347.0</ele><time>2026-04-07T08:08:10Z</time></trkpt><trkpt lat="45.79535653924829" lon="10.009805861346022"><ele>347.0</ele><time>2026-04-07T08:08:11Z</time></trkpt><trkpt lat="45.795435146970796" lon="10.009909972572892"><ele>347.0</ele><time>2026-04-07T08:08:13Z</time></trkpt><trkpt lat="45.795506734776204" lon="10.009981063532818"><ele>347.0</ele><time>2026-04-07T08:08:15Z</time></trkpt><trkpt lat="45.79558533729249" lon="10.01005956809753"><ele>347.0</ele><time>2026-04-07T08:08:17Z</time></trkpt><trkpt lat="45.79566918525479" lon="10.010144525440676"><ele>347.6</ele><time>2026-04-07T08:08:19Z</time></trkpt><trkpt lat="45.79578366389431" lon="10.010262073506928"><ele>348.20000000000005</ele><time>2026-04-07T08:08:21Z</time></trkpt><trkpt lat="45.79586086516121" lon="10.010344764844136"><ele>348.8</ele><time>2026-04-07T08:08:22Z</time></trkpt><trkpt lat="45.79593707791655" lon="10.010427313555155"><ele>349.4</ele><time>2026-04-07T08:08:23Z</time></trkpt><trkpt lat="45.795999864050344" lon="10.01049933011407"><ele>350.0</ele><time>2026-04-07T08:08:24Z</time></trkpt><trkpt lat="45.79604959126101" lon="10.010556537174445"><ele>350.0</ele><time>2026-04-07T08:08:25Z</time></trkpt><trkpt lat="45.79615220718334" lon="10.010648086388759"><ele>350.0</ele><time>2026-04-07T08:08:27Z</time></trkpt><trkpt lat="45.796205651137605" lon="10.010714771264585"><ele>350.0</ele><time>2026-04-07T08:08:28Z</time></trkpt><trkpt lat="45.79627314621285" lon="10.010818778157965"><ele>350.0</ele><time>2026-04-07T08:08:29Z</time></trkpt><trkpt lat="45.79636776022909" lon="10.010931703506875"><ele>350.0</ele><time>2026-04-07T08:08:30Z</time></trkpt><trkpt lat="45.796461066621234" lon="10.011044504651679"><ele>350.0</ele><time>2026-04-07T08:08:31Z</time></trkpt><trkpt lat="45.7965623487789" lon="10.011170325466841"><ele>350.0</ele><time>2026-04-07T08:08:32Z</time></trkpt><trkpt lat="45.79665414885827" lon="10.011287711988956"><ele>350.0</ele><time>2026-04-07T08:08:33Z</time></trkpt><trkpt lat="45.79675135560975" lon="10.011412645675945"><ele>350.0</ele><time>2026-04-07T08:08:34Z</time></trkpt><trkpt lat="45.79685664564044" lon="10.011545904377929"><ele>349.6666666666667</ele><time>2026-04-07T08:08:35Z</time></trkpt><trkpt lat="45.796976049911635" lon="10.011666588522344"><ele>349.3333333333333</ele><time>2026-04-07T08:08:36Z</time></trkpt><trkpt lat="45.797090869452745" lon="10.011812283581982"><ele>349.0</ele><time>2026-04-07T08:08:37Z</time></trkpt><trkpt lat="45.79720063897744" lon="10.011980982506772"><ele>349.0</ele><time>2026-04-07T08:08:38Z</time></trkpt><trkpt lat="45.79731319379009" lon="10.01212567127217"><ele>349.0</ele><time>2026-04-07T08:08:39Z</time></trkpt><trkpt lat="45.79743676583092" lon="10.012285459521529"><ele>349.0</ele><time>2026-04-07T08:08:40Z</time></trkpt><trkpt lat="45.797565560150886" lon="10.012453180989867"><ele>349.3333333333333</ele><time>2026-04-07T08:08:41Z</time></trkpt><trkpt lat="45.79771405431807" lon="10.012653949467795"><ele>349.6666666666667</ele><time>2026-04-07T08:08:42Z</time></trkpt><trkpt lat="45.79784219739763" lon="10.012840640172922"><ele>350.0</ele><time>2026-04-07T08:08:43Z</time></trkpt><trkpt lat="45.797952678343194" lon="10.01301115206778"><ele>350.0</ele><time>2026-04-07T08:08:44Z</time></trkpt><trkpt lat="45.798044375656076" lon="10.013205092827747"><ele>350.0</ele><time>2026-04-07T08:08:45Z</time></trkpt><trkpt lat="45.79815857714" lon="10.013452613640736"><ele>350.0</ele><time>2026-04-07T08:08:46Z</time></trkpt><trkpt lat="45.798247752638474" lon="10.01367559517626"><ele>348.0</ele><time>2026-04-07T08:08:47Z</time></trkpt><trkpt lat="45.798332135797395" lon="10.013897425543252"><ele>346.0</ele><time>2026-04-07T08:08:48Z</time></trkpt><trkpt lat="45.79840848417762" lon="10.01411679839442"><ele>344.0</ele><time>2026-04-07T08:08:49Z</time></trkpt><trkpt lat="45.798492821873545" lon="10.014328904295223"><ele>344.33333333333337</ele><time>2026-04-07T08:08:50Z</time></trkpt><trkpt lat="45.79857513798515" lon="10.014563020502097"><ele>344.6666666666667</ele><time>2026-04-07T08:08:51Z</time></trkpt><trkpt lat="45.79865444424119" lon="10.01479598038145"><ele>345.0</ele><time>2026-04-07T08:08:52Z</time></trkpt><trkpt lat="45.798730662417185" lon="10.015010497352154"><ele>344.3333333333333</ele><time>2026-04-07T08:08:53Z</time></trkpt><trkpt lat="45.798805066295955" lon="10.015215208325486"><ele>343.66666666666663</ele><time>2026-04-07T08:08:54Z</time></trkpt><trkpt lat="45.79887267289519" lon="10.015408781765895"><ele>343.0</ele><time>2026-04-07T08:08:55Z</time></trkpt><trkpt lat="45.79894569856494" lon="10.015616397794552"><ele>343.0</ele><time>2026-04-07T08:08:56Z</time></trkpt><trkpt lat="45.799003697460186" lon="10.015829185018994"><ele>343.0</ele><time>2026-04-07T08:08:57Z</time></trkpt><trkpt lat="45.79908395823862" lon="10.016012874387439"><ele>343.0</ele><time>2026-04-07T08:08:58Z</time></trkpt><trkpt lat="45.79913985132328" lon="10.016192823940308"><ele>343.0</ele><time>2026-04-07T08:08:59Z</time></trkpt><trkpt lat="45.799198596564665" lon="10.01637155495649"><ele>343.0</ele><time>2026-04-07T08:09:00Z</time></trkpt><trkpt lat="45.799262262702584" lon="10.016554166480194"><ele>343.0</ele><time>2026-04-07T08:09:01Z</time></trkpt><trkpt lat="45.79932354771128" lon="10.016737672239046"><ele>343.0</ele><time>2026-04-07T08:09:02Z</time></trkpt><trkpt lat="45.799388715001285" lon="10.016918698757271"><ele>343.0</ele><time>2026-04-07T08:09:03Z</time></trkpt><trkpt lat="45.79945125900343" lon="10.0170950282806"><ele>343.25</ele><time>2026-04-07T08:09:04Z</time></trkpt><trkpt lat="45.79951187422731" lon="10.017279542485326"><ele>343.5</ele><time>2026-04-07T08:09:05Z</time></trkpt><trkpt lat="45.79956666260425" lon="10.017444982465989"><ele>343.75</ele><time>2026-04-07T08:09:05.999Z</time></trkpt><trkpt lat="45.79961671895291" lon="10.017587355283668"><ele>344.0</ele><time>2026-04-07T08:09:06.999Z</time></trkpt><trkpt lat="45.79967154648117" lon="10.017726811214931"><ele>344.0</ele><time>2026-04-07T08:09:07.999Z</time></trkpt><trkpt lat="45.799725707043685" lon="10.01785768654928"><ele>344.0</ele><time>2026-04-07T08:09:08.999Z</time></trkpt><trkpt lat="45.7997752417582" lon="10.017982128804345"><ele>344.0</ele><time>2026-04-07T08:09:09.999Z</time></trkpt><trkpt lat="45.79982637783546" lon="10.018106525980178"><ele>344.0</ele><time>2026-04-07T08:09:10.999Z</time></trkpt><trkpt lat="45.79987978321292" lon="10.018231889962292"><ele>344.0</ele><time>2026-04-07T08:09:11.999Z</time></trkpt><trkpt lat="45.79993495299101" lon="10.018355703051222"><ele>344.0</ele><time>2026-04-07T08:09:12.999Z</time></trkpt><trkpt lat="45.799979780469364" lon="10.018473524180541"><ele>344.0</ele><time>2026-04-07T08:09:13.999Z</time></trkpt><trkpt lat="45.80002429470608" lon="10.018587277423622"><ele>344.0</ele><time>2026-04-07T08:09:14.999Z</time></trkpt><trkpt lat="45.800070068324146" lon="10.018735442655604"><ele>344.0</ele><time>2026-04-07T08:09:15.999Z</time></trkpt><trkpt lat="45.80011730982447" lon="10.018903479436643"><ele>344.0</ele><time>2026-04-07T08:09:16.999Z</time></trkpt><trkpt lat="45.80017761764669" lon="10.019085225299504"><ele>343.33333333333337</ele><time>2026-04-07T08:09:17.999Z</time></trkpt><trkpt lat="45.80025097048258" lon="10.019267604615719"><ele>342.6666666666667</ele><time>2026-04-07T08:09:18.999Z</time></trkpt><trkpt lat="45.800361441254545" lon="10.019440059517759"><ele>342.0</ele><time>2026-04-07T08:09:19.999Z</time></trkpt><trkpt lat="45.800488074787886" lon="10.019607621160878"><ele>342.0</ele><time>2026-04-07T08:09:20.999Z</time></trkpt><trkpt lat="45.80062558201851" lon="10.019759571026617"><ele>342.0</ele><time>2026-04-07T08:09:21.999Z</time></trkpt><trkpt lat="45.800783854954304" lon="10.019894867105178"><ele>342.0</ele><time>2026-04-07T08:09:22.999Z</time></trkpt><trkpt lat="45.800961215668835" lon="10.020033986246283"><ele>343.0</ele><time>2026-04-07T08:09:23.999Z</time></trkpt><trkpt lat="45.801140435366335" lon="10.020170905078436"><ele>344.0</ele><time>2026-04-07T08:09:24.999Z</time></trkpt><trkpt lat="45.80132791884631" lon="10.020306549087211"><ele>345.0</ele><time>2026-04-07T08:09:25.999Z</time></trkpt><trkpt lat="45.80152094982473" lon="10.020432206054517"><ele>345.0</ele><time>2026-04-07T08:09:26.999Z</time></trkpt><trkpt lat="45.80170752209721" lon="10.02054062999398"><ele>345.0</ele><time>2026-04-07T08:09:27.999Z</time></trkpt><trkpt lat="45.80187559309014" lon="10.020629245703864"><ele>345.0</ele><time>2026-04-07T08:09:28.999Z</time></trkpt><trkpt lat="45.802024075673906" lon="10.020708075977598"><ele>345.0</ele><time>2026-04-07T08:09:29.999Z</time></trkpt><trkpt lat="45.80217044289607" lon="10.020793955376407"><ele>345.0</ele><time>2026-04-07T08:09:30.999Z</time></trkpt><trkpt lat="45.80233906278595" lon="10.020889300484297"><ele>345.0</ele><time>2026-04-07T08:09:31.999Z</time></trkpt><trkpt lat="45.802527306163554" lon="10.02099544682265"><ele>345.0</ele><time>2026-04-07T08:09:32.999Z</time></trkpt><trkpt lat="45.8027217359114" lon="10.02110407084016"><ele>345.0</ele><time>2026-04-07T08:09:33.999Z</time></trkpt><trkpt lat="45.80291316157116" lon="10.021213989454807"><ele>345.0</ele><time>2026-04-07T08:09:34.999Z</time></trkpt><trkpt lat="45.80309998005603" lon="10.021332443914153"><ele>345.0</ele><time>2026-04-07T08:09:35.999Z</time></trkpt><trkpt lat="45.80328387737757" lon="10.021475821418466"><ele>345.0</ele><time>2026-04-07T08:09:36.999Z</time></trkpt><trkpt lat="45.803460939012844" lon="10.021645003231262"><ele>345.0</ele><time>2026-04-07T08:09:37.999Z</time></trkpt><trkpt lat="45.80362549747884" lon="10.021832288700674"><ele>344.6666666666667</ele><time>2026-04-07T08:09:38.999Z</time></trkpt><trkpt lat="45.803783481964125" lon="10.022045452972533"><ele>344.33333333333337</ele><time>2026-04-07T08:09:39.999Z</time></trkpt><trkpt lat="45.80393573747505" lon="10.022282900642963"><ele>344.0</ele><time>2026-04-07T08:09:40.999Z</time></trkpt><trkpt lat="45.80408548353551" lon="10.022538560851595"><ele>344.5</ele><time>2026-04-07T08:09:41.999Z</time></trkpt><trkpt lat="45.804233042202405" lon="10.022799186896753"><ele>345.0</ele><time>2026-04-07T08:09:42.999Z</time></trkpt><trkpt lat="45.80436714641117" lon="10.023073394411291"><ele>345.0</ele><time>2026-04-07T08:09:43.999Z</time></trkpt><trkpt lat="45.80451423975211" lon="10.023288411841971"><ele>345.0</ele><time>2026-04-07T08:09:44.999Z</time></trkpt><trkpt lat="45.80465369367128" lon="10.023504645137484"><ele>345.0</ele><time>2026-04-07T08:09:45.999Z</time></trkpt><trkpt lat="45.80479329892243" lon="10.023692070267467"><ele>345.0</ele><time>2026-04-07T08:09:46.999Z</time></trkpt><trkpt lat="45.804930732167804" lon="10.023857978600859"><ele>345.0</ele><time>2026-04-07T08:09:47.999Z</time></trkpt><trkpt lat="45.80508543223843" lon="10.024008664195279"><ele>345.0</ele><time>2026-04-07T08:09:49Z</time></trkpt><trkpt lat="45.805250057223994" lon="10.02415033376162"><ele>345.0</ele><time>2026-04-07T08:09:50Z</time></trkpt><trkpt lat="45.80542392247618" lon="10.024313355367086"><ele>345.0</ele><time>2026-04-07T08:09:51Z</time></trkpt><trkpt lat="45.805592258998" lon="10.02449492814769"><ele>345.0</ele><time>2026-04-07T08:09:52Z</time></trkpt><trkpt lat="45.80574980723627" lon="10.024693366315395"><ele>345.0</ele><time>2026-04-07T08:09:53Z</time></trkpt><trkpt lat="45.8058998077593" lon="10.02491673570074"><ele>345.0</ele><time>2026-04-07T08:09:54Z</time></trkpt><trkpt lat="45.80604056003716" lon="10.025149327155283"><ele>345.0</ele><time>2026-04-07T08:09:55Z</time></trkpt><trkpt lat="45.80617475524729" lon="10.025394891140223"><ele>344.3333333333333</ele><time>2026-04-07T08:09:56Z</time></trkpt><trkpt lat="45.806299089338964" lon="10.02565352765229"><ele>343.66666666666663</ele><time>2026-04-07T08:09:57Z</time></trkpt><trkpt lat="45.806415347958655" lon="10.02592587315511"><ele>343.0</ele><time>2026-04-07T08:09:58Z</time></trkpt><trkpt lat="45.80651769151119" lon="10.026190056873556"><ele>344.3333333333333</ele><time>2026-04-07T08:09:59Z</time></trkpt><trkpt lat="45.80660758070546" lon="10.026463187517031"><ele>345.6666666666667</ele><time>2026-04-07T08:10:00Z</time></trkpt><trkpt lat="45.80666646908113" lon="10.026747561389374"><ele>347.0</ele><time>2026-04-07T08:10:01Z</time></trkpt><trkpt lat="45.80670477002625" lon="10.027043627838877"><ele>349.33333333333337</ele><time>2026-04-07T08:10:02Z</time></trkpt><trkpt lat="45.80672673388682" lon="10.027355058292576"><ele>351.6666666666667</ele><time>2026-04-07T08:10:03Z</time></trkpt><trkpt lat="45.80674647961068" lon="10.027667060387186"><ele>354.0</ele><time>2026-04-07T08:10:04Z</time></trkpt><trkpt lat="45.80677429542353" lon="10.027986286374405"><ele>353.0</ele><time>2026-04-07T08:10:05Z</time></trkpt><trkpt lat="45.80681597668596" lon="10.028316816600611"><ele>352.0</ele><time>2026-04-07T08:10:06.073Z</time></trkpt><trkpt lat="45.80685720211658" lon="10.028651419082577"><ele>352.0</ele><time>2026-04-07T08:10:07.067Z</time></trkpt><trkpt lat="45.80689886297714" lon="10.028992578337988"><ele>352.0</ele><time>2026-04-07T08:10:08.071Z</time></trkpt><trkpt lat="45.806941392479665" lon="10.029340849670458"><ele>352.66666666666663</ele><time>2026-04-07T08:10:09.066Z</time></trkpt><trkpt lat="45.8069778109956" lon="10.029639078251757"><ele>353.3333333333333</ele><time>2026-04-07T08:10:10.062Z</time></trkpt><trkpt lat="45.807014274780514" lon="10.029937677324272"><ele>354.0</ele><time>2026-04-07T08:10:11.058Z</time></trkpt><trkpt lat="45.8070552" lon="10.0293735"><ele>352.0</ele><time>2026-04-07T08:10:14.278Z</time></trkpt><trkpt lat="45.80732715462798" lon="10.031390577986842"><ele>352.0</ele><time>2026-04-07T08:10:17Z</time></trkpt><trkpt lat="45.80735612911035" lon="10.031629062423514"><ele>352.0</ele><time>2026-04-07T08:10:18Z</time></trkpt><trkpt lat="45.80739615097263" lon="10.031846095637476"><ele>352.0</ele><time>2026-04-07T08:10:19Z</time></trkpt><trkpt lat="45.807410054485565" lon="10.03207671895191"><ele>350.75</ele><time>2026-04-07T08:10:20Z</time></trkpt><trkpt lat="45.80741635866123" lon="10.032271379913059"><ele>349.5</ele><time>2026-04-07T08:10:21Z</time></trkpt><trkpt lat="45.80742914606512" lon="10.032482656498066"><ele>348.25</ele><time>2026-04-07T08:10:22Z</time></trkpt><trkpt lat="45.80744778459084" lon="10.032688557588799"><ele>347.0</ele><time>2026-04-07T08:10:23Z</time></trkpt><trkpt lat="45.80746243098513" lon="10.032913760179467"><ele>346.25</ele><time>2026-04-07T08:10:24Z</time></trkpt><trkpt lat="45.80747533488582" lon="10.033139501859726"><ele>345.5</ele><time>2026-04-07T08:10:25Z</time></trkpt><trkpt lat="45.80748352416226" lon="10.033353653907538"><ele>344.75</ele><time>2026-04-07T08:10:26Z</time></trkpt><trkpt lat="45.80747846659267" lon="10.033544969238864"><ele>344.0</ele><time>2026-04-07T08:10:27Z</time></trkpt><trkpt lat="45.807455326649276" lon="10.03374909406313"><ele>343.6666666666667</ele><time>2026-04-07T08:10:28Z</time></trkpt><trkpt lat="45.807443876881095" lon="10.033968929546216"><ele>343.3333333333333</ele><time>2026-04-07T08:10:29Z</time></trkpt><trkpt lat="45.807438505487205" lon="10.03418768495817"><ele>343.0</ele><time>2026-04-07T08:10:30Z</time></trkpt><trkpt lat="45.80742266983936" lon="10.03439330444725"><ele>343.0</ele><time>2026-04-07T08:10:31Z</time></trkpt><trkpt lat="45.8074002827396" lon="10.034591492101855"><ele>343.0</ele><time>2026-04-07T08:10:32Z</time></trkpt><trkpt lat="45.807377250111166" lon="10.034815250859838"><ele>343.0</ele><time>2026-04-07T08:10:33Z</time></trkpt><trkpt lat="45.80735161388383" lon="10.03502705545562"><ele>343.0</ele><time>2026-04-07T08:10:34Z</time></trkpt><trkpt lat="45.80732097951122" lon="10.035225462146395"><ele>344.3333333333333</ele><time>2026-04-07T08:10:35Z</time></trkpt><trkpt lat="45.8072841180464" lon="10.035439291504028"><ele>345.6666666666667</ele><time>2026-04-07T08:10:36Z</time></trkpt><trkpt lat="45.80724347536704" lon="10.035659086831275"><ele>347.0</ele><time>2026-04-07T08:10:37Z</time></trkpt><trkpt lat="45.807200870910584" lon="10.035881070503045"><ele>347.33333333333337</ele><time>2026-04-07T08:10:38Z</time></trkpt><trkpt lat="45.80715538288433" lon="10.036101761347947"><ele>347.6666666666667</ele><time>2026-04-07T08:10:39Z</time></trkpt><trkpt lat="45.807105957659275" lon="10.036327902206295"><ele>348.0</ele><time>2026-04-07T08:10:40Z</time></trkpt><trkpt lat="45.80705873551493" lon="10.036563603242856"><ele>344.3333333333333</ele><time>2026-04-07T08:10:41Z</time></trkpt><trkpt lat="45.80701299533334" lon="10.036805349489448"><ele>340.66666666666663</ele><time>2026-04-07T08:10:42Z</time></trkpt><trkpt lat="45.80696557542152" lon="10.037024134730933"><ele>337.0</ele><time>2026-04-07T08:10:43Z</time></trkpt><trkpt lat="45.806918783045994" lon="10.037246967663194"><ele>338.3333333333333</ele><time>2026-04-07T08:10:44Z</time></trkpt><trkpt lat="45.806869128650085" lon="10.037500488871384"><ele>339.6666666666667</ele><time>2026-04-07T08:10:45Z</time></trkpt><trkpt lat="45.80681544279091" lon="10.037741482930677"><ele>341.0</ele><time>2026-04-07T08:10:46Z</time></trkpt><trkpt lat="45.806765948183646" lon="10.037970257482918"><ele>341.0</ele><time>2026-04-07T08:10:47Z</time></trkpt><trkpt lat="45.806715505899064" lon="10.03820627513862"><ele>341.0</ele><time>2026-04-07T08:10:48Z</time></trkpt><trkpt lat="45.80665688950849" lon="10.038480502440828"><ele>341.0</ele><time>2026-04-07T08:10:49Z</time></trkpt><trkpt lat="45.80658966382502" lon="10.038786998545225"><ele>338.0</ele><time>2026-04-07T08:10:50Z</time></trkpt><trkpt lat="45.80651461188502" lon="10.039092848595608"><ele>335.0</ele><time>2026-04-07T08:10:51Z</time></trkpt><trkpt lat="45.80642890950696" lon="10.039398178485147"><ele>329.0</ele><time>2026-04-07T08:10:52Z</time></trkpt><trkpt lat="45.80633108187935" lon="10.03970549404639"><ele>323.0</ele><time>2026-04-07T08:10:53Z</time></trkpt><trkpt lat="45.80623308509079" lon="10.040005742477405"><ele>316.5</ele><time>2026-04-07T08:10:54Z</time></trkpt><trkpt lat="45.80614320669138" lon="10.040309200234423"><ele>310.0</ele><time>2026-04-07T08:10:55Z</time></trkpt><trkpt lat="45.806054291354386" lon="10.040617757943467"><ele>319.5</ele><time>2026-04-07T08:10:56Z</time></trkpt><trkpt lat="45.80596506760143" lon="10.040927548048213"><ele>329.0</ele><time>2026-04-07T08:10:57Z</time></trkpt><trkpt lat="45.80587305468537" lon="10.041239561272468"><ele>329.0</ele><time>2026-04-07T08:10:58Z</time></trkpt><trkpt lat="45.805780727901166" lon="10.041558648158707"><ele>329.0</ele><time>2026-04-07T08:10:59Z</time></trkpt><trkpt lat="45.80569004033805" lon="10.041885557659414"><ele>323.0</ele><time>2026-04-07T08:11:00Z</time></trkpt><trkpt lat="45.805601482607685" lon="10.042209023354868"><ele>317.0</ele><time>2026-04-07T08:11:01Z</time></trkpt><trkpt lat="45.80551462145044" lon="10.042532105944947"><ele>312.0</ele><time>2026-04-07T08:11:02Z</time></trkpt><trkpt lat="45.80542329728198" lon="10.042859703652486"><ele>307.0</ele><time>2026-04-07T08:11:03Z</time></trkpt><trkpt lat="45.805335608602235" lon="10.043185888386889"><ele>304.5</ele><time>2026-04-07T08:11:04Z</time></trkpt><trkpt lat="45.80525662363217" lon="10.04352708623662"><ele>302.0</ele><time>2026-04-07T08:11:05Z</time></trkpt><trkpt lat="45.80518654729765" lon="10.043862841077003"><ele>308.5</ele><time>2026-04-07T08:11:06Z</time></trkpt><trkpt lat="45.80513165247017" lon="10.044202954960513"><ele>315.0</ele><time>2026-04-07T08:11:07Z</time></trkpt><trkpt lat="45.805090339275345" lon="10.044548673786435"><ele>315.0</ele><time>2026-04-07T08:11:08Z</time></trkpt><trkpt lat="45.8050627221902" lon="10.044888201481523"><ele>315.0</ele><time>2026-04-07T08:11:08.999Z</time></trkpt><trkpt lat="45.80504704478954" lon="10.045240522623109"><ele>310.0</ele><time>2026-04-07T08:11:09.999Z</time></trkpt><trkpt lat="45.805042864335086" lon="10.045588326285204"><ele>305.0</ele><time>2026-04-07T08:11:10.999Z</time></trkpt><trkpt lat="45.80505416292211" lon="10.045931385869308"><ele>302.0</ele><time>2026-04-07T08:11:11.999Z</time></trkpt><trkpt lat="45.80508057908085" lon="10.046281895033342"><ele>299.0</ele><time>2026-04-07T08:11:12.999Z</time></trkpt><trkpt lat="45.805121717983724" lon="10.046622865880638"><ele>296.0</ele><time>2026-04-07T08:11:13.999Z</time></trkpt><trkpt lat="45.80517365011613" lon="10.04696020442652"><ele>293.0</ele><time>2026-04-07T08:11:14.999Z</time></trkpt><trkpt lat="45.80523296295855" lon="10.04730313253897"><ele>292.0</ele><time>2026-04-07T08:11:15.999Z</time></trkpt><trkpt lat="45.80530273508983" lon="10.047625546701294"><ele>291.0</ele><time>2026-04-07T08:11:16.999Z</time></trkpt><trkpt lat="45.80538242092464" lon="10.047921443145045"><ele>291.0</ele><time>2026-04-07T08:11:17.999Z</time></trkpt><trkpt lat="45.80547570030286" lon="10.048214939181324"><ele>291.0</ele><time>2026-04-07T08:11:18.999Z</time></trkpt><trkpt lat="45.80557936355923" lon="10.048513428074212"><ele>291.0</ele><time>2026-04-07T08:11:19.999Z</time></trkpt><trkpt lat="45.80569145470624" lon="10.04881090962021"><ele>291.0</ele><time>2026-04-07T08:11:20.999Z</time></trkpt><trkpt lat="45.80581649710923" lon="10.049099444123103"><ele>289.0</ele><time>2026-04-07T08:11:21.999Z</time></trkpt><trkpt lat="45.80595720932594" lon="10.049375226886125"><ele>287.0</ele><time>2026-04-07T08:11:22.999Z</time></trkpt><trkpt lat="45.80611164561064" lon="10.049643171714118"><ele>289.5</ele><time>2026-04-07T08:11:23.999Z</time></trkpt><trkpt lat="45.80627045784246" lon="10.049888867700435"><ele>292.0</ele><time>2026-04-07T08:11:24.999Z</time></trkpt><trkpt lat="45.80644084944052" lon="10.050137755162424"><ele>292.0</ele><time>2026-04-07T08:11:25.999Z</time></trkpt><trkpt lat="45.80661398677039" lon="10.05038460340879"><ele>292.0</ele><time>2026-04-07T08:11:26.999Z</time></trkpt><trkpt lat="45.806790766428854" lon="10.050624638538894"><ele>293.5</ele><time>2026-04-07T08:11:27.999Z</time></trkpt><trkpt lat="45.80696910590343" lon="10.05085673941764"><ele>295.0</ele><time>2026-04-07T08:11:28.999Z</time></trkpt><trkpt lat="45.80714708664763" lon="10.051082695836334"><ele>295.0</ele><time>2026-04-07T08:11:29.999Z</time></trkpt><trkpt lat="45.80732400617097" lon="10.051311019919476"><ele>295.0</ele><time>2026-04-07T08:11:30.999Z</time></trkpt><trkpt lat="45.807513947182215" lon="10.051563134143427"><ele>290.5</ele><time>2026-04-07T08:11:31.999Z</time></trkpt><trkpt lat="45.80769867552564" lon="10.051804970931125"><ele>286.0</ele><time>2026-04-07T08:11:32.999Z</time></trkpt><trkpt lat="45.80787517272762" lon="10.052056000998514"><ele>286.0</ele><time>2026-04-07T08:11:33.999Z</time></trkpt><trkpt lat="45.80810082465613" lon="10.052272640677964"><ele>286.0</ele><time>2026-04-07T08:11:34.999Z</time></trkpt><trkpt lat="45.80827388218547" lon="10.052471851206729"><ele>283.5</ele><time>2026-04-07T08:11:35.999Z</time></trkpt><trkpt lat="45.80846824314129" lon="10.052657154174751"><ele>281.0</ele><time>2026-04-07T08:11:36.999Z</time></trkpt><trkpt lat="45.808651838308116" lon="10.05288324248009"><ele>273.5</ele><time>2026-04-07T08:11:37.999Z</time></trkpt><trkpt lat="45.808848210871496" lon="10.0530896025234"><ele>266.0</ele><time>2026-04-07T08:11:38.999Z</time></trkpt><trkpt lat="45.809040680360816" lon="10.053298184113105"><ele>264.5</ele><time>2026-04-07T08:11:39.999Z</time></trkpt><trkpt lat="45.8092419248284" lon="10.053508407216654"><ele>263.0</ele><time>2026-04-07T08:11:40.999Z</time></trkpt><trkpt lat="45.809436587136695" lon="10.05371571196699"><ele>262.5</ele><time>2026-04-07T08:11:41.999Z</time></trkpt><trkpt lat="45.80963015837955" lon="10.053924500597747"><ele>262.0</ele><time>2026-04-07T08:11:42.999Z</time></trkpt><trkpt lat="45.809819935984365" lon="10.05412471218787"><ele>259.5</ele><time>2026-04-07T08:11:43.999Z</time></trkpt><trkpt lat="45.81001533576898" lon="10.054329196141506"><ele>257.0</ele><time>2026-04-07T08:11:44.999Z</time></trkpt><trkpt lat="45.81019059028277" lon="10.054546520843648"><ele>254.5</ele><time>2026-04-07T08:11:45.999Z</time></trkpt><trkpt lat="45.810389186175385" lon="10.054760055530826"><ele>252.0</ele><time>2026-04-07T08:11:46.999Z</time></trkpt><trkpt lat="45.81059569442445" lon="10.054954233250074"><ele>251.5</ele><time>2026-04-07T08:11:47.999Z</time></trkpt><trkpt lat="45.81079380217704" lon="10.055177289129809"><ele>251.0</ele><time>2026-04-07T08:11:48.999Z</time></trkpt><trkpt lat="45.810987915449346" lon="10.055392371224041"><ele>251.5</ele><time>2026-04-07T08:11:49.999Z</time></trkpt><trkpt lat="45.81119059491922" lon="10.055611130959743"><ele>252.0</ele><time>2026-04-07T08:11:50.999Z</time></trkpt><trkpt lat="45.81138947979388" lon="10.055832570801828"><ele>252.0</ele><time>2026-04-07T08:11:51.999Z</time></trkpt><trkpt lat="45.811587611903455" lon="10.056058047134881"><ele>252.0</ele><time>2026-04-07T08:11:52.999Z</time></trkpt><trkpt lat="45.81178055749963" lon="10.056285146745118"><ele>258.0</ele><time>2026-04-07T08:11:53.999Z</time></trkpt><trkpt lat="45.81197026552521" lon="10.056516026248197"><ele>264.0</ele><time>2026-04-07T08:11:55Z</time></trkpt><trkpt lat="45.812156901742185" lon="10.056743645058546"><ele>269.5</ele><time>2026-04-07T08:11:56Z</time></trkpt><trkpt lat="45.81234073010556" lon="10.056972618340362"><ele>275.0</ele><time>2026-04-07T08:11:57Z</time></trkpt><trkpt lat="45.81252359221741" lon="10.057201455223302"><ele>289.0</ele><time>2026-04-07T08:11:58Z</time></trkpt><trkpt lat="45.81270758738561" lon="10.057428320869537"><ele>303.0</ele><time>2026-04-07T08:11:59Z</time></trkpt><trkpt lat="45.812890921625" lon="10.057655795918581"><ele>315.5</ele><time>2026-04-07T08:12:00Z</time></trkpt><trkpt lat="45.81308608391903" lon="10.05789619212251"><ele>328.0</ele><time>2026-04-07T08:12:01.065Z</time></trkpt><trkpt lat="45.81327066716623" lon="10.058123355032443"><ele>343.0</ele><time>2026-04-07T08:12:02.068Z</time></trkpt><trkpt lat="45.813453708340205" lon="10.058348227883032"><ele>358.0</ele><time>2026-04-07T08:12:03.065Z</time></trkpt><trkpt lat="45.82504213862635" lon="10.0869277506859"><ele>306.5</ele><time>2026-04-07T08:13:47.999Z</time></trkpt><trkpt lat="45.82519194978463" lon="10.08736539853594"><ele>255.0</ele><time>2026-04-07T08:13:48.999Z</time></trkpt><trkpt lat="45.825245512239334" lon="10.087644675147885"><ele>249.5</ele><time>2026-04-07T08:13:49.999Z</time></trkpt><trkpt lat="45.825374574159525" lon="10.087873212791878"><ele>244.0</ele><time>2026-04-07T08:13:50.999Z</time></trkpt><trkpt lat="45.82777916370156" lon="10.09017361313317"><ele>285.0</ele><time>2026-04-07T08:13:59.278Z</time></trkpt><trkpt lat="45.82839878041983" lon="10.09033957622445"><ele>296.5</ele><time>2026-04-07T08:14:00.28Z</time></trkpt><trkpt lat="45.8287712" lon="10.0904119"><ele>308.0</ele><time>2026-04-07T08:14:01.277Z</time></trkpt><trkpt lat="45.83893474263262" lon="10.106650698600122"><ele>273.0</ele><time>2026-04-07T08:15:37.998Z</time></trkpt><trkpt lat="45.83885203668834" lon="10.106845660451766"><ele>238.0</ele><time>2026-04-07T08:15:38.998Z</time></trkpt><trkpt lat="45.838769891983596" lon="10.107166404633338"><ele>203.0</ele><time>2026-04-07T08:15:39.998Z</time></trkpt><trkpt lat="45.83865428881932" lon="10.107456306349304"><ele>200.66666666666669</ele><time>2026-04-07T08:15:40.998Z</time></trkpt><trkpt lat="45.838548632339865" lon="10.107729892825793"><ele>198.33333333333331</ele><time>2026-04-07T08:15:41.998Z</time></trkpt><trkpt lat="45.83844972536381" lon="10.107987964621685"><ele>196.0</ele><time>2026-04-07T08:15:42.998Z</time></trkpt><trkpt lat="45.83835276284149" lon="10.108246423256285"><ele>195.0</ele><time>2026-04-07T08:15:44Z</time></trkpt><trkpt lat="45.83826027152578" lon="10.10850759436248"><ele>194.0</ele><time>2026-04-07T08:15:45Z</time></trkpt><trkpt lat="45.83815699138159" lon="10.10878075719921"><ele>193.0</ele><time>2026-04-07T08:15:46Z</time></trkpt><trkpt lat="45.83804528483035" lon="10.109079716262215"><ele>191.0</ele><time>2026-04-07T08:15:47Z</time></trkpt><trkpt lat="45.83791586104646" lon="10.109374759929988"><ele>189.0</ele><time>2026-04-07T08:15:48Z</time></trkpt><trkpt lat="45.837787644570085" lon="10.109710914569542"><ele>189.0</ele><time>2026-04-07T08:15:49Z</time></trkpt><trkpt lat="45.83766322571897" lon="10.110045765702724"><ele>189.0</ele><time>2026-04-07T08:15:50Z</time></trkpt><trkpt lat="45.837548406097305" lon="10.110393801128081"><ele>191.0</ele><time>2026-04-07T08:15:51Z</time></trkpt><trkpt lat="45.83742034337431" lon="10.110728732225573"><ele>193.0</ele><time>2026-04-07T08:15:52Z</time></trkpt><trkpt lat="45.83729476414839" lon="10.111058486527417"><ele>193.0</ele><time>2026-04-07T08:15:53Z</time></trkpt><trkpt lat="45.837167042137025" lon="10.111390086559942"><ele>193.0</ele><time>2026-04-07T08:15:54Z</time></trkpt><trkpt lat="45.83704583434488" lon="10.111701418652009"><ele>191.5</ele><time>2026-04-07T08:15:55Z</time></trkpt><trkpt lat="45.83692594526891" lon="10.112015843117625"><ele>190.0</ele><time>2026-04-07T08:15:56Z</time></trkpt><trkpt lat="45.83680793953791" lon="10.112324228340706"><ele>190.5</ele><time>2026-04-07T08:15:57Z</time></trkpt><trkpt lat="45.83669261745207" lon="10.112639414304454"><ele>191.0</ele><time>2026-04-07T08:15:58Z</time></trkpt><trkpt lat="45.83657940304008" lon="10.11295024918821"><ele>191.0</ele><time>2026-04-07T08:15:59Z</time></trkpt><trkpt lat="45.836462020545156" lon="10.113261474585135"><ele>191.0</ele><time>2026-04-07T08:16:00Z</time></trkpt><trkpt lat="45.83634588462177" lon="10.113573623883482"><ele>191.0</ele><time>2026-04-07T08:16:01Z</time></trkpt><trkpt lat="45.83624547272348" lon="10.11388685947801"><ele>191.0</ele><time>2026-04-07T08:16:02Z</time></trkpt><trkpt lat="45.83616293001495" lon="10.114218957119574"><ele>191.5</ele><time>2026-04-07T08:16:03Z</time></trkpt><trkpt lat="45.836095903542656" lon="10.11455074260971"><ele>192.0</ele><time>2026-04-07T08:16:04Z</time></trkpt><trkpt lat="45.83602294405232" lon="10.114889074435627"><ele>192.0</ele><time>2026-04-07T08:16:05Z</time></trkpt><trkpt lat="45.835973535826156" lon="10.115242721304025"><ele>192.0</ele><time>2026-04-07T08:16:06Z</time></trkpt><trkpt lat="45.835950822161514" lon="10.115596575744917"><ele>191.5</ele><time>2026-04-07T08:16:07Z</time></trkpt><trkpt lat="45.83592387411378" lon="10.11595633945866"><ele>191.0</ele><time>2026-04-07T08:16:08Z</time></trkpt><trkpt lat="45.83591826327328" lon="10.116315810249082"><ele>191.0</ele><time>2026-04-07T08:16:09Z</time></trkpt><trkpt lat="45.83592441473408" lon="10.116680410320374"><ele>191.0</ele><time>2026-04-07T08:16:10Z</time></trkpt><trkpt lat="45.83594601820846" lon="10.117039101887354"><ele>191.5</ele><time>2026-04-07T08:16:11Z</time></trkpt><trkpt lat="45.83597932912867" lon="10.117396623920913"><ele>192.0</ele><time>2026-04-07T08:16:12Z</time></trkpt><trkpt lat="45.836026595154856" lon="10.117756351956702"><ele>192.0</ele><time>2026-04-07T08:16:13Z</time></trkpt><trkpt lat="45.83608773403723" lon="10.118114650913265"><ele>192.0</ele><time>2026-04-07T08:16:14Z</time></trkpt><trkpt lat="45.83616419736657" lon="10.118452888170903"><ele>192.5</ele><time>2026-04-07T08:16:15Z</time></trkpt><trkpt lat="45.83624254579985" lon="10.11879548345058"><ele>193.0</ele><time>2026-04-07T08:16:16Z</time></trkpt><trkpt lat="45.83632059327449" lon="10.119143226818348"><ele>193.0</ele><time>2026-04-07T08:16:17Z</time></trkpt><trkpt lat="45.836394003085516" lon="10.119504847278241"><ele>193.0</ele><time>2026-04-07T08:16:18Z</time></trkpt><trkpt lat="45.836468045908894" lon="10.11985399601345"><ele>193.0</ele><time>2026-04-07T08:16:19Z</time></trkpt><trkpt lat="45.836542079838885" lon="10.120209867845842"><ele>193.0</ele><time>2026-04-07T08:16:20Z</time></trkpt><trkpt lat="45.836617798870044" lon="10.120562666459058"><ele>192.5</ele><time>2026-04-07T08:16:21Z</time></trkpt><trkpt lat="45.83669286579216" lon="10.120917542792368"><ele>192.0</ele><time>2026-04-07T08:16:22Z</time></trkpt><trkpt lat="45.83677002962737" lon="10.121265768939276"><ele>193.5</ele><time>2026-04-07T08:16:23Z</time></trkpt><trkpt lat="45.83684282495482" lon="10.12162440075791"><ele>195.0</ele><time>2026-04-07T08:16:24Z</time></trkpt><trkpt lat="45.83691846391808" lon="10.121974630506486"><ele>195.0</ele><time>2026-04-07T08:16:25Z</time></trkpt><trkpt lat="45.83699595722164" lon="10.122323624275968"><ele>195.0</ele><time>2026-04-07T08:16:26Z</time></trkpt><trkpt lat="45.83707281125003" lon="10.122671713802914"><ele>194.5</ele><time>2026-04-07T08:16:27Z</time></trkpt><trkpt lat="45.83714744941056" lon="10.12302661290968"><ele>194.0</ele><time>2026-04-07T08:16:28Z</time></trkpt><trkpt lat="45.837223805042356" lon="10.1233787278582"><ele>194.0</ele><time>2026-04-07T08:16:29Z</time></trkpt><trkpt lat="45.83730005744205" lon="10.123737274478446"><ele>194.0</ele><time>2026-04-07T08:16:30Z</time></trkpt><trkpt lat="45.837379120449654" lon="10.124097666888794"><ele>194.0</ele><time>2026-04-07T08:16:31Z</time></trkpt><trkpt lat="45.837467585810344" lon="10.124453130783158"><ele>194.0</ele><time>2026-04-07T08:16:32Z</time></trkpt><trkpt lat="45.83756164253314" lon="10.12480279903555"><ele>193.5</ele><time>2026-04-07T08:16:33Z</time></trkpt><trkpt lat="45.83766113990257" lon="10.125155834276717"><ele>193.0</ele><time>2026-04-07T08:16:34Z</time></trkpt><trkpt lat="45.837772165141814" lon="10.125491767546281"><ele>193.0</ele><time>2026-04-07T08:16:35Z</time></trkpt><trkpt lat="45.837891432382726" lon="10.125836511903769"><ele>193.0</ele><time>2026-04-07T08:16:36Z</time></trkpt><trkpt lat="45.83802064007992" lon="10.126171346661623"><ele>193.0</ele><time>2026-04-07T08:16:37Z</time></trkpt><trkpt lat="45.8381522821858" lon="10.12651230825057"><ele>193.0</ele><time>2026-04-07T08:16:38Z</time></trkpt><trkpt lat="45.83828973689054" lon="10.126844773302924"><ele>194.0</ele><time>2026-04-07T08:16:39Z</time></trkpt><trkpt lat="45.838436151913726" lon="10.127174354794304"><ele>195.0</ele><time>2026-04-07T08:16:40Z</time></trkpt><trkpt lat="45.838590673888234" lon="10.127483322316806"><ele>195.0</ele><time>2026-04-07T08:16:41Z</time></trkpt><trkpt lat="45.838748705695444" lon="10.127792763956421"><ele>195.0</ele><time>2026-04-07T08:16:42Z</time></trkpt><trkpt lat="45.838905981890825" lon="10.12810816690567"><ele>195.5</ele><time>2026-04-07T08:16:43Z</time></trkpt><trkpt lat="45.83904858692623" lon="10.128434325216714"><ele>196.0</ele><time>2026-04-07T08:16:44Z</time></trkpt><trkpt lat="45.839217959086014" lon="10.128738719575896"><ele>195.5</ele><time>2026-04-07T08:16:45Z</time></trkpt><trkpt lat="45.83935183098516" lon="10.129050685045101"><ele>195.0</ele><time>2026-04-07T08:16:46Z</time></trkpt><trkpt lat="45.83950858809372" lon="10.129323573109577"><ele>196.0</ele><time>2026-04-07T08:16:47Z</time></trkpt><trkpt lat="45.839639413416016" lon="10.129593318636434"><ele>197.0</ele><time>2026-04-07T08:16:48Z</time></trkpt><trkpt lat="45.839769452422466" lon="10.129860841593516"><ele>197.0</ele><time>2026-04-07T08:16:49Z</time></trkpt><trkpt lat="45.839890231771975" lon="10.130113923983966"><ele>197.0</ele><time>2026-04-07T08:16:50Z</time></trkpt><trkpt lat="45.840013210186584" lon="10.130372062036429"><ele>197.0</ele><time>2026-04-07T08:16:51Z</time></trkpt><trkpt lat="45.84015752497665" lon="10.13065871058441"><ele>197.0</ele><time>2026-04-07T08:16:52Z</time></trkpt><trkpt lat="45.84029977909831" lon="10.130942384271046"><ele>197.0</ele><time>2026-04-07T08:16:53Z</time></trkpt><trkpt lat="45.84044392833779" lon="10.131222033430626"><ele>197.0</ele><time>2026-04-07T08:16:54Z</time></trkpt><trkpt lat="45.84060134051614" lon="10.131501821198189"><ele>197.0</ele><time>2026-04-07T08:16:55Z</time></trkpt><trkpt lat="45.840781441969995" lon="10.131772600492168"><ele>197.0</ele><time>2026-04-07T08:16:55.999Z</time></trkpt><trkpt lat="45.840973361123055" lon="10.132020963050142"><ele>197.0</ele><time>2026-04-07T08:16:56.999Z</time></trkpt><trkpt lat="45.8411669001274" lon="10.132241650253928"><ele>197.5</ele><time>2026-04-07T08:16:57.999Z</time></trkpt><trkpt lat="45.84136185619083" lon="10.132441548691638"><ele>198.0</ele><time>2026-04-07T08:16:58.999Z</time></trkpt><trkpt lat="45.841571097111455" lon="10.132639225497824"><ele>198.0</ele><time>2026-04-07T08:16:59.999Z</time></trkpt><trkpt lat="45.8417821836059" lon="10.13281187377471"><ele>198.0</ele><time>2026-04-07T08:17:00.999Z</time></trkpt><trkpt lat="45.84199072576875" lon="10.132972369996164"><ele>198.0</ele><time>2026-04-07T08:17:01.999Z</time></trkpt><trkpt lat="45.8421705090886" lon="10.133133128120416"><ele>198.0</ele><time>2026-04-07T08:17:02.999Z</time></trkpt><trkpt lat="45.8423387432065" lon="10.13328648858024"><ele>198.0</ele><time>2026-04-07T08:17:03.999Z</time></trkpt><trkpt lat="45.842508846094915" lon="10.133436508723447"><ele>196.5</ele><time>2026-04-07T08:17:04.999Z</time></trkpt><trkpt lat="45.842700356111635" lon="10.13360551545006"><ele>195.0</ele><time>2026-04-07T08:17:05.999Z</time></trkpt><trkpt lat="45.84291222835172" lon="10.133798393030206"><ele>195.0</ele><time>2026-04-07T08:17:06.999Z</time></trkpt><trkpt lat="45.843125585027224" lon="10.133992424202317"><ele>195.0</ele><time>2026-04-07T08:17:07.999Z</time></trkpt><trkpt lat="45.843349438600505" lon="10.134191672724274"><ele>195.0</ele><time>2026-04-07T08:17:08.999Z</time></trkpt><trkpt lat="45.843553916663076" lon="10.134367952551584"><ele>195.0</ele><time>2026-04-07T08:17:09.999Z</time></trkpt><trkpt lat="45.8437546120092" lon="10.134543404041295"><ele>195.0</ele><time>2026-04-07T08:17:10.999Z</time></trkpt><trkpt lat="45.84396166591154" lon="10.134726132592755"><ele>195.0</ele><time>2026-04-07T08:17:11.999Z</time></trkpt><trkpt lat="45.84416875906505" lon="10.134907698600037"><ele>196.0</ele><time>2026-04-07T08:17:12.999Z</time></trkpt><trkpt lat="45.84437855293957" lon="10.13508863411232"><ele>197.0</ele><time>2026-04-07T08:17:13.999Z</time></trkpt><trkpt lat="45.844589565428066" lon="10.13526506688899"><ele>197.0</ele><time>2026-04-07T08:17:14.999Z</time></trkpt><trkpt lat="45.84481059851955" lon="10.135453232777474"><ele>197.0</ele><time>2026-04-07T08:17:15.999Z</time></trkpt><trkpt lat="45.845030972778375" lon="10.135654360650408"><ele>198.5</ele><time>2026-04-07T08:17:16.999Z</time></trkpt><trkpt lat="45.845249903286486" lon="10.135857632614021"><ele>200.0</ele><time>2026-04-07T08:17:17.999Z</time></trkpt><trkpt lat="45.84547035215062" lon="10.136060250405553"><ele>200.0</ele><time>2026-04-07T08:17:18.999Z</time></trkpt><trkpt lat="45.84569412267433" lon="10.136260490777918"><ele>200.0</ele><time>2026-04-07T08:17:19.999Z</time></trkpt><trkpt lat="45.845915293123504" lon="10.136460166621243"><ele>200.5</ele><time>2026-04-07T08:17:20.999Z</time></trkpt><trkpt lat="45.84614458892988" lon="10.136662684891112"><ele>201.0</ele><time>2026-04-07T08:17:21.999Z</time></trkpt><trkpt lat="45.8463690453426" lon="10.136859630797073"><ele>201.0</ele><time>2026-04-07T08:17:22.999Z</time></trkpt><trkpt lat="45.846596469384174" lon="10.137058800139854"><ele>201.0</ele><time>2026-04-07T08:17:23.999Z</time></trkpt><trkpt lat="45.84682001154285" lon="10.137255965588704"><ele>200.0</ele><time>2026-04-07T08:17:24.999Z</time></trkpt><trkpt lat="45.84703784318721" lon="10.13744846427117"><ele>199.0</ele><time>2026-04-07T08:17:25.999Z</time></trkpt><trkpt lat="45.84724144112013" lon="10.137629698059895"><ele>199.0</ele><time>2026-04-07T08:17:26.999Z</time></trkpt><trkpt lat="45.84746171396176" lon="10.137826485736383"><ele>199.0</ele><time>2026-04-07T08:17:27.999Z</time></trkpt><trkpt lat="45.84767710821042" lon="10.13803499159845"><ele>198.5</ele><time>2026-04-07T08:17:28.999Z</time></trkpt><trkpt lat="45.847891387997436" lon="10.138251717357429"><ele>198.0</ele><time>2026-04-07T08:17:29.999Z</time></trkpt><trkpt lat="45.848100330185844" lon="10.138476674689299"><ele>198.0</ele><time>2026-04-07T08:17:30.999Z</time></trkpt><trkpt lat="45.84830562693922" lon="10.138704699535243"><ele>198.0</ele><time>2026-04-07T08:17:31.999Z</time></trkpt><trkpt lat="45.84850860069793" lon="10.138938564425525"><ele>198.0</ele><time>2026-04-07T08:17:32.999Z</time></trkpt><trkpt lat="45.848714790324614" lon="10.139180969704697"><ele>198.0</ele><time>2026-04-07T08:17:33.999Z</time></trkpt><trkpt lat="45.84892028478517" lon="10.139430716309207"><ele>198.0</ele><time>2026-04-07T08:17:34.999Z</time></trkpt><trkpt lat="45.84912017525555" lon="10.139680414586584"><ele>198.0</ele><time>2026-04-07T08:17:35.999Z</time></trkpt><trkpt lat="45.84931986604643" lon="10.139935729459147"><ele>198.5</ele><time>2026-04-07T08:17:36.999Z</time></trkpt><trkpt lat="45.84951312091256" lon="10.14018568068021"><ele>199.0</ele><time>2026-04-07T08:17:37.999Z</time></trkpt><trkpt lat="45.84971667180547" lon="10.140442758859619"><ele>199.0</ele><time>2026-04-07T08:17:38.999Z</time></trkpt><trkpt lat="45.849918004714056" lon="10.140692719338846"><ele>199.0</ele><time>2026-04-07T08:17:39.999Z</time></trkpt><trkpt lat="45.850119418259666" lon="10.14094208770657"><ele>198.5</ele><time>2026-04-07T08:17:40.999Z</time></trkpt><trkpt lat="45.850318563800116" lon="10.141190868134192"><ele>198.0</ele><time>2026-04-07T08:17:41.999Z</time></trkpt><trkpt lat="45.85052260786821" lon="10.141446317294667"><ele>199.5</ele><time>2026-04-07T08:17:42.999Z</time></trkpt><trkpt lat="45.85072184685916" lon="10.141695913261163"><ele>201.0</ele><time>2026-04-07T08:17:43.999Z</time></trkpt><trkpt lat="45.850918807475715" lon="10.141946231205377"><ele>201.5</ele><time>2026-04-07T08:17:44.999Z</time></trkpt><trkpt lat="45.85111982117853" lon="10.142198719408482"><ele>202.0</ele><time>2026-04-07T08:17:45.999Z</time></trkpt><trkpt lat="45.851316422686025" lon="10.142449429344378"><ele>202.0</ele><time>2026-04-07T08:17:46.999Z</time></trkpt><trkpt lat="45.85151266438441" lon="10.142700318902724"><ele>202.0</ele><time>2026-04-07T08:17:47.999Z</time></trkpt><trkpt lat="45.85170824807074" lon="10.142947029499425"><ele>201.5</ele><time>2026-04-07T08:17:49Z</time></trkpt><trkpt lat="45.85190301812752" lon="10.143191805020889"><ele>201.0</ele><time>2026-04-07T08:17:50Z</time></trkpt><trkpt lat="45.85210530460794" lon="10.14344971048781"><ele>201.0</ele><time>2026-04-07T08:17:51Z</time></trkpt><trkpt lat="45.852313150798004" lon="10.143734992050016"><ele>201.0</ele><time>2026-04-07T08:17:52Z</time></trkpt><trkpt lat="45.85253190708996" lon="10.14401121037747"><ele>202.5</ele><time>2026-04-07T08:17:53Z</time></trkpt><trkpt lat="45.85275922651411" lon="10.144266950204228"><ele>204.0</ele><time>2026-04-07T08:17:54Z</time></trkpt><trkpt lat="45.85296524775589" lon="10.144532776075499"><ele>204.0</ele><time>2026-04-07T08:17:55Z</time></trkpt><trkpt lat="45.85315881272486" lon="10.144778903027019"><ele>204.0</ele><time>2026-04-07T08:17:56Z</time></trkpt><trkpt lat="45.8533514820716" lon="10.145024558970205"><ele>203.0</ele><time>2026-04-07T08:17:57Z</time></trkpt><trkpt lat="45.85354271957699" lon="10.14527042070457"><ele>202.0</ele><time>2026-04-07T08:17:58Z</time></trkpt><trkpt lat="45.85373427145671" lon="10.145517240693213"><ele>201.5</ele><time>2026-04-07T08:17:59Z</time></trkpt><trkpt lat="45.85392803464282" lon="10.145761858743727"><ele>201.0</ele><time>2026-04-07T08:18:00Z</time></trkpt><trkpt lat="45.854124323283" lon="10.14600593371038"><ele>201.5</ele><time>2026-04-07T08:18:01Z</time></trkpt><trkpt lat="45.85431877473966" lon="10.146249729769751"><ele>202.0</ele><time>2026-04-07T08:18:02Z</time></trkpt><trkpt lat="45.854514983156804" lon="10.146494483990466"><ele>203.0</ele><time>2026-04-07T08:18:03Z</time></trkpt><trkpt lat="45.85470600169849" lon="10.146752270453566"><ele>204.0</ele><time>2026-04-07T08:18:04Z</time></trkpt><trkpt lat="45.85490347183146" lon="10.147001142927639"><ele>204.0</ele><time>2026-04-07T08:18:05Z</time></trkpt><trkpt lat="45.8550970683861" lon="10.147245133524725"><ele>204.0</ele><time>2026-04-07T08:18:06Z</time></trkpt><trkpt lat="45.85528465217838" lon="10.147481546207416"><ele>204.0</ele><time>2026-04-07T08:18:07Z</time></trkpt><trkpt lat="45.855479690758074" lon="10.147727525313549"><ele>204.0</ele><time>2026-04-07T08:18:08Z</time></trkpt><trkpt lat="45.85568517313346" lon="10.147957388042844"><ele>203.5</ele><time>2026-04-07T08:18:09Z</time></trkpt><trkpt lat="45.855874134282786" lon="10.14822752762476"><ele>203.0</ele><time>2026-04-07T08:18:10Z</time></trkpt><trkpt lat="45.85607169454172" lon="10.148477861111147"><ele>203.0</ele><time>2026-04-07T08:18:11Z</time></trkpt><trkpt lat="45.856268815079616" lon="10.148727594032838"><ele>203.0</ele><time>2026-04-07T08:18:12Z</time></trkpt><trkpt lat="45.856474311256086" lon="10.148959946665082"><ele>203.5</ele><time>2026-04-07T08:18:13Z</time></trkpt><trkpt lat="45.856668651441154" lon="10.149215470450764"><ele>204.0</ele><time>2026-04-07T08:18:14Z</time></trkpt><trkpt lat="45.856865625409306" lon="10.149467341773535"><ele>204.0</ele><time>2026-04-07T08:18:15Z</time></trkpt><trkpt lat="45.85706562149696" lon="10.149714461387916"><ele>204.0</ele><time>2026-04-07T08:18:16Z</time></trkpt><trkpt lat="45.857269682190314" lon="10.149963861562295"><ele>204.0</ele><time>2026-04-07T08:18:17Z</time></trkpt><trkpt lat="45.85745440788138" lon="10.150224984487123"><ele>204.0</ele><time>2026-04-07T08:18:18Z</time></trkpt><trkpt lat="45.857647332884866" lon="10.150468709463185"><ele>203.5</ele><time>2026-04-07T08:18:19Z</time></trkpt><trkpt lat="45.85784366462" lon="10.150684975926483"><ele>203.0</ele><time>2026-04-07T08:18:20Z</time></trkpt><trkpt lat="45.85801571247" lon="10.150934088744018"><ele>203.0</ele><time>2026-04-07T08:18:21Z</time></trkpt><trkpt lat="45.858213063642665" lon="10.151183405358202"><ele>203.0</ele><time>2026-04-07T08:18:22Z</time></trkpt><trkpt lat="45.85840450627615" lon="10.151425009160212"><ele>203.0</ele><time>2026-04-07T08:18:23Z</time></trkpt><trkpt lat="45.8585824159861" lon="10.151648375096391"><ele>203.0</ele><time>2026-04-07T08:18:24Z</time></trkpt><trkpt lat="45.85874915829231" lon="10.151857982834667"><ele>203.0</ele><time>2026-04-07T08:18:25Z</time></trkpt><trkpt lat="45.85891767458126" lon="10.152069963603886"><ele>203.0</ele><time>2026-04-07T08:18:26Z</time></trkpt><trkpt lat="45.85910658395737" lon="10.152307597333433"><ele>203.5</ele><time>2026-04-07T08:18:27Z</time></trkpt><trkpt lat="45.859306636435115" lon="10.152559248249307"><ele>204.0</ele><time>2026-04-07T08:18:28Z</time></trkpt><trkpt lat="45.85952300896808" lon="10.152804464765582"><ele>204.0</ele><time>2026-04-07T08:18:29Z</time></trkpt><trkpt lat="45.85972539303441" lon="10.153070538608832"><ele>204.0</ele><time>2026-04-07T08:18:30Z</time></trkpt><trkpt lat="45.85992479194706" lon="10.153307177951577"><ele>204.5</ele><time>2026-04-07T08:18:31Z</time></trkpt><trkpt lat="45.860138260806764" lon="10.153540718355504"><ele>205.0</ele><time>2026-04-07T08:18:32Z</time></trkpt><trkpt lat="45.8603493009194" lon="10.153765137434306"><ele>205.0</ele><time>2026-04-07T08:18:33Z</time></trkpt><trkpt lat="45.86056110241536" lon="10.15400401072235"><ele>205.0</ele><time>2026-04-07T08:18:34Z</time></trkpt><trkpt lat="45.86077887175289" lon="10.154223355390103"><ele>205.0</ele><time>2026-04-07T08:18:35Z</time></trkpt><trkpt lat="45.861002316679695" lon="10.154435683003888"><ele>205.0</ele><time>2026-04-07T08:18:36Z</time></trkpt><trkpt lat="45.86122966192814" lon="10.154646269156022"><ele>205.0</ele><time>2026-04-07T08:18:37Z</time></trkpt><trkpt lat="45.86145786171825" lon="10.154853408398148"><ele>205.0</ele><time>2026-04-07T08:18:38Z</time></trkpt><trkpt lat="45.861700466840006" lon="10.155042920354461"><ele>204.5</ele><time>2026-04-07T08:18:39Z</time></trkpt><trkpt lat="45.861949909435715" lon="10.155228063421525"><ele>204.0</ele><time>2026-04-07T08:18:40Z</time></trkpt><trkpt lat="45.86219535550524" lon="10.155409959220112"><ele>204.0</ele><time>2026-04-07T08:18:41Z</time></trkpt><trkpt lat="45.8624461693629" lon="10.155589690996578"><ele>204.0</ele><time>2026-04-07T08:18:42Z</time></trkpt><trkpt lat="45.86269860382914" lon="10.15575900000605"><ele>204.0</ele><time>2026-04-07T08:18:43Z</time></trkpt><trkpt lat="45.86295891633991" lon="10.155923936598153"><ele>204.0</ele><time>2026-04-07T08:18:44Z</time></trkpt><trkpt lat="45.863216481470005" lon="10.156117577494745"><ele>204.0</ele><time>2026-04-07T08:18:45Z</time></trkpt><trkpt lat="45.863479029832845" lon="10.156289333810225"><ele>204.0</ele><time>2026-04-07T08:18:46Z</time></trkpt><trkpt lat="45.86374222700697" lon="10.156461514609209"><ele>205.0</ele><time>2026-04-07T08:18:47Z</time></trkpt><trkpt lat="45.86400511436576" lon="10.156616053247575"><ele>206.0</ele><time>2026-04-07T08:18:48Z</time></trkpt><trkpt lat="45.86426297399964" lon="10.156790990332377"><ele>205.0</ele><time>2026-04-07T08:18:49Z</time></trkpt><trkpt lat="45.86451814965191" lon="10.1569585288226"><ele>204.0</ele><time>2026-04-07T08:18:50Z</time></trkpt><trkpt lat="45.86477290235306" lon="10.157122006121414"><ele>204.0</ele><time>2026-04-07T08:18:50.999Z</time></trkpt><trkpt lat="45.865029084314465" lon="10.157286401819563"><ele>204.0</ele><time>2026-04-07T08:18:51.999Z</time></trkpt><trkpt lat="45.8652815384177" lon="10.15744771191566"><ele>206.0</ele><time>2026-04-07T08:18:52.999Z</time></trkpt><trkpt lat="45.86552489126395" lon="10.157601947069196"><ele>208.0</ele><time>2026-04-07T08:18:53.999Z</time></trkpt><trkpt lat="45.86573537042272" lon="10.157764257517496"><ele>207.5</ele><time>2026-04-07T08:18:54.999Z</time></trkpt><trkpt lat="45.86594747669354" lon="10.157901728959379"><ele>207.0</ele><time>2026-04-07T08:18:55.999Z</time></trkpt><trkpt lat="45.866166158856814" lon="10.158043462434309"><ele>207.0</ele><time>2026-04-07T08:18:56.999Z</time></trkpt><trkpt lat="45.86638269498734" lon="10.158185587365288"><ele>207.0</ele><time>2026-04-07T08:18:57.999Z</time></trkpt><trkpt lat="45.86660497386693" lon="10.158332041975811"><ele>206.0</ele><time>2026-04-07T08:18:58.999Z</time></trkpt><trkpt lat="45.86683357626332" lon="10.158482662791462"><ele>205.0</ele><time>2026-04-07T08:18:59.999Z</time></trkpt><trkpt lat="45.867058981948766" lon="10.15863117737197"><ele>205.0</ele><time>2026-04-07T08:19:00.999Z</time></trkpt><trkpt lat="45.867294677918466" lon="10.158786484208076"><ele>205.0</ele><time>2026-04-07T08:19:01.999Z</time></trkpt><trkpt lat="45.867530534549026" lon="10.158941881005402"><ele>205.5</ele><time>2026-04-07T08:19:02.999Z</time></trkpt><trkpt lat="45.86776796761609" lon="10.159096271442253"><ele>206.0</ele><time>2026-04-07T08:19:03.999Z</time></trkpt><trkpt lat="45.868008205767595" lon="10.159214649142855"><ele>206.0</ele><time>2026-04-07T08:19:04.999Z</time></trkpt><trkpt lat="45.86822962866061" lon="10.159368233502889"><ele>206.0</ele><time>2026-04-07T08:19:05.999Z</time></trkpt><trkpt lat="45.86845610251688" lon="10.15953269446003"><ele>204.0</ele><time>2026-04-07T08:19:06.999Z</time></trkpt><trkpt lat="45.86868835644483" lon="10.159689891827894"><ele>202.0</ele><time>2026-04-07T08:19:07.999Z</time></trkpt><trkpt lat="45.868925653930766" lon="10.15984329364292"><ele>203.5</ele><time>2026-04-07T08:19:08.999Z</time></trkpt><trkpt lat="45.86916343786146" lon="10.159998530634773"><ele>205.0</ele><time>2026-04-07T08:19:09.999Z</time></trkpt><trkpt lat="45.86940210869609" lon="10.160154749927269"><ele>205.0</ele><time>2026-04-07T08:19:10.999Z</time></trkpt><trkpt lat="45.869642381129886" lon="10.160314277120273"><ele>205.0</ele><time>2026-04-07T08:19:11.999Z</time></trkpt><trkpt lat="45.8698851696463" lon="10.160472992090856"><ele>205.5</ele><time>2026-04-07T08:19:12.999Z</time></trkpt><trkpt lat="45.870115234601535" lon="10.160630158531934"><ele>206.0</ele><time>2026-04-07T08:19:13.999Z</time></trkpt><trkpt lat="45.87033423421208" lon="10.160795212818737"><ele>206.0</ele><time>2026-04-07T08:19:14.999Z</time></trkpt><trkpt lat="45.870546046637315" lon="10.160982313187175"><ele>206.0</ele><time>2026-04-07T08:19:15.999Z</time></trkpt><trkpt lat="45.8707546169611" lon="10.161213678805396"><ele>207.0</ele><time>2026-04-07T08:19:16.999Z</time></trkpt><trkpt lat="45.870952104934595" lon="10.161464532754284"><ele>208.0</ele><time>2026-04-07T08:19:17.999Z</time></trkpt><trkpt lat="45.871141172323476" lon="10.161732564744687"><ele>208.0</ele><time>2026-04-07T08:19:18.999Z</time></trkpt><trkpt lat="45.87131752581261" lon="10.162011883136428"><ele>208.0</ele><time>2026-04-07T08:19:19.999Z</time></trkpt><trkpt lat="45.871477326792835" lon="10.162303388516406"><ele>207.5</ele><time>2026-04-07T08:19:20.999Z</time></trkpt><trkpt lat="45.871626103186" lon="10.162605036874762"><ele>207.0</ele><time>2026-04-07T08:19:21.999Z</time></trkpt><trkpt lat="45.87175994830063" lon="10.16292055588847"><ele>206.0</ele><time>2026-04-07T08:19:22.999Z</time></trkpt><trkpt lat="45.87187734230938" lon="10.163242349172531"><ele>205.0</ele><time>2026-04-07T08:19:23.999Z</time></trkpt><trkpt lat="45.8719759677911" lon="10.163581219660598"><ele>205.0</ele><time>2026-04-07T08:19:24.999Z</time></trkpt><trkpt lat="45.872061135490284" lon="10.163920244346658"><ele>205.0</ele><time>2026-04-07T08:19:25.999Z</time></trkpt><trkpt lat="45.872135156456736" lon="10.164277320503876"><ele>206.5</ele><time>2026-04-07T08:19:26.999Z</time></trkpt><trkpt lat="45.8721923329305" lon="10.164645951804145"><ele>208.0</ele><time>2026-04-07T08:19:27.999Z</time></trkpt><trkpt lat="45.87223529388431" lon="10.165032781500853"><ele>209.0</ele><time>2026-04-07T08:19:28.999Z</time></trkpt><trkpt lat="45.87225726700625" lon="10.165404534786813"><ele>210.0</ele><time>2026-04-07T08:19:29.999Z</time></trkpt><trkpt lat="45.87226651468839" lon="10.165778954142576"><ele>211.0</ele><time>2026-04-07T08:19:30.999Z</time></trkpt><trkpt lat="45.87227090482778" lon="10.166112526665836"><ele>212.0</ele><time>2026-04-07T08:19:31.999Z</time></trkpt><trkpt lat="45.87227158199416" lon="10.166440692221927"><ele>211.33333333333334</ele><time>2026-04-07T08:19:32.999Z</time></trkpt><trkpt lat="45.87226595550144" lon="10.166744419766628"><ele>210.66666666666669</ele><time>2026-04-07T08:19:33.999Z</time></trkpt><trkpt lat="45.872254721577036" lon="10.167041744624035"><ele>210.0</ele><time>2026-04-07T08:19:34.999Z</time></trkpt><trkpt lat="45.8722371447648" lon="10.167330816723693"><ele>210.33333333333331</ele><time>2026-04-07T08:19:35.999Z</time></trkpt><trkpt lat="45.872218321685786" lon="10.167628187590633"><ele>210.66666666666666</ele><time>2026-04-07T08:19:36.999Z</time></trkpt><trkpt lat="45.87220378770032" lon="10.167913164217147"><ele>211.0</ele><time>2026-04-07T08:19:37.999Z</time></trkpt><trkpt lat="45.87218774082055" lon="10.168178980634472"><ele>212.0</ele><time>2026-04-07T08:19:38.999Z</time></trkpt><trkpt lat="45.87216511425977" lon="10.168471574738547"><ele>213.0</ele><time>2026-04-07T08:19:39.999Z</time></trkpt><trkpt lat="45.87214372233201" lon="10.168795164459416"><ele>214.0</ele><time>2026-04-07T08:19:40.999Z</time></trkpt><trkpt lat="45.87212804388556" lon="10.169083218423012"><ele>214.0</ele><time>2026-04-07T08:19:41.999Z</time></trkpt><trkpt lat="45.872106622785424" lon="10.169369889955304"><ele>214.0</ele><time>2026-04-07T08:19:42.999Z</time></trkpt><trkpt lat="45.87208715997133" lon="10.169698775478778"><ele>214.0</ele><time>2026-04-07T08:19:43.999Z</time></trkpt><trkpt lat="45.87206690145151" lon="10.170047556150056"><ele>214.0</ele><time>2026-04-07T08:19:44.999Z</time></trkpt><trkpt lat="45.87204660567622" lon="10.17036204209331"><ele>214.0</ele><time>2026-04-07T08:19:45.999Z</time></trkpt><trkpt lat="45.872028654276505" lon="10.170647879467092"><ele>214.0</ele><time>2026-04-07T08:19:46.999Z</time></trkpt><trkpt lat="45.87201045175301" lon="10.170932373933733"><ele>214.0</ele><time>2026-04-07T08:19:47.999Z</time></trkpt><trkpt lat="45.87199341744561" lon="10.171209665410903"><ele>214.0</ele><time>2026-04-07T08:19:48.999Z</time></trkpt><trkpt lat="45.87197860158128" lon="10.171470493050077"><ele>214.0</ele><time>2026-04-07T08:19:49.999Z</time></trkpt><trkpt lat="45.871958925699424" lon="10.171743748076437"><ele>214.0</ele><time>2026-04-07T08:19:50.999Z</time></trkpt><trkpt lat="45.87193663435434" lon="10.172054222630353"><ele>214.0</ele><time>2026-04-07T08:19:51.999Z</time></trkpt><trkpt lat="45.87191673523601" lon="10.17240282054345"><ele>215.33333333333331</ele><time>2026-04-07T08:19:52.999Z</time></trkpt><trkpt lat="45.87189474152123" lon="10.1727296935821"><ele>216.66666666666669</ele><time>2026-04-07T08:19:53.999Z</time></trkpt><trkpt lat="45.87187726449344" lon="10.173032476356086"><ele>218.0</ele><time>2026-04-07T08:19:55Z</time></trkpt><trkpt lat="45.87186048131676" lon="10.173366580039279"><ele>219.0</ele><time>2026-04-07T08:19:56Z</time></trkpt><trkpt lat="45.87184343770093" lon="10.173702023440887"><ele>220.0</ele><time>2026-04-07T08:19:57Z</time></trkpt><trkpt lat="45.871825688945194" lon="10.174063953694203"><ele>221.0</ele><time>2026-04-07T08:19:58Z</time></trkpt><trkpt lat="45.87179784387277" lon="10.174421084022422"><ele>222.0</ele><time>2026-04-07T08:19:59Z</time></trkpt><trkpt lat="45.871772047775046" lon="10.174761465320207"><ele>224.5</ele><time>2026-04-07T08:20:00Z</time></trkpt><trkpt lat="45.871749975124125" lon="10.175090324021467"><ele>227.0</ele><time>2026-04-07T08:20:01Z</time></trkpt><trkpt lat="45.87174788383418" lon="10.175434264929866"><ele>227.0</ele><time>2026-04-07T08:20:02Z</time></trkpt><trkpt lat="45.87176398689535" lon="10.17575880564696"><ele>227.0</ele><time>2026-04-07T08:20:03Z</time></trkpt><trkpt lat="45.87178768802995" lon="10.176050104680495"><ele>227.0</ele><time>2026-04-07T08:20:04Z</time></trkpt><trkpt lat="45.87181611762229" lon="10.176318704506711"><ele>228.33333333333334</ele><time>2026-04-07T08:20:05Z</time></trkpt><trkpt lat="45.87185075373632" lon="10.176575809621815"><ele>229.66666666666669</ele><time>2026-04-07T08:20:06Z</time></trkpt><trkpt lat="45.871889905847894" lon="10.17680709333507"><ele>231.0</ele><time>2026-04-07T08:20:07Z</time></trkpt><trkpt lat="45.87193228530315" lon="10.177005715557572"><ele>231.0</ele><time>2026-04-07T08:20:08Z</time></trkpt><trkpt lat="45.87198295493353" lon="10.177211398289762"><ele>231.0</ele><time>2026-04-07T08:20:09Z</time></trkpt><trkpt lat="45.87203066304212" lon="10.17745019997868"><ele>231.0</ele><time>2026-04-07T08:20:10Z</time></trkpt><trkpt lat="45.872097729447994" lon="10.177679038379557"><ele>232.33333333333331</ele><time>2026-04-07T08:20:11Z</time></trkpt><trkpt lat="45.87216886142294" lon="10.177905637026857"><ele>233.66666666666666</ele><time>2026-04-07T08:20:12Z</time></trkpt><trkpt lat="45.872254889471414" lon="10.178109982076151"><ele>235.0</ele><time>2026-04-07T08:20:13Z</time></trkpt><trkpt lat="45.872318008645976" lon="10.178337662047062"><ele>235.0</ele><time>2026-04-07T08:20:14Z</time></trkpt><trkpt lat="45.87240806795019" lon="10.178556690919752"><ele>235.0</ele><time>2026-04-07T08:20:15Z</time></trkpt><trkpt lat="45.87252949807451" lon="10.178786532840052"><ele>235.0</ele><time>2026-04-07T08:20:16Z</time></trkpt><trkpt lat="45.872651941734496" lon="10.179040931174761"><ele>235.66666666666666</ele><time>2026-04-07T08:20:17Z</time></trkpt><trkpt lat="45.87277422615203" lon="10.179282398726702"><ele>236.33333333333331</ele><time>2026-04-07T08:20:18Z</time></trkpt><trkpt lat="45.872909413692085" lon="10.179508867270684"><ele>237.0</ele><time>2026-04-07T08:20:19Z</time></trkpt><trkpt lat="45.873050025035845" lon="10.179731766866372"><ele>237.33333333333331</ele><time>2026-04-07T08:20:20Z</time></trkpt><trkpt lat="45.87320020120706" lon="10.179963924138526"><ele>237.66666666666666</ele><time>2026-04-07T08:20:21Z</time></trkpt><trkpt lat="45.87335138080142" lon="10.180200503184139"><ele>238.0</ele><time>2026-04-07T08:20:22Z</time></trkpt><trkpt lat="45.87350596980947" lon="10.18043654531895"><ele>238.0</ele><time>2026-04-07T08:20:23Z</time></trkpt><trkpt lat="45.873667458796746" lon="10.18067868813875"><ele>238.0</ele><time>2026-04-07T08:20:24Z</time></trkpt><trkpt lat="45.87382410018576" lon="10.180917051724283"><ele>239.5</ele><time>2026-04-07T08:20:25Z</time></trkpt><trkpt lat="45.87396938122542" lon="10.1811767386236"><ele>241.0</ele><time>2026-04-07T08:20:26Z</time></trkpt><trkpt lat="45.874129326239526" lon="10.181424482182658"><ele>239.5</ele><time>2026-04-07T08:20:27Z</time></trkpt><trkpt lat="45.874296658812185" lon="10.181683595632386"><ele>238.0</ele><time>2026-04-07T08:20:28Z</time></trkpt><trkpt lat="45.874460030941144" lon="10.18193657636078"><ele>238.0</ele><time>2026-04-07T08:20:29Z</time></trkpt><trkpt lat="45.874620562723756" lon="10.182186094293312"><ele>238.0</ele><time>2026-04-07T08:20:30Z</time></trkpt><trkpt lat="45.87478217386967" lon="10.18243866046158"><ele>237.5</ele><time>2026-04-07T08:20:31Z</time></trkpt><trkpt lat="45.87494146530327" lon="10.182687297061468"><ele>237.0</ele><time>2026-04-07T08:20:32Z</time></trkpt><trkpt lat="45.87510758471721" lon="10.1829465982267"><ele>238.0</ele><time>2026-04-07T08:20:33Z</time></trkpt><trkpt lat="45.875265626331824" lon="10.183193290492884"><ele>239.0</ele><time>2026-04-07T08:20:34Z</time></trkpt><trkpt lat="45.875410543617356" lon="10.183419496572878"><ele>240.0</ele><time>2026-04-07T08:20:35Z</time></trkpt><trkpt lat="45.875546845939716" lon="10.183632255276452"><ele>240.0</ele><time>2026-04-07T08:20:36Z</time></trkpt><trkpt lat="45.87567965682968" lon="10.183839564092048"><ele>240.0</ele><time>2026-04-07T08:20:37Z</time></trkpt><trkpt lat="45.875811786218826" lon="10.184045809130406"><ele>240.0</ele><time>2026-04-07T08:20:38Z</time></trkpt><trkpt lat="45.875937330422815" lon="10.184241775139197"><ele>240.0</ele><time>2026-04-07T08:20:39Z</time></trkpt><trkpt lat="45.87607161564062" lon="10.184451930661895"><ele>240.0</ele><time>2026-04-07T08:20:40Z</time></trkpt><trkpt lat="45.87621802398894" lon="10.18468160657968"><ele>240.0</ele><time>2026-04-07T08:20:41Z</time></trkpt><trkpt lat="45.8763644985872" lon="10.184911386426705"><ele>242.0</ele><time>2026-04-07T08:20:42Z</time></trkpt><trkpt lat="45.876520146004864" lon="10.185155556041584"><ele>244.0</ele><time>2026-04-07T08:20:43Z</time></trkpt><trkpt lat="45.87667578945884" lon="10.18540152263073"><ele>243.33333333333331</ele><time>2026-04-07T08:20:44Z</time></trkpt><trkpt lat="45.87682314982464" lon="10.185632250674871"><ele>242.66666666666669</ele><time>2026-04-07T08:20:45Z</time></trkpt><trkpt lat="45.876964378437954" lon="10.18585337799362"><ele>242.0</ele><time>2026-04-07T08:20:46Z</time></trkpt><trkpt lat="45.87709938049782" lon="10.186064756158272"><ele>242.0</ele><time>2026-04-07T08:20:47Z</time></trkpt><trkpt lat="45.8772310897976" lon="10.186270978710915"><ele>242.0</ele><time>2026-04-07T08:20:48Z</time></trkpt><trkpt lat="45.87736802333892" lon="10.186485381042147"><ele>242.0</ele><time>2026-04-07T08:20:49Z</time></trkpt><trkpt lat="45.87750776650922" lon="10.186704182585874"><ele>242.0</ele><time>2026-04-07T08:20:50Z</time></trkpt><trkpt lat="45.87764281778927" lon="10.186908134400353"><ele>242.0</ele><time>2026-04-07T08:20:51Z</time></trkpt><trkpt lat="45.877786543017734" lon="10.187084275036543"><ele>242.0</ele><time>2026-04-07T08:20:52Z</time></trkpt><trkpt lat="45.87792479714875" lon="10.187278627620406"><ele>242.66666666666669</ele><time>2026-04-07T08:20:53Z</time></trkpt><trkpt lat="45.87806429093401" lon="10.187493860676406"><ele>243.33333333333331</ele><time>2026-04-07T08:20:54Z</time></trkpt><trkpt lat="45.87821516452844" lon="10.187685708463606"><ele>244.0</ele><time>2026-04-07T08:20:55Z</time></trkpt><trkpt lat="45.87836549647074" lon="10.187862831762398"><ele>243.0</ele><time>2026-04-07T08:20:56Z</time></trkpt><trkpt lat="45.87852600105838" lon="10.18804298852072"><ele>242.0</ele><time>2026-04-07T08:20:57Z</time></trkpt><trkpt lat="45.8786842512916" lon="10.188216669663797"><ele>241.0</ele><time>2026-04-07T08:20:57.999Z</time></trkpt><trkpt lat="45.878845289011515" lon="10.188389328127505"><ele>241.0</ele><time>2026-04-07T08:20:58.999Z</time></trkpt><trkpt lat="45.879002635715615" lon="10.188550132039802"><ele>241.0</ele><time>2026-04-07T08:20:59.999Z</time></trkpt><trkpt lat="45.87917145367491" lon="10.18872189948822"><ele>241.0</ele><time>2026-04-07T08:21:00.999Z</time></trkpt><trkpt lat="45.879348851065586" lon="10.188900653313528"><ele>241.33333333333331</ele><time>2026-04-07T08:21:01.999Z</time></trkpt><trkpt lat="45.87951945797545" lon="10.189072497585226"><ele>241.66666666666669</ele><time>2026-04-07T08:21:02.999Z</time></trkpt><trkpt lat="45.87969110916643" lon="10.189245684418033"><ele>242.0</ele><time>2026-04-07T08:21:03.999Z</time></trkpt><trkpt lat="45.87986658005759" lon="10.189423587254183"><ele>242.0</ele><time>2026-04-07T08:21:04.999Z</time></trkpt><trkpt lat="45.880053794362226" lon="10.189613396333403"><ele>242.0</ele><time>2026-04-07T08:21:05.999Z</time></trkpt><trkpt lat="45.88026007949281" lon="10.189822540510468"><ele>241.5</ele><time>2026-04-07T08:21:06.999Z</time></trkpt><trkpt lat="45.880481675631" lon="10.190047428244736"><ele>241.0</ele><time>2026-04-07T08:21:07.999Z</time></trkpt><trkpt lat="45.88069715576632" lon="10.190266289502404"><ele>241.0</ele><time>2026-04-07T08:21:08.999Z</time></trkpt><trkpt lat="45.88092167820385" lon="10.190493950820034"><ele>241.0</ele><time>2026-04-07T08:21:09.999Z</time></trkpt><trkpt lat="45.881149086063154" lon="10.19070226067566"><ele>241.0</ele><time>2026-04-07T08:21:10.999Z</time></trkpt><trkpt lat="45.8813655895993" lon="10.190935772414107"><ele>241.0</ele><time>2026-04-07T08:21:11.999Z</time></trkpt><trkpt lat="45.88158599983313" lon="10.191159254956222"><ele>239.5</ele><time>2026-04-07T08:21:12.999Z</time></trkpt><trkpt lat="45.88180648871861" lon="10.191383704368967"><ele>238.0</ele><time>2026-04-07T08:21:13.999Z</time></trkpt><trkpt lat="45.88202045227822" lon="10.1916148680969"><ele>238.0</ele><time>2026-04-07T08:21:14.999Z</time></trkpt><trkpt lat="45.88222393864262" lon="10.191856306491564"><ele>238.0</ele><time>2026-04-07T08:21:15.999Z</time></trkpt><trkpt lat="45.88241826531436" lon="10.192116249661735"><ele>237.0</ele><time>2026-04-07T08:21:16.999Z</time></trkpt><trkpt lat="45.882593812974584" lon="10.19238822017149"><ele>236.0</ele><time>2026-04-07T08:21:17.999Z</time></trkpt><trkpt lat="45.882759048152685" lon="10.192676240090357"><ele>236.0</ele><time>2026-04-07T08:21:18.999Z</time></trkpt><trkpt lat="45.88291093772977" lon="10.192971840439377"><ele>236.0</ele><time>2026-04-07T08:21:19.999Z</time></trkpt><trkpt lat="45.88305787859959" lon="10.193284757411503"><ele>238.5</ele><time>2026-04-07T08:21:20.999Z</time></trkpt><trkpt lat="45.88319538887495" lon="10.193606852402455"><ele>241.0</ele><time>2026-04-07T08:21:21.999Z</time></trkpt><trkpt lat="45.883333812327066" lon="10.193930372930534"><ele>237.5</ele><time>2026-04-07T08:21:22.999Z</time></trkpt><trkpt lat="45.88347768107725" lon="10.194262752926164"><ele>234.0</ele><time>2026-04-07T08:21:23.999Z</time></trkpt><trkpt lat="45.88361871810839" lon="10.19458981399954"><ele>237.0</ele><time>2026-04-07T08:21:24.999Z</time></trkpt><trkpt lat="45.883750365602616" lon="10.19489851669538"><ele>240.0</ele><time>2026-04-07T08:21:25.999Z</time></trkpt><trkpt lat="45.88388000970427" lon="10.195198127376784"><ele>240.0</ele><time>2026-04-07T08:21:26.999Z</time></trkpt><trkpt lat="45.88401255395637" lon="10.195502661223829"><ele>240.0</ele><time>2026-04-07T08:21:27.999Z</time></trkpt><trkpt lat="45.884139763539" lon="10.195788389426207"><ele>237.66666666666669</ele><time>2026-04-07T08:21:28.999Z</time></trkpt><trkpt lat="45.88426631220173" lon="10.19604425510254"><ele>235.33333333333334</ele><time>2026-04-07T08:21:29.999Z</time></trkpt><trkpt lat="45.88440003264264" lon="10.196268324402249"><ele>233.0</ele><time>2026-04-07T08:21:30.999Z</time></trkpt><trkpt lat="45.88456338240028" lon="10.196472224675905"><ele>233.66666666666669</ele><time>2026-04-07T08:21:31.999Z</time></trkpt><trkpt lat="45.88471777860753" lon="10.196674667645938"><ele>234.33333333333331</ele><time>2026-04-07T08:21:32.999Z</time></trkpt><trkpt lat="45.884898879276676" lon="10.196891155049082"><ele>235.0</ele><time>2026-04-07T08:21:33.999Z</time></trkpt><trkpt lat="45.88509116698863" lon="10.197091209334447"><ele>231.0</ele><time>2026-04-07T08:21:34.999Z</time></trkpt><trkpt lat="45.88529909270362" lon="10.197263011162752"><ele>227.0</ele><time>2026-04-07T08:21:35.999Z</time></trkpt><trkpt lat="45.8855261359811" lon="10.197423235928355"><ele>226.5</ele><time>2026-04-07T08:21:36.999Z</time></trkpt><trkpt lat="45.88574561128479" lon="10.197581621506663"><ele>226.0</ele><time>2026-04-07T08:21:37.999Z</time></trkpt><trkpt lat="45.885990092476575" lon="10.197704631706651"><ele>224.0</ele><time>2026-04-07T08:21:38.999Z</time></trkpt><trkpt lat="45.88623276413855" lon="10.197827409644956"><ele>222.0</ele><time>2026-04-07T08:21:39.999Z</time></trkpt><trkpt lat="45.88647493108552" lon="10.197958019941966"><ele>222.0</ele><time>2026-04-07T08:21:40.999Z</time></trkpt><trkpt lat="45.88672151388754" lon="10.19809194515428"><ele>222.0</ele><time>2026-04-07T08:21:41.999Z</time></trkpt><trkpt lat="45.88696733732195" lon="10.198233738183452"><ele>221.5</ele><time>2026-04-07T08:21:42.999Z</time></trkpt><trkpt lat="45.88721069120368" lon="10.198368673965506"><ele>221.0</ele><time>2026-04-07T08:21:43.999Z</time></trkpt><trkpt lat="45.887456701159046" lon="10.198505488474078"><ele>221.0</ele><time>2026-04-07T08:21:44.999Z</time></trkpt><trkpt lat="45.887702979548806" lon="10.198636230879634"><ele>221.0</ele><time>2026-04-07T08:21:45.999Z</time></trkpt><trkpt lat="45.887947414760745" lon="10.198766989856294"><ele>221.0</ele><time>2026-04-07T08:21:46.999Z</time></trkpt><trkpt lat="45.888192598993356" lon="10.198896664249721"><ele>221.0</ele><time>2026-04-07T08:21:47.999Z</time></trkpt><trkpt lat="45.888434474797315" lon="10.199028807330016"><ele>221.5</ele><time>2026-04-07T08:21:48.999Z</time></trkpt><trkpt lat="45.88867690794774" lon="10.199159597674573"><ele>222.0</ele><time>2026-04-07T08:21:49.999Z</time></trkpt><trkpt lat="45.8889186239978" lon="10.199294729992419"><ele>222.0</ele><time>2026-04-07T08:21:50.999Z</time></trkpt><trkpt lat="45.889158140861035" lon="10.199426860171096"><ele>222.0</ele><time>2026-04-07T08:21:51.999Z</time></trkpt><trkpt lat="45.88939903065129" lon="10.199562503712738"><ele>223.0</ele><time>2026-04-07T08:21:52.999Z</time></trkpt><trkpt lat="45.88963389852784" lon="10.199701004027805"><ele>224.0</ele><time>2026-04-07T08:21:53.999Z</time></trkpt><trkpt lat="45.88986942555667" lon="10.199847025570822"><ele>223.5</ele><time>2026-04-07T08:21:54.999Z</time></trkpt><trkpt lat="45.89009374751536" lon="10.19999855834974"><ele>223.0</ele><time>2026-04-07T08:21:55.999Z</time></trkpt><trkpt lat="45.890318063197675" lon="10.200169004641753"><ele>223.0</ele><time>2026-04-07T08:21:56.999Z</time></trkpt><trkpt lat="45.89053541668153" lon="10.200348497121494"><ele>223.0</ele><time>2026-04-07T08:21:57.999Z</time></trkpt><trkpt lat="45.890748556911966" lon="10.20054716123057"><ele>222.5</ele><time>2026-04-07T08:21:58.999Z</time></trkpt><trkpt lat="45.890959708190564" lon="10.200754591793572"><ele>222.0</ele><time>2026-04-07T08:21:59.999Z</time></trkpt><trkpt lat="45.891168484839234" lon="10.200977827534073"><ele>222.0</ele><time>2026-04-07T08:22:01Z</time></trkpt><trkpt lat="45.89136983683224" lon="10.201193741840216"><ele>222.0</ele><time>2026-04-07T08:22:02Z</time></trkpt><trkpt lat="45.891575690400366" lon="10.201423753687155"><ele>224.5</ele><time>2026-04-07T08:22:03Z</time></trkpt><trkpt lat="45.89177274878107" lon="10.201653575187605"><ele>227.0</ele><time>2026-04-07T08:22:04Z</time></trkpt><trkpt lat="45.89196881753732" lon="10.20189057629581"><ele>227.0</ele><time>2026-04-07T08:22:05Z</time></trkpt><trkpt lat="45.89216813642333" lon="10.202140020141751"><ele>227.0</ele><time>2026-04-07T08:22:06Z</time></trkpt><trkpt lat="45.8923730415148" lon="10.202390363289055"><ele>225.5</ele><time>2026-04-07T08:22:07Z</time></trkpt><trkpt lat="45.89258020095639" lon="10.20263230734148"><ele>224.0</ele><time>2026-04-07T08:22:08Z</time></trkpt><trkpt lat="45.89280965597506" lon="10.202874501957025"><ele>224.5</ele><time>2026-04-07T08:22:09Z</time></trkpt><trkpt lat="45.89295937342063" lon="10.203121160273627"><ele>225.0</ele><time>2026-04-07T08:22:10Z</time></trkpt><trkpt lat="45.89313985850001" lon="10.203353915041909"><ele>225.0</ele><time>2026-04-07T08:22:11Z</time></trkpt><trkpt lat="45.89331368410554" lon="10.203580526227615"><ele>225.0</ele><time>2026-04-07T08:22:12Z</time></trkpt><trkpt lat="45.893498981471765" lon="10.203815360097797"><ele>224.5</ele><time>2026-04-07T08:22:13Z</time></trkpt><trkpt lat="45.893700207720805" lon="10.204077183876649"><ele>224.0</ele><time>2026-04-07T08:22:14Z</time></trkpt><trkpt lat="45.89390847559264" lon="10.204331426508732"><ele>224.0</ele><time>2026-04-07T08:22:15Z</time></trkpt><trkpt lat="45.894118802889736" lon="10.204589404888878"><ele>224.0</ele><time>2026-04-07T08:22:16Z</time></trkpt><trkpt lat="45.894322887279856" lon="10.204846758279782"><ele>224.0</ele><time>2026-04-07T08:22:17Z</time></trkpt><trkpt lat="45.894524973408984" lon="10.20510162205286"><ele>224.0</ele><time>2026-04-07T08:22:18Z</time></trkpt><trkpt lat="45.89472338742835" lon="10.205345526941533"><ele>224.0</ele><time>2026-04-07T08:22:19Z</time></trkpt><trkpt lat="45.89491804649435" lon="10.20560054913194"><ele>224.0</ele><time>2026-04-07T08:22:20Z</time></trkpt><trkpt lat="45.89510185367239" lon="10.20586432264339"><ele>230.5</ele><time>2026-04-07T08:22:21Z</time></trkpt><trkpt lat="45.89528959174953" lon="10.20612060763133"><ele>237.0</ele><time>2026-04-07T08:22:22Z</time></trkpt><trkpt lat="45.895484602045364" lon="10.206377483500434"><ele>230.0</ele><time>2026-04-07T08:22:23Z</time></trkpt><trkpt lat="45.89567495988885" lon="10.206638756144509"><ele>223.0</ele><time>2026-04-07T08:22:24Z</time></trkpt><trkpt lat="45.895856390077576" lon="10.206908381118252"><ele>228.0</ele><time>2026-04-07T08:22:25Z</time></trkpt><trkpt lat="45.896036938722965" lon="10.207185247132852"><ele>233.0</ele><time>2026-04-07T08:22:26Z</time></trkpt><trkpt lat="45.896213682879576" lon="10.207463153249302"><ele>233.0</ele><time>2026-04-07T08:22:27Z</time></trkpt><trkpt lat="45.89639110687461" lon="10.207740404457741"><ele>233.0</ele><time>2026-04-07T08:22:28Z</time></trkpt><trkpt lat="45.896562679760684" lon="10.208017314107789"><ele>229.5</ele><time>2026-04-07T08:22:29Z</time></trkpt><trkpt lat="45.89673428147997" lon="10.208289689624795"><ele>226.0</ele><time>2026-04-07T08:22:30Z</time></trkpt><trkpt lat="45.896905109166944" lon="10.208565445482295"><ele>228.5</ele><time>2026-04-07T08:22:31Z</time></trkpt><trkpt lat="45.89707825514955" lon="10.208839450141246"><ele>231.0</ele><time>2026-04-07T08:22:32Z</time></trkpt><trkpt lat="45.89725326560263" lon="10.209119188651355"><ele>231.0</ele><time>2026-04-07T08:22:33Z</time></trkpt><trkpt lat="45.897431407969115" lon="10.209403492000831"><ele>231.0</ele><time>2026-04-07T08:22:34Z</time></trkpt><trkpt lat="45.8976058603175" lon="10.209694638159549"><ele>228.0</ele><time>2026-04-07T08:22:35Z</time></trkpt><trkpt lat="45.897768534092194" lon="10.209989391444676"><ele>225.0</ele><time>2026-04-07T08:22:36Z</time></trkpt><trkpt lat="45.8979426922359" lon="10.210274312563127"><ele>225.0</ele><time>2026-04-07T08:22:37Z</time></trkpt><trkpt lat="45.89811655802495" lon="10.210558289725416"><ele>225.0</ele><time>2026-04-07T08:22:38Z</time></trkpt><trkpt lat="45.89829015471298" lon="10.210841414778278"><ele>226.0</ele><time>2026-04-07T08:22:39Z</time></trkpt><trkpt lat="45.898463919464085" lon="10.211126024995592"><ele>227.0</ele><time>2026-04-07T08:22:40Z</time></trkpt><trkpt lat="45.89863462920928" lon="10.211405631902327"><ele>227.0</ele><time>2026-04-07T08:22:41Z</time></trkpt><trkpt lat="45.89880446119787" lon="10.211683800747764"><ele>227.0</ele><time>2026-04-07T08:22:42Z</time></trkpt><trkpt lat="45.89897374208561" lon="10.211961151320184"><ele>227.0</ele><time>2026-04-07T08:22:43Z</time></trkpt><trkpt lat="45.899140834683244" lon="10.212235497331205"><ele>227.0</ele><time>2026-04-07T08:22:44Z</time></trkpt><trkpt lat="45.89930753327559" lon="10.212509196538146"><ele>227.0</ele><time>2026-04-07T08:22:45Z</time></trkpt><trkpt lat="45.89947665422673" lon="10.21278687271397"><ele>227.0</ele><time>2026-04-07T08:22:46Z</time></trkpt><trkpt lat="45.89964564364851" lon="10.213064332816321"><ele>227.5</ele><time>2026-04-07T08:22:47Z</time></trkpt><trkpt lat="45.89981128272208" lon="10.213336292188272"><ele>228.0</ele><time>2026-04-07T08:22:48Z</time></trkpt><trkpt lat="45.899973855586595" lon="10.213603217323719"><ele>228.0</ele><time>2026-04-07T08:22:49Z</time></trkpt><trkpt lat="45.90013630444065" lon="10.213869938887798"><ele>228.0</ele><time>2026-04-07T08:22:50Z</time></trkpt><trkpt lat="45.90030397370876" lon="10.21411782272118"><ele>228.0</ele><time>2026-04-07T08:22:51Z</time></trkpt><trkpt lat="45.90047095424949" lon="10.214397974963891"><ele>228.0</ele><time>2026-04-07T08:22:52Z</time></trkpt><trkpt lat="45.90062976542402" lon="10.214680331594"><ele>228.0</ele><time>2026-04-07T08:22:53Z</time></trkpt><trkpt lat="45.900792897081246" lon="10.214948258127178"><ele>228.0</ele><time>2026-04-07T08:22:54Z</time></trkpt><trkpt lat="45.900966179619374" lon="10.215211781871938"><ele>228.0</ele><time>2026-04-07T08:22:55Z</time></trkpt><trkpt lat="45.901127437975006" lon="10.215496832436406"><ele>228.0</ele><time>2026-04-07T08:22:56Z</time></trkpt><trkpt lat="45.90129473002237" lon="10.215770680335778"><ele>229.0</ele><time>2026-04-07T08:22:56.999Z</time></trkpt><trkpt lat="45.901462573686885" lon="10.216045432464991"><ele>230.0</ele><time>2026-04-07T08:22:57.999Z</time></trkpt><trkpt lat="45.90162801052124" lon="10.216316244346327"><ele>229.0</ele><time>2026-04-07T08:22:58.999Z</time></trkpt><trkpt lat="45.90180074155454" lon="10.216571515433303"><ele>228.0</ele><time>2026-04-07T08:22:59.999Z</time></trkpt><trkpt lat="45.901966179096306" lon="10.216843173137072"><ele>228.0</ele><time>2026-04-07T08:23:00.999Z</time></trkpt><trkpt lat="45.902128962333116" lon="10.217120047715607"><ele>228.0</ele><time>2026-04-07T08:23:01.999Z</time></trkpt><trkpt lat="45.902289364239905" lon="10.217396132887616"><ele>229.0</ele><time>2026-04-07T08:23:02.999Z</time></trkpt><trkpt lat="45.90245402537422" lon="10.217659546287903"><ele>230.0</ele><time>2026-04-07T08:23:03.999Z</time></trkpt><trkpt lat="45.90261819755562" lon="10.217925977728122"><ele>232.0</ele><time>2026-04-07T08:23:04.999Z</time></trkpt><trkpt lat="45.902777787148835" lon="10.21819589277343"><ele>234.0</ele><time>2026-04-07T08:23:05.999Z</time></trkpt><trkpt lat="45.902944781008756" lon="10.21845522698287"><ele>234.0</ele><time>2026-04-07T08:23:06.999Z</time></trkpt><trkpt lat="45.90310125716396" lon="10.218731682031375"><ele>234.0</ele><time>2026-04-07T08:23:07.999Z</time></trkpt><trkpt lat="45.90326651479615" lon="10.219000331503334"><ele>233.0</ele><time>2026-04-07T08:23:08.999Z</time></trkpt><trkpt lat="45.90343163009194" lon="10.219266365240943"><ele>232.0</ele><time>2026-04-07T08:23:09.999Z</time></trkpt><trkpt lat="45.903588546637486" lon="10.219536955858365"><ele>232.0</ele><time>2026-04-07T08:23:10.999Z</time></trkpt><trkpt lat="45.90375729850564" lon="10.219801910707288"><ele>232.0</ele><time>2026-04-07T08:23:11.999Z</time></trkpt><trkpt lat="45.903922185262644" lon="10.220075489826428"><ele>232.0</ele><time>2026-04-07T08:23:12.999Z</time></trkpt><trkpt lat="45.904098076383164" lon="10.220344309324405"><ele>232.0</ele><time>2026-04-07T08:23:13.999Z</time></trkpt><trkpt lat="45.90426798636112" lon="10.22062383978932"><ele>233.5</ele><time>2026-04-07T08:23:14.999Z</time></trkpt><trkpt lat="45.90443767845822" lon="10.220905726397875"><ele>235.0</ele><time>2026-04-07T08:23:15.999Z</time></trkpt><trkpt lat="45.90461223810617" lon="10.221180961575453"><ele>235.0</ele><time>2026-04-07T08:23:16.999Z</time></trkpt><trkpt lat="45.904783282093966" lon="10.221460839174977"><ele>235.0</ele><time>2026-04-07T08:23:17.999Z</time></trkpt><trkpt lat="45.90495754663412" lon="10.221733324344266"><ele>234.0</ele><time>2026-04-07T08:23:18.999Z</time></trkpt><trkpt lat="45.905136172925346" lon="10.22200699295894"><ele>233.0</ele><time>2026-04-07T08:23:19.999Z</time></trkpt><trkpt lat="45.90530725129802" lon="10.222285495345172"><ele>233.0</ele><time>2026-04-07T08:23:20.999Z</time></trkpt><trkpt lat="45.90549182793699" lon="10.222545777939441"><ele>233.0</ele><time>2026-04-07T08:23:21.999Z</time></trkpt><trkpt lat="45.905682011795186" lon="10.22279257447104"><ele>233.0</ele><time>2026-04-07T08:23:22.999Z</time></trkpt><trkpt lat="45.90587587220493" lon="10.223032182617573"><ele>233.0</ele><time>2026-04-07T08:23:23.999Z</time></trkpt><trkpt lat="45.90607631706621" lon="10.223263176225304"><ele>233.0</ele><time>2026-04-07T08:23:24.999Z</time></trkpt><trkpt lat="45.906280262075036" lon="10.22349045244923"><ele>233.0</ele><time>2026-04-07T08:23:25.999Z</time></trkpt><trkpt lat="45.90649061587032" lon="10.223717163145041"><ele>233.0</ele><time>2026-04-07T08:23:26.999Z</time></trkpt><trkpt lat="45.906703191125395" lon="10.223932867988129"><ele>233.0</ele><time>2026-04-07T08:23:27.999Z</time></trkpt><trkpt lat="45.90691251718628" lon="10.224154386090984"><ele>234.0</ele><time>2026-04-07T08:23:28.999Z</time></trkpt><trkpt lat="45.9071263213352" lon="10.22436933054133"><ele>235.0</ele><time>2026-04-07T08:23:29.999Z</time></trkpt><trkpt lat="45.90734004522196" lon="10.224580916073256"><ele>235.0</ele><time>2026-04-07T08:23:30.999Z</time></trkpt><trkpt lat="45.9075524966781" lon="10.224794529871877"><ele>235.0</ele><time>2026-04-07T08:23:31.999Z</time></trkpt><trkpt lat="45.90776313706254" lon="10.225011802193922"><ele>235.0</ele><time>2026-04-07T08:23:32.999Z</time></trkpt><trkpt lat="45.90797181273355" lon="10.225223231498848"><ele>235.0</ele><time>2026-04-07T08:23:33.999Z</time></trkpt><trkpt lat="45.908175183516676" lon="10.225436533950939"><ele>235.5</ele><time>2026-04-07T08:23:34.999Z</time></trkpt><trkpt lat="45.90838117284448" lon="10.225647504799692"><ele>236.0</ele><time>2026-04-07T08:23:35.999Z</time></trkpt><trkpt lat="45.908593640831114" lon="10.22586576175986"><ele>236.5</ele><time>2026-04-07T08:23:36.999Z</time></trkpt><trkpt lat="45.9088018956853" lon="10.226092789968913"><ele>237.0</ele><time>2026-04-07T08:23:37.999Z</time></trkpt><trkpt lat="45.90900476595901" lon="10.226313386849592"><ele>236.5</ele><time>2026-04-07T08:23:38.999Z</time></trkpt><trkpt lat="45.90921200886307" lon="10.226538471581481"><ele>236.0</ele><time>2026-04-07T08:23:39.999Z</time></trkpt><trkpt lat="45.909419946251326" lon="10.226753090763395"><ele>237.0</ele><time>2026-04-07T08:23:40.999Z</time></trkpt><trkpt lat="45.90962731594857" lon="10.22696305225176"><ele>238.0</ele><time>2026-04-07T08:23:41.999Z</time></trkpt><trkpt lat="45.90983584593074" lon="10.227174908614957"><ele>237.0</ele><time>2026-04-07T08:23:42.999Z</time></trkpt><trkpt lat="45.91004151022826" lon="10.227380708524517"><ele>236.0</ele><time>2026-04-07T08:23:43.999Z</time></trkpt><trkpt lat="45.91024860356765" lon="10.227595935402363"><ele>236.0</ele><time>2026-04-07T08:23:44.999Z</time></trkpt><trkpt lat="45.910455246972774" lon="10.227810136366454"><ele>236.0</ele><time>2026-04-07T08:23:45.999Z</time></trkpt><trkpt lat="45.910662619218996" lon="10.228026495243123"><ele>235.5</ele><time>2026-04-07T08:23:46.999Z</time></trkpt><trkpt lat="45.9108685311352" lon="10.228240913562923"><ele>235.0</ele><time>2026-04-07T08:23:47.999Z</time></trkpt><trkpt lat="45.91107449173612" lon="10.228457234009166"><ele>236.5</ele><time>2026-04-07T08:23:48.999Z</time></trkpt><trkpt lat="45.9112802572509" lon="10.228667588920922"><ele>238.0</ele><time>2026-04-07T08:23:49.999Z</time></trkpt><trkpt lat="45.91148353674515" lon="10.228880121924652"><ele>237.5</ele><time>2026-04-07T08:23:50.999Z</time></trkpt><trkpt lat="45.91168756423263" lon="10.229090815060239"><ele>237.0</ele><time>2026-04-07T08:23:51.999Z</time></trkpt><trkpt lat="45.911891390984934" lon="10.229297522971539"><ele>237.0</ele><time>2026-04-07T08:23:52.999Z</time></trkpt><trkpt lat="45.91209943367351" lon="10.229507860680064"><ele>237.0</ele><time>2026-04-07T08:23:53.999Z</time></trkpt><trkpt lat="45.912307421091285" lon="10.229724039789449"><ele>237.5</ele><time>2026-04-07T08:23:54.999Z</time></trkpt><trkpt lat="45.91251315701139" lon="10.229936320034524"><ele>238.0</ele><time>2026-04-07T08:23:55.999Z</time></trkpt><trkpt lat="45.912725595637504" lon="10.230158853153089"><ele>238.0</ele><time>2026-04-07T08:23:56.999Z</time></trkpt><trkpt lat="45.91293154507947" lon="10.23037247834018"><ele>238.0</ele><time>2026-04-07T08:23:57.999Z</time></trkpt><trkpt lat="45.91314149431038" lon="10.230591663677115"><ele>238.5</ele><time>2026-04-07T08:23:58.999Z</time></trkpt><trkpt lat="45.913346011599714" lon="10.230794591376773"><ele>239.0</ele><time>2026-04-07T08:23:59.999Z</time></trkpt><trkpt lat="45.91356062973718" lon="10.23101524922774"><ele>239.5</ele><time>2026-04-07T08:24:00.999Z</time></trkpt><trkpt lat="45.91376899682989" lon="10.231230346003626"><ele>240.0</ele><time>2026-04-07T08:24:01.999Z</time></trkpt><trkpt lat="45.91397878257525" lon="10.23144937777125"><ele>240.0</ele><time>2026-04-07T08:24:02.999Z</time></trkpt><trkpt lat="45.91418506085602" lon="10.231657225652492"><ele>240.0</ele><time>2026-04-07T08:24:03.999Z</time></trkpt><trkpt lat="45.91439803059472" lon="10.231882708087088"><ele>240.5</ele><time>2026-04-07T08:24:04.999Z</time></trkpt><trkpt lat="45.9146064402885" lon="10.232101564933783"><ele>241.0</ele><time>2026-04-07T08:24:05.999Z</time></trkpt><trkpt lat="45.914816819176025" lon="10.232315689912111"><ele>241.0</ele><time>2026-04-07T08:24:07Z</time></trkpt><trkpt lat="45.915030667283276" lon="10.23253302191113"><ele>241.0</ele><time>2026-04-07T08:24:08Z</time></trkpt><trkpt lat="45.915245010865775" lon="10.23275081603414"><ele>241.0</ele><time>2026-04-07T08:24:09Z</time></trkpt><trkpt lat="45.91545752804635" lon="10.232969495729789"><ele>241.0</ele><time>2026-04-07T08:24:10Z</time></trkpt><trkpt lat="45.915680009067266" lon="10.233203732473008"><ele>241.5</ele><time>2026-04-07T08:24:11Z</time></trkpt><trkpt lat="45.91588925762097" lon="10.233418201963277"><ele>242.0</ele><time>2026-04-07T08:24:12Z</time></trkpt><trkpt lat="45.91610063113695" lon="10.233636983993199"><ele>242.0</ele><time>2026-04-07T08:24:13Z</time></trkpt><trkpt lat="45.91631233501859" lon="10.23385630678515"><ele>242.0</ele><time>2026-04-07T08:24:14Z</time></trkpt><trkpt lat="45.91652526069207" lon="10.234073304063827"><ele>241.5</ele><time>2026-04-07T08:24:15Z</time></trkpt><trkpt lat="45.916737780039014" lon="10.234292449831237"><ele>241.0</ele><time>2026-04-07T08:24:16Z</time></trkpt><trkpt lat="45.91695117781907" lon="10.234512140662941"><ele>241.0</ele><time>2026-04-07T08:24:17Z</time></trkpt><trkpt lat="45.917165125076714" lon="10.234724967152054"><ele>241.0</ele><time>2026-04-07T08:24:18Z</time></trkpt><trkpt lat="45.917378133401456" lon="10.23494750753717"><ele>243.0</ele><time>2026-04-07T08:24:19Z</time></trkpt><trkpt lat="45.91758794784037" lon="10.23516676674895"><ele>245.0</ele><time>2026-04-07T08:24:20Z</time></trkpt><trkpt lat="45.917799533106475" lon="10.235387259836903"><ele>245.0</ele><time>2026-04-07T08:24:21Z</time></trkpt><trkpt lat="45.918009052183905" lon="10.235604279308989"><ele>245.0</ele><time>2026-04-07T08:24:22Z</time></trkpt><trkpt lat="45.91822007793692" lon="10.235825717704742"><ele>245.0</ele><time>2026-04-07T08:24:23Z</time></trkpt><trkpt lat="45.91842857240442" lon="10.236034125102798"><ele>245.0</ele><time>2026-04-07T08:24:24Z</time></trkpt><trkpt lat="45.91863947950892" lon="10.236248649762006"><ele>245.0</ele><time>2026-04-07T08:24:25Z</time></trkpt><trkpt lat="45.91884974874122" lon="10.236460478082519"><ele>245.0</ele><time>2026-04-07T08:24:26Z</time></trkpt><trkpt lat="45.91906135540551" lon="10.236677561429488"><ele>246.0</ele><time>2026-04-07T08:24:27Z</time></trkpt><trkpt lat="45.919259949875226" lon="10.236910536718854"><ele>247.0</ele><time>2026-04-07T08:24:28Z</time></trkpt><trkpt lat="45.919467389239664" lon="10.237125007927922"><ele>247.5</ele><time>2026-04-07T08:24:29Z</time></trkpt><trkpt lat="45.91968076552522" lon="10.237344914318655"><ele>248.0</ele><time>2026-04-07T08:24:30Z</time></trkpt><trkpt lat="45.91988883721043" lon="10.237560468077271"><ele>248.0</ele><time>2026-04-07T08:24:31Z</time></trkpt><trkpt lat="45.92009478083864" lon="10.237772217621348"><ele>248.0</ele><time>2026-04-07T08:24:32Z</time></trkpt><trkpt lat="45.92030403775966" lon="10.237987588094311"><ele>249.0</ele><time>2026-04-07T08:24:33Z</time></trkpt><trkpt lat="45.920493166342844" lon="10.238181851389108"><ele>250.0</ele><time>2026-04-07T08:24:34Z</time></trkpt><trkpt lat="45.92069575906709" lon="10.238368650638169"><ele>250.0</ele><time>2026-04-07T08:24:35Z</time></trkpt><trkpt lat="45.92088229725428" lon="10.238578979324789"><ele>250.0</ele><time>2026-04-07T08:24:36Z</time></trkpt><trkpt lat="45.92106076757749" lon="10.238760827675915"><ele>249.66666666666666</ele><time>2026-04-07T08:24:37Z</time></trkpt><trkpt lat="45.92123367711456" lon="10.238937319400566"><ele>249.33333333333331</ele><time>2026-04-07T08:24:38Z</time></trkpt><trkpt lat="45.921422104522144" lon="10.239128671960756"><ele>249.0</ele><time>2026-04-07T08:24:39Z</time></trkpt><trkpt lat="45.92161753425066" lon="10.239324402291654"><ele>248.0</ele><time>2026-04-07T08:24:40Z</time></trkpt><trkpt lat="45.92181555128228" lon="10.23951388170729"><ele>247.0</ele><time>2026-04-07T08:24:41Z</time></trkpt><trkpt lat="45.92203469356841" lon="10.239691134426275"><ele>248.0</ele><time>2026-04-07T08:24:42Z</time></trkpt><trkpt lat="45.92225526054791" lon="10.239888976109428"><ele>249.0</ele><time>2026-04-07T08:24:43Z</time></trkpt><trkpt lat="45.92248008099518" lon="10.240074725968583"><ele>249.5</ele><time>2026-04-07T08:24:44Z</time></trkpt><trkpt lat="45.92271074076414" lon="10.240252877372908"><ele>250.0</ele><time>2026-04-07T08:24:45Z</time></trkpt><trkpt lat="45.9229342056364" lon="10.240429439556877"><ele>250.0</ele><time>2026-04-07T08:24:46Z</time></trkpt><trkpt lat="45.92315986097604" lon="10.240608202666897"><ele>250.0</ele><time>2026-04-07T08:24:47Z</time></trkpt><trkpt lat="45.923374270191985" lon="10.240809999217836"><ele>250.0</ele><time>2026-04-07T08:24:48Z</time></trkpt><trkpt lat="45.923594559842066" lon="10.240988342900476"><ele>250.0</ele><time>2026-04-07T08:24:49Z</time></trkpt><trkpt lat="45.92381301953302" lon="10.241166624055488"><ele>250.0</ele><time>2026-04-07T08:24:50Z</time></trkpt><trkpt lat="45.92403183675291" lon="10.241344072625639"><ele>250.0</ele><time>2026-04-07T08:24:51Z</time></trkpt><trkpt lat="45.9242508798162" lon="10.241522804053929"><ele>250.5</ele><time>2026-04-07T08:24:52Z</time></trkpt><trkpt lat="45.924473918860514" lon="10.24170433855699"><ele>251.0</ele><time>2026-04-07T08:24:53Z</time></trkpt><trkpt lat="45.924700494298314" lon="10.241888605003421"><ele>251.0</ele><time>2026-04-07T08:24:54Z</time></trkpt><trkpt lat="45.924927243820854" lon="10.242073163398413"><ele>251.0</ele><time>2026-04-07T08:24:55Z</time></trkpt><trkpt lat="45.925153433949774" lon="10.242256924204165"><ele>252.0</ele><time>2026-04-07T08:24:56Z</time></trkpt><trkpt lat="45.9253829616724" lon="10.24244344277029"><ele>253.0</ele><time>2026-04-07T08:24:57Z</time></trkpt><trkpt lat="45.92560726532928" lon="10.24262580412667"><ele>253.0</ele><time>2026-04-07T08:24:58Z</time></trkpt><trkpt lat="45.9258323984341" lon="10.242808839809658"><ele>253.0</ele><time>2026-04-07T08:24:59Z</time></trkpt><trkpt lat="45.926059732919065" lon="10.242993313529839"><ele>254.0</ele><time>2026-04-07T08:25:00Z</time></trkpt><trkpt lat="45.92627327637704" lon="10.243166745371367"><ele>255.0</ele><time>2026-04-07T08:25:00.999Z</time></trkpt><trkpt lat="45.92649174313305" lon="10.243322305267185"><ele>255.0</ele><time>2026-04-07T08:25:01.999Z</time></trkpt><trkpt lat="45.92669498008233" lon="10.243487836486521"><ele>255.0</ele><time>2026-04-07T08:25:02.999Z</time></trkpt><trkpt lat="45.92689736813904" lon="10.243673608401746"><ele>254.5</ele><time>2026-04-07T08:25:03.999Z</time></trkpt><trkpt lat="45.92711572458247" lon="10.243850948361601"><ele>254.0</ele><time>2026-04-07T08:25:04.999Z</time></trkpt><trkpt lat="45.92734110206629" lon="10.244031856911285"><ele>254.0</ele><time>2026-04-07T08:25:05.999Z</time></trkpt><trkpt lat="45.92757485940769" lon="10.24418137760534"><ele>254.0</ele><time>2026-04-07T08:25:06.999Z</time></trkpt><trkpt lat="45.927792390365944" lon="10.244370960814676"><ele>254.0</ele><time>2026-04-07T08:25:07.999Z</time></trkpt><trkpt lat="45.92800530314085" lon="10.244568095465452"><ele>254.0</ele><time>2026-04-07T08:25:08.999Z</time></trkpt><trkpt lat="45.92821308073803" lon="10.244777855118375"><ele>255.0</ele><time>2026-04-07T08:25:09.999Z</time></trkpt><trkpt lat="45.92841116205625" lon="10.24500454610437"><ele>256.0</ele><time>2026-04-07T08:25:10.999Z</time></trkpt><trkpt lat="45.928594900753616" lon="10.245246843625898"><ele>256.0</ele><time>2026-04-07T08:25:11.999Z</time></trkpt><trkpt lat="45.92877380636171" lon="10.245499345067357"><ele>256.0</ele><time>2026-04-07T08:25:12.999Z</time></trkpt><trkpt lat="45.92894841669214" lon="10.245755273041652"><ele>255.5</ele><time>2026-04-07T08:25:13.999Z</time></trkpt><trkpt lat="45.929120086696805" lon="10.24602193609501"><ele>255.0</ele><time>2026-04-07T08:25:14.999Z</time></trkpt><trkpt lat="45.929282112165545" lon="10.246303062170448"><ele>255.5</ele><time>2026-04-07T08:25:15.999Z</time></trkpt><trkpt lat="45.92943328865882" lon="10.246604008331321"><ele>256.0</ele><time>2026-04-07T08:25:16.999Z</time></trkpt><trkpt lat="45.92957092433535" lon="10.24691536066154"><ele>256.0</ele><time>2026-04-07T08:25:17.999Z</time></trkpt><trkpt lat="45.92969787469466" lon="10.24723534993376"><ele>256.0</ele><time>2026-04-07T08:25:18.999Z</time></trkpt><trkpt lat="45.929823631009064" lon="10.247564358510951"><ele>256.0</ele><time>2026-04-07T08:25:19.999Z</time></trkpt><trkpt lat="45.929953155233974" lon="10.247893716776883"><ele>256.0</ele><time>2026-04-07T08:25:20.999Z</time></trkpt><trkpt lat="45.9300848551642" lon="10.248215997439916"><ele>256.0</ele><time>2026-04-07T08:25:21.999Z</time></trkpt><trkpt lat="45.93022313274434" lon="10.24854105722738"><ele>256.0</ele><time>2026-04-07T08:25:22.999Z</time></trkpt><trkpt lat="45.930360331707526" lon="10.248866797268334"><ele>256.5</ele><time>2026-04-07T08:25:23.999Z</time></trkpt><trkpt lat="45.93049351054876" lon="10.249189342142673"><ele>257.0</ele><time>2026-04-07T08:25:24.999Z</time></trkpt><trkpt lat="45.9306240437528" lon="10.249509987747281"><ele>256.5</ele><time>2026-04-07T08:25:25.999Z</time></trkpt><trkpt lat="45.93075792941295" lon="10.249838342689845"><ele>256.0</ele><time>2026-04-07T08:25:26.999Z</time></trkpt><trkpt lat="45.93088985947097" lon="10.25015843407988"><ele>255.0</ele><time>2026-04-07T08:25:27.999Z</time></trkpt><trkpt lat="45.93102294914762" lon="10.250482457035474"><ele>254.0</ele><time>2026-04-07T08:25:28.999Z</time></trkpt><trkpt lat="45.931155780024035" lon="10.250804220318075"><ele>254.0</ele><time>2026-04-07T08:25:29.999Z</time></trkpt><trkpt lat="45.93129106088776" lon="10.251127674714683"><ele>254.0</ele><time>2026-04-07T08:25:30.999Z</time></trkpt><trkpt lat="45.93142419564152" lon="10.251446897421786"><ele>254.5</ele><time>2026-04-07T08:25:31.999Z</time></trkpt><trkpt lat="45.93155829126074" lon="10.25177026416511"><ele>255.0</ele><time>2026-04-07T08:25:32.999Z</time></trkpt><trkpt lat="45.93169242095929" lon="10.252101965252747"><ele>252.5</ele><time>2026-04-07T08:25:33.999Z</time></trkpt><trkpt lat="45.93182801282132" lon="10.252428879602975"><ele>250.0</ele><time>2026-04-07T08:25:34.999Z</time></trkpt><trkpt lat="45.93196299053818" lon="10.252759164833405"><ele>250.0</ele><time>2026-04-07T08:25:35.999Z</time></trkpt><trkpt lat="45.93209640457929" lon="10.253091515704124"><ele>250.0</ele><time>2026-04-07T08:25:36.999Z</time></trkpt><trkpt lat="45.93223147002098" lon="10.253422606639896"><ele>252.0</ele><time>2026-04-07T08:25:37.999Z</time></trkpt><trkpt lat="45.93236923855825" lon="10.253750303953701"><ele>254.0</ele><time>2026-04-07T08:25:38.999Z</time></trkpt><trkpt lat="45.93250868855458" lon="10.254072692825444"><ele>253.5</ele><time>2026-04-07T08:25:39.999Z</time></trkpt><trkpt lat="45.93264555616968" lon="10.254400388955595"><ele>253.0</ele><time>2026-04-07T08:25:40.999Z</time></trkpt><trkpt lat="45.93278043739883" lon="10.254734005385176"><ele>253.0</ele><time>2026-04-07T08:25:41.999Z</time></trkpt><trkpt lat="45.93291199078633" lon="10.255063555440671"><ele>253.0</ele><time>2026-04-07T08:25:42.999Z</time></trkpt><trkpt lat="45.933040002872374" lon="10.255399237635476"><ele>252.5</ele><time>2026-04-07T08:25:43.999Z</time></trkpt><trkpt lat="45.9331653762023" lon="10.255737972051962"><ele>252.0</ele><time>2026-04-07T08:25:44.999Z</time></trkpt><trkpt lat="45.933286855923996" lon="10.256082130806623"><ele>253.0</ele><time>2026-04-07T08:25:45.999Z</time></trkpt><trkpt lat="45.93340586680641" lon="10.25641916631061"><ele>254.0</ele><time>2026-04-07T08:25:46.999Z</time></trkpt><trkpt lat="45.9335218658455" lon="10.256765901876996"><ele>254.5</ele><time>2026-04-07T08:25:47.999Z</time></trkpt><trkpt lat="45.93363551186823" lon="10.257116253141971"><ele>255.0</ele><time>2026-04-07T08:25:48.999Z</time></trkpt><trkpt lat="45.933746966884875" lon="10.25746927426511"><ele>255.0</ele><time>2026-04-07T08:25:49.999Z</time></trkpt><trkpt lat="45.933857528235826" lon="10.257826571148868"><ele>255.0</ele><time>2026-04-07T08:25:50.999Z</time></trkpt><trkpt lat="45.93396472090961" lon="10.258185116446857"><ele>254.5</ele><time>2026-04-07T08:25:51.999Z</time></trkpt><trkpt lat="45.934070035959536" lon="10.25854194136825"><ele>254.0</ele><time>2026-04-07T08:25:52.999Z</time></trkpt><trkpt lat="45.93417677756493" lon="10.258901869134718"><ele>254.0</ele><time>2026-04-07T08:25:53.999Z</time></trkpt><trkpt lat="45.93428604722574" lon="10.259258400109076"><ele>254.0</ele><time>2026-04-07T08:25:54.999Z</time></trkpt><trkpt lat="45.9343968685167" lon="10.259610453284887"><ele>255.0</ele><time>2026-04-07T08:25:55.999Z</time></trkpt><trkpt lat="45.93450619230289" lon="10.259967792238324"><ele>256.0</ele><time>2026-04-07T08:25:56.999Z</time></trkpt><trkpt lat="45.93461333452131" lon="10.260317607797948"><ele>256.0</ele><time>2026-04-07T08:25:57.999Z</time></trkpt><trkpt lat="45.93471900378556" lon="10.260677181452333"><ele>256.0</ele><time>2026-04-07T08:25:58.999Z</time></trkpt><trkpt lat="45.9348214518303" lon="10.261038188684578"><ele>256.0</ele><time>2026-04-07T08:25:59.999Z</time></trkpt><trkpt lat="45.93492448862521" lon="10.2613939551865"><ele>256.0</ele><time>2026-04-07T08:26:00.999Z</time></trkpt><trkpt lat="45.93502817033338" lon="10.261747536114783"><ele>257.0</ele><time>2026-04-07T08:26:01.999Z</time></trkpt><trkpt lat="45.93513228025586" lon="10.262101379831646"><ele>258.0</ele><time>2026-04-07T08:26:02.999Z</time></trkpt><trkpt lat="45.935241580060804" lon="10.26244890656535"><ele>258.0</ele><time>2026-04-07T08:26:03.999Z</time></trkpt><trkpt lat="45.935349641486" lon="10.262804397996655"><ele>258.0</ele><time>2026-04-07T08:26:04.999Z</time></trkpt><trkpt lat="45.93546117890422" lon="10.26315486999797"><ele>257.0</ele><time>2026-04-07T08:26:05.999Z</time></trkpt><trkpt lat="45.93556593098991" lon="10.26351186445486"><ele>256.0</ele><time>2026-04-07T08:26:06.999Z</time></trkpt><trkpt lat="45.93566970459842" lon="10.263864171126073"><ele>257.5</ele><time>2026-04-07T08:26:07.999Z</time></trkpt><trkpt lat="45.93577518778881" lon="10.264205526479191"><ele>259.0</ele><time>2026-04-07T08:26:08.999Z</time></trkpt><trkpt lat="45.935878884627925" lon="10.26456294024792"><ele>259.0</ele><time>2026-04-07T08:26:09.999Z</time></trkpt><trkpt lat="45.93599986715418" lon="10.26493085129509"><ele>259.0</ele><time>2026-04-07T08:26:10.999Z</time></trkpt><trkpt lat="45.93611450541462" lon="10.265298583899488"><ele>259.5</ele><time>2026-04-07T08:26:11.999Z</time></trkpt><trkpt lat="45.936192082579076" lon="10.265690823157822"><ele>260.0</ele><time>2026-04-07T08:26:13Z</time></trkpt><trkpt lat="45.936302875699056" lon="10.266060180880544"><ele>260.0</ele><time>2026-04-07T08:26:14Z</time></trkpt><trkpt lat="45.93642110498374" lon="10.26641353124233"><ele>260.0</ele><time>2026-04-07T08:26:15Z</time></trkpt><trkpt lat="45.93652681279185" lon="10.266784063554356"><ele>260.5</ele><time>2026-04-07T08:26:16Z</time></trkpt><trkpt lat="45.936636095830075" lon="10.267147117498746"><ele>261.0</ele><time>2026-04-07T08:26:17Z</time></trkpt><trkpt lat="45.936748296956615" lon="10.267516660046436"><ele>261.0</ele><time>2026-04-07T08:26:18Z</time></trkpt><trkpt lat="45.93686026130877" lon="10.267889318335161"><ele>261.0</ele><time>2026-04-07T08:26:19Z</time></trkpt><trkpt lat="45.9369572655702" lon="10.268258167062328"><ele>262.0</ele><time>2026-04-07T08:26:20Z</time></trkpt><trkpt lat="45.93706999432922" lon="10.268588844810512"><ele>263.0</ele><time>2026-04-07T08:26:21Z</time></trkpt><trkpt lat="45.937170967952476" lon="10.268928300205658"><ele>263.0</ele><time>2026-04-07T08:26:22Z</time></trkpt><trkpt lat="45.937271562214484" lon="10.269259160646412"><ele>263.0</ele><time>2026-04-07T08:26:23Z</time></trkpt><trkpt lat="45.937373723071964" lon="10.26959926740864"><ele>263.0</ele><time>2026-04-07T08:26:24Z</time></trkpt><trkpt lat="45.93747527164423" lon="10.269935260204345"><ele>263.0</ele><time>2026-04-07T08:26:25Z</time></trkpt><trkpt lat="45.93757917878994" lon="10.270278826505875"><ele>262.5</ele><time>2026-04-07T08:26:26Z</time></trkpt><trkpt lat="45.93766651988216" lon="10.270631442667673"><ele>262.0</ele><time>2026-04-07T08:26:27Z</time></trkpt><trkpt lat="45.93777088954879" lon="10.270981924210064"><ele>262.0</ele><time>2026-04-07T08:26:28Z</time></trkpt><trkpt lat="45.93787650754345" lon="10.271336417803273"><ele>262.0</ele><time>2026-04-07T08:26:29Z</time></trkpt><trkpt lat="45.937996616759634" lon="10.271689222811007"><ele>262.5</ele><time>2026-04-07T08:26:30Z</time></trkpt><trkpt lat="45.938105670682766" lon="10.272055580469011"><ele>263.0</ele><time>2026-04-07T08:26:31Z</time></trkpt><trkpt lat="45.93821569330731" lon="10.272416061217141"><ele>263.5</ele><time>2026-04-07T08:26:32Z</time></trkpt><trkpt lat="45.93830230921448" lon="10.272762317659145"><ele>264.0</ele><time>2026-04-07T08:26:33Z</time></trkpt><trkpt lat="45.9383994754322" lon="10.273085801108344"><ele>265.0</ele><time>2026-04-07T08:26:34Z</time></trkpt><trkpt lat="45.938500574107294" lon="10.273419993390037"><ele>266.0</ele><time>2026-04-07T08:26:35Z</time></trkpt><trkpt lat="45.93862064596586" lon="10.273758205513293"><ele>265.5</ele><time>2026-04-07T08:26:36Z</time></trkpt><trkpt lat="45.938722554646645" lon="10.274107468984697"><ele>265.0</ele><time>2026-04-07T08:26:37Z</time></trkpt><trkpt lat="45.938829670242995" lon="10.274462091058863"><ele>265.0</ele><time>2026-04-07T08:26:38Z</time></trkpt><trkpt lat="45.938934663404744" lon="10.274811636743456"><ele>265.0</ele><time>2026-04-07T08:26:39Z</time></trkpt><trkpt lat="45.939027147644246" lon="10.27517823269052"><ele>265.0</ele><time>2026-04-07T08:26:40Z</time></trkpt><trkpt lat="45.93913228038295" lon="10.275531754103953"><ele>265.0</ele><time>2026-04-07T08:26:41Z</time></trkpt><trkpt lat="45.939235632770796" lon="10.275879288205223"><ele>266.5</ele><time>2026-04-07T08:26:42Z</time></trkpt><trkpt lat="45.93933782677379" lon="10.276222927077681"><ele>268.0</ele><time>2026-04-07T08:26:43Z</time></trkpt><trkpt lat="45.93944045382404" lon="10.27656802209838"><ele>268.5</ele><time>2026-04-07T08:26:44Z</time></trkpt><trkpt lat="45.93954225142932" lon="10.276911625377915"><ele>269.0</ele><time>2026-04-07T08:26:45Z</time></trkpt><trkpt lat="45.939644045566105" lon="10.277256107325778"><ele>268.5</ele><time>2026-04-07T08:26:46Z</time></trkpt><trkpt lat="45.93974285610425" lon="10.277586630062274"><ele>268.0</ele><time>2026-04-07T08:26:47Z</time></trkpt><trkpt lat="45.93984203808819" lon="10.277916464844335"><ele>268.66666666666663</ele><time>2026-04-07T08:26:48Z</time></trkpt><trkpt lat="45.93993527876931" lon="10.27822654143807"><ele>269.3333333333333</ele><time>2026-04-07T08:26:49Z</time></trkpt><trkpt lat="45.94001768285583" lon="10.27850293391583"><ele>270.0</ele><time>2026-04-07T08:26:50Z</time></trkpt><trkpt lat="45.94009317032547" lon="10.278758813545886"><ele>270.3333333333333</ele><time>2026-04-07T08:26:51Z</time></trkpt><trkpt lat="45.940164936911586" lon="10.279002298566859"><ele>270.66666666666663</ele><time>2026-04-07T08:26:52Z</time></trkpt><trkpt lat="45.940234920410994" lon="10.279239668245324"><ele>271.0</ele><time>2026-04-07T08:26:53Z</time></trkpt><trkpt lat="45.940305196897114" lon="10.279465266359685"><ele>271.0</ele><time>2026-04-07T08:26:54Z</time></trkpt><trkpt lat="45.940387895463694" lon="10.279707100094031"><ele>271.0</ele><time>2026-04-07T08:26:55Z</time></trkpt><trkpt lat="45.9405030798748" lon="10.279959543469856"><ele>271.0</ele><time>2026-04-07T08:26:56Z</time></trkpt><trkpt lat="45.94060969390427" lon="10.28022061176787"><ele>271.66666666666663</ele><time>2026-04-07T08:26:57Z</time></trkpt><trkpt lat="45.94072681850656" lon="10.280472050832309"><ele>272.3333333333333</ele><time>2026-04-07T08:26:58Z</time></trkpt><trkpt lat="45.94085419303752" lon="10.280709511077026"><ele>273.0</ele><time>2026-04-07T08:26:59Z</time></trkpt><trkpt lat="45.94096286081272" lon="10.28096482988821"><ele>273.0</ele><time>2026-04-07T08:27:00Z</time></trkpt><trkpt lat="45.941082648394534" lon="10.281202957646062"><ele>273.0</ele><time>2026-04-07T08:27:01Z</time></trkpt><trkpt lat="45.94128231606297" lon="10.281340018190095"><ele>273.0</ele><time>2026-04-07T08:27:02Z</time></trkpt><trkpt lat="45.941425502620596" lon="10.281517610249182"><ele>274.6666666666667</ele><time>2026-04-07T08:27:03Z</time></trkpt><trkpt lat="45.9415809527278" lon="10.281695686720829"><ele>276.33333333333337</ele><time>2026-04-07T08:27:04Z</time></trkpt><trkpt lat="45.94173320171519" lon="10.28185005720584"><ele>278.0</ele><time>2026-04-07T08:27:04.999Z</time></trkpt><trkpt lat="45.94187585660357" lon="10.281980711363952"><ele>278.0</ele><time>2026-04-07T08:27:05.999Z</time></trkpt><trkpt lat="45.94200431064665" lon="10.282094698665972"><ele>278.0</ele><time>2026-04-07T08:27:06.999Z</time></trkpt><trkpt lat="45.94213959524836" lon="10.282203642526394"><ele>278.0</ele><time>2026-04-07T08:27:07.999Z</time></trkpt><trkpt lat="45.94228102183216" lon="10.282303993815738"><ele>285.0</ele><time>2026-04-07T08:27:08.999Z</time></trkpt><trkpt lat="45.9424313448285" lon="10.28240041067267"><ele>292.0</ele><time>2026-04-07T08:27:09.999Z</time></trkpt><trkpt lat="45.9425905397217" lon="10.282498433607108"><ele>299.0</ele><time>2026-04-07T08:27:10.999Z</time></trkpt><trkpt lat="45.942748283633776" lon="10.282613655344695"><ele>304.33333333333337</ele><time>2026-04-07T08:27:11.999Z</time></trkpt><trkpt lat="45.94289466487904" lon="10.282719595746437"><ele>309.6666666666667</ele><time>2026-04-07T08:27:12.999Z</time></trkpt><trkpt lat="45.943049384804" lon="10.282838328255355"><ele>315.0</ele><time>2026-04-07T08:27:13.999Z</time></trkpt><trkpt lat="45.943198706286644" lon="10.282936785258611"><ele>315.0</ele><time>2026-04-07T08:27:14.999Z</time></trkpt><trkpt lat="45.943370317561474" lon="10.28307384627727"><ele>315.0</ele><time>2026-04-07T08:27:15.999Z</time></trkpt><trkpt lat="45.9435316992783" lon="10.283166714979934"><ele>315.0</ele><time>2026-04-07T08:27:16.999Z</time></trkpt><trkpt lat="45.943690642666695" lon="10.283264271587324"><ele>335.0</ele><time>2026-04-07T08:27:17.999Z</time></trkpt><trkpt lat="45.9438591638734" lon="10.283385000141415"><ele>355.0</ele><time>2026-04-07T08:27:19.075Z</time></trkpt><trkpt lat="45.944009037888826" lon="10.283494993934807"><ele>375.0</ele><time>2026-04-07T08:27:20.061Z</time></trkpt><trkpt lat="45.944160065674694" lon="10.28361044302928"><ele>294.0</ele><time>2026-04-07T08:27:21.041Z</time></trkpt><trkpt lat="45.9539162744952" lon="10.286193950783009"><ele>312.0</ele><time>2026-04-07T08:28:15.999Z</time></trkpt><trkpt lat="45.954301217791155" lon="10.287002580578035"><ele>312.0</ele><time>2026-04-07T08:28:16.999Z</time></trkpt><trkpt lat="45.95440711128942" lon="10.28655228062801"><ele>312.0</ele><time>2026-04-07T08:28:17.999Z</time></trkpt><trkpt lat="45.95461997543439" lon="10.286707780825353"><ele>312.0</ele><time>2026-04-07T08:28:18.999Z</time></trkpt><trkpt lat="45.95480277305611" lon="10.286897599834493"><ele>312.0</ele><time>2026-04-07T08:28:19.999Z</time></trkpt><trkpt lat="45.95498789826977" lon="10.287085318335516"><ele>306.6666666666667</ele><time>2026-04-07T08:28:20.999Z</time></trkpt><trkpt lat="45.955156760991656" lon="10.287283100927343"><ele>301.33333333333337</ele><time>2026-04-07T08:28:22Z</time></trkpt><trkpt lat="45.95532082656393" lon="10.287491223412127"><ele>296.0</ele><time>2026-04-07T08:28:23Z</time></trkpt><trkpt lat="45.955448463295895" lon="10.287666379704712"><ele>283.0</ele><time>2026-04-07T08:28:24.065Z</time></trkpt><trkpt lat="45.9560983779664" lon="10.287535538668246"><ele>285.0</ele><time>2026-04-07T08:28:26Z</time></trkpt><trkpt lat="45.95608571828462" lon="10.288455054355087"><ele>285.0</ele><time>2026-04-07T08:28:27Z</time></trkpt><trkpt lat="45.95613147674003" lon="10.28888639214169"><ele>285.0</ele><time>2026-04-07T08:28:28Z</time></trkpt><trkpt lat="45.95629504533831" lon="10.289204011060205"><ele>286.5</ele><time>2026-04-07T08:28:29Z</time></trkpt><trkpt lat="45.956441434306974" lon="10.289483485425666"><ele>288.0</ele><time>2026-04-07T08:28:30Z</time></trkpt><trkpt lat="45.95659746720756" lon="10.289782742203991"><ele>285.5</ele><time>2026-04-07T08:28:31Z</time></trkpt><trkpt lat="45.956757280311095" lon="10.290090149749298"><ele>283.0</ele><time>2026-04-07T08:28:32Z</time></trkpt><trkpt lat="45.95691884077883" lon="10.290402416083172"><ele>284.5</ele><time>2026-04-07T08:28:33Z</time></trkpt><trkpt lat="45.95707843728181" lon="10.29071088646089"><ele>286.0</ele><time>2026-04-07T08:28:34Z</time></trkpt><trkpt lat="45.95724957202283" lon="10.291007107706148"><ele>286.0</ele><time>2026-04-07T08:28:35Z</time></trkpt><trkpt lat="45.95741049029307" lon="10.291316556128038"><ele>286.0</ele><time>2026-04-07T08:28:36Z</time></trkpt><trkpt lat="45.95756674253002" lon="10.291625949987322"><ele>289.0</ele><time>2026-04-07T08:28:37Z</time></trkpt><trkpt lat="45.9577192258126" lon="10.291942153747486"><ele>292.0</ele><time>2026-04-07T08:28:38Z</time></trkpt><trkpt lat="45.9578782833959" lon="10.292249609115265"><ele>290.0</ele><time>2026-04-07T08:28:39Z</time></trkpt><trkpt lat="45.95803744721918" lon="10.292560424153464"><ele>288.0</ele><time>2026-04-07T08:28:40Z</time></trkpt><trkpt lat="45.95820057826993" lon="10.292865905648998"><ele>288.5</ele><time>2026-04-07T08:28:41Z</time></trkpt><trkpt lat="45.958361543794624" lon="10.293169532179894"><ele>289.0</ele><time>2026-04-07T08:28:42Z</time></trkpt><trkpt lat="45.95851915959823" lon="10.29348068726278"><ele>297.5</ele><time>2026-04-07T08:28:43Z</time></trkpt><trkpt lat="45.958674125601235" lon="10.293789590135392"><ele>306.0</ele><time>2026-04-07T08:28:44Z</time></trkpt><trkpt lat="45.95882849370338" lon="10.294096742177736"><ele>312.5</ele><time>2026-04-07T08:28:45Z</time></trkpt><trkpt lat="45.95897894255571" lon="10.294405953181467"><ele>319.0</ele><time>2026-04-07T08:28:46Z</time></trkpt><trkpt lat="45.959114222383235" lon="10.294735230777786"><ele>355.0</ele><time>2026-04-07T08:28:47Z</time></trkpt><trkpt lat="45.959259921600434" lon="10.295026985351111"><ele>391.0</ele><time>2026-04-07T08:28:48Z</time></trkpt><trkpt lat="45.95937890775273" lon="10.2953217875414"><ele>383.5</ele><time>2026-04-07T08:28:49Z</time></trkpt><trkpt lat="45.95950342713367" lon="10.29565115507733"><ele>376.0</ele><time>2026-04-07T08:28:50Z</time></trkpt><trkpt lat="45.95960787483772" lon="10.295997249126085"><ele>376.0</ele><time>2026-04-07T08:28:51Z</time></trkpt><trkpt lat="45.95969917828987" lon="10.296275059304772"><ele>376.0</ele><time>2026-04-07T08:28:53Z</time></trkpt><trkpt lat="45.959942357744886" lon="10.29718125477018"><ele>404.5</ele><time>2026-04-07T08:28:54Z</time></trkpt><trkpt lat="45.96005006298295" lon="10.297570146041359"><ele>433.0</ele><time>2026-04-07T08:28:55Z</time></trkpt><trkpt lat="45.96016512044342" lon="10.297985849252964"><ele>423.0</ele><time>2026-04-07T08:28:56.069Z</time></trkpt><trkpt lat="45.96027169799135" lon="10.298371030402528"><ele>413.0</ele><time>2026-04-07T08:28:57.061Z</time></trkpt><trkpt lat="45.960378853317245" lon="10.298758024844558"><ele>374.0</ele><time>2026-04-07T08:28:58.056Z</time></trkpt><trkpt lat="45.96133943274064" lon="10.301319534795992"><ele>325.0</ele><time>2026-04-07T08:29:01.272Z</time></trkpt><trkpt lat="45.96186405652655" lon="10.30244607156326"><ele>325.0</ele><time>2026-04-07T08:29:12.999Z</time></trkpt><trkpt lat="45.96194734485611" lon="10.302691793738125"><ele>325.0</ele><time>2026-04-07T08:29:13.999Z</time></trkpt><trkpt lat="45.96188523429664" lon="10.303074459236639"><ele>315.3333333333333</ele><time>2026-04-07T08:29:14.999Z</time></trkpt><trkpt lat="45.96197482000266" lon="10.303352858108159"><ele>305.6666666666667</ele><time>2026-04-07T08:29:15.999Z</time></trkpt><trkpt lat="45.962072816034514" lon="10.303656760392581"><ele>296.0</ele><time>2026-04-07T08:29:16.999Z</time></trkpt><trkpt lat="45.96217823989118" lon="10.303982920809716"><ele>294.5</ele><time>2026-04-07T08:29:17.999Z</time></trkpt><trkpt lat="45.96227247028233" lon="10.304275548690367"><ele>293.0</ele><time>2026-04-07T08:29:18.999Z</time></trkpt><trkpt lat="45.96238104612431" lon="10.304612836001143"><ele>292.0</ele><time>2026-04-07T08:29:19.999Z</time></trkpt><trkpt lat="45.962492229876084" lon="10.304958224648244"><ele>291.0</ele><time>2026-04-07T08:29:20.999Z</time></trkpt><trkpt lat="45.9626028347147" lon="10.305303528763549"><ele>290.0</ele><time>2026-04-07T08:29:21.999Z</time></trkpt><trkpt lat="45.96271642089598" lon="10.305660546469005"><ele>289.0</ele><time>2026-04-07T08:29:22.999Z</time></trkpt><trkpt lat="45.96282760313498" lon="10.306006962093335"><ele>289.0</ele><time>2026-04-07T08:29:23.999Z</time></trkpt><trkpt lat="45.96294130369388" lon="10.306360322658472"><ele>289.0</ele><time>2026-04-07T08:29:24.999Z</time></trkpt><trkpt lat="45.9630543798629" lon="10.306708543561593"><ele>289.5</ele><time>2026-04-07T08:29:25.999Z</time></trkpt><trkpt lat="45.963167092378576" lon="10.307055588942394"><ele>290.0</ele><time>2026-04-07T08:29:26.999Z</time></trkpt><trkpt lat="45.963277887536094" lon="10.30740330291815"><ele>290.0</ele><time>2026-04-07T08:29:27.999Z</time></trkpt><trkpt lat="45.96339026771667" lon="10.307752486412806"><ele>290.0</ele><time>2026-04-07T08:29:28.999Z</time></trkpt><trkpt lat="45.96349961001371" lon="10.30809241945271"><ele>290.0</ele><time>2026-04-07T08:29:29.999Z</time></trkpt><trkpt lat="45.96362459472255" lon="10.308423229987897"><ele>290.0</ele><time>2026-04-07T08:29:30.999Z</time></trkpt><trkpt lat="45.96373429034676" lon="10.308764942388667"><ele>291.0</ele><time>2026-04-07T08:29:31.999Z</time></trkpt><trkpt lat="45.96382957592048" lon="10.309110964732202"><ele>292.0</ele><time>2026-04-07T08:29:32.999Z</time></trkpt><trkpt lat="45.96393760754808" lon="10.309444268080558"><ele>292.5</ele><time>2026-04-07T08:29:33.999Z</time></trkpt><trkpt lat="45.964044417044875" lon="10.309772745010262"><ele>293.0</ele><time>2026-04-07T08:29:34.999Z</time></trkpt><trkpt lat="45.96415334750711" lon="10.310106312070248"><ele>292.0</ele><time>2026-04-07T08:29:35.999Z</time></trkpt><trkpt lat="45.96426177567639" lon="10.310438341393699"><ele>291.0</ele><time>2026-04-07T08:29:36.999Z</time></trkpt><trkpt lat="45.96438278032284" lon="10.310756441505205"><ele>291.0</ele><time>2026-04-07T08:29:37.999Z</time></trkpt><trkpt lat="45.96447813092575" lon="10.311101843442014"><ele>291.0</ele><time>2026-04-07T08:29:38.999Z</time></trkpt><trkpt lat="45.964589257841375" lon="10.31144195744425"><ele>290.5</ele><time>2026-04-07T08:29:39.999Z</time></trkpt><trkpt lat="45.96469859119326" lon="10.311775698625567"><ele>290.0</ele><time>2026-04-07T08:29:40.999Z</time></trkpt><trkpt lat="45.964811031818755" lon="10.312116045851965"><ele>290.0</ele><time>2026-04-07T08:29:41.999Z</time></trkpt><trkpt lat="45.96492265471739" lon="10.312454379394183"><ele>290.0</ele><time>2026-04-07T08:29:42.999Z</time></trkpt><trkpt lat="45.96504415897352" lon="10.31277397968061"><ele>290.0</ele><time>2026-04-07T08:29:43.999Z</time></trkpt><trkpt lat="45.96515173687137" lon="10.313109186914561"><ele>290.0</ele><time>2026-04-07T08:29:44.999Z</time></trkpt><trkpt lat="45.96526528314713" lon="10.313439938328106"><ele>290.0</ele><time>2026-04-07T08:29:45.999Z</time></trkpt><trkpt lat="45.96537668002424" lon="10.313766100916595"><ele>290.0</ele><time>2026-04-07T08:29:46.999Z</time></trkpt><trkpt lat="45.96550026066119" lon="10.314081924718067"><ele>290.5</ele><time>2026-04-07T08:29:47.999Z</time></trkpt><trkpt lat="45.965639829273485" lon="10.314384581549152"><ele>291.0</ele><time>2026-04-07T08:29:48.999Z</time></trkpt><trkpt lat="45.96579217448219" lon="10.314676717439493"><ele>292.0</ele><time>2026-04-07T08:29:49.999Z</time></trkpt><trkpt lat="45.965952499690445" lon="10.314960617345914"><ele>293.0</ele><time>2026-04-07T08:29:50.999Z</time></trkpt><trkpt lat="45.96611610799914" lon="10.315234867524055"><ele>293.0</ele><time>2026-04-07T08:29:51.999Z</time></trkpt><trkpt lat="45.96625744744637" lon="10.31551295765201"><ele>293.0</ele><time>2026-04-07T08:29:52.999Z</time></trkpt><trkpt lat="45.96641726776991" lon="10.315778635822955"><ele>293.0</ele><time>2026-04-07T08:29:53.999Z</time></trkpt><trkpt lat="45.966580751795185" lon="10.316040553820265"><ele>293.0</ele><time>2026-04-07T08:29:54.999Z</time></trkpt><trkpt lat="45.96674717704094" lon="10.316295203262827"><ele>294.0</ele><time>2026-04-07T08:29:55.999Z</time></trkpt><trkpt lat="45.96691645719991" lon="10.316546829372314"><ele>295.0</ele><time>2026-04-07T08:29:56.999Z</time></trkpt><trkpt lat="45.96710348816339" lon="10.316780461661759"><ele>295.0</ele><time>2026-04-07T08:29:57.999Z</time></trkpt><trkpt lat="45.96727833260833" lon="10.31703062595663"><ele>295.0</ele><time>2026-04-07T08:29:58.999Z</time></trkpt><trkpt lat="45.967454167441886" lon="10.317270648899326"><ele>297.5</ele><time>2026-04-07T08:29:59.999Z</time></trkpt><trkpt lat="45.9676407570668" lon="10.317510271658414"><ele>300.0</ele><time>2026-04-07T08:30:00.999Z</time></trkpt><trkpt lat="45.96783130007739" lon="10.31773716229551"><ele>300.0</ele><time>2026-04-07T08:30:01.999Z</time></trkpt><trkpt lat="45.9680221785794" lon="10.317946964704992"><ele>300.0</ele><time>2026-04-07T08:30:02.999Z</time></trkpt><trkpt lat="45.96821889607622" lon="10.318158180931587"><ele>302.5</ele><time>2026-04-07T08:30:03.999Z</time></trkpt><trkpt lat="45.968413541538894" lon="10.318363833285272"><ele>305.0</ele><time>2026-04-07T08:30:04.999Z</time></trkpt><trkpt lat="45.96861586838574" lon="10.31857275487677"><ele>305.0</ele><time>2026-04-07T08:30:05.999Z</time></trkpt><trkpt lat="45.968820993620625" lon="10.318775794016194"><ele>305.0</ele><time>2026-04-07T08:30:06.999Z</time></trkpt><trkpt lat="45.96903063534843" lon="10.318976096081855"><ele>306.5</ele><time>2026-04-07T08:30:07.999Z</time></trkpt><trkpt lat="45.96924343129008" lon="10.319164866169698"><ele>308.0</ele><time>2026-04-07T08:30:08.999Z</time></trkpt><trkpt lat="45.969469838186285" lon="10.31935300800016"><ele>308.0</ele><time>2026-04-07T08:30:09.999Z</time></trkpt><trkpt lat="45.96969136294727" lon="10.319534448939377"><ele>308.0</ele><time>2026-04-07T08:30:10.999Z</time></trkpt><trkpt lat="45.96992639299565" lon="10.319713225036498"><ele>310.0</ele><time>2026-04-07T08:30:11.999Z</time></trkpt><trkpt lat="45.97015436423794" lon="10.31987711260654"><ele>312.0</ele><time>2026-04-07T08:30:12.999Z</time></trkpt><trkpt lat="45.97039248681906" lon="10.320044973734694"><ele>312.0</ele><time>2026-04-07T08:30:13.999Z</time></trkpt><trkpt lat="45.97062998450253" lon="10.320202525663003"><ele>312.0</ele><time>2026-04-07T08:30:14.999Z</time></trkpt><trkpt lat="45.97086873738331" lon="10.320358668126994"><ele>310.5</ele><time>2026-04-07T08:30:15.999Z</time></trkpt><trkpt lat="45.971110332332636" lon="10.320516852772649"><ele>309.0</ele><time>2026-04-07T08:30:16.999Z</time></trkpt><trkpt lat="45.971350922343106" lon="10.320670728128276"><ele>311.0</ele><time>2026-04-07T08:30:17.999Z</time></trkpt><trkpt lat="45.97159393300564" lon="10.320835876810573"><ele>313.0</ele><time>2026-04-07T08:30:18.999Z</time></trkpt><trkpt lat="45.97183691270342" lon="10.320999981525832"><ele>313.0</ele><time>2026-04-07T08:30:19.999Z</time></trkpt><trkpt lat="45.97207901166811" lon="10.321164469262083"><ele>313.0</ele><time>2026-04-07T08:30:20.999Z</time></trkpt><trkpt lat="45.972322357333155" lon="10.321325109908981"><ele>315.0</ele><time>2026-04-07T08:30:21.999Z</time></trkpt><trkpt lat="45.97256530500331" lon="10.321484567487733"><ele>317.0</ele><time>2026-04-07T08:30:22.999Z</time></trkpt><trkpt lat="45.97281236201718" lon="10.321642863796336"><ele>317.0</ele><time>2026-04-07T08:30:23.999Z</time></trkpt><trkpt lat="45.973058987393635" lon="10.321803182786438"><ele>317.0</ele><time>2026-04-07T08:30:24.999Z</time></trkpt><trkpt lat="45.973307723165355" lon="10.32196547777355"><ele>318.0</ele><time>2026-04-07T08:30:25.999Z</time></trkpt><trkpt lat="45.97355607307599" lon="10.322126628432503"><ele>319.0</ele><time>2026-04-07T08:30:27Z</time></trkpt><trkpt lat="45.97380655877876" lon="10.322289094671605"><ele>319.0</ele><time>2026-04-07T08:30:28Z</time></trkpt><trkpt lat="45.97405629214061" lon="10.322452986282785"><ele>319.0</ele><time>2026-04-07T08:30:29Z</time></trkpt><trkpt lat="45.97430730523711" lon="10.322620018773462"><ele>318.5</ele><time>2026-04-07T08:30:30Z</time></trkpt><trkpt lat="45.97455741611575" lon="10.322788733296075"><ele>318.0</ele><time>2026-04-07T08:30:31Z</time></trkpt><trkpt lat="45.974810055959736" lon="10.322960178815787"><ele>320.0</ele><time>2026-04-07T08:30:32Z</time></trkpt><trkpt lat="45.97505979333624" lon="10.323125206426027"><ele>322.0</ele><time>2026-04-07T08:30:33Z</time></trkpt><trkpt lat="45.9753111037605" lon="10.323291441660771"><ele>322.0</ele><time>2026-04-07T08:30:34Z</time></trkpt><trkpt lat="45.97555643322168" lon="10.323446996411837"><ele>322.0</ele><time>2026-04-07T08:30:35Z</time></trkpt><trkpt lat="45.97580737095872" lon="10.32361016097365"><ele>323.0</ele><time>2026-04-07T08:30:36Z</time></trkpt><trkpt lat="45.97605812027339" lon="10.323774797723644"><ele>324.0</ele><time>2026-04-07T08:30:37Z</time></trkpt><trkpt lat="45.97630814870774" lon="10.32393964243313"><ele>324.0</ele><time>2026-04-07T08:30:38Z</time></trkpt><trkpt lat="45.97655445790936" lon="10.324100511196718"><ele>324.0</ele><time>2026-04-07T08:30:39Z</time></trkpt><trkpt lat="45.97680055658839" lon="10.324264277444309"><ele>323.0</ele><time>2026-04-07T08:30:40Z</time></trkpt><trkpt lat="45.97704114403746" lon="10.32441840784505"><ele>322.0</ele><time>2026-04-07T08:30:41Z</time></trkpt><trkpt lat="45.97728706498396" lon="10.324578854317076"><ele>325.5</ele><time>2026-04-07T08:30:42Z</time></trkpt><trkpt lat="45.97752822663162" lon="10.324735186871651"><ele>329.0</ele><time>2026-04-07T08:30:43Z</time></trkpt><trkpt lat="45.977769268871974" lon="10.324892316178438"><ele>329.0</ele><time>2026-04-07T08:30:44Z</time></trkpt><trkpt lat="45.97801075228989" lon="10.325052480982851"><ele>329.0</ele><time>2026-04-07T08:30:45Z</time></trkpt><trkpt lat="45.97824979086797" lon="10.325210569314098"><ele>328.0</ele><time>2026-04-07T08:30:46Z</time></trkpt><trkpt lat="45.97848634326433" lon="10.32537629031029"><ele>327.0</ele><time>2026-04-07T08:30:47Z</time></trkpt><trkpt lat="45.97872044587821" lon="10.325541402050446"><ele>328.0</ele><time>2026-04-07T08:30:48Z</time></trkpt><trkpt lat="45.97895896047935" lon="10.325727620797712"><ele>329.0</ele><time>2026-04-07T08:30:49Z</time></trkpt><trkpt lat="45.979184756283594" lon="10.325908356033539"><ele>329.0</ele><time>2026-04-07T08:30:50Z</time></trkpt><trkpt lat="45.97941348862059" lon="10.326108761675238"><ele>329.0</ele><time>2026-04-07T08:30:51Z</time></trkpt><trkpt lat="45.97963381965008" lon="10.326332810341322"><ele>330.0</ele><time>2026-04-07T08:30:52Z</time></trkpt><trkpt lat="45.979846110085305" lon="10.326570276602771"><ele>331.0</ele><time>2026-04-07T08:30:53Z</time></trkpt><trkpt lat="45.98005097812198" lon="10.32682194980076"><ele>331.0</ele><time>2026-04-07T08:30:54Z</time></trkpt><trkpt lat="45.98024626035447" lon="10.327091785962889"><ele>331.0</ele><time>2026-04-07T08:30:55Z</time></trkpt><trkpt lat="45.98043486751782" lon="10.327381356871946"><ele>334.0</ele><time>2026-04-07T08:30:56Z</time></trkpt><trkpt lat="45.98061720549282" lon="10.32766309548031"><ele>337.0</ele><time>2026-04-07T08:30:57Z</time></trkpt><trkpt lat="45.98080015752577" lon="10.327944651147172"><ele>336.0</ele><time>2026-04-07T08:30:58Z</time></trkpt><trkpt lat="45.98097981058929" lon="10.328237847235904"><ele>335.0</ele><time>2026-04-07T08:30:59Z</time></trkpt><trkpt lat="45.98115618241437" lon="10.328533919484562"><ele>335.0</ele><time>2026-04-07T08:31:00Z</time></trkpt><trkpt lat="45.98133104984899" lon="10.3288294553888"><ele>335.0</ele><time>2026-04-07T08:31:01Z</time></trkpt><trkpt lat="45.9815041301433" lon="10.329138387449518"><ele>334.0</ele><time>2026-04-07T08:31:02Z</time></trkpt><trkpt lat="45.98167903226944" lon="10.329439874070312"><ele>333.0</ele><time>2026-04-07T08:31:03Z</time></trkpt><trkpt lat="45.98185517921018" lon="10.329741455871188"><ele>333.0</ele><time>2026-04-07T08:31:04Z</time></trkpt><trkpt lat="45.982030148095006" lon="10.330037518917852"><ele>333.0</ele><time>2026-04-07T08:31:05Z</time></trkpt><trkpt lat="45.98220404504948" lon="10.33033732603751"><ele>333.0</ele><time>2026-04-07T08:31:06Z</time></trkpt><trkpt lat="45.982380137598014" lon="10.330648291886874"><ele>333.0</ele><time>2026-04-07T08:31:07Z</time></trkpt><trkpt lat="45.98256651976899" lon="10.330969866824532"><ele>333.0</ele><time>2026-04-07T08:31:08Z</time></trkpt><trkpt lat="45.98275344563569" lon="10.331292185678757"><ele>333.0</ele><time>2026-04-07T08:31:09Z</time></trkpt><trkpt lat="45.98293838437329" lon="10.331615963477475"><ele>335.5</ele><time>2026-04-07T08:31:10Z</time></trkpt><trkpt lat="45.983122572619735" lon="10.331939737921356"><ele>338.0</ele><time>2026-04-07T08:31:11Z</time></trkpt><trkpt lat="45.98330185083385" lon="10.332253474766281"><ele>336.5</ele><time>2026-04-07T08:31:12Z</time></trkpt><trkpt lat="45.98347905818235" lon="10.332570535769966"><ele>335.0</ele><time>2026-04-07T08:31:12.999Z</time></trkpt><trkpt lat="45.98365762299236" lon="10.332872130011994"><ele>336.5</ele><time>2026-04-07T08:31:13.999Z</time></trkpt><trkpt lat="45.98383515055673" lon="10.333159513967068"><ele>338.0</ele><time>2026-04-07T08:31:14.999Z</time></trkpt><trkpt lat="45.984017641436864" lon="10.333444593420543"><ele>336.5</ele><time>2026-04-07T08:31:15.999Z</time></trkpt><trkpt lat="45.984202928081785" lon="10.333711260803055"><ele>335.0</ele><time>2026-04-07T08:31:16.999Z</time></trkpt><trkpt lat="45.98439510353792" lon="10.333967439969548"><ele>335.0</ele><time>2026-04-07T08:31:17.999Z</time></trkpt><trkpt lat="45.9845908002223" lon="10.33420966374557"><ele>335.0</ele><time>2026-04-07T08:31:18.999Z</time></trkpt><trkpt lat="45.98479254507179" lon="10.33443697122544"><ele>335.0</ele><time>2026-04-07T08:31:19.999Z</time></trkpt><trkpt lat="45.984999209339286" lon="10.33464060228467"><ele>335.0</ele><time>2026-04-07T08:31:20.999Z</time></trkpt><trkpt lat="45.985212884707835" lon="10.334841666704717"><ele>336.0</ele><time>2026-04-07T08:31:21.999Z</time></trkpt><trkpt lat="45.985435385486724" lon="10.335029184714683"><ele>337.0</ele><time>2026-04-07T08:31:22.999Z</time></trkpt><trkpt lat="45.98566360755864" lon="10.335201515458266"><ele>336.0</ele><time>2026-04-07T08:31:23.999Z</time></trkpt><trkpt lat="45.985898779679005" lon="10.3353687272815"><ele>335.0</ele><time>2026-04-07T08:31:24.999Z</time></trkpt><trkpt lat="45.986139661528064" lon="10.33551524963555"><ele>338.5</ele><time>2026-04-07T08:31:25.999Z</time></trkpt><trkpt lat="45.98638666596511" lon="10.335638464242281"><ele>342.0</ele><time>2026-04-07T08:31:26.999Z</time></trkpt><trkpt lat="45.98664327861404" lon="10.33575695691459"><ele>341.5</ele><time>2026-04-07T08:31:27.999Z</time></trkpt><trkpt lat="45.986902263339736" lon="10.33585611896518"><ele>341.0</ele><time>2026-04-07T08:31:28.999Z</time></trkpt><trkpt lat="45.987164263279276" lon="10.335951687910875"><ele>341.0</ele><time>2026-04-07T08:31:29.999Z</time></trkpt><trkpt lat="45.987428543878316" lon="10.336034306516847"><ele>341.0</ele><time>2026-04-07T08:31:30.999Z</time></trkpt><trkpt lat="45.987698468958676" lon="10.336114318372509"><ele>341.0</ele><time>2026-04-07T08:31:31.999Z</time></trkpt><trkpt lat="45.987972813495915" lon="10.336197254857616"><ele>341.0</ele><time>2026-04-07T08:31:32.999Z</time></trkpt><trkpt lat="45.988246456158244" lon="10.336286500478403"><ele>342.5</ele><time>2026-04-07T08:31:33.999Z</time></trkpt><trkpt lat="45.988522710546675" lon="10.336369144008657"><ele>344.0</ele><time>2026-04-07T08:31:34.999Z</time></trkpt><trkpt lat="45.988799288685286" lon="10.336449089208564"><ele>346.0</ele><time>2026-04-07T08:31:35.999Z</time></trkpt><trkpt lat="45.98907702007662" lon="10.336535413440947"><ele>348.0</ele><time>2026-04-07T08:31:36.999Z</time></trkpt><trkpt lat="45.98935643252751" lon="10.336628824856481"><ele>348.0</ele><time>2026-04-07T08:31:37.999Z</time></trkpt><trkpt lat="45.989630524971425" lon="10.336725360612276"><ele>348.0</ele><time>2026-04-07T08:31:38.999Z</time></trkpt><trkpt lat="45.989903056690146" lon="10.336833496014322"><ele>346.5</ele><time>2026-04-07T08:31:39.999Z</time></trkpt><trkpt lat="45.99017038097187" lon="10.33695756341859"><ele>345.0</ele><time>2026-04-07T08:31:40.999Z</time></trkpt><trkpt lat="45.99043536643289" lon="10.337102411388969"><ele>346.0</ele><time>2026-04-07T08:31:41.999Z</time></trkpt><trkpt lat="45.9906952013155" lon="10.337250604879209"><ele>347.0</ele><time>2026-04-07T08:31:42.999Z</time></trkpt><trkpt lat="45.9909531801" lon="10.337394473268082"><ele>347.0</ele><time>2026-04-07T08:31:43.999Z</time></trkpt><trkpt lat="45.99120888212331" lon="10.337539820368484"><ele>347.0</ele><time>2026-04-07T08:31:44.999Z</time></trkpt><trkpt lat="45.99146063691881" lon="10.337700128600021"><ele>348.0</ele><time>2026-04-07T08:31:45.999Z</time></trkpt><trkpt lat="45.991714415994686" lon="10.337843941654734"><ele>349.0</ele><time>2026-04-07T08:31:46.999Z</time></trkpt><trkpt lat="45.991974121147464" lon="10.337990489711114"><ele>353.0</ele><time>2026-04-07T08:31:47.999Z</time></trkpt><trkpt lat="45.992237602293194" lon="10.338125865152199"><ele>357.0</ele><time>2026-04-07T08:31:48.999Z</time></trkpt><trkpt lat="45.99250003160291" lon="10.338263950148907"><ele>357.0</ele><time>2026-04-07T08:31:49.999Z</time></trkpt><trkpt lat="45.99276330619879" lon="10.338417997922473"><ele>357.0</ele><time>2026-04-07T08:31:50.999Z</time></trkpt><trkpt lat="45.99302943958196" lon="10.338564922212381"><ele>357.0</ele><time>2026-04-07T08:31:51.999Z</time></trkpt><trkpt lat="45.99329067622062" lon="10.338739846534212"><ele>357.0</ele><time>2026-04-07T08:31:52.999Z</time></trkpt><trkpt lat="45.99356027495205" lon="10.338895091792907"><ele>360.5</ele><time>2026-04-07T08:31:53.999Z</time></trkpt><trkpt lat="45.99383045251979" lon="10.339050322514233"><ele>364.0</ele><time>2026-04-07T08:31:54.999Z</time></trkpt><trkpt lat="45.99409953057276" lon="10.339204763652427"><ele>361.5</ele><time>2026-04-07T08:31:55.999Z</time></trkpt><trkpt lat="45.9943903931722" lon="10.33937117515005"><ele>359.0</ele><time>2026-04-07T08:31:56.999Z</time></trkpt><trkpt lat="45.99466635080717" lon="10.339527668787925"><ele>359.0</ele><time>2026-04-07T08:31:57.999Z</time></trkpt><trkpt lat="45.99492417932334" lon="10.33965660658234"><ele>359.0</ele><time>2026-04-07T08:31:58.999Z</time></trkpt><trkpt lat="45.995169898832444" lon="10.339816352092228"><ele>361.0</ele><time>2026-04-07T08:31:59.999Z</time></trkpt><trkpt lat="45.995412071352334" lon="10.339987970438049"><ele>363.0</ele><time>2026-04-07T08:32:00.999Z</time></trkpt><trkpt lat="45.99565918487467" lon="10.340172314344626"><ele>363.0</ele><time>2026-04-07T08:32:01.999Z</time></trkpt><trkpt lat="45.99588874400853" lon="10.340403008093299"><ele>363.0</ele><time>2026-04-07T08:32:02.999Z</time></trkpt><trkpt lat="45.99610953334252" lon="10.340619617624498"><ele>363.0</ele><time>2026-04-07T08:32:03.999Z</time></trkpt><trkpt lat="45.996327064018836" lon="10.340855765232497"><ele>363.0</ele><time>2026-04-07T08:32:04.999Z</time></trkpt><trkpt lat="45.99654281338235" lon="10.341112076228088"><ele>362.0</ele><time>2026-04-07T08:32:06.059Z</time></trkpt><trkpt lat="45.99673605490142" lon="10.341364816282198"><ele>361.0</ele><time>2026-04-07T08:32:07.058Z</time></trkpt><trkpt lat="45.996919591165216" lon="10.341626965337898"><ele>361.0</ele><time>2026-04-07T08:32:08.058Z</time></trkpt><trkpt lat="45.99708964439167" lon="10.34189125050857"><ele>361.0</ele><time>2026-04-07T08:32:09.058Z</time></trkpt><trkpt lat="45.99828170944184" lon="10.344229250136253"><ele>361.0</ele><time>2026-04-07T08:32:12.27Z</time></trkpt><trkpt lat="45.998641074298405" lon="10.344972183852079"><ele>366.0</ele><time>2026-04-07T08:32:13.271Z</time></trkpt><trkpt lat="45.99900311467245" lon="10.345708699945224"><ele>359.0</ele><time>2026-04-07T08:32:14.268Z</time></trkpt><trkpt lat="45.99938789393631" lon="10.346427242961504"><ele>359.0</ele><time>2026-04-07T08:32:15.271Z</time></trkpt><trkpt lat="45.999859712384634" lon="10.347199221441983"><ele>359.5</ele><time>2026-04-07T08:32:31.999Z</time></trkpt><trkpt lat="46.00006934358371" lon="10.347422037482847"><ele>360.0</ele><time>2026-04-07T08:32:32.999Z</time></trkpt><trkpt lat="46.00021456201123" lon="10.347628901960627"><ele>360.0</ele><time>2026-04-07T08:32:33.999Z</time></trkpt><trkpt lat="46.00043019423453" lon="10.347817115522208"><ele>360.0</ele><time>2026-04-07T08:32:34.999Z</time></trkpt><trkpt lat="46.00063282585012" lon="10.347961680956844"><ele>359.0</ele><time>2026-04-07T08:32:35.999Z</time></trkpt><trkpt lat="46.00084006886911" lon="10.348133820850707"><ele>358.0</ele><time>2026-04-07T08:32:37Z</time></trkpt><trkpt lat="46.00106489268843" lon="10.348264241535153"><ele>358.0</ele><time>2026-04-07T08:32:38Z</time></trkpt><trkpt lat="46.00129652773841" lon="10.348388838813467"><ele>358.0</ele><time>2026-04-07T08:32:39Z</time></trkpt><trkpt lat="46.001530908748336" lon="10.348494086362184"><ele>358.5</ele><time>2026-04-07T08:32:40Z</time></trkpt><trkpt lat="46.00176773372987" lon="10.34857978175392"><ele>359.0</ele><time>2026-04-07T08:32:41Z</time></trkpt><trkpt lat="46.002007955975955" lon="10.348643370034798"><ele>359.0</ele><time>2026-04-07T08:32:42Z</time></trkpt><trkpt lat="46.00225580456959" lon="10.348681439195914"><ele>359.0</ele><time>2026-04-07T08:32:43Z</time></trkpt><trkpt lat="46.002502907542265" lon="10.34870456231598"><ele>359.0</ele><time>2026-04-07T08:32:44Z</time></trkpt><trkpt lat="46.002753802406076" lon="10.348708820841873"><ele>359.0</ele><time>2026-04-07T08:32:45Z</time></trkpt><trkpt lat="46.003003291922944" lon="10.348697647897989"><ele>359.0</ele><time>2026-04-07T08:32:46Z</time></trkpt><trkpt lat="46.003260141038794" lon="10.34865037540598"><ele>359.0</ele><time>2026-04-07T08:32:47Z</time></trkpt><trkpt lat="46.003511660295764" lon="10.34859806987159"><ele>360.0</ele><time>2026-04-07T08:32:48Z</time></trkpt><trkpt lat="46.00376286067713" lon="10.348539689447339"><ele>361.0</ele><time>2026-04-07T08:32:49Z</time></trkpt><trkpt lat="46.00401599025674" lon="10.348484564814498"><ele>363.0</ele><time>2026-04-07T08:32:50Z</time></trkpt><trkpt lat="46.00426996631882" lon="10.348427632216932"><ele>365.0</ele><time>2026-04-07T08:32:51Z</time></trkpt><trkpt lat="46.00452265562577" lon="10.34837252274184"><ele>365.0</ele><time>2026-04-07T08:32:52Z</time></trkpt><trkpt lat="46.00477841318225" lon="10.348309283638272"><ele>365.0</ele><time>2026-04-07T08:32:53Z</time></trkpt><trkpt lat="46.00503271250854" lon="10.348248328410206"><ele>365.5</ele><time>2026-04-07T08:32:54Z</time></trkpt><trkpt lat="46.00528460881655" lon="10.34819034347279"><ele>366.0</ele><time>2026-04-07T08:32:55Z</time></trkpt><trkpt lat="46.00553598502482" lon="10.348133753738528"><ele>366.0</ele><time>2026-04-07T08:32:56Z</time></trkpt><trkpt lat="46.00578734586557" lon="10.348076402987902"><ele>366.0</ele><time>2026-04-07T08:32:57Z</time></trkpt><trkpt lat="46.006043556913" lon="10.348013277801098"><ele>366.0</ele><time>2026-04-07T08:32:58Z</time></trkpt><trkpt lat="46.006294964287534" lon="10.347956983167851"><ele>366.0</ele><time>2026-04-07T08:32:59Z</time></trkpt><trkpt lat="46.006548556842496" lon="10.347897430140065"><ele>368.5</ele><time>2026-04-07T08:33:00Z</time></trkpt><trkpt lat="46.00680074217816" lon="10.347840613346243"><ele>371.0</ele><time>2026-04-07T08:33:01Z</time></trkpt><trkpt lat="46.007056528883666" lon="10.347782766681505"><ele>371.0</ele><time>2026-04-07T08:33:02Z</time></trkpt><trkpt lat="46.007310835597366" lon="10.347726612324205"><ele>371.0</ele><time>2026-04-07T08:33:03Z</time></trkpt><trkpt lat="46.00756422006371" lon="10.347671242826628"><ele>373.5</ele><time>2026-04-07T08:33:04Z</time></trkpt><trkpt lat="46.00781903552758" lon="10.347617009835073"><ele>376.0</ele><time>2026-04-07T08:33:05Z</time></trkpt><trkpt lat="46.008074202754436" lon="10.347561091826183"><ele>378.5</ele><time>2026-04-07T08:33:06Z</time></trkpt><trkpt lat="46.00832765998936" lon="10.347507938558627"><ele>381.0</ele><time>2026-04-07T08:33:07Z</time></trkpt><trkpt lat="46.00858139459444" lon="10.347451318275786"><ele>381.0</ele><time>2026-04-07T08:33:08Z</time></trkpt><trkpt lat="46.008839303607004" lon="10.347401829160646"><ele>381.0</ele><time>2026-04-07T08:33:09Z</time></trkpt><trkpt lat="46.00909310827292" lon="10.347364916343363"><ele>383.0</ele><time>2026-04-07T08:33:10Z</time></trkpt><trkpt lat="46.00934919552633" lon="10.347342173822351"><ele>385.0</ele><time>2026-04-07T08:33:11Z</time></trkpt><trkpt lat="46.00960651908744" lon="10.34733936071303"><ele>385.0</ele><time>2026-04-07T08:33:12Z</time></trkpt><trkpt lat="46.009865150003606" lon="10.347358251885995"><ele>385.0</ele><time>2026-04-07T08:33:13Z</time></trkpt><trkpt lat="46.010126069400684" lon="10.347396116453455"><ele>385.5</ele><time>2026-04-07T08:33:14Z</time></trkpt><trkpt lat="46.01039302675165" lon="10.347447775900802"><ele>386.0</ele><time>2026-04-07T08:33:15Z</time></trkpt><trkpt lat="46.010656545628876" lon="10.3475165391774"><ele>385.0</ele><time>2026-04-07T08:33:16Z</time></trkpt><trkpt lat="46.01090807865082" lon="10.347608112448315"><ele>384.0</ele><time>2026-04-07T08:33:17Z</time></trkpt><trkpt lat="46.0111750275248" lon="10.34770993891122"><ele>384.0</ele><time>2026-04-07T08:33:18Z</time></trkpt><trkpt lat="46.01143474861718" lon="10.347839474304042"><ele>384.0</ele><time>2026-04-07T08:33:19Z</time></trkpt><trkpt lat="46.011692092831176" lon="10.347977608573064"><ele>385.0</ele><time>2026-04-07T08:33:20Z</time></trkpt><trkpt lat="46.011954524123674" lon="10.348127618438284"><ele>386.0</ele><time>2026-04-07T08:33:21Z</time></trkpt><trkpt lat="46.012214997067986" lon="10.348281000108079"><ele>386.0</ele><time>2026-04-07T08:33:21.999Z</time></trkpt><trkpt lat="46.01247944017593" lon="10.348439037257075"><ele>386.0</ele><time>2026-04-07T08:33:22.999Z</time></trkpt><trkpt lat="46.012736080326626" lon="10.348590268284132"><ele>385.0</ele><time>2026-04-07T08:33:23.999Z</time></trkpt><trkpt lat="46.01300889212851" lon="10.348743315872024"><ele>384.0</ele><time>2026-04-07T08:33:24.999Z</time></trkpt><trkpt lat="46.013273255982384" lon="10.348896997631327"><ele>379.0</ele><time>2026-04-07T08:33:25.999Z</time></trkpt><trkpt lat="46.01353864456712" lon="10.349058977734652"><ele>374.0</ele><time>2026-04-07T08:33:26.999Z</time></trkpt><trkpt lat="46.01380262871155" lon="10.349219495451146"><ele>374.0</ele><time>2026-04-07T08:33:27.999Z</time></trkpt><trkpt lat="46.01406535948868" lon="10.349376112764144"><ele>374.0</ele><time>2026-04-07T08:33:28.999Z</time></trkpt><trkpt lat="46.01433063240232" lon="10.349530892439372"><ele>373.0</ele><time>2026-04-07T08:33:29.999Z</time></trkpt><trkpt lat="46.014587301375215" lon="10.349672770084636"><ele>372.0</ele><time>2026-04-07T08:33:30.999Z</time></trkpt><trkpt lat="46.01483104649786" lon="10.349796223208426"><ele>369.0</ele><time>2026-04-07T08:33:31.999Z</time></trkpt><trkpt lat="46.01508378252626" lon="10.349898821955675"><ele>366.0</ele><time>2026-04-07T08:33:32.999Z</time></trkpt><trkpt lat="46.01534550215906" lon="10.349977357025322"><ele>366.0</ele><time>2026-04-07T08:33:33.999Z</time></trkpt><trkpt lat="46.0156188261289" lon="10.35003087655635"><ele>366.0</ele><time>2026-04-07T08:33:34.999Z</time></trkpt><trkpt lat="46.01588544860129" lon="10.350057682468673"><ele>366.0</ele><time>2026-04-07T08:33:35.999Z</time></trkpt><trkpt lat="46.01616100042618" lon="10.350063764186958"><ele>366.0</ele><time>2026-04-07T08:33:36.999Z</time></trkpt><trkpt lat="46.01643828895882" lon="10.35004309118022"><ele>370.0</ele><time>2026-04-07T08:33:37.999Z</time></trkpt><trkpt lat="46.01670885181417" lon="10.349997251908608"><ele>374.0</ele><time>2026-04-07T08:33:38.999Z</time></trkpt><trkpt lat="46.01698631304041" lon="10.349932925001887"><ele>374.0</ele><time>2026-04-07T08:33:39.999Z</time></trkpt><trkpt lat="46.01726443255184" lon="10.349855486640342"><ele>374.0</ele><time>2026-04-07T08:33:40.999Z</time></trkpt><trkpt lat="46.01753879423296" lon="10.349786203412714"><ele>368.5</ele><time>2026-04-07T08:33:41.999Z</time></trkpt><trkpt lat="46.01781781746815" lon="10.34972071858553"><ele>363.0</ele><time>2026-04-07T08:33:42.999Z</time></trkpt><trkpt lat="46.01808986672949" lon="10.349663925413353"><ele>368.5</ele><time>2026-04-07T08:33:43.999Z</time></trkpt><trkpt lat="46.01836109118719" lon="10.349613814719744"><ele>374.0</ele><time>2026-04-07T08:33:44.999Z</time></trkpt><trkpt lat="46.01863099742048" lon="10.349573325554472"><ele>374.0</ele><time>2026-04-07T08:33:45.999Z</time></trkpt><trkpt lat="46.01890218213893" lon="10.349540870581437"><ele>374.0</ele><time>2026-04-07T08:33:46.999Z</time></trkpt><trkpt lat="46.019175410883804" lon="10.34951036192541"><ele>381.5</ele><time>2026-04-07T08:33:47.999Z</time></trkpt><trkpt lat="46.019447659750504" lon="10.349477280322944"><ele>389.0</ele><time>2026-04-07T08:33:48.999Z</time></trkpt><trkpt lat="46.0197208189077" lon="10.349445870942716"><ele>398.0</ele><time>2026-04-07T08:33:49.999Z</time></trkpt><trkpt lat="46.02001077273785" lon="10.349413980865782"><ele>407.0</ele><time>2026-04-07T08:33:51.058Z</time></trkpt><trkpt lat="46.020280741112266" lon="10.349386304210425"><ele>407.0</ele><time>2026-04-07T08:33:52.055Z</time></trkpt><trkpt lat="46.02055141399874" lon="10.349360916011998"><ele>407.0</ele><time>2026-04-07T08:33:53.057Z</time></trkpt><trkpt lat="46.03489209996406" lon="10.349525495622697"><ele>397.5</ele><time>2026-04-07T08:34:45.999Z</time></trkpt><trkpt lat="46.035068749232565" lon="10.349336175138008"><ele>388.0</ele><time>2026-04-07T08:34:46.999Z</time></trkpt><trkpt lat="46.035297039724064" lon="10.349163644278153"><ele>388.0</ele><time>2026-04-07T08:34:47.999Z</time></trkpt><trkpt lat="46.0355067396537" lon="10.34896826793551"><ele>388.0</ele><time>2026-04-07T08:34:48.999Z</time></trkpt><trkpt lat="46.035720662083946" lon="10.34876877324929"><ele>384.5</ele><time>2026-04-07T08:34:49.999Z</time></trkpt><trkpt lat="46.035932925355226" lon="10.348569197305839"><ele>381.0</ele><time>2026-04-07T08:34:51Z</time></trkpt><trkpt lat="46.03614366061545" lon="10.348353750810885"><ele>381.0</ele><time>2026-04-07T08:34:52Z</time></trkpt><trkpt lat="46.03635706883918" lon="10.348155329992805"><ele>381.0</ele><time>2026-04-07T08:34:53Z</time></trkpt><trkpt lat="46.036575680227436" lon="10.347957208388689"><ele>379.0</ele><time>2026-04-07T08:34:54Z</time></trkpt><trkpt lat="46.036795998398134" lon="10.34775503515907"><ele>377.0</ele><time>2026-04-07T08:34:55Z</time></trkpt><trkpt lat="46.03701222015394" lon="10.347554233895076"><ele>377.0</ele><time>2026-04-07T08:34:56Z</time></trkpt><trkpt lat="46.03723164419794" lon="10.347353536168983"><ele>377.0</ele><time>2026-04-07T08:34:57Z</time></trkpt><trkpt lat="46.03744910468318" lon="10.347156687088162"><ele>376.0</ele><time>2026-04-07T08:34:58Z</time></trkpt><trkpt lat="46.03766062910902" lon="10.346962500479766"><ele>375.0</ele><time>2026-04-07T08:34:59Z</time></trkpt><trkpt lat="46.03786776503379" lon="10.34678095605099"><ele>375.0</ele><time>2026-04-07T08:35:00Z</time></trkpt><trkpt lat="46.038088756037034" lon="10.34657144942669"><ele>375.0</ele><time>2026-04-07T08:35:01Z</time></trkpt><trkpt lat="46.03830400807349" lon="10.346371651749982"><ele>372.5</ele><time>2026-04-07T08:35:02Z</time></trkpt><trkpt lat="46.038503466260586" lon="10.346189111635857"><ele>370.0</ele><time>2026-04-07T08:35:03Z</time></trkpt><trkpt lat="46.0386884617606" lon="10.346021152877523"><ele>370.0</ele><time>2026-04-07T08:35:04Z</time></trkpt><trkpt lat="46.03886298458161" lon="10.345869175491977"><ele>370.0</ele><time>2026-04-07T08:35:05Z</time></trkpt><trkpt lat="46.03903009719895" lon="10.345727010321179"><ele>370.0</ele><time>2026-04-07T08:35:06Z</time></trkpt><trkpt lat="46.03918806335494" lon="10.34559680327236"><ele>371.0</ele><time>2026-04-07T08:35:07Z</time></trkpt><trkpt lat="46.03935588043648" lon="10.34546768698146"><ele>372.0</ele><time>2026-04-07T08:35:08Z</time></trkpt><trkpt lat="46.03952187714727" lon="10.345359372726588"><ele>373.0</ele><time>2026-04-07T08:35:09Z</time></trkpt><trkpt lat="46.03967870791221" lon="10.345277552985165"><ele>373.0</ele><time>2026-04-07T08:35:10Z</time></trkpt><trkpt lat="46.03983912677662" lon="10.345199658114536"><ele>373.0</ele><time>2026-04-07T08:35:11Z</time></trkpt><trkpt lat="46.03998597267156" lon="10.345138973128442"><ele>373.0</ele><time>2026-04-07T08:35:12Z</time></trkpt><trkpt lat="46.040130010832215" lon="10.345081854416241"><ele>372.75</ele><time>2026-04-07T08:35:13Z</time></trkpt><trkpt lat="46.04026688680655" lon="10.345028683472057"><ele>372.5</ele><time>2026-04-07T08:35:14Z</time></trkpt><trkpt lat="46.04039266266512" lon="10.344968972677622"><ele>372.25</ele><time>2026-04-07T08:35:15Z</time></trkpt><trkpt lat="46.040522104692776" lon="10.344887910662976"><ele>372.0</ele><time>2026-04-07T08:35:16Z</time></trkpt><trkpt lat="46.040633220627555" lon="10.344800881121365"><ele>372.0</ele><time>2026-04-07T08:35:17Z</time></trkpt><trkpt lat="46.04073660417525" lon="10.344724016854286"><ele>372.0</ele><time>2026-04-07T08:35:18Z</time></trkpt><trkpt lat="46.0408387981505" lon="10.344675452960306"><ele>372.0</ele><time>2026-04-07T08:35:19Z</time></trkpt><trkpt lat="46.04095160253249" lon="10.344675131500239"><ele>372.0</ele><time>2026-04-07T08:35:20Z</time></trkpt><trkpt lat="46.04107686086332" lon="10.344767018172872"><ele>372.6666666666667</ele><time>2026-04-07T08:35:21Z</time></trkpt><trkpt lat="46.04122289206802" lon="10.34482637329651"><ele>373.33333333333337</ele><time>2026-04-07T08:35:22Z</time></trkpt><trkpt lat="46.041376905462926" lon="10.344886830097568"><ele>374.0</ele><time>2026-04-07T08:35:23Z</time></trkpt><trkpt lat="46.04154287525105" lon="10.344951318713694"><ele>375.0</ele><time>2026-04-07T08:35:24Z</time></trkpt><trkpt lat="46.041714404605315" lon="10.345017967530957"><ele>376.0</ele><time>2026-04-07T08:35:25Z</time></trkpt><trkpt lat="46.04188254359437" lon="10.345083299011977"><ele>377.0</ele><time>2026-04-07T08:35:26Z</time></trkpt><trkpt lat="46.04206463005793" lon="10.345154049865108"><ele>377.0</ele><time>2026-04-07T08:35:27Z</time></trkpt><trkpt lat="46.042244977894114" lon="10.34522412517235"><ele>377.0</ele><time>2026-04-07T08:35:28Z</time></trkpt><trkpt lat="46.04243607508262" lon="10.345298377194194"><ele>377.0</ele><time>2026-04-07T08:35:29Z</time></trkpt><trkpt lat="46.04262202646632" lon="10.345370465252087"><ele>376.6666666666667</ele><time>2026-04-07T08:35:30Z</time></trkpt><trkpt lat="46.04280382323036" lon="10.345441042991897"><ele>376.3333333333333</ele><time>2026-04-07T08:35:31Z</time></trkpt><trkpt lat="46.04298773754219" lon="10.345512797693978"><ele>376.0</ele><time>2026-04-07T08:35:32Z</time></trkpt><trkpt lat="46.043174494923946" lon="10.345585124992958"><ele>376.3333333333333</ele><time>2026-04-07T08:35:33Z</time></trkpt><trkpt lat="46.04336735589662" lon="10.345659767261107"><ele>376.6666666666667</ele><time>2026-04-07T08:35:34Z</time></trkpt><trkpt lat="46.04356791439561" lon="10.345737326822254"><ele>377.0</ele><time>2026-04-07T08:35:34.999Z</time></trkpt><trkpt lat="46.043762878980395" lon="10.345812723126102"><ele>377.0</ele><time>2026-04-07T08:35:35.999Z</time></trkpt><trkpt lat="46.04396254939818" lon="10.34587764993912"><ele>377.0</ele><time>2026-04-07T08:35:36.999Z</time></trkpt><trkpt lat="46.04415454072427" lon="10.345950054333045"><ele>377.0</ele><time>2026-04-07T08:35:37.999Z</time></trkpt><trkpt lat="46.04434311643253" lon="10.346024916663248"><ele>377.33333333333337</ele><time>2026-04-07T08:35:38.999Z</time></trkpt><trkpt lat="46.04451332388435" lon="10.346088082560014"><ele>377.6666666666667</ele><time>2026-04-07T08:35:39.999Z</time></trkpt><trkpt lat="46.044676846170645" lon="10.346151085176723"><ele>378.0</ele><time>2026-04-07T08:35:40.999Z</time></trkpt><trkpt lat="46.0448426963581" lon="10.346213686476627"><ele>378.0</ele><time>2026-04-07T08:35:41.999Z</time></trkpt><trkpt lat="46.044999775871716" lon="10.346284040474778"><ele>378.0</ele><time>2026-04-07T08:35:42.999Z</time></trkpt><trkpt lat="46.045155630307875" lon="10.346369031771841"><ele>378.0</ele><time>2026-04-07T08:35:43.999Z</time></trkpt><trkpt lat="46.04532970354335" lon="10.346443006295061"><ele>377.6666666666667</ele><time>2026-04-07T08:35:44.999Z</time></trkpt><trkpt lat="46.04549365777307" lon="10.346489457181365"><ele>377.33333333333337</ele><time>2026-04-07T08:35:45.999Z</time></trkpt><trkpt lat="46.04564509539842" lon="10.346529096987503"><ele>377.0</ele><time>2026-04-07T08:35:46.999Z</time></trkpt><trkpt lat="46.04580638669798" lon="10.34658780041747"><ele>377.0</ele><time>2026-04-07T08:35:47.999Z</time></trkpt><trkpt lat="46.04596650317037" lon="10.346653015875154"><ele>377.0</ele><time>2026-04-07T08:35:48.999Z</time></trkpt><trkpt lat="46.04613959820975" lon="10.346717147490871"><ele>377.0</ele><time>2026-04-07T08:35:49.999Z</time></trkpt><trkpt lat="46.0463123841479" lon="10.346781881241961"><ele>377.0</ele><time>2026-04-07T08:35:50.999Z</time></trkpt><trkpt lat="46.04649736571894" lon="10.3468814377958"><ele>377.0</ele><time>2026-04-07T08:35:51.999Z</time></trkpt><trkpt lat="46.04670399604218" lon="10.346940753905503"><ele>377.0</ele><time>2026-04-07T08:35:52.999Z</time></trkpt><trkpt lat="46.04691386222957" lon="10.347024700530225"><ele>377.0</ele><time>2026-04-07T08:35:53.999Z</time></trkpt><trkpt lat="46.047129114350454" lon="10.347106978625842"><ele>377.0</ele><time>2026-04-07T08:35:54.999Z</time></trkpt><trkpt lat="46.047343032905296" lon="10.347214505235911"><ele>377.0</ele><time>2026-04-07T08:35:55.999Z</time></trkpt><trkpt lat="46.04756143688906" lon="10.347300375382455"><ele>377.0</ele><time>2026-04-07T08:35:56.999Z</time></trkpt><trkpt lat="46.047781137972194" lon="10.34736421561743"><ele>377.0</ele><time>2026-04-07T08:35:57.999Z</time></trkpt><trkpt lat="46.047978299329394" lon="10.34744402933916"><ele>377.0</ele><time>2026-04-07T08:35:58.999Z</time></trkpt><trkpt lat="46.04818120036784" lon="10.347524507349698"><ele>377.6666666666667</ele><time>2026-04-07T08:35:59.999Z</time></trkpt><trkpt lat="46.04839143244391" lon="10.347609764648988"><ele>378.3333333333333</ele><time>2026-04-07T08:36:00.999Z</time></trkpt><trkpt lat="46.04860212756371" lon="10.347689595311014"><ele>379.0</ele><time>2026-04-07T08:36:01.999Z</time></trkpt><trkpt lat="46.04881149333394" lon="10.347766110607663"><ele>379.0</ele><time>2026-04-07T08:36:02.999Z</time></trkpt><trkpt lat="46.04902492781208" lon="10.347847164390668"><ele>379.0</ele><time>2026-04-07T08:36:03.999Z</time></trkpt><trkpt lat="46.049239265478434" lon="10.34795373317324"><ele>379.0</ele><time>2026-04-07T08:36:04.999Z</time></trkpt><trkpt lat="46.04944301883189" lon="10.348032960845813"><ele>379.66666666666663</ele><time>2026-04-07T08:36:05.999Z</time></trkpt><trkpt lat="46.04963756271212" lon="10.348108605848502"><ele>380.3333333333333</ele><time>2026-04-07T08:36:06.999Z</time></trkpt><trkpt lat="46.049824061945856" lon="10.348171439072217"><ele>381.0</ele><time>2026-04-07T08:36:07.999Z</time></trkpt><trkpt lat="46.050018698382644" lon="10.348214404545052"><ele>381.0</ele><time>2026-04-07T08:36:08.999Z</time></trkpt><trkpt lat="46.050215296415885" lon="10.348257802942198"><ele>381.0</ele><time>2026-04-07T08:36:09.999Z</time></trkpt><trkpt lat="46.050407728521726" lon="10.348299033129754"><ele>381.0</ele><time>2026-04-07T08:36:10.999Z</time></trkpt><trkpt lat="46.050579889125196" lon="10.3483340075853"><ele>381.0</ele><time>2026-04-07T08:36:11.999Z</time></trkpt><trkpt lat="46.050739450674435" lon="10.348344355454657"><ele>381.0</ele><time>2026-04-07T08:36:12.999Z</time></trkpt><trkpt lat="46.05087556535439" lon="10.348376010224408"><ele>381.0</ele><time>2026-04-07T08:36:13.999Z</time></trkpt><trkpt lat="46.05099831176016" lon="10.348417862291313"><ele>381.0</ele><time>2026-04-07T08:36:14.999Z</time></trkpt><trkpt lat="46.05111522519428" lon="10.348485343060725"><ele>381.5</ele><time>2026-04-07T08:36:15.999Z</time></trkpt><trkpt lat="46.05122682514606" lon="10.348596627361013"><ele>382.0</ele><time>2026-04-07T08:36:16.999Z</time></trkpt><trkpt lat="46.05134233271477" lon="10.34872132376255"><ele>382.5</ele><time>2026-04-07T08:36:17.999Z</time></trkpt><trkpt lat="46.051474465661165" lon="10.348828633355778"><ele>383.0</ele><time>2026-04-07T08:36:18.999Z</time></trkpt><trkpt lat="46.051630211477125" lon="10.348900651581062"><ele>383.33333333333337</ele><time>2026-04-07T08:36:19.999Z</time></trkpt><trkpt lat="46.05180234455924" lon="10.34895583287841"><ele>383.6666666666667</ele><time>2026-04-07T08:36:20.999Z</time></trkpt><trkpt lat="46.05197947585582" lon="10.349016939318185"><ele>384.0</ele><time>2026-04-07T08:36:21.999Z</time></trkpt><trkpt lat="46.05214650488437" lon="10.349081319470805"><ele>384.0</ele><time>2026-04-07T08:36:22.999Z</time></trkpt><trkpt lat="46.05228820311789" lon="10.349138262629458"><ele>384.0</ele><time>2026-04-07T08:36:23.999Z</time></trkpt><trkpt lat="46.05241276619362" lon="10.349185900080608"><ele>384.0</ele><time>2026-04-07T08:36:24.999Z</time></trkpt><trkpt lat="46.052527852218056" lon="10.349225077961506"><ele>384.0</ele><time>2026-04-07T08:36:25.999Z</time></trkpt><trkpt lat="46.05263487942714" lon="10.349254305011927"><ele>384.0</ele><time>2026-04-07T08:36:26.999Z</time></trkpt><trkpt lat="46.0527242804536" lon="10.349312310431245"><ele>384.0</ele><time>2026-04-07T08:36:27.999Z</time></trkpt><trkpt lat="46.05282129179676" lon="10.349349005865157"><ele>384.0</ele><time>2026-04-07T08:36:28.999Z</time></trkpt><trkpt lat="46.05293419788868" lon="10.349391512224045"><ele>384.0</ele><time>2026-04-07T08:36:29.999Z</time></trkpt><trkpt lat="46.05303004637653" lon="10.349427764935712"><ele>384.0</ele><time>2026-04-07T08:36:30.999Z</time></trkpt><trkpt lat="46.05311767228069" lon="10.349461320443064"><ele>384.0</ele><time>2026-04-07T08:36:31.999Z</time></trkpt><trkpt lat="46.05319971305175" lon="10.349492737199363"><ele>384.0</ele><time>2026-04-07T08:36:32.999Z</time></trkpt><trkpt lat="46.053278839036544" lon="10.349522959801336"><ele>384.0</ele><time>2026-04-07T08:36:33.999Z</time></trkpt><trkpt lat="46.05334874841053" lon="10.34955076039189"><ele>384.0</ele><time>2026-04-07T08:36:34.999Z</time></trkpt><trkpt lat="46.05341296122174" lon="10.349576295678666"><ele>384.0</ele><time>2026-04-07T08:36:35.999Z</time></trkpt><trkpt lat="46.05351900910524" lon="10.349618467370139"><ele>384.0</ele><time>2026-04-07T08:36:37.999Z</time></trkpt><trkpt lat="46.05361090654191" lon="10.3496556930224"><ele>384.3333333333333</ele><time>2026-04-07T08:36:39.999Z</time></trkpt><trkpt lat="46.05368896126961" lon="10.34969408144307"><ele>384.66666666666663</ele><time>2026-04-07T08:36:41.999Z</time></trkpt><trkpt lat="46.05376977529164" lon="10.349711373452575"><ele>385.0</ele><time>2026-04-07T08:37:02Z</time></trkpt><trkpt lat="46.053839849858065" lon="10.349731452533668"><ele>385.3333333333333</ele><time>2026-04-07T08:37:03Z</time></trkpt><trkpt lat="46.05391798596952" lon="10.349761206253497"><ele>385.66666666666663</ele><time>2026-04-07T08:37:04Z</time></trkpt><trkpt lat="46.05400450725626" lon="10.34980144234771"><ele>386.0</ele><time>2026-04-07T08:37:05Z</time></trkpt><trkpt lat="46.05410742885595" lon="10.349854550451708"><ele>386.25</ele><time>2026-04-07T08:37:06Z</time></trkpt><trkpt lat="46.05421740649213" lon="10.349914561986859"><ele>386.5</ele><time>2026-04-07T08:37:07Z</time></trkpt><trkpt lat="46.054318864896786" lon="10.349971441485282"><ele>386.75</ele><time>2026-04-07T08:37:08Z</time></trkpt><trkpt lat="46.05443119910354" lon="10.35003584832803"><ele>387.0</ele><time>2026-04-07T08:37:09Z</time></trkpt><trkpt lat="46.05455688695074" lon="10.350107951676042"><ele>387.0</ele><time>2026-04-07T08:37:10Z</time></trkpt><trkpt lat="46.05468672640284" lon="10.350183616446635"><ele>387.0</ele><time>2026-04-07T08:37:11Z</time></trkpt><trkpt lat="46.05481520832368" lon="10.350256451266723"><ele>387.0</ele><time>2026-04-07T08:37:12Z</time></trkpt><trkpt lat="46.054960096364155" lon="10.350341583988618"><ele>387.0</ele><time>2026-04-07T08:37:13Z</time></trkpt><trkpt lat="46.055108602994714" lon="10.350424515900635"><ele>387.66666666666663</ele><time>2026-04-07T08:37:14Z</time></trkpt><trkpt lat="46.05525513685617" lon="10.350503557372214"><ele>388.3333333333333</ele><time>2026-04-07T08:37:15Z</time></trkpt><trkpt lat="46.05541059615156" lon="10.350589738533088"><ele>389.0</ele><time>2026-04-07T08:37:16Z</time></trkpt><trkpt lat="46.05556246225514" lon="10.35067709076088"><ele>389.3333333333333</ele><time>2026-04-07T08:37:17Z</time></trkpt><trkpt lat="46.05571509517407" lon="10.350766143814196"><ele>389.66666666666663</ele><time>2026-04-07T08:37:18Z</time></trkpt><trkpt lat="46.055884641998084" lon="10.350860360797725"><ele>390.0</ele><time>2026-04-07T08:37:19Z</time></trkpt><trkpt lat="46.05605120954323" lon="10.350956423313997"><ele>390.33333333333337</ele><time>2026-04-07T08:37:20Z</time></trkpt><trkpt lat="46.05621723295151" lon="10.35104917613939"><ele>390.6666666666667</ele><time>2026-04-07T08:37:21Z</time></trkpt><trkpt lat="46.05638290003599" lon="10.351141543763491"><ele>391.0</ele><time>2026-04-07T08:37:22Z</time></trkpt><trkpt lat="46.05656259443455" lon="10.351237714241433"><ele>391.33333333333337</ele><time>2026-04-07T08:37:23Z</time></trkpt><trkpt lat="46.05673234280751" lon="10.35130312617654"><ele>391.66666666666663</ele><time>2026-04-07T08:37:24Z</time></trkpt><trkpt lat="46.0569113264165" lon="10.35133581681766"><ele>392.0</ele><time>2026-04-07T08:37:25Z</time></trkpt><trkpt lat="46.05709936375001" lon="10.351336606939196"><ele>392.0</ele><time>2026-04-07T08:37:26Z</time></trkpt><trkpt lat="46.05727780694831" lon="10.351305213718364"><ele>392.0</ele><time>2026-04-07T08:37:27Z</time></trkpt><trkpt lat="46.05747096307295" lon="10.351245842252744"><ele>392.0</ele><time>2026-04-07T08:37:28Z</time></trkpt><trkpt lat="46.05766063084412" lon="10.351157732012155"><ele>392.66666666666663</ele><time>2026-04-07T08:37:29Z</time></trkpt><trkpt lat="46.05785213671505" lon="10.351078643347565"><ele>393.33333333333337</ele><time>2026-04-07T08:37:30Z</time></trkpt><trkpt lat="46.058051514929886" lon="10.351003759861449"><ele>394.0</ele><time>2026-04-07T08:37:31Z</time></trkpt><trkpt lat="46.058256301740656" lon="10.350920235085827"><ele>394.33333333333337</ele><time>2026-04-07T08:37:31.999Z</time></trkpt><trkpt lat="46.05846357667525" lon="10.350835287069652"><ele>394.66666666666663</ele><time>2026-04-07T08:37:32.999Z</time></trkpt><trkpt lat="46.058671992659335" lon="10.35075356549428"><ele>395.0</ele><time>2026-04-07T08:37:33.999Z</time></trkpt><trkpt lat="46.05888022934984" lon="10.350674012767914"><ele>395.0</ele><time>2026-04-07T08:37:34.999Z</time></trkpt><trkpt lat="46.05908736912109" lon="10.35059455965776"><ele>395.0</ele><time>2026-04-07T08:37:35.999Z</time></trkpt><trkpt lat="46.059302516258754" lon="10.35051361216985"><ele>395.0</ele><time>2026-04-07T08:37:36.999Z</time></trkpt><trkpt lat="46.05952037423625" lon="10.350433427320068"><ele>395.0</ele><time>2026-04-07T08:37:37.999Z</time></trkpt><trkpt lat="46.059732924541166" lon="10.350353639782826"><ele>395.0</ele><time>2026-04-07T08:37:38.999Z</time></trkpt><trkpt lat="46.05994844480952" lon="10.350275002964773"><ele>395.0</ele><time>2026-04-07T08:37:39.999Z</time></trkpt><trkpt lat="46.060161651366045" lon="10.350210118930285"><ele>395.0</ele><time>2026-04-07T08:37:40.999Z</time></trkpt><trkpt lat="46.060370299639914" lon="10.350184350062218"><ele>395.0</ele><time>2026-04-07T08:37:41.999Z</time></trkpt><trkpt lat="46.060579348637766" lon="10.350119573220715"><ele>395.0</ele><time>2026-04-07T08:37:42.999Z</time></trkpt><trkpt lat="46.060785499992946" lon="10.350079121591547"><ele>394.0</ele><time>2026-04-07T08:37:43.999Z</time></trkpt><trkpt lat="46.06100295217075" lon="10.350034875654767"><ele>393.0</ele><time>2026-04-07T08:37:44.999Z</time></trkpt><trkpt lat="46.06122842147363" lon="10.349989508583402"><ele>392.0</ele><time>2026-04-07T08:37:45.999Z</time></trkpt><trkpt lat="46.061457954659936" lon="10.349939320679809"><ele>393.0</ele><time>2026-04-07T08:37:46.999Z</time></trkpt><trkpt lat="46.06169557821875" lon="10.34992343316875"><ele>394.0</ele><time>2026-04-07T08:37:47.999Z</time></trkpt><trkpt lat="46.06193983028821" lon="10.34989959737742"><ele>394.0</ele><time>2026-04-07T08:37:48.999Z</time></trkpt><trkpt lat="46.06218273053301" lon="10.349884290678403"><ele>394.0</ele><time>2026-04-07T08:37:49.999Z</time></trkpt><trkpt lat="46.06242773420872" lon="10.349885315241568"><ele>394.5</ele><time>2026-04-07T08:37:50.999Z</time></trkpt><trkpt lat="46.06265674058381" lon="10.34988797010174"><ele>395.0</ele><time>2026-04-07T08:37:51.999Z</time></trkpt><trkpt lat="46.062894350314465" lon="10.34986696984931"><ele>395.0</ele><time>2026-04-07T08:37:52.999Z</time></trkpt><trkpt lat="46.06313669353102" lon="10.349869886801374"><ele>395.0</ele><time>2026-04-07T08:37:53.999Z</time></trkpt><trkpt lat="46.06337662388114" lon="10.349873486662801"><ele>395.5</ele><time>2026-04-07T08:37:54.999Z</time></trkpt><trkpt lat="46.06361733687809" lon="10.349885075174804"><ele>396.0</ele><time>2026-04-07T08:37:55.999Z</time></trkpt><trkpt lat="46.06385988397126" lon="10.349883459468526"><ele>396.0</ele><time>2026-04-07T08:37:56.999Z</time></trkpt><trkpt lat="46.064097075494026" lon="10.349885640376366"><ele>396.0</ele><time>2026-04-07T08:37:57.999Z</time></trkpt><trkpt lat="46.064340955455464" lon="10.3498877154264"><ele>397.0</ele><time>2026-04-07T08:37:58.999Z</time></trkpt><trkpt lat="46.06456510534073" lon="10.34991352272527"><ele>398.0</ele><time>2026-04-07T08:37:59.999Z</time></trkpt><trkpt lat="46.064777570389694" lon="10.349893926176962"><ele>399.0</ele><time>2026-04-07T08:38:00.999Z</time></trkpt><trkpt lat="46.06498713798505" lon="10.349897648268717"><ele>400.5</ele><time>2026-04-07T08:38:01.999Z</time></trkpt><trkpt lat="46.06521105867581" lon="10.349904249324956"><ele>402.0</ele><time>2026-04-07T08:38:02.999Z</time></trkpt><trkpt lat="46.06544806495785" lon="10.349911372418184"><ele>402.0</ele><time>2026-04-07T08:38:03.999Z</time></trkpt><trkpt lat="46.06568750029116" lon="10.3499500610406"><ele>402.0</ele><time>2026-04-07T08:38:04.999Z</time></trkpt><trkpt lat="46.065915038519755" lon="10.349995739736505"><ele>403.0</ele><time>2026-04-07T08:38:05.999Z</time></trkpt><trkpt lat="46.066146244095044" lon="10.350077896318462"><ele>404.0</ele><time>2026-04-07T08:38:06.999Z</time></trkpt><trkpt lat="46.06638798103044" lon="10.350175919280897"><ele>404.0</ele><time>2026-04-07T08:38:07.999Z</time></trkpt><trkpt lat="46.066633348639535" lon="10.350254765387286"><ele>404.0</ele><time>2026-04-07T08:38:08.999Z</time></trkpt><trkpt lat="46.06687705259165" lon="10.350357365149172"><ele>404.0</ele><time>2026-04-07T08:38:09.999Z</time></trkpt><trkpt lat="46.06712629862103" lon="10.350456581397593"><ele>404.0</ele><time>2026-04-07T08:38:10.999Z</time></trkpt><trkpt lat="46.06737238954575" lon="10.35057969246018"><ele>401.5</ele><time>2026-04-07T08:38:11.999Z</time></trkpt><trkpt lat="46.06761564534207" lon="10.350674014934773"><ele>399.0</ele><time>2026-04-07T08:38:12.999Z</time></trkpt><trkpt lat="46.067860596235434" lon="10.350738316790318"><ele>399.0</ele><time>2026-04-07T08:38:13.999Z</time></trkpt><trkpt lat="46.06807473883807" lon="10.350807171344494"><ele>399.0</ele><time>2026-04-07T08:38:14.999Z</time></trkpt><trkpt lat="46.06829596491566" lon="10.350878869058752"><ele>399.0</ele><time>2026-04-07T08:38:15.999Z</time></trkpt><trkpt lat="46.068522283528885" lon="10.350940864232326"><ele>400.0</ele><time>2026-04-07T08:38:16.999Z</time></trkpt><trkpt lat="46.068744454943946" lon="10.351005020863205"><ele>401.0</ele><time>2026-04-07T08:38:17.999Z</time></trkpt><trkpt lat="46.068974538522646" lon="10.351052182909967"><ele>407.0</ele><time>2026-04-07T08:38:18.999Z</time></trkpt><trkpt lat="46.06920192469825" lon="10.351075798986619"><ele>413.0</ele><time>2026-04-07T08:38:19.999Z</time></trkpt><trkpt lat="46.06942458503879" lon="10.351091655319147"><ele>413.0</ele><time>2026-04-07T08:38:20.999Z</time></trkpt><trkpt lat="46.06964103791221" lon="10.35110556673404"><ele>413.0</ele><time>2026-04-07T08:38:21.999Z</time></trkpt><trkpt lat="46.06987025721405" lon="10.351096160496107"><ele>413.0</ele><time>2026-04-07T08:38:22.999Z</time></trkpt><trkpt lat="46.070097317317106" lon="10.351053440329606"><ele>414.0</ele><time>2026-04-07T08:38:23.999Z</time></trkpt><trkpt lat="46.07032507607423" lon="10.351001313205465"><ele>415.0</ele><time>2026-04-07T08:38:24.999Z</time></trkpt><trkpt lat="46.07055463266472" lon="10.350969025688782"><ele>414.6666666666667</ele><time>2026-04-07T08:38:25.999Z</time></trkpt><trkpt lat="46.07078703302414" lon="10.350967972684153"><ele>414.33333333333337</ele><time>2026-04-07T08:38:26.999Z</time></trkpt><trkpt lat="46.071002756054135" lon="10.3509753963767"><ele>414.0</ele><time>2026-04-07T08:38:27.999Z</time></trkpt><trkpt lat="46.0712008468973" lon="10.350948986079741"><ele>414.0</ele><time>2026-04-07T08:38:28.999Z</time></trkpt><trkpt lat="46.07140612247257" lon="10.350854130828083"><ele>414.0</ele><time>2026-04-07T08:38:29.999Z</time></trkpt><trkpt lat="46.07161777044713" lon="10.350731182360272"><ele>414.0</ele><time>2026-04-07T08:38:30.999Z</time></trkpt><trkpt lat="46.07182790394543" lon="10.350662936486275"><ele>413.66666666666663</ele><time>2026-04-07T08:38:31.999Z</time></trkpt><trkpt lat="46.072013701114976" lon="10.350562733824512"><ele>413.3333333333333</ele><time>2026-04-07T08:38:32.999Z</time></trkpt><trkpt lat="46.07217549621086" lon="10.350492972374571"><ele>413.0</ele><time>2026-04-07T08:38:33.999Z</time></trkpt><trkpt lat="46.07232405423515" lon="10.350410477231454"><ele>412.66666666666663</ele><time>2026-04-07T08:38:34.999Z</time></trkpt><trkpt lat="46.07245904661371" lon="10.350305247266004"><ele>412.33333333333337</ele><time>2026-04-07T08:38:35.999Z</time></trkpt><trkpt lat="46.072590137848806" lon="10.350165043935915"><ele>412.0</ele><time>2026-04-07T08:38:36.999Z</time></trkpt><trkpt lat="46.072724112251045" lon="10.3500180888057"><ele>412.0</ele><time>2026-04-07T08:38:37.999Z</time></trkpt><trkpt lat="46.0728472737171" lon="10.349899102304228"><ele>412.0</ele><time>2026-04-07T08:38:38.999Z</time></trkpt><trkpt lat="46.07295874120314" lon="10.349780933927972"><ele>412.0</ele><time>2026-04-07T08:38:39.999Z</time></trkpt><trkpt lat="46.07306570564486" lon="10.349680638689085"><ele>412.0</ele><time>2026-04-07T08:38:40.999Z</time></trkpt><trkpt lat="46.073165225384905" lon="10.349600677962863"><ele>412.6</ele><time>2026-04-07T08:38:41.999Z</time></trkpt><trkpt lat="46.0732592317028" lon="10.349552401038007"><ele>413.20000000000005</ele><time>2026-04-07T08:38:42.999Z</time></trkpt><trkpt lat="46.07335008734059" lon="10.349550244796045"><ele>413.8</ele><time>2026-04-07T08:38:43.999Z</time></trkpt><trkpt lat="46.07344891117398" lon="10.349614145305717"><ele>414.4</ele><time>2026-04-07T08:38:44.999Z</time></trkpt><trkpt lat="46.07353857781939" lon="10.349733401415325"><ele>415.0</ele><time>2026-04-07T08:38:45.999Z</time></trkpt><trkpt lat="46.07361825774654" lon="10.349886014761667"><ele>413.2</ele><time>2026-04-07T08:38:46.999Z</time></trkpt><trkpt lat="46.07369487883539" lon="10.350029853146223"><ele>411.4</ele><time>2026-04-07T08:38:47.999Z</time></trkpt><trkpt lat="46.07377396800407" lon="10.350138213011713"><ele>409.6</ele><time>2026-04-07T08:38:48.999Z</time></trkpt><trkpt lat="46.07386101785136" lon="10.350198136866938"><ele>407.8</ele><time>2026-04-07T08:38:49.999Z</time></trkpt><trkpt lat="46.07394808752133" lon="10.350199216438135"><ele>406.0</ele><time>2026-04-07T08:38:50.999Z</time></trkpt><trkpt lat="46.074026190527135" lon="10.350164350063904"><ele>407.0</ele><time>2026-04-07T08:38:51.999Z</time></trkpt><trkpt lat="46.07411469769567" lon="10.35011787104911"><ele>408.0</ele><time>2026-04-07T08:38:52.999Z</time></trkpt><trkpt lat="46.07420695969077" lon="10.350033182184825"><ele>409.0</ele><time>2026-04-07T08:38:53.999Z</time></trkpt><trkpt lat="46.074305777587746" lon="10.34991385272304"><ele>410.0</ele><time>2026-04-07T08:38:54.999Z</time></trkpt><trkpt lat="46.0744203411137" lon="10.349803360761065"><ele>410.0</ele><time>2026-04-07T08:38:55.999Z</time></trkpt><trkpt lat="46.07455528461284" lon="10.34971766657755"><ele>410.0</ele><time>2026-04-07T08:38:56.999Z</time></trkpt><trkpt lat="46.07470251106115" lon="10.349658130550935"><ele>410.0</ele><time>2026-04-07T08:38:57.999Z</time></trkpt><trkpt lat="46.074845367876826" lon="10.349619455757704"><ele>410.0</ele><time>2026-04-07T08:38:58.999Z</time></trkpt><trkpt lat="46.07499594383357" lon="10.349572908847394"><ele>410.25</ele><time>2026-04-07T08:38:59.999Z</time></trkpt><trkpt lat="46.075143788611605" lon="10.349525006472739"><ele>410.5</ele><time>2026-04-07T08:39:00.999Z</time></trkpt><trkpt lat="46.07528350191114" lon="10.349475611351094"><ele>410.75</ele><time>2026-04-07T08:39:02Z</time></trkpt><trkpt lat="46.07542655809988" lon="10.34941876784767"><ele>411.0</ele><time>2026-04-07T08:39:03Z</time></trkpt><trkpt lat="46.07557317647489" lon="10.349362595067172"><ele>411.0</ele><time>2026-04-07T08:39:04Z</time></trkpt><trkpt lat="46.0757119833469" lon="10.34931321286126"><ele>411.0</ele><time>2026-04-07T08:39:05Z</time></trkpt><trkpt lat="46.07585479613747" lon="10.349265026464725"><ele>411.0</ele><time>2026-04-07T08:39:06Z</time></trkpt><trkpt lat="46.07599070526077" lon="10.34921157083364"><ele>411.0</ele><time>2026-04-07T08:39:07Z</time></trkpt><trkpt lat="46.07612884670218" lon="10.349160018719582"><ele>411.75</ele><time>2026-04-07T08:39:08Z</time></trkpt><trkpt lat="46.07626082459086" lon="10.349108370426647"><ele>412.5</ele><time>2026-04-07T08:39:09Z</time></trkpt><trkpt lat="46.07639164896207" lon="10.34906236520259"><ele>413.25</ele><time>2026-04-07T08:39:10Z</time></trkpt><trkpt lat="46.07652280838368" lon="10.349012940561197"><ele>414.0</ele><time>2026-04-07T08:39:11Z</time></trkpt><trkpt lat="46.076651754335956" lon="10.34896895903332"><ele>414.25</ele><time>2026-04-07T08:39:12Z</time></trkpt><trkpt lat="46.07679212139899" lon="10.348920077493018"><ele>414.5</ele><time>2026-04-07T08:39:13Z</time></trkpt><trkpt lat="46.076939884407444" lon="10.348868297843975"><ele>414.75</ele><time>2026-04-07T08:39:14Z</time></trkpt><trkpt lat="46.077077339902495" lon="10.348813297674347"><ele>415.0</ele><time>2026-04-07T08:39:15Z</time></trkpt><trkpt lat="46.07720545802965" lon="10.348771018632954"><ele>416.4</ele><time>2026-04-07T08:39:16Z</time></trkpt><trkpt lat="46.077317785315785" lon="10.348732280018035"><ele>417.8</ele><time>2026-04-07T08:39:17Z</time></trkpt><trkpt lat="46.07740579208631" lon="10.34869963086132"><ele>419.20000000000005</ele><time>2026-04-07T08:39:18Z</time></trkpt><trkpt lat="46.07751102536946" lon="10.348662367940744"><ele>420.6</ele><time>2026-04-07T08:39:20Z</time></trkpt><trkpt lat="46.077635125167596" lon="10.348609941561746"><ele>422.0</ele><time>2026-04-07T08:39:22Z</time></trkpt><trkpt lat="46.077707891052306" lon="10.348580225454615"><ele>422.0</ele><time>2026-04-07T08:39:23Z</time></trkpt><trkpt lat="46.07777793181342" lon="10.348553771106367"><ele>422.0</ele><time>2026-04-07T08:39:24Z</time></trkpt><trkpt lat="46.07786674935078" lon="10.348506075759806"><ele>422.0</ele><time>2026-04-07T08:39:26Z</time></trkpt><trkpt lat="46.07796860755131" lon="10.348466362761826"><ele>422.0</ele><time>2026-04-07T08:39:29.999Z</time></trkpt><trkpt lat="46.078099996500576" lon="10.348407450568757"><ele>422.0</ele><time>2026-04-07T08:39:31.999Z</time></trkpt><trkpt lat="46.078198637345224" lon="10.348366677103499"><ele>421.5</ele><time>2026-04-07T08:39:32.999Z</time></trkpt><trkpt lat="46.078327072304745" lon="10.348316854545962"><ele>421.0</ele><time>2026-04-07T08:39:33.999Z</time></trkpt><trkpt lat="46.07845839304999" lon="10.34827312145945"><ele>420.5</ele><time>2026-04-07T08:39:34.999Z</time></trkpt><trkpt lat="46.078598654230476" lon="10.34821238530582"><ele>420.0</ele><time>2026-04-07T08:39:35.999Z</time></trkpt><trkpt lat="46.07875940358674" lon="10.348111669841902"><ele>420.33333333333337</ele><time>2026-04-07T08:39:36.999Z</time></trkpt><trkpt lat="46.078945734244215" lon="10.348001537038671"><ele>420.6666666666667</ele><time>2026-04-07T08:39:37.999Z</time></trkpt><trkpt lat="46.07912541847159" lon="10.347885622735635"><ele>421.0</ele><time>2026-04-07T08:39:38.999Z</time></trkpt><trkpt lat="46.079311557286594" lon="10.347764099662413"><ele>421.0</ele><time>2026-04-07T08:39:39.999Z</time></trkpt><trkpt lat="46.079484370560614" lon="10.347656927789034"><ele>421.0</ele><time>2026-04-07T08:39:40.999Z</time></trkpt><trkpt lat="46.07963368730631" lon="10.347551681089316"><ele>421.0</ele><time>2026-04-07T08:39:41.999Z</time></trkpt><trkpt lat="46.07976194184646" lon="10.34746215472942"><ele>421.0</ele><time>2026-04-07T08:39:42.999Z</time></trkpt><trkpt lat="46.079880583731395" lon="10.347382160626234"><ele>421.0</ele><time>2026-04-07T08:39:43.999Z</time></trkpt><trkpt lat="46.07999569251649" lon="10.34731195380566"><ele>421.0</ele><time>2026-04-07T08:39:44.999Z</time></trkpt><trkpt lat="46.08011769073259" lon="10.347236385136798"><ele>421.0</ele><time>2026-04-07T08:39:45.999Z</time></trkpt><trkpt lat="46.080240621082694" lon="10.347176526031237"><ele>422.0</ele><time>2026-04-07T08:39:46.999Z</time></trkpt><trkpt lat="46.080338467251934" lon="10.347106921981318"><ele>423.0</ele><time>2026-04-07T08:39:47.999Z</time></trkpt><trkpt lat="46.080438560341605" lon="10.34704382717217"><ele>424.0</ele><time>2026-04-07T08:39:48.999Z</time></trkpt><trkpt lat="46.08055098441644" lon="10.346995956936698"><ele>425.0</ele><time>2026-04-07T08:39:49.999Z</time></trkpt><trkpt lat="46.08067776332863" lon="10.34698765530483"><ele>425.25</ele><time>2026-04-07T08:39:50.999Z</time></trkpt><trkpt lat="46.08080217976243" lon="10.346985187985876"><ele>425.5</ele><time>2026-04-07T08:39:51.999Z</time></trkpt><trkpt lat="46.08093723157131" lon="10.347007012290117"><ele>425.75</ele><time>2026-04-07T08:39:52.999Z</time></trkpt><trkpt lat="46.081089111972965" lon="10.347032872234937"><ele>426.0</ele><time>2026-04-07T08:39:53.999Z</time></trkpt><trkpt lat="46.08125281713376" lon="10.347058000680416"><ele>426.0</ele><time>2026-04-07T08:39:54.999Z</time></trkpt><trkpt lat="46.08141924490226" lon="10.34703963544673"><ele>426.0</ele><time>2026-04-07T08:39:55.999Z</time></trkpt><trkpt lat="46.08159114982122" lon="10.347027409976581"><ele>426.0</ele><time>2026-04-07T08:39:56.999Z</time></trkpt><trkpt lat="46.081760920798146" lon="10.346996590510782"><ele>426.33333333333337</ele><time>2026-04-07T08:39:57.999Z</time></trkpt><trkpt lat="46.08191407994132" lon="10.346955535421888"><ele>426.6666666666667</ele><time>2026-04-07T08:39:58.999Z</time></trkpt><trkpt lat="46.082080231726174" lon="10.346901607415617"><ele>427.0</ele><time>2026-04-07T08:39:59.999Z</time></trkpt><trkpt lat="46.08225539236628" lon="10.346873391663586"><ele>427.0</ele><time>2026-04-07T08:40:00.999Z</time></trkpt><trkpt lat="46.082418862181946" lon="10.346799008737346"><ele>427.0</ele><time>2026-04-07T08:40:01.999Z</time></trkpt><trkpt lat="46.082569561132665" lon="10.346740126964901"><ele>427.0</ele><time>2026-04-07T08:40:02.999Z</time></trkpt><trkpt lat="46.08271859464624" lon="10.346645425946075"><ele>428.0</ele><time>2026-04-07T08:40:03.999Z</time></trkpt><trkpt lat="46.08286371225567" lon="10.34649955153956"><ele>429.0</ele><time>2026-04-07T08:40:04.999Z</time></trkpt><trkpt lat="46.08303096978354" lon="10.3463451050728"><ele>430.0</ele><time>2026-04-07T08:40:05.999Z</time></trkpt><trkpt lat="46.08319380471424" lon="10.346188833535543"><ele>432.33333333333337</ele><time>2026-04-07T08:40:06.999Z</time></trkpt><trkpt lat="46.08333600306389" lon="10.34604892223194"><ele>434.66666666666663</ele><time>2026-04-07T08:40:07.999Z</time></trkpt><trkpt lat="46.0834819918173" lon="10.345884755681347"><ele>437.0</ele><time>2026-04-07T08:40:08.999Z</time></trkpt><trkpt lat="46.08359862679961" lon="10.345689659296843"><ele>439.66666666666663</ele><time>2026-04-07T08:40:09.999Z</time></trkpt><trkpt lat="46.08370681818513" lon="10.345486468346381"><ele>442.33333333333337</ele><time>2026-04-07T08:40:10.999Z</time></trkpt><trkpt lat="46.0838376530118" lon="10.34528246226197"><ele>445.0</ele><time>2026-04-07T08:40:11.999Z</time></trkpt><trkpt lat="46.08395831318388" lon="10.34506124692789"><ele>445.0</ele><time>2026-04-07T08:40:12.999Z</time></trkpt><trkpt lat="46.0840849945501" lon="10.344824570477668"><ele>445.0</ele><time>2026-04-07T08:40:13.999Z</time></trkpt><trkpt lat="46.08422151986615" lon="10.344593247671177"><ele>445.0</ele><time>2026-04-07T08:40:14.999Z</time></trkpt><trkpt lat="46.08436103576957" lon="10.344374837898286"><ele>445.6666666666667</ele><time>2026-04-07T08:40:15.999Z</time></trkpt><trkpt lat="46.08451271520241" lon="10.344174962550683"><ele>446.33333333333337</ele><time>2026-04-07T08:40:16.999Z</time></trkpt><trkpt lat="46.08468631826923" lon="10.343968779033334"><ele>447.0</ele><time>2026-04-07T08:40:17.999Z</time></trkpt><trkpt lat="46.08485398153186" lon="10.343773257448545"><ele>444.66666666666663</ele><time>2026-04-07T08:40:18.999Z</time></trkpt><trkpt lat="46.084992163960834" lon="10.343575909920917"><ele>442.3333333333333</ele><time>2026-04-07T08:40:19.999Z</time></trkpt><trkpt lat="46.085123106172" lon="10.343408181878193"><ele>440.0</ele><time>2026-04-07T08:40:20.999Z</time></trkpt><trkpt lat="46.085230728831334" lon="10.343250968691278"><ele>440.0</ele><time>2026-04-07T08:40:21.999Z</time></trkpt><trkpt lat="46.08532103098952" lon="10.343069736715282"><ele>440.0</ele><time>2026-04-07T08:40:22.999Z</time></trkpt><trkpt lat="46.085386481647184" lon="10.342898354230572"><ele>440.0</ele><time>2026-04-07T08:40:23.999Z</time></trkpt><trkpt lat="46.08544052763116" lon="10.342727575199268"><ele>440.0</ele><time>2026-04-07T08:40:24.999Z</time></trkpt><trkpt lat="46.08549473656129" lon="10.3425494332492"><ele>439.4</ele><time>2026-04-07T08:40:25.999Z</time></trkpt><trkpt lat="46.08553566582782" lon="10.342368840313402"><ele>438.8</ele><time>2026-04-07T08:40:26.999Z</time></trkpt><trkpt lat="46.08556204863446" lon="10.342203925383373"><ele>438.20000000000005</ele><time>2026-04-07T08:40:27.999Z</time></trkpt><trkpt lat="46.08558238890354" lon="10.342053370280873"><ele>437.6</ele><time>2026-04-07T08:40:28.999Z</time></trkpt><trkpt lat="46.085605261804204" lon="10.34193838642585"><ele>437.0</ele><time>2026-04-07T08:40:29.999Z</time></trkpt><trkpt lat="46.08564343622537" lon="10.341851651555372"><ele>438.40000000000003</ele><time>2026-04-07T08:40:30.999Z</time></trkpt><trkpt lat="46.085780352532865" lon="10.341780254461362"><ele>439.80000000000007</ele><time>2026-04-07T08:40:32.999Z</time></trkpt><trkpt lat="46.085858026709545" lon="10.341808223925526"><ele>441.2</ele><time>2026-04-07T08:40:33.999Z</time></trkpt><trkpt lat="46.08594547015718" lon="10.341837759893897"><ele>442.6</ele><time>2026-04-07T08:40:34.999Z</time></trkpt><trkpt lat="46.08605550850318" lon="10.341853406310241"><ele>444.0</ele><time>2026-04-07T08:40:35.999Z</time></trkpt><trkpt lat="46.08617154355228" lon="10.341887453820137"><ele>444.0</ele><time>2026-04-07T08:40:36.999Z</time></trkpt><trkpt lat="46.08629292924572" lon="10.341896125751708"><ele>444.0</ele><time>2026-04-07T08:40:37.999Z</time></trkpt><trkpt lat="46.08641872634661" lon="10.341882192938742"><ele>444.0</ele><time>2026-04-07T08:40:38.999Z</time></trkpt><trkpt lat="46.086550794821896" lon="10.341889859802333"><ele>444.0</ele><time>2026-04-07T08:40:39.999Z</time></trkpt><trkpt lat="46.08670261355849" lon="10.341875850833231"><ele>446.75</ele><time>2026-04-07T08:40:40.999Z</time></trkpt><trkpt lat="46.086859679402124" lon="10.341840307574753"><ele>449.5</ele><time>2026-04-07T08:40:41.999Z</time></trkpt><trkpt lat="46.086991323805215" lon="10.341857570792182"><ele>452.25</ele><time>2026-04-07T08:40:42.999Z</time></trkpt><trkpt lat="46.087099130629" lon="10.341868584159524"><ele>455.0</ele><time>2026-04-07T08:40:43.999Z</time></trkpt><trkpt lat="46.08719958489289" lon="10.341886674939257"><ele>454.99999999999994</ele><time>2026-04-07T08:40:44.999Z</time></trkpt><trkpt lat="46.087304651763674" lon="10.341885977891565"><ele>455.0</ele><time>2026-04-07T08:40:45.999Z</time></trkpt><trkpt lat="46.08739591660847" lon="10.341900079373305"><ele>455.0</ele><time>2026-04-07T08:40:46.999Z</time></trkpt><trkpt lat="46.08746300261319" lon="10.341910217166841"><ele>455.0</ele><time>2026-04-07T08:40:47.999Z</time></trkpt><trkpt lat="46.087528613244494" lon="10.341897452319738"><ele>454.99999999999994</ele><time>2026-04-07T08:40:48.999Z</time></trkpt><trkpt lat="46.08759980970681" lon="10.341858773776691"><ele>455.0</ele><time>2026-04-07T08:40:49.999Z</time></trkpt><trkpt lat="46.08768377815989" lon="10.341804680330071"><ele>457.5</ele><time>2026-04-07T08:40:50.999Z</time></trkpt><trkpt lat="46.087780929428526" lon="10.341752366767617"><ele>460.0</ele><time>2026-04-07T08:40:51.999Z</time></trkpt><trkpt lat="46.087867875876185" lon="10.34165110121177"><ele>462.5</ele><time>2026-04-07T08:40:52.999Z</time></trkpt><trkpt lat="46.08794043840583" lon="10.341477157676932"><ele>465.0</ele><time>2026-04-07T08:40:53.999Z</time></trkpt><trkpt lat="46.08801492611009" lon="10.341268470206177"><ele>465.0</ele><time>2026-04-07T08:40:54.999Z</time></trkpt><trkpt lat="46.0881045151554" lon="10.341043632537595"><ele>465.0</ele><time>2026-04-07T08:40:55.999Z</time></trkpt><trkpt lat="46.088178414340014" lon="10.340853641139272"><ele>465.0</ele><time>2026-04-07T08:40:56.999Z</time></trkpt><trkpt lat="46.088253074606676" lon="10.34070028226416"><ele>468.66666666666663</ele><time>2026-04-07T08:40:57.999Z</time></trkpt><trkpt lat="46.088319857757796" lon="10.340536236468742"><ele>472.3333333333333</ele><time>2026-04-07T08:40:58.999Z</time></trkpt><trkpt lat="46.08840318513623" lon="10.340331427537626"><ele>476.0</ele><time>2026-04-07T08:40:59.999Z</time></trkpt><trkpt lat="46.08848142364353" lon="10.34013939660682"><ele>476.0</ele><time>2026-04-07T08:41:00.999Z</time></trkpt><trkpt lat="46.088545018871294" lon="10.339989543646771"><ele>476.0</ele><time>2026-04-07T08:41:01.999Z</time></trkpt><trkpt lat="46.088596711135075" lon="10.339854823610931"><ele>476.0</ele><time>2026-04-07T08:41:02.999Z</time></trkpt><trkpt lat="46.088639776461186" lon="10.339749550955974"><ele>476.0</ele><time>2026-04-07T08:41:03.999Z</time></trkpt><trkpt lat="46.08869168651444" lon="10.339691222124122"><ele>476.0</ele><time>2026-04-07T08:41:04.999Z</time></trkpt><trkpt lat="46.08876956159773" lon="10.339648008083179"><ele>476.0</ele><time>2026-04-07T08:41:05.999Z</time></trkpt><trkpt lat="46.088865065149676" lon="10.33969533979843"><ele>476.0</ele><time>2026-04-07T08:41:06.999Z</time></trkpt><trkpt lat="46.08892469167445" lon="10.339806125886245"><ele>476.0</ele><time>2026-04-07T08:41:07.999Z</time></trkpt><trkpt lat="46.08894208158482" lon="10.339948783376737"><ele>476.0</ele><time>2026-04-07T08:41:08.999Z</time></trkpt><trkpt lat="46.0888973714651" lon="10.3401049687929"><ele>476.0</ele><time>2026-04-07T08:41:09.999Z</time></trkpt><trkpt lat="46.0888877323824" lon="10.340282962450022"><ele>476.0</ele><time>2026-04-07T08:41:10.999Z</time></trkpt><trkpt lat="46.088853912326535" lon="10.34047451660171"><ele>476.0</ele><time>2026-04-07T08:41:11.999Z</time></trkpt><trkpt lat="46.08882451805401" lon="10.340656765912897"><ele>476.0</ele><time>2026-04-07T08:41:12.999Z</time></trkpt><trkpt lat="46.08880369223878" lon="10.34080741942756"><ele>476.0</ele><time>2026-04-07T08:41:13.999Z</time></trkpt><trkpt lat="46.08878162537459" lon="10.340926439961958"><ele>476.8</ele><time>2026-04-07T08:41:14.999Z</time></trkpt><trkpt lat="46.08877386296209" lon="10.341034703099004"><ele>477.6</ele><time>2026-04-07T08:41:15.999Z</time></trkpt><trkpt lat="46.08885847117486" lon="10.341181424128381"><ele>478.4</ele><time>2026-04-07T08:41:17.999Z</time></trkpt><trkpt lat="46.08894309666578" lon="10.341184712202205"><ele>479.2</ele><time>2026-04-07T08:41:18.999Z</time></trkpt><trkpt lat="46.08901355110479" lon="10.341118403403073"><ele>480.0</ele><time>2026-04-07T08:41:19.999Z</time></trkpt><trkpt lat="46.089074916260664" lon="10.341035451704082"><ele>480.0</ele><time>2026-04-07T08:41:20.999Z</time></trkpt><trkpt lat="46.08908981577311" lon="10.34084873235363"><ele>480.0</ele><time>2026-04-07T08:41:21.999Z</time></trkpt><trkpt lat="46.08912604208171" lon="10.340649613322096"><ele>480.0</ele><time>2026-04-07T08:41:22.999Z</time></trkpt><trkpt lat="46.08918212860205" lon="10.34041996434667"><ele>480.0</ele><time>2026-04-07T08:41:23.999Z</time></trkpt><trkpt lat="46.08924389421448" lon="10.340192815753245"><ele>486.33333333333337</ele><time>2026-04-07T08:41:24.999Z</time></trkpt><trkpt lat="46.0893031769705" lon="10.339948468978285"><ele>492.6666666666667</ele><time>2026-04-07T08:41:25.999Z</time></trkpt><trkpt lat="46.08936097215777" lon="10.339691633634335"><ele>499.0</ele><time>2026-04-07T08:41:26.999Z</time></trkpt><trkpt lat="46.089405822637914" lon="10.339444645653062"><ele>499.0</ele><time>2026-04-07T08:41:27.999Z</time></trkpt><trkpt lat="46.089431217791486" lon="10.339217510396098"><ele>499.0</ele><time>2026-04-07T08:41:28.999Z</time></trkpt><trkpt lat="46.08943608755084" lon="10.338978265723574"><ele>499.0</ele><time>2026-04-07T08:41:29.999Z</time></trkpt><trkpt lat="46.0894248589368" lon="10.3387053827238"><ele>501.0</ele><time>2026-04-07T08:41:30.999Z</time></trkpt><trkpt lat="46.08940459389775" lon="10.338480400098383"><ele>503.0</ele><time>2026-04-07T08:41:31.999Z</time></trkpt><trkpt lat="46.089376474445686" lon="10.33823202787789"><ele>505.0</ele><time>2026-04-07T08:41:32.999Z</time></trkpt><trkpt lat="46.08935089503849" lon="10.33793988749273"><ele>507.6666666666667</ele><time>2026-04-07T08:41:33.999Z</time></trkpt><trkpt lat="46.089327768669484" lon="10.337675949232208"><ele>510.33333333333337</ele><time>2026-04-07T08:41:34.999Z</time></trkpt><trkpt lat="46.08930654327379" lon="10.337421687467293"><ele>513.0</ele><time>2026-04-07T08:41:35.999Z</time></trkpt><trkpt lat="46.08927811664556" lon="10.33716186501876"><ele>517.0</ele><time>2026-04-07T08:41:36.999Z</time></trkpt><trkpt lat="46.089237547588155" lon="10.336931532212638"><ele>521.0</ele><time>2026-04-07T08:41:37.999Z</time></trkpt><trkpt lat="46.089165611048124" lon="10.336686297773715"><ele>525.0</ele><time>2026-04-07T08:41:38.999Z</time></trkpt><trkpt lat="46.08905869387074" lon="10.336431287197842"><ele>519.3333333333334</ele><time>2026-04-07T08:41:39.999Z</time></trkpt><trkpt lat="46.08893712984004" lon="10.336185779999148"><ele>513.6666666666667</ele><time>2026-04-07T08:41:40.999Z</time></trkpt><trkpt lat="46.08881201407951" lon="10.335931816852282"><ele>508.0</ele><time>2026-04-07T08:41:41.999Z</time></trkpt><trkpt lat="46.088705136140454" lon="10.335697131121687"><ele>514.3333333333334</ele><time>2026-04-07T08:41:42.999Z</time></trkpt><trkpt lat="46.088604496075725" lon="10.335461849473536"><ele>520.6666666666666</ele><time>2026-04-07T08:41:43.999Z</time></trkpt><trkpt lat="46.08851900241643" lon="10.335241587878393"><ele>527.0</ele><time>2026-04-07T08:41:44.999Z</time></trkpt><trkpt lat="46.08846603042661" lon="10.335024782946642"><ele>527.0</ele><time>2026-04-07T08:41:45.999Z</time></trkpt><trkpt lat="46.08843318845561" lon="10.334773170650626"><ele>527.0</ele><time>2026-04-07T08:41:46.999Z</time></trkpt><trkpt lat="46.08844074431971" lon="10.334494676202002"><ele>527.0</ele><time>2026-04-07T08:41:47.999Z</time></trkpt><trkpt lat="46.08844660730151" lon="10.334230301083057"><ele>527.6666666666666</ele><time>2026-04-07T08:41:48.999Z</time></trkpt><trkpt lat="46.088491970743036" lon="10.333972469974881"><ele>528.3333333333334</ele><time>2026-04-07T08:41:49.999Z</time></trkpt><trkpt lat="46.08857026985319" lon="10.333728847242746"><ele>529.0</ele><time>2026-04-07T08:41:50.999Z</time></trkpt><trkpt lat="46.08866549927833" lon="10.333498167372952"><ele>529.0</ele><time>2026-04-07T08:41:51.999Z</time></trkpt><trkpt lat="46.08875949733659" lon="10.333242973047021"><ele>529.0</ele><time>2026-04-07T08:41:52.999Z</time></trkpt><trkpt lat="46.08882701375999" lon="10.332983585598688"><ele>529.0</ele><time>2026-04-07T08:41:53.999Z</time></trkpt><trkpt lat="46.08887222939556" lon="10.332700079032813"><ele>528.6666666666667</ele><time>2026-04-07T08:41:54.999Z</time></trkpt><trkpt lat="46.088891634108045" lon="10.332408817336281"><ele>528.3333333333334</ele><time>2026-04-07T08:41:55.999Z</time></trkpt><trkpt lat="46.08887918017808" lon="10.332113059719207"><ele>528.0</ele><time>2026-04-07T08:41:56.999Z</time></trkpt><trkpt lat="46.08885149112998" lon="10.331790367768576"><ele>532.5</ele><time>2026-04-07T08:41:57.999Z</time></trkpt><trkpt lat="46.08881556477959" lon="10.33147329353812"><ele>537.0</ele><time>2026-04-07T08:41:58.999Z</time></trkpt><trkpt lat="46.08879530286367" lon="10.331142915897368"><ele>539.3333333333334</ele><time>2026-04-07T08:41:59.999Z</time></trkpt><trkpt lat="46.08877034153436" lon="10.330815386282643"><ele>541.6666666666667</ele><time>2026-04-07T08:42:00.999Z</time></trkpt><trkpt lat="46.08873247895995" lon="10.330532436870234"><ele>544.0</ele><time>2026-04-07T08:42:01.999Z</time></trkpt><trkpt lat="46.08871311012078" lon="10.330287110254519"><ele>546.0</ele><time>2026-04-07T08:42:02.999Z</time></trkpt><trkpt lat="46.088673670506594" lon="10.330005881252436"><ele>548.0</ele><time>2026-04-07T08:42:03.999Z</time></trkpt><trkpt lat="46.08860537781832" lon="10.329719064111693"><ele>550.0</ele><time>2026-04-07T08:42:04.999Z</time></trkpt><trkpt lat="46.08851552983439" lon="10.329451268742863"><ele>554.3333333333334</ele><time>2026-04-07T08:42:05.999Z</time></trkpt><trkpt lat="46.088428318381204" lon="10.329210273885078"><ele>558.6666666666666</ele><time>2026-04-07T08:42:06.999Z</time></trkpt><trkpt lat="46.088352139373676" lon="10.328961813835477"><ele>563.0</ele><time>2026-04-07T08:42:07.999Z</time></trkpt><trkpt lat="46.08828235291779" lon="10.328700658377599"><ele>558.0</ele><time>2026-04-07T08:42:08.999Z</time></trkpt><trkpt lat="46.08824337940282" lon="10.328433718502422"><ele>553.0</ele><time>2026-04-07T08:42:09.999Z</time></trkpt><trkpt lat="46.088205193346845" lon="10.328205453178182"><ele>548.0</ele><time>2026-04-07T08:42:10.999Z</time></trkpt><trkpt lat="46.088169585897845" lon="10.32805239923573"><ele>548.0</ele><time>2026-04-07T08:42:11.999Z</time></trkpt><trkpt lat="46.08816319757348" lon="10.32791788622523"><ele>548.0</ele><time>2026-04-07T08:42:12.999Z</time></trkpt><trkpt lat="46.08818169230001" lon="10.32778947789915"><ele>548.0</ele><time>2026-04-07T08:42:13.999Z</time></trkpt><trkpt lat="46.08816781556297" lon="10.327616010925379"><ele>548.0</ele><time>2026-04-07T08:42:14.999Z</time></trkpt><trkpt lat="46.08830442280936" lon="10.327466740392207"><ele>557.0</ele><time>2026-04-07T08:42:15.999Z</time></trkpt><trkpt lat="46.08835539231861" lon="10.327275937317431"><ele>566.0</ele><time>2026-04-07T08:42:16.999Z</time></trkpt><trkpt lat="46.088373356630434" lon="10.327090297674294"><ele>575.0</ele><time>2026-04-07T08:42:17.999Z</time></trkpt><trkpt lat="46.08835510949627" lon="10.32693072598245"><ele>584.0</ele><time>2026-04-07T08:42:18.999Z</time></trkpt><trkpt lat="46.08833988020874" lon="10.326799548938396"><ele>585.1666666666666</ele><time>2026-04-07T08:42:19.999Z</time></trkpt><trkpt lat="46.08833177581689" lon="10.326688552611246"><ele>586.3333333333333</ele><time>2026-04-07T08:42:20.999Z</time></trkpt><trkpt lat="46.088319151065875" lon="10.32659926308776"><ele>587.5</ele><time>2026-04-07T08:42:21.999Z</time></trkpt><trkpt lat="46.08843540399728" lon="10.326524017045863"><ele>588.6666666666666</ele><time>2026-04-07T08:42:23.999Z</time></trkpt><trkpt lat="46.088506301275316" lon="10.326570288028435"><ele>589.8333333333334</ele><time>2026-04-07T08:42:24.999Z</time></trkpt><trkpt lat="46.088551660542194" lon="10.32666886999955"><ele>591.0</ele><time>2026-04-07T08:42:25.999Z</time></trkpt><trkpt lat="46.08854466913085" lon="10.326805216200029"><ele>591.0</ele><time>2026-04-07T08:42:26.999Z</time></trkpt><trkpt lat="46.08857070534636" lon="10.326945108031895"><ele>591.0</ele><time>2026-04-07T08:42:27.999Z</time></trkpt><trkpt lat="46.08860243318632" lon="10.32713606693918"><ele>591.0</ele><time>2026-04-07T08:42:28.999Z</time></trkpt><trkpt lat="46.08864042633305" lon="10.327336822286359"><ele>591.0</ele><time>2026-04-07T08:42:29.999Z</time></trkpt><trkpt lat="46.08868147335984" lon="10.327570823209797"><ele>588.6666666666666</ele><time>2026-04-07T08:42:30.999Z</time></trkpt><trkpt lat="46.088723151572594" lon="10.327785236363468"><ele>586.3333333333333</ele><time>2026-04-07T08:42:31.999Z</time></trkpt><trkpt lat="46.088771275842724" lon="10.328016364686224"><ele>584.0</ele><time>2026-04-07T08:42:32.999Z</time></trkpt><trkpt lat="46.08881802821841" lon="10.328262622856565"><ele>581.3333333333333</ele><time>2026-04-07T08:42:33.999Z</time></trkpt><trkpt lat="46.08891940181901" lon="10.32851070188585"><ele>578.6666666666666</ele><time>2026-04-07T08:42:34.999Z</time></trkpt><trkpt lat="46.08899289586663" lon="10.32875626262702"><ele>576.0</ele><time>2026-04-07T08:42:35.999Z</time></trkpt><trkpt lat="46.08909177383224" lon="10.328963286959858"><ele>589.3333333333334</ele><time>2026-04-07T08:42:36.999Z</time></trkpt><trkpt lat="46.08917396421902" lon="10.329183705015064"><ele>602.6666666666667</ele><time>2026-04-07T08:42:37.999Z</time></trkpt><trkpt lat="46.0892421639309" lon="10.329417565478403"><ele>616.0</ele><time>2026-04-07T08:42:38.999Z</time></trkpt><trkpt lat="46.089295373964944" lon="10.329651004203857"><ele>611.3333333333334</ele><time>2026-04-07T08:42:39.999Z</time></trkpt><trkpt lat="46.08933930321197" lon="10.329872304105395"><ele>606.6666666666666</ele><time>2026-04-07T08:42:40.999Z</time></trkpt><trkpt lat="46.0893732564328" lon="10.330099014893198"><ele>602.0</ele><time>2026-04-07T08:42:41.999Z</time></trkpt><trkpt lat="46.08940612071863" lon="10.330315870307336"><ele>602.0</ele><time>2026-04-07T08:42:42.999Z</time></trkpt><trkpt lat="46.08944090452927" lon="10.330519710110291"><ele>602.0</ele><time>2026-04-07T08:42:43.999Z</time></trkpt><trkpt lat="46.08946905678106" lon="10.330693034648833"><ele>602.0</ele><time>2026-04-07T08:42:44.999Z</time></trkpt><trkpt lat="46.08951159618985" lon="10.330856526681345"><ele>602.0</ele><time>2026-04-07T08:42:45.999Z</time></trkpt><trkpt lat="46.089585763447204" lon="10.331013786500334"><ele>598.3333333333333</ele><time>2026-04-07T08:42:46.999Z</time></trkpt><trkpt lat="46.08963034302897" lon="10.331239373984522"><ele>594.6666666666666</ele><time>2026-04-07T08:42:47.999Z</time></trkpt><trkpt lat="46.089823945056054" lon="10.331312958882538"><ele>591.0</ele><time>2026-04-07T08:42:48.999Z</time></trkpt><trkpt lat="46.08996879449514" lon="10.331474806001369"><ele>602.0</ele><time>2026-04-07T08:42:49.999Z</time></trkpt><trkpt lat="46.090108079410086" lon="10.331639442132595"><ele>613.0</ele><time>2026-04-07T08:42:50.999Z</time></trkpt><trkpt lat="46.09023930497296" lon="10.33182013254237"><ele>624.0</ele><time>2026-04-07T08:42:51.999Z</time></trkpt><trkpt lat="46.09032781485964" lon="10.3320393333881"><ele>621.3333333333334</ele><time>2026-04-07T08:42:52.999Z</time></trkpt><trkpt lat="46.09040863374094" lon="10.332264472420787"><ele>618.6666666666667</ele><time>2026-04-07T08:42:53.999Z</time></trkpt><trkpt lat="46.09046171630553" lon="10.332510630869281"><ele>616.0</ele><time>2026-04-07T08:42:54.999Z</time></trkpt><trkpt lat="46.09054351025931" lon="10.33273957659926"><ele>616.0</ele><time>2026-04-07T08:42:55.999Z</time></trkpt><trkpt lat="46.09065664250323" lon="10.332950998212475"><ele>616.0</ele><time>2026-04-07T08:42:56.999Z</time></trkpt><trkpt lat="46.09078686675571" lon="10.333166936374619"><ele>616.0</ele><time>2026-04-07T08:42:57.999Z</time></trkpt><trkpt lat="46.09087902476044" lon="10.333405243481854"><ele>622.6666666666667</ele><time>2026-04-07T08:42:58.999Z</time></trkpt><trkpt lat="46.090943441539764" lon="10.333664083210621"><ele>629.3333333333334</ele><time>2026-04-07T08:42:59.999Z</time></trkpt><trkpt lat="46.090998073522556" lon="10.33394144552836"><ele>636.0</ele><time>2026-04-07T08:43:00.999Z</time></trkpt><trkpt lat="46.09107067585496" lon="10.334221084402035"><ele>636.0</ele><time>2026-04-07T08:43:01.999Z</time></trkpt><trkpt lat="46.09113670712352" lon="10.334510306741535"><ele>636.0</ele><time>2026-04-07T08:43:02.999Z</time></trkpt><trkpt lat="46.091225856627766" lon="10.334788888721738"><ele>636.0</ele><time>2026-04-07T08:43:03.999Z</time></trkpt><trkpt lat="46.09129349219003" lon="10.335049717102942"><ele>633.3333333333334</ele><time>2026-04-07T08:43:04.999Z</time></trkpt><trkpt lat="46.09133678747266" lon="10.33526961721669"><ele>630.6666666666667</ele><time>2026-04-07T08:43:05.999Z</time></trkpt><trkpt lat="46.0913617884644" lon="10.335486278676328"><ele>628.0</ele><time>2026-04-07T08:43:06.999Z</time></trkpt><trkpt lat="46.09140972958072" lon="10.335703785426556"><ele>625.3333333333334</ele><time>2026-04-07T08:43:07.999Z</time></trkpt><trkpt lat="46.09146693860936" lon="10.335917896033086"><ele>622.6666666666666</ele><time>2026-04-07T08:43:08.999Z</time></trkpt><trkpt lat="46.09156537694628" lon="10.33615250933896"><ele>620.0</ele><time>2026-04-07T08:43:09.999Z</time></trkpt><trkpt lat="46.091676549855805" lon="10.336379199196223"><ele>634.0</ele><time>2026-04-07T08:43:10.999Z</time></trkpt><trkpt lat="46.09174159804556" lon="10.336617897342238"><ele>648.0</ele><time>2026-04-07T08:43:11.999Z</time></trkpt><trkpt lat="46.09177219357025" lon="10.33688348683571"><ele>662.0</ele><time>2026-04-07T08:43:12.999Z</time></trkpt><trkpt lat="46.091791506303494" lon="10.337160592822785"><ele>659.0</ele><time>2026-04-07T08:43:13.999Z</time></trkpt><trkpt lat="46.09182474971082" lon="10.337440746031826"><ele>656.0</ele><time>2026-04-07T08:43:14.999Z</time></trkpt><trkpt lat="46.091856515131894" lon="10.337719401418754"><ele>653.0</ele><time>2026-04-07T08:43:15.999Z</time></trkpt><trkpt lat="46.091916856729036" lon="10.337958847410576"><ele>651.3333333333333</ele><time>2026-04-07T08:43:16.999Z</time></trkpt><trkpt lat="46.0919856773291" lon="10.338192092684181"><ele>649.6666666666666</ele><time>2026-04-07T08:43:17.999Z</time></trkpt><trkpt lat="46.09199223294511" lon="10.338451225247592"><ele>648.0</ele><time>2026-04-07T08:43:18.999Z</time></trkpt><trkpt lat="46.09200267593346" lon="10.338713698297974"><ele>649.0</ele><time>2026-04-07T08:43:19.999Z</time></trkpt><trkpt lat="46.09201878519245" lon="10.338942168727883"><ele>650.0</ele><time>2026-04-07T08:43:20.999Z</time></trkpt><trkpt lat="46.09200558160847" lon="10.339137713957376"><ele>651.0</ele><time>2026-04-07T08:43:21.999Z</time></trkpt><trkpt lat="46.09197575139306" lon="10.339360931470013"><ele>651.0</ele><time>2026-04-07T08:43:22.999Z</time></trkpt><trkpt lat="46.09192693959516" lon="10.339585010783367"><ele>651.0</ele><time>2026-04-07T08:43:23.999Z</time></trkpt><trkpt lat="46.09186788017174" lon="10.339816260138225"><ele>651.0</ele><time>2026-04-07T08:43:24.999Z</time></trkpt><trkpt lat="46.0918300551612" lon="10.340032578245921"><ele>653.6666666666666</ele><time>2026-04-07T08:43:25.999Z</time></trkpt><trkpt lat="46.09182745495916" lon="10.340266358600804"><ele>656.3333333333333</ele><time>2026-04-07T08:43:26.999Z</time></trkpt><trkpt lat="46.0918578077434" lon="10.340529629589968"><ele>659.0</ele><time>2026-04-07T08:43:27.999Z</time></trkpt><trkpt lat="46.091901671566454" lon="10.340794134437846"><ele>661.6666666666666</ele><time>2026-04-07T08:43:28.999Z</time></trkpt><trkpt lat="46.09194711217035" lon="10.341051201722678"><ele>664.3333333333334</ele><time>2026-04-07T08:43:29.999Z</time></trkpt><trkpt lat="46.091981672703476" lon="10.3412691664363"><ele>667.0</ele><time>2026-04-07T08:43:30.999Z</time></trkpt><trkpt lat="46.092010236896584" lon="10.341457338627578"><ele>667.25</ele><time>2026-04-07T08:43:31.999Z</time></trkpt><trkpt lat="46.09202095762289" lon="10.341644367887714"><ele>667.5</ele><time>2026-04-07T08:43:32.999Z</time></trkpt><trkpt lat="46.09203605633141" lon="10.341832428055794"><ele>667.75</ele><time>2026-04-07T08:43:33.999Z</time></trkpt><trkpt lat="46.09205558261183" lon="10.34199714801688"><ele>668.0</ele><time>2026-04-07T08:43:34.999Z</time></trkpt><trkpt lat="46.09205187943928" lon="10.342129282076625"><ele>668.0</ele><time>2026-04-07T08:43:35.999Z</time></trkpt><trkpt lat="46.092059087209535" lon="10.342222588324525"><ele>668.0</ele><time>2026-04-07T08:43:36.999Z</time></trkpt><trkpt lat="46.092146639383174" lon="10.34232602736048"><ele>668.0</ele><time>2026-04-07T08:43:38.999Z</time></trkpt><trkpt lat="46.09221974253394" lon="10.342290103087324"><ele>668.0</ele><time>2026-04-07T08:43:39.999Z</time></trkpt><trkpt lat="46.09228264744307" lon="10.342149672388201"><ele>668.0</ele><time>2026-04-07T08:43:40.999Z</time></trkpt><trkpt lat="46.092266746395374" lon="10.341977572220049"><ele>668.0</ele><time>2026-04-07T08:43:41.999Z</time></trkpt><trkpt lat="46.092266574016094" lon="10.34179421471236"><ele>668.0</ele><time>2026-04-07T08:43:42.999Z</time></trkpt><trkpt lat="46.09226718243139" lon="10.341579350231887"><ele>668.0</ele><time>2026-04-07T08:43:43.999Z</time></trkpt><trkpt lat="46.092289552414414" lon="10.341373590981233"><ele>668.0</ele><time>2026-04-07T08:43:44.999Z</time></trkpt><trkpt lat="46.09229952553814" lon="10.341158986408095"><ele>667.6666666666666</ele><time>2026-04-07T08:43:45.999Z</time></trkpt><trkpt lat="46.09230980447497" lon="10.340937801307414"><ele>667.3333333333334</ele><time>2026-04-07T08:43:46.999Z</time></trkpt><trkpt lat="46.09230985410316" lon="10.340714119095507"><ele>667.0</ele><time>2026-04-07T08:43:47.999Z</time></trkpt><trkpt lat="46.092349584068444" lon="10.340470983752576"><ele>664.3333333333334</ele><time>2026-04-07T08:43:48.999Z</time></trkpt><trkpt lat="46.092410070808626" lon="10.340244619123478"><ele>661.6666666666666</ele><time>2026-04-07T08:43:49.999Z</time></trkpt><trkpt lat="46.09249254876045" lon="10.340015015783324"><ele>659.0</ele><time>2026-04-07T08:43:50.999Z</time></trkpt><trkpt lat="46.092566253898354" lon="10.339775786359173"><ele>673.6666666666666</ele><time>2026-04-07T08:43:51.999Z</time></trkpt><trkpt lat="46.092611491561485" lon="10.339506353244373"><ele>688.3333333333334</ele><time>2026-04-07T08:43:52.999Z</time></trkpt><trkpt lat="46.09264638624398" lon="10.339221908537645"><ele>703.0</ele><time>2026-04-07T08:43:53.999Z</time></trkpt><trkpt lat="46.09268232074588" lon="10.338955199402683"><ele>703.6666666666667</ele><time>2026-04-07T08:43:54.999Z</time></trkpt><trkpt lat="46.09271773073019" lon="10.338708813909951"><ele>704.3333333333334</ele><time>2026-04-07T08:43:55.999Z</time></trkpt><trkpt lat="46.09274774850329" lon="10.338497831834943"><ele>705.0</ele><time>2026-04-07T08:43:56.999Z</time></trkpt><trkpt lat="46.09277577868033" lon="10.33829259433336"><ele>705.0</ele><time>2026-04-07T08:43:57.999Z</time></trkpt><trkpt lat="46.09279580953951" lon="10.338096179084113"><ele>705.0</ele><time>2026-04-07T08:43:58.999Z</time></trkpt><trkpt lat="46.09279511892155" lon="10.337663595408552"><ele>705.0</ele><time>2026-04-07T08:43:59.999Z</time></trkpt><trkpt lat="46.09275338228365" lon="10.33740011274834"><ele>708.5</ele><time>2026-04-07T08:44:00.999Z</time></trkpt><trkpt lat="46.09270963757059" lon="10.337161109421453"><ele>712.0</ele><time>2026-04-07T08:44:01.999Z</time></trkpt><trkpt lat="46.09267965809588" lon="10.336960175413743"><ele>715.5</ele><time>2026-04-07T08:44:02.999Z</time></trkpt><trkpt lat="46.09266219470506" lon="10.336774632470478"><ele>719.0</ele><time>2026-04-07T08:44:03.999Z</time></trkpt><trkpt lat="46.092691256513376" lon="10.33659343170076"><ele>719.0</ele><time>2026-04-07T08:44:04.999Z</time></trkpt><trkpt lat="46.092707669963865" lon="10.336426513924453"><ele>719.0</ele><time>2026-04-07T08:44:05.999Z</time></trkpt><trkpt lat="46.09273194932394" lon="10.336287423808074"><ele>719.0</ele><time>2026-04-07T08:44:06.999Z</time></trkpt><trkpt lat="46.0927613185037" lon="10.336165409461415"><ele>719.0</ele><time>2026-04-07T08:44:07.999Z</time></trkpt><trkpt lat="46.092822047085704" lon="10.336046468904156"><ele>719.0</ele><time>2026-04-07T08:44:08.999Z</time></trkpt><trkpt lat="46.09289746343144" lon="10.33590085190958"><ele>718.0</ele><time>2026-04-07T08:44:09.999Z</time></trkpt><trkpt lat="46.09296975057001" lon="10.335726071063192"><ele>717.0</ele><time>2026-04-07T08:44:10.999Z</time></trkpt><trkpt lat="46.09301962318013" lon="10.335513330799166"><ele>716.0</ele><time>2026-04-07T08:44:11.999Z</time></trkpt><trkpt lat="46.09306560121435" lon="10.335298646271672"><ele>717.75</ele><time>2026-04-07T08:44:12.999Z</time></trkpt><trkpt lat="46.093087620824875" lon="10.33508846320247"><ele>719.5</ele><time>2026-04-07T08:44:13.999Z</time></trkpt><trkpt lat="46.09309460515733" lon="10.33487314261727"><ele>721.25</ele><time>2026-04-07T08:44:14.999Z</time></trkpt><trkpt lat="46.09307165319482" lon="10.334667112159858"><ele>723.0</ele><time>2026-04-07T08:44:15.999Z</time></trkpt><trkpt lat="46.09301319799483" lon="10.334468471579173"><ele>728.0</ele><time>2026-04-07T08:44:16.999Z</time></trkpt><trkpt lat="46.092926192884676" lon="10.334264952918788"><ele>733.0</ele><time>2026-04-07T08:44:17.999Z</time></trkpt><trkpt lat="46.092826070426675" lon="10.33407687916338"><ele>738.0</ele><time>2026-04-07T08:44:18.999Z</time></trkpt><trkpt lat="46.09274047776703" lon="10.333905539420144"><ele>740.5</ele><time>2026-04-07T08:44:19.999Z</time></trkpt><trkpt lat="46.09269157543436" lon="10.333738431988458"><ele>743.0</ele><time>2026-04-07T08:44:20.999Z</time></trkpt><trkpt lat="46.09264555909022" lon="10.333563242462736"><ele>745.5</ele><time>2026-04-07T08:44:21.999Z</time></trkpt><trkpt lat="46.09259973439461" lon="10.333388884038685"><ele>748.0</ele><time>2026-04-07T08:44:22.999Z</time></trkpt><trkpt lat="46.09255981633068" lon="10.3332374229715"><ele>748.0</ele><time>2026-04-07T08:44:23.999Z</time></trkpt><trkpt lat="46.09252458940831" lon="10.333105704995521"><ele>748.0</ele><time>2026-04-07T08:44:24.999Z</time></trkpt><trkpt lat="46.09249987566066" lon="10.332993267445278"><ele>748.0</ele><time>2026-04-07T08:44:25.999Z</time></trkpt><trkpt lat="46.09251685637227" lon="10.332853147903325"><ele>748.0</ele><time>2026-04-07T08:44:27.999Z</time></trkpt><trkpt lat="46.09267055464346" lon="10.332877473185796"><ele>748.0</ele><time>2026-04-07T08:44:30.999Z</time></trkpt><trkpt lat="46.09271009610994" lon="10.332976410546474"><ele>748.0</ele><time>2026-04-07T08:44:31.999Z</time></trkpt><trkpt lat="46.09269517181425" lon="10.333118512846768"><ele>748.0</ele><time>2026-04-07T08:44:32.999Z</time></trkpt><trkpt lat="46.09271807281188" lon="10.333267846766777"><ele>748.0</ele><time>2026-04-07T08:44:33.999Z</time></trkpt><trkpt lat="46.092748071681" lon="10.333412437514763"><ele>748.0</ele><time>2026-04-07T08:44:34.999Z</time></trkpt><trkpt lat="46.09279627667534" lon="10.333572661186386"><ele>748.0</ele><time>2026-04-07T08:44:35.999Z</time></trkpt><trkpt lat="46.0928621029948" lon="10.333731044590518"><ele>748.0</ele><time>2026-04-07T08:44:36.999Z</time></trkpt><trkpt lat="46.09294185376221" lon="10.333879938996573"><ele>748.0</ele><time>2026-04-07T08:44:37.999Z</time></trkpt><trkpt lat="46.09304787675126" lon="10.334021758772291"><ele>748.0</ele><time>2026-04-07T08:44:38.999Z</time></trkpt><trkpt lat="46.093179713283995" lon="10.334150887765924"><ele>748.0</ele><time>2026-04-07T08:44:39.999Z</time></trkpt><trkpt lat="46.093313927632614" lon="10.33427750901586"><ele>752.0</ele><time>2026-04-07T08:44:40.999Z</time></trkpt><trkpt lat="46.0934261919466" lon="10.3344181569825"><ele>756.0</ele><time>2026-04-07T08:44:41.999Z</time></trkpt><trkpt lat="46.09350602785477" lon="10.334592673137783"><ele>760.0</ele><time>2026-04-07T08:44:42.999Z</time></trkpt><trkpt lat="46.0935805522932" lon="10.334762365187881"><ele>764.0</ele><time>2026-04-07T08:44:43.999Z</time></trkpt><trkpt lat="46.093588386029595" lon="10.334967301542738"><ele>764.0</ele><time>2026-04-07T08:44:44.999Z</time></trkpt><trkpt lat="46.093597524790496" lon="10.33518440851418"><ele>764.0</ele><time>2026-04-07T08:44:45.999Z</time></trkpt><trkpt lat="46.0936237202445" lon="10.335420895244262"><ele>764.0</ele><time>2026-04-07T08:44:46.999Z</time></trkpt><trkpt lat="46.093657975930846" lon="10.33565864634807"><ele>762.6666666666666</ele><time>2026-04-07T08:44:47.999Z</time></trkpt><trkpt lat="46.093711801268505" lon="10.335869706417423"><ele>761.3333333333334</ele><time>2026-04-07T08:44:48.999Z</time></trkpt><trkpt lat="46.093724866384406" lon="10.336081507355427"><ele>760.0</ele><time>2026-04-07T08:44:49.999Z</time></trkpt><trkpt lat="46.09372151234101" lon="10.336305869662365"><ele>760.0</ele><time>2026-04-07T08:44:50.999Z</time></trkpt><trkpt lat="46.09369340546615" lon="10.336553933832644"><ele>760.0</ele><time>2026-04-07T08:44:51.999Z</time></trkpt><trkpt lat="46.093685231499826" lon="10.336791852812306"><ele>760.0</ele><time>2026-04-07T08:44:52.999Z</time></trkpt><trkpt lat="46.09372680938801" lon="10.33702910877753"><ele>759.3333333333334</ele><time>2026-04-07T08:44:53.999Z</time></trkpt><trkpt lat="46.09375589067235" lon="10.337237028485013"><ele>758.6666666666666</ele><time>2026-04-07T08:44:54.999Z</time></trkpt><trkpt lat="46.09374201782297" lon="10.337448197421852"><ele>758.0</ele><time>2026-04-07T08:44:55.999Z</time></trkpt><trkpt lat="46.09375982800593" lon="10.337674845361924"><ele>758.0</ele><time>2026-04-07T08:44:56.999Z</time></trkpt><trkpt lat="46.093783155374595" lon="10.337898645677264"><ele>758.0</ele><time>2026-04-07T08:44:57.999Z</time></trkpt><trkpt lat="46.09385485276007" lon="10.338114965085815"><ele>758.0</ele><time>2026-04-07T08:44:58.999Z</time></trkpt><trkpt lat="46.09395942200094" lon="10.338324679238355"><ele>757.3333333333333</ele><time>2026-04-07T08:44:59.999Z</time></trkpt><trkpt lat="46.094044696080005" lon="10.33855877519594"><ele>756.6666666666666</ele><time>2026-04-07T08:45:00.999Z</time></trkpt><trkpt lat="46.09411601965289" lon="10.338817465837387"><ele>756.0</ele><time>2026-04-07T08:45:01.999Z</time></trkpt><trkpt lat="46.094166011164674" lon="10.339079719702568"><ele>769.0</ele><time>2026-04-07T08:45:02.999Z</time></trkpt><trkpt lat="46.094219952549444" lon="10.339297853598275"><ele>782.0</ele><time>2026-04-07T08:45:03.999Z</time></trkpt><trkpt lat="46.09424939584181" lon="10.33952175168758"><ele>795.0</ele><time>2026-04-07T08:45:04.999Z</time></trkpt><trkpt lat="46.0942582268099" lon="10.339745022471366"><ele>795.6666666666667</ele><time>2026-04-07T08:45:05.999Z</time></trkpt><trkpt lat="46.09421607206026" lon="10.339992788238257"><ele>796.3333333333334</ele><time>2026-04-07T08:45:06.999Z</time></trkpt><trkpt lat="46.09418569036003" lon="10.340259105370546"><ele>797.0</ele><time>2026-04-07T08:45:07.999Z</time></trkpt><trkpt lat="46.09415577306708" lon="10.340535413643046"><ele>801.0</ele><time>2026-04-07T08:45:08.999Z</time></trkpt><trkpt lat="46.094147104635496" lon="10.340826009164868"><ele>805.0</ele><time>2026-04-07T08:45:09.999Z</time></trkpt><trkpt lat="46.09415753144434" lon="10.341130437977228"><ele>809.0</ele><time>2026-04-07T08:45:10.999Z</time></trkpt><trkpt lat="46.094183283200664" lon="10.341425660283779"><ele>809.3333333333334</ele><time>2026-04-07T08:45:11.999Z</time></trkpt><trkpt lat="46.09420240390837" lon="10.341713166641158"><ele>809.6666666666667</ele><time>2026-04-07T08:45:12.999Z</time></trkpt><trkpt lat="46.09424033574487" lon="10.342002282448309"><ele>810.0</ele><time>2026-04-07T08:45:13.999Z</time></trkpt><trkpt lat="46.09429756055395" lon="10.342284628291063"><ele>811.0</ele><time>2026-04-07T08:45:14.999Z</time></trkpt><trkpt lat="46.09432318992519" lon="10.342575670999647"><ele>812.0</ele><time>2026-04-07T08:45:15.999Z</time></trkpt><trkpt lat="46.09431418674088" lon="10.34288711191631"><ele>813.0</ele><time>2026-04-07T08:45:16.999Z</time></trkpt><trkpt lat="46.094331967551454" lon="10.343195820220027"><ele>813.0</ele><time>2026-04-07T08:45:17.999Z</time></trkpt><trkpt lat="46.09433560488588" lon="10.343524658552669"><ele>813.0</ele><time>2026-04-07T08:45:18.999Z</time></trkpt><trkpt lat="46.09434308135907" lon="10.343833959199346"><ele>813.0</ele><time>2026-04-07T08:45:19.999Z</time></trkpt><trkpt lat="46.09435329484633" lon="10.344133357917272"><ele>813.3333333333333</ele><time>2026-04-07T08:45:20.999Z</time></trkpt><trkpt lat="46.09437465733959" lon="10.344432645302147"><ele>813.6666666666666</ele><time>2026-04-07T08:45:21.999Z</time></trkpt><trkpt lat="46.0944202044529" lon="10.344746864414683"><ele>814.0</ele><time>2026-04-07T08:45:22.999Z</time></trkpt><trkpt lat="46.09446937557417" lon="10.345054395799353"><ele>814.0</ele><time>2026-04-07T08:45:23.999Z</time></trkpt><trkpt lat="46.094515176149606" lon="10.345335181059392"><ele>814.0</ele><time>2026-04-07T08:45:24.999Z</time></trkpt><trkpt lat="46.09453392441139" lon="10.34557574280097"><ele>814.0</ele><time>2026-04-07T08:45:25.999Z</time></trkpt><trkpt lat="46.09458295734478" lon="10.34579335294163"><ele>814.75</ele><time>2026-04-07T08:45:26.999Z</time></trkpt><trkpt lat="46.094595757855686" lon="10.345995391385356"><ele>815.5</ele><time>2026-04-07T08:45:27.999Z</time></trkpt><trkpt lat="46.09462269910941" lon="10.346182728539178"><ele>816.25</ele><time>2026-04-07T08:45:28.999Z</time></trkpt><trkpt lat="46.09463329266914" lon="10.346364796517886"><ele>817.0</ele><time>2026-04-07T08:45:29.999Z</time></trkpt><trkpt lat="46.09461421266962" lon="10.346562069886684"><ele>819.6666666666666</ele><time>2026-04-07T08:45:30.999Z</time></trkpt><trkpt lat="46.094554844361724" lon="10.34675280926175"><ele>822.3333333333333</ele><time>2026-04-07T08:45:31.999Z</time></trkpt><trkpt lat="46.09444756724747" lon="10.346940993944411"><ele>825.0</ele><time>2026-04-07T08:45:32.999Z</time></trkpt><trkpt lat="46.0943167372475" lon="10.347136740928285"><ele>825.6666666666667</ele><time>2026-04-07T08:45:33.999Z</time></trkpt><trkpt lat="46.094163773453786" lon="10.347294665550152"><ele>826.3333333333334</ele><time>2026-04-07T08:45:34.999Z</time></trkpt><trkpt lat="46.093995381893045" lon="10.347383953513082"><ele>827.0</ele><time>2026-04-07T08:45:35.999Z</time></trkpt><trkpt lat="46.09383782063236" lon="10.34749454620221"><ele>827.0</ele><time>2026-04-07T08:45:36.999Z</time></trkpt><trkpt lat="46.093681098616734" lon="10.347568044088035"><ele>827.0</ele><time>2026-04-07T08:45:37.999Z</time></trkpt><trkpt lat="46.093546435912046" lon="10.347673729530097"><ele>827.0</ele><time>2026-04-07T08:45:38.999Z</time></trkpt><trkpt lat="46.093441769197206" lon="10.347817280642525"><ele>827.0</ele><time>2026-04-07T08:45:39.999Z</time></trkpt><trkpt lat="46.09336801172288" lon="10.348035699934698"><ele>827.0</ele><time>2026-04-07T08:45:40.999Z</time></trkpt><trkpt lat="46.09329276173194" lon="10.348289290436927"><ele>827.0</ele><time>2026-04-07T08:45:41.999Z</time></trkpt><trkpt lat="46.0931997508316" lon="10.348524661455482"><ele>823.3333333333334</ele><time>2026-04-07T08:45:42.999Z</time></trkpt><trkpt lat="46.09311692452444" lon="10.34879475836754"><ele>819.6666666666667</ele><time>2026-04-07T08:45:43.999Z</time></trkpt><trkpt lat="46.09301371103606" lon="10.349042175493102"><ele>816.0</ele><time>2026-04-07T08:45:44.999Z</time></trkpt><trkpt lat="46.09289022108284" lon="10.349279402474012"><ele>823.6666666666667</ele><time>2026-04-07T08:45:45.999Z</time></trkpt><trkpt lat="46.09273993535034" lon="10.349485725385566"><ele>831.3333333333334</ele><time>2026-04-07T08:45:46.999Z</time></trkpt><trkpt lat="46.09257330316875" lon="10.349694587061702"><ele>839.0</ele><time>2026-04-07T08:45:47.999Z</time></trkpt><trkpt lat="46.09242550446695" lon="10.349885711232659"><ele>836.3333333333334</ele><time>2026-04-07T08:45:48.999Z</time></trkpt><trkpt lat="46.09229275090119" lon="10.350064904205297"><ele>833.6666666666667</ele><time>2026-04-07T08:45:49.999Z</time></trkpt><trkpt lat="46.09215219813803" lon="10.350254863932367"><ele>831.0</ele><time>2026-04-07T08:45:50.999Z</time></trkpt><trkpt lat="46.092020209246215" lon="10.350441984960659"><ele>839.0</ele><time>2026-04-07T08:45:51.999Z</time></trkpt><trkpt lat="46.09190906074661" lon="10.350642439971992"><ele>847.0</ele><time>2026-04-07T08:45:52.999Z</time></trkpt><trkpt lat="46.09181510046704" lon="10.350879362608811"><ele>855.0</ele><time>2026-04-07T08:45:53.999Z</time></trkpt><trkpt lat="46.09173410659908" lon="10.351110784549652"><ele>855.0</ele><time>2026-04-07T08:45:54.999Z</time></trkpt><trkpt lat="46.091659516131145" lon="10.351317479056535"><ele>855.0</ele><time>2026-04-07T08:45:55.999Z</time></trkpt><trkpt lat="46.0915907795616" lon="10.351516987360592"><ele>855.0</ele><time>2026-04-07T08:45:56.999Z</time></trkpt><trkpt lat="46.091549793346736" lon="10.351703367295352"><ele>853.75</ele><time>2026-04-07T08:45:57.999Z</time></trkpt><trkpt lat="46.09154295838552" lon="10.351918693146315"><ele>852.5</ele><time>2026-04-07T08:45:58.999Z</time></trkpt><trkpt lat="46.091553589802565" lon="10.352141132387862"><ele>851.25</ele><time>2026-04-07T08:45:59.999Z</time></trkpt><trkpt lat="46.09156291610574" lon="10.352327318368404"><ele>850.0</ele><time>2026-04-07T08:46:00.999Z</time></trkpt><trkpt lat="46.09154543274209" lon="10.35248720977948"><ele>850.0</ele><time>2026-04-07T08:46:01.999Z</time></trkpt><trkpt lat="46.091544583686144" lon="10.352645438073255"><ele>850.0</ele><time>2026-04-07T08:46:02.999Z</time></trkpt><trkpt lat="46.091543676043514" lon="10.352814584402465"><ele>850.0</ele><time>2026-04-07T08:46:03.999Z</time></trkpt><trkpt lat="46.09154383733226" lon="10.352995210268697"><ele>850.0</ele><time>2026-04-07T08:46:04.999Z</time></trkpt><trkpt lat="46.09154434396618" lon="10.353182438202506"><ele>855.0</ele><time>2026-04-07T08:46:05.999Z</time></trkpt><trkpt lat="46.09154712534273" lon="10.35338823078016"><ele>860.0</ele><time>2026-04-07T08:46:06.999Z</time></trkpt><trkpt lat="46.091559108173726" lon="10.353621293788441"><ele>865.0</ele><time>2026-04-07T08:46:07.999Z</time></trkpt><trkpt lat="46.09157539916438" lon="10.353830815276945"><ele>870.0</ele><time>2026-04-07T08:46:08.999Z</time></trkpt><trkpt lat="46.091589630329885" lon="10.35401185154875"><ele>875.0</ele><time>2026-04-07T08:46:09.999Z</time></trkpt><trkpt lat="46.09159801419194" lon="10.354162958812585"><ele>880.0</ele><time>2026-04-07T08:46:10.999Z</time></trkpt><trkpt lat="46.09158381781748" lon="10.354286315939856"><ele>885.0</ele><time>2026-04-07T08:46:11.999Z</time></trkpt><trkpt lat="46.0915606276054" lon="10.354393352516956"><ele>890.0</ele><time>2026-04-07T08:46:12.999Z</time></trkpt><trkpt lat="46.091488506645184" lon="10.354458004793397"><ele>890.0</ele><time>2026-04-07T08:46:13.999Z</time></trkpt><trkpt lat="46.091396428814235" lon="10.354479439443534"><ele>890.0</ele><time>2026-04-07T08:46:14.999Z</time></trkpt><trkpt lat="46.091302108864234" lon="10.354398899766739"><ele>890.0</ele><time>2026-04-07T08:46:15.999Z</time></trkpt><trkpt lat="46.09122509090758" lon="10.354309110343253"><ele>890.0</ele><time>2026-04-07T08:46:16.999Z</time></trkpt><trkpt lat="46.091131162059895" lon="10.354257422822327"><ele>890.0</ele><time>2026-04-07T08:46:17.999Z</time></trkpt><trkpt lat="46.09103389506008" lon="10.354266005080275"><ele>890.0</ele><time>2026-04-07T08:46:18.999Z</time></trkpt><trkpt lat="46.090933475372005" lon="10.3543558020338"><ele>890.0</ele><time>2026-04-07T08:46:19.999Z</time></trkpt><trkpt lat="46.09084238397958" lon="10.354489834982585"><ele>890.0</ele><time>2026-04-07T08:46:20.999Z</time></trkpt><trkpt lat="46.090728341053826" lon="10.354598314315659"><ele>890.0</ele><time>2026-04-07T08:46:21.999Z</time></trkpt><trkpt lat="46.09063461737997" lon="10.35467104943039"><ele>888.0</ele><time>2026-04-07T08:46:22.999Z</time></trkpt><trkpt lat="46.09053586581954" lon="10.354695150242623"><ele>886.0</ele><time>2026-04-07T08:46:23.999Z</time></trkpt><trkpt lat="46.09045568157549" lon="10.354643072612136"><ele>884.0</ele><time>2026-04-07T08:46:24.999Z</time></trkpt><trkpt lat="46.090383884039596" lon="10.354514485275558"><ele>882.0</ele><time>2026-04-07T08:46:25.999Z</time></trkpt><trkpt lat="46.09029741957005" lon="10.35446574646582"><ele>880.0</ele><time>2026-04-07T08:46:26.999Z</time></trkpt><trkpt lat="46.090215732338095" lon="10.354441421701024"><ele>880.0</ele><time>2026-04-07T08:46:27.999Z</time></trkpt><trkpt lat="46.090128581302686" lon="10.35453288680545"><ele>880.0</ele><time>2026-04-07T08:46:28.999Z</time></trkpt><trkpt lat="46.0900918631997" lon="10.354702007286228"><ele>880.0</ele><time>2026-04-07T08:46:29.999Z</time></trkpt><trkpt lat="46.09003125065277" lon="10.354867302948167"><ele>880.0</ele><time>2026-04-07T08:46:30.999Z</time></trkpt><trkpt lat="46.08995885574284" lon="10.355078273256398"><ele>878.0</ele><time>2026-04-07T08:46:31.999Z</time></trkpt><trkpt lat="46.08988471853473" lon="10.355294320918775"><ele>876.0</ele><time>2026-04-07T08:46:32.999Z</time></trkpt><trkpt lat="46.08981117027108" lon="10.35550294233285"><ele>874.0</ele><time>2026-04-07T08:46:33.999Z</time></trkpt><trkpt lat="46.08973849344392" lon="10.35571562484887"><ele>883.3333333333333</ele><time>2026-04-07T08:46:34.999Z</time></trkpt><trkpt lat="46.08962255365239" lon="10.355877122119686"><ele>892.6666666666667</ele><time>2026-04-07T08:46:35.999Z</time></trkpt><trkpt lat="46.08947996424877" lon="10.355998689063423"><ele>902.0</ele><time>2026-04-07T08:46:36.999Z</time></trkpt><trkpt lat="46.08933252468346" lon="10.3560947025917"><ele>902.0</ele><time>2026-04-07T08:46:37.999Z</time></trkpt><trkpt lat="46.08916903197257" lon="10.356206451272767"><ele>902.0</ele><time>2026-04-07T08:46:38.999Z</time></trkpt><trkpt lat="46.08901103126842" lon="10.356347006208722"><ele>902.0</ele><time>2026-04-07T08:46:39.999Z</time></trkpt><trkpt lat="46.08887500678872" lon="10.356490737937525"><ele>900.25</ele><time>2026-04-07T08:46:40.999Z</time></trkpt><trkpt lat="46.0887610667304" lon="10.356629256931102"><ele>898.5</ele><time>2026-04-07T08:46:41.999Z</time></trkpt><trkpt lat="46.08867100696453" lon="10.356760641923467"><ele>896.75</ele><time>2026-04-07T08:46:42.999Z</time></trkpt><trkpt lat="46.08862094364007" lon="10.356891728849453"><ele>895.0</ele><time>2026-04-07T08:46:43.999Z</time></trkpt><trkpt lat="46.0886095489575" lon="10.357030241298437"><ele>895.0</ele><time>2026-04-07T08:46:44.999Z</time></trkpt><trkpt lat="46.088633469893566" lon="10.357155613357163"><ele>895.0</ele><time>2026-04-07T08:46:45.999Z</time></trkpt><trkpt lat="46.08869176153378" lon="10.357281020800867"><ele>895.0</ele><time>2026-04-07T08:46:46.999Z</time></trkpt><trkpt lat="46.088792621136385" lon="10.357401704198915"><ele>895.0</ele><time>2026-04-07T08:46:47.999Z</time></trkpt><trkpt lat="46.08886546686589" lon="10.357543612900573"><ele>895.0</ele><time>2026-04-07T08:46:48.999Z</time></trkpt><trkpt lat="46.088911388319936" lon="10.357714512020173"><ele>901.0</ele><time>2026-04-07T08:46:49.999Z</time></trkpt><trkpt lat="46.08893038737882" lon="10.357902315354215"><ele>907.0</ele><time>2026-04-07T08:46:50.999Z</time></trkpt><trkpt lat="46.088931362445834" lon="10.358105255907232"><ele>913.0</ele><time>2026-04-07T08:46:51.999Z</time></trkpt><trkpt lat="46.08892262204312" lon="10.358313642814501"><ele>919.0</ele><time>2026-04-07T08:46:52.999Z</time></trkpt><trkpt lat="46.0889271585585" lon="10.358525763721277"><ele>922.5</ele><time>2026-04-07T08:46:53.999Z</time></trkpt><trkpt lat="46.088965881406644" lon="10.358716915210621"><ele>926.0</ele><time>2026-04-07T08:46:54.999Z</time></trkpt><trkpt lat="46.08904052087794" lon="10.358897269230322"><ele>929.5</ele><time>2026-04-07T08:46:55.999Z</time></trkpt><trkpt lat="46.089110269739464" lon="10.359086053418775"><ele>933.0</ele><time>2026-04-07T08:46:56.999Z</time></trkpt><trkpt lat="46.089204028108895" lon="10.359236902501513"><ele>937.0</ele><time>2026-04-07T08:46:57.999Z</time></trkpt><trkpt lat="46.089322828176215" lon="10.359378576815587"><ele>941.0</ele><time>2026-04-07T08:46:58.999Z</time></trkpt><trkpt lat="46.08946163970286" lon="10.359504035594197"><ele>945.0</ele><time>2026-04-07T08:46:59.999Z</time></trkpt><trkpt lat="46.08956699635033" lon="10.359598776307053"><ele>949.0</ele><time>2026-04-07T08:47:00.999Z</time></trkpt><trkpt lat="46.089665719925684" lon="10.359681001424443"><ele>952.8000000000001</ele><time>2026-04-07T08:47:01.999Z</time></trkpt><trkpt lat="46.08973431207466" lon="10.359800745281955"><ele>956.6000000000001</ele><time>2026-04-07T08:47:02.999Z</time></trkpt><trkpt lat="46.089795109244065" lon="10.359946977685206"><ele>960.4</ele><time>2026-04-07T08:47:03.999Z</time></trkpt><trkpt lat="46.089841417108126" lon="10.360078378098631"><ele>964.2</ele><time>2026-04-07T08:47:04.999Z</time></trkpt><trkpt lat="46.089867598206716" lon="10.360191577318592"><ele>968.0</ele><time>2026-04-07T08:47:05.999Z</time></trkpt><trkpt lat="46.08986608595442" lon="10.360293117280545"><ele>968.0000000000001</ele><time>2026-04-07T08:47:06.999Z</time></trkpt><trkpt lat="46.08982218209447" lon="10.360361123457293"><ele>968.0</ele><time>2026-04-07T08:47:07.999Z</time></trkpt><trkpt lat="46.089764529227295" lon="10.360407843056173"><ele>968.0</ele><time>2026-04-07T08:47:08.999Z</time></trkpt><trkpt lat="46.08969627569873" lon="10.36040302488536"><ele>968.0</ele><time>2026-04-07T08:47:09.999Z</time></trkpt><trkpt lat="46.08961744969951" lon="10.360331981814877"><ele>968.0000000000001</ele><time>2026-04-07T08:47:10.999Z</time></trkpt><trkpt lat="46.08954505372844" lon="10.360240286320675"><ele>968.0</ele><time>2026-04-07T08:47:11.999Z</time></trkpt><trkpt lat="46.08943431169796" lon="10.360209490312595"><ele>968.0</ele><time>2026-04-07T08:47:12.999Z</time></trkpt><trkpt lat="46.08930284702758" lon="10.360177320495861"><ele>968.0</ele><time>2026-04-07T08:47:13.999Z</time></trkpt><trkpt lat="46.089149934797994" lon="10.360158157237475"><ele>968.0</ele><time>2026-04-07T08:47:14.999Z</time></trkpt><trkpt lat="46.08902012110189" lon="10.360128207686897"><ele>968.0</ele><time>2026-04-07T08:47:15.999Z</time></trkpt><trkpt lat="46.08888552040924" lon="10.360070760231022"><ele>975.4</ele><time>2026-04-07T08:47:16.999Z</time></trkpt><trkpt lat="46.08877464165443" lon="10.360009986922902"><ele>982.8</ele><time>2026-04-07T08:47:17.999Z</time></trkpt><trkpt lat="46.0886799071508" lon="10.359979853733982"><ele>990.2</ele><time>2026-04-07T08:47:18.999Z</time></trkpt><trkpt lat="46.088579749175715" lon="10.359989351481538"><ele>997.6</ele><time>2026-04-07T08:47:19.999Z</time></trkpt><trkpt lat="46.08850022926706" lon="10.35998570371017"><ele>1005.0</ele><time>2026-04-07T08:47:20.999Z</time></trkpt><trkpt lat="46.08842659343591" lon="10.359923197855185"><ele>1005.0</ele><time>2026-04-07T08:47:21.999Z</time></trkpt><trkpt lat="46.08837837470736" lon="10.359830029910766"><ele>1005.0</ele><time>2026-04-07T08:47:22.999Z</time></trkpt><trkpt lat="46.0883610119712" lon="10.35969974995036"><ele>1005.0</ele><time>2026-04-07T08:47:23.999Z</time></trkpt><trkpt lat="46.08833966887646" lon="10.359548579645898"><ele>1005.0</ele><time>2026-04-07T08:47:24.999Z</time></trkpt><trkpt lat="46.088296844252355" lon="10.35938113364618"><ele>1005.0</ele><time>2026-04-07T08:47:26Z</time></trkpt><trkpt lat="46.088220579157706" lon="10.359215485451083"><ele>1002.25</ele><time>2026-04-07T08:47:27Z</time></trkpt><trkpt lat="46.08812075074903" lon="10.359078990195666"><ele>999.5</ele><time>2026-04-07T08:47:28Z</time></trkpt><trkpt lat="46.08799293986515" lon="10.35897865424299"><ele>996.75</ele><time>2026-04-07T08:47:29Z</time></trkpt><trkpt lat="46.087850017510284" lon="10.358926812328471"><ele>994.0</ele><time>2026-04-07T08:47:30Z</time></trkpt><trkpt lat="46.087692240652835" lon="10.358911480032074"><ele>994.0</ele><time>2026-04-07T08:47:31Z</time></trkpt><trkpt lat="46.08752025939666" lon="10.358907747392372"><ele>994.0</ele><time>2026-04-07T08:47:32Z</time></trkpt><trkpt lat="46.08735805435561" lon="10.358913755409649"><ele>994.0</ele><time>2026-04-07T08:47:33Z</time></trkpt><trkpt lat="46.08719653309027" lon="10.358950063422213"><ele>992.5</ele><time>2026-04-07T08:47:34Z</time></trkpt><trkpt lat="46.08704408866853" lon="10.359011518566252"><ele>991.0</ele><time>2026-04-07T08:47:35Z</time></trkpt><trkpt lat="46.08691856454994" lon="10.359083183349581"><ele>989.5</ele><time>2026-04-07T08:47:36Z</time></trkpt><trkpt lat="46.08680832377176" lon="10.359166043663551"><ele>988.0</ele><time>2026-04-07T08:47:37Z</time></trkpt><trkpt lat="46.08671749697401" lon="10.359246770980318"><ele>988.0</ele><time>2026-04-07T08:47:38Z</time></trkpt><trkpt lat="46.086658540283025" lon="10.359329485914767"><ele>988.0</ele><time>2026-04-07T08:47:39Z</time></trkpt><trkpt lat="46.086629756400406" lon="10.359438563648602"><ele>988.0</ele><time>2026-04-07T08:47:40Z</time></trkpt><trkpt lat="46.086624953399756" lon="10.359574836959567"><ele>988.0</ele><time>2026-04-07T08:47:41Z</time></trkpt><trkpt lat="46.08662271844821" lon="10.359733985051296"><ele>988.0</ele><time>2026-04-07T08:47:42Z</time></trkpt><trkpt lat="46.08667819985121" lon="10.359894838389653"><ele>990.25</ele><time>2026-04-07T08:47:43Z</time></trkpt><trkpt lat="46.086750383757874" lon="10.360054605277433"><ele>992.5</ele><time>2026-04-07T08:47:44Z</time></trkpt><trkpt lat="46.08684659996703" lon="10.360205761558833"><ele>994.75</ele><time>2026-04-07T08:47:45.001Z</time></trkpt><trkpt lat="46.086941570986454" lon="10.360374340826862"><ele>997.0</ele><time>2026-04-07T08:47:46.001Z</time></trkpt><trkpt lat="46.08699354697868" lon="10.36055611583039"><ele>997.0</ele><time>2026-04-07T08:47:47.001Z</time></trkpt><trkpt lat="46.08699271230116" lon="10.36075966357552"><ele>997.0</ele><time>2026-04-07T08:47:48.001Z</time></trkpt><trkpt lat="46.08699728787276" lon="10.360973173105531"><ele>997.0</ele><time>2026-04-07T08:47:49.001Z</time></trkpt><trkpt lat="46.08697864938023" lon="10.361199862694175"><ele>997.0</ele><time>2026-04-07T08:47:50.001Z</time></trkpt><trkpt lat="46.086993763547866" lon="10.361383170926045"><ele>996.0</ele><time>2026-04-07T08:47:51.001Z</time></trkpt><trkpt lat="46.08699026232677" lon="10.361594829188627"><ele>995.0</ele><time>2026-04-07T08:47:52.001Z</time></trkpt><trkpt lat="46.087041149848545" lon="10.3618104977319"><ele>994.0</ele><time>2026-04-07T08:47:53Z</time></trkpt><trkpt lat="46.08709381028932" lon="10.362032847027924"><ele>993.0</ele><time>2026-04-07T08:47:54Z</time></trkpt><trkpt lat="46.087136402447875" lon="10.36228440226826"><ele>992.0</ele><time>2026-04-07T08:47:55Z</time></trkpt><trkpt lat="46.087199519044255" lon="10.362545202410375"><ele>991.0</ele><time>2026-04-07T08:47:56Z</time></trkpt><trkpt lat="46.087273167527655" lon="10.362780922587211"><ele>989.6666666666666</ele><time>2026-04-07T08:47:57Z</time></trkpt><trkpt lat="46.08732157286247" lon="10.363039691400507"><ele>988.3333333333333</ele><time>2026-04-07T08:47:58Z</time></trkpt><trkpt lat="46.0874105355789" lon="10.363233113081007"><ele>987.0</ele><time>2026-04-07T08:47:59Z</time></trkpt><trkpt lat="46.08749725043236" lon="10.363436057130048"><ele>999.6666666666667</ele><time>2026-04-07T08:48:00Z</time></trkpt><trkpt lat="46.08758301026326" lon="10.363633843195137"><ele>1012.3333333333334</ele><time>2026-04-07T08:48:01Z</time></trkpt><trkpt lat="46.08761161226235" lon="10.36387278675043"><ele>1025.0</ele><time>2026-04-07T08:48:02Z</time></trkpt><trkpt lat="46.08764601823723" lon="10.36411562768592"><ele>1025.3333333333335</ele><time>2026-04-07T08:48:03Z</time></trkpt><trkpt lat="46.08769737354894" lon="10.364385637833513"><ele>1025.6666666666667</ele><time>2026-04-07T08:48:04Z</time></trkpt><trkpt lat="46.08771860941523" lon="10.364651250884082"><ele>1026.0</ele><time>2026-04-07T08:48:05Z</time></trkpt><trkpt lat="46.0876993317522" lon="10.364905603877396"><ele>1027.0</ele><time>2026-04-07T08:48:06Z</time></trkpt><trkpt lat="46.08772635080013" lon="10.365163720545105"><ele>1028.0</ele><time>2026-04-07T08:48:07Z</time></trkpt><trkpt lat="46.08774863104346" lon="10.365392011213968"><ele>1029.0</ele><time>2026-04-07T08:48:08Z</time></trkpt><trkpt lat="46.08777376029935" lon="10.365576463210061"><ele>1034.6000000000001</ele><time>2026-04-07T08:48:09Z</time></trkpt><trkpt lat="46.08779283852473" lon="10.365755835930267"><ele>1040.2</ele><time>2026-04-07T08:48:10Z</time></trkpt><trkpt lat="46.08779681051097" lon="10.36590826452516"><ele>1045.8000000000002</ele><time>2026-04-07T08:48:11Z</time></trkpt><trkpt lat="46.08776935644657" lon="10.36603988764094"><ele>1051.4</ele><time>2026-04-07T08:48:12Z</time></trkpt><trkpt lat="46.087757580713706" lon="10.366155112184893"><ele>1057.0</ele><time>2026-04-07T08:48:13Z</time></trkpt><trkpt lat="46.08774191951352" lon="10.366253306356766"><ele>1057.0</ele><time>2026-04-07T08:48:14Z</time></trkpt><trkpt lat="46.08761578260571" lon="10.366295339028921"><ele>1057.0</ele><time>2026-04-07T08:48:16Z</time></trkpt><trkpt lat="46.08743785891124" lon="10.366132753485717"><ele>1057.0</ele><time>2026-04-07T08:48:18Z</time></trkpt><trkpt lat="46.0873254311674" lon="10.366022200443464"><ele>1055.8</ele><time>2026-04-07T08:48:19Z</time></trkpt><trkpt lat="46.08720445293039" lon="10.365924688143778"><ele>1054.6</ele><time>2026-04-07T08:48:20Z</time></trkpt><trkpt lat="46.087105490349686" lon="10.36584222472074"><ele>1053.3999999999999</ele><time>2026-04-07T08:48:21Z</time></trkpt><trkpt lat="46.08702382928504" lon="10.365781347850941"><ele>1052.2</ele><time>2026-04-07T08:48:22Z</time></trkpt><trkpt lat="46.08693356244687" lon="10.365764888582296"><ele>1051.0</ele><time>2026-04-07T08:48:23Z</time></trkpt><trkpt lat="46.086828556602654" lon="10.365805701108684"><ele>1051.0</ele><time>2026-04-07T08:48:24Z</time></trkpt><trkpt lat="46.08670913646886" lon="10.365898751726752"><ele>1051.0</ele><time>2026-04-07T08:48:25Z</time></trkpt><trkpt lat="46.08658141042256" lon="10.36600658365109"><ele>1051.0</ele><time>2026-04-07T08:48:26Z</time></trkpt><trkpt lat="46.0864398077437" lon="10.366090325862777"><ele>1051.0</ele><time>2026-04-07T08:48:27Z</time></trkpt><trkpt lat="46.086303946202804" lon="10.366110854332007"><ele>1053.0</ele><time>2026-04-07T08:48:28Z</time></trkpt><trkpt lat="46.0861798574133" lon="10.366029073582155"><ele>1055.0</ele><time>2026-04-07T08:48:29Z</time></trkpt><trkpt lat="46.086052133152556" lon="10.365941771254573"><ele>1057.0</ele><time>2026-04-07T08:48:30Z</time></trkpt><trkpt lat="46.08589721867973" lon="10.365853742972138"><ele>1059.0</ele><time>2026-04-07T08:48:31Z</time></trkpt><trkpt lat="46.08573468638865" lon="10.365750362754817"><ele>1060.6666666666667</ele><time>2026-04-07T08:48:32Z</time></trkpt><trkpt lat="46.0855650187272" lon="10.365672627883031"><ele>1062.3333333333335</ele><time>2026-04-07T08:48:33Z</time></trkpt><trkpt lat="46.08539263585839" lon="10.36563091615084"><ele>1064.0</ele><time>2026-04-07T08:48:34Z</time></trkpt><trkpt lat="46.08520664691646" lon="10.365628309444489"><ele>1064.0</ele><time>2026-04-07T08:48:35Z</time></trkpt><trkpt lat="46.08500326423039" lon="10.365638899019459"><ele>1064.0</ele><time>2026-04-07T08:48:36Z</time></trkpt><trkpt lat="46.084796851872" lon="10.365643144879819"><ele>1064.0</ele><time>2026-04-07T08:48:37Z</time></trkpt><trkpt lat="46.08460749492557" lon="10.365636639708468"><ele>1064.0</ele><time>2026-04-07T08:48:38Z</time></trkpt><trkpt lat="46.08443430850693" lon="10.365628683465413"><ele>1064.0</ele><time>2026-04-07T08:48:39Z</time></trkpt><trkpt lat="46.08424981791341" lon="10.365613453716092"><ele>1064.0</ele><time>2026-04-07T08:48:40Z</time></trkpt><trkpt lat="46.084069346187974" lon="10.365582573578983"><ele>1066.3333333333335</ele><time>2026-04-07T08:48:41Z</time></trkpt><trkpt lat="46.083870693876314" lon="10.365546404168986"><ele>1068.6666666666667</ele><time>2026-04-07T08:48:42Z</time></trkpt><trkpt lat="46.08367804865491" lon="10.365533025921243"><ele>1071.0</ele><time>2026-04-07T08:48:43Z</time></trkpt><trkpt lat="46.083476506503345" lon="10.365541486245101"><ele>1071.0</ele><time>2026-04-07T08:48:44Z</time></trkpt><trkpt lat="46.08327952311064" lon="10.365556881986928"><ele>1071.0</ele><time>2026-04-07T08:48:45Z</time></trkpt><trkpt lat="46.08308393982452" lon="10.365570757950474"><ele>1071.0</ele><time>2026-04-07T08:48:46Z</time></trkpt><trkpt lat="46.082897663654485" lon="10.365582812218586"><ele>1068.0</ele><time>2026-04-07T08:48:47Z</time></trkpt><trkpt lat="46.082736679888974" lon="10.365589661115115"><ele>1065.0</ele><time>2026-04-07T08:48:48Z</time></trkpt><trkpt lat="46.0825822299067" lon="10.365601660225664"><ele>1062.0</ele><time>2026-04-07T08:48:49Z</time></trkpt><trkpt lat="46.082443226178164" lon="10.365609521338014"><ele>1057.25</ele><time>2026-04-07T08:48:50Z</time></trkpt><trkpt lat="46.08232262243971" lon="10.365616156833797"><ele>1052.5</ele><time>2026-04-07T08:48:51Z</time></trkpt><trkpt lat="46.08219791149717" lon="10.36562290265611"><ele>1047.75</ele><time>2026-04-07T08:48:52Z</time></trkpt><trkpt lat="46.08206602288506" lon="10.36564431251957"><ele>1043.0</ele><time>2026-04-07T08:48:53Z</time></trkpt><trkpt lat="46.081932808789404" lon="10.365681758493807"><ele>1043.0</ele><time>2026-04-07T08:48:54Z</time></trkpt><trkpt lat="46.08179941281938" lon="10.365740858370462"><ele>1043.0</ele><time>2026-04-07T08:48:55Z</time></trkpt><trkpt lat="46.08166348884818" lon="10.365828056300115"><ele>1043.0</ele><time>2026-04-07T08:48:56Z</time></trkpt><trkpt lat="46.08153357921335" lon="10.365922773879046"><ele>1043.0</ele><time>2026-04-07T08:48:57Z</time></trkpt><trkpt lat="46.08140780857917" lon="10.366041930689224"><ele>1041.0</ele><time>2026-04-07T08:48:58Z</time></trkpt><trkpt lat="46.0812996730243" lon="10.366191006652798"><ele>1039.0</ele><time>2026-04-07T08:48:59Z</time></trkpt><trkpt lat="46.08120725457305" lon="10.366362871252282"><ele>1037.0</ele><time>2026-04-07T08:49:00Z</time></trkpt><trkpt lat="46.08112383628884" lon="10.366545367573014"><ele>1037.0</ele><time>2026-04-07T08:49:01Z</time></trkpt><trkpt lat="46.08105062121002" lon="10.366720638113529"><ele>1037.0</ele><time>2026-04-07T08:49:02Z</time></trkpt><trkpt lat="46.080989453963106" lon="10.366906285628868"><ele>1037.0</ele><time>2026-04-07T08:49:03Z</time></trkpt><trkpt lat="46.08094331724924" lon="10.367105674009295"><ele>1037.0</ele><time>2026-04-07T08:49:04Z</time></trkpt><trkpt lat="46.08090190010619" lon="10.367314538535608"><ele>1040.6666666666667</ele><time>2026-04-07T08:49:05Z</time></trkpt><trkpt lat="46.080859398960015" lon="10.367526098839818"><ele>1044.3333333333333</ele><time>2026-04-07T08:49:06Z</time></trkpt><trkpt lat="46.080797576526976" lon="10.367736352662067"><ele>1048.0</ele><time>2026-04-07T08:49:07Z</time></trkpt><trkpt lat="46.080761860492224" lon="10.36797078376997"><ele>1040.0</ele><time>2026-04-07T08:49:08Z</time></trkpt><trkpt lat="46.08070442086478" lon="10.368190026993085"><ele>1032.0</ele><time>2026-04-07T08:49:09Z</time></trkpt><trkpt lat="46.080655176862706" lon="10.368382985507015"><ele>1024.0</ele><time>2026-04-07T08:49:10Z</time></trkpt><trkpt lat="46.08061234591917" lon="10.368554807496578"><ele>1016.0</ele><time>2026-04-07T08:49:11Z</time></trkpt><trkpt lat="46.08055917628259" lon="10.368697952597929"><ele>1016.0</ele><time>2026-04-07T08:49:12Z</time></trkpt><trkpt lat="46.08052928420641" lon="10.368847168143635"><ele>1016.0</ele><time>2026-04-07T08:49:13Z</time></trkpt><trkpt lat="46.08052894876155" lon="10.369019733974369"><ele>1016.0</ele><time>2026-04-07T08:49:14Z</time></trkpt><trkpt lat="46.080538028820996" lon="10.369187863398025"><ele>1016.0</ele><time>2026-04-07T08:49:15Z</time></trkpt><trkpt lat="46.0805560185927" lon="10.369379782221342"><ele>1018.75</ele><time>2026-04-07T08:49:16Z</time></trkpt><trkpt lat="46.0805429590449" lon="10.369568033445047"><ele>1021.5</ele><time>2026-04-07T08:49:17Z</time></trkpt><trkpt lat="46.080538782151464" lon="10.369774465658717"><ele>1024.25</ele><time>2026-04-07T08:49:18Z</time></trkpt><trkpt lat="46.080547353752394" lon="10.370001103678344"><ele>1027.0</ele><time>2026-04-07T08:49:19Z</time></trkpt><trkpt lat="46.080548950458265" lon="10.37023913543048"><ele>1030.6666666666665</ele><time>2026-04-07T08:49:20Z</time></trkpt><trkpt lat="46.08057116479134" lon="10.370473290939431"><ele>1034.3333333333333</ele><time>2026-04-07T08:49:21Z</time></trkpt><trkpt lat="46.080600567449025" lon="10.370701551063334"><ele>1038.0</ele><time>2026-04-07T08:49:22Z</time></trkpt><trkpt lat="46.080609306137134" lon="10.370903598277415"><ele>1040.0</ele><time>2026-04-07T08:49:23Z</time></trkpt><trkpt lat="46.08064658755242" lon="10.371090222108432"><ele>1042.0</ele><time>2026-04-07T08:49:24Z</time></trkpt><trkpt lat="46.08063257878421" lon="10.37125438502208"><ele>1044.0</ele><time>2026-04-07T08:49:25Z</time></trkpt><trkpt lat="46.08060605683784" lon="10.371433137727823"><ele>1046.0</ele><time>2026-04-07T08:49:26Z</time></trkpt><trkpt lat="46.080567860615" lon="10.371628154860081"><ele>1047.25</ele><time>2026-04-07T08:49:27Z</time></trkpt><trkpt lat="46.080537257225906" lon="10.371822704420756"><ele>1048.5</ele><time>2026-04-07T08:49:28Z</time></trkpt><trkpt lat="46.080485165888646" lon="10.371997010633645"><ele>1049.75</ele><time>2026-04-07T08:49:29Z</time></trkpt><trkpt lat="46.08044129228201" lon="10.372184796777923"><ele>1051.0</ele><time>2026-04-07T08:49:30Z</time></trkpt><trkpt lat="46.08042162214173" lon="10.372397403645525"><ele>1053.75</ele><time>2026-04-07T08:49:31Z</time></trkpt><trkpt lat="46.08040629316101" lon="10.372584876852423"><ele>1056.5</ele><time>2026-04-07T08:49:32.001Z</time></trkpt><trkpt lat="46.080388260575454" lon="10.372754119148922"><ele>1059.25</ele><time>2026-04-07T08:49:33.001Z</time></trkpt><trkpt lat="46.08032850278997" lon="10.372893553569723"><ele>1062.0</ele><time>2026-04-07T08:49:34.001Z</time></trkpt><trkpt lat="46.08025919845874" lon="10.37305743166939"><ele>1065.25</ele><time>2026-04-07T08:49:35.001Z</time></trkpt><trkpt lat="46.08013892233964" lon="10.373210042824692"><ele>1068.5</ele><time>2026-04-07T08:49:36.001Z</time></trkpt><trkpt lat="46.08003139974758" lon="10.373347403682063"><ele>1071.75</ele><time>2026-04-07T08:49:37.001Z</time></trkpt><trkpt lat="46.079969527012935" lon="10.373488323333659"><ele>1075.0</ele><time>2026-04-07T08:49:38.001Z</time></trkpt><trkpt lat="46.07994190287312" lon="10.37366962017396"><ele>1078.0</ele><time>2026-04-07T08:49:39.001Z</time></trkpt><trkpt lat="46.079935218094796" lon="10.373887514935943"><ele>1081.0</ele><time>2026-04-07T08:49:40.001Z</time></trkpt><trkpt lat="46.07993721701074" lon="10.374124742417292"><ele>1084.0</ele><time>2026-04-07T08:49:41.001Z</time></trkpt><trkpt lat="46.07993760504965" lon="10.374372229355656"><ele>1084.0</ele><time>2026-04-07T08:49:42.001Z</time></trkpt><trkpt lat="46.07994413443851" lon="10.374617977323755"><ele>1084.0</ele><time>2026-04-07T08:49:43.001Z</time></trkpt><trkpt lat="46.079942186786774" lon="10.374860856652122"><ele>1084.0</ele><time>2026-04-07T08:49:44.001Z</time></trkpt><trkpt lat="46.079982338066344" lon="10.375115370418918"><ele>1084.3333333333333</ele><time>2026-04-07T08:49:45.001Z</time></trkpt><trkpt lat="46.080019457156" lon="10.375355325476566"><ele>1084.6666666666667</ele><time>2026-04-07T08:49:46.001Z</time></trkpt><trkpt lat="46.080086260519685" lon="10.375588103396149"><ele>1085.0</ele><time>2026-04-07T08:49:47.001Z</time></trkpt><trkpt lat="46.08018529996457" lon="10.375834573814537"><ele>1084.0</ele><time>2026-04-07T08:49:48.001Z</time></trkpt><trkpt lat="46.0802820700149" lon="10.376076609046638"><ele>1083.0</ele><time>2026-04-07T08:49:49.001Z</time></trkpt><trkpt lat="46.0803374764347" lon="10.376327262128596"><ele>1082.0</ele><time>2026-04-07T08:49:50.001Z</time></trkpt><trkpt lat="46.08037419011792" lon="10.376573632743925"><ele>1079.6666666666667</ele><time>2026-04-07T08:49:51.001Z</time></trkpt><trkpt lat="46.08039738382414" lon="10.376859380252647"><ele>1077.3333333333333</ele><time>2026-04-07T08:49:52.001Z</time></trkpt><trkpt lat="46.0804269259729" lon="10.37714755131011"><ele>1075.0</ele><time>2026-04-07T08:49:53.001Z</time></trkpt><trkpt lat="46.08046332305" lon="10.377418282151279"><ele>1074.5</ele><time>2026-04-07T08:49:54.001Z</time></trkpt><trkpt lat="46.08050713479202" lon="10.377634325766135"><ele>1074.0</ele><time>2026-04-07T08:49:55.001Z</time></trkpt><trkpt lat="46.080539471926436" lon="10.377833503653488"><ele>1073.5</ele><time>2026-04-07T08:49:56.001Z</time></trkpt><trkpt lat="46.08054691444123" lon="10.37803632569451"><ele>1073.0</ele><time>2026-04-07T08:49:57.001Z</time></trkpt><trkpt lat="46.08053566217923" lon="10.378245475509896"><ele>1075.25</ele><time>2026-04-07T08:49:58.001Z</time></trkpt><trkpt lat="46.08051074656196" lon="10.378427103788495"><ele>1077.5</ele><time>2026-04-07T08:49:59.001Z</time></trkpt><trkpt lat="46.08047013570519" lon="10.378576346043868"><ele>1079.75</ele><time>2026-04-07T08:50:00.001Z</time></trkpt><trkpt lat="46.08040291100022" lon="10.378698059231759"><ele>1082.0</ele><time>2026-04-07T08:50:01.001Z</time></trkpt><trkpt lat="46.08028033858844" lon="10.37876039882781"><ele>1081.5</ele><time>2026-04-07T08:50:02.001Z</time></trkpt><trkpt lat="46.08015302110959" lon="10.378867257131235"><ele>1081.0</ele><time>2026-04-07T08:50:03Z</time></trkpt><trkpt lat="46.08002636704164" lon="10.378961856746638"><ele>1080.5</ele><time>2026-04-07T08:50:04Z</time></trkpt><trkpt lat="46.07994645212233" lon="10.379060291504377"><ele>1080.0</ele><time>2026-04-07T08:50:05Z</time></trkpt><trkpt lat="46.07990737405922" lon="10.37918704546276"><ele>1080.0</ele><time>2026-04-07T08:50:06Z</time></trkpt><trkpt lat="46.0799152593742" lon="10.379328583951317"><ele>1080.0</ele><time>2026-04-07T08:50:07Z</time></trkpt><trkpt lat="46.07995680702283" lon="10.379471661164597"><ele>1080.0</ele><time>2026-04-07T08:50:08Z</time></trkpt><trkpt lat="46.08002969397592" lon="10.379607222306449"><ele>1080.0</ele><time>2026-04-07T08:50:09Z</time></trkpt><trkpt lat="46.080129277405234" lon="10.379768627050934"><ele>1087.0</ele><time>2026-04-07T08:50:10Z</time></trkpt><trkpt lat="46.08022182895637" lon="10.379964490071824"><ele>1094.0</ele><time>2026-04-07T08:50:11Z</time></trkpt><trkpt lat="46.080277132465" lon="10.380213512992382"><ele>1101.0</ele><time>2026-04-07T08:50:12Z</time></trkpt><trkpt lat="46.080322974479785" lon="10.380457530500914"><ele>1100.3333333333333</ele><time>2026-04-07T08:50:13Z</time></trkpt><trkpt lat="46.080350769963424" lon="10.380728266281906"><ele>1099.6666666666665</ele><time>2026-04-07T08:50:14Z</time></trkpt><trkpt lat="46.08037222640822" lon="10.381011585663886"><ele>1099.0</ele><time>2026-04-07T08:50:15Z</time></trkpt><trkpt lat="46.0803953035458" lon="10.381316305354261"><ele>1099.6666666666665</ele><time>2026-04-07T08:50:16Z</time></trkpt><trkpt lat="46.080418611785674" lon="10.381624076607011"><ele>1100.3333333333333</ele><time>2026-04-07T08:50:17Z</time></trkpt><trkpt lat="46.08044149047231" lon="10.381922836135532"><ele>1101.0</ele><time>2026-04-07T08:50:18Z</time></trkpt><trkpt lat="46.08046447926998" lon="10.382218090114725"><ele>1102.6666666666667</ele><time>2026-04-07T08:50:19Z</time></trkpt><trkpt lat="46.08050058601994" lon="10.382515349437815"><ele>1104.3333333333335</ele><time>2026-04-07T08:50:20Z</time></trkpt><trkpt lat="46.080493560242324" lon="10.382784128794054"><ele>1106.0</ele><time>2026-04-07T08:50:21Z</time></trkpt><trkpt lat="46.08049825919527" lon="10.383050278858075"><ele>1107.6666666666667</ele><time>2026-04-07T08:50:22Z</time></trkpt><trkpt lat="46.08049329147407" lon="10.383321980726357"><ele>1109.3333333333333</ele><time>2026-04-07T08:50:23Z</time></trkpt><trkpt lat="46.08048321661745" lon="10.383609774767402"><ele>1111.0</ele><time>2026-04-07T08:50:24Z</time></trkpt><trkpt lat="46.0804706977365" lon="10.383911430369979"><ele>1113.0</ele><time>2026-04-07T08:50:25Z</time></trkpt><trkpt lat="46.08045846298196" lon="10.384208625981639"><ele>1115.0</ele><time>2026-04-07T08:50:26Z</time></trkpt><trkpt lat="46.080445739776" lon="10.384517750913124"><ele>1117.0</ele><time>2026-04-07T08:50:27Z</time></trkpt><trkpt lat="46.08043315383724" lon="10.384823540808846"><ele>1119.0</ele><time>2026-04-07T08:50:28Z</time></trkpt><trkpt lat="46.080420655169625" lon="10.385127949365033"><ele>1121.0</ele><time>2026-04-07T08:50:29Z</time></trkpt><trkpt lat="46.080423416696725" lon="10.385441132411554"><ele>1123.0</ele><time>2026-04-07T08:50:30Z</time></trkpt><trkpt lat="46.08041163807037" lon="10.38573311374995"><ele>1125.0</ele><time>2026-04-07T08:50:31Z</time></trkpt><trkpt lat="46.08040145015499" lon="10.385973277286972"><ele>1127.0</ele><time>2026-04-07T08:50:32Z</time></trkpt><trkpt lat="46.08039952130128" lon="10.386238737300259"><ele>1129.0</ele><time>2026-04-07T08:50:33Z</time></trkpt><trkpt lat="46.080427352459466" lon="10.386527206999647"><ele>1129.5</ele><time>2026-04-07T08:50:34Z</time></trkpt><trkpt lat="46.08048311719654" lon="10.386847690810946"><ele>1130.0</ele><time>2026-04-07T08:50:35Z</time></trkpt><trkpt lat="46.08054271243507" lon="10.387161031827073"><ele>1129.0</ele><time>2026-04-07T08:50:36Z</time></trkpt><trkpt lat="46.08056452807892" lon="10.38745654266306"><ele>1128.0</ele><time>2026-04-07T08:50:37Z</time></trkpt><trkpt lat="46.08057688979662" lon="10.387741033933047"><ele>1127.0</ele><time>2026-04-07T08:50:38Z</time></trkpt><trkpt lat="46.080563525298224" lon="10.388052834794161"><ele>1130.0</ele><time>2026-04-07T08:50:39Z</time></trkpt><trkpt lat="46.0805333747995" lon="10.38839845767735"><ele>1133.0</ele><time>2026-04-07T08:50:40Z</time></trkpt><trkpt lat="46.08051271550368" lon="10.388757547184438"><ele>1136.3333333333335</ele><time>2026-04-07T08:50:41Z</time></trkpt><trkpt lat="46.08048179417876" lon="10.389072987252707"><ele>1139.6666666666667</ele><time>2026-04-07T08:50:42Z</time></trkpt><trkpt lat="46.08045505084106" lon="10.389364823935713"><ele>1143.0</ele><time>2026-04-07T08:50:43Z</time></trkpt><trkpt lat="46.08042702898209" lon="10.389653889927274"><ele>1144.6666666666667</ele><time>2026-04-07T08:50:44Z</time></trkpt><trkpt lat="46.08039693396581" lon="10.3899418864895"><ele>1146.3333333333335</ele><time>2026-04-07T08:50:45Z</time></trkpt><trkpt lat="46.08036841868238" lon="10.39018552926836"><ele>1148.0</ele><time>2026-04-07T08:50:46Z</time></trkpt><trkpt lat="46.08034372012856" lon="10.390396868269024"><ele>1151.0</ele><time>2026-04-07T08:50:47Z</time></trkpt><trkpt lat="46.080308071121976" lon="10.390605327165408"><ele>1154.0</ele><time>2026-04-07T08:50:48Z</time></trkpt><trkpt lat="46.08024830482188" lon="10.39079414564583"><ele>1157.0</ele><time>2026-04-07T08:50:49Z</time></trkpt><trkpt lat="46.08015830276425" lon="10.39098615210354"><ele>1157.0</ele><time>2026-04-07T08:50:50Z</time></trkpt><trkpt lat="46.080053644885666" lon="10.391197278109573"><ele>1157.0</ele><time>2026-04-07T08:50:51Z</time></trkpt><trkpt lat="46.07996566172257" lon="10.391382921908226"><ele>1157.0</ele><time>2026-04-07T08:50:52Z</time></trkpt><trkpt lat="46.07988045758551" lon="10.391596199612174"><ele>1155.6666666666667</ele><time>2026-04-07T08:50:53Z</time></trkpt><trkpt lat="46.07981061850263" lon="10.391811201606894"><ele>1154.3333333333333</ele><time>2026-04-07T08:50:54Z</time></trkpt><trkpt lat="46.07976930508171" lon="10.392032234735773"><ele>1153.0</ele><time>2026-04-07T08:50:55Z</time></trkpt><trkpt lat="46.07976564319733" lon="10.392285115540773"><ele>1155.6666666666665</ele><time>2026-04-07T08:50:56Z</time></trkpt><trkpt lat="46.079780911557776" lon="10.392565773068508"><ele>1158.3333333333333</ele><time>2026-04-07T08:50:57Z</time></trkpt><trkpt lat="46.079772775381855" lon="10.39283919469422"><ele>1161.0</ele><time>2026-04-07T08:50:58Z</time></trkpt><trkpt lat="46.079778688361195" lon="10.393097376132571"><ele>1162.6666666666667</ele><time>2026-04-07T08:50:59Z</time></trkpt><trkpt lat="46.07980505202649" lon="10.393346077472035"><ele>1164.3333333333335</ele><time>2026-04-07T08:51:00Z</time></trkpt><trkpt lat="46.0798156035303" lon="10.39360053096997"><ele>1166.0</ele><time>2026-04-07T08:51:01Z</time></trkpt><trkpt lat="46.07980296563908" lon="10.393856119109778"><ele>1166.6666666666667</ele><time>2026-04-07T08:51:02Z</time></trkpt><trkpt lat="46.07978549397837" lon="10.394100794830585"><ele>1167.3333333333333</ele><time>2026-04-07T08:51:03Z</time></trkpt><trkpt lat="46.07976109688274" lon="10.394343287903231"><ele>1168.0</ele><time>2026-04-07T08:51:04Z</time></trkpt><trkpt lat="46.079749080285566" lon="10.394603060718213"><ele>1171.0</ele><time>2026-04-07T08:51:05Z</time></trkpt><trkpt lat="46.079715728011095" lon="10.39485580420975"><ele>1174.0</ele><time>2026-04-07T08:51:06Z</time></trkpt><trkpt lat="46.079681321117576" lon="10.395120665641235"><ele>1177.0</ele><time>2026-04-07T08:51:07Z</time></trkpt><trkpt lat="46.079652558139266" lon="10.395384303870738"><ele>1179.3333333333333</ele><time>2026-04-07T08:51:08Z</time></trkpt><trkpt lat="46.07963070697644" lon="10.395630698897664"><ele>1181.6666666666667</ele><time>2026-04-07T08:51:09Z</time></trkpt><trkpt lat="46.079624262393125" lon="10.395899690407651"><ele>1184.0</ele><time>2026-04-07T08:51:10Z</time></trkpt><trkpt lat="46.07965368829304" lon="10.396156975318716"><ele>1184.6666666666667</ele><time>2026-04-07T08:51:11Z</time></trkpt><trkpt lat="46.07970010641091" lon="10.396436141232856"><ele>1185.3333333333333</ele><time>2026-04-07T08:51:12Z</time></trkpt><trkpt lat="46.079752140009816" lon="10.396710621697206"><ele>1186.0</ele><time>2026-04-07T08:51:13Z</time></trkpt><trkpt lat="46.07980272188147" lon="10.396993181262836"><ele>1184.6666666666665</ele><time>2026-04-07T08:51:14Z</time></trkpt><trkpt lat="46.07985363242064" lon="10.397289594759888"><ele>1183.3333333333333</ele><time>2026-04-07T08:51:15Z</time></trkpt><trkpt lat="46.07988106441756" lon="10.397600073910686"><ele>1182.0</ele><time>2026-04-07T08:51:16Z</time></trkpt><trkpt lat="46.079917809937285" lon="10.397887855569577"><ele>1190.6666666666667</ele><time>2026-04-07T08:51:17Z</time></trkpt><trkpt lat="46.07993605785561" lon="10.398136810301823"><ele>1199.3333333333335</ele><time>2026-04-07T08:51:18Z</time></trkpt><trkpt lat="46.07994437749645" lon="10.398393539319578"><ele>1208.0</ele><time>2026-04-07T08:51:19Z</time></trkpt><trkpt lat="46.07997980254395" lon="10.39865015562912"><ele>1209.0</ele><time>2026-04-07T08:51:20Z</time></trkpt><trkpt lat="46.080008813661685" lon="10.398889338880533"><ele>1210.0</ele><time>2026-04-07T08:51:21Z</time></trkpt><trkpt lat="46.080039136015046" lon="10.399087392192468"><ele>1211.0</ele><time>2026-04-07T08:51:22Z</time></trkpt><trkpt lat="46.080062184663525" lon="10.399274418715539"><ele>1212.0</ele><time>2026-04-07T08:51:23Z</time></trkpt><trkpt lat="46.080046279578355" lon="10.399463499430667"><ele>1212.0</ele><time>2026-04-07T08:51:24Z</time></trkpt><trkpt lat="46.08002856761513" lon="10.39964741773794"><ele>1212.0</ele><time>2026-04-07T08:51:25Z</time></trkpt><trkpt lat="46.07999685702434" lon="10.399805501213311"><ele>1212.0</ele><time>2026-04-07T08:51:26Z</time></trkpt><trkpt lat="46.079967537235255" lon="10.399944665349805"><ele>1212.0</ele><time>2026-04-07T08:51:27Z</time></trkpt><trkpt lat="46.07992243579694" lon="10.40005128629391"><ele>1212.0</ele><time>2026-04-07T08:51:28Z</time></trkpt><trkpt lat="46.079867839410916" lon="10.400128665448895"><ele>1208.8333333333333</ele><time>2026-04-07T08:51:29Z</time></trkpt><trkpt lat="46.07981591240365" lon="10.400284266319524"><ele>1205.6666666666667</ele><time>2026-04-07T08:51:31Z</time></trkpt><trkpt lat="46.079775546437915" lon="10.400372450603586"><ele>1202.5</ele><time>2026-04-07T08:51:32Z</time></trkpt><trkpt lat="46.07973627233747" lon="10.400467928933917"><ele>1199.3333333333335</ele><time>2026-04-07T08:51:33Z</time></trkpt><trkpt lat="46.07970971984891" lon="10.40059521098348"><ele>1196.1666666666667</ele><time>2026-04-07T08:51:34Z</time></trkpt><trkpt lat="46.079698208914735" lon="10.400718089411367"><ele>1193.0</ele><time>2026-04-07T08:51:35Z</time></trkpt><trkpt lat="46.079693767537044" lon="10.400816122652845"><ele>1193.0</ele><time>2026-04-07T08:51:36Z</time></trkpt><trkpt lat="46.07969192930492" lon="10.400955178907527"><ele>1193.0</ele><time>2026-04-07T08:51:38.001Z</time></trkpt><trkpt lat="46.079664952909866" lon="10.401073665473879"><ele>1193.0</ele><time>2026-04-07T08:51:41.001Z</time></trkpt><trkpt lat="46.07963597468246" lon="10.40117483052546"><ele>1193.0</ele><time>2026-04-07T08:51:43.001Z</time></trkpt><trkpt lat="46.07961198305751" lon="10.401263654967236"><ele>1193.0</ele><time>2026-04-07T08:51:45.001Z</time></trkpt><trkpt lat="46.079569907658524" lon="10.401345702576188"><ele>1193.0</ele><time>2026-04-07T08:52:25Z</time></trkpt><trkpt lat="46.07950506360587" lon="10.401362219008968"><ele>1193.8</ele><time>2026-04-07T08:52:33Z</time></trkpt><trkpt lat="46.07949065231891" lon="10.4015240909078"><ele>1194.6</ele><time>2026-04-07T08:52:38Z</time></trkpt><trkpt lat="46.07951601135315" lon="10.401651762901261"><ele>1195.4</ele><time>2026-04-07T08:52:41Z</time></trkpt><trkpt lat="46.07954850537605" lon="10.401770170411913"><ele>1196.2</ele><time>2026-04-07T08:52:44Z</time></trkpt><trkpt lat="46.07957934813017" lon="10.401876736648749"><ele>1197.0</ele><time>2026-04-07T08:52:47Z</time></trkpt><trkpt lat="46.079572818799086" lon="10.401989562586563"><ele>1197.0</ele><time>2026-04-07T08:52:51Z</time></trkpt><trkpt lat="46.07956971755241" lon="10.402082914005996"><ele>1197.0</ele><time>2026-04-07T08:52:53Z</time></trkpt><trkpt lat="46.07960691195479" lon="10.402193722573934"><ele>1197.0</ele><time>2026-04-07T08:52:55Z</time></trkpt><trkpt lat="46.079660244510755" lon="10.40226542086994"><ele>1197.0</ele><time>2026-04-07T08:52:57Z</time></trkpt><trkpt lat="46.07969559314007" lon="10.402390436131636"><ele>1197.0</ele><time>2026-04-07T08:53:00Z</time></trkpt><trkpt lat="46.07971491843987" lon="10.402478680529315"><ele>1197.0</ele><time>2026-04-07T08:53:02Z</time></trkpt><trkpt lat="46.079699847222905" lon="10.402581491862827"><ele>1185.0</ele><time>2026-04-07T08:53:04Z</time></trkpt><trkpt lat="46.079697754997085" lon="10.402707484868287"><ele>1185.0</ele><time>2026-04-07T08:53:08Z</time></trkpt><trkpt lat="46.07965955730545" lon="10.402822599650591"><ele>1185.0</ele><time>2026-04-07T08:53:11Z</time></trkpt><trkpt lat="46.07963592710395" lon="10.402913986447787"><ele>1185.0</ele><time>2026-04-07T08:53:13Z</time></trkpt><trkpt lat="46.07960955379185" lon="10.403002515815443"><ele>1191.0</ele><time>2026-04-07T08:53:15Z</time></trkpt><trkpt lat="46.07957622751205" lon="10.40311284189079"><ele>1191.0</ele><time>2026-04-07T08:53:18Z</time></trkpt></trkseg></trk></gpx>